<?xml version="1.0" encoding="UTF-8" standalone="no" ?>
<gpx xmlns="http://www.topografix.com/GPX/1/1" xmlns:xsi="http://www.w3.org/2001/XMLSchema-instance" xsi:schemaLocation="http://www.topografix.com/GPX/1/1 http://www.topografix.com/GPX/1/1/gpx.xsd" version="1.1" creator="VisuGPX - https://www.visugpx.com">
  <metadata>
    <name>Tour d'Europe: étape 096</name>
    <desc><![CDATA[Étape 096]]></desc>
  </metadata>
  <trk>
    <name><![CDATA[Tour d'Europe: étape 096]]></name>
    <trkseg>
      <trkpt lat="63.57379" lon="19.45745">
        <ele>30.542982</ele>
        <time>2020-10-02T08:04:34.877Z</time>
      </trkpt>
      <trkpt lat="63.57394" lon="19.45746">
        <ele>30.542982</ele>
        <time>2020-10-02T08:06:04.591Z</time>
      </trkpt>
      <trkpt lat="63.57403" lon="19.45743">
        <ele>30.542982</ele>
        <time>2020-10-02T08:06:07.644Z</time>
      </trkpt>
      <trkpt lat="63.57412" lon="19.45759">
        <ele>30.542982</ele>
        <time>2020-10-02T08:06:11.584Z</time>
      </trkpt>
      <trkpt lat="63.57423" lon="19.45758">
        <ele>30.542982</ele>
        <time>2020-10-02T08:06:15.607Z</time>
      </trkpt>
      <trkpt lat="63.57431" lon="19.45743">
        <ele>30.542982</ele>
        <time>2020-10-02T08:06:18.593Z</time>
      </trkpt>
      <trkpt lat="63.57439" lon="19.45724">
        <ele>30.542982</ele>
        <time>2020-10-02T08:06:21.577Z</time>
      </trkpt>
      <trkpt lat="63.57447" lon="19.45707">
        <ele>30.542982</ele>
        <time>2020-10-02T08:06:24.588Z</time>
      </trkpt>
      <trkpt lat="63.57458" lon="19.45701">
        <ele>30.544807</ele>
        <time>2020-10-02T08:06:27.584Z</time>
      </trkpt>
      <trkpt lat="63.57464" lon="19.45715">
        <ele>30.582624</ele>
        <time>2020-10-02T08:06:30.561Z</time>
      </trkpt>
      <trkpt lat="63.57467" lon="19.45736">
        <ele>30.622078</ele>
        <time>2020-10-02T08:06:33.586Z</time>
      </trkpt>
      <trkpt lat="63.57471" lon="19.45759">
        <ele>30.667629</ele>
        <time>2020-10-02T08:06:37.619Z</time>
      </trkpt>
      <trkpt lat="63.57476" lon="19.45783">
        <ele>30.716536</ele>
        <time>2020-10-02T08:06:41.605Z</time>
      </trkpt>
      <trkpt lat="63.5748" lon="19.45801">
        <ele>30.753567</ele>
        <time>2020-10-02T08:06:44.606Z</time>
      </trkpt>
      <trkpt lat="63.57485" lon="19.45823">
        <ele>30.7991</ele>
        <time>2020-10-02T08:06:48.570Z</time>
      </trkpt>
      <trkpt lat="63.5749" lon="19.45844">
        <ele>30.842997</ele>
        <time>2020-10-02T08:06:52.562Z</time>
      </trkpt>
      <trkpt lat="63.57494" lon="19.45865">
        <ele>30.885038</ele>
        <time>2020-10-02T08:06:57.570Z</time>
      </trkpt>
      <trkpt lat="63.57506" lon="19.45872">
        <ele>30.936547</ele>
        <time>2020-10-02T08:08:01.599Z</time>
      </trkpt>
      <trkpt lat="63.57515" lon="19.45871">
        <ele>30.973836</ele>
        <time>2020-10-02T08:08:05.609Z</time>
      </trkpt>
      <trkpt lat="63.57524" lon="19.45861">
        <ele>31.016742</ele>
        <time>2020-10-02T08:08:09.587Z</time>
      </trkpt>
      <trkpt lat="63.57533" lon="19.45856">
        <ele>31.054</ele>
        <time>2020-10-02T08:08:12.604Z</time>
      </trkpt>
      <trkpt lat="63.57543" lon="19.4586">
        <ele>31.09624</ele>
        <time>2020-10-02T08:08:16.582Z</time>
      </trkpt>
      <trkpt lat="63.57547" lon="19.45878">
        <ele>31.134561</ele>
        <time>2020-10-02T08:08:20.577Z</time>
      </trkpt>
      <trkpt lat="63.57552" lon="19.459">
        <ele>31.17811</ele>
        <time>2020-10-02T08:08:24.611Z</time>
      </trkpt>
      <trkpt lat="63.57555" lon="19.45922">
        <ele>31.222036</ele>
        <time>2020-10-02T08:08:28.565Z</time>
      </trkpt>
      <trkpt lat="63.57564" lon="19.45932">
        <ele>31.263886</ele>
        <time>2020-10-02T08:08:32.577Z</time>
      </trkpt>
      <trkpt lat="63.57576" lon="19.45927">
        <ele>31.409038</ele>
        <time>2020-10-02T08:08:36.598Z</time>
      </trkpt>
      <trkpt lat="63.57588" lon="19.45927">
        <ele>31.635946</ele>
        <time>2020-10-02T08:08:40.609Z</time>
      </trkpt>
      <trkpt lat="63.57597" lon="19.45928">
        <ele>31.811516</ele>
        <time>2020-10-02T08:08:43.594Z</time>
      </trkpt>
      <trkpt lat="63.57606" lon="19.45927">
        <ele>31.984976</ele>
        <time>2020-10-02T08:08:46.571Z</time>
      </trkpt>
      <trkpt lat="63.57617" lon="19.45926">
        <ele>32.191344</ele>
        <time>2020-10-02T08:08:50.582Z</time>
      </trkpt>
      <trkpt lat="63.57625" lon="19.45915">
        <ele>32.378312</ele>
        <time>2020-10-02T08:08:53.595Z</time>
      </trkpt>
      <trkpt lat="63.57634" lon="19.45893">
        <ele>32.623612</ele>
        <time>2020-10-02T08:08:56.626Z</time>
      </trkpt>
      <trkpt lat="63.57641" lon="19.45881">
        <ele>32.798734</ele>
        <time>2020-10-02T08:08:58.578Z</time>
      </trkpt>
      <trkpt lat="63.57652" lon="19.45872">
        <ele>33.018892</ele>
        <time>2020-10-02T08:09:00.566Z</time>
      </trkpt>
      <trkpt lat="63.57662" lon="19.45859">
        <ele>33.237029</ele>
        <time>2020-10-02T08:09:04.587Z</time>
      </trkpt>
      <trkpt lat="63.57664" lon="19.45834">
        <ele>33.454402</ele>
        <time>2020-10-02T08:09:07.593Z</time>
      </trkpt>
      <trkpt lat="63.57663" lon="19.4581">
        <ele>33.656523</ele>
        <time>2020-10-02T08:09:10.583Z</time>
      </trkpt>
      <trkpt lat="63.57661" lon="19.45789">
        <ele>33.842926</ele>
        <time>2020-10-02T08:09:13.585Z</time>
      </trkpt>
      <trkpt lat="63.57659" lon="19.45767">
        <ele>34.033392</ele>
        <time>2020-10-02T08:09:16.576Z</time>
      </trkpt>
      <trkpt lat="63.57657" lon="19.45746">
        <ele>34.211464</ele>
        <time>2020-10-02T08:09:19.573Z</time>
      </trkpt>
      <trkpt lat="63.57655" lon="19.45722">
        <ele>34.421369</ele>
        <time>2020-10-02T08:09:22.578Z</time>
      </trkpt>
      <trkpt lat="63.57654" lon="19.45697">
        <ele>34.632774</ele>
        <time>2020-10-02T08:09:25.621Z</time>
      </trkpt>
      <trkpt lat="63.57657" lon="19.45675">
        <ele>35.112475</ele>
        <time>2020-10-02T08:09:28.598Z</time>
      </trkpt>
      <trkpt lat="63.57663" lon="19.45655">
        <ele>35.861517</ele>
        <time>2020-10-02T08:09:31.574Z</time>
      </trkpt>
      <trkpt lat="63.57672" lon="19.45639">
        <ele>36.625064</ele>
        <time>2020-10-02T08:09:34.614Z</time>
      </trkpt>
      <trkpt lat="63.5768" lon="19.45624">
        <ele>37.354692</ele>
        <time>2020-10-02T08:09:38.568Z</time>
      </trkpt>
      <trkpt lat="63.57692" lon="19.45619">
        <ele>38.131592</ele>
        <time>2020-10-02T08:09:43.593Z</time>
      </trkpt>
      <trkpt lat="63.57703" lon="19.45604">
        <ele>39.056891</ele>
        <time>2020-10-02T08:09:46.576Z</time>
      </trkpt>
      <trkpt lat="63.57713" lon="19.45596">
        <ele>39.758356</ele>
        <time>2020-10-02T08:09:49.606Z</time>
      </trkpt>
      <trkpt lat="63.57722" lon="19.45585">
        <ele>40.430946</ele>
        <time>2020-10-02T08:09:55.585Z</time>
      </trkpt>
      <trkpt lat="63.57729" lon="19.45568">
        <ele>41.1521</ele>
        <time>2020-10-02T08:10:02.569Z</time>
      </trkpt>
      <trkpt lat="63.57735" lon="19.45548">
        <ele>41.882192</ele>
        <time>2020-10-02T08:10:07.576Z</time>
      </trkpt>
      <trkpt lat="63.57742" lon="19.45529">
        <ele>42.599793</ele>
        <time>2020-10-02T08:10:13.576Z</time>
      </trkpt>
      <trkpt lat="63.57748" lon="19.45512">
        <ele>43.238808</ele>
        <time>2020-10-02T08:10:18.589Z</time>
      </trkpt>
      <trkpt lat="63.57754" lon="19.45495">
        <ele>43.917191</ele>
        <time>2020-10-02T08:10:22.595Z</time>
      </trkpt>
      <trkpt lat="63.57761" lon="19.45476">
        <ele>44.670225</ele>
        <time>2020-10-02T08:10:27.577Z</time>
      </trkpt>
      <trkpt lat="63.57769" lon="19.45461">
        <ele>45.355891</ele>
        <time>2020-10-02T08:10:31.579Z</time>
      </trkpt>
      <trkpt lat="63.57775" lon="19.45447">
        <ele>45.97527</ele>
        <time>2020-10-02T08:10:34.585Z</time>
      </trkpt>
      <trkpt lat="63.57782" lon="19.45432">
        <ele>46.616534</ele>
        <time>2020-10-02T08:10:37.583Z</time>
      </trkpt>
      <trkpt lat="63.5779" lon="19.45418">
        <ele>46.751268</ele>
        <time>2020-10-02T08:10:40.590Z</time>
      </trkpt>
      <trkpt lat="63.57797" lon="19.45404">
        <ele>46.482296</ele>
        <time>2020-10-02T08:10:43.566Z</time>
      </trkpt>
      <trkpt lat="63.57804" lon="19.45388">
        <ele>46.218112</ele>
        <time>2020-10-02T08:10:46.570Z</time>
      </trkpt>
      <trkpt lat="63.57811" lon="19.45369">
        <ele>45.915765</ele>
        <time>2020-10-02T08:10:49.570Z</time>
      </trkpt>
      <trkpt lat="63.57819" lon="19.45351">
        <ele>45.607052</ele>
        <time>2020-10-02T08:10:52.577Z</time>
      </trkpt>
      <trkpt lat="63.57826" lon="19.45333">
        <ele>45.325535</ele>
        <time>2020-10-02T08:10:55.559Z</time>
      </trkpt>
      <trkpt lat="63.57832" lon="19.45314">
        <ele>45.045819</ele>
        <time>2020-10-02T08:10:58.582Z</time>
      </trkpt>
      <trkpt lat="63.57837" lon="19.45296">
        <ele>44.77712</ele>
        <time>2020-10-02T08:11:01.561Z</time>
      </trkpt>
      <trkpt lat="63.57843" lon="19.45276">
        <ele>44.494643</ele>
        <time>2020-10-02T08:11:04.613Z</time>
      </trkpt>
      <trkpt lat="63.57849" lon="19.45255">
        <ele>44.171491</ele>
        <time>2020-10-02T08:11:07.562Z</time>
      </trkpt>
      <trkpt lat="63.57856" lon="19.45235">
        <ele>43.870192</ele>
        <time>2020-10-02T08:11:10.605Z</time>
      </trkpt>
      <trkpt lat="63.57861" lon="19.45211">
        <ele>43.544933</ele>
        <time>2020-10-02T08:11:13.601Z</time>
      </trkpt>
      <trkpt lat="63.57864" lon="19.45184">
        <ele>43.207957</ele>
        <time>2020-10-02T08:11:16.572Z</time>
      </trkpt>
      <trkpt lat="63.57869" lon="19.45159">
        <ele>42.867143</ele>
        <time>2020-10-02T08:11:19.580Z</time>
      </trkpt>
      <trkpt lat="63.57877" lon="19.45138">
        <ele>42.544205</ele>
        <time>2020-10-02T08:11:22.559Z</time>
      </trkpt>
      <trkpt lat="63.57885" lon="19.45123">
        <ele>42.255447</ele>
        <time>2020-10-02T08:11:25.558Z</time>
      </trkpt>
      <trkpt lat="63.57892" lon="19.45111">
        <ele>41.999639</ele>
        <time>2020-10-02T08:11:28.615Z</time>
      </trkpt>
      <trkpt lat="63.579" lon="19.45098">
        <ele>42.021705</ele>
        <time>2020-10-02T08:11:31.563Z</time>
      </trkpt>
      <trkpt lat="63.57909" lon="19.4509">
        <ele>42.072051</ele>
        <time>2020-10-02T08:11:34.569Z</time>
      </trkpt>
      <trkpt lat="63.5792" lon="19.45094">
        <ele>42.123409</ele>
        <time>2020-10-02T08:11:37.573Z</time>
      </trkpt>
      <trkpt lat="63.57928" lon="19.45106">
        <ele>42.170834</ele>
        <time>2020-10-02T08:11:41.563Z</time>
      </trkpt>
      <trkpt lat="63.57937" lon="19.45117">
        <ele>42.221536</ele>
        <time>2020-10-02T08:11:46.578Z</time>
      </trkpt>
      <trkpt lat="63.57947" lon="19.45124">
        <ele>42.273931</ele>
        <time>2020-10-02T08:11:51.602Z</time>
      </trkpt>
      <trkpt lat="63.57957" lon="19.45119">
        <ele>42.321639</ele>
        <time>2020-10-02T08:11:55.583Z</time>
      </trkpt>
      <trkpt lat="63.57966" lon="19.45107">
        <ele>42.371263</ele>
        <time>2020-10-02T08:11:59.598Z</time>
      </trkpt>
      <trkpt lat="63.57975" lon="19.45095">
        <ele>42.424603</ele>
        <time>2020-10-02T08:12:03.556Z</time>
      </trkpt>
      <trkpt lat="63.57985" lon="19.45081">
        <ele>42.48197</ele>
        <time>2020-10-02T08:12:07.572Z</time>
      </trkpt>
      <trkpt lat="63.57994" lon="19.45069">
        <ele>42.531175</ele>
        <time>2020-10-02T08:12:10.566Z</time>
      </trkpt>
      <trkpt lat="63.58003" lon="19.45058">
        <ele>42.584408</ele>
        <time>2020-10-02T08:12:13.581Z</time>
      </trkpt>
      <trkpt lat="63.58013" lon="19.45044">
        <ele>42.64064</ele>
        <time>2020-10-02T08:12:16.580Z</time>
      </trkpt>
      <trkpt lat="63.58024" lon="19.45028">
        <ele>42.703259</ele>
        <time>2020-10-02T08:12:19.564Z</time>
      </trkpt>
      <trkpt lat="63.58033" lon="19.4501">
        <ele>42.763319</ele>
        <time>2020-10-02T08:12:22.609Z</time>
      </trkpt>
      <trkpt lat="63.58041" lon="19.44994">
        <ele>42.815623</ele>
        <time>2020-10-02T08:12:25.575Z</time>
      </trkpt>
      <trkpt lat="63.5805" lon="19.44977">
        <ele>42.862199</ele>
        <time>2020-10-02T08:12:29.588Z</time>
      </trkpt>
      <trkpt lat="63.58058" lon="19.44959">
        <ele>42.870904</ele>
        <time>2020-10-02T08:12:33.574Z</time>
      </trkpt>
      <trkpt lat="63.58065" lon="19.44947">
        <ele>42.877816</ele>
        <time>2020-10-02T08:12:36.600Z</time>
      </trkpt>
      <trkpt lat="63.58073" lon="19.44934">
        <ele>42.885136</ele>
        <time>2020-10-02T08:12:39.567Z</time>
      </trkpt>
      <trkpt lat="63.58081" lon="19.44922">
        <ele>42.892397</ele>
        <time>2020-10-02T08:12:42.584Z</time>
      </trkpt>
      <trkpt lat="63.58089" lon="19.44911">
        <ele>42.899774</ele>
        <time>2020-10-02T08:12:45.594Z</time>
      </trkpt>
      <trkpt lat="63.58098" lon="19.44898">
        <ele>42.90779</ele>
        <time>2020-10-02T08:12:48.574Z</time>
      </trkpt>
      <trkpt lat="63.58107" lon="19.44884">
        <ele>42.916111</ele>
        <time>2020-10-02T08:12:51.587Z</time>
      </trkpt>
      <trkpt lat="63.58117" lon="19.4487">
        <ele>42.925042</ele>
        <time>2020-10-02T08:12:54.587Z</time>
      </trkpt>
      <trkpt lat="63.58128" lon="19.44855">
        <ele>42.934799</ele>
        <time>2020-10-02T08:12:57.604Z</time>
      </trkpt>
      <trkpt lat="63.58135" lon="19.44843">
        <ele>42.941858</ele>
        <time>2020-10-02T08:12:59.564Z</time>
      </trkpt>
      <trkpt lat="63.58145" lon="19.44829">
        <ele>42.950844</ele>
        <time>2020-10-02T08:13:02.561Z</time>
      </trkpt>
      <trkpt lat="63.58148" lon="19.44807">
        <ele>42.95871</ele>
        <time>2020-10-02T08:13:06.593Z</time>
      </trkpt>
      <trkpt lat="63.58142" lon="19.44789">
        <ele>42.966335</ele>
        <time>2020-10-02T08:13:09.606Z</time>
      </trkpt>
      <trkpt lat="63.58136" lon="19.44774">
        <ele>42.97333</ele>
        <time>2020-10-02T08:13:12.565Z</time>
      </trkpt>
      <trkpt lat="63.58129" lon="19.44746">
        <ele>42.984002</ele>
        <time>2020-10-02T08:13:15.560Z</time>
      </trkpt>
      <trkpt lat="63.58129" lon="19.44722">
        <ele>42.992446</ele>
        <time>2020-10-02T08:13:17.584Z</time>
      </trkpt>
      <trkpt lat="63.58133" lon="19.44699">
        <ele>42.893538</ele>
        <time>2020-10-02T08:13:19.580Z</time>
      </trkpt>
      <trkpt lat="63.58142" lon="19.44678">
        <ele>42.591013</ele>
        <time>2020-10-02T08:13:22.560Z</time>
      </trkpt>
      <trkpt lat="63.58151" lon="19.4467">
        <ele>42.369191</ele>
        <time>2020-10-02T08:13:25.565Z</time>
      </trkpt>
      <trkpt lat="63.58148" lon="19.4465">
        <ele>42.15136</ele>
        <time>2020-10-02T08:13:29.591Z</time>
      </trkpt>
      <trkpt lat="63.58139" lon="19.4464">
        <ele>41.913413</ele>
        <time>2020-10-02T08:13:32.591Z</time>
      </trkpt>
      <trkpt lat="63.5813" lon="19.44628">
        <ele>41.667522</ele>
        <time>2020-10-02T08:13:35.593Z</time>
      </trkpt>
      <trkpt lat="63.58131" lon="19.44603">
        <ele>41.397363</ele>
        <time>2020-10-02T08:13:39.583Z</time>
      </trkpt>
      <trkpt lat="63.5814" lon="19.4458">
        <ele>41.09134</ele>
        <time>2020-10-02T08:13:42.600Z</time>
      </trkpt>
      <trkpt lat="63.58147" lon="19.44562">
        <ele>40.828198</ele>
        <time>2020-10-02T08:13:45.566Z</time>
      </trkpt>
      <trkpt lat="63.58155" lon="19.44545">
        <ele>40.564174</ele>
        <time>2020-10-02T08:13:49.575Z</time>
      </trkpt>
      <trkpt lat="63.58161" lon="19.44527">
        <ele>40.32616</ele>
        <time>2020-10-02T08:13:53.590Z</time>
      </trkpt>
      <trkpt lat="63.58165" lon="19.44505">
        <ele>40.074201</ele>
        <time>2020-10-02T08:13:57.565Z</time>
      </trkpt>
      <trkpt lat="63.58165" lon="19.44484">
        <ele>39.851652</ele>
        <time>2020-10-02T08:14:01.584Z</time>
      </trkpt>
      <trkpt lat="63.58169" lon="19.4446">
        <ele>39.584203</ele>
        <time>2020-10-02T08:14:06.635Z</time>
      </trkpt>
      <trkpt lat="63.58173" lon="19.4444">
        <ele>39.35575</ele>
        <time>2020-10-02T08:14:10.577Z</time>
      </trkpt>
      <trkpt lat="63.58172" lon="19.44418">
        <ele>39.124513</ele>
        <time>2020-10-02T08:14:14.598Z</time>
      </trkpt>
      <trkpt lat="63.58168" lon="19.444">
        <ele>38.912214</ele>
        <time>2020-10-02T08:14:17.573Z</time>
      </trkpt>
      <trkpt lat="63.58162" lon="19.44384">
        <ele>38.733666</ele>
        <time>2020-10-02T08:14:20.565Z</time>
      </trkpt>
      <trkpt lat="63.58155" lon="19.44368">
        <ele>38.730718</ele>
        <time>2020-10-02T08:14:23.562Z</time>
      </trkpt>
      <trkpt lat="63.58149" lon="19.44352">
        <ele>38.727872</ele>
        <time>2020-10-02T08:14:26.620Z</time>
      </trkpt>
      <trkpt lat="63.58143" lon="19.44336">
        <ele>38.724967</ele>
        <time>2020-10-02T08:14:29.566Z</time>
      </trkpt>
      <trkpt lat="63.58135" lon="19.44322">
        <ele>38.721965</ele>
        <time>2020-10-02T08:14:32.560Z</time>
      </trkpt>
      <trkpt lat="63.58127" lon="19.44305">
        <ele>38.718659</ele>
        <time>2020-10-02T08:14:35.594Z</time>
      </trkpt>
      <trkpt lat="63.58118" lon="19.44286">
        <ele>38.714959</ele>
        <time>2020-10-02T08:14:38.575Z</time>
      </trkpt>
      <trkpt lat="63.58111" lon="19.4427">
        <ele>38.71179</ele>
        <time>2020-10-02T08:14:41.584Z</time>
      </trkpt>
      <trkpt lat="63.58102" lon="19.44252">
        <ele>38.708133</ele>
        <time>2020-10-02T08:14:44.558Z</time>
      </trkpt>
      <trkpt lat="63.58095" lon="19.44237">
        <ele>38.705303</ele>
        <time>2020-10-02T08:14:46.570Z</time>
      </trkpt>
      <trkpt lat="63.58088" lon="19.44221">
        <ele>38.702366</ele>
        <time>2020-10-02T08:14:48.646Z</time>
      </trkpt>
      <trkpt lat="63.58082" lon="19.44206">
        <ele>38.69954</ele>
        <time>2020-10-02T08:14:50.574Z</time>
      </trkpt>
      <trkpt lat="63.58075" lon="19.44192">
        <ele>38.696829</ele>
        <time>2020-10-02T08:14:52.589Z</time>
      </trkpt>
      <trkpt lat="63.58069" lon="19.44178">
        <ele>38.694096</ele>
        <time>2020-10-02T08:14:54.594Z</time>
      </trkpt>
      <trkpt lat="63.58061" lon="19.44162">
        <ele>38.690893</ele>
        <time>2020-10-02T08:14:56.609Z</time>
      </trkpt>
      <trkpt lat="63.58053" lon="19.44145">
        <ele>38.687429</ele>
        <time>2020-10-02T08:14:58.574Z</time>
      </trkpt>
      <trkpt lat="63.58044" lon="19.44126">
        <ele>38.683856</ele>
        <time>2020-10-02T08:15:00.582Z</time>
      </trkpt>
      <trkpt lat="63.58036" lon="19.44107">
        <ele>38.680286</ele>
        <time>2020-10-02T08:15:02.568Z</time>
      </trkpt>
      <trkpt lat="63.58028" lon="19.44089">
        <ele>38.23271</ele>
        <time>2020-10-02T08:15:04.562Z</time>
      </trkpt>
      <trkpt lat="63.5802" lon="19.44069">
        <ele>37.714285</ele>
        <time>2020-10-02T08:15:06.570Z</time>
      </trkpt>
      <trkpt lat="63.58012" lon="19.4405">
        <ele>37.203327</ele>
        <time>2020-10-02T08:15:08.580Z</time>
      </trkpt>
      <trkpt lat="63.58004" lon="19.4403">
        <ele>36.667183</ele>
        <time>2020-10-02T08:15:10.603Z</time>
      </trkpt>
      <trkpt lat="63.57996" lon="19.44011">
        <ele>36.14285</ele>
        <time>2020-10-02T08:15:12.598Z</time>
      </trkpt>
      <trkpt lat="63.57988" lon="19.43993">
        <ele>35.635816</ele>
        <time>2020-10-02T08:15:14.601Z</time>
      </trkpt>
      <trkpt lat="63.5798" lon="19.43974">
        <ele>35.127752</ele>
        <time>2020-10-02T08:15:16.566Z</time>
      </trkpt>
      <trkpt lat="63.57972" lon="19.43955">
        <ele>34.610759</ele>
        <time>2020-10-02T08:15:18.581Z</time>
      </trkpt>
      <trkpt lat="63.57964" lon="19.43937">
        <ele>34.110724</ele>
        <time>2020-10-02T08:15:20.553Z</time>
      </trkpt>
      <trkpt lat="63.57956" lon="19.43919">
        <ele>33.609601</ele>
        <time>2020-10-02T08:15:22.557Z</time>
      </trkpt>
      <trkpt lat="63.57948" lon="19.43901">
        <ele>33.100061</ele>
        <time>2020-10-02T08:15:24.579Z</time>
      </trkpt>
      <trkpt lat="63.57939" lon="19.43882">
        <ele>32.564961</ele>
        <time>2020-10-02T08:15:26.571Z</time>
      </trkpt>
      <trkpt lat="63.57931" lon="19.43863">
        <ele>32.035662</ele>
        <time>2020-10-02T08:15:28.557Z</time>
      </trkpt>
      <trkpt lat="63.57922" lon="19.43844">
        <ele>31.50561</ele>
        <time>2020-10-02T08:15:30.560Z</time>
      </trkpt>
      <trkpt lat="63.57914" lon="19.43825">
        <ele>30.975966</ele>
        <time>2020-10-02T08:15:32.567Z</time>
      </trkpt>
      <trkpt lat="63.57905" lon="19.43807">
        <ele>30.693048</ele>
        <time>2020-10-02T08:15:34.570Z</time>
      </trkpt>
      <trkpt lat="63.57897" lon="19.43788">
        <ele>30.654378</ele>
        <time>2020-10-02T08:15:36.591Z</time>
      </trkpt>
      <trkpt lat="63.57889" lon="19.4377">
        <ele>30.614705</ele>
        <time>2020-10-02T08:15:38.607Z</time>
      </trkpt>
      <trkpt lat="63.5788" lon="19.4375">
        <ele>30.574346</ele>
        <time>2020-10-02T08:15:40.569Z</time>
      </trkpt>
      <trkpt lat="63.57872" lon="19.43731">
        <ele>30.533797</ele>
        <time>2020-10-02T08:15:42.579Z</time>
      </trkpt>
      <trkpt lat="63.57863" lon="19.43711">
        <ele>30.492435</ele>
        <time>2020-10-02T08:15:44.601Z</time>
      </trkpt>
      <trkpt lat="63.57854" lon="19.43691">
        <ele>30.450306</ele>
        <time>2020-10-02T08:15:46.586Z</time>
      </trkpt>
      <trkpt lat="63.57846" lon="19.43671">
        <ele>30.408626</ele>
        <time>2020-10-02T08:15:48.571Z</time>
      </trkpt>
      <trkpt lat="63.57837" lon="19.43652">
        <ele>30.367521</ele>
        <time>2020-10-02T08:15:50.567Z</time>
      </trkpt>
      <trkpt lat="63.57828" lon="19.43632">
        <ele>30.325604</ele>
        <time>2020-10-02T08:15:52.564Z</time>
      </trkpt>
      <trkpt lat="63.5782" lon="19.43612">
        <ele>30.284927</ele>
        <time>2020-10-02T08:15:54.634Z</time>
      </trkpt>
      <trkpt lat="63.57812" lon="19.43594">
        <ele>30.245571</ele>
        <time>2020-10-02T08:15:56.604Z</time>
      </trkpt>
      <trkpt lat="63.57803" lon="19.43575">
        <ele>30.206214</ele>
        <time>2020-10-02T08:15:58.562Z</time>
      </trkpt>
      <trkpt lat="63.57795" lon="19.43556">
        <ele>30.165896</ele>
        <time>2020-10-02T08:16:00.593Z</time>
      </trkpt>
      <trkpt lat="63.57785" lon="19.43538">
        <ele>30.124493</ele>
        <time>2020-10-02T08:16:02.590Z</time>
      </trkpt>
      <trkpt lat="63.57776" lon="19.4352">
        <ele>30.07462</ele>
        <time>2020-10-02T08:16:04.585Z</time>
      </trkpt>
      <trkpt lat="63.57767" lon="19.43503">
        <ele>30.019506</ele>
        <time>2020-10-02T08:16:06.575Z</time>
      </trkpt>
      <trkpt lat="63.57758" lon="19.43487">
        <ele>29.964777</ele>
        <time>2020-10-02T08:16:08.595Z</time>
      </trkpt>
      <trkpt lat="63.57748" lon="19.4347">
        <ele>29.908963</ele>
        <time>2020-10-02T08:16:10.595Z</time>
      </trkpt>
      <trkpt lat="63.57738" lon="19.43454">
        <ele>29.853026</ele>
        <time>2020-10-02T08:16:12.556Z</time>
      </trkpt>
      <trkpt lat="63.57728" lon="19.43439">
        <ele>29.798154</ele>
        <time>2020-10-02T08:16:14.568Z</time>
      </trkpt>
      <trkpt lat="63.57718" lon="19.43425">
        <ele>29.742577</ele>
        <time>2020-10-02T08:16:16.580Z</time>
      </trkpt>
      <trkpt lat="63.57708" lon="19.43411">
        <ele>29.68903</ele>
        <time>2020-10-02T08:16:18.557Z</time>
      </trkpt>
      <trkpt lat="63.57698" lon="19.43398">
        <ele>29.634584</ele>
        <time>2020-10-02T08:16:20.592Z</time>
      </trkpt>
      <trkpt lat="63.57688" lon="19.43385">
        <ele>29.579443</ele>
        <time>2020-10-02T08:16:22.560Z</time>
      </trkpt>
      <trkpt lat="63.57677" lon="19.43372">
        <ele>29.524878</ele>
        <time>2020-10-02T08:16:24.571Z</time>
      </trkpt>
      <trkpt lat="63.57666" lon="19.4336">
        <ele>29.469358</ele>
        <time>2020-10-02T08:16:26.599Z</time>
      </trkpt>
      <trkpt lat="63.57656" lon="19.43348">
        <ele>29.414478</ele>
        <time>2020-10-02T08:16:28.578Z</time>
      </trkpt>
      <trkpt lat="63.57645" lon="19.43336">
        <ele>29.360287</ele>
        <time>2020-10-02T08:16:30.579Z</time>
      </trkpt>
      <trkpt lat="63.57635" lon="19.43324">
        <ele>29.306096</ele>
        <time>2020-10-02T08:16:32.610Z</time>
      </trkpt>
      <trkpt lat="63.57624" lon="19.43313">
        <ele>29.225503</ele>
        <time>2020-10-02T08:16:34.589Z</time>
      </trkpt>
      <trkpt lat="63.57613" lon="19.43301">
        <ele>29.116532</ele>
        <time>2020-10-02T08:16:36.577Z</time>
      </trkpt>
      <trkpt lat="63.57602" lon="19.43288">
        <ele>29.007829</ele>
        <time>2020-10-02T08:16:38.566Z</time>
      </trkpt>
      <trkpt lat="63.5759" lon="19.43276">
        <ele>28.899363</ele>
        <time>2020-10-02T08:16:40.589Z</time>
      </trkpt>
      <trkpt lat="63.5758" lon="19.43264">
        <ele>28.792749</ele>
        <time>2020-10-02T08:16:42.567Z</time>
      </trkpt>
      <trkpt lat="63.57568" lon="19.43251">
        <ele>28.683871</ele>
        <time>2020-10-02T08:16:44.559Z</time>
      </trkpt>
      <trkpt lat="63.57558" lon="19.43239">
        <ele>28.576375</ele>
        <time>2020-10-02T08:16:46.579Z</time>
      </trkpt>
      <trkpt lat="63.57546" lon="19.43226">
        <ele>28.466446</ele>
        <time>2020-10-02T08:16:48.587Z</time>
      </trkpt>
      <trkpt lat="63.57535" lon="19.43214">
        <ele>28.356959</ele>
        <time>2020-10-02T08:16:50.569Z</time>
      </trkpt>
      <trkpt lat="63.57524" lon="19.43201">
        <ele>28.249038</ele>
        <time>2020-10-02T08:16:52.579Z</time>
      </trkpt>
      <trkpt lat="63.57513" lon="19.43188">
        <ele>28.139448</ele>
        <time>2020-10-02T08:16:54.603Z</time>
      </trkpt>
      <trkpt lat="63.57502" lon="19.43176">
        <ele>28.030306</ele>
        <time>2020-10-02T08:16:56.615Z</time>
      </trkpt>
      <trkpt lat="63.57491" lon="19.43164">
        <ele>27.92325</ele>
        <time>2020-10-02T08:16:58.579Z</time>
      </trkpt>
      <trkpt lat="63.5748" lon="19.43152">
        <ele>27.815504</ele>
        <time>2020-10-02T08:17:00.566Z</time>
      </trkpt>
      <trkpt lat="63.57469" lon="19.43139">
        <ele>27.710277</ele>
        <time>2020-10-02T08:17:02.574Z</time>
      </trkpt>
      <trkpt lat="63.57458" lon="19.43127">
        <ele>27.707249</ele>
        <time>2020-10-02T08:17:04.579Z</time>
      </trkpt>
      <trkpt lat="63.57448" lon="19.43116">
        <ele>27.709241</ele>
        <time>2020-10-02T08:17:06.565Z</time>
      </trkpt>
      <trkpt lat="63.57437" lon="19.43104">
        <ele>27.711182</ele>
        <time>2020-10-02T08:17:08.587Z</time>
      </trkpt>
      <trkpt lat="63.57427" lon="19.43092">
        <ele>27.713126</ele>
        <time>2020-10-02T08:17:10.583Z</time>
      </trkpt>
      <trkpt lat="63.57416" lon="19.43081">
        <ele>27.715048</ele>
        <time>2020-10-02T08:17:12.613Z</time>
      </trkpt>
      <trkpt lat="63.57406" lon="19.43068">
        <ele>27.716987</ele>
        <time>2020-10-02T08:17:14.572Z</time>
      </trkpt>
      <trkpt lat="63.57396" lon="19.43056">
        <ele>27.718977</ele>
        <time>2020-10-02T08:17:16.597Z</time>
      </trkpt>
      <trkpt lat="63.57386" lon="19.43044">
        <ele>27.720908</ele>
        <time>2020-10-02T08:17:18.578Z</time>
      </trkpt>
      <trkpt lat="63.57375" lon="19.4303">
        <ele>27.722883</ele>
        <time>2020-10-02T08:17:20.563Z</time>
      </trkpt>
      <trkpt lat="63.57365" lon="19.43017">
        <ele>27.724865</ele>
        <time>2020-10-02T08:17:22.568Z</time>
      </trkpt>
      <trkpt lat="63.57355" lon="19.43004">
        <ele>27.726829</ele>
        <time>2020-10-02T08:17:24.560Z</time>
      </trkpt>
      <trkpt lat="63.57345" lon="19.4299">
        <ele>27.728812</ele>
        <time>2020-10-02T08:17:26.563Z</time>
      </trkpt>
      <trkpt lat="63.57335" lon="19.42976">
        <ele>27.73081</ele>
        <time>2020-10-02T08:17:28.598Z</time>
      </trkpt>
      <trkpt lat="63.57325" lon="19.42961">
        <ele>27.732763</ele>
        <time>2020-10-02T08:17:30.589Z</time>
      </trkpt>
      <trkpt lat="63.57315" lon="19.42946">
        <ele>27.734726</ele>
        <time>2020-10-02T08:17:32.618Z</time>
      </trkpt>
      <trkpt lat="63.57306" lon="19.4293">
        <ele>27.76247</ele>
        <time>2020-10-02T08:17:34.585Z</time>
      </trkpt>
      <trkpt lat="63.57296" lon="19.42913">
        <ele>27.803972</ele>
        <time>2020-10-02T08:17:36.571Z</time>
      </trkpt>
      <trkpt lat="63.57287" lon="19.42896">
        <ele>27.844967</ele>
        <time>2020-10-02T08:17:38.590Z</time>
      </trkpt>
      <trkpt lat="63.57278" lon="19.42878">
        <ele>27.884925</ele>
        <time>2020-10-02T08:17:40.571Z</time>
      </trkpt>
      <trkpt lat="63.57269" lon="19.4286">
        <ele>27.925247</ele>
        <time>2020-10-02T08:17:42.568Z</time>
      </trkpt>
      <trkpt lat="63.57261" lon="19.42841">
        <ele>27.966231</ele>
        <time>2020-10-02T08:17:44.559Z</time>
      </trkpt>
      <trkpt lat="63.57252" lon="19.42823">
        <ele>28.005341</ele>
        <time>2020-10-02T08:17:46.567Z</time>
      </trkpt>
      <trkpt lat="63.57244" lon="19.42804">
        <ele>28.044666</ele>
        <time>2020-10-02T08:17:48.586Z</time>
      </trkpt>
      <trkpt lat="63.57236" lon="19.42786">
        <ele>28.084288</ele>
        <time>2020-10-02T08:17:50.602Z</time>
      </trkpt>
      <trkpt lat="63.57228" lon="19.42768">
        <ele>28.122145</ele>
        <time>2020-10-02T08:17:52.568Z</time>
      </trkpt>
      <trkpt lat="63.57221" lon="19.4275">
        <ele>28.159969</ele>
        <time>2020-10-02T08:17:54.600Z</time>
      </trkpt>
      <trkpt lat="63.57212" lon="19.42733">
        <ele>28.197811</ele>
        <time>2020-10-02T08:17:56.597Z</time>
      </trkpt>
      <trkpt lat="63.57205" lon="19.42716">
        <ele>28.234708</ele>
        <time>2020-10-02T08:17:58.578Z</time>
      </trkpt>
      <trkpt lat="63.57197" lon="19.427">
        <ele>28.269865</ele>
        <time>2020-10-02T08:18:00.583Z</time>
      </trkpt>
      <trkpt lat="63.5719" lon="19.42685">
        <ele>28.304059</ele>
        <time>2020-10-02T08:18:02.566Z</time>
      </trkpt>
      <trkpt lat="63.57182" lon="19.4267">
        <ele>28.33841</ele>
        <time>2020-10-02T08:18:04.574Z</time>
      </trkpt>
      <trkpt lat="63.57173" lon="19.42657">
        <ele>28.747143</ele>
        <time>2020-10-02T08:18:06.590Z</time>
      </trkpt>
      <trkpt lat="63.57164" lon="19.42644">
        <ele>29.281361</ele>
        <time>2020-10-02T08:18:08.594Z</time>
      </trkpt>
      <trkpt lat="63.57155" lon="19.42632">
        <ele>29.815353</ele>
        <time>2020-10-02T08:18:10.570Z</time>
      </trkpt>
      <trkpt lat="63.57145" lon="19.42621">
        <ele>30.342935</ele>
        <time>2020-10-02T08:18:12.556Z</time>
      </trkpt>
      <trkpt lat="63.57135" lon="19.42611">
        <ele>30.881232</ele>
        <time>2020-10-02T08:18:14.621Z</time>
      </trkpt>
      <trkpt lat="63.57125" lon="19.42602">
        <ele>31.422276</ele>
        <time>2020-10-02T08:18:16.601Z</time>
      </trkpt>
      <trkpt lat="63.57115" lon="19.42594">
        <ele>31.951207</ele>
        <time>2020-10-02T08:18:18.567Z</time>
      </trkpt>
      <trkpt lat="63.57105" lon="19.42586">
        <ele>32.485304</ele>
        <time>2020-10-02T08:18:20.572Z</time>
      </trkpt>
      <trkpt lat="63.57095" lon="19.42578">
        <ele>33.014948</ele>
        <time>2020-10-02T08:18:22.576Z</time>
      </trkpt>
      <trkpt lat="63.57085" lon="19.42571">
        <ele>33.540144</ele>
        <time>2020-10-02T08:18:24.599Z</time>
      </trkpt>
      <trkpt lat="63.57075" lon="19.42564">
        <ele>34.061586</ele>
        <time>2020-10-02T08:18:26.575Z</time>
      </trkpt>
      <trkpt lat="63.57065" lon="19.42557">
        <ele>34.572232</ele>
        <time>2020-10-02T08:18:28.564Z</time>
      </trkpt>
      <trkpt lat="63.57055" lon="19.42551">
        <ele>35.068904</ele>
        <time>2020-10-02T08:18:30.568Z</time>
      </trkpt>
      <trkpt lat="63.57046" lon="19.42546">
        <ele>35.566129</ele>
        <time>2020-10-02T08:18:32.568Z</time>
      </trkpt>
      <trkpt lat="63.57036" lon="19.4254">
        <ele>36.073509</ele>
        <time>2020-10-02T08:18:34.609Z</time>
      </trkpt>
      <trkpt lat="63.57026" lon="19.42534">
        <ele>36.573915</ele>
        <time>2020-10-02T08:18:36.586Z</time>
      </trkpt>
      <trkpt lat="63.57016" lon="19.42529">
        <ele>37.065236</ele>
        <time>2020-10-02T08:18:38.624Z</time>
      </trkpt>
      <trkpt lat="63.57007" lon="19.42523">
        <ele>37.547548</ele>
        <time>2020-10-02T08:18:40.577Z</time>
      </trkpt>
      <trkpt lat="63.56998" lon="19.42518">
        <ele>38.011626</ele>
        <time>2020-10-02T08:18:42.599Z</time>
      </trkpt>
      <trkpt lat="63.56989" lon="19.42512">
        <ele>38.459738</ele>
        <time>2020-10-02T08:18:44.579Z</time>
      </trkpt>
      <trkpt lat="63.56977" lon="19.42504">
        <ele>39.051286</ele>
        <time>2020-10-02T08:18:47.594Z</time>
      </trkpt>
      <trkpt lat="63.56966" lon="19.42494">
        <ele>39.630913</ele>
        <time>2020-10-02T08:18:50.602Z</time>
      </trkpt>
      <trkpt lat="63.56956" lon="19.42485">
        <ele>40.154179</ele>
        <time>2020-10-02T08:18:53.583Z</time>
      </trkpt>
      <trkpt lat="63.56947" lon="19.42474">
        <ele>40.684127</ele>
        <time>2020-10-02T08:18:56.588Z</time>
      </trkpt>
      <trkpt lat="63.56939" lon="19.42463">
        <ele>41.144239</ele>
        <time>2020-10-02T08:18:59.557Z</time>
      </trkpt>
      <trkpt lat="63.5693" lon="19.42453">
        <ele>41.601178</ele>
        <time>2020-10-02T08:19:02.577Z</time>
      </trkpt>
      <trkpt lat="63.56922" lon="19.42441">
        <ele>42.069996</ele>
        <time>2020-10-02T08:19:05.597Z</time>
      </trkpt>
      <trkpt lat="63.56914" lon="19.4243">
        <ele>42.549938</ele>
        <time>2020-10-02T08:19:08.604Z</time>
      </trkpt>
      <trkpt lat="63.56906" lon="19.42418">
        <ele>43.018134</ele>
        <time>2020-10-02T08:19:11.572Z</time>
      </trkpt>
      <trkpt lat="63.56898" lon="19.42405">
        <ele>43.499303</ele>
        <time>2020-10-02T08:19:14.564Z</time>
      </trkpt>
      <trkpt lat="63.56889" lon="19.42391">
        <ele>44.031265</ele>
        <time>2020-10-02T08:19:17.572Z</time>
      </trkpt>
      <trkpt lat="63.5688" lon="19.42377">
        <ele>44.567399</ele>
        <time>2020-10-02T08:19:20.561Z</time>
      </trkpt>
      <trkpt lat="63.5687" lon="19.42361">
        <ele>45.151563</ele>
        <time>2020-10-02T08:19:23.591Z</time>
      </trkpt>
      <trkpt lat="63.5686" lon="19.42343">
        <ele>45.811289</ele>
        <time>2020-10-02T08:19:26.584Z</time>
      </trkpt>
      <trkpt lat="63.56852" lon="19.4233">
        <ele>46.048303</ele>
        <time>2020-10-02T08:19:28.572Z</time>
      </trkpt>
      <trkpt lat="63.56843" lon="19.42317">
        <ele>46.035267</ele>
        <time>2020-10-02T08:19:30.566Z</time>
      </trkpt>
      <trkpt lat="63.56835" lon="19.42302">
        <ele>46.021269</ele>
        <time>2020-10-02T08:19:32.572Z</time>
      </trkpt>
      <trkpt lat="63.56825" lon="19.42286">
        <ele>46.006278</ele>
        <time>2020-10-02T08:19:34.587Z</time>
      </trkpt>
      <trkpt lat="63.56815" lon="19.42269">
        <ele>45.989572</ele>
        <time>2020-10-02T08:19:36.585Z</time>
      </trkpt>
      <trkpt lat="63.56804" lon="19.42251">
        <ele>45.971696</ele>
        <time>2020-10-02T08:19:38.575Z</time>
      </trkpt>
      <trkpt lat="63.56791" lon="19.42232">
        <ele>45.952643</ele>
        <time>2020-10-02T08:19:40.590Z</time>
      </trkpt>
      <trkpt lat="63.56779" lon="19.42212">
        <ele>45.933394</ele>
        <time>2020-10-02T08:19:42.557Z</time>
      </trkpt>
      <trkpt lat="63.56767" lon="19.42193">
        <ele>45.913835</ele>
        <time>2020-10-02T08:19:44.561Z</time>
      </trkpt>
      <trkpt lat="63.56754" lon="19.42173">
        <ele>45.894381</ele>
        <time>2020-10-02T08:19:46.567Z</time>
      </trkpt>
      <trkpt lat="63.56742" lon="19.42153">
        <ele>45.87471</ele>
        <time>2020-10-02T08:19:48.560Z</time>
      </trkpt>
      <trkpt lat="63.5673" lon="19.42132">
        <ele>45.855052</ele>
        <time>2020-10-02T08:19:50.586Z</time>
      </trkpt>
      <trkpt lat="63.56718" lon="19.42112">
        <ele>45.836185</ele>
        <time>2020-10-02T08:19:52.561Z</time>
      </trkpt>
      <trkpt lat="63.56707" lon="19.42094">
        <ele>45.486132</ele>
        <time>2020-10-02T08:19:54.600Z</time>
      </trkpt>
      <trkpt lat="63.56696" lon="19.42076">
        <ele>44.3268</ele>
        <time>2020-10-02T08:19:56.595Z</time>
      </trkpt>
      <trkpt lat="63.56686" lon="19.42058">
        <ele>43.228657</ele>
        <time>2020-10-02T08:19:58.557Z</time>
      </trkpt>
      <trkpt lat="63.56676" lon="19.42041">
        <ele>42.164973</ele>
        <time>2020-10-02T08:20:00.577Z</time>
      </trkpt>
      <trkpt lat="63.56666" lon="19.42025">
        <ele>41.116985</ele>
        <time>2020-10-02T08:20:02.588Z</time>
      </trkpt>
      <trkpt lat="63.56656" lon="19.42008">
        <ele>40.077845</ele>
        <time>2020-10-02T08:20:04.584Z</time>
      </trkpt>
      <trkpt lat="63.56647" lon="19.41988">
        <ele>38.951419</ele>
        <time>2020-10-02T08:20:06.591Z</time>
      </trkpt>
      <trkpt lat="63.56638" lon="19.41968">
        <ele>37.865427</ele>
        <time>2020-10-02T08:20:08.585Z</time>
      </trkpt>
      <trkpt lat="63.56629" lon="19.41948">
        <ele>36.825646</ele>
        <time>2020-10-02T08:20:10.566Z</time>
      </trkpt>
      <trkpt lat="63.56621" lon="19.4193">
        <ele>35.836303</ele>
        <time>2020-10-02T08:20:12.578Z</time>
      </trkpt>
      <trkpt lat="63.56613" lon="19.41912">
        <ele>34.885289</ele>
        <time>2020-10-02T08:20:14.567Z</time>
      </trkpt>
      <trkpt lat="63.56606" lon="19.41893">
        <ele>33.939816</ele>
        <time>2020-10-02T08:20:16.621Z</time>
      </trkpt>
      <trkpt lat="63.56598" lon="19.41875">
        <ele>33.000179</ele>
        <time>2020-10-02T08:20:18.590Z</time>
      </trkpt>
      <trkpt lat="63.56591" lon="19.41857">
        <ele>32.06913</ele>
        <time>2020-10-02T08:20:20.591Z</time>
      </trkpt>
      <trkpt lat="63.56583" lon="19.41839">
        <ele>31.13808</ele>
        <time>2020-10-02T08:20:22.579Z</time>
      </trkpt>
      <trkpt lat="63.56576" lon="19.41821">
        <ele>30.381458</ele>
        <time>2020-10-02T08:20:24.583Z</time>
      </trkpt>
      <trkpt lat="63.56568" lon="19.41804">
        <ele>30.067599</ele>
        <time>2020-10-02T08:20:26.590Z</time>
      </trkpt>
      <trkpt lat="63.56561" lon="19.41786">
        <ele>29.758644</ele>
        <time>2020-10-02T08:20:28.586Z</time>
      </trkpt>
      <trkpt lat="63.56554" lon="19.41769">
        <ele>29.450616</ele>
        <time>2020-10-02T08:20:30.593Z</time>
      </trkpt>
      <trkpt lat="63.56546" lon="19.41752">
        <ele>29.144434</ele>
        <time>2020-10-02T08:20:32.571Z</time>
      </trkpt>
      <trkpt lat="63.56539" lon="19.41734">
        <ele>28.836246</ele>
        <time>2020-10-02T08:20:34.583Z</time>
      </trkpt>
      <trkpt lat="63.56531" lon="19.41718">
        <ele>28.534394</ele>
        <time>2020-10-02T08:20:36.588Z</time>
      </trkpt>
      <trkpt lat="63.56524" lon="19.41701">
        <ele>28.233685</ele>
        <time>2020-10-02T08:20:38.613Z</time>
      </trkpt>
      <trkpt lat="63.56516" lon="19.41685">
        <ele>27.930824</ele>
        <time>2020-10-02T08:20:40.565Z</time>
      </trkpt>
      <trkpt lat="63.56508" lon="19.41669">
        <ele>27.625369</ele>
        <time>2020-10-02T08:20:42.561Z</time>
      </trkpt>
      <trkpt lat="63.565" lon="19.41653">
        <ele>27.322018</ele>
        <time>2020-10-02T08:20:44.588Z</time>
      </trkpt>
      <trkpt lat="63.56493" lon="19.41637">
        <ele>27.025128</ele>
        <time>2020-10-02T08:20:46.581Z</time>
      </trkpt>
      <trkpt lat="63.56485" lon="19.41622">
        <ele>26.731565</ele>
        <time>2020-10-02T08:20:48.573Z</time>
      </trkpt>
      <trkpt lat="63.56478" lon="19.41606">
        <ele>26.445091</ele>
        <time>2020-10-02T08:20:50.570Z</time>
      </trkpt>
      <trkpt lat="63.56471" lon="19.4159">
        <ele>26.161562</ele>
        <time>2020-10-02T08:20:52.586Z</time>
      </trkpt>
      <trkpt lat="63.56464" lon="19.41575">
        <ele>25.879158</ele>
        <time>2020-10-02T08:20:54.558Z</time>
      </trkpt>
      <trkpt lat="63.56457" lon="19.41559">
        <ele>25.597136</ele>
        <time>2020-10-02T08:20:56.585Z</time>
      </trkpt>
      <trkpt lat="63.5645" lon="19.41544">
        <ele>25.307079</ele>
        <time>2020-10-02T08:20:58.568Z</time>
      </trkpt>
      <trkpt lat="63.56442" lon="19.41529">
        <ele>25.432845</ele>
        <time>2020-10-02T08:21:00.578Z</time>
      </trkpt>
      <trkpt lat="63.56435" lon="19.41513">
        <ele>25.575455</ele>
        <time>2020-10-02T08:21:02.570Z</time>
      </trkpt>
      <trkpt lat="63.56427" lon="19.41496">
        <ele>25.719191</ele>
        <time>2020-10-02T08:21:04.590Z</time>
      </trkpt>
      <trkpt lat="63.5642" lon="19.41479">
        <ele>25.864938</ele>
        <time>2020-10-02T08:21:06.574Z</time>
      </trkpt>
      <trkpt lat="63.56412" lon="19.41462">
        <ele>26.010742</ele>
        <time>2020-10-02T08:21:08.581Z</time>
      </trkpt>
      <trkpt lat="63.56405" lon="19.41444">
        <ele>26.156454</ele>
        <time>2020-10-02T08:21:10.562Z</time>
      </trkpt>
      <trkpt lat="63.56398" lon="19.41426">
        <ele>26.302646</ele>
        <time>2020-10-02T08:21:12.568Z</time>
      </trkpt>
      <trkpt lat="63.56391" lon="19.41409">
        <ele>26.445624</ele>
        <time>2020-10-02T08:21:14.606Z</time>
      </trkpt>
      <trkpt lat="63.56384" lon="19.41391">
        <ele>26.591786</ele>
        <time>2020-10-02T08:21:16.628Z</time>
      </trkpt>
      <trkpt lat="63.56377" lon="19.41374">
        <ele>26.732948</ele>
        <time>2020-10-02T08:21:18.581Z</time>
      </trkpt>
      <trkpt lat="63.5637" lon="19.41356">
        <ele>26.871874</ele>
        <time>2020-10-02T08:21:20.615Z</time>
      </trkpt>
      <trkpt lat="63.56364" lon="19.41339">
        <ele>27.008952</ele>
        <time>2020-10-02T08:21:22.603Z</time>
      </trkpt>
      <trkpt lat="63.56357" lon="19.41324">
        <ele>27.137922</ele>
        <time>2020-10-02T08:21:24.571Z</time>
      </trkpt>
      <trkpt lat="63.5635" lon="19.41309">
        <ele>27.267488</ele>
        <time>2020-10-02T08:21:26.567Z</time>
      </trkpt>
      <trkpt lat="63.56344" lon="19.41294">
        <ele>27.391496</ele>
        <time>2020-10-02T08:21:28.565Z</time>
      </trkpt>
      <trkpt lat="63.56337" lon="19.4128">
        <ele>27.517009</ele>
        <time>2020-10-02T08:21:30.565Z</time>
      </trkpt>
      <trkpt lat="63.5633" lon="19.41266">
        <ele>27.651866</ele>
        <time>2020-10-02T08:21:32.621Z</time>
      </trkpt>
      <trkpt lat="63.56322" lon="19.41252">
        <ele>27.778815</ele>
        <time>2020-10-02T08:21:34.582Z</time>
      </trkpt>
      <trkpt lat="63.56313" lon="19.4124">
        <ele>27.877583</ele>
        <time>2020-10-02T08:21:36.570Z</time>
      </trkpt>
      <trkpt lat="63.56304" lon="19.41229">
        <ele>27.975599</ele>
        <time>2020-10-02T08:21:38.595Z</time>
      </trkpt>
      <trkpt lat="63.56295" lon="19.4122">
        <ele>28.075246</ele>
        <time>2020-10-02T08:21:40.562Z</time>
      </trkpt>
      <trkpt lat="63.56285" lon="19.41211">
        <ele>28.175062</ele>
        <time>2020-10-02T08:21:42.563Z</time>
      </trkpt>
      <trkpt lat="63.56276" lon="19.41202">
        <ele>28.273485</ele>
        <time>2020-10-02T08:21:44.571Z</time>
      </trkpt>
      <trkpt lat="63.56266" lon="19.41193">
        <ele>28.371526</ele>
        <time>2020-10-02T08:21:46.584Z</time>
      </trkpt>
      <trkpt lat="63.56257" lon="19.41185">
        <ele>28.466222</ele>
        <time>2020-10-02T08:21:48.580Z</time>
      </trkpt>
      <trkpt lat="63.56248" lon="19.41176">
        <ele>28.563034</ele>
        <time>2020-10-02T08:21:50.567Z</time>
      </trkpt>
      <trkpt lat="63.56239" lon="19.41167">
        <ele>28.659676</ele>
        <time>2020-10-02T08:21:52.565Z</time>
      </trkpt>
      <trkpt lat="63.5623" lon="19.41158">
        <ele>28.755066</ele>
        <time>2020-10-02T08:21:54.604Z</time>
      </trkpt>
      <trkpt lat="63.56221" lon="19.41148">
        <ele>28.851175</ele>
        <time>2020-10-02T08:21:56.591Z</time>
      </trkpt>
      <trkpt lat="63.56212" lon="19.41139">
        <ele>28.947979</ele>
        <time>2020-10-02T08:21:58.562Z</time>
      </trkpt>
      <trkpt lat="63.56203" lon="19.41129">
        <ele>29.045603</ele>
        <time>2020-10-02T08:22:00.585Z</time>
      </trkpt>
      <trkpt lat="63.56194" lon="19.41118">
        <ele>29.145339</ele>
        <time>2020-10-02T08:22:02.582Z</time>
      </trkpt>
      <trkpt lat="63.56185" lon="19.41107">
        <ele>29.243122</ele>
        <time>2020-10-02T08:22:04.565Z</time>
      </trkpt>
      <trkpt lat="63.56177" lon="19.41094">
        <ele>29.339703</ele>
        <time>2020-10-02T08:22:06.567Z</time>
      </trkpt>
      <trkpt lat="63.56169" lon="19.41081">
        <ele>29.436956</ele>
        <time>2020-10-02T08:22:08.598Z</time>
      </trkpt>
      <trkpt lat="63.5616" lon="19.41068">
        <ele>29.447054</ele>
        <time>2020-10-02T08:22:10.590Z</time>
      </trkpt>
      <trkpt lat="63.56153" lon="19.41055">
        <ele>29.342175</ele>
        <time>2020-10-02T08:22:12.573Z</time>
      </trkpt>
      <trkpt lat="63.56145" lon="19.41042">
        <ele>29.238721</ele>
        <time>2020-10-02T08:22:14.598Z</time>
      </trkpt>
      <trkpt lat="63.56138" lon="19.41028">
        <ele>29.135442</ele>
        <time>2020-10-02T08:22:16.610Z</time>
      </trkpt>
      <trkpt lat="63.5613" lon="19.41014">
        <ele>29.029365</ele>
        <time>2020-10-02T08:22:18.567Z</time>
      </trkpt>
      <trkpt lat="63.56122" lon="19.41">
        <ele>28.921468</ele>
        <time>2020-10-02T08:22:20.567Z</time>
      </trkpt>
      <trkpt lat="63.56114" lon="19.40986">
        <ele>28.813654</ele>
        <time>2020-10-02T08:22:22.584Z</time>
      </trkpt>
      <trkpt lat="63.56106" lon="19.40971">
        <ele>28.703495</ele>
        <time>2020-10-02T08:22:24.580Z</time>
      </trkpt>
      <trkpt lat="63.56099" lon="19.40956">
        <ele>28.59416</ele>
        <time>2020-10-02T08:22:26.595Z</time>
      </trkpt>
      <trkpt lat="63.56091" lon="19.40942">
        <ele>28.48871</ele>
        <time>2020-10-02T08:22:28.583Z</time>
      </trkpt>
      <trkpt lat="63.56084" lon="19.40928">
        <ele>28.385124</ele>
        <time>2020-10-02T08:22:30.567Z</time>
      </trkpt>
      <trkpt lat="63.56076" lon="19.40913">
        <ele>28.278863</ele>
        <time>2020-10-02T08:22:32.587Z</time>
      </trkpt>
      <trkpt lat="63.56069" lon="19.40899">
        <ele>28.17362</ele>
        <time>2020-10-02T08:22:34.566Z</time>
      </trkpt>
      <trkpt lat="63.56061" lon="19.40886">
        <ele>28.070033</ele>
        <time>2020-10-02T08:22:36.586Z</time>
      </trkpt>
      <trkpt lat="63.56054" lon="19.40871">
        <ele>27.964083</ele>
        <time>2020-10-02T08:22:38.571Z</time>
      </trkpt>
      <trkpt lat="63.56046" lon="19.40857">
        <ele>27.858537</ele>
        <time>2020-10-02T08:22:40.575Z</time>
      </trkpt>
      <trkpt lat="63.56039" lon="19.40843">
        <ele>27.753819</ele>
        <time>2020-10-02T08:22:42.580Z</time>
      </trkpt>
      <trkpt lat="63.56031" lon="19.40829">
        <ele>27.650232</ele>
        <time>2020-10-02T08:22:44.559Z</time>
      </trkpt>
      <trkpt lat="63.56024" lon="19.40816">
        <ele>27.57958</ele>
        <time>2020-10-02T08:22:46.571Z</time>
      </trkpt>
      <trkpt lat="63.56016" lon="19.40801">
        <ele>27.741667</ele>
        <time>2020-10-02T08:22:48.561Z</time>
      </trkpt>
      <trkpt lat="63.56008" lon="19.40788">
        <ele>27.903241</ele>
        <time>2020-10-02T08:22:50.569Z</time>
      </trkpt>
      <trkpt lat="63.56001" lon="19.40774">
        <ele>28.061905</ele>
        <time>2020-10-02T08:22:52.567Z</time>
      </trkpt>
      <trkpt lat="63.55994" lon="19.40759">
        <ele>28.218229</ele>
        <time>2020-10-02T08:22:54.597Z</time>
      </trkpt>
      <trkpt lat="63.55987" lon="19.40745">
        <ele>28.367854</ele>
        <time>2020-10-02T08:22:56.557Z</time>
      </trkpt>
      <trkpt lat="63.55981" lon="19.4073">
        <ele>28.516045</ele>
        <time>2020-10-02T08:22:58.569Z</time>
      </trkpt>
      <trkpt lat="63.55972" lon="19.40708">
        <ele>28.732439</ele>
        <time>2020-10-02T08:23:01.599Z</time>
      </trkpt>
      <trkpt lat="63.55965" lon="19.40693">
        <ele>28.881023</ele>
        <time>2020-10-02T08:23:03.579Z</time>
      </trkpt>
      <trkpt lat="63.55957" lon="19.40671">
        <ele>29.09043</ele>
        <time>2020-10-02T08:23:06.571Z</time>
      </trkpt>
      <trkpt lat="63.55948" lon="19.4065">
        <ele>29.298773</ele>
        <time>2020-10-02T08:23:09.602Z</time>
      </trkpt>
      <trkpt lat="63.5594" lon="19.40629">
        <ele>29.501716</ele>
        <time>2020-10-02T08:23:12.600Z</time>
      </trkpt>
      <trkpt lat="63.55932" lon="19.40607">
        <ele>29.707483</ele>
        <time>2020-10-02T08:23:15.577Z</time>
      </trkpt>
      <trkpt lat="63.55926" lon="19.40591">
        <ele>29.855568</ele>
        <time>2020-10-02T08:23:17.605Z</time>
      </trkpt>
      <trkpt lat="63.55918" lon="19.40576">
        <ele>30.017522</ele>
        <time>2020-10-02T08:23:19.595Z</time>
      </trkpt>
      <trkpt lat="63.55912" lon="19.40559">
        <ele>30.18121</ele>
        <time>2020-10-02T08:23:21.595Z</time>
      </trkpt>
      <trkpt lat="63.55905" lon="19.40543">
        <ele>30.339528</ele>
        <time>2020-10-02T08:23:23.592Z</time>
      </trkpt>
      <trkpt lat="63.55898" lon="19.40527">
        <ele>30.478452</ele>
        <time>2020-10-02T08:23:25.571Z</time>
      </trkpt>
      <trkpt lat="63.55892" lon="19.40511">
        <ele>30.518304</ele>
        <time>2020-10-02T08:23:27.578Z</time>
      </trkpt>
      <trkpt lat="63.55886" lon="19.40495">
        <ele>30.556246</ele>
        <time>2020-10-02T08:23:29.575Z</time>
      </trkpt>
      <trkpt lat="63.5588" lon="19.4048">
        <ele>30.593618</ele>
        <time>2020-10-02T08:23:31.578Z</time>
      </trkpt>
      <trkpt lat="63.55874" lon="19.40465">
        <ele>30.631404</ele>
        <time>2020-10-02T08:23:33.564Z</time>
      </trkpt>
      <trkpt lat="63.55868" lon="19.4045">
        <ele>30.669745</ele>
        <time>2020-10-02T08:23:35.608Z</time>
      </trkpt>
      <trkpt lat="63.55862" lon="19.40434">
        <ele>30.7078</ele>
        <time>2020-10-02T08:23:37.585Z</time>
      </trkpt>
      <trkpt lat="63.55856" lon="19.40419">
        <ele>30.746544</ele>
        <time>2020-10-02T08:23:39.590Z</time>
      </trkpt>
      <trkpt lat="63.55849" lon="19.40403">
        <ele>30.785157</ele>
        <time>2020-10-02T08:23:41.601Z</time>
      </trkpt>
      <trkpt lat="63.55843" lon="19.40387">
        <ele>30.824455</ele>
        <time>2020-10-02T08:23:43.606Z</time>
      </trkpt>
      <trkpt lat="63.55837" lon="19.40372">
        <ele>30.861957</ele>
        <time>2020-10-02T08:23:45.582Z</time>
      </trkpt>
      <trkpt lat="63.55831" lon="19.40357">
        <ele>30.900029</ele>
        <time>2020-10-02T08:23:47.575Z</time>
      </trkpt>
      <trkpt lat="63.55824" lon="19.40342">
        <ele>30.939103</ele>
        <time>2020-10-02T08:23:49.576Z</time>
      </trkpt>
      <trkpt lat="63.55818" lon="19.40327">
        <ele>30.97704</ele>
        <time>2020-10-02T08:23:51.587Z</time>
      </trkpt>
      <trkpt lat="63.55812" lon="19.40312">
        <ele>31.014678</ele>
        <time>2020-10-02T08:23:53.580Z</time>
      </trkpt>
      <trkpt lat="63.55805" lon="19.40297">
        <ele>31.053195</ele>
        <time>2020-10-02T08:23:55.575Z</time>
      </trkpt>
      <trkpt lat="63.55799" lon="19.40283">
        <ele>31.091157</ele>
        <time>2020-10-02T08:23:57.575Z</time>
      </trkpt>
      <trkpt lat="63.55792" lon="19.40268">
        <ele>31.130304</ele>
        <time>2020-10-02T08:23:59.621Z</time>
      </trkpt>
      <trkpt lat="63.55786" lon="19.40253">
        <ele>31.169411</ele>
        <time>2020-10-02T08:24:01.558Z</time>
      </trkpt>
      <trkpt lat="63.55779" lon="19.40238">
        <ele>31.209597</ele>
        <time>2020-10-02T08:24:03.567Z</time>
      </trkpt>
      <trkpt lat="63.55772" lon="19.40223">
        <ele>31.450903</ele>
        <time>2020-10-02T08:24:05.602Z</time>
      </trkpt>
      <trkpt lat="63.55765" lon="19.40208">
        <ele>31.78894</ele>
        <time>2020-10-02T08:24:07.577Z</time>
      </trkpt>
      <trkpt lat="63.55758" lon="19.40192">
        <ele>32.125562</ele>
        <time>2020-10-02T08:24:09.570Z</time>
      </trkpt>
      <trkpt lat="63.55751" lon="19.40178">
        <ele>32.453429</ele>
        <time>2020-10-02T08:24:11.589Z</time>
      </trkpt>
      <trkpt lat="63.55744" lon="19.40163">
        <ele>32.774737</ele>
        <time>2020-10-02T08:24:13.583Z</time>
      </trkpt>
      <trkpt lat="63.55738" lon="19.40148">
        <ele>33.087179</ele>
        <time>2020-10-02T08:24:15.565Z</time>
      </trkpt>
      <trkpt lat="63.55728" lon="19.40127">
        <ele>33.535084</ele>
        <time>2020-10-02T08:24:18.588Z</time>
      </trkpt>
      <trkpt lat="63.5572" lon="19.40107">
        <ele>33.964917</ele>
        <time>2020-10-02T08:24:21.605Z</time>
      </trkpt>
      <trkpt lat="63.55711" lon="19.40088">
        <ele>34.371771</ele>
        <time>2020-10-02T08:24:24.576Z</time>
      </trkpt>
      <trkpt lat="63.55703" lon="19.40069">
        <ele>34.761205</ele>
        <time>2020-10-02T08:24:27.578Z</time>
      </trkpt>
      <trkpt lat="63.55696" lon="19.40052">
        <ele>35.112763</ele>
        <time>2020-10-02T08:24:30.588Z</time>
      </trkpt>
      <trkpt lat="63.55689" lon="19.40037">
        <ele>35.440633</ele>
        <time>2020-10-02T08:24:33.582Z</time>
      </trkpt>
      <trkpt lat="63.55683" lon="19.40023">
        <ele>35.750945</ele>
        <time>2020-10-02T08:24:36.606Z</time>
      </trkpt>
      <trkpt lat="63.55675" lon="19.40006">
        <ele>36.121071</ele>
        <time>2020-10-02T08:24:40.586Z</time>
      </trkpt>
      <trkpt lat="63.55668" lon="19.39989">
        <ele>36.481002</ele>
        <time>2020-10-02T08:24:44.598Z</time>
      </trkpt>
      <trkpt lat="63.5566" lon="19.39973">
        <ele>36.853454</ele>
        <time>2020-10-02T08:24:48.568Z</time>
      </trkpt>
      <trkpt lat="63.55651" lon="19.39956">
        <ele>37.245745</ele>
        <time>2020-10-02T08:24:52.559Z</time>
      </trkpt>
      <trkpt lat="63.55641" lon="19.3994">
        <ele>37.604683</ele>
        <time>2020-10-02T08:24:56.579Z</time>
      </trkpt>
      <trkpt lat="63.55634" lon="19.39927">
        <ele>37.879256</ele>
        <time>2020-10-02T08:24:59.576Z</time>
      </trkpt>
      <trkpt lat="63.55626" lon="19.39912">
        <ele>38.166068</ele>
        <time>2020-10-02T08:25:02.572Z</time>
      </trkpt>
      <trkpt lat="63.55619" lon="19.39898">
        <ele>38.460348</ele>
        <time>2020-10-02T08:25:05.573Z</time>
      </trkpt>
      <trkpt lat="63.5561" lon="19.39884">
        <ele>38.756601</ele>
        <time>2020-10-02T08:25:08.584Z</time>
      </trkpt>
      <trkpt lat="63.55602" lon="19.39871">
        <ele>39.052032</ele>
        <time>2020-10-02T08:25:11.571Z</time>
      </trkpt>
      <trkpt lat="63.55594" lon="19.39858">
        <ele>39.343676</ele>
        <time>2020-10-02T08:25:14.579Z</time>
      </trkpt>
      <trkpt lat="63.55586" lon="19.39845">
        <ele>39.62924</ele>
        <time>2020-10-02T08:25:17.620Z</time>
      </trkpt>
      <trkpt lat="63.55577" lon="19.39834">
        <ele>39.916831</ele>
        <time>2020-10-02T08:25:20.582Z</time>
      </trkpt>
      <trkpt lat="63.55569" lon="19.39821">
        <ele>40.220689</ele>
        <time>2020-10-02T08:25:23.578Z</time>
      </trkpt>
      <trkpt lat="63.55558" lon="19.39807">
        <ele>40.568947</ele>
        <time>2020-10-02T08:25:26.568Z</time>
      </trkpt>
      <trkpt lat="63.55547" lon="19.39794">
        <ele>40.928589</ele>
        <time>2020-10-02T08:25:29.581Z</time>
      </trkpt>
      <trkpt lat="63.55536" lon="19.39782">
        <ele>41.283004</ele>
        <time>2020-10-02T08:25:32.578Z</time>
      </trkpt>
      <trkpt lat="63.55528" lon="19.39773">
        <ele>41.549561</ele>
        <time>2020-10-02T08:25:34.587Z</time>
      </trkpt>
      <trkpt lat="63.55519" lon="19.39764">
        <ele>41.835609</ele>
        <time>2020-10-02T08:25:36.591Z</time>
      </trkpt>
      <trkpt lat="63.5551" lon="19.39755">
        <ele>42.115971</ele>
        <time>2020-10-02T08:25:38.583Z</time>
      </trkpt>
      <trkpt lat="63.55502" lon="19.39745">
        <ele>42.387138</ele>
        <time>2020-10-02T08:25:40.614Z</time>
      </trkpt>
      <trkpt lat="63.55494" lon="19.39736">
        <ele>42.537141</ele>
        <time>2020-10-02T08:25:42.568Z</time>
      </trkpt>
      <trkpt lat="63.55482" lon="19.39722">
        <ele>42.391959</ele>
        <time>2020-10-02T08:25:45.563Z</time>
      </trkpt>
      <trkpt lat="63.55473" lon="19.39712">
        <ele>42.289926</ele>
        <time>2020-10-02T08:25:47.579Z</time>
      </trkpt>
      <trkpt lat="63.55464" lon="19.39701">
        <ele>42.180933</ele>
        <time>2020-10-02T08:25:49.622Z</time>
      </trkpt>
      <trkpt lat="63.55455" lon="19.3969">
        <ele>42.070916</ele>
        <time>2020-10-02T08:25:51.572Z</time>
      </trkpt>
      <trkpt lat="63.55446" lon="19.3968">
        <ele>41.967031</ele>
        <time>2020-10-02T08:25:53.587Z</time>
      </trkpt>
      <trkpt lat="63.55437" lon="19.39671">
        <ele>41.858259</ele>
        <time>2020-10-02T08:25:55.569Z</time>
      </trkpt>
      <trkpt lat="63.55428" lon="19.39661">
        <ele>41.754243</ele>
        <time>2020-10-02T08:25:57.588Z</time>
      </trkpt>
      <trkpt lat="63.55419" lon="19.3965">
        <ele>41.648218</ele>
        <time>2020-10-02T08:25:59.599Z</time>
      </trkpt>
      <trkpt lat="63.5541" lon="19.39641">
        <ele>41.543504</ele>
        <time>2020-10-02T08:26:01.570Z</time>
      </trkpt>
      <trkpt lat="63.55401" lon="19.39633">
        <ele>41.438158</ele>
        <time>2020-10-02T08:26:03.575Z</time>
      </trkpt>
      <trkpt lat="63.55392" lon="19.39623">
        <ele>41.331891</ele>
        <time>2020-10-02T08:26:05.601Z</time>
      </trkpt>
      <trkpt lat="63.55383" lon="19.39614">
        <ele>41.228495</ele>
        <time>2020-10-02T08:26:07.569Z</time>
      </trkpt>
      <trkpt lat="63.55374" lon="19.39604">
        <ele>41.122782</ele>
        <time>2020-10-02T08:26:09.575Z</time>
      </trkpt>
      <trkpt lat="63.55365" lon="19.39594">
        <ele>41.014752</ele>
        <time>2020-10-02T08:26:11.575Z</time>
      </trkpt>
      <trkpt lat="63.55356" lon="19.39584">
        <ele>40.907997</ele>
        <time>2020-10-02T08:26:13.581Z</time>
      </trkpt>
      <trkpt lat="63.55347" lon="19.39573">
        <ele>40.802269</ele>
        <time>2020-10-02T08:26:15.560Z</time>
      </trkpt>
      <trkpt lat="63.55338" lon="19.39561">
        <ele>40.690539</ele>
        <time>2020-10-02T08:26:17.562Z</time>
      </trkpt>
      <trkpt lat="63.55327" lon="19.39549">
        <ele>40.289907</ele>
        <time>2020-10-02T08:26:19.598Z</time>
      </trkpt>
      <trkpt lat="63.55316" lon="19.39536">
        <ele>39.755982</ele>
        <time>2020-10-02T08:26:21.565Z</time>
      </trkpt>
      <trkpt lat="63.55303" lon="19.39523">
        <ele>39.176414</ele>
        <time>2020-10-02T08:26:23.589Z</time>
      </trkpt>
      <trkpt lat="63.55288" lon="19.39508">
        <ele>38.545678</ele>
        <time>2020-10-02T08:26:25.578Z</time>
      </trkpt>
      <trkpt lat="63.55274" lon="19.39494">
        <ele>37.891889</ele>
        <time>2020-10-02T08:26:27.588Z</time>
      </trkpt>
      <trkpt lat="63.55259" lon="19.39478">
        <ele>37.24083</ele>
        <time>2020-10-02T08:26:29.591Z</time>
      </trkpt>
      <trkpt lat="63.55247" lon="19.39463">
        <ele>36.657068</ele>
        <time>2020-10-02T08:26:31.589Z</time>
      </trkpt>
      <trkpt lat="63.55234" lon="19.39449">
        <ele>36.084379</ele>
        <time>2020-10-02T08:26:33.568Z</time>
      </trkpt>
      <trkpt lat="63.55222" lon="19.39436">
        <ele>35.546405</ele>
        <time>2020-10-02T08:26:35.569Z</time>
      </trkpt>
      <trkpt lat="63.55211" lon="19.39422">
        <ele>35.032572</ele>
        <time>2020-10-02T08:26:37.578Z</time>
      </trkpt>
      <trkpt lat="63.55199" lon="19.39409">
        <ele>34.500148</ele>
        <time>2020-10-02T08:26:39.566Z</time>
      </trkpt>
      <trkpt lat="63.55188" lon="19.39394">
        <ele>33.959883</ele>
        <time>2020-10-02T08:26:41.584Z</time>
      </trkpt>
      <trkpt lat="63.55176" lon="19.39379">
        <ele>33.419626</ele>
        <time>2020-10-02T08:26:43.562Z</time>
      </trkpt>
      <trkpt lat="63.55165" lon="19.39363">
        <ele>33.302292</ele>
        <time>2020-10-02T08:26:45.578Z</time>
      </trkpt>
      <trkpt lat="63.55155" lon="19.39346">
        <ele>33.241224</ele>
        <time>2020-10-02T08:26:47.581Z</time>
      </trkpt>
      <trkpt lat="63.55145" lon="19.39329">
        <ele>33.182656</ele>
        <time>2020-10-02T08:26:49.568Z</time>
      </trkpt>
      <trkpt lat="63.55136" lon="19.39311">
        <ele>33.125219</ele>
        <time>2020-10-02T08:26:51.611Z</time>
      </trkpt>
      <trkpt lat="63.55127" lon="19.39293">
        <ele>33.069665</ele>
        <time>2020-10-02T08:26:53.560Z</time>
      </trkpt>
      <trkpt lat="63.55118" lon="19.39275">
        <ele>33.01328</ele>
        <time>2020-10-02T08:26:55.563Z</time>
      </trkpt>
      <trkpt lat="63.5511" lon="19.39258">
        <ele>32.961715</ele>
        <time>2020-10-02T08:26:57.584Z</time>
      </trkpt>
      <trkpt lat="63.55102" lon="19.39242">
        <ele>32.912333</ele>
        <time>2020-10-02T08:26:59.569Z</time>
      </trkpt>
      <trkpt lat="63.55095" lon="19.39226">
        <ele>32.86612</ele>
        <time>2020-10-02T08:27:01.597Z</time>
      </trkpt>
      <trkpt lat="63.55089" lon="19.3921">
        <ele>32.822916</ele>
        <time>2020-10-02T08:27:03.569Z</time>
      </trkpt>
      <trkpt lat="63.5508" lon="19.39189">
        <ele>32.7608</ele>
        <time>2020-10-02T08:27:06.571Z</time>
      </trkpt>
      <trkpt lat="63.55072" lon="19.39171">
        <ele>32.705954</ele>
        <time>2020-10-02T08:27:09.578Z</time>
      </trkpt>
      <trkpt lat="63.55064" lon="19.39154">
        <ele>32.654543</ele>
        <time>2020-10-02T08:27:12.564Z</time>
      </trkpt>
      <trkpt lat="63.55055" lon="19.39136">
        <ele>32.599697</ele>
        <time>2020-10-02T08:27:15.584Z</time>
      </trkpt>
      <trkpt lat="63.55047" lon="19.39117">
        <ele>32.54471</ele>
        <time>2020-10-02T08:27:18.575Z</time>
      </trkpt>
      <trkpt lat="63.55039" lon="19.39098">
        <ele>32.671492</ele>
        <time>2020-10-02T08:27:21.562Z</time>
      </trkpt>
      <trkpt lat="63.55031" lon="19.39078">
        <ele>33.041075</ele>
        <time>2020-10-02T08:27:24.566Z</time>
      </trkpt>
      <trkpt lat="63.55023" lon="19.39059">
        <ele>33.402537</ele>
        <time>2020-10-02T08:27:27.569Z</time>
      </trkpt>
      <trkpt lat="63.55015" lon="19.3904">
        <ele>33.769334</ele>
        <time>2020-10-02T08:27:30.567Z</time>
      </trkpt>
      <trkpt lat="63.55007" lon="19.39022">
        <ele>34.128792</ele>
        <time>2020-10-02T08:27:33.569Z</time>
      </trkpt>
      <trkpt lat="63.54999" lon="19.39004">
        <ele>34.474746</ele>
        <time>2020-10-02T08:27:36.597Z</time>
      </trkpt>
      <trkpt lat="63.54991" lon="19.38987">
        <ele>34.812467</ele>
        <time>2020-10-02T08:27:39.584Z</time>
      </trkpt>
      <trkpt lat="63.54983" lon="19.38971">
        <ele>35.145658</ele>
        <time>2020-10-02T08:27:42.582Z</time>
      </trkpt>
      <trkpt lat="63.54976" lon="19.38953">
        <ele>35.488626</ele>
        <time>2020-10-02T08:27:45.587Z</time>
      </trkpt>
      <trkpt lat="63.54969" lon="19.38937">
        <ele>35.800119</ele>
        <time>2020-10-02T08:27:48.563Z</time>
      </trkpt>
      <trkpt lat="63.54961" lon="19.38919">
        <ele>36.142338</ele>
        <time>2020-10-02T08:27:51.580Z</time>
      </trkpt>
      <trkpt lat="63.54953" lon="19.38903">
        <ele>36.474258</ele>
        <time>2020-10-02T08:27:54.595Z</time>
      </trkpt>
      <trkpt lat="63.54945" lon="19.38889">
        <ele>36.784959</ele>
        <time>2020-10-02T08:27:57.573Z</time>
      </trkpt>
      <trkpt lat="63.54937" lon="19.38874">
        <ele>37.122815</ele>
        <time>2020-10-02T08:28:00.579Z</time>
      </trkpt>
      <trkpt lat="63.54929" lon="19.38855">
        <ele>37.492794</ele>
        <time>2020-10-02T08:28:03.581Z</time>
      </trkpt>
      <trkpt lat="63.54926" lon="19.38829">
        <ele>37.857921</ele>
        <time>2020-10-02T08:28:06.564Z</time>
      </trkpt>
      <trkpt lat="63.54926" lon="19.38801">
        <ele>38.069721</ele>
        <time>2020-10-02T08:28:09.597Z</time>
      </trkpt>
      <trkpt lat="63.54924" lon="19.38774">
        <ele>37.895039</ele>
        <time>2020-10-02T08:28:12.572Z</time>
      </trkpt>
      <trkpt lat="63.54919" lon="19.38749">
        <ele>37.719549</ele>
        <time>2020-10-02T08:28:15.568Z</time>
      </trkpt>
      <trkpt lat="63.54914" lon="19.38724">
        <ele>37.538731</ele>
        <time>2020-10-02T08:28:18.586Z</time>
      </trkpt>
      <trkpt lat="63.54909" lon="19.38696">
        <ele>37.347973</ele>
        <time>2020-10-02T08:28:21.579Z</time>
      </trkpt>
      <trkpt lat="63.54905" lon="19.38667">
        <ele>37.154089</ele>
        <time>2020-10-02T08:28:24.569Z</time>
      </trkpt>
      <trkpt lat="63.54902" lon="19.38647">
        <ele>37.022781</ele>
        <time>2020-10-02T08:28:26.588Z</time>
      </trkpt>
      <trkpt lat="63.549" lon="19.38627">
        <ele>36.889434</ele>
        <time>2020-10-02T08:28:28.560Z</time>
      </trkpt>
      <trkpt lat="63.54897" lon="19.38607">
        <ele>36.752887</ele>
        <time>2020-10-02T08:28:30.576Z</time>
      </trkpt>
      <trkpt lat="63.54895" lon="19.38587">
        <ele>36.620749</ele>
        <time>2020-10-02T08:28:32.584Z</time>
      </trkpt>
      <trkpt lat="63.54892" lon="19.38558">
        <ele>36.429528</ele>
        <time>2020-10-02T08:28:35.573Z</time>
      </trkpt>
      <trkpt lat="63.5489" lon="19.38538">
        <ele>36.297809</ele>
        <time>2020-10-02T08:28:37.626Z</time>
      </trkpt>
      <trkpt lat="63.54887" lon="19.38517">
        <ele>36.16239</ele>
        <time>2020-10-02T08:28:39.587Z</time>
      </trkpt>
      <trkpt lat="63.54885" lon="19.38497">
        <ele>36.026971</ele>
        <time>2020-10-02T08:28:41.601Z</time>
      </trkpt>
      <trkpt lat="63.54882" lon="19.38477">
        <ele>35.892906</ele>
        <time>2020-10-02T08:28:43.590Z</time>
      </trkpt>
      <trkpt lat="63.5488" lon="19.38456">
        <ele>35.7567</ele>
        <time>2020-10-02T08:28:45.579Z</time>
      </trkpt>
      <trkpt lat="63.54878" lon="19.38435">
        <ele>35.61881</ele>
        <time>2020-10-02T08:28:47.583Z</time>
      </trkpt>
      <trkpt lat="63.54875" lon="19.38414">
        <ele>35.516284</ele>
        <time>2020-10-02T08:28:49.587Z</time>
      </trkpt>
      <trkpt lat="63.54873" lon="19.38393">
        <ele>35.459445</ele>
        <time>2020-10-02T08:28:51.562Z</time>
      </trkpt>
      <trkpt lat="63.5487" lon="19.38372">
        <ele>35.403642</ele>
        <time>2020-10-02T08:28:53.575Z</time>
      </trkpt>
      <trkpt lat="63.54868" lon="19.38351">
        <ele>35.347346</ele>
        <time>2020-10-02T08:28:55.606Z</time>
      </trkpt>
      <trkpt lat="63.54865" lon="19.3833">
        <ele>35.290863</ele>
        <time>2020-10-02T08:28:57.574Z</time>
      </trkpt>
      <trkpt lat="63.54863" lon="19.3831">
        <ele>35.236204</ele>
        <time>2020-10-02T08:28:59.566Z</time>
      </trkpt>
      <trkpt lat="63.54861" lon="19.38289">
        <ele>35.182169</ele>
        <time>2020-10-02T08:29:01.569Z</time>
      </trkpt>
      <trkpt lat="63.54859" lon="19.38269">
        <ele>35.128496</ele>
        <time>2020-10-02T08:29:03.555Z</time>
      </trkpt>
      <trkpt lat="63.54856" lon="19.38241">
        <ele>35.052532</ele>
        <time>2020-10-02T08:29:06.582Z</time>
      </trkpt>
      <trkpt lat="63.54853" lon="19.38213">
        <ele>34.977057</ele>
        <time>2020-10-02T08:29:09.578Z</time>
      </trkpt>
      <trkpt lat="63.54849" lon="19.38185">
        <ele>34.901645</ele>
        <time>2020-10-02T08:29:12.558Z</time>
      </trkpt>
      <trkpt lat="63.54846" lon="19.38156">
        <ele>34.82502</ele>
        <time>2020-10-02T08:29:15.582Z</time>
      </trkpt>
      <trkpt lat="63.54843" lon="19.38127">
        <ele>34.748043</ele>
        <time>2020-10-02T08:29:18.571Z</time>
      </trkpt>
      <trkpt lat="63.5484" lon="19.38099">
        <ele>34.671952</ele>
        <time>2020-10-02T08:29:21.646Z</time>
      </trkpt>
      <trkpt lat="63.54837" lon="19.3807">
        <ele>34.595467</ele>
        <time>2020-10-02T08:29:24.586Z</time>
      </trkpt>
      <trkpt lat="63.54834" lon="19.38041">
        <ele>34.517853</ele>
        <time>2020-10-02T08:29:27.587Z</time>
      </trkpt>
      <trkpt lat="63.54831" lon="19.38012">
        <ele>34.686785</ele>
        <time>2020-10-02T08:29:30.574Z</time>
      </trkpt>
      <trkpt lat="63.54827" lon="19.37984">
        <ele>34.966398</ele>
        <time>2020-10-02T08:29:33.602Z</time>
      </trkpt>
      <trkpt lat="63.54824" lon="19.37956">
        <ele>35.241387</ele>
        <time>2020-10-02T08:29:36.579Z</time>
      </trkpt>
      <trkpt lat="63.54821" lon="19.37928">
        <ele>35.518637</ele>
        <time>2020-10-02T08:29:39.565Z</time>
      </trkpt>
      <trkpt lat="63.54817" lon="19.379">
        <ele>35.800212</ele>
        <time>2020-10-02T08:29:42.580Z</time>
      </trkpt>
      <trkpt lat="63.54814" lon="19.3788">
        <ele>35.99183</ele>
        <time>2020-10-02T08:29:44.599Z</time>
      </trkpt>
      <trkpt lat="63.54811" lon="19.37852">
        <ele>36.271605</ele>
        <time>2020-10-02T08:29:47.570Z</time>
      </trkpt>
      <trkpt lat="63.54808" lon="19.37823">
        <ele>36.552505</ele>
        <time>2020-10-02T08:29:50.612Z</time>
      </trkpt>
      <trkpt lat="63.54804" lon="19.37796">
        <ele>36.828883</ele>
        <time>2020-10-02T08:29:53.593Z</time>
      </trkpt>
      <trkpt lat="63.54799" lon="19.3777">
        <ele>37.099179</ele>
        <time>2020-10-02T08:29:56.615Z</time>
      </trkpt>
      <trkpt lat="63.54793" lon="19.37744">
        <ele>37.373911</ele>
        <time>2020-10-02T08:29:59.597Z</time>
      </trkpt>
      <trkpt lat="63.54788" lon="19.37717">
        <ele>37.659925</ele>
        <time>2020-10-02T08:30:02.582Z</time>
      </trkpt>
      <trkpt lat="63.54782" lon="19.3769">
        <ele>37.941574</ele>
        <time>2020-10-02T08:30:05.572Z</time>
      </trkpt>
      <trkpt lat="63.54778" lon="19.37672">
        <ele>38.134433</ele>
        <time>2020-10-02T08:30:07.565Z</time>
      </trkpt>
      <trkpt lat="63.54774" lon="19.37654">
        <ele>38.326699</ele>
        <time>2020-10-02T08:30:09.567Z</time>
      </trkpt>
      <trkpt lat="63.54767" lon="19.37628">
        <ele>38.336432</ele>
        <time>2020-10-02T08:30:12.580Z</time>
      </trkpt>
      <trkpt lat="63.54759" lon="19.37604">
        <ele>38.325069</ele>
        <time>2020-10-02T08:30:15.582Z</time>
      </trkpt>
      <trkpt lat="63.54754" lon="19.37588">
        <ele>38.317369</ele>
        <time>2020-10-02T08:30:17.565Z</time>
      </trkpt>
      <trkpt lat="63.54748" lon="19.37572">
        <ele>38.309585</ele>
        <time>2020-10-02T08:30:19.567Z</time>
      </trkpt>
      <trkpt lat="63.54742" lon="19.37557">
        <ele>38.301724</ele>
        <time>2020-10-02T08:30:21.590Z</time>
      </trkpt>
      <trkpt lat="63.54735" lon="19.37541">
        <ele>38.293664</ele>
        <time>2020-10-02T08:30:23.584Z</time>
      </trkpt>
      <trkpt lat="63.54729" lon="19.37526">
        <ele>38.285543</ele>
        <time>2020-10-02T08:30:25.586Z</time>
      </trkpt>
      <trkpt lat="63.54722" lon="19.37511">
        <ele>38.27763</ele>
        <time>2020-10-02T08:30:27.578Z</time>
      </trkpt>
      <trkpt lat="63.54715" lon="19.37496">
        <ele>38.269149</ele>
        <time>2020-10-02T08:30:29.608Z</time>
      </trkpt>
      <trkpt lat="63.54707" lon="19.3748">
        <ele>38.260544</ele>
        <time>2020-10-02T08:30:31.601Z</time>
      </trkpt>
      <trkpt lat="63.547" lon="19.37465">
        <ele>38.251978</ele>
        <time>2020-10-02T08:30:33.585Z</time>
      </trkpt>
      <trkpt lat="63.54692" lon="19.3745">
        <ele>38.243221</ele>
        <time>2020-10-02T08:30:35.598Z</time>
      </trkpt>
      <trkpt lat="63.54684" lon="19.37436">
        <ele>38.234394</ele>
        <time>2020-10-02T08:30:37.581Z</time>
      </trkpt>
      <trkpt lat="63.54676" lon="19.37422">
        <ele>38.225726</ele>
        <time>2020-10-02T08:30:39.601Z</time>
      </trkpt>
      <trkpt lat="63.54668" lon="19.37409">
        <ele>38.217125</ele>
        <time>2020-10-02T08:30:41.572Z</time>
      </trkpt>
      <trkpt lat="63.54659" lon="19.37397">
        <ele>38.208244</ele>
        <time>2020-10-02T08:30:43.597Z</time>
      </trkpt>
      <trkpt lat="63.54649" lon="19.37385">
        <ele>38.199235</ele>
        <time>2020-10-02T08:30:45.568Z</time>
      </trkpt>
      <trkpt lat="63.5464" lon="19.37373">
        <ele>38.158985</ele>
        <time>2020-10-02T08:30:47.572Z</time>
      </trkpt>
      <trkpt lat="63.54631" lon="19.37362">
        <ele>38.0836</ele>
        <time>2020-10-02T08:30:49.599Z</time>
      </trkpt>
      <trkpt lat="63.54623" lon="19.37352">
        <ele>38.007888</ele>
        <time>2020-10-02T08:30:51.564Z</time>
      </trkpt>
      <trkpt lat="63.54614" lon="19.3734">
        <ele>37.933785</ele>
        <time>2020-10-02T08:30:53.603Z</time>
      </trkpt>
      <trkpt lat="63.54606" lon="19.37329">
        <ele>37.857742</ele>
        <time>2020-10-02T08:30:55.568Z</time>
      </trkpt>
      <trkpt lat="63.54597" lon="19.37318">
        <ele>37.783682</ele>
        <time>2020-10-02T08:30:57.581Z</time>
      </trkpt>
      <trkpt lat="63.54589" lon="19.37308">
        <ele>37.708457</ele>
        <time>2020-10-02T08:30:59.568Z</time>
      </trkpt>
      <trkpt lat="63.5458" lon="19.37297">
        <ele>37.632745</ele>
        <time>2020-10-02T08:31:01.573Z</time>
      </trkpt>
      <trkpt lat="63.54571" lon="19.37286">
        <ele>37.553313</ele>
        <time>2020-10-02T08:31:03.586Z</time>
      </trkpt>
      <trkpt lat="63.54561" lon="19.37276">
        <ele>37.471301</ele>
        <time>2020-10-02T08:31:05.586Z</time>
      </trkpt>
      <trkpt lat="63.54552" lon="19.37265">
        <ele>37.394212</ele>
        <time>2020-10-02T08:31:07.582Z</time>
      </trkpt>
      <trkpt lat="63.54543" lon="19.37255">
        <ele>37.318943</ele>
        <time>2020-10-02T08:31:09.584Z</time>
      </trkpt>
      <trkpt lat="63.54534" lon="19.37246">
        <ele>37.244578</ele>
        <time>2020-10-02T08:31:11.561Z</time>
      </trkpt>
      <trkpt lat="63.54525" lon="19.37236">
        <ele>37.169233</ele>
        <time>2020-10-02T08:31:13.567Z</time>
      </trkpt>
      <trkpt lat="63.54516" lon="19.37225">
        <ele>37.091513</ele>
        <time>2020-10-02T08:31:15.572Z</time>
      </trkpt>
      <trkpt lat="63.54507" lon="19.37216">
        <ele>37.013553</ele>
        <time>2020-10-02T08:31:17.642Z</time>
      </trkpt>
      <trkpt lat="63.54498" lon="19.37209">
        <ele>36.93818</ele>
        <time>2020-10-02T08:31:19.576Z</time>
      </trkpt>
      <trkpt lat="63.54488" lon="19.37201">
        <ele>36.86254</ele>
        <time>2020-10-02T08:31:21.571Z</time>
      </trkpt>
      <trkpt lat="63.54479" lon="19.37194">
        <ele>36.759331</ele>
        <time>2020-10-02T08:31:23.564Z</time>
      </trkpt>
      <trkpt lat="63.5447" lon="19.37186">
        <ele>36.619918</ele>
        <time>2020-10-02T08:31:25.583Z</time>
      </trkpt>
      <trkpt lat="63.54461" lon="19.37177">
        <ele>36.483742</ele>
        <time>2020-10-02T08:31:27.593Z</time>
      </trkpt>
      <trkpt lat="63.54451" lon="19.37171">
        <ele>36.34843</ele>
        <time>2020-10-02T08:31:29.566Z</time>
      </trkpt>
      <trkpt lat="63.54442" lon="19.37165">
        <ele>36.213648</ele>
        <time>2020-10-02T08:31:31.565Z</time>
      </trkpt>
      <trkpt lat="63.54432" lon="19.37158">
        <ele>36.0714</ele>
        <time>2020-10-02T08:31:33.571Z</time>
      </trkpt>
      <trkpt lat="63.54422" lon="19.37151">
        <ele>35.928424</ele>
        <time>2020-10-02T08:31:35.572Z</time>
      </trkpt>
      <trkpt lat="63.54412" lon="19.37144">
        <ele>35.781329</ele>
        <time>2020-10-02T08:31:37.573Z</time>
      </trkpt>
      <trkpt lat="63.54401" lon="19.37137">
        <ele>35.633457</ele>
        <time>2020-10-02T08:31:39.609Z</time>
      </trkpt>
      <trkpt lat="63.54392" lon="19.3713">
        <ele>35.491557</ele>
        <time>2020-10-02T08:31:41.578Z</time>
      </trkpt>
      <trkpt lat="63.54382" lon="19.37125">
        <ele>35.350801</ele>
        <time>2020-10-02T08:31:43.580Z</time>
      </trkpt>
      <trkpt lat="63.54372" lon="19.37119">
        <ele>35.208402</ele>
        <time>2020-10-02T08:31:45.562Z</time>
      </trkpt>
      <trkpt lat="63.54362" lon="19.37112">
        <ele>35.067108</ele>
        <time>2020-10-02T08:31:47.563Z</time>
      </trkpt>
      <trkpt lat="63.54352" lon="19.37105">
        <ele>34.926175</ele>
        <time>2020-10-02T08:31:49.577Z</time>
      </trkpt>
      <trkpt lat="63.54343" lon="19.37099">
        <ele>34.794547</ele>
        <time>2020-10-02T08:31:51.581Z</time>
      </trkpt>
      <trkpt lat="63.54333" lon="19.37093">
        <ele>34.659235</ele>
        <time>2020-10-02T08:31:53.581Z</time>
      </trkpt>
      <trkpt lat="63.54323" lon="19.37086">
        <ele>34.515668</ele>
        <time>2020-10-02T08:31:55.576Z</time>
      </trkpt>
      <trkpt lat="63.54314" lon="19.37079">
        <ele>34.373939</ele>
        <time>2020-10-02T08:31:57.577Z</time>
      </trkpt>
      <trkpt lat="63.54304" lon="19.37073">
        <ele>34.255127</ele>
        <time>2020-10-02T08:31:59.561Z</time>
      </trkpt>
      <trkpt lat="63.54294" lon="19.37067">
        <ele>34.142085</ele>
        <time>2020-10-02T08:32:01.630Z</time>
      </trkpt>
      <trkpt lat="63.54284" lon="19.3706">
        <ele>34.023844</ele>
        <time>2020-10-02T08:32:03.591Z</time>
      </trkpt>
      <trkpt lat="63.54274" lon="19.37053">
        <ele>33.907119</ele>
        <time>2020-10-02T08:32:05.561Z</time>
      </trkpt>
      <trkpt lat="63.54265" lon="19.37047">
        <ele>33.793203</ele>
        <time>2020-10-02T08:32:07.564Z</time>
      </trkpt>
      <trkpt lat="63.54255" lon="19.3704">
        <ele>33.680055</ele>
        <time>2020-10-02T08:32:09.581Z</time>
      </trkpt>
      <trkpt lat="63.54246" lon="19.37033">
        <ele>33.570271</ele>
        <time>2020-10-02T08:32:11.617Z</time>
      </trkpt>
      <trkpt lat="63.54236" lon="19.37026">
        <ele>33.456047</ele>
        <time>2020-10-02T08:32:13.582Z</time>
      </trkpt>
      <trkpt lat="63.54227" lon="19.37019">
        <ele>33.342741</ele>
        <time>2020-10-02T08:32:15.579Z</time>
      </trkpt>
      <trkpt lat="63.54217" lon="19.37013">
        <ele>33.228186</ele>
        <time>2020-10-02T08:32:17.566Z</time>
      </trkpt>
      <trkpt lat="63.54207" lon="19.37007">
        <ele>33.113236</ele>
        <time>2020-10-02T08:32:19.560Z</time>
      </trkpt>
      <trkpt lat="63.54197" lon="19.37001">
        <ele>32.997704</ele>
        <time>2020-10-02T08:32:21.566Z</time>
      </trkpt>
      <trkpt lat="63.54188" lon="19.36995">
        <ele>32.881921</ele>
        <time>2020-10-02T08:32:23.561Z</time>
      </trkpt>
      <trkpt lat="63.54178" lon="19.36988">
        <ele>32.767074</ele>
        <time>2020-10-02T08:32:25.571Z</time>
      </trkpt>
      <trkpt lat="63.54168" lon="19.36982">
        <ele>32.651162</ele>
        <time>2020-10-02T08:32:27.569Z</time>
      </trkpt>
      <trkpt lat="63.54158" lon="19.36976">
        <ele>32.534987</ele>
        <time>2020-10-02T08:32:29.669Z</time>
      </trkpt>
      <trkpt lat="63.54148" lon="19.3697">
        <ele>32.418945</ele>
        <time>2020-10-02T08:32:31.599Z</time>
      </trkpt>
      <trkpt lat="63.54139" lon="19.36963">
        <ele>32.31906</ele>
        <time>2020-10-02T08:32:33.613Z</time>
      </trkpt>
      <trkpt lat="63.54129" lon="19.36957">
        <ele>32.382603</ele>
        <time>2020-10-02T08:32:35.578Z</time>
      </trkpt>
      <trkpt lat="63.5412" lon="19.3695">
        <ele>32.446146</ele>
        <time>2020-10-02T08:32:37.607Z</time>
      </trkpt>
      <trkpt lat="63.5411" lon="19.36943">
        <ele>32.508395</ele>
        <time>2020-10-02T08:32:39.571Z</time>
      </trkpt>
      <trkpt lat="63.54101" lon="19.36937">
        <ele>32.569432</ele>
        <time>2020-10-02T08:32:41.602Z</time>
      </trkpt>
      <trkpt lat="63.54092" lon="19.36931">
        <ele>32.632126</ele>
        <time>2020-10-02T08:32:43.577Z</time>
      </trkpt>
      <trkpt lat="63.54082" lon="19.36924">
        <ele>32.693686</ele>
        <time>2020-10-02T08:32:45.598Z</time>
      </trkpt>
      <trkpt lat="63.54073" lon="19.36919">
        <ele>32.754167</ele>
        <time>2020-10-02T08:32:47.588Z</time>
      </trkpt>
      <trkpt lat="63.54064" lon="19.36912">
        <ele>32.813909</ele>
        <time>2020-10-02T08:32:49.583Z</time>
      </trkpt>
      <trkpt lat="63.54055" lon="19.36906">
        <ele>32.874426</ele>
        <time>2020-10-02T08:32:51.586Z</time>
      </trkpt>
      <trkpt lat="63.54046" lon="19.369">
        <ele>32.933763</ele>
        <time>2020-10-02T08:32:53.601Z</time>
      </trkpt>
      <trkpt lat="63.54037" lon="19.36894">
        <ele>32.993946</ele>
        <time>2020-10-02T08:32:55.564Z</time>
      </trkpt>
      <trkpt lat="63.54028" lon="19.36888">
        <ele>33.054427</ele>
        <time>2020-10-02T08:32:57.600Z</time>
      </trkpt>
      <trkpt lat="63.54018" lon="19.36882">
        <ele>33.115218</ele>
        <time>2020-10-02T08:32:59.599Z</time>
      </trkpt>
      <trkpt lat="63.5401" lon="19.36877">
        <ele>33.173869</ele>
        <time>2020-10-02T08:33:01.570Z</time>
      </trkpt>
      <trkpt lat="63.53997" lon="19.36867">
        <ele>33.25904</ele>
        <time>2020-10-02T08:33:04.573Z</time>
      </trkpt>
      <trkpt lat="63.53988" lon="19.36861">
        <ele>33.316037</ele>
        <time>2020-10-02T08:33:06.631Z</time>
      </trkpt>
      <trkpt lat="63.5398" lon="19.36854">
        <ele>33.373452</ele>
        <time>2020-10-02T08:33:08.577Z</time>
      </trkpt>
      <trkpt lat="63.53971" lon="19.36848">
        <ele>33.431653</ele>
        <time>2020-10-02T08:33:10.599Z</time>
      </trkpt>
      <trkpt lat="63.53962" lon="19.36843">
        <ele>33.447685</ele>
        <time>2020-10-02T08:33:12.565Z</time>
      </trkpt>
      <trkpt lat="63.53953" lon="19.36837">
        <ele>33.436132</ele>
        <time>2020-10-02T08:33:14.591Z</time>
      </trkpt>
      <trkpt lat="63.53944" lon="19.36831">
        <ele>33.424432</ele>
        <time>2020-10-02T08:33:16.630Z</time>
      </trkpt>
      <trkpt lat="63.53934" lon="19.36825">
        <ele>33.41253</ele>
        <time>2020-10-02T08:33:18.577Z</time>
      </trkpt>
      <trkpt lat="63.53925" lon="19.36818">
        <ele>33.400434</ele>
        <time>2020-10-02T08:33:20.567Z</time>
      </trkpt>
      <trkpt lat="63.53915" lon="19.36812">
        <ele>33.388205</ele>
        <time>2020-10-02T08:33:22.592Z</time>
      </trkpt>
      <trkpt lat="63.53905" lon="19.36805">
        <ele>33.375704</ele>
        <time>2020-10-02T08:33:24.574Z</time>
      </trkpt>
      <trkpt lat="63.53895" lon="19.36799">
        <ele>33.363157</ele>
        <time>2020-10-02T08:33:26.602Z</time>
      </trkpt>
      <trkpt lat="63.53886" lon="19.36792">
        <ele>33.350564</ele>
        <time>2020-10-02T08:33:28.582Z</time>
      </trkpt>
      <trkpt lat="63.53876" lon="19.36786">
        <ele>33.337915</ele>
        <time>2020-10-02T08:33:30.577Z</time>
      </trkpt>
      <trkpt lat="63.53866" lon="19.36779">
        <ele>33.325586</ele>
        <time>2020-10-02T08:33:32.577Z</time>
      </trkpt>
      <trkpt lat="63.53856" lon="19.36772">
        <ele>33.312861</ele>
        <time>2020-10-02T08:33:34.578Z</time>
      </trkpt>
      <trkpt lat="63.53846" lon="19.36766">
        <ele>33.300213</ele>
        <time>2020-10-02T08:33:36.565Z</time>
      </trkpt>
      <trkpt lat="63.53836" lon="19.36759">
        <ele>33.287432</ele>
        <time>2020-10-02T08:33:38.559Z</time>
      </trkpt>
      <trkpt lat="63.53826" lon="19.36753">
        <ele>33.274535</ele>
        <time>2020-10-02T08:33:40.570Z</time>
      </trkpt>
      <trkpt lat="63.53815" lon="19.36747">
        <ele>33.261813</ele>
        <time>2020-10-02T08:33:42.625Z</time>
      </trkpt>
      <trkpt lat="63.53805" lon="19.36741">
        <ele>33.249104</ele>
        <time>2020-10-02T08:33:44.590Z</time>
      </trkpt>
      <trkpt lat="63.53796" lon="19.36734">
        <ele>33.236776</ele>
        <time>2020-10-02T08:33:46.567Z</time>
      </trkpt>
      <trkpt lat="63.53786" lon="19.36728">
        <ele>33.261316</ele>
        <time>2020-10-02T08:33:48.588Z</time>
      </trkpt>
      <trkpt lat="63.53777" lon="19.36722">
        <ele>33.289662</ele>
        <time>2020-10-02T08:33:50.567Z</time>
      </trkpt>
      <trkpt lat="63.53767" lon="19.36715">
        <ele>33.318007</ele>
        <time>2020-10-02T08:33:52.571Z</time>
      </trkpt>
      <trkpt lat="63.53758" lon="19.36709">
        <ele>33.346871</ele>
        <time>2020-10-02T08:33:54.611Z</time>
      </trkpt>
      <trkpt lat="63.53748" lon="19.36704">
        <ele>33.376403</ele>
        <time>2020-10-02T08:33:56.568Z</time>
      </trkpt>
      <trkpt lat="63.53738" lon="19.36698">
        <ele>33.405934</ele>
        <time>2020-10-02T08:33:58.580Z</time>
      </trkpt>
      <trkpt lat="63.53728" lon="19.36692">
        <ele>33.435531</ele>
        <time>2020-10-02T08:34:00.569Z</time>
      </trkpt>
      <trkpt lat="63.53718" lon="19.36685">
        <ele>33.464781</ele>
        <time>2020-10-02T08:34:02.590Z</time>
      </trkpt>
      <trkpt lat="63.53709" lon="19.36678">
        <ele>33.493753</ele>
        <time>2020-10-02T08:34:04.572Z</time>
      </trkpt>
      <trkpt lat="63.53699" lon="19.36672">
        <ele>33.522526</ele>
        <time>2020-10-02T08:34:06.585Z</time>
      </trkpt>
      <trkpt lat="63.53689" lon="19.36665">
        <ele>33.55268</ele>
        <time>2020-10-02T08:34:08.605Z</time>
      </trkpt>
      <trkpt lat="63.53679" lon="19.36659">
        <ele>33.583115</ele>
        <time>2020-10-02T08:34:10.566Z</time>
      </trkpt>
      <trkpt lat="63.53669" lon="19.36653">
        <ele>33.612535</ele>
        <time>2020-10-02T08:34:12.578Z</time>
      </trkpt>
      <trkpt lat="63.5366" lon="19.36646">
        <ele>33.641713</ele>
        <time>2020-10-02T08:34:14.572Z</time>
      </trkpt>
      <trkpt lat="63.5365" lon="19.36641">
        <ele>33.670472</ele>
        <time>2020-10-02T08:34:16.571Z</time>
      </trkpt>
      <trkpt lat="63.5364" lon="19.36635">
        <ele>33.699232</ele>
        <time>2020-10-02T08:34:18.578Z</time>
      </trkpt>
      <trkpt lat="63.53631" lon="19.36628">
        <ele>33.728132</ele>
        <time>2020-10-02T08:34:20.572Z</time>
      </trkpt>
      <trkpt lat="63.53621" lon="19.36623">
        <ele>33.75987</ele>
        <time>2020-10-02T08:34:22.594Z</time>
      </trkpt>
      <trkpt lat="63.53612" lon="19.36618">
        <ele>33.84503</ele>
        <time>2020-10-02T08:34:24.600Z</time>
      </trkpt>
      <trkpt lat="63.53603" lon="19.36612">
        <ele>33.929336</ele>
        <time>2020-10-02T08:34:26.585Z</time>
      </trkpt>
      <trkpt lat="63.53593" lon="19.36608">
        <ele>34.016309</ele>
        <time>2020-10-02T08:34:28.579Z</time>
      </trkpt>
      <trkpt lat="63.53583" lon="19.36604">
        <ele>34.10407</ele>
        <time>2020-10-02T08:34:30.587Z</time>
      </trkpt>
      <trkpt lat="63.53573" lon="19.36601">
        <ele>34.192108</ele>
        <time>2020-10-02T08:34:32.580Z</time>
      </trkpt>
      <trkpt lat="63.53563" lon="19.36598">
        <ele>34.278958</ele>
        <time>2020-10-02T08:34:34.564Z</time>
      </trkpt>
      <trkpt lat="63.53554" lon="19.36594">
        <ele>34.364845</ele>
        <time>2020-10-02T08:34:36.581Z</time>
      </trkpt>
      <trkpt lat="63.53544" lon="19.36591">
        <ele>34.453643</ele>
        <time>2020-10-02T08:34:38.589Z</time>
      </trkpt>
      <trkpt lat="63.53533" lon="19.36588">
        <ele>34.544772</ele>
        <time>2020-10-02T08:34:40.571Z</time>
      </trkpt>
      <trkpt lat="63.53523" lon="19.36586">
        <ele>34.633119</ele>
        <time>2020-10-02T08:34:42.583Z</time>
      </trkpt>
      <trkpt lat="63.53514" lon="19.36584">
        <ele>34.719677</ele>
        <time>2020-10-02T08:34:44.589Z</time>
      </trkpt>
      <trkpt lat="63.53504" lon="19.36582">
        <ele>34.807045</ele>
        <time>2020-10-02T08:34:46.606Z</time>
      </trkpt>
      <trkpt lat="63.53494" lon="19.36579">
        <ele>34.896132</ele>
        <time>2020-10-02T08:34:48.589Z</time>
      </trkpt>
      <trkpt lat="63.53484" lon="19.36576">
        <ele>34.984729</ele>
        <time>2020-10-02T08:34:50.578Z</time>
      </trkpt>
      <trkpt lat="63.53474" lon="19.36575">
        <ele>35.073765</ele>
        <time>2020-10-02T08:34:52.576Z</time>
      </trkpt>
      <trkpt lat="63.53463" lon="19.36573">
        <ele>35.165388</ele>
        <time>2020-10-02T08:34:54.592Z</time>
      </trkpt>
      <trkpt lat="63.53453" lon="19.36572">
        <ele>35.257083</ele>
        <time>2020-10-02T08:34:56.586Z</time>
      </trkpt>
      <trkpt lat="63.53442" lon="19.36572">
        <ele>35.358604</ele>
        <time>2020-10-02T08:34:58.575Z</time>
      </trkpt>
      <trkpt lat="63.53432" lon="19.36571">
        <ele>35.515097</ele>
        <time>2020-10-02T08:35:00.594Z</time>
      </trkpt>
      <trkpt lat="63.53422" lon="19.3657">
        <ele>35.673343</ele>
        <time>2020-10-02T08:35:02.564Z</time>
      </trkpt>
      <trkpt lat="63.53412" lon="19.3657">
        <ele>35.82678</ele>
        <time>2020-10-02T08:35:04.587Z</time>
      </trkpt>
      <trkpt lat="63.53402" lon="19.36569">
        <ele>35.977119</ele>
        <time>2020-10-02T08:35:06.625Z</time>
      </trkpt>
      <trkpt lat="63.53393" lon="19.36569">
        <ele>36.12431</ele>
        <time>2020-10-02T08:35:08.590Z</time>
      </trkpt>
      <trkpt lat="63.53383" lon="19.36568">
        <ele>36.271625</ele>
        <time>2020-10-02T08:35:10.585Z</time>
      </trkpt>
      <trkpt lat="63.53374" lon="19.36567">
        <ele>36.418888</ele>
        <time>2020-10-02T08:35:12.604Z</time>
      </trkpt>
      <trkpt lat="63.53365" lon="19.36567">
        <ele>36.558352</ele>
        <time>2020-10-02T08:35:14.562Z</time>
      </trkpt>
      <trkpt lat="63.53356" lon="19.36567">
        <ele>36.697796</ele>
        <time>2020-10-02T08:35:16.606Z</time>
      </trkpt>
      <trkpt lat="63.53347" lon="19.36567">
        <ele>36.841888</ele>
        <time>2020-10-02T08:35:18.559Z</time>
      </trkpt>
      <trkpt lat="63.53337" lon="19.36568">
        <ele>36.992272</ele>
        <time>2020-10-02T08:35:20.570Z</time>
      </trkpt>
      <trkpt lat="63.53326" lon="19.3657">
        <ele>37.156968</ele>
        <time>2020-10-02T08:35:22.581Z</time>
      </trkpt>
      <trkpt lat="63.53316" lon="19.36571">
        <ele>37.316882</ele>
        <time>2020-10-02T08:35:24.574Z</time>
      </trkpt>
      <trkpt lat="63.53306" lon="19.36573">
        <ele>37.467736</ele>
        <time>2020-10-02T08:35:26.620Z</time>
      </trkpt>
      <trkpt lat="63.53297" lon="19.36576">
        <ele>37.620974</ele>
        <time>2020-10-02T08:35:28.575Z</time>
      </trkpt>
      <trkpt lat="63.53287" lon="19.36579">
        <ele>37.777106</ele>
        <time>2020-10-02T08:35:30.568Z</time>
      </trkpt>
      <trkpt lat="63.53276" lon="19.36581">
        <ele>37.939014</ele>
        <time>2020-10-02T08:35:32.577Z</time>
      </trkpt>
      <trkpt lat="63.53266" lon="19.36583">
        <ele>38.100856</ele>
        <time>2020-10-02T08:35:34.562Z</time>
      </trkpt>
      <trkpt lat="63.53255" lon="19.36586">
        <ele>38.138759</ele>
        <time>2020-10-02T08:35:36.580Z</time>
      </trkpt>
      <trkpt lat="63.53245" lon="19.36588">
        <ele>38.156147</ele>
        <time>2020-10-02T08:35:38.568Z</time>
      </trkpt>
      <trkpt lat="63.53234" lon="19.36591">
        <ele>38.173842</ele>
        <time>2020-10-02T08:35:40.583Z</time>
      </trkpt>
      <trkpt lat="63.53224" lon="19.36592">
        <ele>38.191146</ele>
        <time>2020-10-02T08:35:42.574Z</time>
      </trkpt>
      <trkpt lat="63.53214" lon="19.36593">
        <ele>38.208088</ele>
        <time>2020-10-02T08:35:44.605Z</time>
      </trkpt>
      <trkpt lat="63.53204" lon="19.36592">
        <ele>38.224373</ele>
        <time>2020-10-02T08:35:46.588Z</time>
      </trkpt>
      <trkpt lat="63.53195" lon="19.36592">
        <ele>38.239985</ele>
        <time>2020-10-02T08:35:48.583Z</time>
      </trkpt>
      <trkpt lat="63.53182" lon="19.3659">
        <ele>38.261295</ele>
        <time>2020-10-02T08:35:51.567Z</time>
      </trkpt>
      <trkpt lat="63.53169" lon="19.36589">
        <ele>38.283406</ele>
        <time>2020-10-02T08:35:54.603Z</time>
      </trkpt>
      <trkpt lat="63.53159" lon="19.36588">
        <ele>38.298538</ele>
        <time>2020-10-02T08:35:56.575Z</time>
      </trkpt>
      <trkpt lat="63.5315" lon="19.36587">
        <ele>38.313832</ele>
        <time>2020-10-02T08:35:58.570Z</time>
      </trkpt>
      <trkpt lat="63.53141" lon="19.36584">
        <ele>38.329364</ele>
        <time>2020-10-02T08:36:00.592Z</time>
      </trkpt>
      <trkpt lat="63.53131" lon="19.36582">
        <ele>38.34591</ele>
        <time>2020-10-02T08:36:02.610Z</time>
      </trkpt>
      <trkpt lat="63.53121" lon="19.36581">
        <ele>38.362357</ele>
        <time>2020-10-02T08:36:04.567Z</time>
      </trkpt>
      <trkpt lat="63.53111" lon="19.3658">
        <ele>38.37935</ele>
        <time>2020-10-02T08:36:06.593Z</time>
      </trkpt>
      <trkpt lat="63.531" lon="19.36578">
        <ele>38.396845</ele>
        <time>2020-10-02T08:36:08.579Z</time>
      </trkpt>
      <trkpt lat="63.5309" lon="19.36576">
        <ele>38.414838</ele>
        <time>2020-10-02T08:36:10.592Z</time>
      </trkpt>
      <trkpt lat="63.53079" lon="19.36574">
        <ele>38.539968</ele>
        <time>2020-10-02T08:36:12.578Z</time>
      </trkpt>
      <trkpt lat="63.53067" lon="19.36572">
        <ele>38.74915</ele>
        <time>2020-10-02T08:36:14.565Z</time>
      </trkpt>
      <trkpt lat="63.53056" lon="19.3657">
        <ele>38.956606</ele>
        <time>2020-10-02T08:36:16.565Z</time>
      </trkpt>
      <trkpt lat="63.53045" lon="19.36568">
        <ele>39.164663</ele>
        <time>2020-10-02T08:36:18.583Z</time>
      </trkpt>
      <trkpt lat="63.53034" lon="19.36564">
        <ele>39.36633</ele>
        <time>2020-10-02T08:36:20.605Z</time>
      </trkpt>
      <trkpt lat="63.53023" lon="19.3656">
        <ele>39.565144</ele>
        <time>2020-10-02T08:36:22.563Z</time>
      </trkpt>
      <trkpt lat="63.53013" lon="19.36556">
        <ele>39.763816</ele>
        <time>2020-10-02T08:36:24.569Z</time>
      </trkpt>
      <trkpt lat="63.53002" lon="19.36551">
        <ele>39.960441</ele>
        <time>2020-10-02T08:36:26.565Z</time>
      </trkpt>
      <trkpt lat="63.52993" lon="19.36544">
        <ele>40.148961</ele>
        <time>2020-10-02T08:36:28.577Z</time>
      </trkpt>
      <trkpt lat="63.52983" lon="19.36537">
        <ele>40.333394</ele>
        <time>2020-10-02T08:36:30.592Z</time>
      </trkpt>
      <trkpt lat="63.52974" lon="19.36531">
        <ele>40.515317</ele>
        <time>2020-10-02T08:36:32.584Z</time>
      </trkpt>
      <trkpt lat="63.52962" lon="19.36519">
        <ele>40.759418</ele>
        <time>2020-10-02T08:36:35.620Z</time>
      </trkpt>
      <trkpt lat="63.52951" lon="19.36508">
        <ele>40.976535</ele>
        <time>2020-10-02T08:36:38.583Z</time>
      </trkpt>
      <trkpt lat="63.52941" lon="19.36498">
        <ele>41.185524</ele>
        <time>2020-10-02T08:36:41.591Z</time>
      </trkpt>
      <trkpt lat="63.5293" lon="19.36488">
        <ele>41.389101</ele>
        <time>2020-10-02T08:36:44.573Z</time>
      </trkpt>
      <trkpt lat="63.5292" lon="19.3648">
        <ele>41.591806</ele>
        <time>2020-10-02T08:36:47.563Z</time>
      </trkpt>
      <trkpt lat="63.5291" lon="19.3647">
        <ele>41.773231</ele>
        <time>2020-10-02T08:36:50.604Z</time>
      </trkpt>
      <trkpt lat="63.529" lon="19.3646">
        <ele>41.881313</ele>
        <time>2020-10-02T08:36:53.597Z</time>
      </trkpt>
      <trkpt lat="63.52891" lon="19.36449">
        <ele>41.992558</ele>
        <time>2020-10-02T08:36:56.609Z</time>
      </trkpt>
      <trkpt lat="63.5288" lon="19.36438">
        <ele>42.11136</ele>
        <time>2020-10-02T08:36:59.582Z</time>
      </trkpt>
      <trkpt lat="63.5287" lon="19.36426">
        <ele>42.22977</ele>
        <time>2020-10-02T08:37:02.561Z</time>
      </trkpt>
      <trkpt lat="63.5286" lon="19.36415">
        <ele>42.343352</ele>
        <time>2020-10-02T08:37:05.581Z</time>
      </trkpt>
      <trkpt lat="63.5285" lon="19.36404">
        <ele>42.459477</ele>
        <time>2020-10-02T08:37:08.571Z</time>
      </trkpt>
      <trkpt lat="63.5284" lon="19.36393">
        <ele>42.577492</ele>
        <time>2020-10-02T08:37:11.578Z</time>
      </trkpt>
      <trkpt lat="63.5283" lon="19.36382">
        <ele>42.691995</ele>
        <time>2020-10-02T08:37:14.597Z</time>
      </trkpt>
      <trkpt lat="63.52818" lon="19.36372">
        <ele>42.817741</ele>
        <time>2020-10-02T08:37:17.601Z</time>
      </trkpt>
      <trkpt lat="63.52807" lon="19.36361">
        <ele>42.944613</ele>
        <time>2020-10-02T08:37:20.574Z</time>
      </trkpt>
      <trkpt lat="63.52796" lon="19.3635">
        <ele>43.064304</ele>
        <time>2020-10-02T08:37:23.608Z</time>
      </trkpt>
      <trkpt lat="63.52786" lon="19.3634">
        <ele>43.183619</ele>
        <time>2020-10-02T08:37:26.598Z</time>
      </trkpt>
      <trkpt lat="63.52776" lon="19.36328">
        <ele>43.301398</ele>
        <time>2020-10-02T08:37:29.566Z</time>
      </trkpt>
      <trkpt lat="63.52765" lon="19.36317">
        <ele>43.422451</ele>
        <time>2020-10-02T08:37:32.616Z</time>
      </trkpt>
      <trkpt lat="63.52754" lon="19.36305">
        <ele>43.544776</ele>
        <time>2020-10-02T08:37:35.591Z</time>
      </trkpt>
      <trkpt lat="63.52744" lon="19.36295">
        <ele>43.751615</ele>
        <time>2020-10-02T08:37:38.593Z</time>
      </trkpt>
      <trkpt lat="63.52735" lon="19.36285">
        <ele>43.997666</ele>
        <time>2020-10-02T08:37:41.587Z</time>
      </trkpt>
      <trkpt lat="63.52727" lon="19.36276">
        <ele>44.220463</ele>
        <time>2020-10-02T08:37:44.598Z</time>
      </trkpt>
      <trkpt lat="63.52718" lon="19.36267">
        <ele>44.454909</ele>
        <time>2020-10-02T08:37:47.566Z</time>
      </trkpt>
      <trkpt lat="63.52708" lon="19.36257">
        <ele>44.710232</ele>
        <time>2020-10-02T08:37:50.600Z</time>
      </trkpt>
      <trkpt lat="63.52699" lon="19.36248">
        <ele>44.957117</ele>
        <time>2020-10-02T08:37:53.580Z</time>
      </trkpt>
      <trkpt lat="63.5269" lon="19.36239">
        <ele>45.2027</ele>
        <time>2020-10-02T08:37:56.568Z</time>
      </trkpt>
      <trkpt lat="63.52681" lon="19.36229">
        <ele>45.448226</ele>
        <time>2020-10-02T08:37:59.565Z</time>
      </trkpt>
      <trkpt lat="63.52672" lon="19.3622">
        <ele>45.673892</ele>
        <time>2020-10-02T08:38:02.571Z</time>
      </trkpt>
      <trkpt lat="63.52664" lon="19.36211">
        <ele>45.901745</ele>
        <time>2020-10-02T08:38:05.589Z</time>
      </trkpt>
      <trkpt lat="63.52655" lon="19.36203">
        <ele>46.132192</ele>
        <time>2020-10-02T08:38:08.596Z</time>
      </trkpt>
      <trkpt lat="63.52647" lon="19.36195">
        <ele>46.362435</ele>
        <time>2020-10-02T08:38:11.584Z</time>
      </trkpt>
      <trkpt lat="63.52638" lon="19.36186">
        <ele>46.591509</ele>
        <time>2020-10-02T08:38:14.587Z</time>
      </trkpt>
      <trkpt lat="63.52629" lon="19.36178">
        <ele>46.838148</ele>
        <time>2020-10-02T08:38:17.599Z</time>
      </trkpt>
      <trkpt lat="63.5262" lon="19.3617">
        <ele>47.072941</ele>
        <time>2020-10-02T08:38:20.595Z</time>
      </trkpt>
      <trkpt lat="63.52609" lon="19.36162">
        <ele>47.334392</ele>
        <time>2020-10-02T08:38:23.582Z</time>
      </trkpt>
      <trkpt lat="63.52599" lon="19.36153">
        <ele>47.605852</ele>
        <time>2020-10-02T08:38:26.569Z</time>
      </trkpt>
      <trkpt lat="63.52589" lon="19.36145">
        <ele>47.876153</ele>
        <time>2020-10-02T08:38:29.597Z</time>
      </trkpt>
      <trkpt lat="63.52578" lon="19.36137">
        <ele>47.613512</ele>
        <time>2020-10-02T08:38:32.600Z</time>
      </trkpt>
      <trkpt lat="63.52567" lon="19.36129">
        <ele>47.022316</ele>
        <time>2020-10-02T08:38:35.578Z</time>
      </trkpt>
      <trkpt lat="63.52555" lon="19.36121">
        <ele>46.380287</ele>
        <time>2020-10-02T08:38:38.616Z</time>
      </trkpt>
      <trkpt lat="63.52543" lon="19.36114">
        <ele>45.709833</ele>
        <time>2020-10-02T08:38:41.566Z</time>
      </trkpt>
      <trkpt lat="63.52534" lon="19.36109">
        <ele>45.232542</ele>
        <time>2020-10-02T08:38:43.570Z</time>
      </trkpt>
      <trkpt lat="63.52525" lon="19.36104">
        <ele>44.75019</ele>
        <time>2020-10-02T08:38:45.587Z</time>
      </trkpt>
      <trkpt lat="63.52516" lon="19.361">
        <ele>44.24959</ele>
        <time>2020-10-02T08:38:47.587Z</time>
      </trkpt>
      <trkpt lat="63.52506" lon="19.36095">
        <ele>43.721571</ele>
        <time>2020-10-02T08:38:49.572Z</time>
      </trkpt>
      <trkpt lat="63.52496" lon="19.3609">
        <ele>43.189907</ele>
        <time>2020-10-02T08:38:51.585Z</time>
      </trkpt>
      <trkpt lat="63.52485" lon="19.36086">
        <ele>42.645477</ele>
        <time>2020-10-02T08:38:53.587Z</time>
      </trkpt>
      <trkpt lat="63.52475" lon="19.36082">
        <ele>42.080122</ele>
        <time>2020-10-02T08:38:55.565Z</time>
      </trkpt>
      <trkpt lat="63.52464" lon="19.36079">
        <ele>41.522099</ele>
        <time>2020-10-02T08:38:57.590Z</time>
      </trkpt>
      <trkpt lat="63.52454" lon="19.36074">
        <ele>40.972139</ele>
        <time>2020-10-02T08:38:59.590Z</time>
      </trkpt>
      <trkpt lat="63.52443" lon="19.36071">
        <ele>40.409293</ele>
        <time>2020-10-02T08:39:01.567Z</time>
      </trkpt>
      <trkpt lat="63.52433" lon="19.36068">
        <ele>39.863466</ele>
        <time>2020-10-02T08:39:03.585Z</time>
      </trkpt>
      <trkpt lat="63.52422" lon="19.36066">
        <ele>39.308348</ele>
        <time>2020-10-02T08:39:05.583Z</time>
      </trkpt>
      <trkpt lat="63.52411" lon="19.36064">
        <ele>38.755025</ele>
        <time>2020-10-02T08:39:07.582Z</time>
      </trkpt>
      <trkpt lat="63.52401" lon="19.36063">
        <ele>38.52092</ele>
        <time>2020-10-02T08:39:09.576Z</time>
      </trkpt>
      <trkpt lat="63.5239" lon="19.3606">
        <ele>38.404036</ele>
        <time>2020-10-02T08:39:11.571Z</time>
      </trkpt>
      <trkpt lat="63.52379" lon="19.36058">
        <ele>38.281884</ele>
        <time>2020-10-02T08:39:13.594Z</time>
      </trkpt>
      <trkpt lat="63.52369" lon="19.36055">
        <ele>38.164171</ele>
        <time>2020-10-02T08:39:15.576Z</time>
      </trkpt>
      <trkpt lat="63.52358" lon="19.36053">
        <ele>38.047567</ele>
        <time>2020-10-02T08:39:17.580Z</time>
      </trkpt>
      <trkpt lat="63.52348" lon="19.36051">
        <ele>37.933529</ele>
        <time>2020-10-02T08:39:19.583Z</time>
      </trkpt>
      <trkpt lat="63.52338" lon="19.36049">
        <ele>37.820445</ele>
        <time>2020-10-02T08:39:21.570Z</time>
      </trkpt>
      <trkpt lat="63.52328" lon="19.36048">
        <ele>37.707642</ele>
        <time>2020-10-02T08:39:23.582Z</time>
      </trkpt>
      <trkpt lat="63.52318" lon="19.36047">
        <ele>37.596041</ele>
        <time>2020-10-02T08:39:25.565Z</time>
      </trkpt>
      <trkpt lat="63.52308" lon="19.36046">
        <ele>37.484377</ele>
        <time>2020-10-02T08:39:27.599Z</time>
      </trkpt>
      <trkpt lat="63.52299" lon="19.36044">
        <ele>37.377808</ele>
        <time>2020-10-02T08:39:29.636Z</time>
      </trkpt>
      <trkpt lat="63.52289" lon="19.36042">
        <ele>37.275921</ele>
        <time>2020-10-02T08:39:31.587Z</time>
      </trkpt>
      <trkpt lat="63.52276" lon="19.36041">
        <ele>37.126388</ele>
        <time>2020-10-02T08:39:34.584Z</time>
      </trkpt>
      <trkpt lat="63.52263" lon="19.36039">
        <ele>36.977613</ele>
        <time>2020-10-02T08:39:37.563Z</time>
      </trkpt>
      <trkpt lat="63.52253" lon="19.36038">
        <ele>36.872764</ele>
        <time>2020-10-02T08:39:39.591Z</time>
      </trkpt>
      <trkpt lat="63.52244" lon="19.36037">
        <ele>36.768922</ele>
        <time>2020-10-02T08:39:41.578Z</time>
      </trkpt>
      <trkpt lat="63.52234" lon="19.36035">
        <ele>36.661392</ele>
        <time>2020-10-02T08:39:43.582Z</time>
      </trkpt>
      <trkpt lat="63.52224" lon="19.36034">
        <ele>36.630966</ele>
        <time>2020-10-02T08:39:45.592Z</time>
      </trkpt>
      <trkpt lat="63.52214" lon="19.36032">
        <ele>36.683349</ele>
        <time>2020-10-02T08:39:47.577Z</time>
      </trkpt>
      <trkpt lat="63.52204" lon="19.36031">
        <ele>36.737744</ele>
        <time>2020-10-02T08:39:49.563Z</time>
      </trkpt>
      <trkpt lat="63.52193" lon="19.3603">
        <ele>36.794676</ele>
        <time>2020-10-02T08:39:51.590Z</time>
      </trkpt>
      <trkpt lat="63.52182" lon="19.36029">
        <ele>36.853228</ele>
        <time>2020-10-02T08:39:53.597Z</time>
      </trkpt>
      <trkpt lat="63.52171" lon="19.36028">
        <ele>36.91129</ele>
        <time>2020-10-02T08:39:55.578Z</time>
      </trkpt>
      <trkpt lat="63.52161" lon="19.36026">
        <ele>36.967874</ele>
        <time>2020-10-02T08:39:57.565Z</time>
      </trkpt>
      <trkpt lat="63.5215" lon="19.36024">
        <ele>37.023335</ele>
        <time>2020-10-02T08:39:59.566Z</time>
      </trkpt>
      <trkpt lat="63.5214" lon="19.36022">
        <ele>37.078813</ele>
        <time>2020-10-02T08:40:01.569Z</time>
      </trkpt>
      <trkpt lat="63.52129" lon="19.36021">
        <ele>37.135342</ele>
        <time>2020-10-02T08:40:03.561Z</time>
      </trkpt>
      <trkpt lat="63.52118" lon="19.36019">
        <ele>37.191314</ele>
        <time>2020-10-02T08:40:05.590Z</time>
      </trkpt>
      <trkpt lat="63.52108" lon="19.36018">
        <ele>37.245182</ele>
        <time>2020-10-02T08:40:07.566Z</time>
      </trkpt>
      <trkpt lat="63.52098" lon="19.36015">
        <ele>37.298658</ele>
        <time>2020-10-02T08:40:09.588Z</time>
      </trkpt>
      <trkpt lat="63.52088" lon="19.36012">
        <ele>37.350847</ele>
        <time>2020-10-02T08:40:11.565Z</time>
      </trkpt>
      <trkpt lat="63.52078" lon="19.3601">
        <ele>37.404848</ele>
        <time>2020-10-02T08:40:13.587Z</time>
      </trkpt>
      <trkpt lat="63.52067" lon="19.36008">
        <ele>37.460423</ele>
        <time>2020-10-02T08:40:15.581Z</time>
      </trkpt>
      <trkpt lat="63.52057" lon="19.36005">
        <ele>37.515189</ele>
        <time>2020-10-02T08:40:17.574Z</time>
      </trkpt>
      <trkpt lat="63.52047" lon="19.36001">
        <ele>37.652856</ele>
        <time>2020-10-02T08:40:19.595Z</time>
      </trkpt>
      <trkpt lat="63.52037" lon="19.35998">
        <ele>37.981155</ele>
        <time>2020-10-02T08:40:21.564Z</time>
      </trkpt>
      <trkpt lat="63.52028" lon="19.35992">
        <ele>38.306734</ele>
        <time>2020-10-02T08:40:23.577Z</time>
      </trkpt>
      <trkpt lat="63.52018" lon="19.35987">
        <ele>38.631948</ele>
        <time>2020-10-02T08:40:25.587Z</time>
      </trkpt>
      <trkpt lat="63.52009" lon="19.35982">
        <ele>38.938782</ele>
        <time>2020-10-02T08:40:27.601Z</time>
      </trkpt>
      <trkpt lat="63.51996" lon="19.35974">
        <ele>39.379272</ele>
        <time>2020-10-02T08:40:30.571Z</time>
      </trkpt>
      <trkpt lat="63.51988" lon="19.35966">
        <ele>39.675488</ele>
        <time>2020-10-02T08:40:32.585Z</time>
      </trkpt>
      <trkpt lat="63.51975" lon="19.35954">
        <ele>40.121776</ele>
        <time>2020-10-02T08:40:35.588Z</time>
      </trkpt>
      <trkpt lat="63.51967" lon="19.35946">
        <ele>40.430838</ele>
        <time>2020-10-02T08:40:37.591Z</time>
      </trkpt>
      <trkpt lat="63.51958" lon="19.35937">
        <ele>40.742314</ele>
        <time>2020-10-02T08:40:39.579Z</time>
      </trkpt>
      <trkpt lat="63.51949" lon="19.35928">
        <ele>41.069426</ele>
        <time>2020-10-02T08:40:41.578Z</time>
      </trkpt>
      <trkpt lat="63.5194" lon="19.35918">
        <ele>41.399095</ele>
        <time>2020-10-02T08:40:43.590Z</time>
      </trkpt>
      <trkpt lat="63.5193" lon="19.35907">
        <ele>41.748023</ele>
        <time>2020-10-02T08:40:45.616Z</time>
      </trkpt>
      <trkpt lat="63.51921" lon="19.35896">
        <ele>42.094686</ele>
        <time>2020-10-02T08:40:47.599Z</time>
      </trkpt>
      <trkpt lat="63.51912" lon="19.35886">
        <ele>42.433506</ele>
        <time>2020-10-02T08:40:49.570Z</time>
      </trkpt>
      <trkpt lat="63.51902" lon="19.35875">
        <ele>42.779504</ele>
        <time>2020-10-02T08:40:51.590Z</time>
      </trkpt>
      <trkpt lat="63.51893" lon="19.35864">
        <ele>43.110952</ele>
        <time>2020-10-02T08:40:53.580Z</time>
      </trkpt>
      <trkpt lat="63.51885" lon="19.35854">
        <ele>43.434468</ele>
        <time>2020-10-02T08:40:55.567Z</time>
      </trkpt>
      <trkpt lat="63.51876" lon="19.35843">
        <ele>43.195294</ele>
        <time>2020-10-02T08:40:57.583Z</time>
      </trkpt>
      <trkpt lat="63.51867" lon="19.35832">
        <ele>42.903147</ele>
        <time>2020-10-02T08:40:59.587Z</time>
      </trkpt>
      <trkpt lat="63.51857" lon="19.35822">
        <ele>42.609937</ele>
        <time>2020-10-02T08:41:01.622Z</time>
      </trkpt>
      <trkpt lat="63.51848" lon="19.35812">
        <ele>42.33017</ele>
        <time>2020-10-02T08:41:03.605Z</time>
      </trkpt>
      <trkpt lat="63.51839" lon="19.35802">
        <ele>42.045182</ele>
        <time>2020-10-02T08:41:05.586Z</time>
      </trkpt>
      <trkpt lat="63.51829" lon="19.35791">
        <ele>41.752242</ele>
        <time>2020-10-02T08:41:07.603Z</time>
      </trkpt>
      <trkpt lat="63.5182" lon="19.3578">
        <ele>41.466128</ele>
        <time>2020-10-02T08:41:09.563Z</time>
      </trkpt>
      <trkpt lat="63.51811" lon="19.3577">
        <ele>41.181311</ele>
        <time>2020-10-02T08:41:11.595Z</time>
      </trkpt>
      <trkpt lat="63.51802" lon="19.3576">
        <ele>40.911974</ele>
        <time>2020-10-02T08:41:13.578Z</time>
      </trkpt>
      <trkpt lat="63.51793" lon="19.35749">
        <ele>40.628641</ele>
        <time>2020-10-02T08:41:15.586Z</time>
      </trkpt>
      <trkpt lat="63.51784" lon="19.35739">
        <ele>40.360135</ele>
        <time>2020-10-02T08:41:17.582Z</time>
      </trkpt>
      <trkpt lat="63.51776" lon="19.35727">
        <ele>40.081796</ele>
        <time>2020-10-02T08:41:19.590Z</time>
      </trkpt>
      <trkpt lat="63.51767" lon="19.35713">
        <ele>39.793528</ele>
        <time>2020-10-02T08:41:21.586Z</time>
      </trkpt>
      <trkpt lat="63.51759" lon="19.35698">
        <ele>39.501944</ele>
        <time>2020-10-02T08:41:23.597Z</time>
      </trkpt>
      <trkpt lat="63.51752" lon="19.35682">
        <ele>39.221238</ele>
        <time>2020-10-02T08:41:25.606Z</time>
      </trkpt>
      <trkpt lat="63.51745" lon="19.35665">
        <ele>38.941888</ele>
        <time>2020-10-02T08:41:27.596Z</time>
      </trkpt>
      <trkpt lat="63.5174" lon="19.35647">
        <ele>38.671479</ele>
        <time>2020-10-02T08:41:29.598Z</time>
      </trkpt>
      <trkpt lat="63.51733" lon="19.35622">
        <ele>38.575353</ele>
        <time>2020-10-02T08:41:32.580Z</time>
      </trkpt>
      <trkpt lat="63.51729" lon="19.35604">
        <ele>38.693802</ele>
        <time>2020-10-02T08:41:34.571Z</time>
      </trkpt>
      <trkpt lat="63.51724" lon="19.35585">
        <ele>38.812355</ele>
        <time>2020-10-02T08:41:36.620Z</time>
      </trkpt>
      <trkpt lat="63.5172" lon="19.35568">
        <ele>38.930027</ele>
        <time>2020-10-02T08:41:38.587Z</time>
      </trkpt>
      <trkpt lat="63.51715" lon="19.3555">
        <ele>39.047405</ele>
        <time>2020-10-02T08:41:40.569Z</time>
      </trkpt>
      <trkpt lat="63.5171" lon="19.35532">
        <ele>39.173465</ele>
        <time>2020-10-02T08:41:42.570Z</time>
      </trkpt>
      <trkpt lat="63.51704" lon="19.35513">
        <ele>39.303007</ele>
        <time>2020-10-02T08:41:44.603Z</time>
      </trkpt>
      <trkpt lat="63.51698" lon="19.35494">
        <ele>39.438582</ele>
        <time>2020-10-02T08:41:46.578Z</time>
      </trkpt>
      <trkpt lat="63.51692" lon="19.35475">
        <ele>39.572678</ele>
        <time>2020-10-02T08:41:48.585Z</time>
      </trkpt>
      <trkpt lat="63.51687" lon="19.35454">
        <ele>39.709466</ele>
        <time>2020-10-02T08:41:50.618Z</time>
      </trkpt>
      <trkpt lat="63.51682" lon="19.35435">
        <ele>39.839825</ele>
        <time>2020-10-02T08:41:52.590Z</time>
      </trkpt>
      <trkpt lat="63.51676" lon="19.35416">
        <ele>39.967542</ele>
        <time>2020-10-02T08:41:54.573Z</time>
      </trkpt>
      <trkpt lat="63.51671" lon="19.35397">
        <ele>40.097331</ele>
        <time>2020-10-02T08:41:56.565Z</time>
      </trkpt>
      <trkpt lat="63.51666" lon="19.35378">
        <ele>40.224554</ele>
        <time>2020-10-02T08:41:58.590Z</time>
      </trkpt>
      <trkpt lat="63.51661" lon="19.35358">
        <ele>40.349805</ele>
        <time>2020-10-02T08:42:00.566Z</time>
      </trkpt>
      <trkpt lat="63.51658" lon="19.35339">
        <ele>40.470611</ele>
        <time>2020-10-02T08:42:02.601Z</time>
      </trkpt>
      <trkpt lat="63.51654" lon="19.3532">
        <ele>40.593014</ele>
        <time>2020-10-02T08:42:04.576Z</time>
      </trkpt>
      <trkpt lat="63.5165" lon="19.353">
        <ele>40.719084</ele>
        <time>2020-10-02T08:42:06.572Z</time>
      </trkpt>
      <trkpt lat="63.51646" lon="19.35279">
        <ele>40.809054</ele>
        <time>2020-10-02T08:42:08.574Z</time>
      </trkpt>
      <trkpt lat="63.51642" lon="19.35259">
        <ele>40.805852</ele>
        <time>2020-10-02T08:42:10.565Z</time>
      </trkpt>
      <trkpt lat="63.51639" lon="19.3524">
        <ele>40.802623</ele>
        <time>2020-10-02T08:42:12.582Z</time>
      </trkpt>
      <trkpt lat="63.51635" lon="19.35219">
        <ele>40.799303</ele>
        <time>2020-10-02T08:42:14.561Z</time>
      </trkpt>
      <trkpt lat="63.51632" lon="19.35198">
        <ele>40.796042</ele>
        <time>2020-10-02T08:42:16.590Z</time>
      </trkpt>
      <trkpt lat="63.51629" lon="19.35176">
        <ele>40.792701</ele>
        <time>2020-10-02T08:42:18.573Z</time>
      </trkpt>
      <trkpt lat="63.51627" lon="19.35155">
        <ele>40.789384</ele>
        <time>2020-10-02T08:42:20.589Z</time>
      </trkpt>
      <trkpt lat="63.51624" lon="19.35133">
        <ele>40.78601</ele>
        <time>2020-10-02T08:42:22.574Z</time>
      </trkpt>
      <trkpt lat="63.51621" lon="19.35111">
        <ele>40.782565</ele>
        <time>2020-10-02T08:42:24.585Z</time>
      </trkpt>
      <trkpt lat="63.51617" lon="19.35089">
        <ele>40.779095</ele>
        <time>2020-10-02T08:42:26.565Z</time>
      </trkpt>
      <trkpt lat="63.51614" lon="19.35068">
        <ele>40.775707</ele>
        <time>2020-10-02T08:42:28.578Z</time>
      </trkpt>
      <trkpt lat="63.51611" lon="19.35046">
        <ele>40.77226</ele>
        <time>2020-10-02T08:42:30.583Z</time>
      </trkpt>
      <trkpt lat="63.51607" lon="19.35023">
        <ele>40.768672</ele>
        <time>2020-10-02T08:42:32.575Z</time>
      </trkpt>
      <trkpt lat="63.51603" lon="19.35001">
        <ele>40.765155</ele>
        <time>2020-10-02T08:42:34.579Z</time>
      </trkpt>
      <trkpt lat="63.51599" lon="19.34979">
        <ele>40.761612</ele>
        <time>2020-10-02T08:42:36.605Z</time>
      </trkpt>
      <trkpt lat="63.51595" lon="19.34957">
        <ele>40.758109</ele>
        <time>2020-10-02T08:42:38.604Z</time>
      </trkpt>
      <trkpt lat="63.51592" lon="19.34936">
        <ele>40.754604</ele>
        <time>2020-10-02T08:42:40.587Z</time>
      </trkpt>
      <trkpt lat="63.51588" lon="19.34914">
        <ele>40.751117</ele>
        <time>2020-10-02T08:42:42.589Z</time>
      </trkpt>
      <trkpt lat="63.51583" lon="19.34893">
        <ele>40.646806</ele>
        <time>2020-10-02T08:42:44.565Z</time>
      </trkpt>
      <trkpt lat="63.51578" lon="19.34873">
        <ele>40.484638</ele>
        <time>2020-10-02T08:42:46.574Z</time>
      </trkpt>
      <trkpt lat="63.51572" lon="19.34853">
        <ele>40.319969</ele>
        <time>2020-10-02T08:42:48.583Z</time>
      </trkpt>
      <trkpt lat="63.51567" lon="19.34833">
        <ele>40.157257</ele>
        <time>2020-10-02T08:42:50.582Z</time>
      </trkpt>
      <trkpt lat="63.5156" lon="19.34814">
        <ele>39.989323</ele>
        <time>2020-10-02T08:42:52.586Z</time>
      </trkpt>
      <trkpt lat="63.51553" lon="19.34797">
        <ele>39.826497</ele>
        <time>2020-10-02T08:42:54.589Z</time>
      </trkpt>
      <trkpt lat="63.51545" lon="19.34781">
        <ele>39.664123</ele>
        <time>2020-10-02T08:42:56.568Z</time>
      </trkpt>
      <trkpt lat="63.51537" lon="19.34766">
        <ele>39.504504</ele>
        <time>2020-10-02T08:42:58.578Z</time>
      </trkpt>
      <trkpt lat="63.5153" lon="19.34753">
        <ele>39.348065</ele>
        <time>2020-10-02T08:43:00.580Z</time>
      </trkpt>
      <trkpt lat="63.51521" lon="19.34741">
        <ele>39.190198</ele>
        <time>2020-10-02T08:43:02.597Z</time>
      </trkpt>
      <trkpt lat="63.51512" lon="19.3473">
        <ele>39.033484</ele>
        <time>2020-10-02T08:43:04.576Z</time>
      </trkpt>
      <trkpt lat="63.51504" lon="19.34718">
        <ele>38.878267</ele>
        <time>2020-10-02T08:43:06.582Z</time>
      </trkpt>
      <trkpt lat="63.51496" lon="19.34706">
        <ele>38.728126</ele>
        <time>2020-10-02T08:43:08.582Z</time>
      </trkpt>
      <trkpt lat="63.51488" lon="19.34694">
        <ele>38.581527</ele>
        <time>2020-10-02T08:43:10.579Z</time>
      </trkpt>
      <trkpt lat="63.5148" lon="19.34683">
        <ele>38.43439</ele>
        <time>2020-10-02T08:43:12.600Z</time>
      </trkpt>
      <trkpt lat="63.51473" lon="19.3467">
        <ele>38.286728</ele>
        <time>2020-10-02T08:43:14.580Z</time>
      </trkpt>
      <trkpt lat="63.51465" lon="19.34657">
        <ele>38.138243</ele>
        <time>2020-10-02T08:43:16.595Z</time>
      </trkpt>
      <trkpt lat="63.51457" lon="19.34644">
        <ele>37.983081</ele>
        <time>2020-10-02T08:43:18.621Z</time>
      </trkpt>
      <trkpt lat="63.51449" lon="19.34629">
        <ele>37.890571</ele>
        <time>2020-10-02T08:43:20.593Z</time>
      </trkpt>
      <trkpt lat="63.51441" lon="19.34616">
        <ele>37.825196</ele>
        <time>2020-10-02T08:43:22.602Z</time>
      </trkpt>
      <trkpt lat="63.51434" lon="19.34603">
        <ele>37.759294</ele>
        <time>2020-10-02T08:43:24.602Z</time>
      </trkpt>
      <trkpt lat="63.51426" lon="19.3459">
        <ele>37.694103</ele>
        <time>2020-10-02T08:43:26.591Z</time>
      </trkpt>
      <trkpt lat="63.51418" lon="19.34576">
        <ele>37.629969</ele>
        <time>2020-10-02T08:43:28.573Z</time>
      </trkpt>
      <trkpt lat="63.51411" lon="19.34563">
        <ele>37.564425</ele>
        <time>2020-10-02T08:43:30.574Z</time>
      </trkpt>
      <trkpt lat="63.51403" lon="19.3455">
        <ele>37.498158</ele>
        <time>2020-10-02T08:43:32.581Z</time>
      </trkpt>
      <trkpt lat="63.51394" lon="19.34537">
        <ele>37.429148</ele>
        <time>2020-10-02T08:43:34.617Z</time>
      </trkpt>
      <trkpt lat="63.51385" lon="19.34525">
        <ele>37.359799</ele>
        <time>2020-10-02T08:43:36.564Z</time>
      </trkpt>
      <trkpt lat="63.51377" lon="19.34513">
        <ele>37.290566</ele>
        <time>2020-10-02T08:43:38.618Z</time>
      </trkpt>
      <trkpt lat="63.51368" lon="19.34501">
        <ele>37.221485</ele>
        <time>2020-10-02T08:43:40.602Z</time>
      </trkpt>
      <trkpt lat="63.51359" lon="19.34489">
        <ele>37.153132</ele>
        <time>2020-10-02T08:43:42.598Z</time>
      </trkpt>
      <trkpt lat="63.5135" lon="19.34476">
        <ele>37.081326</ele>
        <time>2020-10-02T08:43:44.561Z</time>
      </trkpt>
      <trkpt lat="63.51341" lon="19.34462">
        <ele>37.010313</ele>
        <time>2020-10-02T08:43:46.585Z</time>
      </trkpt>
      <trkpt lat="63.51333" lon="19.3445">
        <ele>36.942578</ele>
        <time>2020-10-02T08:43:48.581Z</time>
      </trkpt>
      <trkpt lat="63.51324" lon="19.34436">
        <ele>36.873057</ele>
        <time>2020-10-02T08:43:50.562Z</time>
      </trkpt>
      <trkpt lat="63.51316" lon="19.34424">
        <ele>36.804153</ele>
        <time>2020-10-02T08:43:52.571Z</time>
      </trkpt>
      <trkpt lat="63.51307" lon="19.34411">
        <ele>36.73403</ele>
        <time>2020-10-02T08:43:54.570Z</time>
      </trkpt>
      <trkpt lat="63.51298" lon="19.34397">
        <ele>36.462351</ele>
        <time>2020-10-02T08:43:56.577Z</time>
      </trkpt>
      <trkpt lat="63.51289" lon="19.34384">
        <ele>36.180779</ele>
        <time>2020-10-02T08:43:58.561Z</time>
      </trkpt>
      <trkpt lat="63.5128" lon="19.3437">
        <ele>35.893922</ele>
        <time>2020-10-02T08:44:00.589Z</time>
      </trkpt>
      <trkpt lat="63.5127" lon="19.34357">
        <ele>35.614843</ele>
        <time>2020-10-02T08:44:02.586Z</time>
      </trkpt>
      <trkpt lat="63.51261" lon="19.34344">
        <ele>35.328329</ele>
        <time>2020-10-02T08:44:04.573Z</time>
      </trkpt>
      <trkpt lat="63.51251" lon="19.34329">
        <ele>35.037576</ele>
        <time>2020-10-02T08:44:06.569Z</time>
      </trkpt>
      <trkpt lat="63.51242" lon="19.34314">
        <ele>34.747479</ele>
        <time>2020-10-02T08:44:08.578Z</time>
      </trkpt>
      <trkpt lat="63.51233" lon="19.34299">
        <ele>34.460167</ele>
        <time>2020-10-02T08:44:10.598Z</time>
      </trkpt>
      <trkpt lat="63.51224" lon="19.34283">
        <ele>34.170181</ele>
        <time>2020-10-02T08:44:12.580Z</time>
      </trkpt>
      <trkpt lat="63.51215" lon="19.34267">
        <ele>33.877918</ele>
        <time>2020-10-02T08:44:14.581Z</time>
      </trkpt>
      <trkpt lat="63.51206" lon="19.34251">
        <ele>33.58763</ele>
        <time>2020-10-02T08:44:16.576Z</time>
      </trkpt>
      <trkpt lat="63.51198" lon="19.34234">
        <ele>33.291019</ele>
        <time>2020-10-02T08:44:18.595Z</time>
      </trkpt>
      <trkpt lat="63.51189" lon="19.34218">
        <ele>33.006834</ele>
        <time>2020-10-02T08:44:20.583Z</time>
      </trkpt>
      <trkpt lat="63.5118" lon="19.34202">
        <ele>32.718999</ele>
        <time>2020-10-02T08:44:22.610Z</time>
      </trkpt>
      <trkpt lat="63.51172" lon="19.34186">
        <ele>32.443779</ele>
        <time>2020-10-02T08:44:24.579Z</time>
      </trkpt>
      <trkpt lat="63.51164" lon="19.3417">
        <ele>32.170056</ele>
        <time>2020-10-02T08:44:26.577Z</time>
      </trkpt>
      <trkpt lat="63.51156" lon="19.34155">
        <ele>32.219208</ele>
        <time>2020-10-02T08:44:28.563Z</time>
      </trkpt>
      <trkpt lat="63.51149" lon="19.34138">
        <ele>32.295865</ele>
        <time>2020-10-02T08:44:30.572Z</time>
      </trkpt>
      <trkpt lat="63.51141" lon="19.34122">
        <ele>32.375973</ele>
        <time>2020-10-02T08:44:32.581Z</time>
      </trkpt>
      <trkpt lat="63.51133" lon="19.34106">
        <ele>32.459548</ele>
        <time>2020-10-02T08:44:34.584Z</time>
      </trkpt>
      <trkpt lat="63.51124" lon="19.34089">
        <ele>32.544334</ele>
        <time>2020-10-02T08:44:36.572Z</time>
      </trkpt>
      <trkpt lat="63.51116" lon="19.34073">
        <ele>32.624657</ele>
        <time>2020-10-02T08:44:38.585Z</time>
      </trkpt>
      <trkpt lat="63.51108" lon="19.34058">
        <ele>32.70177</ele>
        <time>2020-10-02T08:44:40.579Z</time>
      </trkpt>
      <trkpt lat="63.511" lon="19.34043">
        <ele>32.777667</ele>
        <time>2020-10-02T08:44:42.581Z</time>
      </trkpt>
      <trkpt lat="63.51092" lon="19.34027">
        <ele>32.85755</ele>
        <time>2020-10-02T08:44:44.607Z</time>
      </trkpt>
      <trkpt lat="63.51084" lon="19.3401">
        <ele>32.937983</ele>
        <time>2020-10-02T08:44:46.598Z</time>
      </trkpt>
      <trkpt lat="63.51076" lon="19.33995">
        <ele>33.015657</ele>
        <time>2020-10-02T08:44:48.580Z</time>
      </trkpt>
      <trkpt lat="63.51069" lon="19.3398">
        <ele>33.091688</ele>
        <time>2020-10-02T08:44:50.581Z</time>
      </trkpt>
      <trkpt lat="63.51061" lon="19.33964">
        <ele>33.171123</ele>
        <time>2020-10-02T08:44:52.598Z</time>
      </trkpt>
      <trkpt lat="63.51053" lon="19.33948">
        <ele>33.250559</ele>
        <time>2020-10-02T08:44:54.588Z</time>
      </trkpt>
      <trkpt lat="63.51045" lon="19.33932">
        <ele>33.330445</ele>
        <time>2020-10-02T08:44:56.583Z</time>
      </trkpt>
      <trkpt lat="63.51037" lon="19.33917">
        <ele>33.403676</ele>
        <time>2020-10-02T08:44:58.573Z</time>
      </trkpt>
      <trkpt lat="63.5103" lon="19.33903">
        <ele>33.47724</ele>
        <time>2020-10-02T08:45:00.603Z</time>
      </trkpt>
      <trkpt lat="63.51023" lon="19.33888">
        <ele>33.731488</ele>
        <time>2020-10-02T08:45:02.585Z</time>
      </trkpt>
      <trkpt lat="63.51016" lon="19.33874">
        <ele>34.000387</ele>
        <time>2020-10-02T08:45:04.581Z</time>
      </trkpt>
      <trkpt lat="63.51008" lon="19.33861">
        <ele>34.26327</ele>
        <time>2020-10-02T08:45:06.571Z</time>
      </trkpt>
      <trkpt lat="63.51002" lon="19.33848">
        <ele>34.519605</ele>
        <time>2020-10-02T08:45:08.596Z</time>
      </trkpt>
      <trkpt lat="63.50992" lon="19.33828">
        <ele>34.898681</ele>
        <time>2020-10-02T08:45:11.582Z</time>
      </trkpt>
      <trkpt lat="63.50985" lon="19.33814">
        <ele>35.158715</ele>
        <time>2020-10-02T08:45:13.574Z</time>
      </trkpt>
      <trkpt lat="63.50978" lon="19.338">
        <ele>35.420858</ele>
        <time>2020-10-02T08:45:15.582Z</time>
      </trkpt>
      <trkpt lat="63.50971" lon="19.33786">
        <ele>35.685542</ele>
        <time>2020-10-02T08:45:17.591Z</time>
      </trkpt>
      <trkpt lat="63.50964" lon="19.33772">
        <ele>35.948145</ele>
        <time>2020-10-02T08:45:19.582Z</time>
      </trkpt>
      <trkpt lat="63.50957" lon="19.33758">
        <ele>36.210404</ele>
        <time>2020-10-02T08:45:21.586Z</time>
      </trkpt>
      <trkpt lat="63.50951" lon="19.33745">
        <ele>36.463273</ele>
        <time>2020-10-02T08:45:23.578Z</time>
      </trkpt>
      <trkpt lat="63.5094" lon="19.33726">
        <ele>36.84086</ele>
        <time>2020-10-02T08:45:26.578Z</time>
      </trkpt>
      <trkpt lat="63.5093" lon="19.33707">
        <ele>37.210323</ele>
        <time>2020-10-02T08:45:29.603Z</time>
      </trkpt>
      <trkpt lat="63.5092" lon="19.33688">
        <ele>37.579504</ele>
        <time>2020-10-02T08:45:32.579Z</time>
      </trkpt>
      <trkpt lat="63.50911" lon="19.33668">
        <ele>37.936387</ele>
        <time>2020-10-02T08:45:35.560Z</time>
      </trkpt>
      <trkpt lat="63.50902" lon="19.3365">
        <ele>38.292674</ele>
        <time>2020-10-02T08:45:38.606Z</time>
      </trkpt>
      <trkpt lat="63.50893" lon="19.3363">
        <ele>38.682304</ele>
        <time>2020-10-02T08:45:41.582Z</time>
      </trkpt>
      <trkpt lat="63.50884" lon="19.3361">
        <ele>39.183036</ele>
        <time>2020-10-02T08:45:44.604Z</time>
      </trkpt>
      <trkpt lat="63.50875" lon="19.33589">
        <ele>39.680815</ele>
        <time>2020-10-02T08:45:47.584Z</time>
      </trkpt>
      <trkpt lat="63.50867" lon="19.33569">
        <ele>40.165356</ele>
        <time>2020-10-02T08:45:50.565Z</time>
      </trkpt>
      <trkpt lat="63.50858" lon="19.3355">
        <ele>40.635714</ele>
        <time>2020-10-02T08:45:53.587Z</time>
      </trkpt>
      <trkpt lat="63.50851" lon="19.33528">
        <ele>41.108254</ele>
        <time>2020-10-02T08:45:56.623Z</time>
      </trkpt>
      <trkpt lat="63.50845" lon="19.33508">
        <ele>41.547005</ele>
        <time>2020-10-02T08:45:59.570Z</time>
      </trkpt>
      <trkpt lat="63.50839" lon="19.33488">
        <ele>41.957347</ele>
        <time>2020-10-02T08:46:02.588Z</time>
      </trkpt>
      <trkpt lat="63.50834" lon="19.33469">
        <ele>42.359631</ele>
        <time>2020-10-02T08:46:05.626Z</time>
      </trkpt>
      <trkpt lat="63.50827" lon="19.33453">
        <ele>42.749565</ele>
        <time>2020-10-02T08:46:08.565Z</time>
      </trkpt>
      <trkpt lat="63.50821" lon="19.33435">
        <ele>43.141107</ele>
        <time>2020-10-02T08:46:11.590Z</time>
      </trkpt>
      <trkpt lat="63.50816" lon="19.33415">
        <ele>43.53832</ele>
        <time>2020-10-02T08:46:14.580Z</time>
      </trkpt>
      <trkpt lat="63.50811" lon="19.33394">
        <ele>43.958139</ele>
        <time>2020-10-02T08:46:17.584Z</time>
      </trkpt>
      <trkpt lat="63.50807" lon="19.33371">
        <ele>44.393625</ele>
        <time>2020-10-02T08:46:20.571Z</time>
      </trkpt>
      <trkpt lat="63.50801" lon="19.3335">
        <ele>44.83162</ele>
        <time>2020-10-02T08:46:23.584Z</time>
      </trkpt>
      <trkpt lat="63.50795" lon="19.3333">
        <ele>45.255721</ele>
        <time>2020-10-02T08:46:26.577Z</time>
      </trkpt>
      <trkpt lat="63.5079" lon="19.33309">
        <ele>45.683027</ele>
        <time>2020-10-02T08:46:29.582Z</time>
      </trkpt>
      <trkpt lat="63.50785" lon="19.33291">
        <ele>45.842547</ele>
        <time>2020-10-02T08:46:32.568Z</time>
      </trkpt>
      <trkpt lat="63.50778" lon="19.3327">
        <ele>46.040565</ele>
        <time>2020-10-02T08:46:36.588Z</time>
      </trkpt>
      <trkpt lat="63.50771" lon="19.33249">
        <ele>46.233901</ele>
        <time>2020-10-02T08:46:40.577Z</time>
      </trkpt>
      <trkpt lat="63.50764" lon="19.33229">
        <ele>46.433208</ele>
        <time>2020-10-02T08:46:44.584Z</time>
      </trkpt>
      <trkpt lat="63.50757" lon="19.33213">
        <ele>46.59167</ele>
        <time>2020-10-02T08:46:47.583Z</time>
      </trkpt>
      <trkpt lat="63.50751" lon="19.33198">
        <ele>46.748988</ele>
        <time>2020-10-02T08:46:50.575Z</time>
      </trkpt>
      <trkpt lat="63.50745" lon="19.33183">
        <ele>46.906948</ele>
        <time>2020-10-02T08:46:53.571Z</time>
      </trkpt>
      <trkpt lat="63.50737" lon="19.33168">
        <ele>47.075811</ele>
        <time>2020-10-02T08:46:56.614Z</time>
      </trkpt>
      <trkpt lat="63.5073" lon="19.33154">
        <ele>47.241065</ele>
        <time>2020-10-02T08:46:59.570Z</time>
      </trkpt>
      <trkpt lat="63.50722" lon="19.33141">
        <ele>47.404584</ele>
        <time>2020-10-02T08:47:02.594Z</time>
      </trkpt>
      <trkpt lat="63.50714" lon="19.33128">
        <ele>47.581083</ele>
        <time>2020-10-02T08:47:05.573Z</time>
      </trkpt>
      <trkpt lat="63.50704" lon="19.33115">
        <ele>47.768016</ele>
        <time>2020-10-02T08:47:08.581Z</time>
      </trkpt>
      <trkpt lat="63.50694" lon="19.33102">
        <ele>47.96899</ele>
        <time>2020-10-02T08:47:11.615Z</time>
      </trkpt>
      <trkpt lat="63.50683" lon="19.33089">
        <ele>48.17921</ele>
        <time>2020-10-02T08:47:14.616Z</time>
      </trkpt>
      <trkpt lat="63.50671" lon="19.33078">
        <ele>48.400904</ele>
        <time>2020-10-02T08:47:17.581Z</time>
      </trkpt>
      <trkpt lat="63.50662" lon="19.33071">
        <ele>48.556568</ele>
        <time>2020-10-02T08:47:19.581Z</time>
      </trkpt>
      <trkpt lat="63.50654" lon="19.33065">
        <ele>48.713161</ele>
        <time>2020-10-02T08:47:21.599Z</time>
      </trkpt>
      <trkpt lat="63.50645" lon="19.33059">
        <ele>48.712993</ele>
        <time>2020-10-02T08:47:23.587Z</time>
      </trkpt>
      <trkpt lat="63.50636" lon="19.33053">
        <ele>48.68405</ele>
        <time>2020-10-02T08:47:25.581Z</time>
      </trkpt>
      <trkpt lat="63.50627" lon="19.33049">
        <ele>48.655245</ele>
        <time>2020-10-02T08:47:27.607Z</time>
      </trkpt>
      <trkpt lat="63.50618" lon="19.33046">
        <ele>48.626163</ele>
        <time>2020-10-02T08:47:29.584Z</time>
      </trkpt>
      <trkpt lat="63.50609" lon="19.33044">
        <ele>48.59689</ele>
        <time>2020-10-02T08:47:31.583Z</time>
      </trkpt>
      <trkpt lat="63.506" lon="19.33042">
        <ele>48.567932</ele>
        <time>2020-10-02T08:47:33.584Z</time>
      </trkpt>
      <trkpt lat="63.50591" lon="19.3304">
        <ele>48.539317</ele>
        <time>2020-10-02T08:47:35.588Z</time>
      </trkpt>
      <trkpt lat="63.50581" lon="19.33038">
        <ele>48.508837</ele>
        <time>2020-10-02T08:47:37.582Z</time>
      </trkpt>
      <trkpt lat="63.50572" lon="19.33036">
        <ele>48.479291</ele>
        <time>2020-10-02T08:47:39.601Z</time>
      </trkpt>
      <trkpt lat="63.50562" lon="19.33034">
        <ele>48.448799</ele>
        <time>2020-10-02T08:47:41.578Z</time>
      </trkpt>
      <trkpt lat="63.50552" lon="19.33032">
        <ele>48.416438</ele>
        <time>2020-10-02T08:47:43.603Z</time>
      </trkpt>
      <trkpt lat="63.50542" lon="19.33031">
        <ele>48.382794</ele>
        <time>2020-10-02T08:47:45.581Z</time>
      </trkpt>
      <trkpt lat="63.50531" lon="19.33029">
        <ele>48.350107</ele>
        <time>2020-10-02T08:47:47.591Z</time>
      </trkpt>
      <trkpt lat="63.50522" lon="19.33026">
        <ele>48.319163</ele>
        <time>2020-10-02T08:47:49.596Z</time>
      </trkpt>
      <trkpt lat="63.50512" lon="19.33023">
        <ele>48.28822</ele>
        <time>2020-10-02T08:47:51.581Z</time>
      </trkpt>
      <trkpt lat="63.50502" lon="19.3302">
        <ele>48.25759</ele>
        <time>2020-10-02T08:47:53.598Z</time>
      </trkpt>
      <trkpt lat="63.50493" lon="19.33018">
        <ele>48.226979</ele>
        <time>2020-10-02T08:47:55.599Z</time>
      </trkpt>
      <trkpt lat="63.50484" lon="19.33015">
        <ele>48.197584</ele>
        <time>2020-10-02T08:47:57.594Z</time>
      </trkpt>
      <trkpt lat="63.50474" lon="19.33011">
        <ele>48.167527</ele>
        <time>2020-10-02T08:47:59.582Z</time>
      </trkpt>
      <trkpt lat="63.50464" lon="19.33007">
        <ele>47.993017</ele>
        <time>2020-10-02T08:48:01.598Z</time>
      </trkpt>
      <trkpt lat="63.50454" lon="19.33005">
        <ele>47.803254</ele>
        <time>2020-10-02T08:48:03.586Z</time>
      </trkpt>
      <trkpt lat="63.50443" lon="19.33004">
        <ele>47.617333</ele>
        <time>2020-10-02T08:48:05.608Z</time>
      </trkpt>
      <trkpt lat="63.50433" lon="19.33003">
        <ele>47.433331</ele>
        <time>2020-10-02T08:48:07.563Z</time>
      </trkpt>
      <trkpt lat="63.50421" lon="19.33001">
        <ele>47.231807</ele>
        <time>2020-10-02T08:48:09.566Z</time>
      </trkpt>
      <trkpt lat="63.5041" lon="19.32999">
        <ele>47.031222</ele>
        <time>2020-10-02T08:48:11.588Z</time>
      </trkpt>
      <trkpt lat="63.50398" lon="19.32995">
        <ele>46.833481</ele>
        <time>2020-10-02T08:48:13.584Z</time>
      </trkpt>
      <trkpt lat="63.50387" lon="19.32994">
        <ele>46.637028</ele>
        <time>2020-10-02T08:48:15.575Z</time>
      </trkpt>
      <trkpt lat="63.50376" lon="19.32992">
        <ele>46.436666</ele>
        <time>2020-10-02T08:48:17.571Z</time>
      </trkpt>
      <trkpt lat="63.50363" lon="19.32988">
        <ele>46.216433</ele>
        <time>2020-10-02T08:48:19.582Z</time>
      </trkpt>
      <trkpt lat="63.5035" lon="19.32985">
        <ele>45.984104</ele>
        <time>2020-10-02T08:48:21.590Z</time>
      </trkpt>
      <trkpt lat="63.50337" lon="19.32983">
        <ele>45.746917</ele>
        <time>2020-10-02T08:48:23.573Z</time>
      </trkpt>
      <trkpt lat="63.50323" lon="19.32979">
        <ele>45.500151</ele>
        <time>2020-10-02T08:48:25.583Z</time>
      </trkpt>
      <trkpt lat="63.50309" lon="19.32974">
        <ele>45.251992</ele>
        <time>2020-10-02T08:48:27.601Z</time>
      </trkpt>
      <trkpt lat="63.50294" lon="19.32967">
        <ele>44.953517</ele>
        <time>2020-10-02T08:48:29.608Z</time>
      </trkpt>
      <trkpt lat="63.5028" lon="19.32959">
        <ele>44.304984</ele>
        <time>2020-10-02T08:48:31.577Z</time>
      </trkpt>
      <trkpt lat="63.50266" lon="19.32949">
        <ele>43.660177</ele>
        <time>2020-10-02T08:48:33.599Z</time>
      </trkpt>
      <trkpt lat="63.50252" lon="19.32935">
        <ele>42.998462</ele>
        <time>2020-10-02T08:48:35.594Z</time>
      </trkpt>
      <trkpt lat="63.50239" lon="19.32918">
        <ele>42.333372</ele>
        <time>2020-10-02T08:48:37.595Z</time>
      </trkpt>
      <trkpt lat="63.50228" lon="19.32901">
        <ele>41.726482</ele>
        <time>2020-10-02T08:48:39.566Z</time>
      </trkpt>
      <trkpt lat="63.50216" lon="19.32881">
        <ele>41.093145</ele>
        <time>2020-10-02T08:48:41.590Z</time>
      </trkpt>
      <trkpt lat="63.50205" lon="19.3286">
        <ele>40.448343</ele>
        <time>2020-10-02T08:48:43.573Z</time>
      </trkpt>
      <trkpt lat="63.50194" lon="19.32836">
        <ele>39.751025</ele>
        <time>2020-10-02T08:48:45.584Z</time>
      </trkpt>
      <trkpt lat="63.50182" lon="19.32811">
        <ele>39.061469</ele>
        <time>2020-10-02T08:48:47.612Z</time>
      </trkpt>
      <trkpt lat="63.50171" lon="19.32788">
        <ele>38.370167</ele>
        <time>2020-10-02T08:48:49.560Z</time>
      </trkpt>
      <trkpt lat="63.50159" lon="19.32765">
        <ele>37.670268</ele>
        <time>2020-10-02T08:48:51.580Z</time>
      </trkpt>
      <trkpt lat="63.50146" lon="19.32741">
        <ele>36.943354</ele>
        <time>2020-10-02T08:48:53.572Z</time>
      </trkpt>
      <trkpt lat="63.50135" lon="19.32718">
        <ele>36.125533</ele>
        <time>2020-10-02T08:48:55.596Z</time>
      </trkpt>
      <trkpt lat="63.50123" lon="19.32696">
        <ele>35.341187</ele>
        <time>2020-10-02T08:48:57.611Z</time>
      </trkpt>
      <trkpt lat="63.50113" lon="19.32673">
        <ele>34.581358</ele>
        <time>2020-10-02T08:48:59.583Z</time>
      </trkpt>
      <trkpt lat="63.50102" lon="19.32652">
        <ele>33.841762</ele>
        <time>2020-10-02T08:49:01.572Z</time>
      </trkpt>
      <trkpt lat="63.50092" lon="19.32632">
        <ele>33.130969</ele>
        <time>2020-10-02T08:49:03.579Z</time>
      </trkpt>
      <trkpt lat="63.50082" lon="19.32613">
        <ele>32.449691</ele>
        <time>2020-10-02T08:49:05.627Z</time>
      </trkpt>
      <trkpt lat="63.50072" lon="19.32594">
        <ele>31.778321</ele>
        <time>2020-10-02T08:49:07.579Z</time>
      </trkpt>
      <trkpt lat="63.50063" lon="19.32575">
        <ele>31.144306</ele>
        <time>2020-10-02T08:49:09.603Z</time>
      </trkpt>
      <trkpt lat="63.50055" lon="19.32558">
        <ele>30.553703</ele>
        <time>2020-10-02T08:49:11.590Z</time>
      </trkpt>
      <trkpt lat="63.50047" lon="19.32542">
        <ele>29.984026</ele>
        <time>2020-10-02T08:49:13.607Z</time>
      </trkpt>
      <trkpt lat="63.50039" lon="19.32526">
        <ele>29.427529</ele>
        <time>2020-10-02T08:49:15.585Z</time>
      </trkpt>
      <trkpt lat="63.5003" lon="19.32509">
        <ele>28.853988</ele>
        <time>2020-10-02T08:49:17.562Z</time>
      </trkpt>
      <trkpt lat="63.50022" lon="19.32492">
        <ele>28.253275</ele>
        <time>2020-10-02T08:49:19.589Z</time>
      </trkpt>
      <trkpt lat="63.50013" lon="19.32475">
        <ele>27.809687</ele>
        <time>2020-10-02T08:49:21.600Z</time>
      </trkpt>
      <trkpt lat="63.50004" lon="19.32458">
        <ele>28.238171</ele>
        <time>2020-10-02T08:49:23.581Z</time>
      </trkpt>
      <trkpt lat="63.49996" lon="19.32442">
        <ele>28.6624</ele>
        <time>2020-10-02T08:49:25.595Z</time>
      </trkpt>
      <trkpt lat="63.49987" lon="19.32425">
        <ele>29.082969</ele>
        <time>2020-10-02T08:49:27.604Z</time>
      </trkpt>
      <trkpt lat="63.49979" lon="19.32408">
        <ele>29.494692</ele>
        <time>2020-10-02T08:49:29.599Z</time>
      </trkpt>
      <trkpt lat="63.49971" lon="19.32392">
        <ele>29.898235</ele>
        <time>2020-10-02T08:49:31.568Z</time>
      </trkpt>
      <trkpt lat="63.49963" lon="19.32377">
        <ele>30.274548</ele>
        <time>2020-10-02T08:49:33.570Z</time>
      </trkpt>
      <trkpt lat="63.49957" lon="19.32362">
        <ele>30.632911</ele>
        <time>2020-10-02T08:49:35.567Z</time>
      </trkpt>
      <trkpt lat="63.4995" lon="19.32348">
        <ele>30.978778</ele>
        <time>2020-10-02T08:49:37.578Z</time>
      </trkpt>
      <trkpt lat="63.4994" lon="19.32328">
        <ele>31.476321</ele>
        <time>2020-10-02T08:49:40.582Z</time>
      </trkpt>
      <trkpt lat="63.4993" lon="19.32309">
        <ele>31.952859</ele>
        <time>2020-10-02T08:49:43.580Z</time>
      </trkpt>
      <trkpt lat="63.4992" lon="19.32291">
        <ele>32.426159</ele>
        <time>2020-10-02T08:49:46.568Z</time>
      </trkpt>
      <trkpt lat="63.49911" lon="19.32272">
        <ele>32.883824</ele>
        <time>2020-10-02T08:49:49.571Z</time>
      </trkpt>
      <trkpt lat="63.49902" lon="19.32255">
        <ele>33.31383</ele>
        <time>2020-10-02T08:49:52.580Z</time>
      </trkpt>
      <trkpt lat="63.49894" lon="19.32239">
        <ele>33.732363</ele>
        <time>2020-10-02T08:49:55.581Z</time>
      </trkpt>
      <trkpt lat="63.49886" lon="19.32222">
        <ele>34.130933</ele>
        <time>2020-10-02T08:49:58.598Z</time>
      </trkpt>
      <trkpt lat="63.49878" lon="19.32206">
        <ele>34.549129</ele>
        <time>2020-10-02T08:50:01.582Z</time>
      </trkpt>
      <trkpt lat="63.4987" lon="19.3219">
        <ele>35.056001</ele>
        <time>2020-10-02T08:50:04.590Z</time>
      </trkpt>
      <trkpt lat="63.49862" lon="19.32176">
        <ele>35.54453</ele>
        <time>2020-10-02T08:50:07.603Z</time>
      </trkpt>
      <trkpt lat="63.49854" lon="19.3216">
        <ele>36.066441</ele>
        <time>2020-10-02T08:50:10.587Z</time>
      </trkpt>
      <trkpt lat="63.49845" lon="19.32144">
        <ele>36.597412</ele>
        <time>2020-10-02T08:50:13.573Z</time>
      </trkpt>
      <trkpt lat="63.49837" lon="19.3213">
        <ele>37.09346</ele>
        <time>2020-10-02T08:50:16.574Z</time>
      </trkpt>
      <trkpt lat="63.49829" lon="19.32115">
        <ele>37.580339</ele>
        <time>2020-10-02T08:50:19.609Z</time>
      </trkpt>
      <trkpt lat="63.49821" lon="19.32102">
        <ele>38.068776</ele>
        <time>2020-10-02T08:50:22.617Z</time>
      </trkpt>
      <trkpt lat="63.49812" lon="19.32088">
        <ele>38.561055</ele>
        <time>2020-10-02T08:50:25.612Z</time>
      </trkpt>
      <trkpt lat="63.49803" lon="19.32076">
        <ele>39.060495</ele>
        <time>2020-10-02T08:50:28.566Z</time>
      </trkpt>
      <trkpt lat="63.49794" lon="19.32066">
        <ele>39.552356</ele>
        <time>2020-10-02T08:50:31.602Z</time>
      </trkpt>
      <trkpt lat="63.49785" lon="19.32058">
        <ele>40.024276</ele>
        <time>2020-10-02T08:50:34.597Z</time>
      </trkpt>
      <trkpt lat="63.49775" lon="19.32049">
        <ele>40.520266</ele>
        <time>2020-10-02T08:50:37.582Z</time>
      </trkpt>
      <trkpt lat="63.49767" lon="19.3204">
        <ele>40.950316</ele>
        <time>2020-10-02T08:50:40.568Z</time>
      </trkpt>
      <trkpt lat="63.49755" lon="19.32034">
        <ele>41.502468</ele>
        <time>2020-10-02T08:50:44.591Z</time>
      </trkpt>
      <trkpt lat="63.49745" lon="19.32028">
        <ele>42.022351</ele>
        <time>2020-10-02T08:50:48.622Z</time>
      </trkpt>
      <trkpt lat="63.49733" lon="19.32023">
        <ele>42.583905</ele>
        <time>2020-10-02T08:50:52.580Z</time>
      </trkpt>
      <trkpt lat="63.49724" lon="19.3202">
        <ele>42.981219</ele>
        <time>2020-10-02T08:50:55.577Z</time>
      </trkpt>
      <trkpt lat="63.49713" lon="19.32017">
        <ele>43.075496</ele>
        <time>2020-10-02T08:50:59.564Z</time>
      </trkpt>
      <trkpt lat="63.49703" lon="19.32015">
        <ele>43.166207</ele>
        <time>2020-10-02T08:51:03.579Z</time>
      </trkpt>
      <trkpt lat="63.49692" lon="19.32011">
        <ele>43.263674</ele>
        <time>2020-10-02T08:51:07.585Z</time>
      </trkpt>
      <trkpt lat="63.4968" lon="19.32008">
        <ele>43.367707</ele>
        <time>2020-10-02T08:51:11.599Z</time>
      </trkpt>
      <trkpt lat="63.49669" lon="19.32007">
        <ele>43.470424</ele>
        <time>2020-10-02T08:51:15.581Z</time>
      </trkpt>
      <trkpt lat="63.49657" lon="19.32004">
        <ele>43.571963</ele>
        <time>2020-10-02T08:51:19.567Z</time>
      </trkpt>
      <trkpt lat="63.49645" lon="19.32001">
        <ele>43.676161</ele>
        <time>2020-10-02T08:51:23.617Z</time>
      </trkpt>
      <trkpt lat="63.49637" lon="19.31998">
        <ele>43.754963</ele>
        <time>2020-10-02T08:51:26.577Z</time>
      </trkpt>
      <trkpt lat="63.49627" lon="19.31997">
        <ele>43.836866</ele>
        <time>2020-10-02T08:51:29.597Z</time>
      </trkpt>
      <trkpt lat="63.49618" lon="19.31993">
        <ele>43.919741</ele>
        <time>2020-10-02T08:51:32.598Z</time>
      </trkpt>
      <trkpt lat="63.49608" lon="19.31989">
        <ele>44.005209</ele>
        <time>2020-10-02T08:51:35.585Z</time>
      </trkpt>
      <trkpt lat="63.49599" lon="19.31984">
        <ele>44.088089</ele>
        <time>2020-10-02T08:51:38.573Z</time>
      </trkpt>
      <trkpt lat="63.4959" lon="19.31981">
        <ele>44.170032</ele>
        <time>2020-10-02T08:51:41.597Z</time>
      </trkpt>
      <trkpt lat="63.49581" lon="19.31978">
        <ele>44.251604</ele>
        <time>2020-10-02T08:51:44.570Z</time>
      </trkpt>
      <trkpt lat="63.49571" lon="19.31974">
        <ele>44.338142</ele>
        <time>2020-10-02T08:51:47.600Z</time>
      </trkpt>
      <trkpt lat="63.49561" lon="19.3197">
        <ele>44.43007</ele>
        <time>2020-10-02T08:51:50.591Z</time>
      </trkpt>
      <trkpt lat="63.49551" lon="19.31965">
        <ele>44.519267</ele>
        <time>2020-10-02T08:51:53.578Z</time>
      </trkpt>
      <trkpt lat="63.4954" lon="19.31961">
        <ele>44.643272</ele>
        <time>2020-10-02T08:51:56.607Z</time>
      </trkpt>
      <trkpt lat="63.4953" lon="19.31957">
        <ele>44.787108</ele>
        <time>2020-10-02T08:51:59.579Z</time>
      </trkpt>
      <trkpt lat="63.49518" lon="19.31952">
        <ele>44.940493</ele>
        <time>2020-10-02T08:52:02.581Z</time>
      </trkpt>
      <trkpt lat="63.49507" lon="19.31949">
        <ele>45.091615</ele>
        <time>2020-10-02T08:52:05.603Z</time>
      </trkpt>
      <trkpt lat="63.49495" lon="19.31944">
        <ele>45.253672</ele>
        <time>2020-10-02T08:52:08.581Z</time>
      </trkpt>
      <trkpt lat="63.49482" lon="19.31943">
        <ele>45.423555</ele>
        <time>2020-10-02T08:52:11.562Z</time>
      </trkpt>
      <trkpt lat="63.49469" lon="19.31949">
        <ele>45.596481</ele>
        <time>2020-10-02T08:52:14.599Z</time>
      </trkpt>
      <trkpt lat="63.49461" lon="19.31956">
        <ele>45.716023</ele>
        <time>2020-10-02T08:52:16.615Z</time>
      </trkpt>
      <trkpt lat="63.49449" lon="19.31968">
        <ele>45.888699</ele>
        <time>2020-10-02T08:52:19.600Z</time>
      </trkpt>
      <trkpt lat="63.49437" lon="19.31964">
        <ele>46.054456</ele>
        <time>2020-10-02T08:52:22.570Z</time>
      </trkpt>
      <trkpt lat="63.4943" lon="19.31952">
        <ele>46.174234</ele>
        <time>2020-10-02T08:52:24.570Z</time>
      </trkpt>
      <trkpt lat="63.49422" lon="19.3194">
        <ele>46.294926</ele>
        <time>2020-10-02T08:52:26.592Z</time>
      </trkpt>
      <trkpt lat="63.49414" lon="19.31929">
        <ele>46.419797</ele>
        <time>2020-10-02T08:52:28.569Z</time>
      </trkpt>
      <trkpt lat="63.49407" lon="19.31917">
        <ele>46.54105</ele>
        <time>2020-10-02T08:52:30.583Z</time>
      </trkpt>
      <trkpt lat="63.49396" lon="19.31901">
        <ele>46.71122</ele>
        <time>2020-10-02T08:52:33.582Z</time>
      </trkpt>
      <trkpt lat="63.49385" lon="19.31886">
        <ele>46.880468</ele>
        <time>2020-10-02T08:52:36.561Z</time>
      </trkpt>
      <trkpt lat="63.49375" lon="19.3187">
        <ele>47.087092</ele>
        <time>2020-10-02T08:52:39.566Z</time>
      </trkpt>
      <trkpt lat="63.49365" lon="19.31855">
        <ele>47.305706</ele>
        <time>2020-10-02T08:52:42.578Z</time>
      </trkpt>
      <trkpt lat="63.49355" lon="19.31841">
        <ele>47.510623</ele>
        <time>2020-10-02T08:52:45.586Z</time>
      </trkpt>
      <trkpt lat="63.49346" lon="19.31827">
        <ele>47.709702</ele>
        <time>2020-10-02T08:52:48.622Z</time>
      </trkpt>
      <trkpt lat="63.49337" lon="19.31815">
        <ele>47.905379</ele>
        <time>2020-10-02T08:52:51.581Z</time>
      </trkpt>
      <trkpt lat="63.49329" lon="19.31801">
        <ele>48.087172</ele>
        <time>2020-10-02T08:52:54.568Z</time>
      </trkpt>
      <trkpt lat="63.49321" lon="19.31789">
        <ele>48.259369</ele>
        <time>2020-10-02T08:52:57.569Z</time>
      </trkpt>
      <trkpt lat="63.49312" lon="19.31776">
        <ele>48.443093</ele>
        <time>2020-10-02T08:53:00.590Z</time>
      </trkpt>
      <trkpt lat="63.49305" lon="19.31762">
        <ele>48.61973</ele>
        <time>2020-10-02T08:53:03.578Z</time>
      </trkpt>
      <trkpt lat="63.49297" lon="19.31749">
        <ele>48.790458</ele>
        <time>2020-10-02T08:53:06.582Z</time>
      </trkpt>
      <trkpt lat="63.4929" lon="19.31738">
        <ele>48.952294</ele>
        <time>2020-10-02T08:53:09.574Z</time>
      </trkpt>
      <trkpt lat="63.49282" lon="19.31726">
        <ele>49.123242</ele>
        <time>2020-10-02T08:53:12.589Z</time>
      </trkpt>
      <trkpt lat="63.49274" lon="19.31715">
        <ele>49.298108</ele>
        <time>2020-10-02T08:53:15.578Z</time>
      </trkpt>
      <trkpt lat="63.49265" lon="19.31703">
        <ele>49.474012</ele>
        <time>2020-10-02T08:53:18.579Z</time>
      </trkpt>
      <trkpt lat="63.49258" lon="19.31691">
        <ele>49.641414</ele>
        <time>2020-10-02T08:53:21.606Z</time>
      </trkpt>
      <trkpt lat="63.49248" lon="19.31675">
        <ele>49.856838</ele>
        <time>2020-10-02T08:53:25.575Z</time>
      </trkpt>
      <trkpt lat="63.49241" lon="19.31663">
        <ele>50.022305</ele>
        <time>2020-10-02T08:53:28.606Z</time>
      </trkpt>
      <trkpt lat="63.49233" lon="19.31651">
        <ele>50.198177</ele>
        <time>2020-10-02T08:53:31.595Z</time>
      </trkpt>
      <trkpt lat="63.49226" lon="19.3164">
        <ele>50.550467</ele>
        <time>2020-10-02T08:53:34.569Z</time>
      </trkpt>
      <trkpt lat="63.49217" lon="19.31628">
        <ele>50.916311</ele>
        <time>2020-10-02T08:53:37.608Z</time>
      </trkpt>
      <trkpt lat="63.4921" lon="19.31616">
        <ele>51.2674</ele>
        <time>2020-10-02T08:53:40.598Z</time>
      </trkpt>
      <trkpt lat="63.49202" lon="19.31604">
        <ele>51.630712</ele>
        <time>2020-10-02T08:53:43.586Z</time>
      </trkpt>
      <trkpt lat="63.49194" lon="19.31591">
        <ele>51.996808</ele>
        <time>2020-10-02T08:53:46.587Z</time>
      </trkpt>
      <trkpt lat="63.49187" lon="19.31579">
        <ele>52.343827</ele>
        <time>2020-10-02T08:53:49.590Z</time>
      </trkpt>
      <trkpt lat="63.49179" lon="19.31567">
        <ele>52.707436</ele>
        <time>2020-10-02T08:53:52.581Z</time>
      </trkpt>
      <trkpt lat="63.4917" lon="19.31555">
        <ele>53.088413</ele>
        <time>2020-10-02T08:53:55.579Z</time>
      </trkpt>
      <trkpt lat="63.49162" lon="19.31543">
        <ele>53.462939</ele>
        <time>2020-10-02T08:53:58.611Z</time>
      </trkpt>
      <trkpt lat="63.49154" lon="19.31531">
        <ele>53.828182</ele>
        <time>2020-10-02T08:54:01.577Z</time>
      </trkpt>
      <trkpt lat="63.49146" lon="19.31519">
        <ele>54.205931</ele>
        <time>2020-10-02T08:54:04.570Z</time>
      </trkpt>
      <trkpt lat="63.49137" lon="19.31506">
        <ele>54.584359</ele>
        <time>2020-10-02T08:54:07.582Z</time>
      </trkpt>
      <trkpt lat="63.49129" lon="19.31493">
        <ele>54.980723</ele>
        <time>2020-10-02T08:54:10.596Z</time>
      </trkpt>
      <trkpt lat="63.4912" lon="19.3148">
        <ele>55.372612</ele>
        <time>2020-10-02T08:54:13.582Z</time>
      </trkpt>
      <trkpt lat="63.49111" lon="19.31467">
        <ele>55.781277</ele>
        <time>2020-10-02T08:54:16.604Z</time>
      </trkpt>
      <trkpt lat="63.49102" lon="19.31453">
        <ele>56.204112</ele>
        <time>2020-10-02T08:54:19.589Z</time>
      </trkpt>
      <trkpt lat="63.49092" lon="19.31438">
        <ele>56.642086</ele>
        <time>2020-10-02T08:54:22.566Z</time>
      </trkpt>
      <trkpt lat="63.49083" lon="19.31423">
        <ele>56.917048</ele>
        <time>2020-10-02T08:54:25.590Z</time>
      </trkpt>
      <trkpt lat="63.49073" lon="19.31407">
        <ele>56.610214</ele>
        <time>2020-10-02T08:54:28.585Z</time>
      </trkpt>
      <trkpt lat="63.49062" lon="19.31391">
        <ele>56.301995</ele>
        <time>2020-10-02T08:54:31.582Z</time>
      </trkpt>
      <trkpt lat="63.49051" lon="19.31373">
        <ele>55.964438</ele>
        <time>2020-10-02T08:54:34.610Z</time>
      </trkpt>
      <trkpt lat="63.49044" lon="19.31362">
        <ele>55.733235</ele>
        <time>2020-10-02T08:54:36.638Z</time>
      </trkpt>
      <trkpt lat="63.49036" lon="19.31349">
        <ele>55.493524</ele>
        <time>2020-10-02T08:54:38.570Z</time>
      </trkpt>
      <trkpt lat="63.49028" lon="19.31336">
        <ele>55.247274</ele>
        <time>2020-10-02T08:54:40.611Z</time>
      </trkpt>
      <trkpt lat="63.4902" lon="19.31324">
        <ele>54.997613</ele>
        <time>2020-10-02T08:54:42.579Z</time>
      </trkpt>
      <trkpt lat="63.49011" lon="19.3131">
        <ele>54.738723</ele>
        <time>2020-10-02T08:54:44.571Z</time>
      </trkpt>
      <trkpt lat="63.49003" lon="19.31296">
        <ele>54.477814</ele>
        <time>2020-10-02T08:54:46.594Z</time>
      </trkpt>
      <trkpt lat="63.48994" lon="19.31283">
        <ele>54.220226</ele>
        <time>2020-10-02T08:54:48.574Z</time>
      </trkpt>
      <trkpt lat="63.48986" lon="19.31269">
        <ele>53.963928</ele>
        <time>2020-10-02T08:54:50.594Z</time>
      </trkpt>
      <trkpt lat="63.48977" lon="19.31256">
        <ele>53.702367</ele>
        <time>2020-10-02T08:54:52.589Z</time>
      </trkpt>
      <trkpt lat="63.48968" lon="19.31241">
        <ele>53.425404</ele>
        <time>2020-10-02T08:54:54.592Z</time>
      </trkpt>
      <trkpt lat="63.48959" lon="19.31226">
        <ele>53.135894</ele>
        <time>2020-10-02T08:54:56.568Z</time>
      </trkpt>
      <trkpt lat="63.48949" lon="19.31211">
        <ele>52.844095</ele>
        <time>2020-10-02T08:54:58.576Z</time>
      </trkpt>
      <trkpt lat="63.4894" lon="19.31196">
        <ele>52.554584</ele>
        <time>2020-10-02T08:55:00.597Z</time>
      </trkpt>
      <trkpt lat="63.4893" lon="19.31181">
        <ele>52.357701</ele>
        <time>2020-10-02T08:55:02.582Z</time>
      </trkpt>
      <trkpt lat="63.48921" lon="19.31166">
        <ele>52.183325</ele>
        <time>2020-10-02T08:55:04.579Z</time>
      </trkpt>
      <trkpt lat="63.48912" lon="19.31151">
        <ele>52.008949</ele>
        <time>2020-10-02T08:55:06.577Z</time>
      </trkpt>
      <trkpt lat="63.48902" lon="19.31137">
        <ele>51.835359</ele>
        <time>2020-10-02T08:55:08.577Z</time>
      </trkpt>
      <trkpt lat="63.48893" lon="19.31122">
        <ele>51.660125</ele>
        <time>2020-10-02T08:55:10.585Z</time>
      </trkpt>
      <trkpt lat="63.48884" lon="19.31107">
        <ele>51.484107</ele>
        <time>2020-10-02T08:55:12.583Z</time>
      </trkpt>
      <trkpt lat="63.48875" lon="19.31093">
        <ele>51.31385</ele>
        <time>2020-10-02T08:55:14.591Z</time>
      </trkpt>
      <trkpt lat="63.48866" lon="19.31078">
        <ele>51.142786</ele>
        <time>2020-10-02T08:55:16.569Z</time>
      </trkpt>
      <trkpt lat="63.48857" lon="19.31063">
        <ele>50.97333</ele>
        <time>2020-10-02T08:55:18.586Z</time>
      </trkpt>
      <trkpt lat="63.48848" lon="19.31048">
        <ele>50.803055</ele>
        <time>2020-10-02T08:55:20.587Z</time>
      </trkpt>
      <trkpt lat="63.48839" lon="19.31033">
        <ele>50.631959</ele>
        <time>2020-10-02T08:55:22.573Z</time>
      </trkpt>
      <trkpt lat="63.4883" lon="19.31019">
        <ele>50.461259</ele>
        <time>2020-10-02T08:55:24.617Z</time>
      </trkpt>
      <trkpt lat="63.48821" lon="19.31003">
        <ele>50.293598</ele>
        <time>2020-10-02T08:55:26.608Z</time>
      </trkpt>
      <trkpt lat="63.48812" lon="19.30988">
        <ele>50.124569</ele>
        <time>2020-10-02T08:55:28.590Z</time>
      </trkpt>
      <trkpt lat="63.48804" lon="19.30973">
        <ele>49.957963</ele>
        <time>2020-10-02T08:55:30.582Z</time>
      </trkpt>
      <trkpt lat="63.48795" lon="19.30959">
        <ele>49.790145</ele>
        <time>2020-10-02T08:55:32.570Z</time>
      </trkpt>
      <trkpt lat="63.48786" lon="19.30944">
        <ele>49.641112</ele>
        <time>2020-10-02T08:55:34.582Z</time>
      </trkpt>
      <trkpt lat="63.48778" lon="19.30929">
        <ele>49.490274</ele>
        <time>2020-10-02T08:55:36.580Z</time>
      </trkpt>
      <trkpt lat="63.48769" lon="19.30914">
        <ele>49.345641</ele>
        <time>2020-10-02T08:55:38.601Z</time>
      </trkpt>
      <trkpt lat="63.48761" lon="19.30898">
        <ele>49.193478</ele>
        <time>2020-10-02T08:55:40.592Z</time>
      </trkpt>
      <trkpt lat="63.48752" lon="19.30882">
        <ele>49.036694</ele>
        <time>2020-10-02T08:55:42.580Z</time>
      </trkpt>
      <trkpt lat="63.48743" lon="19.30866">
        <ele>48.87415</ele>
        <time>2020-10-02T08:55:44.598Z</time>
      </trkpt>
      <trkpt lat="63.48734" lon="19.3085">
        <ele>48.717058</ele>
        <time>2020-10-02T08:55:46.595Z</time>
      </trkpt>
      <trkpt lat="63.48725" lon="19.30834">
        <ele>48.561039</ele>
        <time>2020-10-02T08:55:48.600Z</time>
      </trkpt>
      <trkpt lat="63.48715" lon="19.30818">
        <ele>48.397774</ele>
        <time>2020-10-02T08:55:50.579Z</time>
      </trkpt>
      <trkpt lat="63.48706" lon="19.30803">
        <ele>48.242136</ele>
        <time>2020-10-02T08:55:52.577Z</time>
      </trkpt>
      <trkpt lat="63.48697" lon="19.30787">
        <ele>48.086877</ele>
        <time>2020-10-02T08:55:54.585Z</time>
      </trkpt>
      <trkpt lat="63.48689" lon="19.30771">
        <ele>47.931156</ele>
        <time>2020-10-02T08:55:56.580Z</time>
      </trkpt>
      <trkpt lat="63.4868" lon="19.30754">
        <ele>47.77215</ele>
        <time>2020-10-02T08:55:58.572Z</time>
      </trkpt>
      <trkpt lat="63.4867" lon="19.30738">
        <ele>47.612078</ele>
        <time>2020-10-02T08:56:00.590Z</time>
      </trkpt>
      <trkpt lat="63.48661" lon="19.30721">
        <ele>47.446008</ele>
        <time>2020-10-02T08:56:02.590Z</time>
      </trkpt>
      <trkpt lat="63.48651" lon="19.30703">
        <ele>47.270295</ele>
        <time>2020-10-02T08:56:04.580Z</time>
      </trkpt>
      <trkpt lat="63.48641" lon="19.30685">
        <ele>47.027994</ele>
        <time>2020-10-02T08:56:06.567Z</time>
      </trkpt>
      <trkpt lat="63.48631" lon="19.30666">
        <ele>46.777577</ele>
        <time>2020-10-02T08:56:08.586Z</time>
      </trkpt>
      <trkpt lat="63.48621" lon="19.30647">
        <ele>46.530378</ele>
        <time>2020-10-02T08:56:10.623Z</time>
      </trkpt>
      <trkpt lat="63.4861" lon="19.30627">
        <ele>46.271037</ele>
        <time>2020-10-02T08:56:12.600Z</time>
      </trkpt>
      <trkpt lat="63.48599" lon="19.30606">
        <ele>45.997258</ele>
        <time>2020-10-02T08:56:14.596Z</time>
      </trkpt>
      <trkpt lat="63.48587" lon="19.30584">
        <ele>45.717614</ele>
        <time>2020-10-02T08:56:16.592Z</time>
      </trkpt>
      <trkpt lat="63.48575" lon="19.30562">
        <ele>45.431563</ele>
        <time>2020-10-02T08:56:18.599Z</time>
      </trkpt>
      <trkpt lat="63.48564" lon="19.30539">
        <ele>45.138111</ele>
        <time>2020-10-02T08:56:20.588Z</time>
      </trkpt>
      <trkpt lat="63.48552" lon="19.30514">
        <ele>44.836618</ele>
        <time>2020-10-02T08:56:22.617Z</time>
      </trkpt>
      <trkpt lat="63.48539" lon="19.30491">
        <ele>44.533423</ele>
        <time>2020-10-02T08:56:24.590Z</time>
      </trkpt>
      <trkpt lat="63.48527" lon="19.30466">
        <ele>44.228588</ele>
        <time>2020-10-02T08:56:26.607Z</time>
      </trkpt>
      <trkpt lat="63.48514" lon="19.30443">
        <ele>43.91612</ele>
        <time>2020-10-02T08:56:28.571Z</time>
      </trkpt>
      <trkpt lat="63.48501" lon="19.30419">
        <ele>43.532075</ele>
        <time>2020-10-02T08:56:30.617Z</time>
      </trkpt>
      <trkpt lat="63.48488" lon="19.30394">
        <ele>43.144765</ele>
        <time>2020-10-02T08:56:32.579Z</time>
      </trkpt>
      <trkpt lat="63.48475" lon="19.30369">
        <ele>42.748562</ele>
        <time>2020-10-02T08:56:34.586Z</time>
      </trkpt>
      <trkpt lat="63.48461" lon="19.30343">
        <ele>42.350154</ele>
        <time>2020-10-02T08:56:36.595Z</time>
      </trkpt>
      <trkpt lat="63.48448" lon="19.30318">
        <ele>41.959378</ele>
        <time>2020-10-02T08:56:38.568Z</time>
      </trkpt>
      <trkpt lat="63.48435" lon="19.30294">
        <ele>41.577488</ele>
        <time>2020-10-02T08:56:40.600Z</time>
      </trkpt>
      <trkpt lat="63.48423" lon="19.30269">
        <ele>41.19229</ele>
        <time>2020-10-02T08:56:42.643Z</time>
      </trkpt>
      <trkpt lat="63.4841" lon="19.30244">
        <ele>40.813836</ele>
        <time>2020-10-02T08:56:44.574Z</time>
      </trkpt>
      <trkpt lat="63.48398" lon="19.3022">
        <ele>40.443447</ele>
        <time>2020-10-02T08:56:46.599Z</time>
      </trkpt>
      <trkpt lat="63.48386" lon="19.30198">
        <ele>40.090224</ele>
        <time>2020-10-02T08:56:48.583Z</time>
      </trkpt>
      <trkpt lat="63.48374" lon="19.30176">
        <ele>39.853162</ele>
        <time>2020-10-02T08:56:50.582Z</time>
      </trkpt>
      <trkpt lat="63.48363" lon="19.30156">
        <ele>39.831932</ele>
        <time>2020-10-02T08:56:52.578Z</time>
      </trkpt>
      <trkpt lat="63.48352" lon="19.30136">
        <ele>39.811447</ele>
        <time>2020-10-02T08:56:54.592Z</time>
      </trkpt>
      <trkpt lat="63.48342" lon="19.30118">
        <ele>39.792577</ele>
        <time>2020-10-02T08:56:56.576Z</time>
      </trkpt>
      <trkpt lat="63.48332" lon="19.30099">
        <ele>39.773594</ele>
        <time>2020-10-02T08:56:58.587Z</time>
      </trkpt>
      <trkpt lat="63.48322" lon="19.30081">
        <ele>39.755113</ele>
        <time>2020-10-02T08:57:00.594Z</time>
      </trkpt>
      <trkpt lat="63.48312" lon="19.30064">
        <ele>39.737329</ele>
        <time>2020-10-02T08:57:02.580Z</time>
      </trkpt>
      <trkpt lat="63.48302" lon="19.30046">
        <ele>39.7191</ele>
        <time>2020-10-02T08:57:04.597Z</time>
      </trkpt>
      <trkpt lat="63.48293" lon="19.30029">
        <ele>39.700791</ele>
        <time>2020-10-02T08:57:06.588Z</time>
      </trkpt>
      <trkpt lat="63.48283" lon="19.30012">
        <ele>39.68271</ele>
        <time>2020-10-02T08:57:08.582Z</time>
      </trkpt>
      <trkpt lat="63.48273" lon="19.29995">
        <ele>39.665132</ele>
        <time>2020-10-02T08:57:10.608Z</time>
      </trkpt>
      <trkpt lat="63.48264" lon="19.29977">
        <ele>39.647543</ele>
        <time>2020-10-02T08:57:12.590Z</time>
      </trkpt>
      <trkpt lat="63.48255" lon="19.2996">
        <ele>39.629729</ele>
        <time>2020-10-02T08:57:14.583Z</time>
      </trkpt>
      <trkpt lat="63.48245" lon="19.29942">
        <ele>39.611289</ele>
        <time>2020-10-02T08:57:16.623Z</time>
      </trkpt>
      <trkpt lat="63.48235" lon="19.29924">
        <ele>39.630499</ele>
        <time>2020-10-02T08:57:18.590Z</time>
      </trkpt>
      <trkpt lat="63.48225" lon="19.29906">
        <ele>39.72963</ele>
        <time>2020-10-02T08:57:20.579Z</time>
      </trkpt>
      <trkpt lat="63.48216" lon="19.29888">
        <ele>39.826107</ele>
        <time>2020-10-02T08:57:22.614Z</time>
      </trkpt>
      <trkpt lat="63.48206" lon="19.29871">
        <ele>39.925996</ele>
        <time>2020-10-02T08:57:24.589Z</time>
      </trkpt>
      <trkpt lat="63.48196" lon="19.29854">
        <ele>40.023799</ele>
        <time>2020-10-02T08:57:26.607Z</time>
      </trkpt>
      <trkpt lat="63.48187" lon="19.29837">
        <ele>40.119926</ele>
        <time>2020-10-02T08:57:28.617Z</time>
      </trkpt>
      <trkpt lat="63.48178" lon="19.2982">
        <ele>40.21527</ele>
        <time>2020-10-02T08:57:30.589Z</time>
      </trkpt>
      <trkpt lat="63.48168" lon="19.29803">
        <ele>40.311003</ele>
        <time>2020-10-02T08:57:32.578Z</time>
      </trkpt>
      <trkpt lat="63.48159" lon="19.29786">
        <ele>40.40735</ele>
        <time>2020-10-02T08:57:34.595Z</time>
      </trkpt>
      <trkpt lat="63.48149" lon="19.29769">
        <ele>40.506596</ele>
        <time>2020-10-02T08:57:36.575Z</time>
      </trkpt>
      <trkpt lat="63.48139" lon="19.29752">
        <ele>40.602886</ele>
        <time>2020-10-02T08:57:38.584Z</time>
      </trkpt>
      <trkpt lat="63.48129" lon="19.29736">
        <ele>40.701298</ele>
        <time>2020-10-02T08:57:40.612Z</time>
      </trkpt>
      <trkpt lat="63.48119" lon="19.2972">
        <ele>40.799299</ele>
        <time>2020-10-02T08:57:42.595Z</time>
      </trkpt>
      <trkpt lat="63.48109" lon="19.29703">
        <ele>40.89686</ele>
        <time>2020-10-02T08:57:44.589Z</time>
      </trkpt>
      <trkpt lat="63.48099" lon="19.29685">
        <ele>40.99822</ele>
        <time>2020-10-02T08:57:46.588Z</time>
      </trkpt>
      <trkpt lat="63.48088" lon="19.29668">
        <ele>40.953449</ele>
        <time>2020-10-02T08:57:48.570Z</time>
      </trkpt>
      <trkpt lat="63.48078" lon="19.29651">
        <ele>40.869159</ele>
        <time>2020-10-02T08:57:50.581Z</time>
      </trkpt>
      <trkpt lat="63.48068" lon="19.29633">
        <ele>40.782891</ele>
        <time>2020-10-02T08:57:52.596Z</time>
      </trkpt>
      <trkpt lat="63.48058" lon="19.29616">
        <ele>40.696821</ele>
        <time>2020-10-02T08:57:54.598Z</time>
      </trkpt>
      <trkpt lat="63.48047" lon="19.29598">
        <ele>40.608975</ele>
        <time>2020-10-02T08:57:56.597Z</time>
      </trkpt>
      <trkpt lat="63.48037" lon="19.29581">
        <ele>40.521118</ele>
        <time>2020-10-02T08:57:58.581Z</time>
      </trkpt>
      <trkpt lat="63.48026" lon="19.29563">
        <ele>40.433625</ele>
        <time>2020-10-02T08:58:00.611Z</time>
      </trkpt>
      <trkpt lat="63.48015" lon="19.29546">
        <ele>40.343278</ele>
        <time>2020-10-02T08:58:02.610Z</time>
      </trkpt>
      <trkpt lat="63.48003" lon="19.29528">
        <ele>40.249497</ele>
        <time>2020-10-02T08:58:04.601Z</time>
      </trkpt>
      <trkpt lat="63.47992" lon="19.2951">
        <ele>40.156637</ele>
        <time>2020-10-02T08:58:06.580Z</time>
      </trkpt>
      <trkpt lat="63.47981" lon="19.29492">
        <ele>40.065576</ele>
        <time>2020-10-02T08:58:08.579Z</time>
      </trkpt>
      <trkpt lat="63.4797" lon="19.29474">
        <ele>39.974147</ele>
        <time>2020-10-02T08:58:10.582Z</time>
      </trkpt>
      <trkpt lat="63.47958" lon="19.29456">
        <ele>39.88306</ele>
        <time>2020-10-02T08:58:12.587Z</time>
      </trkpt>
      <trkpt lat="63.47947" lon="19.29439">
        <ele>39.777343</ele>
        <time>2020-10-02T08:58:14.592Z</time>
      </trkpt>
      <trkpt lat="63.47936" lon="19.29422">
        <ele>39.648569</ele>
        <time>2020-10-02T08:58:16.596Z</time>
      </trkpt>
      <trkpt lat="63.47925" lon="19.29405">
        <ele>39.519312</ele>
        <time>2020-10-02T08:58:18.590Z</time>
      </trkpt>
      <trkpt lat="63.47914" lon="19.29388">
        <ele>39.389982</ele>
        <time>2020-10-02T08:58:20.581Z</time>
      </trkpt>
      <trkpt lat="63.47902" lon="19.29371">
        <ele>39.259932</ele>
        <time>2020-10-02T08:58:22.596Z</time>
      </trkpt>
      <trkpt lat="63.47891" lon="19.29354">
        <ele>39.130187</ele>
        <time>2020-10-02T08:58:24.576Z</time>
      </trkpt>
      <trkpt lat="63.4788" lon="19.29337">
        <ele>39.001331</ele>
        <time>2020-10-02T08:58:26.603Z</time>
      </trkpt>
      <trkpt lat="63.47869" lon="19.29321">
        <ele>38.873984</ele>
        <time>2020-10-02T08:58:28.586Z</time>
      </trkpt>
      <trkpt lat="63.47858" lon="19.29305">
        <ele>38.747758</ele>
        <time>2020-10-02T08:58:30.600Z</time>
      </trkpt>
      <trkpt lat="63.47847" lon="19.29288">
        <ele>38.621533</ele>
        <time>2020-10-02T08:58:32.571Z</time>
      </trkpt>
      <trkpt lat="63.47837" lon="19.29272">
        <ele>38.498095</ele>
        <time>2020-10-02T08:58:34.572Z</time>
      </trkpt>
      <trkpt lat="63.47826" lon="19.29255">
        <ele>38.372421</ele>
        <time>2020-10-02T08:58:36.602Z</time>
      </trkpt>
      <trkpt lat="63.47815" lon="19.29239">
        <ele>38.248264</ele>
        <time>2020-10-02T08:58:38.594Z</time>
      </trkpt>
      <trkpt lat="63.47805" lon="19.29224">
        <ele>38.127372</ele>
        <time>2020-10-02T08:58:40.639Z</time>
      </trkpt>
      <trkpt lat="63.47794" lon="19.29208">
        <ele>38.171599</ele>
        <time>2020-10-02T08:58:42.585Z</time>
      </trkpt>
      <trkpt lat="63.47784" lon="19.29192">
        <ele>38.266501</ele>
        <time>2020-10-02T08:58:44.582Z</time>
      </trkpt>
      <trkpt lat="63.47774" lon="19.29177">
        <ele>38.360689</ele>
        <time>2020-10-02T08:58:46.585Z</time>
      </trkpt>
      <trkpt lat="63.47764" lon="19.29163">
        <ele>38.455258</ele>
        <time>2020-10-02T08:58:48.597Z</time>
      </trkpt>
      <trkpt lat="63.47753" lon="19.29148">
        <ele>38.554324</ele>
        <time>2020-10-02T08:58:50.585Z</time>
      </trkpt>
      <trkpt lat="63.47742" lon="19.29133">
        <ele>38.652358</ele>
        <time>2020-10-02T08:58:52.591Z</time>
      </trkpt>
      <trkpt lat="63.47732" lon="19.29118">
        <ele>38.748989</ele>
        <time>2020-10-02T08:58:54.595Z</time>
      </trkpt>
      <trkpt lat="63.47721" lon="19.29103">
        <ele>38.846465</ele>
        <time>2020-10-02T08:58:56.595Z</time>
      </trkpt>
      <trkpt lat="63.47711" lon="19.29089">
        <ele>38.941589</ele>
        <time>2020-10-02T08:58:58.624Z</time>
      </trkpt>
      <trkpt lat="63.47701" lon="19.29074">
        <ele>39.03465</ele>
        <time>2020-10-02T08:59:00.639Z</time>
      </trkpt>
      <trkpt lat="63.47691" lon="19.29061">
        <ele>39.126616</ele>
        <time>2020-10-02T08:59:02.579Z</time>
      </trkpt>
      <trkpt lat="63.47681" lon="19.29047">
        <ele>39.215737</ele>
        <time>2020-10-02T08:59:04.609Z</time>
      </trkpt>
      <trkpt lat="63.47671" lon="19.29034">
        <ele>39.30413</ele>
        <time>2020-10-02T08:59:06.604Z</time>
      </trkpt>
      <trkpt lat="63.47662" lon="19.29021">
        <ele>39.392038</ele>
        <time>2020-10-02T08:59:08.567Z</time>
      </trkpt>
      <trkpt lat="63.47653" lon="19.29008">
        <ele>39.476859</ele>
        <time>2020-10-02T08:59:10.605Z</time>
      </trkpt>
      <trkpt lat="63.47644" lon="19.28997">
        <ele>39.654099</ele>
        <time>2020-10-02T08:59:12.577Z</time>
      </trkpt>
      <trkpt lat="63.47635" lon="19.28985">
        <ele>39.876513</ele>
        <time>2020-10-02T08:59:14.590Z</time>
      </trkpt>
      <trkpt lat="63.47626" lon="19.28973">
        <ele>40.098193</ele>
        <time>2020-10-02T08:59:16.593Z</time>
      </trkpt>
      <trkpt lat="63.47618" lon="19.28962">
        <ele>40.322589</ele>
        <time>2020-10-02T08:59:18.581Z</time>
      </trkpt>
      <trkpt lat="63.47609" lon="19.28949">
        <ele>40.547161</ele>
        <time>2020-10-02T08:59:20.593Z</time>
      </trkpt>
      <trkpt lat="63.476" lon="19.28937">
        <ele>40.766988</ele>
        <time>2020-10-02T08:59:22.582Z</time>
      </trkpt>
      <trkpt lat="63.47592" lon="19.28926">
        <ele>40.981873</ele>
        <time>2020-10-02T08:59:24.583Z</time>
      </trkpt>
      <trkpt lat="63.47584" lon="19.28915">
        <ele>41.184365</ele>
        <time>2020-10-02T08:59:26.645Z</time>
      </trkpt>
      <trkpt lat="63.47576" lon="19.28903">
        <ele>41.394479</ele>
        <time>2020-10-02T08:59:28.620Z</time>
      </trkpt>
      <trkpt lat="63.47568" lon="19.28892">
        <ele>41.602985</ele>
        <time>2020-10-02T08:59:30.599Z</time>
      </trkpt>
      <trkpt lat="63.4756" lon="19.2888">
        <ele>41.815493</ele>
        <time>2020-10-02T08:59:32.592Z</time>
      </trkpt>
      <trkpt lat="63.47552" lon="19.2887">
        <ele>42.020741</ele>
        <time>2020-10-02T08:59:34.603Z</time>
      </trkpt>
      <trkpt lat="63.47543" lon="19.28859">
        <ele>42.234121</ele>
        <time>2020-10-02T08:59:36.573Z</time>
      </trkpt>
      <trkpt lat="63.47535" lon="19.28847">
        <ele>42.452761</ele>
        <time>2020-10-02T08:59:38.600Z</time>
      </trkpt>
      <trkpt lat="63.47526" lon="19.28836">
        <ele>42.674278</ele>
        <time>2020-10-02T08:59:40.589Z</time>
      </trkpt>
      <trkpt lat="63.47517" lon="19.28824">
        <ele>42.894803</ele>
        <time>2020-10-02T08:59:42.590Z</time>
      </trkpt>
      <trkpt lat="63.47509" lon="19.28812">
        <ele>43.116486</ele>
        <time>2020-10-02T08:59:44.577Z</time>
      </trkpt>
      <trkpt lat="63.475" lon="19.288">
        <ele>43.342405</ele>
        <time>2020-10-02T08:59:46.601Z</time>
      </trkpt>
      <trkpt lat="63.47491" lon="19.28788">
        <ele>43.397755</ele>
        <time>2020-10-02T08:59:48.586Z</time>
      </trkpt>
      <trkpt lat="63.47482" lon="19.28775">
        <ele>43.331015</ele>
        <time>2020-10-02T08:59:50.581Z</time>
      </trkpt>
      <trkpt lat="63.47473" lon="19.28761">
        <ele>43.263909</ele>
        <time>2020-10-02T08:59:52.579Z</time>
      </trkpt>
      <trkpt lat="63.47464" lon="19.28748">
        <ele>43.194977</ele>
        <time>2020-10-02T08:59:54.578Z</time>
      </trkpt>
      <trkpt lat="63.47455" lon="19.28734">
        <ele>43.124472</ele>
        <time>2020-10-02T08:59:56.582Z</time>
      </trkpt>
      <trkpt lat="63.47445" lon="19.2872">
        <ele>43.053287</ele>
        <time>2020-10-02T08:59:58.604Z</time>
      </trkpt>
      <trkpt lat="63.47436" lon="19.28707">
        <ele>42.982026</ele>
        <time>2020-10-02T09:00:00.573Z</time>
      </trkpt>
      <trkpt lat="63.47426" lon="19.28693">
        <ele>42.910902</ele>
        <time>2020-10-02T09:00:02.602Z</time>
      </trkpt>
      <trkpt lat="63.47417" lon="19.28679">
        <ele>42.841655</ele>
        <time>2020-10-02T09:00:04.583Z</time>
      </trkpt>
      <trkpt lat="63.47408" lon="19.28665">
        <ele>42.773282</ele>
        <time>2020-10-02T09:00:06.571Z</time>
      </trkpt>
      <trkpt lat="63.47399" lon="19.2865">
        <ele>42.701068</ele>
        <time>2020-10-02T09:00:08.599Z</time>
      </trkpt>
      <trkpt lat="63.47389" lon="19.28634">
        <ele>42.625291</ele>
        <time>2020-10-02T09:00:10.582Z</time>
      </trkpt>
      <trkpt lat="63.4738" lon="19.28619">
        <ele>42.55089</ele>
        <time>2020-10-02T09:00:12.606Z</time>
      </trkpt>
      <trkpt lat="63.4737" lon="19.28603">
        <ele>42.475141</ele>
        <time>2020-10-02T09:00:14.576Z</time>
      </trkpt>
      <trkpt lat="63.4736" lon="19.28588">
        <ele>42.399203</ele>
        <time>2020-10-02T09:00:16.638Z</time>
      </trkpt>
      <trkpt lat="63.4735" lon="19.28572">
        <ele>42.323425</ele>
        <time>2020-10-02T09:00:18.583Z</time>
      </trkpt>
      <trkpt lat="63.4734" lon="19.28557">
        <ele>42.239061</ele>
        <time>2020-10-02T09:00:20.590Z</time>
      </trkpt>
      <trkpt lat="63.4733" lon="19.28541">
        <ele>42.151618</ele>
        <time>2020-10-02T09:00:22.593Z</time>
      </trkpt>
      <trkpt lat="63.47321" lon="19.28525">
        <ele>42.067838</ele>
        <time>2020-10-02T09:00:24.583Z</time>
      </trkpt>
      <trkpt lat="63.47312" lon="19.28509">
        <ele>41.982338</ele>
        <time>2020-10-02T09:00:26.577Z</time>
      </trkpt>
      <trkpt lat="63.47302" lon="19.28492">
        <ele>41.893144</ele>
        <time>2020-10-02T09:00:28.580Z</time>
      </trkpt>
      <trkpt lat="63.47293" lon="19.28475">
        <ele>41.806821</ele>
        <time>2020-10-02T09:00:30.589Z</time>
      </trkpt>
      <trkpt lat="63.47284" lon="19.28458">
        <ele>41.720035</ele>
        <time>2020-10-02T09:00:32.611Z</time>
      </trkpt>
      <trkpt lat="63.47274" lon="19.28441">
        <ele>41.633042</ele>
        <time>2020-10-02T09:00:34.625Z</time>
      </trkpt>
      <trkpt lat="63.47265" lon="19.28424">
        <ele>41.545492</ele>
        <time>2020-10-02T09:00:36.598Z</time>
      </trkpt>
      <trkpt lat="63.47256" lon="19.28406">
        <ele>41.459297</ele>
        <time>2020-10-02T09:00:38.611Z</time>
      </trkpt>
      <trkpt lat="63.47248" lon="19.28388">
        <ele>41.374713</ele>
        <time>2020-10-02T09:00:40.574Z</time>
      </trkpt>
      <trkpt lat="63.47239" lon="19.28371">
        <ele>41.289488</ele>
        <time>2020-10-02T09:00:42.590Z</time>
      </trkpt>
      <trkpt lat="63.4723" lon="19.28352">
        <ele>41.202385</ele>
        <time>2020-10-02T09:00:44.581Z</time>
      </trkpt>
      <trkpt lat="63.47221" lon="19.28334">
        <ele>41.115974</ele>
        <time>2020-10-02T09:00:46.585Z</time>
      </trkpt>
      <trkpt lat="63.47212" lon="19.28316">
        <ele>41.028478</ele>
        <time>2020-10-02T09:00:48.583Z</time>
      </trkpt>
      <trkpt lat="63.47203" lon="19.28298">
        <ele>41.031677</ele>
        <time>2020-10-02T09:00:50.603Z</time>
      </trkpt>
      <trkpt lat="63.47194" lon="19.2828">
        <ele>41.072751</ele>
        <time>2020-10-02T09:00:52.591Z</time>
      </trkpt>
      <trkpt lat="63.47186" lon="19.28261">
        <ele>41.113192</ele>
        <time>2020-10-02T09:00:54.602Z</time>
      </trkpt>
      <trkpt lat="63.47177" lon="19.28242">
        <ele>41.154645</ele>
        <time>2020-10-02T09:00:56.570Z</time>
      </trkpt>
      <trkpt lat="63.47168" lon="19.28223">
        <ele>41.195993</ele>
        <time>2020-10-02T09:00:58.589Z</time>
      </trkpt>
      <trkpt lat="63.4716" lon="19.28204">
        <ele>41.23675</ele>
        <time>2020-10-02T09:01:00.589Z</time>
      </trkpt>
      <trkpt lat="63.47151" lon="19.28185">
        <ele>41.277856</ele>
        <time>2020-10-02T09:01:02.597Z</time>
      </trkpt>
      <trkpt lat="63.47143" lon="19.28167">
        <ele>41.317254</ele>
        <time>2020-10-02T09:01:04.583Z</time>
      </trkpt>
      <trkpt lat="63.47134" lon="19.28148">
        <ele>41.356734</ele>
        <time>2020-10-02T09:01:06.587Z</time>
      </trkpt>
      <trkpt lat="63.47126" lon="19.2813">
        <ele>41.396086</ele>
        <time>2020-10-02T09:01:08.579Z</time>
      </trkpt>
      <trkpt lat="63.47118" lon="19.28111">
        <ele>41.435189</ele>
        <time>2020-10-02T09:01:10.577Z</time>
      </trkpt>
      <trkpt lat="63.47111" lon="19.28092">
        <ele>41.473841</ele>
        <time>2020-10-02T09:01:12.605Z</time>
      </trkpt>
      <trkpt lat="63.47103" lon="19.28073">
        <ele>41.513397</ele>
        <time>2020-10-02T09:01:14.586Z</time>
      </trkpt>
      <trkpt lat="63.47094" lon="19.28053">
        <ele>41.553735</ele>
        <time>2020-10-02T09:01:16.573Z</time>
      </trkpt>
      <trkpt lat="63.47087" lon="19.28034">
        <ele>41.593167</ele>
        <time>2020-10-02T09:01:18.588Z</time>
      </trkpt>
      <trkpt lat="63.47079" lon="19.28015">
        <ele>41.637363</ele>
        <time>2020-10-02T09:01:20.606Z</time>
      </trkpt>
      <trkpt lat="63.47072" lon="19.27995">
        <ele>41.685686</ele>
        <time>2020-10-02T09:01:22.585Z</time>
      </trkpt>
      <trkpt lat="63.47064" lon="19.27976">
        <ele>41.736396</ele>
        <time>2020-10-02T09:01:24.614Z</time>
      </trkpt>
      <trkpt lat="63.47056" lon="19.27956">
        <ele>41.786539</ele>
        <time>2020-10-02T09:01:26.583Z</time>
      </trkpt>
      <trkpt lat="63.47048" lon="19.27937">
        <ele>41.83583</ele>
        <time>2020-10-02T09:01:28.615Z</time>
      </trkpt>
      <trkpt lat="63.47041" lon="19.27918">
        <ele>41.884832</ele>
        <time>2020-10-02T09:01:30.583Z</time>
      </trkpt>
      <trkpt lat="63.47033" lon="19.27899">
        <ele>41.933406</ele>
        <time>2020-10-02T09:01:32.591Z</time>
      </trkpt>
      <trkpt lat="63.47026" lon="19.2788">
        <ele>41.981276</ele>
        <time>2020-10-02T09:01:34.571Z</time>
      </trkpt>
      <trkpt lat="63.47018" lon="19.27862">
        <ele>42.027428</ele>
        <time>2020-10-02T09:01:36.637Z</time>
      </trkpt>
      <trkpt lat="63.47012" lon="19.27845">
        <ele>42.072014</ele>
        <time>2020-10-02T09:01:38.590Z</time>
      </trkpt>
      <trkpt lat="63.47004" lon="19.27827">
        <ele>42.11703</ele>
        <time>2020-10-02T09:01:40.580Z</time>
      </trkpt>
      <trkpt lat="63.46998" lon="19.2781">
        <ele>42.160778</ele>
        <time>2020-10-02T09:01:42.582Z</time>
      </trkpt>
      <trkpt lat="63.46991" lon="19.27793">
        <ele>42.204954</ele>
        <time>2020-10-02T09:01:44.589Z</time>
      </trkpt>
      <trkpt lat="63.46984" lon="19.27777">
        <ele>42.247988</ele>
        <time>2020-10-02T09:01:46.573Z</time>
      </trkpt>
      <trkpt lat="63.46977" lon="19.2776">
        <ele>42.289869</ele>
        <time>2020-10-02T09:01:48.621Z</time>
      </trkpt>
      <trkpt lat="63.46971" lon="19.27744">
        <ele>42.330763</ele>
        <time>2020-10-02T09:01:50.587Z</time>
      </trkpt>
      <trkpt lat="63.46965" lon="19.27728">
        <ele>42.371078</ele>
        <time>2020-10-02T09:01:52.570Z</time>
      </trkpt>
      <trkpt lat="63.46959" lon="19.27712">
        <ele>42.504493</ele>
        <time>2020-10-02T09:01:54.587Z</time>
      </trkpt>
      <trkpt lat="63.46952" lon="19.27695">
        <ele>42.669991</ele>
        <time>2020-10-02T09:01:56.576Z</time>
      </trkpt>
      <trkpt lat="63.46946" lon="19.27679">
        <ele>42.83258</ele>
        <time>2020-10-02T09:01:58.595Z</time>
      </trkpt>
      <trkpt lat="63.4694" lon="19.27663">
        <ele>42.994016</ele>
        <time>2020-10-02T09:02:00.590Z</time>
      </trkpt>
      <trkpt lat="63.46934" lon="19.27647">
        <ele>43.154305</ele>
        <time>2020-10-02T09:02:02.603Z</time>
      </trkpt>
      <trkpt lat="63.46927" lon="19.27631">
        <ele>43.315726</ele>
        <time>2020-10-02T09:02:04.590Z</time>
      </trkpt>
      <trkpt lat="63.46921" lon="19.27615">
        <ele>43.484001</ele>
        <time>2020-10-02T09:02:06.605Z</time>
      </trkpt>
      <trkpt lat="63.46914" lon="19.276">
        <ele>43.645422</ele>
        <time>2020-10-02T09:02:08.621Z</time>
      </trkpt>
      <trkpt lat="63.46908" lon="19.27584">
        <ele>43.805138</ele>
        <time>2020-10-02T09:02:10.621Z</time>
      </trkpt>
      <trkpt lat="63.46902" lon="19.27568">
        <ele>43.963718</ele>
        <time>2020-10-02T09:02:12.582Z</time>
      </trkpt>
      <trkpt lat="63.46895" lon="19.27553">
        <ele>44.122872</ele>
        <time>2020-10-02T09:02:14.578Z</time>
      </trkpt>
      <trkpt lat="63.46889" lon="19.27538">
        <ele>44.277684</ele>
        <time>2020-10-02T09:02:16.571Z</time>
      </trkpt>
      <trkpt lat="63.46883" lon="19.27524">
        <ele>44.430675</ele>
        <time>2020-10-02T09:02:18.574Z</time>
      </trkpt>
      <trkpt lat="63.46874" lon="19.27502">
        <ele>44.65552</ele>
        <time>2020-10-02T09:02:21.628Z</time>
      </trkpt>
      <trkpt lat="63.46865" lon="19.2748">
        <ele>44.881727</ele>
        <time>2020-10-02T09:02:24.591Z</time>
      </trkpt>
      <trkpt lat="63.46856" lon="19.27459">
        <ele>45.102633</ele>
        <time>2020-10-02T09:02:27.568Z</time>
      </trkpt>
      <trkpt lat="63.46847" lon="19.27438">
        <ele>45.320288</ele>
        <time>2020-10-02T09:02:30.603Z</time>
      </trkpt>
      <trkpt lat="63.46838" lon="19.2742">
        <ele>45.672132</ele>
        <time>2020-10-02T09:02:33.586Z</time>
      </trkpt>
      <trkpt lat="63.46829" lon="19.27401">
        <ele>46.204742</ele>
        <time>2020-10-02T09:02:36.607Z</time>
      </trkpt>
      <trkpt lat="63.4682" lon="19.27382">
        <ele>46.714459</ele>
        <time>2020-10-02T09:02:39.592Z</time>
      </trkpt>
      <trkpt lat="63.46812" lon="19.27364">
        <ele>47.207489</ele>
        <time>2020-10-02T09:02:42.577Z</time>
      </trkpt>
      <trkpt lat="63.46803" lon="19.27345">
        <ele>47.717673</ele>
        <time>2020-10-02T09:02:45.621Z</time>
      </trkpt>
      <trkpt lat="63.46795" lon="19.27327">
        <ele>48.212843</ele>
        <time>2020-10-02T09:02:48.579Z</time>
      </trkpt>
      <trkpt lat="63.46787" lon="19.2731">
        <ele>48.696568</ele>
        <time>2020-10-02T09:02:51.579Z</time>
      </trkpt>
      <trkpt lat="63.46778" lon="19.27292">
        <ele>49.190938</ele>
        <time>2020-10-02T09:02:54.577Z</time>
      </trkpt>
      <trkpt lat="63.4677" lon="19.27274">
        <ele>49.685316</ele>
        <time>2020-10-02T09:02:57.589Z</time>
      </trkpt>
      <trkpt lat="63.46762" lon="19.27257">
        <ele>50.175819</ele>
        <time>2020-10-02T09:03:00.600Z</time>
      </trkpt>
      <trkpt lat="63.46753" lon="19.27238">
        <ele>50.665832</ele>
        <time>2020-10-02T09:03:03.601Z</time>
      </trkpt>
      <trkpt lat="63.46745" lon="19.27221">
        <ele>51.153185</ele>
        <time>2020-10-02T09:03:06.604Z</time>
      </trkpt>
      <trkpt lat="63.46737" lon="19.27203">
        <ele>51.656719</ele>
        <time>2020-10-02T09:03:09.573Z</time>
      </trkpt>
      <trkpt lat="63.46728" lon="19.27185">
        <ele>52.162028</ele>
        <time>2020-10-02T09:03:12.596Z</time>
      </trkpt>
      <trkpt lat="63.46719" lon="19.27167">
        <ele>52.667812</ele>
        <time>2020-10-02T09:03:15.593Z</time>
      </trkpt>
      <trkpt lat="63.4671" lon="19.27149">
        <ele>53.122193</ele>
        <time>2020-10-02T09:03:18.579Z</time>
      </trkpt>
      <trkpt lat="63.46701" lon="19.2713">
        <ele>53.158618</ele>
        <time>2020-10-02T09:03:21.597Z</time>
      </trkpt>
      <trkpt lat="63.46691" lon="19.27111">
        <ele>53.194866</ele>
        <time>2020-10-02T09:03:24.594Z</time>
      </trkpt>
      <trkpt lat="63.46681" lon="19.27092">
        <ele>53.232829</ele>
        <time>2020-10-02T09:03:27.606Z</time>
      </trkpt>
      <trkpt lat="63.46671" lon="19.27073">
        <ele>53.270324</ele>
        <time>2020-10-02T09:03:30.598Z</time>
      </trkpt>
      <trkpt lat="63.46661" lon="19.27055">
        <ele>53.306978</ele>
        <time>2020-10-02T09:03:33.623Z</time>
      </trkpt>
      <trkpt lat="63.46651" lon="19.27036">
        <ele>53.345712</ele>
        <time>2020-10-02T09:03:36.616Z</time>
      </trkpt>
      <trkpt lat="63.46643" lon="19.27022">
        <ele>53.374475</ele>
        <time>2020-10-02T09:03:38.599Z</time>
      </trkpt>
      <trkpt lat="63.46636" lon="19.27008">
        <ele>53.402605</ele>
        <time>2020-10-02T09:03:40.598Z</time>
      </trkpt>
      <trkpt lat="63.46628" lon="19.26993">
        <ele>53.430567</ele>
        <time>2020-10-02T09:03:42.609Z</time>
      </trkpt>
      <trkpt lat="63.46621" lon="19.26978">
        <ele>53.459083</ele>
        <time>2020-10-02T09:03:44.581Z</time>
      </trkpt>
      <trkpt lat="63.46613" lon="19.26963">
        <ele>53.488501</ele>
        <time>2020-10-02T09:03:46.600Z</time>
      </trkpt>
      <trkpt lat="63.46606" lon="19.26948">
        <ele>53.517954</ele>
        <time>2020-10-02T09:03:48.598Z</time>
      </trkpt>
      <trkpt lat="63.46597" lon="19.26933">
        <ele>53.548113</ele>
        <time>2020-10-02T09:03:50.590Z</time>
      </trkpt>
      <trkpt lat="63.46589" lon="19.26919">
        <ele>53.578773</ele>
        <time>2020-10-02T09:03:52.588Z</time>
      </trkpt>
      <trkpt lat="63.4658" lon="19.26903">
        <ele>53.610388</ele>
        <time>2020-10-02T09:03:54.581Z</time>
      </trkpt>
      <trkpt lat="63.46571" lon="19.26888">
        <ele>53.452475</ele>
        <time>2020-10-02T09:03:56.586Z</time>
      </trkpt>
      <trkpt lat="63.46562" lon="19.26872">
        <ele>52.830499</ele>
        <time>2020-10-02T09:03:58.575Z</time>
      </trkpt>
      <trkpt lat="63.46552" lon="19.26856">
        <ele>52.181294</ele>
        <time>2020-10-02T09:04:00.596Z</time>
      </trkpt>
      <trkpt lat="63.46542" lon="19.2684">
        <ele>51.527781</ele>
        <time>2020-10-02T09:04:02.612Z</time>
      </trkpt>
      <trkpt lat="63.46532" lon="19.26823">
        <ele>50.848464</ele>
        <time>2020-10-02T09:04:04.579Z</time>
      </trkpt>
      <trkpt lat="63.46523" lon="19.26806">
        <ele>50.215706</ele>
        <time>2020-10-02T09:04:06.574Z</time>
      </trkpt>
      <trkpt lat="63.46513" lon="19.26787">
        <ele>49.541809</ele>
        <time>2020-10-02T09:04:08.580Z</time>
      </trkpt>
      <trkpt lat="63.46503" lon="19.26769">
        <ele>48.808023</ele>
        <time>2020-10-02T09:04:10.587Z</time>
      </trkpt>
      <trkpt lat="63.46492" lon="19.2675">
        <ele>48.059758</ele>
        <time>2020-10-02T09:04:12.582Z</time>
      </trkpt>
      <trkpt lat="63.46481" lon="19.26731">
        <ele>47.315891</ele>
        <time>2020-10-02T09:04:14.595Z</time>
      </trkpt>
      <trkpt lat="63.46469" lon="19.2671">
        <ele>46.50612</ele>
        <time>2020-10-02T09:04:16.616Z</time>
      </trkpt>
      <trkpt lat="63.46458" lon="19.2669">
        <ele>45.755734</ele>
        <time>2020-10-02T09:04:18.585Z</time>
      </trkpt>
      <trkpt lat="63.46446" lon="19.2667">
        <ele>44.960168</ele>
        <time>2020-10-02T09:04:20.576Z</time>
      </trkpt>
      <trkpt lat="63.46434" lon="19.2665">
        <ele>44.150393</ele>
        <time>2020-10-02T09:04:22.605Z</time>
      </trkpt>
      <trkpt lat="63.46422" lon="19.26627">
        <ele>43.506095</ele>
        <time>2020-10-02T09:04:24.574Z</time>
      </trkpt>
      <trkpt lat="63.46409" lon="19.26604">
        <ele>42.875861</ele>
        <time>2020-10-02T09:04:26.583Z</time>
      </trkpt>
      <trkpt lat="63.46396" lon="19.26582">
        <ele>42.241697</ele>
        <time>2020-10-02T09:04:28.577Z</time>
      </trkpt>
      <trkpt lat="63.46382" lon="19.26559">
        <ele>41.578791</ele>
        <time>2020-10-02T09:04:30.622Z</time>
      </trkpt>
      <trkpt lat="63.46371" lon="19.26533">
        <ele>40.954644</ele>
        <time>2020-10-02T09:04:32.588Z</time>
      </trkpt>
      <trkpt lat="63.46369" lon="19.26499">
        <ele>40.370131</ele>
        <time>2020-10-02T09:04:34.588Z</time>
      </trkpt>
      <trkpt lat="63.46376" lon="19.26468">
        <ele>39.762634</ele>
        <time>2020-10-02T09:04:36.610Z</time>
      </trkpt>
      <trkpt lat="63.46388" lon="19.26444">
        <ele>39.155698</ele>
        <time>2020-10-02T09:04:38.598Z</time>
      </trkpt>
      <trkpt lat="63.46398" lon="19.26422">
        <ele>38.606755</ele>
        <time>2020-10-02T09:04:40.597Z</time>
      </trkpt>
      <trkpt lat="63.46407" lon="19.26401">
        <ele>38.108737</ele>
        <time>2020-10-02T09:04:42.574Z</time>
      </trkpt>
      <trkpt lat="63.46414" lon="19.26379">
        <ele>37.655883</ele>
        <time>2020-10-02T09:04:44.571Z</time>
      </trkpt>
      <trkpt lat="63.4642" lon="19.26358">
        <ele>37.205464</ele>
        <time>2020-10-02T09:04:46.597Z</time>
      </trkpt>
      <trkpt lat="63.46427" lon="19.26337">
        <ele>37.15357</ele>
        <time>2020-10-02T09:04:48.572Z</time>
      </trkpt>
      <trkpt lat="63.46433" lon="19.26317">
        <ele>37.30038</ele>
        <time>2020-10-02T09:04:50.584Z</time>
      </trkpt>
      <trkpt lat="63.4644" lon="19.26299">
        <ele>37.443534</ele>
        <time>2020-10-02T09:04:52.606Z</time>
      </trkpt>
      <trkpt lat="63.46446" lon="19.2628">
        <ele>37.582583</ele>
        <time>2020-10-02T09:04:54.608Z</time>
      </trkpt>
      <trkpt lat="63.46453" lon="19.26262">
        <ele>37.72235</ele>
        <time>2020-10-02T09:04:56.574Z</time>
      </trkpt>
      <trkpt lat="63.46459" lon="19.26243">
        <ele>37.86435</ele>
        <time>2020-10-02T09:04:58.599Z</time>
      </trkpt>
      <trkpt lat="63.46465" lon="19.26223">
        <ele>38.002661</ele>
        <time>2020-10-02T09:05:00.602Z</time>
      </trkpt>
      <trkpt lat="63.4647" lon="19.26206">
        <ele>38.127091</ele>
        <time>2020-10-02T09:05:02.586Z</time>
      </trkpt>
      <trkpt lat="63.46477" lon="19.26182">
        <ele>38.296987</ele>
        <time>2020-10-02T09:05:05.611Z</time>
      </trkpt>
      <trkpt lat="63.46482" lon="19.26165">
        <ele>38.420695</ele>
        <time>2020-10-02T09:05:07.571Z</time>
      </trkpt>
      <trkpt lat="63.4649" lon="19.26142">
        <ele>38.593965</ele>
        <time>2020-10-02T09:05:10.566Z</time>
      </trkpt>
      <trkpt lat="63.46496" lon="19.26125">
        <ele>38.720084</ele>
        <time>2020-10-02T09:05:12.592Z</time>
      </trkpt>
      <trkpt lat="63.46502" lon="19.2611">
        <ele>38.842056</ele>
        <time>2020-10-02T09:05:14.582Z</time>
      </trkpt>
      <trkpt lat="63.46507" lon="19.26092">
        <ele>38.970998</ele>
        <time>2020-10-02T09:05:16.595Z</time>
      </trkpt>
      <trkpt lat="63.46513" lon="19.26076">
        <ele>39.092418</ele>
        <time>2020-10-02T09:05:18.589Z</time>
      </trkpt>
      <trkpt lat="63.46518" lon="19.2606">
        <ele>39.213035</ele>
        <time>2020-10-02T09:05:20.598Z</time>
      </trkpt>
      <trkpt lat="63.46524" lon="19.26044">
        <ele>39.335068</ele>
        <time>2020-10-02T09:05:22.570Z</time>
      </trkpt>
      <trkpt lat="63.46529" lon="19.26027">
        <ele>39.458396</ele>
        <time>2020-10-02T09:05:24.579Z</time>
      </trkpt>
      <trkpt lat="63.46535" lon="19.26011">
        <ele>39.727296</ele>
        <time>2020-10-02T09:05:26.618Z</time>
      </trkpt>
      <trkpt lat="63.46543" lon="19.25987">
        <ele>40.112561</ele>
        <time>2020-10-02T09:05:29.586Z</time>
      </trkpt>
      <trkpt lat="63.46551" lon="19.25964">
        <ele>40.488801</ele>
        <time>2020-10-02T09:05:32.600Z</time>
      </trkpt>
      <trkpt lat="63.46559" lon="19.25942">
        <ele>40.867137</ele>
        <time>2020-10-02T09:05:35.600Z</time>
      </trkpt>
      <trkpt lat="63.46566" lon="19.25919">
        <ele>41.240533</ele>
        <time>2020-10-02T09:05:38.604Z</time>
      </trkpt>
      <trkpt lat="63.46574" lon="19.25897">
        <ele>41.592288</ele>
        <time>2020-10-02T09:05:41.578Z</time>
      </trkpt>
      <trkpt lat="63.46582" lon="19.25875">
        <ele>41.960235</ele>
        <time>2020-10-02T09:05:44.595Z</time>
      </trkpt>
      <trkpt lat="63.4659" lon="19.25856">
        <ele>42.310973</ele>
        <time>2020-10-02T09:05:47.574Z</time>
      </trkpt>
      <trkpt lat="63.46598" lon="19.25836">
        <ele>42.666897</ele>
        <time>2020-10-02T09:05:50.607Z</time>
      </trkpt>
      <trkpt lat="63.46607" lon="19.25816">
        <ele>43.033628</ele>
        <time>2020-10-02T09:05:53.568Z</time>
      </trkpt>
      <trkpt lat="63.46616" lon="19.25797">
        <ele>43.392378</ele>
        <time>2020-10-02T09:05:56.568Z</time>
      </trkpt>
      <trkpt lat="63.46625" lon="19.25779">
        <ele>43.749699</ele>
        <time>2020-10-02T09:05:59.583Z</time>
      </trkpt>
      <trkpt lat="63.46634" lon="19.25759">
        <ele>44.120811</ele>
        <time>2020-10-02T09:06:02.601Z</time>
      </trkpt>
      <trkpt lat="63.46644" lon="19.2574">
        <ele>44.499617</ele>
        <time>2020-10-02T09:06:05.580Z</time>
      </trkpt>
      <trkpt lat="63.46653" lon="19.25724">
        <ele>45.080329</ele>
        <time>2020-10-02T09:06:08.571Z</time>
      </trkpt>
      <trkpt lat="63.46663" lon="19.25709">
        <ele>46.05746</ele>
        <time>2020-10-02T09:06:11.602Z</time>
      </trkpt>
      <trkpt lat="63.46671" lon="19.25693">
        <ele>47.005931</ele>
        <time>2020-10-02T09:06:14.619Z</time>
      </trkpt>
      <trkpt lat="63.46679" lon="19.25679">
        <ele>47.877248</ele>
        <time>2020-10-02T09:06:17.589Z</time>
      </trkpt>
      <trkpt lat="63.46688" lon="19.25666">
        <ele>48.714627</ele>
        <time>2020-10-02T09:06:20.583Z</time>
      </trkpt>
      <trkpt lat="63.46696" lon="19.25654">
        <ele>49.58067</ele>
        <time>2020-10-02T09:06:23.602Z</time>
      </trkpt>
      <trkpt lat="63.46705" lon="19.2564">
        <ele>50.465477</ele>
        <time>2020-10-02T09:06:26.591Z</time>
      </trkpt>
      <trkpt lat="63.46714" lon="19.25627">
        <ele>51.379936</ele>
        <time>2020-10-02T09:06:29.572Z</time>
      </trkpt>
      <trkpt lat="63.46724" lon="19.25615">
        <ele>52.2988</ele>
        <time>2020-10-02T09:06:32.589Z</time>
      </trkpt>
      <trkpt lat="63.46732" lon="19.25604">
        <ele>53.121993</ele>
        <time>2020-10-02T09:06:35.577Z</time>
      </trkpt>
      <trkpt lat="63.4674" lon="19.25593">
        <ele>53.932592</ele>
        <time>2020-10-02T09:06:38.598Z</time>
      </trkpt>
      <trkpt lat="63.46749" lon="19.25581">
        <ele>54.794492</ele>
        <time>2020-10-02T09:06:41.582Z</time>
      </trkpt>
      <trkpt lat="63.46758" lon="19.25571">
        <ele>55.625819</ele>
        <time>2020-10-02T09:06:44.599Z</time>
      </trkpt>
      <trkpt lat="63.46767" lon="19.2556">
        <ele>56.511692</ele>
        <time>2020-10-02T09:06:47.579Z</time>
      </trkpt>
      <trkpt lat="63.46776" lon="19.25548">
        <ele>57.375453</ele>
        <time>2020-10-02T09:06:50.606Z</time>
      </trkpt>
      <trkpt lat="63.46785" lon="19.25536">
        <ele>58.249366</ele>
        <time>2020-10-02T09:06:53.585Z</time>
      </trkpt>
      <trkpt lat="63.46793" lon="19.25524">
        <ele>59.100452</ele>
        <time>2020-10-02T09:06:56.586Z</time>
      </trkpt>
      <trkpt lat="63.46802" lon="19.25513">
        <ele>59.915697</ele>
        <time>2020-10-02T09:06:59.590Z</time>
      </trkpt>
      <trkpt lat="63.46811" lon="19.25504">
        <ele>60.275068</ele>
        <time>2020-10-02T09:07:02.583Z</time>
      </trkpt>
      <trkpt lat="63.46821" lon="19.25492">
        <ele>60.712611</ele>
        <time>2020-10-02T09:07:06.578Z</time>
      </trkpt>
      <trkpt lat="63.4683" lon="19.25478">
        <ele>61.140187</ele>
        <time>2020-10-02T09:07:10.571Z</time>
      </trkpt>
      <trkpt lat="63.46839" lon="19.25465">
        <ele>61.555972</ele>
        <time>2020-10-02T09:07:14.586Z</time>
      </trkpt>
      <trkpt lat="63.46848" lon="19.25455">
        <ele>61.94465</ele>
        <time>2020-10-02T09:07:18.567Z</time>
      </trkpt>
      <trkpt lat="63.46857" lon="19.25444">
        <ele>62.351023</ele>
        <time>2020-10-02T09:07:22.577Z</time>
      </trkpt>
      <trkpt lat="63.46865" lon="19.25432">
        <ele>62.729513</ele>
        <time>2020-10-02T09:07:26.571Z</time>
      </trkpt>
      <trkpt lat="63.46873" lon="19.25422">
        <ele>63.076988</ele>
        <time>2020-10-02T09:07:30.589Z</time>
      </trkpt>
      <trkpt lat="63.46882" lon="19.25414">
        <ele>63.438802</ele>
        <time>2020-10-02T09:07:34.589Z</time>
      </trkpt>
      <trkpt lat="63.46891" lon="19.25402">
        <ele>63.840891</ele>
        <time>2020-10-02T09:07:38.586Z</time>
      </trkpt>
      <trkpt lat="63.469" lon="19.25392">
        <ele>64.230624</ele>
        <time>2020-10-02T09:07:42.589Z</time>
      </trkpt>
      <trkpt lat="63.46908" lon="19.25382">
        <ele>64.594219</ele>
        <time>2020-10-02T09:07:46.578Z</time>
      </trkpt>
      <trkpt lat="63.46916" lon="19.25372">
        <ele>64.952501</ele>
        <time>2020-10-02T09:07:50.598Z</time>
      </trkpt>
      <trkpt lat="63.46925" lon="19.25362">
        <ele>65.331928</ele>
        <time>2020-10-02T09:07:54.589Z</time>
      </trkpt>
      <trkpt lat="63.46934" lon="19.2535">
        <ele>65.743329</ele>
        <time>2020-10-02T09:07:58.579Z</time>
      </trkpt>
      <trkpt lat="63.46944" lon="19.25338">
        <ele>66.179104</ele>
        <time>2020-10-02T09:08:02.581Z</time>
      </trkpt>
      <trkpt lat="63.46955" lon="19.25325">
        <ele>66.637632</ele>
        <time>2020-10-02T09:08:06.599Z</time>
      </trkpt>
      <trkpt lat="63.46963" lon="19.25314">
        <ele>66.729926</ele>
        <time>2020-10-02T09:08:09.584Z</time>
      </trkpt>
      <trkpt lat="63.46972" lon="19.25304">
        <ele>66.554044</ele>
        <time>2020-10-02T09:08:12.572Z</time>
      </trkpt>
      <trkpt lat="63.46981" lon="19.25293">
        <ele>66.383482</ele>
        <time>2020-10-02T09:08:15.584Z</time>
      </trkpt>
      <trkpt lat="63.4699" lon="19.25281">
        <ele>66.203986</ele>
        <time>2020-10-02T09:08:18.594Z</time>
      </trkpt>
      <trkpt lat="63.47" lon="19.25269">
        <ele>66.01224</ele>
        <time>2020-10-02T09:08:21.575Z</time>
      </trkpt>
      <trkpt lat="63.47009" lon="19.25257">
        <ele>65.833825</ele>
        <time>2020-10-02T09:08:24.596Z</time>
      </trkpt>
      <trkpt lat="63.47018" lon="19.25245">
        <ele>65.658166</ele>
        <time>2020-10-02T09:08:27.584Z</time>
      </trkpt>
      <trkpt lat="63.47028" lon="19.25232">
        <ele>65.466391</ele>
        <time>2020-10-02T09:08:30.581Z</time>
      </trkpt>
      <trkpt lat="63.47038" lon="19.25218">
        <ele>65.264861</ele>
        <time>2020-10-02T09:08:33.601Z</time>
      </trkpt>
      <trkpt lat="63.47048" lon="19.25204">
        <ele>65.060416</ele>
        <time>2020-10-02T09:08:36.606Z</time>
      </trkpt>
      <trkpt lat="63.47059" lon="19.25191">
        <ele>64.850096</ele>
        <time>2020-10-02T09:08:39.628Z</time>
      </trkpt>
      <trkpt lat="63.47069" lon="19.25176">
        <ele>64.64327</ele>
        <time>2020-10-02T09:08:42.573Z</time>
      </trkpt>
      <trkpt lat="63.4708" lon="19.25163">
        <ele>64.435562</ele>
        <time>2020-10-02T09:08:45.578Z</time>
      </trkpt>
      <trkpt lat="63.4709" lon="19.25148">
        <ele>64.226889</ele>
        <time>2020-10-02T09:08:48.626Z</time>
      </trkpt>
      <trkpt lat="63.47101" lon="19.25134">
        <ele>64.009149</ele>
        <time>2020-10-02T09:08:51.578Z</time>
      </trkpt>
      <trkpt lat="63.47113" lon="19.25122">
        <ele>63.794268</ele>
        <time>2020-10-02T09:08:54.603Z</time>
      </trkpt>
      <trkpt lat="63.47124" lon="19.25109">
        <ele>63.787894</ele>
        <time>2020-10-02T09:08:57.585Z</time>
      </trkpt>
      <trkpt lat="63.47135" lon="19.25097">
        <ele>63.8256</ele>
        <time>2020-10-02T09:09:00.571Z</time>
      </trkpt>
      <trkpt lat="63.47145" lon="19.25085">
        <ele>63.861377</ele>
        <time>2020-10-02T09:09:03.585Z</time>
      </trkpt>
      <trkpt lat="63.47156" lon="19.25073">
        <ele>63.89691</ele>
        <time>2020-10-02T09:09:06.579Z</time>
      </trkpt>
      <trkpt lat="63.47165" lon="19.25062">
        <ele>63.930516</ele>
        <time>2020-10-02T09:09:09.587Z</time>
      </trkpt>
      <trkpt lat="63.47175" lon="19.2505">
        <ele>63.963386</ele>
        <time>2020-10-02T09:09:12.588Z</time>
      </trkpt>
      <trkpt lat="63.47184" lon="19.25036">
        <ele>63.997878</ele>
        <time>2020-10-02T09:09:15.610Z</time>
      </trkpt>
      <trkpt lat="63.47193" lon="19.25024">
        <ele>64.030163</ele>
        <time>2020-10-02T09:09:18.597Z</time>
      </trkpt>
      <trkpt lat="63.47203" lon="19.25013">
        <ele>64.063255</ele>
        <time>2020-10-02T09:09:21.585Z</time>
      </trkpt>
      <trkpt lat="63.47212" lon="19.25001">
        <ele>64.096665</ele>
        <time>2020-10-02T09:09:24.572Z</time>
      </trkpt>
      <trkpt lat="63.47221" lon="19.2499">
        <ele>64.128865</ele>
        <time>2020-10-02T09:09:27.600Z</time>
      </trkpt>
      <trkpt lat="63.47231" lon="19.24978">
        <ele>64.162339</ele>
        <time>2020-10-02T09:09:30.608Z</time>
      </trkpt>
      <trkpt lat="63.47241" lon="19.24966">
        <ele>64.197026</ele>
        <time>2020-10-02T09:09:33.619Z</time>
      </trkpt>
      <trkpt lat="63.47251" lon="19.24953">
        <ele>64.23358</ele>
        <time>2020-10-02T09:09:36.609Z</time>
      </trkpt>
      <trkpt lat="63.47262" lon="19.24941">
        <ele>64.268874</ele>
        <time>2020-10-02T09:09:39.601Z</time>
      </trkpt>
      <trkpt lat="63.47272" lon="19.24929">
        <ele>64.304902</ele>
        <time>2020-10-02T09:09:42.588Z</time>
      </trkpt>
      <trkpt lat="63.47282" lon="19.24917">
        <ele>64.555067</ele>
        <time>2020-10-02T09:09:45.581Z</time>
      </trkpt>
      <trkpt lat="63.47293" lon="19.24904">
        <ele>64.83732</ele>
        <time>2020-10-02T09:09:48.583Z</time>
      </trkpt>
      <trkpt lat="63.47302" lon="19.2489">
        <ele>65.104668</ele>
        <time>2020-10-02T09:09:51.614Z</time>
      </trkpt>
      <trkpt lat="63.47312" lon="19.24876">
        <ele>65.37597</ele>
        <time>2020-10-02T09:09:54.592Z</time>
      </trkpt>
      <trkpt lat="63.47322" lon="19.24865">
        <ele>65.639474</ele>
        <time>2020-10-02T09:09:57.577Z</time>
      </trkpt>
      <trkpt lat="63.47332" lon="19.24852">
        <ele>65.90749</ele>
        <time>2020-10-02T09:10:00.587Z</time>
      </trkpt>
      <trkpt lat="63.47342" lon="19.24841">
        <ele>66.163351</ele>
        <time>2020-10-02T09:10:03.592Z</time>
      </trkpt>
      <trkpt lat="63.47352" lon="19.24828">
        <ele>66.426786</ele>
        <time>2020-10-02T09:10:06.610Z</time>
      </trkpt>
      <trkpt lat="63.47363" lon="19.24815">
        <ele>66.712581</ele>
        <time>2020-10-02T09:10:09.591Z</time>
      </trkpt>
      <trkpt lat="63.47374" lon="19.24801">
        <ele>67.012106</ele>
        <time>2020-10-02T09:10:12.598Z</time>
      </trkpt>
      <trkpt lat="63.47384" lon="19.24789">
        <ele>67.279132</ele>
        <time>2020-10-02T09:10:15.599Z</time>
      </trkpt>
      <trkpt lat="63.47393" lon="19.24772">
        <ele>67.544702</ele>
        <time>2020-10-02T09:10:18.590Z</time>
      </trkpt>
      <trkpt lat="63.47404" lon="19.24758">
        <ele>67.843324</ele>
        <time>2020-10-02T09:10:21.578Z</time>
      </trkpt>
      <trkpt lat="63.47414" lon="19.24742">
        <ele>68.13424</ele>
        <time>2020-10-02T09:10:24.574Z</time>
      </trkpt>
      <trkpt lat="63.47425" lon="19.24727">
        <ele>68.438887</ele>
        <time>2020-10-02T09:10:27.580Z</time>
      </trkpt>
      <trkpt lat="63.47433" lon="19.24718">
        <ele>68.282263</ele>
        <time>2020-10-02T09:10:29.593Z</time>
      </trkpt>
      <trkpt lat="63.47442" lon="19.24708">
        <ele>67.964789</ele>
        <time>2020-10-02T09:10:31.577Z</time>
      </trkpt>
      <trkpt lat="63.4745" lon="19.24697">
        <ele>67.637063</ele>
        <time>2020-10-02T09:10:33.657Z</time>
      </trkpt>
      <trkpt lat="63.47458" lon="19.24685">
        <ele>67.306775</ele>
        <time>2020-10-02T09:10:35.578Z</time>
      </trkpt>
      <trkpt lat="63.47467" lon="19.24672">
        <ele>66.947247</ele>
        <time>2020-10-02T09:10:37.589Z</time>
      </trkpt>
      <trkpt lat="63.47475" lon="19.24657">
        <ele>66.590134</ele>
        <time>2020-10-02T09:10:39.587Z</time>
      </trkpt>
      <trkpt lat="63.47483" lon="19.24642">
        <ele>66.238066</ele>
        <time>2020-10-02T09:10:41.571Z</time>
      </trkpt>
      <trkpt lat="63.47492" lon="19.24629">
        <ele>65.885479</ele>
        <time>2020-10-02T09:10:43.621Z</time>
      </trkpt>
      <trkpt lat="63.475" lon="19.24613">
        <ele>65.521426</ele>
        <time>2020-10-02T09:10:45.583Z</time>
      </trkpt>
      <trkpt lat="63.47508" lon="19.24596">
        <ele>65.150343</ele>
        <time>2020-10-02T09:10:47.603Z</time>
      </trkpt>
      <trkpt lat="63.47515" lon="19.24579">
        <ele>64.795233</ele>
        <time>2020-10-02T09:10:49.579Z</time>
      </trkpt>
      <trkpt lat="63.47521" lon="19.2456">
        <ele>64.444855</ele>
        <time>2020-10-02T09:10:51.616Z</time>
      </trkpt>
      <trkpt lat="63.47526" lon="19.24541">
        <ele>64.105771</ele>
        <time>2020-10-02T09:10:53.577Z</time>
      </trkpt>
      <trkpt lat="63.4753" lon="19.2452">
        <ele>63.770475</ele>
        <time>2020-10-02T09:10:55.615Z</time>
      </trkpt>
      <trkpt lat="63.47533" lon="19.245">
        <ele>63.448435</ele>
        <time>2020-10-02T09:10:57.590Z</time>
      </trkpt>
      <trkpt lat="63.47535" lon="19.24479">
        <ele>63.121721</ele>
        <time>2020-10-02T09:10:59.573Z</time>
      </trkpt>
      <trkpt lat="63.47536" lon="19.24457">
        <ele>62.791734</ele>
        <time>2020-10-02T09:11:01.616Z</time>
      </trkpt>
      <trkpt lat="63.47536" lon="19.24436">
        <ele>62.467749</ele>
        <time>2020-10-02T09:11:03.602Z</time>
      </trkpt>
      <trkpt lat="63.47537" lon="19.24414">
        <ele>62.173345</ele>
        <time>2020-10-02T09:11:05.578Z</time>
      </trkpt>
      <trkpt lat="63.47538" lon="19.24394">
        <ele>61.895083</ele>
        <time>2020-10-02T09:11:07.613Z</time>
      </trkpt>
      <trkpt lat="63.47538" lon="19.24374">
        <ele>61.621305</ele>
        <time>2020-10-02T09:11:09.596Z</time>
      </trkpt>
      <trkpt lat="63.47539" lon="19.24344">
        <ele>61.220414</ele>
        <time>2020-10-02T09:11:12.603Z</time>
      </trkpt>
      <trkpt lat="63.47539" lon="19.24323">
        <ele>60.943826</ele>
        <time>2020-10-02T09:11:14.577Z</time>
      </trkpt>
      <trkpt lat="63.4754" lon="19.24302">
        <ele>60.661852</ele>
        <time>2020-10-02T09:11:16.588Z</time>
      </trkpt>
      <trkpt lat="63.47541" lon="19.24282">
        <ele>60.384474</ele>
        <time>2020-10-02T09:11:18.593Z</time>
      </trkpt>
      <trkpt lat="63.47541" lon="19.24261">
        <ele>60.106818</ele>
        <time>2020-10-02T09:11:20.608Z</time>
      </trkpt>
      <trkpt lat="63.47542" lon="19.24241">
        <ele>59.831776</ele>
        <time>2020-10-02T09:11:22.585Z</time>
      </trkpt>
      <trkpt lat="63.47542" lon="19.2422">
        <ele>59.553842</ele>
        <time>2020-10-02T09:11:24.593Z</time>
      </trkpt>
      <trkpt lat="63.47543" lon="19.242">
        <ele>59.27289</ele>
        <time>2020-10-02T09:11:26.588Z</time>
      </trkpt>
      <trkpt lat="63.47543" lon="19.24179">
        <ele>58.989569</ele>
        <time>2020-10-02T09:11:28.600Z</time>
      </trkpt>
      <trkpt lat="63.47544" lon="19.24158">
        <ele>58.711094</ele>
        <time>2020-10-02T09:11:30.569Z</time>
      </trkpt>
      <trkpt lat="63.47544" lon="19.24137">
        <ele>58.432833</ele>
        <time>2020-10-02T09:11:32.576Z</time>
      </trkpt>
      <trkpt lat="63.47545" lon="19.24117">
        <ele>58.160135</ele>
        <time>2020-10-02T09:11:34.586Z</time>
      </trkpt>
      <trkpt lat="63.47545" lon="19.24097">
        <ele>57.882316</ele>
        <time>2020-10-02T09:11:36.579Z</time>
      </trkpt>
      <trkpt lat="63.47546" lon="19.24076">
        <ele>57.602888</ele>
        <time>2020-10-02T09:11:38.588Z</time>
      </trkpt>
      <trkpt lat="63.47547" lon="19.24056">
        <ele>57.331939</ele>
        <time>2020-10-02T09:11:40.620Z</time>
      </trkpt>
      <trkpt lat="63.47548" lon="19.24026">
        <ele>57.017541</ele>
        <time>2020-10-02T09:11:43.569Z</time>
      </trkpt>
      <trkpt lat="63.47548" lon="19.23998">
        <ele>57.247159</ele>
        <time>2020-10-02T09:11:46.597Z</time>
      </trkpt>
      <trkpt lat="63.47548" lon="19.23969">
        <ele>57.479685</ele>
        <time>2020-10-02T09:11:49.587Z</time>
      </trkpt>
      <trkpt lat="63.47548" lon="19.2394">
        <ele>57.715661</ele>
        <time>2020-10-02T09:11:52.588Z</time>
      </trkpt>
      <trkpt lat="63.47547" lon="19.23911">
        <ele>57.952637</ele>
        <time>2020-10-02T09:11:55.596Z</time>
      </trkpt>
      <trkpt lat="63.47546" lon="19.23891">
        <ele>58.116348</ele>
        <time>2020-10-02T09:11:57.580Z</time>
      </trkpt>
      <trkpt lat="63.47545" lon="19.2387">
        <ele>58.282023</ele>
        <time>2020-10-02T09:11:59.582Z</time>
      </trkpt>
      <trkpt lat="63.47544" lon="19.2384">
        <ele>58.523525</ele>
        <time>2020-10-02T09:12:02.590Z</time>
      </trkpt>
      <trkpt lat="63.47542" lon="19.23811">
        <ele>58.764226</ele>
        <time>2020-10-02T09:12:05.584Z</time>
      </trkpt>
      <trkpt lat="63.4754" lon="19.23781">
        <ele>59.009154</ele>
        <time>2020-10-02T09:12:08.583Z</time>
      </trkpt>
      <trkpt lat="63.47539" lon="19.2376">
        <ele>59.18216</ele>
        <time>2020-10-02T09:12:10.606Z</time>
      </trkpt>
      <trkpt lat="63.47538" lon="19.23739">
        <ele>59.350447</ele>
        <time>2020-10-02T09:12:12.587Z</time>
      </trkpt>
      <trkpt lat="63.47537" lon="19.2371">
        <ele>59.585737</ele>
        <time>2020-10-02T09:12:15.602Z</time>
      </trkpt>
      <trkpt lat="63.47536" lon="19.23681">
        <ele>59.819609</ele>
        <time>2020-10-02T09:12:18.580Z</time>
      </trkpt>
      <trkpt lat="63.47535" lon="19.23652">
        <ele>60.053167</ele>
        <time>2020-10-02T09:12:21.575Z</time>
      </trkpt>
      <trkpt lat="63.47535" lon="19.23623">
        <ele>60.275492</ele>
        <time>2020-10-02T09:12:24.606Z</time>
      </trkpt>
      <trkpt lat="63.47534" lon="19.23594">
        <ele>60.460721</ele>
        <time>2020-10-02T09:12:27.577Z</time>
      </trkpt>
      <trkpt lat="63.47533" lon="19.23565">
        <ele>60.643765</ele>
        <time>2020-10-02T09:12:30.593Z</time>
      </trkpt>
      <trkpt lat="63.47532" lon="19.23535">
        <ele>60.836191</ele>
        <time>2020-10-02T09:12:33.578Z</time>
      </trkpt>
      <trkpt lat="63.47531" lon="19.23515">
        <ele>60.968109</ele>
        <time>2020-10-02T09:12:35.606Z</time>
      </trkpt>
      <trkpt lat="63.4753" lon="19.23494">
        <ele>61.102123</ele>
        <time>2020-10-02T09:12:37.598Z</time>
      </trkpt>
      <trkpt lat="63.47529" lon="19.23473">
        <ele>61.236023</ele>
        <time>2020-10-02T09:12:39.594Z</time>
      </trkpt>
      <trkpt lat="63.47528" lon="19.23451">
        <ele>61.372361</ele>
        <time>2020-10-02T09:12:41.576Z</time>
      </trkpt>
      <trkpt lat="63.47527" lon="19.2343">
        <ele>61.508798</ele>
        <time>2020-10-02T09:12:43.604Z</time>
      </trkpt>
      <trkpt lat="63.47526" lon="19.23408">
        <ele>61.648776</ele>
        <time>2020-10-02T09:12:45.588Z</time>
      </trkpt>
      <trkpt lat="63.47525" lon="19.23387">
        <ele>61.783851</ele>
        <time>2020-10-02T09:12:47.579Z</time>
      </trkpt>
      <trkpt lat="63.47524" lon="19.23367">
        <ele>61.914684</ele>
        <time>2020-10-02T09:12:49.620Z</time>
      </trkpt>
      <trkpt lat="63.47522" lon="19.23339">
        <ele>62.09267</ele>
        <time>2020-10-02T09:12:52.584Z</time>
      </trkpt>
      <trkpt lat="63.47521" lon="19.23313">
        <ele>62.255753</ele>
        <time>2020-10-02T09:12:55.606Z</time>
      </trkpt>
      <trkpt lat="63.47521" lon="19.23289">
        <ele>62.411563</ele>
        <time>2020-10-02T09:12:58.597Z</time>
      </trkpt>
      <trkpt lat="63.47523" lon="19.23265">
        <ele>62.566284</ele>
        <time>2020-10-02T09:13:01.595Z</time>
      </trkpt>
      <trkpt lat="63.47525" lon="19.23241">
        <ele>62.721741</ele>
        <time>2020-10-02T09:13:04.577Z</time>
      </trkpt>
      <trkpt lat="63.47528" lon="19.23217">
        <ele>63.14196</ele>
        <time>2020-10-02T09:13:07.604Z</time>
      </trkpt>
      <trkpt lat="63.47533" lon="19.23195">
        <ele>63.789952</ele>
        <time>2020-10-02T09:13:10.608Z</time>
      </trkpt>
      <trkpt lat="63.47536" lon="19.23175">
        <ele>64.372135</ele>
        <time>2020-10-02T09:13:13.589Z</time>
      </trkpt>
      <trkpt lat="63.47541" lon="19.23155">
        <ele>64.950115</ele>
        <time>2020-10-02T09:13:16.587Z</time>
      </trkpt>
      <trkpt lat="63.47545" lon="19.23137">
        <ele>65.488349</ele>
        <time>2020-10-02T09:13:19.589Z</time>
      </trkpt>
      <trkpt lat="63.47549" lon="19.23119">
        <ele>66.036825</ele>
        <time>2020-10-02T09:13:22.593Z</time>
      </trkpt>
      <trkpt lat="63.47553" lon="19.23096">
        <ele>66.696964</ele>
        <time>2020-10-02T09:13:26.589Z</time>
      </trkpt>
      <trkpt lat="63.47557" lon="19.23075">
        <ele>67.310818</ele>
        <time>2020-10-02T09:13:30.589Z</time>
      </trkpt>
      <trkpt lat="63.47561" lon="19.23055">
        <ele>67.883497</ele>
        <time>2020-10-02T09:13:34.579Z</time>
      </trkpt>
      <trkpt lat="63.47565" lon="19.23036">
        <ele>68.44135</ele>
        <time>2020-10-02T09:13:38.577Z</time>
      </trkpt>
      <trkpt lat="63.4757" lon="19.23014">
        <ele>69.090271</ele>
        <time>2020-10-02T09:13:43.601Z</time>
      </trkpt>
      <trkpt lat="63.47574" lon="19.22994">
        <ele>69.712802</ele>
        <time>2020-10-02T09:13:48.597Z</time>
      </trkpt>
      <trkpt lat="63.47579" lon="19.22971">
        <ele>70.372827</ele>
        <time>2020-10-02T09:13:53.586Z</time>
      </trkpt>
      <trkpt lat="63.47583" lon="19.22949">
        <ele>71.010911</ele>
        <time>2020-10-02T09:13:58.587Z</time>
      </trkpt>
      <trkpt lat="63.47588" lon="19.22929">
        <ele>71.61469</ele>
        <time>2020-10-02T09:14:03.592Z</time>
      </trkpt>
      <trkpt lat="63.47593" lon="19.22909">
        <ele>72.235365</ele>
        <time>2020-10-02T09:14:08.598Z</time>
      </trkpt>
      <trkpt lat="63.47598" lon="19.22888">
        <ele>72.865414</ele>
        <time>2020-10-02T09:14:13.597Z</time>
      </trkpt>
      <trkpt lat="63.47603" lon="19.22869">
        <ele>73.45756</ele>
        <time>2020-10-02T09:14:18.580Z</time>
      </trkpt>
      <trkpt lat="63.47607" lon="19.22849">
        <ele>73.817055</ele>
        <time>2020-10-02T09:14:23.600Z</time>
      </trkpt>
      <trkpt lat="63.47611" lon="19.22829">
        <ele>74.145826</ele>
        <time>2020-10-02T09:14:28.577Z</time>
      </trkpt>
      <trkpt lat="63.47615" lon="19.22809">
        <ele>74.482011</ele>
        <time>2020-10-02T09:14:33.593Z</time>
      </trkpt>
      <trkpt lat="63.4762" lon="19.22791">
        <ele>74.789777</ele>
        <time>2020-10-02T09:14:38.601Z</time>
      </trkpt>
      <trkpt lat="63.47624" lon="19.22772">
        <ele>75.104732</ele>
        <time>2020-10-02T09:14:43.581Z</time>
      </trkpt>
      <trkpt lat="63.47627" lon="19.22752">
        <ele>75.441843</ele>
        <time>2020-10-02T09:14:48.583Z</time>
      </trkpt>
      <trkpt lat="63.47632" lon="19.22731">
        <ele>75.776058</ele>
        <time>2020-10-02T09:14:53.592Z</time>
      </trkpt>
      <trkpt lat="63.47635" lon="19.2271">
        <ele>76.111032</ele>
        <time>2020-10-02T09:14:58.578Z</time>
      </trkpt>
      <trkpt lat="63.47639" lon="19.22691">
        <ele>76.440551</ele>
        <time>2020-10-02T09:15:03.600Z</time>
      </trkpt>
      <trkpt lat="63.47644" lon="19.22672">
        <ele>76.77007</ele>
        <time>2020-10-02T09:15:08.578Z</time>
      </trkpt>
      <trkpt lat="63.47649" lon="19.22652">
        <ele>77.107857</ele>
        <time>2020-10-02T09:15:13.576Z</time>
      </trkpt>
      <trkpt lat="63.47655" lon="19.22635">
        <ele>77.441374</ele>
        <time>2020-10-02T09:15:18.624Z</time>
      </trkpt>
      <trkpt lat="63.4766" lon="19.22616">
        <ele>77.775523</ele>
        <time>2020-10-02T09:15:23.606Z</time>
      </trkpt>
      <trkpt lat="63.47666" lon="19.22599">
        <ele>78.10544</ele>
        <time>2020-10-02T09:15:28.585Z</time>
      </trkpt>
      <trkpt lat="63.47673" lon="19.22581">
        <ele>78.452004</ele>
        <time>2020-10-02T09:15:33.582Z</time>
      </trkpt>
      <trkpt lat="63.4768" lon="19.22564">
        <ele>78.81778</ele>
        <time>2020-10-02T09:15:38.602Z</time>
      </trkpt>
      <trkpt lat="63.47688" lon="19.22548">
        <ele>79.160578</ele>
        <time>2020-10-02T09:15:43.600Z</time>
      </trkpt>
      <trkpt lat="63.47695" lon="19.22532">
        <ele>79.49669</ele>
        <time>2020-10-02T09:15:48.591Z</time>
      </trkpt>
      <trkpt lat="63.47702" lon="19.22517">
        <ele>79.920396</ele>
        <time>2020-10-02T09:15:53.592Z</time>
      </trkpt>
      <trkpt lat="63.47708" lon="19.22503">
        <ele>80.351014</ele>
        <time>2020-10-02T09:15:58.580Z</time>
      </trkpt>
      <trkpt lat="63.47715" lon="19.22489">
        <ele>80.78948</ele>
        <time>2020-10-02T09:16:03.607Z</time>
      </trkpt>
      <trkpt lat="63.47722" lon="19.22472">
        <ele>81.286634</ele>
        <time>2020-10-02T09:16:09.584Z</time>
      </trkpt>
      <trkpt lat="63.4773" lon="19.22455">
        <ele>81.792921</ele>
        <time>2020-10-02T09:16:15.580Z</time>
      </trkpt>
      <trkpt lat="63.47738" lon="19.22439">
        <ele>82.298801</ele>
        <time>2020-10-02T09:16:20.609Z</time>
      </trkpt>
      <trkpt lat="63.47745" lon="19.22423">
        <ele>82.780668</ele>
        <time>2020-10-02T09:16:25.579Z</time>
      </trkpt>
      <trkpt lat="63.47751" lon="19.22408">
        <ele>83.217503</ele>
        <time>2020-10-02T09:16:30.580Z</time>
      </trkpt>
      <trkpt lat="63.47758" lon="19.22392">
        <ele>83.684804</ele>
        <time>2020-10-02T09:16:35.597Z</time>
      </trkpt>
      <trkpt lat="63.47765" lon="19.22377">
        <ele>84.154407</ele>
        <time>2020-10-02T09:16:40.624Z</time>
      </trkpt>
      <trkpt lat="63.47771" lon="19.22363">
        <ele>84.585552</ele>
        <time>2020-10-02T09:16:45.583Z</time>
      </trkpt>
      <trkpt lat="63.47778" lon="19.22347">
        <ele>85.041476</ele>
        <time>2020-10-02T09:16:50.619Z</time>
      </trkpt>
      <trkpt lat="63.47784" lon="19.22332">
        <ele>85.494285</ele>
        <time>2020-10-02T09:16:55.610Z</time>
      </trkpt>
      <trkpt lat="63.47791" lon="19.22315">
        <ele>85.996336</ele>
        <time>2020-10-02T09:17:01.605Z</time>
      </trkpt>
      <trkpt lat="63.47798" lon="19.223">
        <ele>86.453971</ele>
        <time>2020-10-02T09:17:06.598Z</time>
      </trkpt>
      <trkpt lat="63.47805" lon="19.22286">
        <ele>86.89044</ele>
        <time>2020-10-02T09:17:11.576Z</time>
      </trkpt>
      <trkpt lat="63.47812" lon="19.22272">
        <ele>87.317577</ele>
        <time>2020-10-02T09:17:16.585Z</time>
      </trkpt>
      <trkpt lat="63.47818" lon="19.22258">
        <ele>87.756035</ele>
        <time>2020-10-02T09:17:21.583Z</time>
      </trkpt>
      <trkpt lat="63.47825" lon="19.22243">
        <ele>88.212713</ele>
        <time>2020-10-02T09:17:26.603Z</time>
      </trkpt>
      <trkpt lat="63.47832" lon="19.22228">
        <ele>88.831167</ele>
        <time>2020-10-02T09:17:31.604Z</time>
      </trkpt>
      <trkpt lat="63.47839" lon="19.22211">
        <ele>89.468011</ele>
        <time>2020-10-02T09:17:36.583Z</time>
      </trkpt>
      <trkpt lat="63.47846" lon="19.22195">
        <ele>90.084004</ele>
        <time>2020-10-02T09:17:41.596Z</time>
      </trkpt>
      <trkpt lat="63.47853" lon="19.22179">
        <ele>90.70751</ele>
        <time>2020-10-02T09:17:46.581Z</time>
      </trkpt>
      <trkpt lat="63.4786" lon="19.22164">
        <ele>91.297774</ele>
        <time>2020-10-02T09:17:51.572Z</time>
      </trkpt>
      <trkpt lat="63.47867" lon="19.22149">
        <ele>91.919349</ele>
        <time>2020-10-02T09:17:56.613Z</time>
      </trkpt>
      <trkpt lat="63.47875" lon="19.22134">
        <ele>92.516442</ele>
        <time>2020-10-02T09:18:01.598Z</time>
      </trkpt>
      <trkpt lat="63.4788" lon="19.22117">
        <ele>93.112955</ele>
        <time>2020-10-02T09:18:06.617Z</time>
      </trkpt>
      <trkpt lat="63.47887" lon="19.22102">
        <ele>93.68774</ele>
        <time>2020-10-02T09:18:11.576Z</time>
      </trkpt>
      <trkpt lat="63.47894" lon="19.22086">
        <ele>94.324922</ele>
        <time>2020-10-02T09:18:17.599Z</time>
      </trkpt>
      <trkpt lat="63.479" lon="19.22069">
        <ele>94.907967</ele>
        <time>2020-10-02T09:18:23.589Z</time>
      </trkpt>
      <trkpt lat="63.47906" lon="19.2205">
        <ele>95.573985</ele>
        <time>2020-10-02T09:18:29.580Z</time>
      </trkpt>
      <trkpt lat="63.47913" lon="19.22033">
        <ele>96.187703</ele>
        <time>2020-10-02T09:18:34.611Z</time>
      </trkpt>
      <trkpt lat="63.4792" lon="19.22017">
        <ele>96.813994</ele>
        <time>2020-10-02T09:18:39.579Z</time>
      </trkpt>
      <trkpt lat="63.47926" lon="19.22001">
        <ele>97.404997</ele>
        <time>2020-10-02T09:18:44.600Z</time>
      </trkpt>
      <trkpt lat="63.47931" lon="19.21984">
        <ele>97.960953</ele>
        <time>2020-10-02T09:18:49.582Z</time>
      </trkpt>
      <trkpt lat="63.47937" lon="19.21967">
        <ele>98.552929</ele>
        <time>2020-10-02T09:18:54.598Z</time>
      </trkpt>
      <trkpt lat="63.47942" lon="19.21948">
        <ele>99.191913</ele>
        <time>2020-10-02T09:19:00.587Z</time>
      </trkpt>
      <trkpt lat="63.47948" lon="19.21928">
        <ele>100.065631</ele>
        <time>2020-10-02T09:19:06.581Z</time>
      </trkpt>
      <trkpt lat="63.47954" lon="19.21909">
        <ele>100.962379</ele>
        <time>2020-10-02T09:19:12.577Z</time>
      </trkpt>
      <trkpt lat="63.47959" lon="19.21893">
        <ele>101.745986</ele>
        <time>2020-10-02T09:19:17.617Z</time>
      </trkpt>
      <trkpt lat="63.47965" lon="19.21876">
        <ele>102.534241</ele>
        <time>2020-10-02T09:19:22.586Z</time>
      </trkpt>
      <trkpt lat="63.47969" lon="19.21858">
        <ele>103.322718</ele>
        <time>2020-10-02T09:19:27.583Z</time>
      </trkpt>
      <trkpt lat="63.47975" lon="19.21841">
        <ele>104.198515</ele>
        <time>2020-10-02T09:19:32.593Z</time>
      </trkpt>
      <trkpt lat="63.47982" lon="19.21823">
        <ele>105.105942</ele>
        <time>2020-10-02T09:19:37.593Z</time>
      </trkpt>
      <trkpt lat="63.47987" lon="19.21803">
        <ele>105.999873</ele>
        <time>2020-10-02T09:19:43.596Z</time>
      </trkpt>
      <trkpt lat="63.47992" lon="19.21786">
        <ele>106.800039</ele>
        <time>2020-10-02T09:19:48.598Z</time>
      </trkpt>
      <trkpt lat="63.47998" lon="19.21769">
        <ele>107.61285</ele>
        <time>2020-10-02T09:19:53.577Z</time>
      </trkpt>
      <trkpt lat="63.48004" lon="19.21749">
        <ele>108.559786</ele>
        <time>2020-10-02T09:19:59.577Z</time>
      </trkpt>
      <trkpt lat="63.48008" lon="19.21731">
        <ele>109.361995</ele>
        <time>2020-10-02T09:20:04.631Z</time>
      </trkpt>
      <trkpt lat="63.48014" lon="19.21712">
        <ele>110.261903</ele>
        <time>2020-10-02T09:20:10.575Z</time>
      </trkpt>
      <trkpt lat="63.48018" lon="19.21692">
        <ele>111.122593</ele>
        <time>2020-10-02T09:20:16.575Z</time>
      </trkpt>
      <trkpt lat="63.48023" lon="19.21675">
        <ele>111.911059</ele>
        <time>2020-10-02T09:20:21.598Z</time>
      </trkpt>
      <trkpt lat="63.48028" lon="19.21656">
        <ele>112.762392</ele>
        <time>2020-10-02T09:20:26.585Z</time>
      </trkpt>
      <trkpt lat="63.48032" lon="19.21636">
        <ele>113.602509</ele>
        <time>2020-10-02T09:20:31.598Z</time>
      </trkpt>
      <trkpt lat="63.48035" lon="19.21616">
        <ele>114.423627</ele>
        <time>2020-10-02T09:20:36.578Z</time>
      </trkpt>
      <trkpt lat="63.48038" lon="19.21596">
        <ele>115.165994</ele>
        <time>2020-10-02T09:20:41.587Z</time>
      </trkpt>
      <trkpt lat="63.48042" lon="19.21576">
        <ele>115.594357</ele>
        <time>2020-10-02T09:20:46.579Z</time>
      </trkpt>
      <trkpt lat="63.48045" lon="19.21555">
        <ele>116.038551</ele>
        <time>2020-10-02T09:20:51.581Z</time>
      </trkpt>
      <trkpt lat="63.48048" lon="19.21534">
        <ele>116.480085</ele>
        <time>2020-10-02T09:20:56.597Z</time>
      </trkpt>
      <trkpt lat="63.48052" lon="19.21515">
        <ele>116.888656</ele>
        <time>2020-10-02T09:21:01.576Z</time>
      </trkpt>
      <trkpt lat="63.48054" lon="19.21496">
        <ele>117.302373</ele>
        <time>2020-10-02T09:21:06.601Z</time>
      </trkpt>
      <trkpt lat="63.48057" lon="19.21475">
        <ele>117.744365</ele>
        <time>2020-10-02T09:21:11.594Z</time>
      </trkpt>
      <trkpt lat="63.4806" lon="19.21454">
        <ele>118.169586</ele>
        <time>2020-10-02T09:21:16.632Z</time>
      </trkpt>
      <trkpt lat="63.48063" lon="19.21435">
        <ele>118.588573</ele>
        <time>2020-10-02T09:21:21.612Z</time>
      </trkpt>
      <trkpt lat="63.48066" lon="19.21416">
        <ele>118.996058</ele>
        <time>2020-10-02T09:21:26.601Z</time>
      </trkpt>
      <trkpt lat="63.4807" lon="19.21394">
        <ele>119.47089</ele>
        <time>2020-10-02T09:21:32.624Z</time>
      </trkpt>
      <trkpt lat="63.48074" lon="19.21371">
        <ele>119.950303</ele>
        <time>2020-10-02T09:21:37.584Z</time>
      </trkpt>
      <trkpt lat="63.48077" lon="19.21352">
        <ele>120.370656</ele>
        <time>2020-10-02T09:21:42.579Z</time>
      </trkpt>
      <trkpt lat="63.48081" lon="19.21332">
        <ele>120.802293</ele>
        <time>2020-10-02T09:21:47.604Z</time>
      </trkpt>
      <trkpt lat="63.48085" lon="19.21312">
        <ele>121.248382</ele>
        <time>2020-10-02T09:21:52.589Z</time>
      </trkpt>
      <trkpt lat="63.48089" lon="19.2129">
        <ele>121.719434</ele>
        <time>2020-10-02T09:21:57.604Z</time>
      </trkpt>
      <trkpt lat="63.48092" lon="19.2127">
        <ele>122.164164</ele>
        <time>2020-10-02T09:22:02.614Z</time>
      </trkpt>
      <trkpt lat="63.48095" lon="19.21248">
        <ele>122.610813</ele>
        <time>2020-10-02T09:22:08.589Z</time>
      </trkpt>
      <trkpt lat="63.48096" lon="19.21228">
        <ele>123.017035</ele>
        <time>2020-10-02T09:22:13.603Z</time>
      </trkpt>
      <trkpt lat="63.481" lon="19.21206">
        <ele>122.998304</ele>
        <time>2020-10-02T09:22:18.588Z</time>
      </trkpt>
      <trkpt lat="63.48102" lon="19.21186">
        <ele>122.839637</ele>
        <time>2020-10-02T09:22:22.581Z</time>
      </trkpt>
      <trkpt lat="63.48104" lon="19.21164">
        <ele>122.662788</ele>
        <time>2020-10-02T09:22:27.627Z</time>
      </trkpt>
      <trkpt lat="63.48106" lon="19.2114">
        <ele>122.479456</ele>
        <time>2020-10-02T09:22:32.586Z</time>
      </trkpt>
      <trkpt lat="63.48108" lon="19.2112">
        <ele>122.318502</ele>
        <time>2020-10-02T09:22:36.591Z</time>
      </trkpt>
      <trkpt lat="63.48111" lon="19.21098">
        <ele>122.133207</ele>
        <time>2020-10-02T09:22:40.586Z</time>
      </trkpt>
      <trkpt lat="63.48116" lon="19.21073">
        <ele>121.925742</ele>
        <time>2020-10-02T09:22:44.582Z</time>
      </trkpt>
      <trkpt lat="63.48121" lon="19.21054">
        <ele>121.754613</ele>
        <time>2020-10-02T09:22:47.575Z</time>
      </trkpt>
      <trkpt lat="63.48127" lon="19.21034">
        <ele>121.569802</ele>
        <time>2020-10-02T09:22:50.603Z</time>
      </trkpt>
      <trkpt lat="63.48133" lon="19.21014">
        <ele>121.375767</ele>
        <time>2020-10-02T09:22:53.605Z</time>
      </trkpt>
      <trkpt lat="63.4814" lon="19.20994">
        <ele>121.178593</ele>
        <time>2020-10-02T09:22:56.594Z</time>
      </trkpt>
      <trkpt lat="63.48148" lon="19.20972">
        <ele>120.958429</ele>
        <time>2020-10-02T09:22:59.604Z</time>
      </trkpt>
      <trkpt lat="63.48155" lon="19.2095">
        <ele>120.747134</ele>
        <time>2020-10-02T09:23:02.602Z</time>
      </trkpt>
      <trkpt lat="63.48164" lon="19.20929">
        <ele>120.527861</ele>
        <time>2020-10-02T09:23:05.643Z</time>
      </trkpt>
      <trkpt lat="63.48172" lon="19.20907">
        <ele>120.305649</ele>
        <time>2020-10-02T09:23:08.585Z</time>
      </trkpt>
      <trkpt lat="63.48178" lon="19.20891">
        <ele>120.148159</ele>
        <time>2020-10-02T09:23:10.597Z</time>
      </trkpt>
      <trkpt lat="63.48183" lon="19.20874">
        <ele>119.997523</ele>
        <time>2020-10-02T09:23:12.591Z</time>
      </trkpt>
      <trkpt lat="63.48189" lon="19.20857">
        <ele>119.942167</ele>
        <time>2020-10-02T09:23:14.575Z</time>
      </trkpt>
      <trkpt lat="63.48196" lon="19.2084">
        <ele>119.885513</ele>
        <time>2020-10-02T09:23:16.640Z</time>
      </trkpt>
      <trkpt lat="63.48202" lon="19.20823">
        <ele>119.830319</ele>
        <time>2020-10-02T09:23:18.589Z</time>
      </trkpt>
      <trkpt lat="63.48208" lon="19.20806">
        <ele>119.774962</ele>
        <time>2020-10-02T09:23:20.598Z</time>
      </trkpt>
      <trkpt lat="63.48215" lon="19.20789">
        <ele>119.718691</ele>
        <time>2020-10-02T09:23:22.602Z</time>
      </trkpt>
      <trkpt lat="63.48221" lon="19.20771">
        <ele>119.663107</ele>
        <time>2020-10-02T09:23:24.598Z</time>
      </trkpt>
      <trkpt lat="63.48227" lon="19.20754">
        <ele>119.607328</ele>
        <time>2020-10-02T09:23:26.593Z</time>
      </trkpt>
      <trkpt lat="63.48234" lon="19.20736">
        <ele>119.550959</ele>
        <time>2020-10-02T09:23:28.588Z</time>
      </trkpt>
      <trkpt lat="63.4824" lon="19.20719">
        <ele>119.494787</ele>
        <time>2020-10-02T09:23:30.601Z</time>
      </trkpt>
      <trkpt lat="63.48246" lon="19.20701">
        <ele>119.437874</ele>
        <time>2020-10-02T09:23:32.594Z</time>
      </trkpt>
      <trkpt lat="63.48253" lon="19.20683">
        <ele>119.379922</ele>
        <time>2020-10-02T09:23:34.575Z</time>
      </trkpt>
      <trkpt lat="63.48259" lon="19.20664">
        <ele>119.319948</ele>
        <time>2020-10-02T09:23:36.586Z</time>
      </trkpt>
      <trkpt lat="63.48266" lon="19.20646">
        <ele>119.260614</ele>
        <time>2020-10-02T09:23:38.620Z</time>
      </trkpt>
      <trkpt lat="63.48272" lon="19.20627">
        <ele>119.200889</ele>
        <time>2020-10-02T09:23:40.582Z</time>
      </trkpt>
      <trkpt lat="63.48279" lon="19.20608">
        <ele>119.139484</ele>
        <time>2020-10-02T09:23:42.581Z</time>
      </trkpt>
      <trkpt lat="63.48286" lon="19.20589">
        <ele>119.077924</ele>
        <time>2020-10-02T09:23:44.596Z</time>
      </trkpt>
      <trkpt lat="63.48293" lon="19.20569">
        <ele>119.015189</ele>
        <time>2020-10-02T09:23:46.600Z</time>
      </trkpt>
      <trkpt lat="63.483" lon="19.20551">
        <ele>119.12186</ele>
        <time>2020-10-02T09:23:48.590Z</time>
      </trkpt>
      <trkpt lat="63.48306" lon="19.20533">
        <ele>119.308053</ele>
        <time>2020-10-02T09:23:50.580Z</time>
      </trkpt>
      <trkpt lat="63.48312" lon="19.20514">
        <ele>119.497508</ele>
        <time>2020-10-02T09:23:52.614Z</time>
      </trkpt>
      <trkpt lat="63.48318" lon="19.20495">
        <ele>119.685628</ele>
        <time>2020-10-02T09:23:54.591Z</time>
      </trkpt>
      <trkpt lat="63.48324" lon="19.20477">
        <ele>119.868945</ele>
        <time>2020-10-02T09:23:56.607Z</time>
      </trkpt>
      <trkpt lat="63.48331" lon="19.2046">
        <ele>120.050056</ele>
        <time>2020-10-02T09:23:58.622Z</time>
      </trkpt>
      <trkpt lat="63.48337" lon="19.20443">
        <ele>120.23046</ele>
        <time>2020-10-02T09:24:00.606Z</time>
      </trkpt>
      <trkpt lat="63.48343" lon="19.20427">
        <ele>120.402699</ele>
        <time>2020-10-02T09:24:02.588Z</time>
      </trkpt>
      <trkpt lat="63.48349" lon="19.2041">
        <ele>120.580247</ele>
        <time>2020-10-02T09:24:04.594Z</time>
      </trkpt>
      <trkpt lat="63.48355" lon="19.20392">
        <ele>120.759705</ele>
        <time>2020-10-02T09:24:06.577Z</time>
      </trkpt>
      <trkpt lat="63.48361" lon="19.20376">
        <ele>120.924735</ele>
        <time>2020-10-02T09:24:08.596Z</time>
      </trkpt>
      <trkpt lat="63.48369" lon="19.20353">
        <ele>121.16422</ele>
        <time>2020-10-02T09:24:11.622Z</time>
      </trkpt>
      <trkpt lat="63.48377" lon="19.20331">
        <ele>121.407199</ele>
        <time>2020-10-02T09:24:14.597Z</time>
      </trkpt>
      <trkpt lat="63.48385" lon="19.20309">
        <ele>121.637667</ele>
        <time>2020-10-02T09:24:17.590Z</time>
      </trkpt>
      <trkpt lat="63.48392" lon="19.20286">
        <ele>121.861229</ele>
        <time>2020-10-02T09:24:20.581Z</time>
      </trkpt>
      <trkpt lat="63.48398" lon="19.20263">
        <ele>122.079943</ele>
        <time>2020-10-02T09:24:23.596Z</time>
      </trkpt>
      <trkpt lat="63.48405" lon="19.20238">
        <ele>122.258001</ele>
        <time>2020-10-02T09:24:26.582Z</time>
      </trkpt>
      <trkpt lat="63.48412" lon="19.20212">
        <ele>122.160293</ele>
        <time>2020-10-02T09:24:29.577Z</time>
      </trkpt>
      <trkpt lat="63.48416" lon="19.20194">
        <ele>122.093898</ele>
        <time>2020-10-02T09:24:31.569Z</time>
      </trkpt>
      <trkpt lat="63.48421" lon="19.20176">
        <ele>122.023648</ele>
        <time>2020-10-02T09:24:33.578Z</time>
      </trkpt>
      <trkpt lat="63.48425" lon="19.20156">
        <ele>121.954596</ele>
        <time>2020-10-02T09:24:35.614Z</time>
      </trkpt>
      <trkpt lat="63.48428" lon="19.20137">
        <ele>121.884632</ele>
        <time>2020-10-02T09:24:37.596Z</time>
      </trkpt>
      <trkpt lat="63.48433" lon="19.20115">
        <ele>121.80601</ele>
        <time>2020-10-02T09:24:39.602Z</time>
      </trkpt>
      <trkpt lat="63.48437" lon="19.20093">
        <ele>121.72799</ele>
        <time>2020-10-02T09:24:41.578Z</time>
      </trkpt>
      <trkpt lat="63.48441" lon="19.2007">
        <ele>121.646005</ele>
        <time>2020-10-02T09:24:43.583Z</time>
      </trkpt>
      <trkpt lat="63.48445" lon="19.20046">
        <ele>121.563626</ele>
        <time>2020-10-02T09:24:45.601Z</time>
      </trkpt>
      <trkpt lat="63.48449" lon="19.20023">
        <ele>121.481985</ele>
        <time>2020-10-02T09:24:47.583Z</time>
      </trkpt>
      <trkpt lat="63.48452" lon="19.19999">
        <ele>121.403232</ele>
        <time>2020-10-02T09:24:49.567Z</time>
      </trkpt>
      <trkpt lat="63.48455" lon="19.19978">
        <ele>121.32745</ele>
        <time>2020-10-02T09:24:51.604Z</time>
      </trkpt>
      <trkpt lat="63.48459" lon="19.19958">
        <ele>121.255704</ele>
        <time>2020-10-02T09:24:53.626Z</time>
      </trkpt>
      <trkpt lat="63.48463" lon="19.19938">
        <ele>121.186043</ele>
        <time>2020-10-02T09:24:55.588Z</time>
      </trkpt>
      <trkpt lat="63.48467" lon="19.19919">
        <ele>121.118486</ele>
        <time>2020-10-02T09:24:57.583Z</time>
      </trkpt>
      <trkpt lat="63.4847" lon="19.199">
        <ele>121.05165</ele>
        <time>2020-10-02T09:24:59.585Z</time>
      </trkpt>
      <trkpt lat="63.48474" lon="19.19874">
        <ele>120.959768</ele>
        <time>2020-10-02T09:25:02.577Z</time>
      </trkpt>
      <trkpt lat="63.48479" lon="19.1985">
        <ele>121.145001</ele>
        <time>2020-10-02T09:25:05.596Z</time>
      </trkpt>
      <trkpt lat="63.48482" lon="19.19827">
        <ele>121.325852</ele>
        <time>2020-10-02T09:25:08.599Z</time>
      </trkpt>
      <trkpt lat="63.48486" lon="19.19808">
        <ele>121.489174</ele>
        <time>2020-10-02T09:25:11.628Z</time>
      </trkpt>
      <trkpt lat="63.48489" lon="19.19788">
        <ele>121.64563</ele>
        <time>2020-10-02T09:25:14.595Z</time>
      </trkpt>
      <trkpt lat="63.48492" lon="19.19769">
        <ele>121.803512</ele>
        <time>2020-10-02T09:25:17.582Z</time>
      </trkpt>
      <trkpt lat="63.48496" lon="19.19745">
        <ele>121.999727</ele>
        <time>2020-10-02T09:25:21.588Z</time>
      </trkpt>
      <trkpt lat="63.485" lon="19.19723">
        <ele>122.180752</ele>
        <time>2020-10-02T09:25:25.580Z</time>
      </trkpt>
      <trkpt lat="63.48503" lon="19.19701">
        <ele>122.357561</ele>
        <time>2020-10-02T09:25:29.599Z</time>
      </trkpt>
      <trkpt lat="63.48506" lon="19.1968">
        <ele>122.524184</ele>
        <time>2020-10-02T09:25:33.602Z</time>
      </trkpt>
      <trkpt lat="63.48508" lon="19.19656">
        <ele>122.709833</ele>
        <time>2020-10-02T09:25:38.604Z</time>
      </trkpt>
      <trkpt lat="63.48511" lon="19.19632">
        <ele>122.906573</ele>
        <time>2020-10-02T09:25:43.590Z</time>
      </trkpt>
      <trkpt lat="63.48514" lon="19.19611">
        <ele>123.069951</ele>
        <time>2020-10-02T09:25:47.616Z</time>
      </trkpt>
      <trkpt lat="63.48516" lon="19.1959">
        <ele>123.234694</ele>
        <time>2020-10-02T09:25:51.572Z</time>
      </trkpt>
      <trkpt lat="63.48519" lon="19.19565">
        <ele>123.428957</ele>
        <time>2020-10-02T09:25:56.638Z</time>
      </trkpt>
      <trkpt lat="63.48522" lon="19.19542">
        <ele>123.613739</ele>
        <time>2020-10-02T09:26:01.632Z</time>
      </trkpt>
      <trkpt lat="63.48526" lon="19.19523">
        <ele>123.774897</ele>
        <time>2020-10-02T09:26:05.573Z</time>
      </trkpt>
      <trkpt lat="63.4853" lon="19.19503">
        <ele>123.94374</ele>
        <time>2020-10-02T09:26:09.598Z</time>
      </trkpt>
      <trkpt lat="63.48534" lon="19.19483">
        <ele>123.867897</ele>
        <time>2020-10-02T09:26:13.599Z</time>
      </trkpt>
      <trkpt lat="63.48538" lon="19.19462">
        <ele>123.496161</ele>
        <time>2020-10-02T09:26:17.606Z</time>
      </trkpt>
      <trkpt lat="63.48541" lon="19.19438">
        <ele>123.086149</ele>
        <time>2020-10-02T09:26:21.601Z</time>
      </trkpt>
      <trkpt lat="63.48544" lon="19.19414">
        <ele>122.692012</ele>
        <time>2020-10-02T09:26:24.590Z</time>
      </trkpt>
      <trkpt lat="63.48545" lon="19.19384">
        <ele>122.202635</ele>
        <time>2020-10-02T09:26:27.593Z</time>
      </trkpt>
      <trkpt lat="63.48545" lon="19.19359">
        <ele>121.788969</ele>
        <time>2020-10-02T09:26:29.622Z</time>
      </trkpt>
      <trkpt lat="63.48545" lon="19.19332">
        <ele>121.357393</ele>
        <time>2020-10-02T09:26:31.574Z</time>
      </trkpt>
      <trkpt lat="63.48544" lon="19.19301">
        <ele>120.849912</ele>
        <time>2020-10-02T09:26:33.585Z</time>
      </trkpt>
      <trkpt lat="63.48543" lon="19.19269">
        <ele>120.329187</ele>
        <time>2020-10-02T09:26:35.593Z</time>
      </trkpt>
      <trkpt lat="63.48542" lon="19.19238">
        <ele>119.819821</ele>
        <time>2020-10-02T09:26:37.629Z</time>
      </trkpt>
      <trkpt lat="63.4854" lon="19.19206">
        <ele>119.296251</ele>
        <time>2020-10-02T09:26:39.618Z</time>
      </trkpt>
      <trkpt lat="63.48538" lon="19.19175">
        <ele>118.792514</ele>
        <time>2020-10-02T09:26:41.582Z</time>
      </trkpt>
      <trkpt lat="63.48537" lon="19.19146">
        <ele>118.307682</ele>
        <time>2020-10-02T09:26:43.599Z</time>
      </trkpt>
      <trkpt lat="63.48533" lon="19.1912">
        <ele>117.867038</ele>
        <time>2020-10-02T09:26:45.583Z</time>
      </trkpt>
      <trkpt lat="63.48526" lon="19.19104">
        <ele>117.497566</ele>
        <time>2020-10-02T09:26:47.580Z</time>
      </trkpt>
      <trkpt lat="63.48515" lon="19.19098">
        <ele>116.935874</ele>
        <time>2020-10-02T09:26:49.630Z</time>
      </trkpt>
      <trkpt lat="63.48502" lon="19.19101">
        <ele>116.267042</ele>
        <time>2020-10-02T09:26:51.590Z</time>
      </trkpt>
      <trkpt lat="63.48489" lon="19.19105">
        <ele>115.563038</ele>
        <time>2020-10-02T09:26:53.626Z</time>
      </trkpt>
      <trkpt lat="63.48473" lon="19.19107">
        <ele>114.770908</ele>
        <time>2020-10-02T09:26:55.590Z</time>
      </trkpt>
      <trkpt lat="63.48456" lon="19.19103">
        <ele>113.858012</ele>
        <time>2020-10-02T09:26:57.601Z</time>
      </trkpt>
      <trkpt lat="63.48446" lon="19.19098">
        <ele>113.367878</ele>
        <time>2020-10-02T09:26:58.588Z</time>
      </trkpt>
      <trkpt lat="63.48437" lon="19.19092">
        <ele>112.857173</ele>
        <time>2020-10-02T09:26:59.581Z</time>
      </trkpt>
      <trkpt lat="63.48427" lon="19.19086">
        <ele>112.351103</ele>
        <time>2020-10-02T09:27:00.589Z</time>
      </trkpt>
      <trkpt lat="63.48418" lon="19.19078">
        <ele>111.841641</ele>
        <time>2020-10-02T09:27:01.620Z</time>
      </trkpt>
      <trkpt lat="63.48409" lon="19.19069">
        <ele>111.349043</ele>
        <time>2020-10-02T09:27:02.624Z</time>
      </trkpt>
      <trkpt lat="63.48401" lon="19.19059">
        <ele>110.862089</ele>
        <time>2020-10-02T09:27:03.579Z</time>
      </trkpt>
      <trkpt lat="63.48393" lon="19.19048">
        <ele>110.381967</ele>
        <time>2020-10-02T09:27:04.599Z</time>
      </trkpt>
      <trkpt lat="63.48378" lon="19.19029">
        <ele>109.48446</ele>
        <time>2020-10-02T09:27:06.580Z</time>
      </trkpt>
      <trkpt lat="63.48363" lon="19.1901">
        <ele>108.623787</ele>
        <time>2020-10-02T09:27:08.580Z</time>
      </trkpt>
      <trkpt lat="63.48348" lon="19.18992">
        <ele>107.923565</ele>
        <time>2020-10-02T09:27:10.593Z</time>
      </trkpt>
      <trkpt lat="63.48332" lon="19.18972">
        <ele>107.325357</ele>
        <time>2020-10-02T09:27:12.626Z</time>
      </trkpt>
      <trkpt lat="63.48324" lon="19.18962">
        <ele>107.024449</ele>
        <time>2020-10-02T09:27:13.599Z</time>
      </trkpt>
      <trkpt lat="63.48309" lon="19.18943">
        <ele>106.433478</ele>
        <time>2020-10-02T09:27:15.622Z</time>
      </trkpt>
      <trkpt lat="63.48293" lon="19.18923">
        <ele>105.841039</ele>
        <time>2020-10-02T09:27:17.585Z</time>
      </trkpt>
      <trkpt lat="63.48278" lon="19.18902">
        <ele>105.263489</ele>
        <time>2020-10-02T09:27:19.619Z</time>
      </trkpt>
      <trkpt lat="63.48265" lon="19.18883">
        <ele>104.726412</ele>
        <time>2020-10-02T09:27:21.592Z</time>
      </trkpt>
      <trkpt lat="63.48254" lon="19.18861">
        <ele>104.252651</ele>
        <time>2020-10-02T09:27:23.586Z</time>
      </trkpt>
      <trkpt lat="63.48247" lon="19.18837">
        <ele>103.818232</ele>
        <time>2020-10-02T09:27:25.574Z</time>
      </trkpt>
      <trkpt lat="63.48241" lon="19.18813">
        <ele>103.413712</ele>
        <time>2020-10-02T09:27:27.583Z</time>
      </trkpt>
      <trkpt lat="63.48238" lon="19.18787">
        <ele>103.024398</ele>
        <time>2020-10-02T09:27:29.574Z</time>
      </trkpt>
      <trkpt lat="63.48237" lon="19.18764">
        <ele>102.671035</ele>
        <time>2020-10-02T09:27:31.602Z</time>
      </trkpt>
      <trkpt lat="63.48239" lon="19.18742">
        <ele>102.342897</ele>
        <time>2020-10-02T09:27:33.601Z</time>
      </trkpt>
      <trkpt lat="63.48242" lon="19.18713">
        <ele>102.541906</ele>
        <time>2020-10-02T09:27:36.595Z</time>
      </trkpt>
      <trkpt lat="63.48246" lon="19.1869">
        <ele>102.796146</ele>
        <time>2020-10-02T09:27:39.586Z</time>
      </trkpt>
      <trkpt lat="63.4825" lon="19.18666">
        <ele>103.056733</ele>
        <time>2020-10-02T09:27:42.613Z</time>
      </trkpt>
      <trkpt lat="63.48254" lon="19.18644">
        <ele>103.303966</ele>
        <time>2020-10-02T09:27:45.603Z</time>
      </trkpt>
      <trkpt lat="63.48259" lon="19.18623">
        <ele>103.549482</ele>
        <time>2020-10-02T09:27:48.578Z</time>
      </trkpt>
      <trkpt lat="63.48264" lon="19.18601">
        <ele>103.805231</ele>
        <time>2020-10-02T09:27:51.603Z</time>
      </trkpt>
      <trkpt lat="63.48269" lon="19.1858">
        <ele>104.051145</ele>
        <time>2020-10-02T09:27:54.581Z</time>
      </trkpt>
      <trkpt lat="63.48274" lon="19.18559">
        <ele>104.29873</ele>
        <time>2020-10-02T09:27:57.592Z</time>
      </trkpt>
      <trkpt lat="63.48279" lon="19.18538">
        <ele>104.536883</ele>
        <time>2020-10-02T09:28:00.597Z</time>
      </trkpt>
      <trkpt lat="63.48283" lon="19.18516">
        <ele>104.789754</ele>
        <time>2020-10-02T09:28:03.586Z</time>
      </trkpt>
      <trkpt lat="63.48288" lon="19.18494">
        <ele>105.03887</ele>
        <time>2020-10-02T09:28:06.616Z</time>
      </trkpt>
      <trkpt lat="63.48293" lon="19.1847">
        <ele>105.304008</ele>
        <time>2020-10-02T09:28:09.582Z</time>
      </trkpt>
      <trkpt lat="63.48298" lon="19.18446">
        <ele>105.580806</ele>
        <time>2020-10-02T09:28:12.598Z</time>
      </trkpt>
      <trkpt lat="63.48303" lon="19.18423">
        <ele>105.849232</ele>
        <time>2020-10-02T09:28:15.583Z</time>
      </trkpt>
      <trkpt lat="63.48309" lon="19.18401">
        <ele>106.105878</ele>
        <time>2020-10-02T09:28:18.605Z</time>
      </trkpt>
      <trkpt lat="63.48315" lon="19.1838">
        <ele>106.363288</ele>
        <time>2020-10-02T09:28:21.597Z</time>
      </trkpt>
      <trkpt lat="63.4832" lon="19.18357">
        <ele>106.513551</ele>
        <time>2020-10-02T09:28:24.587Z</time>
      </trkpt>
      <trkpt lat="63.48326" lon="19.18334">
        <ele>106.627282</ele>
        <time>2020-10-02T09:28:27.586Z</time>
      </trkpt>
      <trkpt lat="63.48331" lon="19.18311">
        <ele>106.742619</ele>
        <time>2020-10-02T09:28:30.603Z</time>
      </trkpt>
      <trkpt lat="63.48337" lon="19.18287">
        <ele>106.859918</ele>
        <time>2020-10-02T09:28:33.614Z</time>
      </trkpt>
      <trkpt lat="63.48343" lon="19.18263">
        <ele>106.978349</ele>
        <time>2020-10-02T09:28:36.629Z</time>
      </trkpt>
      <trkpt lat="63.48348" lon="19.18241">
        <ele>107.089007</ele>
        <time>2020-10-02T09:28:39.590Z</time>
      </trkpt>
      <trkpt lat="63.48354" lon="19.18218">
        <ele>107.201742</ele>
        <time>2020-10-02T09:28:42.586Z</time>
      </trkpt>
      <trkpt lat="63.4836" lon="19.18196">
        <ele>107.316538</ele>
        <time>2020-10-02T09:28:45.598Z</time>
      </trkpt>
      <trkpt lat="63.48366" lon="19.18173">
        <ele>107.428991</ele>
        <time>2020-10-02T09:28:48.587Z</time>
      </trkpt>
      <trkpt lat="63.48371" lon="19.18152">
        <ele>107.53708</ele>
        <time>2020-10-02T09:28:51.620Z</time>
      </trkpt>
      <trkpt lat="63.48377" lon="19.18129">
        <ele>107.650391</ele>
        <time>2020-10-02T09:28:54.569Z</time>
      </trkpt>
      <trkpt lat="63.48383" lon="19.18108">
        <ele>107.759236</ele>
        <time>2020-10-02T09:28:57.591Z</time>
      </trkpt>
      <trkpt lat="63.48388" lon="19.18089">
        <ele>107.85463</ele>
        <time>2020-10-02T09:29:00.577Z</time>
      </trkpt>
      <trkpt lat="63.48392" lon="19.18069">
        <ele>107.950288</ele>
        <time>2020-10-02T09:29:03.584Z</time>
      </trkpt>
      <trkpt lat="63.48396" lon="19.18049">
        <ele>108.047171</ele>
        <time>2020-10-02T09:29:06.605Z</time>
      </trkpt>
      <trkpt lat="63.48401" lon="19.18029">
        <ele>108.142066</ele>
        <time>2020-10-02T09:29:09.598Z</time>
      </trkpt>
      <trkpt lat="63.48404" lon="19.18009">
        <ele>108.432326</ele>
        <time>2020-10-02T09:29:12.581Z</time>
      </trkpt>
      <trkpt lat="63.48407" lon="19.17989">
        <ele>108.827871</ele>
        <time>2020-10-02T09:29:15.583Z</time>
      </trkpt>
      <trkpt lat="63.48409" lon="19.1797">
        <ele>109.221039</ele>
        <time>2020-10-02T09:29:18.603Z</time>
      </trkpt>
      <trkpt lat="63.48412" lon="19.17947">
        <ele>109.676693</ele>
        <time>2020-10-02T09:29:22.591Z</time>
      </trkpt>
      <trkpt lat="63.48414" lon="19.17926">
        <ele>110.08446</ele>
        <time>2020-10-02T09:29:26.582Z</time>
      </trkpt>
      <trkpt lat="63.48415" lon="19.17904">
        <ele>110.509941</ele>
        <time>2020-10-02T09:29:30.602Z</time>
      </trkpt>
      <trkpt lat="63.48416" lon="19.17884">
        <ele>110.898721</ele>
        <time>2020-10-02T09:29:34.569Z</time>
      </trkpt>
      <trkpt lat="63.48416" lon="19.17859">
        <ele>111.375028</ele>
        <time>2020-10-02T09:29:39.578Z</time>
      </trkpt>
      <trkpt lat="63.48416" lon="19.17837">
        <ele>111.810839</ele>
        <time>2020-10-02T09:29:44.614Z</time>
      </trkpt>
      <trkpt lat="63.48416" lon="19.17815">
        <ele>112.221672</ele>
        <time>2020-10-02T09:29:48.606Z</time>
      </trkpt>
      <trkpt lat="63.48416" lon="19.17795">
        <ele>112.620868</ele>
        <time>2020-10-02T09:29:52.599Z</time>
      </trkpt>
      <trkpt lat="63.48416" lon="19.17773">
        <ele>113.031633</ele>
        <time>2020-10-02T09:29:56.598Z</time>
      </trkpt>
      <trkpt lat="63.48416" lon="19.17753">
        <ele>113.429252</ele>
        <time>2020-10-02T09:30:00.626Z</time>
      </trkpt>
      <trkpt lat="63.48414" lon="19.17729">
        <ele>113.887289</ele>
        <time>2020-10-02T09:30:05.594Z</time>
      </trkpt>
      <trkpt lat="63.48414" lon="19.17707">
        <ele>114.315932</ele>
        <time>2020-10-02T09:30:10.620Z</time>
      </trkpt>
      <trkpt lat="63.48414" lon="19.17682">
        <ele>114.788461</ele>
        <time>2020-10-02T09:30:15.581Z</time>
      </trkpt>
      <trkpt lat="63.48413" lon="19.17661">
        <ele>115.202576</ele>
        <time>2020-10-02T09:30:19.581Z</time>
      </trkpt>
      <trkpt lat="63.48413" lon="19.1764">
        <ele>115.60377</ele>
        <time>2020-10-02T09:30:23.602Z</time>
      </trkpt>
      <trkpt lat="63.48411" lon="19.17616">
        <ele>116.042155</ele>
        <time>2020-10-02T09:30:28.584Z</time>
      </trkpt>
      <trkpt lat="63.4841" lon="19.17592">
        <ele>116.423298</ele>
        <time>2020-10-02T09:30:33.632Z</time>
      </trkpt>
      <trkpt lat="63.48408" lon="19.17569">
        <ele>116.770048</ele>
        <time>2020-10-02T09:30:38.587Z</time>
      </trkpt>
      <trkpt lat="63.48408" lon="19.17546">
        <ele>117.127114</ele>
        <time>2020-10-02T09:30:43.580Z</time>
      </trkpt>
      <trkpt lat="63.48408" lon="19.17523">
        <ele>117.474762</ele>
        <time>2020-10-02T09:30:47.601Z</time>
      </trkpt>
      <trkpt lat="63.48407" lon="19.175">
        <ele>117.824999</ele>
        <time>2020-10-02T09:30:51.579Z</time>
      </trkpt>
      <trkpt lat="63.48407" lon="19.17477">
        <ele>118.163893</ele>
        <time>2020-10-02T09:30:55.582Z</time>
      </trkpt>
      <trkpt lat="63.48405" lon="19.17455">
        <ele>118.508756</ele>
        <time>2020-10-02T09:30:59.589Z</time>
      </trkpt>
      <trkpt lat="63.48405" lon="19.17432">
        <ele>118.851151</ele>
        <time>2020-10-02T09:31:03.592Z</time>
      </trkpt>
      <trkpt lat="63.48404" lon="19.17412">
        <ele>119.16001</ele>
        <time>2020-10-02T09:31:07.603Z</time>
      </trkpt>
      <trkpt lat="63.48403" lon="19.17391">
        <ele>119.479664</ele>
        <time>2020-10-02T09:31:11.619Z</time>
      </trkpt>
      <trkpt lat="63.48401" lon="19.17371">
        <ele>119.787307</ele>
        <time>2020-10-02T09:31:15.592Z</time>
      </trkpt>
      <trkpt lat="63.48398" lon="19.17348">
        <ele>120.157717</ele>
        <time>2020-10-02T09:31:20.593Z</time>
      </trkpt>
      <trkpt lat="63.48395" lon="19.17328">
        <ele>120.470944</ele>
        <time>2020-10-02T09:31:24.577Z</time>
      </trkpt>
      <trkpt lat="63.48392" lon="19.17308">
        <ele>120.80215</ele>
        <time>2020-10-02T09:31:28.607Z</time>
      </trkpt>
      <trkpt lat="63.48389" lon="19.17287">
        <ele>121.137675</ele>
        <time>2020-10-02T09:31:32.586Z</time>
      </trkpt>
      <trkpt lat="63.48386" lon="19.17264">
        <ele>121.495846</ele>
        <time>2020-10-02T09:31:36.606Z</time>
      </trkpt>
      <trkpt lat="63.48383" lon="19.17242">
        <ele>121.850149</ele>
        <time>2020-10-02T09:31:40.602Z</time>
      </trkpt>
      <trkpt lat="63.4838" lon="19.17219">
        <ele>121.999099</ele>
        <time>2020-10-02T09:31:44.584Z</time>
      </trkpt>
      <trkpt lat="63.48377" lon="19.172">
        <ele>121.871611</ele>
        <time>2020-10-02T09:31:47.609Z</time>
      </trkpt>
      <trkpt lat="63.48372" lon="19.17177">
        <ele>121.713881</ele>
        <time>2020-10-02T09:31:50.620Z</time>
      </trkpt>
      <trkpt lat="63.48368" lon="19.17151">
        <ele>121.536274</ele>
        <time>2020-10-02T09:31:53.607Z</time>
      </trkpt>
      <trkpt lat="63.48365" lon="19.17132">
        <ele>121.407568</ele>
        <time>2020-10-02T09:31:55.617Z</time>
      </trkpt>
      <trkpt lat="63.48361" lon="19.17112">
        <ele>121.265464</ele>
        <time>2020-10-02T09:31:57.609Z</time>
      </trkpt>
      <trkpt lat="63.48357" lon="19.1709">
        <ele>121.114585</ele>
        <time>2020-10-02T09:31:59.589Z</time>
      </trkpt>
      <trkpt lat="63.48353" lon="19.17066">
        <ele>120.956973</ele>
        <time>2020-10-02T09:32:01.596Z</time>
      </trkpt>
      <trkpt lat="63.48349" lon="19.17043">
        <ele>120.797686</ele>
        <time>2020-10-02T09:32:03.581Z</time>
      </trkpt>
      <trkpt lat="63.48345" lon="19.17018">
        <ele>120.629072</ele>
        <time>2020-10-02T09:32:05.608Z</time>
      </trkpt>
      <trkpt lat="63.48342" lon="19.16992">
        <ele>120.460333</ele>
        <time>2020-10-02T09:32:07.583Z</time>
      </trkpt>
      <trkpt lat="63.48338" lon="19.16967">
        <ele>120.286928</ele>
        <time>2020-10-02T09:32:09.641Z</time>
      </trkpt>
      <trkpt lat="63.48333" lon="19.16941">
        <ele>120.114954</ele>
        <time>2020-10-02T09:32:11.597Z</time>
      </trkpt>
      <trkpt lat="63.48329" lon="19.16914">
        <ele>119.932061</ele>
        <time>2020-10-02T09:32:13.603Z</time>
      </trkpt>
      <trkpt lat="63.48325" lon="19.16887">
        <ele>119.746613</ele>
        <time>2020-10-02T09:32:15.606Z</time>
      </trkpt>
      <trkpt lat="63.48321" lon="19.16859">
        <ele>119.561611</ele>
        <time>2020-10-02T09:32:17.602Z</time>
      </trkpt>
      <trkpt lat="63.48318" lon="19.16832">
        <ele>119.681255</ele>
        <time>2020-10-02T09:32:19.589Z</time>
      </trkpt>
      <trkpt lat="63.48316" lon="19.16808">
        <ele>119.936515</ele>
        <time>2020-10-02T09:32:21.603Z</time>
      </trkpt>
      <trkpt lat="63.48311" lon="19.1678">
        <ele>120.243866</ele>
        <time>2020-10-02T09:32:24.582Z</time>
      </trkpt>
      <trkpt lat="63.48307" lon="19.1676">
        <ele>120.457986</ele>
        <time>2020-10-02T09:32:26.597Z</time>
      </trkpt>
      <trkpt lat="63.48303" lon="19.16742">
        <ele>120.669512</ele>
        <time>2020-10-02T09:32:28.907Z</time>
      </trkpt>
      <trkpt lat="63.48298" lon="19.16724">
        <ele>120.88461</ele>
        <time>2020-10-02T09:32:30.585Z</time>
      </trkpt>
      <trkpt lat="63.48293" lon="19.16708">
        <ele>121.092034</ele>
        <time>2020-10-02T09:32:32.604Z</time>
      </trkpt>
      <trkpt lat="63.48285" lon="19.16689">
        <ele>121.362692</ele>
        <time>2020-10-02T09:32:35.575Z</time>
      </trkpt>
      <trkpt lat="63.48278" lon="19.16674">
        <ele>121.575372</ele>
        <time>2020-10-02T09:32:38.638Z</time>
      </trkpt>
      <trkpt lat="63.48271" lon="19.16656">
        <ele>121.814344</ele>
        <time>2020-10-02T09:32:42.601Z</time>
      </trkpt>
      <trkpt lat="63.48264" lon="19.16639">
        <ele>122.059022</ele>
        <time>2020-10-02T09:32:46.590Z</time>
      </trkpt>
      <trkpt lat="63.48257" lon="19.16619">
        <ele>122.310863</ele>
        <time>2020-10-02T09:32:50.583Z</time>
      </trkpt>
      <trkpt lat="63.4825" lon="19.16604">
        <ele>122.528736</ele>
        <time>2020-10-02T09:32:53.583Z</time>
      </trkpt>
      <trkpt lat="63.48243" lon="19.16589">
        <ele>122.759632</ele>
        <time>2020-10-02T09:32:56.581Z</time>
      </trkpt>
      <trkpt lat="63.48235" lon="19.16576">
        <ele>122.97139</ele>
        <time>2020-10-02T09:32:59.587Z</time>
      </trkpt>
      <trkpt lat="63.48228" lon="19.16563">
        <ele>123.190311</ele>
        <time>2020-10-02T09:33:02.602Z</time>
      </trkpt>
      <trkpt lat="63.4822" lon="19.16551">
        <ele>123.405394</ele>
        <time>2020-10-02T09:33:05.649Z</time>
      </trkpt>
      <trkpt lat="63.48211" lon="19.16544">
        <ele>123.625341</ele>
        <time>2020-10-02T09:33:08.603Z</time>
      </trkpt>
      <trkpt lat="63.48202" lon="19.16535">
        <ele>123.936954</ele>
        <time>2020-10-02T09:33:11.575Z</time>
      </trkpt>
      <trkpt lat="63.48193" lon="19.16525">
        <ele>124.245331</ele>
        <time>2020-10-02T09:33:14.607Z</time>
      </trkpt>
      <trkpt lat="63.48185" lon="19.16514">
        <ele>124.544824</ele>
        <time>2020-10-02T09:33:17.590Z</time>
      </trkpt>
      <trkpt lat="63.48176" lon="19.16506">
        <ele>124.830196</ele>
        <time>2020-10-02T09:33:20.573Z</time>
      </trkpt>
      <trkpt lat="63.48167" lon="19.16497">
        <ele>125.157127</ele>
        <time>2020-10-02T09:33:24.588Z</time>
      </trkpt>
      <trkpt lat="63.48157" lon="19.16489">
        <ele>125.480737</ele>
        <time>2020-10-02T09:33:28.587Z</time>
      </trkpt>
      <trkpt lat="63.48146" lon="19.1648">
        <ele>125.837514</ele>
        <time>2020-10-02T09:33:32.575Z</time>
      </trkpt>
      <trkpt lat="63.48136" lon="19.16471">
        <ele>126.196309</ele>
        <time>2020-10-02T09:33:36.577Z</time>
      </trkpt>
      <trkpt lat="63.48125" lon="19.16464">
        <ele>126.555924</ele>
        <time>2020-10-02T09:33:40.598Z</time>
      </trkpt>
      <trkpt lat="63.48113" lon="19.16457">
        <ele>126.92369</ele>
        <time>2020-10-02T09:33:44.615Z</time>
      </trkpt>
      <trkpt lat="63.48104" lon="19.16451">
        <ele>127.212535</ele>
        <time>2020-10-02T09:33:47.591Z</time>
      </trkpt>
      <trkpt lat="63.48095" lon="19.16446">
        <ele>127.507013</ele>
        <time>2020-10-02T09:33:50.583Z</time>
      </trkpt>
      <trkpt lat="63.48086" lon="19.16441">
        <ele>127.79538</ele>
        <time>2020-10-02T09:33:53.587Z</time>
      </trkpt>
      <trkpt lat="63.48076" lon="19.16433">
        <ele>128.139887</ele>
        <time>2020-10-02T09:33:57.614Z</time>
      </trkpt>
      <trkpt lat="63.48065" lon="19.16426">
        <ele>128.492585</ele>
        <time>2020-10-02T09:34:01.594Z</time>
      </trkpt>
      <trkpt lat="63.48054" lon="19.16419">
        <ele>128.839646</ele>
        <time>2020-10-02T09:34:05.585Z</time>
      </trkpt>
      <trkpt lat="63.48044" lon="19.16415">
        <ele>129.172718</ele>
        <time>2020-10-02T09:34:09.597Z</time>
      </trkpt>
      <trkpt lat="63.48035" lon="19.16409">
        <ele>129.424348</ele>
        <time>2020-10-02T09:34:12.603Z</time>
      </trkpt>
      <trkpt lat="63.48024" lon="19.16402">
        <ele>129.744655</ele>
        <time>2020-10-02T09:34:16.597Z</time>
      </trkpt>
      <trkpt lat="63.48013" lon="19.16393">
        <ele>130.056804</ele>
        <time>2020-10-02T09:34:20.579Z</time>
      </trkpt>
      <trkpt lat="63.48003" lon="19.16383">
        <ele>130.354312</ele>
        <time>2020-10-02T09:34:24.627Z</time>
      </trkpt>
      <trkpt lat="63.47993" lon="19.16375">
        <ele>130.642413</ele>
        <time>2020-10-02T09:34:28.597Z</time>
      </trkpt>
      <trkpt lat="63.47984" lon="19.16366">
        <ele>130.893673</ele>
        <time>2020-10-02T09:34:32.619Z</time>
      </trkpt>
      <trkpt lat="63.47974" lon="19.16354">
        <ele>131.193117</ele>
        <time>2020-10-02T09:34:37.592Z</time>
      </trkpt>
      <trkpt lat="63.47966" lon="19.16344">
        <ele>131.454198</ele>
        <time>2020-10-02T09:34:41.578Z</time>
      </trkpt>
      <trkpt lat="63.47958" lon="19.16334">
        <ele>131.699384</ele>
        <time>2020-10-02T09:34:44.603Z</time>
      </trkpt>
      <trkpt lat="63.47949" lon="19.16324">
        <ele>131.978076</ele>
        <time>2020-10-02T09:34:47.590Z</time>
      </trkpt>
      <trkpt lat="63.47939" lon="19.16315">
        <ele>132.252245</ele>
        <time>2020-10-02T09:34:50.597Z</time>
      </trkpt>
      <trkpt lat="63.47931" lon="19.16304">
        <ele>132.522177</ele>
        <time>2020-10-02T09:34:53.600Z</time>
      </trkpt>
      <trkpt lat="63.47922" lon="19.16293">
        <ele>132.779977</ele>
        <time>2020-10-02T09:34:56.586Z</time>
      </trkpt>
      <trkpt lat="63.47915" lon="19.16284">
        <ele>133.021644</ele>
        <time>2020-10-02T09:34:59.588Z</time>
      </trkpt>
      <trkpt lat="63.47906" lon="19.16274">
        <ele>133.280695</ele>
        <time>2020-10-02T09:35:02.578Z</time>
      </trkpt>
      <trkpt lat="63.47897" lon="19.16265">
        <ele>133.53573</ele>
        <time>2020-10-02T09:35:05.591Z</time>
      </trkpt>
      <trkpt lat="63.47887" lon="19.16251">
        <ele>133.855802</ele>
        <time>2020-10-02T09:35:09.593Z</time>
      </trkpt>
      <trkpt lat="63.47879" lon="19.16242">
        <ele>134.081892</ele>
        <time>2020-10-02T09:35:12.613Z</time>
      </trkpt>
      <trkpt lat="63.4787" lon="19.1623">
        <ele>134.114524</ele>
        <time>2020-10-02T09:35:16.598Z</time>
      </trkpt>
      <trkpt lat="63.47859" lon="19.16219">
        <ele>134.14885</ele>
        <time>2020-10-02T09:35:20.601Z</time>
      </trkpt>
      <trkpt lat="63.4785" lon="19.16207">
        <ele>134.181548</ele>
        <time>2020-10-02T09:35:23.613Z</time>
      </trkpt>
      <trkpt lat="63.4784" lon="19.16194">
        <ele>134.216405</ele>
        <time>2020-10-02T09:35:26.624Z</time>
      </trkpt>
      <trkpt lat="63.4783" lon="19.16182">
        <ele>134.251263</ele>
        <time>2020-10-02T09:35:29.628Z</time>
      </trkpt>
      <trkpt lat="63.47819" lon="19.16169">
        <ele>134.28632</ele>
        <time>2020-10-02T09:35:32.605Z</time>
      </trkpt>
      <trkpt lat="63.4781" lon="19.16157">
        <ele>134.319477</ele>
        <time>2020-10-02T09:35:35.598Z</time>
      </trkpt>
      <trkpt lat="63.478" lon="19.16146">
        <ele>134.352195</ele>
        <time>2020-10-02T09:35:38.582Z</time>
      </trkpt>
      <trkpt lat="63.4779" lon="19.16135">
        <ele>134.385957</ele>
        <time>2020-10-02T09:35:41.596Z</time>
      </trkpt>
      <trkpt lat="63.47779" lon="19.16124">
        <ele>134.420048</ele>
        <time>2020-10-02T09:35:44.573Z</time>
      </trkpt>
      <trkpt lat="63.47771" lon="19.16113">
        <ele>134.450392</ele>
        <time>2020-10-02T09:35:47.603Z</time>
      </trkpt>
      <trkpt lat="63.47762" lon="19.16102">
        <ele>134.480612</ele>
        <time>2020-10-02T09:35:50.620Z</time>
      </trkpt>
      <trkpt lat="63.47753" lon="19.16091">
        <ele>134.511688</ele>
        <time>2020-10-02T09:35:53.633Z</time>
      </trkpt>
      <trkpt lat="63.47744" lon="19.16078">
        <ele>134.543111</ele>
        <time>2020-10-02T09:35:56.616Z</time>
      </trkpt>
      <trkpt lat="63.47735" lon="19.16066">
        <ele>134.575549</ele>
        <time>2020-10-02T09:35:59.582Z</time>
      </trkpt>
      <trkpt lat="63.47726" lon="19.16054">
        <ele>134.606832</ele>
        <time>2020-10-02T09:36:02.610Z</time>
      </trkpt>
      <trkpt lat="63.47716" lon="19.16043">
        <ele>134.419698</ele>
        <time>2020-10-02T09:36:05.582Z</time>
      </trkpt>
      <trkpt lat="63.47706" lon="19.16032">
        <ele>134.085494</ele>
        <time>2020-10-02T09:36:08.577Z</time>
      </trkpt>
      <trkpt lat="63.47696" lon="19.16021">
        <ele>133.752256</ele>
        <time>2020-10-02T09:36:11.607Z</time>
      </trkpt>
      <trkpt lat="63.47686" lon="19.16008">
        <ele>133.39886</ele>
        <time>2020-10-02T09:36:14.589Z</time>
      </trkpt>
      <trkpt lat="63.47674" lon="19.15994">
        <ele>133.02216</ele>
        <time>2020-10-02T09:36:17.588Z</time>
      </trkpt>
      <trkpt lat="63.47664" lon="19.15979">
        <ele>132.662061</ele>
        <time>2020-10-02T09:36:20.600Z</time>
      </trkpt>
      <trkpt lat="63.47655" lon="19.15962">
        <ele>132.307681</ele>
        <time>2020-10-02T09:36:23.608Z</time>
      </trkpt>
      <trkpt lat="63.47645" lon="19.15944">
        <ele>131.920023</ele>
        <time>2020-10-02T09:36:26.613Z</time>
      </trkpt>
      <trkpt lat="63.47638" lon="19.15931">
        <ele>131.646407</ele>
        <time>2020-10-02T09:36:28.587Z</time>
      </trkpt>
      <trkpt lat="63.47628" lon="19.15909">
        <ele>131.244493</ele>
        <time>2020-10-02T09:36:31.579Z</time>
      </trkpt>
      <trkpt lat="63.47621" lon="19.15894">
        <ele>130.954871</ele>
        <time>2020-10-02T09:36:33.608Z</time>
      </trkpt>
      <trkpt lat="63.47614" lon="19.15878">
        <ele>130.658241</ele>
        <time>2020-10-02T09:36:35.597Z</time>
      </trkpt>
      <trkpt lat="63.47607" lon="19.15862">
        <ele>130.366534</ele>
        <time>2020-10-02T09:36:37.604Z</time>
      </trkpt>
      <trkpt lat="63.47601" lon="19.15847">
        <ele>130.091801</ele>
        <time>2020-10-02T09:36:39.586Z</time>
      </trkpt>
      <trkpt lat="63.47592" lon="19.15826">
        <ele>129.711189</ele>
        <time>2020-10-02T09:36:42.581Z</time>
      </trkpt>
      <trkpt lat="63.47584" lon="19.15805">
        <ele>129.333679</ele>
        <time>2020-10-02T09:36:45.609Z</time>
      </trkpt>
      <trkpt lat="63.47575" lon="19.15784">
        <ele>129.343187</ele>
        <time>2020-10-02T09:36:48.590Z</time>
      </trkpt>
      <trkpt lat="63.47567" lon="19.15764">
        <ele>129.407612</ele>
        <time>2020-10-02T09:36:51.598Z</time>
      </trkpt>
      <trkpt lat="63.4756" lon="19.15746">
        <ele>129.470937</ele>
        <time>2020-10-02T09:36:54.619Z</time>
      </trkpt>
      <trkpt lat="63.47552" lon="19.15725">
        <ele>129.537753</ele>
        <time>2020-10-02T09:36:57.615Z</time>
      </trkpt>
      <trkpt lat="63.47543" lon="19.15705">
        <ele>129.608509</ele>
        <time>2020-10-02T09:37:00.602Z</time>
      </trkpt>
      <trkpt lat="63.47534" lon="19.15686">
        <ele>129.676715</ele>
        <time>2020-10-02T09:37:03.574Z</time>
      </trkpt>
      <trkpt lat="63.47525" lon="19.15668">
        <ele>129.741661</ele>
        <time>2020-10-02T09:37:06.584Z</time>
      </trkpt>
      <trkpt lat="63.47518" lon="19.1565">
        <ele>129.800744</ele>
        <time>2020-10-02T09:37:09.580Z</time>
      </trkpt>
      <trkpt lat="63.47511" lon="19.15635">
        <ele>129.855522</ele>
        <time>2020-10-02T09:37:12.588Z</time>
      </trkpt>
      <trkpt lat="63.47504" lon="19.15618">
        <ele>129.913479</ele>
        <time>2020-10-02T09:37:15.598Z</time>
      </trkpt>
      <trkpt lat="63.47497" lon="19.15599">
        <ele>129.974761</ele>
        <time>2020-10-02T09:37:18.620Z</time>
      </trkpt>
      <trkpt lat="63.47488" lon="19.15579">
        <ele>130.042707</ele>
        <time>2020-10-02T09:37:21.594Z</time>
      </trkpt>
      <trkpt lat="63.47479" lon="19.15556">
        <ele>130.11765</ele>
        <time>2020-10-02T09:37:24.580Z</time>
      </trkpt>
      <trkpt lat="63.47474" lon="19.1554">
        <ele>130.168267</ele>
        <time>2020-10-02T09:37:26.629Z</time>
      </trkpt>
      <trkpt lat="63.47468" lon="19.15524">
        <ele>130.219222</ele>
        <time>2020-10-02T09:37:28.583Z</time>
      </trkpt>
      <trkpt lat="63.47463" lon="19.15508">
        <ele>130.269192</ele>
        <time>2020-10-02T09:37:30.589Z</time>
      </trkpt>
      <trkpt lat="63.47458" lon="19.15491">
        <ele>130.156475</ele>
        <time>2020-10-02T09:37:32.578Z</time>
      </trkpt>
      <trkpt lat="63.47452" lon="19.15472">
        <ele>129.994897</ele>
        <time>2020-10-02T09:37:34.616Z</time>
      </trkpt>
      <trkpt lat="63.47447" lon="19.15454">
        <ele>129.833998</ele>
        <time>2020-10-02T09:37:36.588Z</time>
      </trkpt>
      <trkpt lat="63.47442" lon="19.15434">
        <ele>129.665043</ele>
        <time>2020-10-02T09:37:38.615Z</time>
      </trkpt>
      <trkpt lat="63.47437" lon="19.15412">
        <ele>129.48728</ele>
        <time>2020-10-02T09:37:40.597Z</time>
      </trkpt>
      <trkpt lat="63.47433" lon="19.15391">
        <ele>129.314496</ele>
        <time>2020-10-02T09:37:42.588Z</time>
      </trkpt>
      <trkpt lat="63.47429" lon="19.15369">
        <ele>129.134238</ele>
        <time>2020-10-02T09:37:44.573Z</time>
      </trkpt>
      <trkpt lat="63.47426" lon="19.15344">
        <ele>128.944373</ele>
        <time>2020-10-02T09:37:46.581Z</time>
      </trkpt>
      <trkpt lat="63.47423" lon="19.15321">
        <ele>128.763708</ele>
        <time>2020-10-02T09:37:48.587Z</time>
      </trkpt>
      <trkpt lat="63.4742" lon="19.15299">
        <ele>128.597025</ele>
        <time>2020-10-02T09:37:50.594Z</time>
      </trkpt>
      <trkpt lat="63.47418" lon="19.15276">
        <ele>128.422667</ele>
        <time>2020-10-02T09:37:52.606Z</time>
      </trkpt>
      <trkpt lat="63.47414" lon="19.15251">
        <ele>128.234439</ele>
        <time>2020-10-02T09:37:54.601Z</time>
      </trkpt>
      <trkpt lat="63.47411" lon="19.15229">
        <ele>128.055681</ele>
        <time>2020-10-02T09:37:56.618Z</time>
      </trkpt>
      <trkpt lat="63.47407" lon="19.15208">
        <ele>127.892242</ele>
        <time>2020-10-02T09:37:58.599Z</time>
      </trkpt>
      <trkpt lat="63.47402" lon="19.15188">
        <ele>127.725841</ele>
        <time>2020-10-02T09:38:00.649Z</time>
      </trkpt>
      <trkpt lat="63.47397" lon="19.15166">
        <ele>127.537418</ele>
        <time>2020-10-02T09:38:02.592Z</time>
      </trkpt>
      <trkpt lat="63.47389" lon="19.15144">
        <ele>127.331824</ele>
        <time>2020-10-02T09:38:04.586Z</time>
      </trkpt>
      <trkpt lat="63.47381" lon="19.15123">
        <ele>126.777417</ele>
        <time>2020-10-02T09:38:06.611Z</time>
      </trkpt>
      <trkpt lat="63.47372" lon="19.15104">
        <ele>126.19394</ele>
        <time>2020-10-02T09:38:08.585Z</time>
      </trkpt>
      <trkpt lat="63.47363" lon="19.15088">
        <ele>125.62936</ele>
        <time>2020-10-02T09:38:10.602Z</time>
      </trkpt>
      <trkpt lat="63.47353" lon="19.1507">
        <ele>125.009786</ele>
        <time>2020-10-02T09:38:12.588Z</time>
      </trkpt>
      <trkpt lat="63.47342" lon="19.15051">
        <ele>124.354786</ele>
        <time>2020-10-02T09:38:14.593Z</time>
      </trkpt>
      <trkpt lat="63.47332" lon="19.15031">
        <ele>123.691957</ele>
        <time>2020-10-02T09:38:16.605Z</time>
      </trkpt>
      <trkpt lat="63.47321" lon="19.15011">
        <ele>123.039655</ele>
        <time>2020-10-02T09:38:18.602Z</time>
      </trkpt>
      <trkpt lat="63.47311" lon="19.14992">
        <ele>122.40391</ele>
        <time>2020-10-02T09:38:20.597Z</time>
      </trkpt>
      <trkpt lat="63.47302" lon="19.14973">
        <ele>121.780284</ele>
        <time>2020-10-02T09:38:22.622Z</time>
      </trkpt>
      <trkpt lat="63.47293" lon="19.14954">
        <ele>121.184744</ele>
        <time>2020-10-02T09:38:24.637Z</time>
      </trkpt>
      <trkpt lat="63.47284" lon="19.14937">
        <ele>120.617014</ele>
        <time>2020-10-02T09:38:26.601Z</time>
      </trkpt>
      <trkpt lat="63.47275" lon="19.1492">
        <ele>120.050155</ele>
        <time>2020-10-02T09:38:28.599Z</time>
      </trkpt>
      <trkpt lat="63.47266" lon="19.14902">
        <ele>119.471772</ele>
        <time>2020-10-02T09:38:30.592Z</time>
      </trkpt>
      <trkpt lat="63.47256" lon="19.14885">
        <ele>118.889159</ele>
        <time>2020-10-02T09:38:32.600Z</time>
      </trkpt>
      <trkpt lat="63.47247" lon="19.14865">
        <ele>118.373399</ele>
        <time>2020-10-02T09:38:34.623Z</time>
      </trkpt>
      <trkpt lat="63.47237" lon="19.14845">
        <ele>117.927762</ele>
        <time>2020-10-02T09:38:36.585Z</time>
      </trkpt>
      <trkpt lat="63.47228" lon="19.14826">
        <ele>117.493006</ele>
        <time>2020-10-02T09:38:38.601Z</time>
      </trkpt>
      <trkpt lat="63.47219" lon="19.14806">
        <ele>117.044495</ele>
        <time>2020-10-02T09:38:40.608Z</time>
      </trkpt>
      <trkpt lat="63.47209" lon="19.14783">
        <ele>116.567041</ele>
        <time>2020-10-02T09:38:42.573Z</time>
      </trkpt>
      <trkpt lat="63.47199" lon="19.14759">
        <ele>116.071441</ele>
        <time>2020-10-02T09:38:44.599Z</time>
      </trkpt>
      <trkpt lat="63.4719" lon="19.14735">
        <ele>115.587238</ele>
        <time>2020-10-02T09:38:46.594Z</time>
      </trkpt>
      <trkpt lat="63.47181" lon="19.14713">
        <ele>115.130285</ele>
        <time>2020-10-02T09:38:48.598Z</time>
      </trkpt>
      <trkpt lat="63.47172" lon="19.14693">
        <ele>114.703568</ele>
        <time>2020-10-02T09:38:50.581Z</time>
      </trkpt>
      <trkpt lat="63.47163" lon="19.14676">
        <ele>114.292267</ele>
        <time>2020-10-02T09:38:52.603Z</time>
      </trkpt>
      <trkpt lat="63.47154" lon="19.14659">
        <ele>113.885459</ele>
        <time>2020-10-02T09:38:54.600Z</time>
      </trkpt>
      <trkpt lat="63.47143" lon="19.14642">
        <ele>113.445813</ele>
        <time>2020-10-02T09:38:56.604Z</time>
      </trkpt>
      <trkpt lat="63.47132" lon="19.14626">
        <ele>112.976888</ele>
        <time>2020-10-02T09:38:58.586Z</time>
      </trkpt>
      <trkpt lat="63.47119" lon="19.14611">
        <ele>112.479202</ele>
        <time>2020-10-02T09:39:00.588Z</time>
      </trkpt>
      <trkpt lat="63.47105" lon="19.14593">
        <ele>111.950307</ele>
        <time>2020-10-02T09:39:02.627Z</time>
      </trkpt>
      <trkpt lat="63.4709" lon="19.14578">
        <ele>111.415829</ele>
        <time>2020-10-02T09:39:04.607Z</time>
      </trkpt>
      <trkpt lat="63.47076" lon="19.14561">
        <ele>110.886688</ele>
        <time>2020-10-02T09:39:06.576Z</time>
      </trkpt>
      <trkpt lat="63.47063" lon="19.14544">
        <ele>110.377292</ele>
        <time>2020-10-02T09:39:08.583Z</time>
      </trkpt>
      <trkpt lat="63.47051" lon="19.14524">
        <ele>109.884502</ele>
        <time>2020-10-02T09:39:10.597Z</time>
      </trkpt>
      <trkpt lat="63.47041" lon="19.14501">
        <ele>109.403321</ele>
        <time>2020-10-02T09:39:12.607Z</time>
      </trkpt>
      <trkpt lat="63.47033" lon="19.14475">
        <ele>108.946703</ele>
        <time>2020-10-02T09:39:14.576Z</time>
      </trkpt>
      <trkpt lat="63.47026" lon="19.14449">
        <ele>108.494985</ele>
        <time>2020-10-02T09:39:16.580Z</time>
      </trkpt>
      <trkpt lat="63.47021" lon="19.1442">
        <ele>108.038482</ele>
        <time>2020-10-02T09:39:18.621Z</time>
      </trkpt>
      <trkpt lat="63.47015" lon="19.14394">
        <ele>107.608978</ele>
        <time>2020-10-02T09:39:20.604Z</time>
      </trkpt>
      <trkpt lat="63.4701" lon="19.14366">
        <ele>107.165792</ele>
        <time>2020-10-02T09:39:22.607Z</time>
      </trkpt>
      <trkpt lat="63.47005" lon="19.14342">
        <ele>106.769188</ele>
        <time>2020-10-02T09:39:24.641Z</time>
      </trkpt>
      <trkpt lat="63.47" lon="19.14324">
        <ele>106.563343</ele>
        <time>2020-10-02T09:39:26.603Z</time>
      </trkpt>
      <trkpt lat="63.46995" lon="19.14305">
        <ele>106.770925</ele>
        <time>2020-10-02T09:39:29.571Z</time>
      </trkpt>
      <trkpt lat="63.4699" lon="19.14284">
        <ele>106.98819</ele>
        <time>2020-10-02T09:39:32.606Z</time>
      </trkpt>
      <trkpt lat="63.46987" lon="19.14265">
        <ele>107.183837</ele>
        <time>2020-10-02T09:39:34.599Z</time>
      </trkpt>
      <trkpt lat="63.46984" lon="19.14241">
        <ele>107.423036</ele>
        <time>2020-10-02T09:39:36.606Z</time>
      </trkpt>
      <trkpt lat="63.46982" lon="19.14217">
        <ele>107.655694</ele>
        <time>2020-10-02T09:39:38.598Z</time>
      </trkpt>
      <trkpt lat="63.46981" lon="19.14194">
        <ele>107.865887</ele>
        <time>2020-10-02T09:39:40.606Z</time>
      </trkpt>
      <trkpt lat="63.46981" lon="19.14174">
        <ele>108.056537</ele>
        <time>2020-10-02T09:39:42.630Z</time>
      </trkpt>
      <trkpt lat="63.46981" lon="19.14154">
        <ele>108.247221</ele>
        <time>2020-10-02T09:39:44.587Z</time>
      </trkpt>
      <trkpt lat="63.46981" lon="19.14125">
        <ele>108.518374</ele>
        <time>2020-10-02T09:39:47.616Z</time>
      </trkpt>
      <trkpt lat="63.4698" lon="19.14098">
        <ele>108.778326</ele>
        <time>2020-10-02T09:39:50.612Z</time>
      </trkpt>
      <trkpt lat="63.4698" lon="19.14071">
        <ele>109.029506</ele>
        <time>2020-10-02T09:39:53.623Z</time>
      </trkpt>
      <trkpt lat="63.46981" lon="19.14044">
        <ele>109.283454</ele>
        <time>2020-10-02T09:39:56.597Z</time>
      </trkpt>
      <trkpt lat="63.46981" lon="19.14018">
        <ele>109.53638</ele>
        <time>2020-10-02T09:39:59.598Z</time>
      </trkpt>
      <trkpt lat="63.46981" lon="19.1399">
        <ele>109.797163</ele>
        <time>2020-10-02T09:40:02.585Z</time>
      </trkpt>
      <trkpt lat="63.46982" lon="19.13969">
        <ele>109.995756</ele>
        <time>2020-10-02T09:40:04.600Z</time>
      </trkpt>
      <trkpt lat="63.46982" lon="19.13945">
        <ele>110.219425</ele>
        <time>2020-10-02T09:40:06.595Z</time>
      </trkpt>
      <trkpt lat="63.46982" lon="19.13919">
        <ele>110.340485</ele>
        <time>2020-10-02T09:40:08.606Z</time>
      </trkpt>
      <trkpt lat="63.46983" lon="19.13891">
        <ele>110.374393</ele>
        <time>2020-10-02T09:40:10.589Z</time>
      </trkpt>
      <trkpt lat="63.46981" lon="19.13864">
        <ele>110.408511</ele>
        <time>2020-10-02T09:40:12.626Z</time>
      </trkpt>
      <trkpt lat="63.46977" lon="19.13837">
        <ele>110.442912</ele>
        <time>2020-10-02T09:40:14.583Z</time>
      </trkpt>
      <trkpt lat="63.46971" lon="19.13813">
        <ele>110.476339</ele>
        <time>2020-10-02T09:40:16.588Z</time>
      </trkpt>
      <trkpt lat="63.46965" lon="19.13792">
        <ele>110.507647</ele>
        <time>2020-10-02T09:40:18.579Z</time>
      </trkpt>
      <trkpt lat="63.46956" lon="19.13774">
        <ele>110.540732</ele>
        <time>2020-10-02T09:40:20.598Z</time>
      </trkpt>
      <trkpt lat="63.46947" lon="19.13759">
        <ele>110.571794</ele>
        <time>2020-10-02T09:40:22.602Z</time>
      </trkpt>
      <trkpt lat="63.46936" lon="19.1375">
        <ele>110.602092</ele>
        <time>2020-10-02T09:40:25.623Z</time>
      </trkpt>
      <trkpt lat="63.46929" lon="19.13738">
        <ele>110.62882</ele>
        <time>2020-10-02T09:40:29.607Z</time>
      </trkpt>
      <trkpt lat="63.46922" lon="19.13724">
        <ele>110.654085</ele>
        <time>2020-10-02T09:40:33.622Z</time>
      </trkpt>
      <trkpt lat="63.46913" lon="19.13706">
        <ele>110.685928</ele>
        <time>2020-10-02T09:40:37.575Z</time>
      </trkpt>
      <trkpt lat="63.46907" lon="19.1369">
        <ele>110.713217</ele>
        <time>2020-10-02T09:40:40.605Z</time>
      </trkpt>
      <trkpt lat="63.469" lon="19.13672">
        <ele>110.740617</ele>
        <time>2020-10-02T09:40:43.626Z</time>
      </trkpt>
      <trkpt lat="63.46893" lon="19.13654">
        <ele>110.769933</ele>
        <time>2020-10-02T09:40:46.599Z</time>
      </trkpt>
      <trkpt lat="63.46888" lon="19.13636">
        <ele>110.79732</ele>
        <time>2020-10-02T09:40:49.589Z</time>
      </trkpt>
      <trkpt lat="63.46883" lon="19.13619">
        <ele>110.868429</ele>
        <time>2020-10-02T09:40:52.596Z</time>
      </trkpt>
      <trkpt lat="63.46877" lon="19.13599">
        <ele>111.111306</ele>
        <time>2020-10-02T09:40:56.617Z</time>
      </trkpt>
      <trkpt lat="63.46872" lon="19.13581">
        <ele>111.323564</ele>
        <time>2020-10-02T09:41:00.605Z</time>
      </trkpt>
      <trkpt lat="63.46866" lon="19.13563">
        <ele>111.538337</ele>
        <time>2020-10-02T09:41:04.588Z</time>
      </trkpt>
      <trkpt lat="63.46861" lon="19.13546">
        <ele>111.742894</ele>
        <time>2020-10-02T09:41:08.597Z</time>
      </trkpt>
      <trkpt lat="63.46856" lon="19.13529">
        <ele>111.94404</ele>
        <time>2020-10-02T09:41:12.609Z</time>
      </trkpt>
      <trkpt lat="63.46851" lon="19.13512">
        <ele>112.147621</ele>
        <time>2020-10-02T09:41:16.602Z</time>
      </trkpt>
      <trkpt lat="63.46844" lon="19.13493">
        <ele>112.390135</ele>
        <time>2020-10-02T09:41:21.597Z</time>
      </trkpt>
      <trkpt lat="63.46839" lon="19.13474">
        <ele>112.613796</ele>
        <time>2020-10-02T09:41:25.584Z</time>
      </trkpt>
      <trkpt lat="63.46833" lon="19.13451">
        <ele>112.881544</ele>
        <time>2020-10-02T09:41:29.607Z</time>
      </trkpt>
      <trkpt lat="63.46827" lon="19.13429">
        <ele>113.134295</ele>
        <time>2020-10-02T09:41:33.601Z</time>
      </trkpt>
      <trkpt lat="63.46821" lon="19.13406">
        <ele>113.39979</ele>
        <time>2020-10-02T09:41:37.610Z</time>
      </trkpt>
      <trkpt lat="63.46816" lon="19.13387">
        <ele>113.622896</ele>
        <time>2020-10-02T09:41:40.622Z</time>
      </trkpt>
      <trkpt lat="63.4681" lon="19.13367">
        <ele>113.858403</ele>
        <time>2020-10-02T09:41:43.595Z</time>
      </trkpt>
      <trkpt lat="63.46805" lon="19.13349">
        <ele>114.072939</ele>
        <time>2020-10-02T09:41:46.616Z</time>
      </trkpt>
      <trkpt lat="63.46801" lon="19.13331">
        <ele>114.276458</ele>
        <time>2020-10-02T09:41:49.587Z</time>
      </trkpt>
      <trkpt lat="63.46796" lon="19.13313">
        <ele>114.48044</ele>
        <time>2020-10-02T09:41:52.624Z</time>
      </trkpt>
      <trkpt lat="63.4679" lon="19.1329">
        <ele>114.741576</ele>
        <time>2020-10-02T09:41:56.589Z</time>
      </trkpt>
      <trkpt lat="63.46784" lon="19.13268">
        <ele>114.990521</ele>
        <time>2020-10-02T09:42:00.605Z</time>
      </trkpt>
      <trkpt lat="63.4678" lon="19.13251">
        <ele>115.178519</ele>
        <time>2020-10-02T09:42:03.609Z</time>
      </trkpt>
      <trkpt lat="63.46776" lon="19.13233">
        <ele>115.371643</ele>
        <time>2020-10-02T09:42:06.588Z</time>
      </trkpt>
      <trkpt lat="63.46771" lon="19.13213">
        <ele>115.575856</ele>
        <time>2020-10-02T09:42:09.609Z</time>
      </trkpt>
      <trkpt lat="63.46767" lon="19.13194">
        <ele>115.773727</ele>
        <time>2020-10-02T09:42:12.582Z</time>
      </trkpt>
      <trkpt lat="63.46763" lon="19.13175">
        <ele>115.976871</ele>
        <time>2020-10-02T09:42:15.598Z</time>
      </trkpt>
      <trkpt lat="63.46758" lon="19.13151">
        <ele>116.220297</ele>
        <time>2020-10-02T09:42:19.590Z</time>
      </trkpt>
      <trkpt lat="63.46755" lon="19.13129">
        <ele>116.433182</ele>
        <time>2020-10-02T09:42:23.597Z</time>
      </trkpt>
      <trkpt lat="63.46752" lon="19.13109">
        <ele>116.631758</ele>
        <time>2020-10-02T09:42:28.606Z</time>
      </trkpt>
      <trkpt lat="63.46749" lon="19.1309">
        <ele>116.821746</ele>
        <time>2020-10-02T09:42:33.598Z</time>
      </trkpt>
      <trkpt lat="63.46747" lon="19.13068">
        <ele>117.030501</ele>
        <time>2020-10-02T09:42:39.605Z</time>
      </trkpt>
      <trkpt lat="63.46745" lon="19.13048">
        <ele>117.226442</ele>
        <time>2020-10-02T09:42:45.642Z</time>
      </trkpt>
      <trkpt lat="63.46745" lon="19.13027">
        <ele>117.426515</ele>
        <time>2020-10-02T09:42:51.583Z</time>
      </trkpt>
      <trkpt lat="63.46744" lon="19.13003">
        <ele>117.648692</ele>
        <time>2020-10-02T09:42:56.586Z</time>
      </trkpt>
      <trkpt lat="63.46744" lon="19.1298">
        <ele>117.864435</ele>
        <time>2020-10-02T09:43:01.602Z</time>
      </trkpt>
      <trkpt lat="63.46744" lon="19.12954">
        <ele>118.103639</ele>
        <time>2020-10-02T09:43:06.615Z</time>
      </trkpt>
      <trkpt lat="63.46744" lon="19.12932">
        <ele>118.315641</ele>
        <time>2020-10-02T09:43:10.572Z</time>
      </trkpt>
      <trkpt lat="63.46745" lon="19.12911">
        <ele>118.512236</ele>
        <time>2020-10-02T09:43:14.608Z</time>
      </trkpt>
      <trkpt lat="63.46745" lon="19.12889">
        <ele>118.702643</ele>
        <time>2020-10-02T09:43:18.589Z</time>
      </trkpt>
      <trkpt lat="63.46746" lon="19.12868">
        <ele>118.878262</ele>
        <time>2020-10-02T09:43:22.599Z</time>
      </trkpt>
      <trkpt lat="63.46748" lon="19.12844">
        <ele>119.073018</ele>
        <time>2020-10-02T09:43:26.605Z</time>
      </trkpt>
      <trkpt lat="63.46751" lon="19.1282">
        <ele>119.276152</ele>
        <time>2020-10-02T09:43:30.587Z</time>
      </trkpt>
      <trkpt lat="63.46753" lon="19.12795">
        <ele>119.483379</ele>
        <time>2020-10-02T09:43:34.595Z</time>
      </trkpt>
      <trkpt lat="63.46755" lon="19.12775">
        <ele>119.651946</ele>
        <time>2020-10-02T09:43:37.613Z</time>
      </trkpt>
      <trkpt lat="63.46758" lon="19.12753">
        <ele>119.841732</ele>
        <time>2020-10-02T09:43:40.609Z</time>
      </trkpt>
      <trkpt lat="63.46762" lon="19.12731">
        <ele>120.039976</ele>
        <time>2020-10-02T09:43:43.590Z</time>
      </trkpt>
      <trkpt lat="63.46766" lon="19.12708">
        <ele>120.23506</ele>
        <time>2020-10-02T09:43:46.589Z</time>
      </trkpt>
      <trkpt lat="63.46769" lon="19.12686">
        <ele>120.427615</ele>
        <time>2020-10-02T09:43:49.603Z</time>
      </trkpt>
      <trkpt lat="63.46772" lon="19.12664">
        <ele>120.612136</ele>
        <time>2020-10-02T09:43:52.583Z</time>
      </trkpt>
      <trkpt lat="63.46775" lon="19.12643">
        <ele>120.800556</ele>
        <time>2020-10-02T09:43:55.604Z</time>
      </trkpt>
      <trkpt lat="63.46779" lon="19.12621">
        <ele>120.990768</ele>
        <time>2020-10-02T09:43:58.624Z</time>
      </trkpt>
      <trkpt lat="63.46783" lon="19.126">
        <ele>121.172425</ele>
        <time>2020-10-02T09:44:01.598Z</time>
      </trkpt>
      <trkpt lat="63.46785" lon="19.12581">
        <ele>121.337834</ele>
        <time>2020-10-02T09:44:04.595Z</time>
      </trkpt>
      <trkpt lat="63.46788" lon="19.12562">
        <ele>121.503253</ele>
        <time>2020-10-02T09:44:08.616Z</time>
      </trkpt>
      <trkpt lat="63.46792" lon="19.1254">
        <ele>121.689384</ele>
        <time>2020-10-02T09:44:13.586Z</time>
      </trkpt>
      <trkpt lat="63.46796" lon="19.12521">
        <ele>121.858879</ele>
        <time>2020-10-02T09:44:18.589Z</time>
      </trkpt>
      <trkpt lat="63.46799" lon="19.125">
        <ele>121.780035</ele>
        <time>2020-10-02T09:44:23.590Z</time>
      </trkpt>
      <trkpt lat="63.46802" lon="19.12478">
        <ele>121.630144</ele>
        <time>2020-10-02T09:44:28.608Z</time>
      </trkpt>
      <trkpt lat="63.46805" lon="19.12459">
        <ele>121.491747</ele>
        <time>2020-10-02T09:44:33.605Z</time>
      </trkpt>
      <trkpt lat="63.46808" lon="19.1244">
        <ele>121.359075</ele>
        <time>2020-10-02T09:44:38.591Z</time>
      </trkpt>
      <trkpt lat="63.46812" lon="19.1242">
        <ele>121.218333</ele>
        <time>2020-10-02T09:44:43.587Z</time>
      </trkpt>
      <trkpt lat="63.46815" lon="19.12399">
        <ele>121.079495</ele>
        <time>2020-10-02T09:44:48.608Z</time>
      </trkpt>
      <trkpt lat="63.46818" lon="19.12379">
        <ele>120.941902</ele>
        <time>2020-10-02T09:44:53.594Z</time>
      </trkpt>
      <trkpt lat="63.46821" lon="19.12361">
        <ele>120.810459</ele>
        <time>2020-10-02T09:44:58.588Z</time>
      </trkpt>
      <trkpt lat="63.46824" lon="19.12341">
        <ele>120.668839</ele>
        <time>2020-10-02T09:45:02.581Z</time>
      </trkpt>
      <trkpt lat="63.46828" lon="19.12317">
        <ele>120.508895</ele>
        <time>2020-10-02T09:45:06.614Z</time>
      </trkpt>
      <trkpt lat="63.46831" lon="19.12296">
        <ele>120.357597</ele>
        <time>2020-10-02T09:45:09.631Z</time>
      </trkpt>
      <trkpt lat="63.46835" lon="19.12268">
        <ele>120.167107</ele>
        <time>2020-10-02T09:45:12.576Z</time>
      </trkpt>
      <trkpt lat="63.46839" lon="19.12246">
        <ele>120.018197</ele>
        <time>2020-10-02T09:45:14.618Z</time>
      </trkpt>
      <trkpt lat="63.46843" lon="19.12222">
        <ele>119.848312</ele>
        <time>2020-10-02T09:45:16.606Z</time>
      </trkpt>
      <trkpt lat="63.46847" lon="19.12197">
        <ele>119.669438</ele>
        <time>2020-10-02T09:45:18.587Z</time>
      </trkpt>
      <trkpt lat="63.46852" lon="19.12171">
        <ele>119.489538</ele>
        <time>2020-10-02T09:45:20.604Z</time>
      </trkpt>
      <trkpt lat="63.46856" lon="19.12144">
        <ele>119.300245</ele>
        <time>2020-10-02T09:45:22.625Z</time>
      </trkpt>
      <trkpt lat="63.4686" lon="19.12115">
        <ele>118.88554</ele>
        <time>2020-10-02T09:45:24.587Z</time>
      </trkpt>
      <trkpt lat="63.46864" lon="19.12081">
        <ele>118.349257</ele>
        <time>2020-10-02T09:45:26.598Z</time>
      </trkpt>
      <trkpt lat="63.46867" lon="19.12044">
        <ele>117.774888</ele>
        <time>2020-10-02T09:45:28.601Z</time>
      </trkpt>
      <trkpt lat="63.46868" lon="19.12008">
        <ele>117.235604</ele>
        <time>2020-10-02T09:45:30.628Z</time>
      </trkpt>
      <trkpt lat="63.46868" lon="19.11975">
        <ele>116.723524</ele>
        <time>2020-10-02T09:45:32.588Z</time>
      </trkpt>
      <trkpt lat="63.46866" lon="19.11944">
        <ele>116.248316</ele>
        <time>2020-10-02T09:45:34.605Z</time>
      </trkpt>
      <trkpt lat="63.46863" lon="19.11911">
        <ele>115.744825</ele>
        <time>2020-10-02T09:45:36.606Z</time>
      </trkpt>
      <trkpt lat="63.46859" lon="19.11879">
        <ele>115.231358</ele>
        <time>2020-10-02T09:45:38.594Z</time>
      </trkpt>
      <trkpt lat="63.46854" lon="19.11846">
        <ele>114.69848</ele>
        <time>2020-10-02T09:45:40.593Z</time>
      </trkpt>
      <trkpt lat="63.46849" lon="19.11813">
        <ele>114.170243</ele>
        <time>2020-10-02T09:45:42.591Z</time>
      </trkpt>
      <trkpt lat="63.46844" lon="19.11782">
        <ele>113.666215</ele>
        <time>2020-10-02T09:45:44.592Z</time>
      </trkpt>
      <trkpt lat="63.4684" lon="19.11754">
        <ele>113.215289</ele>
        <time>2020-10-02T09:45:46.617Z</time>
      </trkpt>
      <trkpt lat="63.46835" lon="19.11728">
        <ele>113.236562</ele>
        <time>2020-10-02T09:45:48.585Z</time>
      </trkpt>
      <trkpt lat="63.46831" lon="19.11704">
        <ele>113.370166</ele>
        <time>2020-10-02T09:45:50.596Z</time>
      </trkpt>
      <trkpt lat="63.46828" lon="19.11683">
        <ele>113.486955</ele>
        <time>2020-10-02T09:45:52.588Z</time>
      </trkpt>
      <trkpt lat="63.46824" lon="19.11659">
        <ele>113.622874</ele>
        <time>2020-10-02T09:45:55.614Z</time>
      </trkpt>
      <trkpt lat="63.4682" lon="19.11639">
        <ele>113.732739</ele>
        <time>2020-10-02T09:45:58.606Z</time>
      </trkpt>
      <trkpt lat="63.46817" lon="19.11619">
        <ele>113.845327</ele>
        <time>2020-10-02T09:46:01.596Z</time>
      </trkpt>
      <trkpt lat="63.46814" lon="19.11599">
        <ele>113.954651</ele>
        <time>2020-10-02T09:46:04.597Z</time>
      </trkpt>
      <trkpt lat="63.4681" lon="19.11579">
        <ele>114.067847</ele>
        <time>2020-10-02T09:46:07.597Z</time>
      </trkpt>
      <trkpt lat="63.46806" lon="19.11557">
        <ele>114.189731</ele>
        <time>2020-10-02T09:46:10.598Z</time>
      </trkpt>
      <trkpt lat="63.46803" lon="19.11534">
        <ele>114.314947</ele>
        <time>2020-10-02T09:46:13.596Z</time>
      </trkpt>
      <trkpt lat="63.46799" lon="19.11511">
        <ele>114.445706</ele>
        <time>2020-10-02T09:46:16.600Z</time>
      </trkpt>
      <trkpt lat="63.46795" lon="19.11487">
        <ele>114.580428</ele>
        <time>2020-10-02T09:46:19.628Z</time>
      </trkpt>
      <trkpt lat="63.4679" lon="19.11462">
        <ele>114.716831</ele>
        <time>2020-10-02T09:46:22.615Z</time>
      </trkpt>
      <trkpt lat="63.46787" lon="19.11439">
        <ele>114.84647</ele>
        <time>2020-10-02T09:46:25.610Z</time>
      </trkpt>
      <trkpt lat="63.46783" lon="19.11416">
        <ele>114.968449</ele>
        <time>2020-10-02T09:46:28.617Z</time>
      </trkpt>
      <trkpt lat="63.46779" lon="19.11395">
        <ele>115.09057</ele>
        <time>2020-10-02T09:46:31.603Z</time>
      </trkpt>
      <trkpt lat="63.46776" lon="19.11374">
        <ele>115.205225</ele>
        <time>2020-10-02T09:46:34.602Z</time>
      </trkpt>
      <trkpt lat="63.46772" lon="19.11354">
        <ele>115.991153</ele>
        <time>2020-10-02T09:46:37.604Z</time>
      </trkpt>
      <trkpt lat="63.46768" lon="19.11334">
        <ele>116.850764</ele>
        <time>2020-10-02T09:46:40.610Z</time>
      </trkpt>
      <trkpt lat="63.46764" lon="19.11314">
        <ele>117.668969</ele>
        <time>2020-10-02T09:46:43.623Z</time>
      </trkpt>
      <trkpt lat="63.46761" lon="19.11289">
        <ele>118.710752</ele>
        <time>2020-10-02T09:46:47.583Z</time>
      </trkpt>
      <trkpt lat="63.46756" lon="19.11264">
        <ele>119.745863</ele>
        <time>2020-10-02T09:46:51.577Z</time>
      </trkpt>
      <trkpt lat="63.46752" lon="19.11241">
        <ele>120.713637</ele>
        <time>2020-10-02T09:46:55.602Z</time>
      </trkpt>
      <trkpt lat="63.46749" lon="19.11221">
        <ele>121.574082</ele>
        <time>2020-10-02T09:46:59.606Z</time>
      </trkpt>
      <trkpt lat="63.46745" lon="19.11202">
        <ele>122.387334</ele>
        <time>2020-10-02T09:47:03.622Z</time>
      </trkpt>
      <trkpt lat="63.46742" lon="19.11181">
        <ele>123.242228</ele>
        <time>2020-10-02T09:47:08.601Z</time>
      </trkpt>
      <trkpt lat="63.46738" lon="19.1116">
        <ele>124.122117</ele>
        <time>2020-10-02T09:47:14.581Z</time>
      </trkpt>
      <trkpt lat="63.46735" lon="19.11137">
        <ele>125.039777</ele>
        <time>2020-10-02T09:47:21.592Z</time>
      </trkpt>
      <trkpt lat="63.46732" lon="19.11117">
        <ele>125.893982</ele>
        <time>2020-10-02T09:47:27.586Z</time>
      </trkpt>
      <trkpt lat="63.46728" lon="19.11096">
        <ele>126.753331</ele>
        <time>2020-10-02T09:47:33.588Z</time>
      </trkpt>
      <trkpt lat="63.46727" lon="19.11076">
        <ele>127.540607</ele>
        <time>2020-10-02T09:47:39.614Z</time>
      </trkpt>
      <trkpt lat="63.46722" lon="19.11056">
        <ele>128.414514</ele>
        <time>2020-10-02T09:47:45.594Z</time>
      </trkpt>
      <trkpt lat="63.46719" lon="19.11037">
        <ele>129.217018</ele>
        <time>2020-10-02T09:47:50.605Z</time>
      </trkpt>
      <trkpt lat="63.46717" lon="19.11014">
        <ele>130.130707</ele>
        <time>2020-10-02T09:47:56.601Z</time>
      </trkpt>
      <trkpt lat="63.46715" lon="19.10993">
        <ele>130.956568</ele>
        <time>2020-10-02T09:48:01.593Z</time>
      </trkpt>
      <trkpt lat="63.46713" lon="19.10972">
        <ele>131.267002</ele>
        <time>2020-10-02T09:48:06.621Z</time>
      </trkpt>
      <trkpt lat="63.46711" lon="19.1095">
        <ele>131.590725</ele>
        <time>2020-10-02T09:48:11.592Z</time>
      </trkpt>
      <trkpt lat="63.46709" lon="19.10926">
        <ele>131.937613</ele>
        <time>2020-10-02T09:48:17.604Z</time>
      </trkpt>
      <trkpt lat="63.46707" lon="19.10905">
        <ele>132.247977</ele>
        <time>2020-10-02T09:48:22.603Z</time>
      </trkpt>
      <trkpt lat="63.46706" lon="19.10883">
        <ele>132.567068</ele>
        <time>2020-10-02T09:48:27.616Z</time>
      </trkpt>
      <trkpt lat="63.46702" lon="19.10861">
        <ele>132.907378</ele>
        <time>2020-10-02T09:48:32.604Z</time>
      </trkpt>
      <trkpt lat="63.467" lon="19.10841">
        <ele>133.203621</ele>
        <time>2020-10-02T09:48:36.613Z</time>
      </trkpt>
      <trkpt lat="63.46698" lon="19.10819">
        <ele>133.525933</ele>
        <time>2020-10-02T09:48:41.604Z</time>
      </trkpt>
      <trkpt lat="63.46695" lon="19.10797">
        <ele>133.866631</ele>
        <time>2020-10-02T09:48:46.602Z</time>
      </trkpt>
      <trkpt lat="63.46693" lon="19.10772">
        <ele>134.219865</ele>
        <time>2020-10-02T09:48:51.592Z</time>
      </trkpt>
      <trkpt lat="63.46692" lon="19.10753">
        <ele>134.510469</ele>
        <time>2020-10-02T09:48:55.594Z</time>
      </trkpt>
      <trkpt lat="63.46689" lon="19.10728">
        <ele>134.86798</ele>
        <time>2020-10-02T09:49:00.590Z</time>
      </trkpt>
      <trkpt lat="63.46687" lon="19.10708">
        <ele>135.171951</ele>
        <time>2020-10-02T09:49:04.635Z</time>
      </trkpt>
      <trkpt lat="63.46686" lon="19.10687">
        <ele>135.471485</ele>
        <time>2020-10-02T09:49:08.584Z</time>
      </trkpt>
      <trkpt lat="63.46684" lon="19.10666">
        <ele>135.78606</ele>
        <time>2020-10-02T09:49:12.600Z</time>
      </trkpt>
      <trkpt lat="63.46681" lon="19.10642">
        <ele>136.145777</ele>
        <time>2020-10-02T09:49:16.605Z</time>
      </trkpt>
      <trkpt lat="63.46678" lon="19.10618">
        <ele>136.500479</ele>
        <time>2020-10-02T09:49:20.655Z</time>
      </trkpt>
      <trkpt lat="63.46676" lon="19.10598">
        <ele>136.700933</ele>
        <time>2020-10-02T09:49:24.593Z</time>
      </trkpt>
      <trkpt lat="63.46674" lon="19.10578">
        <ele>136.3886</ele>
        <time>2020-10-02T09:49:28.611Z</time>
      </trkpt>
      <trkpt lat="63.46671" lon="19.10558">
        <ele>136.069778</ele>
        <time>2020-10-02T09:49:32.599Z</time>
      </trkpt>
      <trkpt lat="63.46668" lon="19.10534">
        <ele>135.69334</ele>
        <time>2020-10-02T09:49:37.589Z</time>
      </trkpt>
      <trkpt lat="63.46665" lon="19.10514">
        <ele>135.383713</ele>
        <time>2020-10-02T09:49:41.618Z</time>
      </trkpt>
      <trkpt lat="63.46662" lon="19.10494">
        <ele>135.060541</ele>
        <time>2020-10-02T09:49:45.616Z</time>
      </trkpt>
      <trkpt lat="63.46659" lon="19.10473">
        <ele>134.721057</ele>
        <time>2020-10-02T09:49:49.582Z</time>
      </trkpt>
      <trkpt lat="63.46655" lon="19.10452">
        <ele>134.367787</ele>
        <time>2020-10-02T09:49:53.582Z</time>
      </trkpt>
      <trkpt lat="63.4665" lon="19.10429">
        <ele>133.996622</ele>
        <time>2020-10-02T09:49:57.589Z</time>
      </trkpt>
      <trkpt lat="63.46646" lon="19.10404">
        <ele>133.596809</ele>
        <time>2020-10-02T09:50:01.591Z</time>
      </trkpt>
      <trkpt lat="63.46643" lon="19.10384">
        <ele>133.264663</ele>
        <time>2020-10-02T09:50:04.613Z</time>
      </trkpt>
      <trkpt lat="63.4664" lon="19.10362">
        <ele>132.916708</ele>
        <time>2020-10-02T09:50:07.600Z</time>
      </trkpt>
      <trkpt lat="63.46637" lon="19.10342">
        <ele>132.592628</ele>
        <time>2020-10-02T09:50:10.606Z</time>
      </trkpt>
      <trkpt lat="63.46633" lon="19.10317">
        <ele>132.196123</ele>
        <time>2020-10-02T09:50:14.588Z</time>
      </trkpt>
      <trkpt lat="63.46629" lon="19.10298">
        <ele>131.885883</ele>
        <time>2020-10-02T09:50:17.588Z</time>
      </trkpt>
      <trkpt lat="63.46625" lon="19.10277">
        <ele>131.532724</ele>
        <time>2020-10-02T09:50:21.621Z</time>
      </trkpt>
      <trkpt lat="63.46622" lon="19.10256">
        <ele>131.202305</ele>
        <time>2020-10-02T09:50:25.578Z</time>
      </trkpt>
      <trkpt lat="63.46618" lon="19.10235">
        <ele>130.859587</ele>
        <time>2020-10-02T09:50:29.595Z</time>
      </trkpt>
      <trkpt lat="63.46615" lon="19.10215">
        <ele>130.701236</ele>
        <time>2020-10-02T09:50:33.618Z</time>
      </trkpt>
      <trkpt lat="63.46611" lon="19.10192">
        <ele>130.889527</ele>
        <time>2020-10-02T09:50:38.591Z</time>
      </trkpt>
      <trkpt lat="63.46608" lon="19.10172">
        <ele>131.04697</ele>
        <time>2020-10-02T09:50:42.640Z</time>
      </trkpt>
      <trkpt lat="63.46604" lon="19.10151">
        <ele>131.219343</ele>
        <time>2020-10-02T09:50:46.581Z</time>
      </trkpt>
      <trkpt lat="63.46601" lon="19.10129">
        <ele>131.389529</ele>
        <time>2020-10-02T09:50:50.579Z</time>
      </trkpt>
      <trkpt lat="63.46596" lon="19.10107">
        <ele>131.571952</ele>
        <time>2020-10-02T09:50:54.633Z</time>
      </trkpt>
      <trkpt lat="63.46592" lon="19.10082">
        <ele>131.768117</ele>
        <time>2020-10-02T09:50:58.595Z</time>
      </trkpt>
      <trkpt lat="63.46588" lon="19.10058">
        <ele>131.959686</ele>
        <time>2020-10-02T09:51:02.594Z</time>
      </trkpt>
      <trkpt lat="63.46584" lon="19.10034">
        <ele>132.146147</ele>
        <time>2020-10-02T09:51:06.642Z</time>
      </trkpt>
      <trkpt lat="63.46581" lon="19.10011">
        <ele>132.330115</ele>
        <time>2020-10-02T09:51:10.591Z</time>
      </trkpt>
      <trkpt lat="63.46578" lon="19.09992">
        <ele>132.479802</ele>
        <time>2020-10-02T09:51:13.594Z</time>
      </trkpt>
      <trkpt lat="63.46574" lon="19.09967">
        <ele>132.676832</ele>
        <time>2020-10-02T09:51:17.621Z</time>
      </trkpt>
      <trkpt lat="63.4657" lon="19.09947">
        <ele>132.834278</ele>
        <time>2020-10-02T09:51:20.577Z</time>
      </trkpt>
      <trkpt lat="63.46567" lon="19.09924">
        <ele>133.016834</ele>
        <time>2020-10-02T09:51:23.597Z</time>
      </trkpt>
      <trkpt lat="63.46563" lon="19.09898">
        <ele>133.224662</ele>
        <time>2020-10-02T09:51:26.602Z</time>
      </trkpt>
      <trkpt lat="63.46558" lon="19.09871">
        <ele>133.444001</ele>
        <time>2020-10-02T09:51:29.601Z</time>
      </trkpt>
      <trkpt lat="63.46555" lon="19.09851">
        <ele>133.597477</ele>
        <time>2020-10-02T09:51:31.622Z</time>
      </trkpt>
      <trkpt lat="63.46552" lon="19.09831">
        <ele>133.418111</ele>
        <time>2020-10-02T09:51:33.596Z</time>
      </trkpt>
      <trkpt lat="63.46548" lon="19.09811">
        <ele>133.056801</ele>
        <time>2020-10-02T09:51:35.597Z</time>
      </trkpt>
      <trkpt lat="63.46545" lon="19.09791">
        <ele>132.700352</ele>
        <time>2020-10-02T09:51:37.587Z</time>
      </trkpt>
      <trkpt lat="63.46541" lon="19.09772">
        <ele>132.359245</ele>
        <time>2020-10-02T09:51:39.606Z</time>
      </trkpt>
      <trkpt lat="63.46538" lon="19.09752">
        <ele>132.014704</ele>
        <time>2020-10-02T09:51:41.590Z</time>
      </trkpt>
      <trkpt lat="63.46533" lon="19.09725">
        <ele>131.521067</ele>
        <time>2020-10-02T09:51:44.593Z</time>
      </trkpt>
      <trkpt lat="63.46528" lon="19.09698">
        <ele>131.038134</ele>
        <time>2020-10-02T09:51:47.598Z</time>
      </trkpt>
      <trkpt lat="63.46523" lon="19.09672">
        <ele>130.581022</ele>
        <time>2020-10-02T09:51:50.594Z</time>
      </trkpt>
      <trkpt lat="63.46518" lon="19.09645">
        <ele>130.092732</ele>
        <time>2020-10-02T09:51:53.605Z</time>
      </trkpt>
      <trkpt lat="63.46515" lon="19.09625">
        <ele>129.747231</ele>
        <time>2020-10-02T09:51:55.618Z</time>
      </trkpt>
      <trkpt lat="63.46511" lon="19.09605">
        <ele>129.386601</ele>
        <time>2020-10-02T09:51:57.615Z</time>
      </trkpt>
      <trkpt lat="63.46507" lon="19.09584">
        <ele>129.013603</ele>
        <time>2020-10-02T09:51:59.603Z</time>
      </trkpt>
      <trkpt lat="63.46503" lon="19.09564">
        <ele>128.648278</ele>
        <time>2020-10-02T09:52:01.595Z</time>
      </trkpt>
      <trkpt lat="63.465" lon="19.09542">
        <ele>128.26987</ele>
        <time>2020-10-02T09:52:03.597Z</time>
      </trkpt>
      <trkpt lat="63.46496" lon="19.0952">
        <ele>127.884544</ele>
        <time>2020-10-02T09:52:05.594Z</time>
      </trkpt>
      <trkpt lat="63.46493" lon="19.09499">
        <ele>127.517024</ele>
        <time>2020-10-02T09:52:07.582Z</time>
      </trkpt>
      <trkpt lat="63.4649" lon="19.09479">
        <ele>127.167233</ele>
        <time>2020-10-02T09:52:09.629Z</time>
      </trkpt>
      <trkpt lat="63.46487" lon="19.0946">
        <ele>127.085287</ele>
        <time>2020-10-02T09:52:11.609Z</time>
      </trkpt>
      <trkpt lat="63.46482" lon="19.09432">
        <ele>127.331317</ele>
        <time>2020-10-02T09:52:14.605Z</time>
      </trkpt>
      <trkpt lat="63.46478" lon="19.09406">
        <ele>127.560952</ele>
        <time>2020-10-02T09:52:17.586Z</time>
      </trkpt>
      <trkpt lat="63.46474" lon="19.09381">
        <ele>127.779022</ele>
        <time>2020-10-02T09:52:20.589Z</time>
      </trkpt>
      <trkpt lat="63.4647" lon="19.09357">
        <ele>127.991624</ele>
        <time>2020-10-02T09:52:23.586Z</time>
      </trkpt>
      <trkpt lat="63.46466" lon="19.09333">
        <ele>128.204089</ele>
        <time>2020-10-02T09:52:26.630Z</time>
      </trkpt>
      <trkpt lat="63.46462" lon="19.09309">
        <ele>128.420169</ele>
        <time>2020-10-02T09:52:29.586Z</time>
      </trkpt>
      <trkpt lat="63.46459" lon="19.09285">
        <ele>128.625842</ele>
        <time>2020-10-02T09:52:32.623Z</time>
      </trkpt>
      <trkpt lat="63.46454" lon="19.09263">
        <ele>128.825777</ele>
        <time>2020-10-02T09:52:35.581Z</time>
      </trkpt>
      <trkpt lat="63.46451" lon="19.09241">
        <ele>129.01987</ele>
        <time>2020-10-02T09:52:38.582Z</time>
      </trkpt>
      <trkpt lat="63.46447" lon="19.09218">
        <ele>129.220446</ele>
        <time>2020-10-02T09:52:41.586Z</time>
      </trkpt>
      <trkpt lat="63.46443" lon="19.09194">
        <ele>129.437908</ele>
        <time>2020-10-02T09:52:44.601Z</time>
      </trkpt>
      <trkpt lat="63.46439" lon="19.09171">
        <ele>129.639459</ele>
        <time>2020-10-02T09:52:47.616Z</time>
      </trkpt>
      <trkpt lat="63.46435" lon="19.0915">
        <ele>129.831096</ele>
        <time>2020-10-02T09:52:50.595Z</time>
      </trkpt>
      <trkpt lat="63.4643" lon="19.09126">
        <ele>130.044889</ele>
        <time>2020-10-02T09:52:54.591Z</time>
      </trkpt>
      <trkpt lat="63.46427" lon="19.09106">
        <ele>130.222967</ele>
        <time>2020-10-02T09:52:58.587Z</time>
      </trkpt>
      <trkpt lat="63.46423" lon="19.09087">
        <ele>130.384574</ele>
        <time>2020-10-02T09:53:02.597Z</time>
      </trkpt>
      <trkpt lat="63.4642" lon="19.09068">
        <ele>130.522654</ele>
        <time>2020-10-02T09:53:06.602Z</time>
      </trkpt>
      <trkpt lat="63.46417" lon="19.09046">
        <ele>130.679468</ele>
        <time>2020-10-02T09:53:10.603Z</time>
      </trkpt>
      <trkpt lat="63.46413" lon="19.09022">
        <ele>130.85198</ele>
        <time>2020-10-02T09:53:14.602Z</time>
      </trkpt>
      <trkpt lat="63.4641" lon="19.09">
        <ele>131.013966</ele>
        <time>2020-10-02T09:53:18.599Z</time>
      </trkpt>
      <trkpt lat="63.46407" lon="19.08981">
        <ele>131.150615</ele>
        <time>2020-10-02T09:53:21.580Z</time>
      </trkpt>
      <trkpt lat="63.46403" lon="19.0896">
        <ele>131.305766</ele>
        <time>2020-10-02T09:53:24.591Z</time>
      </trkpt>
      <trkpt lat="63.464" lon="19.08934">
        <ele>131.485418</ele>
        <time>2020-10-02T09:53:27.597Z</time>
      </trkpt>
      <trkpt lat="63.46398" lon="19.08914">
        <ele>131.626417</ele>
        <time>2020-10-02T09:53:29.592Z</time>
      </trkpt>
      <trkpt lat="63.46396" lon="19.08892">
        <ele>131.77836</ele>
        <time>2020-10-02T09:53:31.599Z</time>
      </trkpt>
      <trkpt lat="63.46394" lon="19.0887">
        <ele>131.929681</ele>
        <time>2020-10-02T09:53:33.579Z</time>
      </trkpt>
      <trkpt lat="63.46393" lon="19.08849">
        <ele>132.076439</ele>
        <time>2020-10-02T09:53:35.597Z</time>
      </trkpt>
      <trkpt lat="63.46392" lon="19.08828">
        <ele>132.221946</ele>
        <time>2020-10-02T09:53:37.620Z</time>
      </trkpt>
      <trkpt lat="63.46391" lon="19.08807">
        <ele>132.36025</ele>
        <time>2020-10-02T09:53:39.599Z</time>
      </trkpt>
      <trkpt lat="63.46391" lon="19.08778">
        <ele>132.56024</ele>
        <time>2020-10-02T09:53:42.598Z</time>
      </trkpt>
      <trkpt lat="63.4639" lon="19.08758">
        <ele>132.699938</ele>
        <time>2020-10-02T09:53:44.586Z</time>
      </trkpt>
      <trkpt lat="63.4639" lon="19.08737">
        <ele>132.841852</ele>
        <time>2020-10-02T09:53:46.589Z</time>
      </trkpt>
      <trkpt lat="63.4639" lon="19.08707">
        <ele>133.048334</ele>
        <time>2020-10-02T09:53:49.633Z</time>
      </trkpt>
      <trkpt lat="63.46389" lon="19.08685">
        <ele>133.004016</ele>
        <time>2020-10-02T09:53:51.597Z</time>
      </trkpt>
      <trkpt lat="63.46388" lon="19.08665">
        <ele>132.909381</ele>
        <time>2020-10-02T09:53:53.611Z</time>
      </trkpt>
      <trkpt lat="63.46387" lon="19.08636">
        <ele>132.776599</ele>
        <time>2020-10-02T09:53:56.614Z</time>
      </trkpt>
      <trkpt lat="63.46386" lon="19.08607">
        <ele>132.647003</ele>
        <time>2020-10-02T09:53:59.607Z</time>
      </trkpt>
      <trkpt lat="63.46385" lon="19.08581">
        <ele>132.523127</ele>
        <time>2020-10-02T09:54:02.602Z</time>
      </trkpt>
      <trkpt lat="63.46382" lon="19.08554">
        <ele>132.399259</ele>
        <time>2020-10-02T09:54:05.626Z</time>
      </trkpt>
      <trkpt lat="63.46379" lon="19.0853">
        <ele>132.284609</ele>
        <time>2020-10-02T09:54:08.583Z</time>
      </trkpt>
      <trkpt lat="63.46376" lon="19.08508">
        <ele>132.179855</ele>
        <time>2020-10-02T09:54:11.597Z</time>
      </trkpt>
      <trkpt lat="63.46372" lon="19.08489">
        <ele>132.084823</ele>
        <time>2020-10-02T09:54:14.615Z</time>
      </trkpt>
      <trkpt lat="63.46366" lon="19.0847">
        <ele>131.980477</ele>
        <time>2020-10-02T09:54:17.598Z</time>
      </trkpt>
      <trkpt lat="63.4636" lon="19.08449">
        <ele>131.862814</ele>
        <time>2020-10-02T09:54:20.623Z</time>
      </trkpt>
      <trkpt lat="63.46353" lon="19.08429">
        <ele>131.745024</ele>
        <time>2020-10-02T09:54:23.618Z</time>
      </trkpt>
      <trkpt lat="63.46346" lon="19.08411">
        <ele>131.639424</ele>
        <time>2020-10-02T09:54:26.579Z</time>
      </trkpt>
      <trkpt lat="63.4634" lon="19.08395">
        <ele>131.543054</ele>
        <time>2020-10-02T09:54:29.589Z</time>
      </trkpt>
      <trkpt lat="63.46333" lon="19.08373">
        <ele>131.419896</ele>
        <time>2020-10-02T09:54:33.586Z</time>
      </trkpt>
      <trkpt lat="63.46326" lon="19.08352">
        <ele>131.303335</ele>
        <time>2020-10-02T09:54:37.594Z</time>
      </trkpt>
      <trkpt lat="63.4632" lon="19.08334">
        <ele>131.542936</ele>
        <time>2020-10-02T09:54:41.584Z</time>
      </trkpt>
      <trkpt lat="63.46314" lon="19.08317">
        <ele>132.20973</ele>
        <time>2020-10-02T09:54:45.618Z</time>
      </trkpt>
      <trkpt lat="63.46309" lon="19.08296">
        <ele>132.959706</ele>
        <time>2020-10-02T09:54:50.599Z</time>
      </trkpt>
      <trkpt lat="63.46304" lon="19.08276">
        <ele>133.666434</ele>
        <time>2020-10-02T09:54:55.595Z</time>
      </trkpt>
      <trkpt lat="63.463" lon="19.08256">
        <ele>134.378274</ele>
        <time>2020-10-02T09:55:00.606Z</time>
      </trkpt>
      <trkpt lat="63.46296" lon="19.08236">
        <ele>135.079058</ele>
        <time>2020-10-02T09:55:05.605Z</time>
      </trkpt>
      <trkpt lat="63.46292" lon="19.08215">
        <ele>135.768035</ele>
        <time>2020-10-02T09:55:10.616Z</time>
      </trkpt>
      <trkpt lat="63.46291" lon="19.08191">
        <ele>136.52679</ele>
        <time>2020-10-02T09:55:15.606Z</time>
      </trkpt>
      <trkpt lat="63.4629" lon="19.08166">
        <ele>137.322067</ele>
        <time>2020-10-02T09:55:20.607Z</time>
      </trkpt>
      <trkpt lat="63.46289" lon="19.08141">
        <ele>138.104821</ele>
        <time>2020-10-02T09:55:25.606Z</time>
      </trkpt>
      <trkpt lat="63.46288" lon="19.08117">
        <ele>138.859428</ele>
        <time>2020-10-02T09:55:29.599Z</time>
      </trkpt>
      <trkpt lat="63.46286" lon="19.08094">
        <ele>139.61708</ele>
        <time>2020-10-02T09:55:33.604Z</time>
      </trkpt>
      <trkpt lat="63.46285" lon="19.08071">
        <ele>140.34037</ele>
        <time>2020-10-02T09:55:37.609Z</time>
      </trkpt>
      <trkpt lat="63.46284" lon="19.08046">
        <ele>141.11906</ele>
        <time>2020-10-02T09:55:41.645Z</time>
      </trkpt>
      <trkpt lat="63.46282" lon="19.08021">
        <ele>141.915266</ele>
        <time>2020-10-02T09:55:45.597Z</time>
      </trkpt>
      <trkpt lat="63.46279" lon="19.07999">
        <ele>142.632453</ele>
        <time>2020-10-02T09:55:48.586Z</time>
      </trkpt>
      <trkpt lat="63.46274" lon="19.07974">
        <ele>143.505671</ele>
        <time>2020-10-02T09:55:51.589Z</time>
      </trkpt>
      <trkpt lat="63.4627" lon="19.07953">
        <ele>143.74467</ele>
        <time>2020-10-02T09:55:53.591Z</time>
      </trkpt>
      <trkpt lat="63.46265" lon="19.0793">
        <ele>143.34707</ele>
        <time>2020-10-02T09:55:55.604Z</time>
      </trkpt>
      <trkpt lat="63.4626" lon="19.07907">
        <ele>142.938035</ele>
        <time>2020-10-02T09:55:57.671Z</time>
      </trkpt>
      <trkpt lat="63.46254" lon="19.07884">
        <ele>142.528114</ele>
        <time>2020-10-02T09:55:59.603Z</time>
      </trkpt>
      <trkpt lat="63.46247" lon="19.0786">
        <ele>142.099223</ele>
        <time>2020-10-02T09:56:01.617Z</time>
      </trkpt>
      <trkpt lat="63.46241" lon="19.07837">
        <ele>141.675138</ele>
        <time>2020-10-02T09:56:03.586Z</time>
      </trkpt>
      <trkpt lat="63.46233" lon="19.07816">
        <ele>141.258615</ele>
        <time>2020-10-02T09:56:05.599Z</time>
      </trkpt>
      <trkpt lat="63.46226" lon="19.07794">
        <ele>140.834192</ele>
        <time>2020-10-02T09:56:07.609Z</time>
      </trkpt>
      <trkpt lat="63.46218" lon="19.07772">
        <ele>140.407316</ele>
        <time>2020-10-02T09:56:09.599Z</time>
      </trkpt>
      <trkpt lat="63.4621" lon="19.07752">
        <ele>139.975857</ele>
        <time>2020-10-02T09:56:11.586Z</time>
      </trkpt>
      <trkpt lat="63.46201" lon="19.0773">
        <ele>139.532884</ele>
        <time>2020-10-02T09:56:13.602Z</time>
      </trkpt>
      <trkpt lat="63.46192" lon="19.07709">
        <ele>139.076962</ele>
        <time>2020-10-02T09:56:15.589Z</time>
      </trkpt>
      <trkpt lat="63.46183" lon="19.07688">
        <ele>138.608907</ele>
        <time>2020-10-02T09:56:17.667Z</time>
      </trkpt>
      <trkpt lat="63.46173" lon="19.07667">
        <ele>138.14734</ele>
        <time>2020-10-02T09:56:19.610Z</time>
      </trkpt>
      <trkpt lat="63.46164" lon="19.07645">
        <ele>137.678796</ele>
        <time>2020-10-02T09:56:21.599Z</time>
      </trkpt>
      <trkpt lat="63.46155" lon="19.07622">
        <ele>136.804362</ele>
        <time>2020-10-02T09:56:23.611Z</time>
      </trkpt>
      <trkpt lat="63.46146" lon="19.07598">
        <ele>135.909543</ele>
        <time>2020-10-02T09:56:25.592Z</time>
      </trkpt>
      <trkpt lat="63.46138" lon="19.07573">
        <ele>135.000716</ele>
        <time>2020-10-02T09:56:27.613Z</time>
      </trkpt>
      <trkpt lat="63.46129" lon="19.07548">
        <ele>134.104865</ele>
        <time>2020-10-02T09:56:29.613Z</time>
      </trkpt>
      <trkpt lat="63.46121" lon="19.07524">
        <ele>133.204443</ele>
        <time>2020-10-02T09:56:31.609Z</time>
      </trkpt>
      <trkpt lat="63.46113" lon="19.07498">
        <ele>132.323964</ele>
        <time>2020-10-02T09:56:33.601Z</time>
      </trkpt>
      <trkpt lat="63.46106" lon="19.07475">
        <ele>131.5142</ele>
        <time>2020-10-02T09:56:35.594Z</time>
      </trkpt>
      <trkpt lat="63.46099" lon="19.07453">
        <ele>130.74121</ele>
        <time>2020-10-02T09:56:37.609Z</time>
      </trkpt>
      <trkpt lat="63.46093" lon="19.07433">
        <ele>130.014192</ele>
        <time>2020-10-02T09:56:39.629Z</time>
      </trkpt>
      <trkpt lat="63.46087" lon="19.07412">
        <ele>129.309928</ele>
        <time>2020-10-02T09:56:41.626Z</time>
      </trkpt>
      <trkpt lat="63.4608" lon="19.07392">
        <ele>128.588951</ele>
        <time>2020-10-02T09:56:43.595Z</time>
      </trkpt>
      <trkpt lat="63.46074" lon="19.07371">
        <ele>127.871605</ele>
        <time>2020-10-02T09:56:45.591Z</time>
      </trkpt>
      <trkpt lat="63.46068" lon="19.07351">
        <ele>127.166188</ele>
        <time>2020-10-02T09:56:47.608Z</time>
      </trkpt>
      <trkpt lat="63.46062" lon="19.0733">
        <ele>126.463925</ele>
        <time>2020-10-02T09:56:49.622Z</time>
      </trkpt>
      <trkpt lat="63.46056" lon="19.07313">
        <ele>125.917211</ele>
        <time>2020-10-02T09:56:51.594Z</time>
      </trkpt>
      <trkpt lat="63.46048" lon="19.07303">
        <ele>125.587534</ele>
        <time>2020-10-02T09:56:53.588Z</time>
      </trkpt>
      <trkpt lat="63.46037" lon="19.07311">
        <ele>125.203741</ele>
        <time>2020-10-02T09:56:56.595Z</time>
      </trkpt>
      <trkpt lat="63.46031" lon="19.07335">
        <ele>124.755003</ele>
        <time>2020-10-02T09:56:59.581Z</time>
      </trkpt>
      <trkpt lat="63.46023" lon="19.07358">
        <ele>124.304359</ele>
        <time>2020-10-02T09:57:02.602Z</time>
      </trkpt>
      <trkpt lat="63.46014" lon="19.07377">
        <ele>123.863951</ele>
        <time>2020-10-02T09:57:05.626Z</time>
      </trkpt>
      <trkpt lat="63.46005" lon="19.07394">
        <ele>123.444478</ele>
        <time>2020-10-02T09:57:08.614Z</time>
      </trkpt>
      <trkpt lat="63.45995" lon="19.0741">
        <ele>123.008607</ele>
        <time>2020-10-02T09:57:11.593Z</time>
      </trkpt>
      <trkpt lat="63.45987" lon="19.0742">
        <ele>122.669515</ele>
        <time>2020-10-02T09:57:13.601Z</time>
      </trkpt>
      <trkpt lat="63.45976" lon="19.0743">
        <ele>122.251699</ele>
        <time>2020-10-02T09:57:15.618Z</time>
      </trkpt>
      <trkpt lat="63.45962" lon="19.07439">
        <ele>121.757651</ele>
        <time>2020-10-02T09:57:17.600Z</time>
      </trkpt>
      <trkpt lat="63.45948" lon="19.07449">
        <ele>121.238079</ele>
        <time>2020-10-02T09:57:19.605Z</time>
      </trkpt>
      <trkpt lat="63.45934" lon="19.07459">
        <ele>120.713145</ele>
        <time>2020-10-02T09:57:21.629Z</time>
      </trkpt>
      <trkpt lat="63.4592" lon="19.07468">
        <ele>120.192958</ele>
        <time>2020-10-02T09:57:23.618Z</time>
      </trkpt>
      <trkpt lat="63.45906" lon="19.07479">
        <ele>119.677519</ele>
        <time>2020-10-02T09:57:25.622Z</time>
      </trkpt>
      <trkpt lat="63.45893" lon="19.07492">
        <ele>119.572588</ele>
        <time>2020-10-02T09:57:27.621Z</time>
      </trkpt>
      <trkpt lat="63.45879" lon="19.07505">
        <ele>119.470089</ele>
        <time>2020-10-02T09:57:29.624Z</time>
      </trkpt>
      <trkpt lat="63.45867" lon="19.07518">
        <ele>119.375554</ele>
        <time>2020-10-02T09:57:31.598Z</time>
      </trkpt>
      <trkpt lat="63.45855" lon="19.07528">
        <ele>119.28905</ele>
        <time>2020-10-02T09:57:33.608Z</time>
      </trkpt>
      <trkpt lat="63.45844" lon="19.07538">
        <ele>119.203352</ele>
        <time>2020-10-02T09:57:35.594Z</time>
      </trkpt>
      <trkpt lat="63.45833" lon="19.07546">
        <ele>119.122804</ele>
        <time>2020-10-02T09:57:37.585Z</time>
      </trkpt>
      <trkpt lat="63.45823" lon="19.07554">
        <ele>119.048845</ele>
        <time>2020-10-02T09:57:39.599Z</time>
      </trkpt>
      <trkpt lat="63.45814" lon="19.07562">
        <ele>118.97893</ele>
        <time>2020-10-02T09:57:41.623Z</time>
      </trkpt>
      <trkpt lat="63.45805" lon="19.07568">
        <ele>118.911234</ele>
        <time>2020-10-02T09:57:43.644Z</time>
      </trkpt>
      <trkpt lat="63.45795" lon="19.07574">
        <ele>118.843312</ele>
        <time>2020-10-02T09:57:45.584Z</time>
      </trkpt>
      <trkpt lat="63.45787" lon="19.07581">
        <ele>118.777687</ele>
        <time>2020-10-02T09:57:47.603Z</time>
      </trkpt>
      <trkpt lat="63.45774" lon="19.0759">
        <ele>118.68666</ele>
        <time>2020-10-02T09:57:50.588Z</time>
      </trkpt>
      <trkpt lat="63.45763" lon="19.07598">
        <ele>118.606249</ele>
        <time>2020-10-02T09:57:53.606Z</time>
      </trkpt>
      <trkpt lat="63.45753" lon="19.07608">
        <ele>118.524153</ele>
        <time>2020-10-02T09:57:56.587Z</time>
      </trkpt>
      <trkpt lat="63.45742" lon="19.07619">
        <ele>118.443723</ele>
        <time>2020-10-02T09:57:59.589Z</time>
      </trkpt>
      <trkpt lat="63.45732" lon="19.07631">
        <ele>118.517656</ele>
        <time>2020-10-02T09:58:02.593Z</time>
      </trkpt>
      <trkpt lat="63.45721" lon="19.07645">
        <ele>118.685992</ele>
        <time>2020-10-02T09:58:05.588Z</time>
      </trkpt>
      <trkpt lat="63.45709" lon="19.07657">
        <ele>118.867584</ele>
        <time>2020-10-02T09:58:08.580Z</time>
      </trkpt>
      <trkpt lat="63.45697" lon="19.07669">
        <ele>119.057041</ele>
        <time>2020-10-02T09:58:11.634Z</time>
      </trkpt>
      <trkpt lat="63.45687" lon="19.07676">
        <ele>119.199258</ele>
        <time>2020-10-02T09:58:13.626Z</time>
      </trkpt>
      <trkpt lat="63.45677" lon="19.07685">
        <ele>119.349038</ele>
        <time>2020-10-02T09:58:15.591Z</time>
      </trkpt>
      <trkpt lat="63.45666" lon="19.07693">
        <ele>119.505582</ele>
        <time>2020-10-02T09:58:17.586Z</time>
      </trkpt>
      <trkpt lat="63.45655" lon="19.07702">
        <ele>119.665232</ele>
        <time>2020-10-02T09:58:19.588Z</time>
      </trkpt>
      <trkpt lat="63.45645" lon="19.0771">
        <ele>119.817152</ele>
        <time>2020-10-02T09:58:21.613Z</time>
      </trkpt>
      <trkpt lat="63.45635" lon="19.07718">
        <ele>119.955341</ele>
        <time>2020-10-02T09:58:23.590Z</time>
      </trkpt>
      <trkpt lat="63.45625" lon="19.07725">
        <ele>120.096938</ele>
        <time>2020-10-02T09:58:25.620Z</time>
      </trkpt>
      <trkpt lat="63.45616" lon="19.07733">
        <ele>120.233345</ele>
        <time>2020-10-02T09:58:27.577Z</time>
      </trkpt>
      <trkpt lat="63.45607" lon="19.07738">
        <ele>120.366901</ele>
        <time>2020-10-02T09:58:29.601Z</time>
      </trkpt>
      <trkpt lat="63.45593" lon="19.07743">
        <ele>120.55368</ele>
        <time>2020-10-02T09:58:32.597Z</time>
      </trkpt>
      <trkpt lat="63.45583" lon="19.07746">
        <ele>120.691492</ele>
        <time>2020-10-02T09:58:34.590Z</time>
      </trkpt>
      <trkpt lat="63.45573" lon="19.07749">
        <ele>120.837752</ele>
        <time>2020-10-02T09:58:36.659Z</time>
      </trkpt>
      <trkpt lat="63.45563" lon="19.07752">
        <ele>121.08597</ele>
        <time>2020-10-02T09:58:38.582Z</time>
      </trkpt>
      <trkpt lat="63.45553" lon="19.07753">
        <ele>121.389273</ele>
        <time>2020-10-02T09:58:40.612Z</time>
      </trkpt>
      <trkpt lat="63.45543" lon="19.07752">
        <ele>121.707875</ele>
        <time>2020-10-02T09:58:42.599Z</time>
      </trkpt>
      <trkpt lat="63.45533" lon="19.07752">
        <ele>122.020132</ele>
        <time>2020-10-02T09:58:44.611Z</time>
      </trkpt>
      <trkpt lat="63.45524" lon="19.07751">
        <ele>122.304295</ele>
        <time>2020-10-02T09:58:46.619Z</time>
      </trkpt>
      <trkpt lat="63.45515" lon="19.0775">
        <ele>122.588623</ele>
        <time>2020-10-02T09:58:48.589Z</time>
      </trkpt>
      <trkpt lat="63.45503" lon="19.07747">
        <ele>122.972814</ele>
        <time>2020-10-02T09:58:51.596Z</time>
      </trkpt>
      <trkpt lat="63.45492" lon="19.07746">
        <ele>123.304177</ele>
        <time>2020-10-02T09:58:54.606Z</time>
      </trkpt>
      <trkpt lat="63.45482" lon="19.07743">
        <ele>123.625368</ele>
        <time>2020-10-02T09:58:57.605Z</time>
      </trkpt>
      <trkpt lat="63.45472" lon="19.07742">
        <ele>123.918896</ele>
        <time>2020-10-02T09:59:00.582Z</time>
      </trkpt>
      <trkpt lat="63.45463" lon="19.07742">
        <ele>124.203018</ele>
        <time>2020-10-02T09:59:03.617Z</time>
      </trkpt>
      <trkpt lat="63.45454" lon="19.07743">
        <ele>124.505975</ele>
        <time>2020-10-02T09:59:06.598Z</time>
      </trkpt>
      <trkpt lat="63.45443" lon="19.07744">
        <ele>124.824866</ele>
        <time>2020-10-02T09:59:10.614Z</time>
      </trkpt>
      <trkpt lat="63.45434" lon="19.07747">
        <ele>125.114742</ele>
        <time>2020-10-02T09:59:15.582Z</time>
      </trkpt>
      <trkpt lat="63.45424" lon="19.07754">
        <ele>125.430872</ele>
        <time>2020-10-02T09:59:21.606Z</time>
      </trkpt>
      <trkpt lat="63.45416" lon="19.07764">
        <ele>125.721144</ele>
        <time>2020-10-02T09:59:28.600Z</time>
      </trkpt>
      <trkpt lat="63.45408" lon="19.07773">
        <ele>126.022169</ele>
        <time>2020-10-02T09:59:34.582Z</time>
      </trkpt>
      <trkpt lat="63.45399" lon="19.0778">
        <ele>126.311059</ele>
        <time>2020-10-02T09:59:40.602Z</time>
      </trkpt>
      <trkpt lat="63.45391" lon="19.0779">
        <ele>126.47861</ele>
        <time>2020-10-02T09:59:46.622Z</time>
      </trkpt>
      <trkpt lat="63.45382" lon="19.07797">
        <ele>126.385334</ele>
        <time>2020-10-02T09:59:52.607Z</time>
      </trkpt>
      <trkpt lat="63.45372" lon="19.07806">
        <ele>126.281994</ele>
        <time>2020-10-02T09:59:58.617Z</time>
      </trkpt>
      <trkpt lat="63.45362" lon="19.07813">
        <ele>126.180994</ele>
        <time>2020-10-02T10:00:02.579Z</time>
      </trkpt>
      <trkpt lat="63.4535" lon="19.07817">
        <ele>126.071308</ele>
        <time>2020-10-02T10:00:05.630Z</time>
      </trkpt>
      <trkpt lat="63.45341" lon="19.07819">
        <ele>125.981601</ele>
        <time>2020-10-02T10:00:07.605Z</time>
      </trkpt>
      <trkpt lat="63.4533" lon="19.07822">
        <ele>125.878159</ele>
        <time>2020-10-02T10:00:09.598Z</time>
      </trkpt>
      <trkpt lat="63.45318" lon="19.07826">
        <ele>125.763297</ele>
        <time>2020-10-02T10:00:11.597Z</time>
      </trkpt>
      <trkpt lat="63.45306" lon="19.0783">
        <ele>125.642045</ele>
        <time>2020-10-02T10:00:13.589Z</time>
      </trkpt>
      <trkpt lat="63.45293" lon="19.07836">
        <ele>125.512462</ele>
        <time>2020-10-02T10:00:15.615Z</time>
      </trkpt>
      <trkpt lat="63.45278" lon="19.07847">
        <ele>125.369212</ele>
        <time>2020-10-02T10:00:17.589Z</time>
      </trkpt>
      <trkpt lat="63.45265" lon="19.0786">
        <ele>125.228132</ele>
        <time>2020-10-02T10:00:19.621Z</time>
      </trkpt>
      <trkpt lat="63.45252" lon="19.07875">
        <ele>125.08724</ele>
        <time>2020-10-02T10:00:21.587Z</time>
      </trkpt>
      <trkpt lat="63.45237" lon="19.07889">
        <ele>124.936193</ele>
        <time>2020-10-02T10:00:23.603Z</time>
      </trkpt>
      <trkpt lat="63.45222" lon="19.07899">
        <ele>124.773392</ele>
        <time>2020-10-02T10:00:25.602Z</time>
      </trkpt>
      <trkpt lat="63.45207" lon="19.07907">
        <ele>124.367134</ele>
        <time>2020-10-02T10:00:27.587Z</time>
      </trkpt>
      <trkpt lat="63.45192" lon="19.07914">
        <ele>123.978412</ele>
        <time>2020-10-02T10:00:29.587Z</time>
      </trkpt>
      <trkpt lat="63.45177" lon="19.0792">
        <ele>123.595777</ele>
        <time>2020-10-02T10:00:31.597Z</time>
      </trkpt>
      <trkpt lat="63.45163" lon="19.07925">
        <ele>123.211674</ele>
        <time>2020-10-02T10:00:33.606Z</time>
      </trkpt>
      <trkpt lat="63.45148" lon="19.07931">
        <ele>122.807337</ele>
        <time>2020-10-02T10:00:35.617Z</time>
      </trkpt>
      <trkpt lat="63.45131" lon="19.07936">
        <ele>122.381541</ele>
        <time>2020-10-02T10:00:37.630Z</time>
      </trkpt>
      <trkpt lat="63.45115" lon="19.07942">
        <ele>121.939097</ele>
        <time>2020-10-02T10:00:39.610Z</time>
      </trkpt>
      <trkpt lat="63.45098" lon="19.07947">
        <ele>121.498</ele>
        <time>2020-10-02T10:00:41.635Z</time>
      </trkpt>
      <trkpt lat="63.45081" lon="19.07951">
        <ele>121.053503</ele>
        <time>2020-10-02T10:00:43.600Z</time>
      </trkpt>
      <trkpt lat="63.45065" lon="19.07953">
        <ele>120.64423</ele>
        <time>2020-10-02T10:00:45.594Z</time>
      </trkpt>
      <trkpt lat="63.45049" lon="19.07953">
        <ele>120.220145</ele>
        <time>2020-10-02T10:00:47.618Z</time>
      </trkpt>
      <trkpt lat="63.45033" lon="19.07953">
        <ele>119.913283</ele>
        <time>2020-10-02T10:00:49.607Z</time>
      </trkpt>
      <trkpt lat="63.45017" lon="19.07957">
        <ele>119.656386</ele>
        <time>2020-10-02T10:00:51.601Z</time>
      </trkpt>
      <trkpt lat="63.45001" lon="19.07965">
        <ele>119.379521</ele>
        <time>2020-10-02T10:00:53.599Z</time>
      </trkpt>
      <trkpt lat="63.44987" lon="19.07977">
        <ele>119.1374</ele>
        <time>2020-10-02T10:00:55.600Z</time>
      </trkpt>
      <trkpt lat="63.44976" lon="19.07987">
        <ele>118.949706</ele>
        <time>2020-10-02T10:00:57.584Z</time>
      </trkpt>
      <trkpt lat="63.44967" lon="19.07998">
        <ele>118.780026</ele>
        <time>2020-10-02T10:00:59.579Z</time>
      </trkpt>
      <trkpt lat="63.44956" lon="19.08013">
        <ele>118.569274</ele>
        <time>2020-10-02T10:01:02.593Z</time>
      </trkpt>
      <trkpt lat="63.44943" lon="19.08024">
        <ele>118.345655</ele>
        <time>2020-10-02T10:01:05.610Z</time>
      </trkpt>
      <trkpt lat="63.44932" lon="19.08033">
        <ele>118.155446</ele>
        <time>2020-10-02T10:01:07.582Z</time>
      </trkpt>
      <trkpt lat="63.44921" lon="19.08046">
        <ele>117.94776</ele>
        <time>2020-10-02T10:01:09.586Z</time>
      </trkpt>
      <trkpt lat="63.4491" lon="19.08061">
        <ele>117.737621</ele>
        <time>2020-10-02T10:01:11.601Z</time>
      </trkpt>
      <trkpt lat="63.44901" lon="19.08075">
        <ele>117.552877</ele>
        <time>2020-10-02T10:01:13.622Z</time>
      </trkpt>
      <trkpt lat="63.44893" lon="19.08089">
        <ele>117.396199</ele>
        <time>2020-10-02T10:01:15.586Z</time>
      </trkpt>
      <trkpt lat="63.44886" lon="19.081">
        <ele>117.243815</ele>
        <time>2020-10-02T10:01:17.597Z</time>
      </trkpt>
      <trkpt lat="63.44878" lon="19.08112">
        <ele>117.060506</ele>
        <time>2020-10-02T10:01:19.609Z</time>
      </trkpt>
      <trkpt lat="63.44869" lon="19.08123">
        <ele>116.817418</ele>
        <time>2020-10-02T10:01:21.588Z</time>
      </trkpt>
      <trkpt lat="63.4486" lon="19.08131">
        <ele>116.583475</ele>
        <time>2020-10-02T10:01:23.590Z</time>
      </trkpt>
      <trkpt lat="63.44851" lon="19.08142">
        <ele>116.325619</ele>
        <time>2020-10-02T10:01:25.588Z</time>
      </trkpt>
      <trkpt lat="63.44841" lon="19.08153">
        <ele>116.054776</ele>
        <time>2020-10-02T10:01:27.625Z</time>
      </trkpt>
      <trkpt lat="63.44831" lon="19.08164">
        <ele>115.797352</ele>
        <time>2020-10-02T10:01:29.592Z</time>
      </trkpt>
      <trkpt lat="63.44822" lon="19.08176">
        <ele>115.540001</ele>
        <time>2020-10-02T10:01:31.607Z</time>
      </trkpt>
      <trkpt lat="63.44812" lon="19.08185">
        <ele>115.276881</ele>
        <time>2020-10-02T10:01:33.595Z</time>
      </trkpt>
      <trkpt lat="63.44802" lon="19.08194">
        <ele>115.019904</ele>
        <time>2020-10-02T10:01:35.611Z</time>
      </trkpt>
      <trkpt lat="63.44793" lon="19.08206">
        <ele>114.768886</ele>
        <time>2020-10-02T10:01:37.598Z</time>
      </trkpt>
      <trkpt lat="63.44785" lon="19.08216">
        <ele>114.534647</ele>
        <time>2020-10-02T10:01:39.589Z</time>
      </trkpt>
      <trkpt lat="63.44776" lon="19.08224">
        <ele>114.312199</ele>
        <time>2020-10-02T10:01:41.599Z</time>
      </trkpt>
      <trkpt lat="63.44767" lon="19.08231">
        <ele>114.086119</ele>
        <time>2020-10-02T10:01:43.615Z</time>
      </trkpt>
      <trkpt lat="63.44758" lon="19.08236">
        <ele>113.857542</ele>
        <time>2020-10-02T10:01:45.597Z</time>
      </trkpt>
      <trkpt lat="63.44749" lon="19.08244">
        <ele>113.618846</ele>
        <time>2020-10-02T10:01:47.615Z</time>
      </trkpt>
      <trkpt lat="63.4474" lon="19.08251">
        <ele>113.373386</ele>
        <time>2020-10-02T10:01:49.601Z</time>
      </trkpt>
      <trkpt lat="63.4473" lon="19.08258">
        <ele>113.141702</ele>
        <time>2020-10-02T10:01:51.613Z</time>
      </trkpt>
      <trkpt lat="63.4472" lon="19.08267">
        <ele>112.859554</ele>
        <time>2020-10-02T10:01:54.610Z</time>
      </trkpt>
      <trkpt lat="63.44709" lon="19.08276">
        <ele>112.911719</ele>
        <time>2020-10-02T10:01:57.623Z</time>
      </trkpt>
      <trkpt lat="63.44696" lon="19.08289">
        <ele>113.077335</ele>
        <time>2020-10-02T10:02:00.601Z</time>
      </trkpt>
      <trkpt lat="63.44687" lon="19.08296">
        <ele>113.192948</ele>
        <time>2020-10-02T10:02:02.600Z</time>
      </trkpt>
      <trkpt lat="63.44678" lon="19.08303">
        <ele>113.308202</ele>
        <time>2020-10-02T10:02:04.602Z</time>
      </trkpt>
      <trkpt lat="63.44669" lon="19.08309">
        <ele>113.422432</ele>
        <time>2020-10-02T10:02:06.601Z</time>
      </trkpt>
      <trkpt lat="63.44661" lon="19.08316">
        <ele>113.532876</ele>
        <time>2020-10-02T10:02:08.584Z</time>
      </trkpt>
      <trkpt lat="63.44652" lon="19.08321">
        <ele>113.6418</ele>
        <time>2020-10-02T10:02:10.593Z</time>
      </trkpt>
      <trkpt lat="63.44639" lon="19.08327">
        <ele>113.805599</ele>
        <time>2020-10-02T10:02:13.600Z</time>
      </trkpt>
      <trkpt lat="63.44628" lon="19.08331">
        <ele>113.934715</ele>
        <time>2020-10-02T10:02:15.605Z</time>
      </trkpt>
      <trkpt lat="63.44618" lon="19.08334">
        <ele>114.06496</ele>
        <time>2020-10-02T10:02:17.599Z</time>
      </trkpt>
      <trkpt lat="63.44607" lon="19.08334">
        <ele>114.193248</ele>
        <time>2020-10-02T10:02:19.627Z</time>
      </trkpt>
      <trkpt lat="63.44596" lon="19.08334">
        <ele>114.32752</ele>
        <time>2020-10-02T10:02:21.601Z</time>
      </trkpt>
      <trkpt lat="63.44584" lon="19.08334">
        <ele>114.465412</ele>
        <time>2020-10-02T10:02:23.605Z</time>
      </trkpt>
      <trkpt lat="63.44573" lon="19.08336">
        <ele>114.60244</ele>
        <time>2020-10-02T10:02:25.607Z</time>
      </trkpt>
      <trkpt lat="63.44561" lon="19.08342">
        <ele>114.747632</ele>
        <time>2020-10-02T10:02:27.587Z</time>
      </trkpt>
      <trkpt lat="63.44551" lon="19.08354">
        <ele>114.892899</ele>
        <time>2020-10-02T10:02:29.599Z</time>
      </trkpt>
      <trkpt lat="63.44543" lon="19.08371">
        <ele>115.009119</ele>
        <time>2020-10-02T10:02:31.617Z</time>
      </trkpt>
      <trkpt lat="63.44537" lon="19.08389">
        <ele>115.083584</ele>
        <time>2020-10-02T10:02:33.591Z</time>
      </trkpt>
      <trkpt lat="63.44531" lon="19.08406">
        <ele>115.156603</ele>
        <time>2020-10-02T10:02:35.614Z</time>
      </trkpt>
      <trkpt lat="63.44525" lon="19.08423">
        <ele>115.225337</ele>
        <time>2020-10-02T10:02:37.608Z</time>
      </trkpt>
      <trkpt lat="63.44518" lon="19.08446">
        <ele>115.321628</ele>
        <time>2020-10-02T10:02:40.598Z</time>
      </trkpt>
      <trkpt lat="63.44511" lon="19.08468">
        <ele>115.411409</ele>
        <time>2020-10-02T10:02:43.601Z</time>
      </trkpt>
      <trkpt lat="63.44505" lon="19.08489">
        <ele>115.491047</ele>
        <time>2020-10-02T10:02:46.645Z</time>
      </trkpt>
      <trkpt lat="63.445" lon="19.08508">
        <ele>115.564198</ele>
        <time>2020-10-02T10:02:49.587Z</time>
      </trkpt>
      <trkpt lat="63.44495" lon="19.08526">
        <ele>115.635622</ele>
        <time>2020-10-02T10:02:52.594Z</time>
      </trkpt>
      <trkpt lat="63.4449" lon="19.08545">
        <ele>115.710706</ele>
        <time>2020-10-02T10:02:55.602Z</time>
      </trkpt>
      <trkpt lat="63.44485" lon="19.08565">
        <ele>115.785674</ele>
        <time>2020-10-02T10:02:58.580Z</time>
      </trkpt>
      <trkpt lat="63.4448" lon="19.08585">
        <ele>115.863846</ele>
        <time>2020-10-02T10:03:01.624Z</time>
      </trkpt>
      <trkpt lat="63.44474" lon="19.08604">
        <ele>115.938631</ele>
        <time>2020-10-02T10:03:04.640Z</time>
      </trkpt>
      <trkpt lat="63.44469" lon="19.08626">
        <ele>116.021902</ele>
        <time>2020-10-02T10:03:07.592Z</time>
      </trkpt>
      <trkpt lat="63.44463" lon="19.08649">
        <ele>116.112526</ele>
        <time>2020-10-02T10:03:10.597Z</time>
      </trkpt>
      <trkpt lat="63.44456" lon="19.08672">
        <ele>116.202198</ele>
        <time>2020-10-02T10:03:13.590Z</time>
      </trkpt>
      <trkpt lat="63.44449" lon="19.08696">
        <ele>116.297632</ele>
        <time>2020-10-02T10:03:16.636Z</time>
      </trkpt>
      <trkpt lat="63.44442" lon="19.0872">
        <ele>116.201268</ele>
        <time>2020-10-02T10:03:19.623Z</time>
      </trkpt>
      <trkpt lat="63.44435" lon="19.08744">
        <ele>116.051107</ele>
        <time>2020-10-02T10:03:22.610Z</time>
      </trkpt>
      <trkpt lat="63.44428" lon="19.08768">
        <ele>115.902018</ele>
        <time>2020-10-02T10:03:25.594Z</time>
      </trkpt>
      <trkpt lat="63.4442" lon="19.08792">
        <ele>115.7497</ele>
        <time>2020-10-02T10:03:28.587Z</time>
      </trkpt>
      <trkpt lat="63.44415" lon="19.0881">
        <ele>115.641017</ele>
        <time>2020-10-02T10:03:30.619Z</time>
      </trkpt>
      <trkpt lat="63.44409" lon="19.08828">
        <ele>115.526254</ele>
        <time>2020-10-02T10:03:32.586Z</time>
      </trkpt>
      <trkpt lat="63.44404" lon="19.08846">
        <ele>115.408269</ele>
        <time>2020-10-02T10:03:34.591Z</time>
      </trkpt>
      <trkpt lat="63.44398" lon="19.08865">
        <ele>115.290945</ele>
        <time>2020-10-02T10:03:36.603Z</time>
      </trkpt>
      <trkpt lat="63.44392" lon="19.08881">
        <ele>115.184281</ele>
        <time>2020-10-02T10:03:38.600Z</time>
      </trkpt>
      <trkpt lat="63.44387" lon="19.08899">
        <ele>115.073835</ele>
        <time>2020-10-02T10:03:42.606Z</time>
      </trkpt>
      <trkpt lat="63.44382" lon="19.08917">
        <ele>114.961807</ele>
        <time>2020-10-02T10:03:47.601Z</time>
      </trkpt>
      <trkpt lat="63.44374" lon="19.08935">
        <ele>114.833813</ele>
        <time>2020-10-02T10:03:52.614Z</time>
      </trkpt>
      <trkpt lat="63.44367" lon="19.08951">
        <ele>114.71788</ele>
        <time>2020-10-02T10:03:56.643Z</time>
      </trkpt>
      <trkpt lat="63.44359" lon="19.08963">
        <ele>114.597826</ele>
        <time>2020-10-02T10:04:00.585Z</time>
      </trkpt>
      <trkpt lat="63.4435" lon="19.0897">
        <ele>114.490404</ele>
        <time>2020-10-02T10:04:03.639Z</time>
      </trkpt>
      <trkpt lat="63.44337" lon="19.08971">
        <ele>114.3414</ele>
        <time>2020-10-02T10:04:06.598Z</time>
      </trkpt>
      <trkpt lat="63.44325" lon="19.08967">
        <ele>114.141934</ele>
        <time>2020-10-02T10:04:08.619Z</time>
      </trkpt>
      <trkpt lat="63.44312" lon="19.08962">
        <ele>113.640751</ele>
        <time>2020-10-02T10:04:10.597Z</time>
      </trkpt>
      <trkpt lat="63.44297" lon="19.08959">
        <ele>113.095135</ele>
        <time>2020-10-02T10:04:12.590Z</time>
      </trkpt>
      <trkpt lat="63.44282" lon="19.08955">
        <ele>112.526833</ele>
        <time>2020-10-02T10:04:14.588Z</time>
      </trkpt>
      <trkpt lat="63.44267" lon="19.08952">
        <ele>111.936016</ele>
        <time>2020-10-02T10:04:16.606Z</time>
      </trkpt>
      <trkpt lat="63.4425" lon="19.08949">
        <ele>111.332078</ele>
        <time>2020-10-02T10:04:18.616Z</time>
      </trkpt>
      <trkpt lat="63.44234" lon="19.08946">
        <ele>110.719535</ele>
        <time>2020-10-02T10:04:20.591Z</time>
      </trkpt>
      <trkpt lat="63.44218" lon="19.08942">
        <ele>110.098585</ele>
        <time>2020-10-02T10:04:22.590Z</time>
      </trkpt>
      <trkpt lat="63.44202" lon="19.08936">
        <ele>109.490979</ele>
        <time>2020-10-02T10:04:24.607Z</time>
      </trkpt>
      <trkpt lat="63.44186" lon="19.08929">
        <ele>108.889634</ele>
        <time>2020-10-02T10:04:26.585Z</time>
      </trkpt>
      <trkpt lat="63.44171" lon="19.08921">
        <ele>108.322636</ele>
        <time>2020-10-02T10:04:28.609Z</time>
      </trkpt>
      <trkpt lat="63.44157" lon="19.08914">
        <ele>107.796182</ele>
        <time>2020-10-02T10:04:30.609Z</time>
      </trkpt>
      <trkpt lat="63.44145" lon="19.08909">
        <ele>107.435622</ele>
        <time>2020-10-02T10:04:32.595Z</time>
      </trkpt>
      <trkpt lat="63.44133" lon="19.08906">
        <ele>107.297965</ele>
        <time>2020-10-02T10:04:34.616Z</time>
      </trkpt>
      <trkpt lat="63.44122" lon="19.08903">
        <ele>107.173457</ele>
        <time>2020-10-02T10:04:36.601Z</time>
      </trkpt>
      <trkpt lat="63.44112" lon="19.08904">
        <ele>107.059712</ele>
        <time>2020-10-02T10:04:38.610Z</time>
      </trkpt>
      <trkpt lat="63.44103" lon="19.08905">
        <ele>106.954018</ele>
        <time>2020-10-02T10:04:40.626Z</time>
      </trkpt>
      <trkpt lat="63.44094" lon="19.08903">
        <ele>106.850364</ele>
        <time>2020-10-02T10:04:42.604Z</time>
      </trkpt>
      <trkpt lat="63.44082" lon="19.089">
        <ele>106.709561</ele>
        <time>2020-10-02T10:04:45.607Z</time>
      </trkpt>
      <trkpt lat="63.4407" lon="19.08897">
        <ele>106.574184</ele>
        <time>2020-10-02T10:04:48.610Z</time>
      </trkpt>
      <trkpt lat="63.44059" lon="19.08894">
        <ele>106.447854</ele>
        <time>2020-10-02T10:04:51.598Z</time>
      </trkpt>
      <trkpt lat="63.44049" lon="19.08893">
        <ele>106.337577</ele>
        <time>2020-10-02T10:04:54.595Z</time>
      </trkpt>
      <trkpt lat="63.44038" lon="19.08893">
        <ele>106.210066</ele>
        <time>2020-10-02T10:04:58.587Z</time>
      </trkpt>
      <trkpt lat="63.44028" lon="19.08894">
        <ele>106.096247</ele>
        <time>2020-10-02T10:05:02.624Z</time>
      </trkpt>
      <trkpt lat="63.44019" lon="19.08894">
        <ele>105.991712</ele>
        <time>2020-10-02T10:05:06.625Z</time>
      </trkpt>
      <trkpt lat="63.44009" lon="19.08896">
        <ele>105.869618</ele>
        <time>2020-10-02T10:05:11.603Z</time>
      </trkpt>
      <trkpt lat="63.43998" lon="19.08899">
        <ele>105.747978</ele>
        <time>2020-10-02T10:05:16.604Z</time>
      </trkpt>
      <trkpt lat="63.43988" lon="19.08903">
        <ele>105.628165</ele>
        <time>2020-10-02T10:05:21.618Z</time>
      </trkpt>
      <trkpt lat="63.43978" lon="19.08909">
        <ele>105.507031</ele>
        <time>2020-10-02T10:05:26.606Z</time>
      </trkpt>
      <trkpt lat="63.43969" lon="19.08915">
        <ele>105.52213</ele>
        <time>2020-10-02T10:05:30.625Z</time>
      </trkpt>
      <trkpt lat="63.4396" lon="19.08922">
        <ele>105.897417</ele>
        <time>2020-10-02T10:05:34.611Z</time>
      </trkpt>
      <trkpt lat="63.4395" lon="19.08934">
        <ele>106.310341</ele>
        <time>2020-10-02T10:05:38.600Z</time>
      </trkpt>
      <trkpt lat="63.43942" lon="19.08945">
        <ele>106.679454</ele>
        <time>2020-10-02T10:05:42.622Z</time>
      </trkpt>
      <trkpt lat="63.43934" lon="19.08957">
        <ele>107.048936</ele>
        <time>2020-10-02T10:05:47.599Z</time>
      </trkpt>
      <trkpt lat="63.43926" lon="19.0897">
        <ele>107.436677</ele>
        <time>2020-10-02T10:05:52.607Z</time>
      </trkpt>
      <trkpt lat="63.43917" lon="19.08986">
        <ele>107.86573</ele>
        <time>2020-10-02T10:05:56.602Z</time>
      </trkpt>
      <trkpt lat="63.43909" lon="19.09002">
        <ele>108.295195</ele>
        <time>2020-10-02T10:06:00.610Z</time>
      </trkpt>
      <trkpt lat="63.43903" lon="19.0902">
        <ele>108.672281</ele>
        <time>2020-10-02T10:06:04.602Z</time>
      </trkpt>
      <trkpt lat="63.43896" lon="19.09036">
        <ele>109.060628</ele>
        <time>2020-10-02T10:06:08.628Z</time>
      </trkpt>
      <trkpt lat="63.43889" lon="19.09051">
        <ele>109.430229</ele>
        <time>2020-10-02T10:06:12.622Z</time>
      </trkpt>
      <trkpt lat="63.43883" lon="19.09067">
        <ele>109.81518</ele>
        <time>2020-10-02T10:06:16.627Z</time>
      </trkpt>
      <trkpt lat="63.43876" lon="19.09084">
        <ele>110.210365</ele>
        <time>2020-10-02T10:06:20.596Z</time>
      </trkpt>
      <trkpt lat="63.43868" lon="19.09101">
        <ele>110.619869</ele>
        <time>2020-10-02T10:06:24.614Z</time>
      </trkpt>
      <trkpt lat="63.43861" lon="19.09119">
        <ele>111.033493</ele>
        <time>2020-10-02T10:06:28.589Z</time>
      </trkpt>
      <trkpt lat="63.43853" lon="19.09134">
        <ele>111.428987</ele>
        <time>2020-10-02T10:06:33.621Z</time>
      </trkpt>
      <trkpt lat="63.43846" lon="19.09148">
        <ele>111.812374</ele>
        <time>2020-10-02T10:06:38.597Z</time>
      </trkpt>
      <trkpt lat="63.43838" lon="19.0916">
        <ele>112.172676</ele>
        <time>2020-10-02T10:06:42.612Z</time>
      </trkpt>
      <trkpt lat="63.43829" lon="19.09173">
        <ele>112.301173</ele>
        <time>2020-10-02T10:06:46.589Z</time>
      </trkpt>
      <trkpt lat="63.4382" lon="19.09187">
        <ele>112.171861</ele>
        <time>2020-10-02T10:06:49.623Z</time>
      </trkpt>
      <trkpt lat="63.43809" lon="19.09199">
        <ele>112.017207</ele>
        <time>2020-10-02T10:06:52.623Z</time>
      </trkpt>
      <trkpt lat="63.43801" lon="19.0921">
        <ele>111.90589</ele>
        <time>2020-10-02T10:06:54.603Z</time>
      </trkpt>
      <trkpt lat="63.43793" lon="19.09219">
        <ele>111.784966</ele>
        <time>2020-10-02T10:06:56.600Z</time>
      </trkpt>
      <trkpt lat="63.43783" lon="19.09229">
        <ele>111.655959</ele>
        <time>2020-10-02T10:06:58.588Z</time>
      </trkpt>
      <trkpt lat="63.43773" lon="19.09239">
        <ele>111.52153</ele>
        <time>2020-10-02T10:07:00.592Z</time>
      </trkpt>
      <trkpt lat="63.43764" lon="19.09249">
        <ele>111.390147</ele>
        <time>2020-10-02T10:07:02.639Z</time>
      </trkpt>
      <trkpt lat="63.43755" lon="19.0926">
        <ele>111.267819</ele>
        <time>2020-10-02T10:07:04.598Z</time>
      </trkpt>
      <trkpt lat="63.43747" lon="19.09271">
        <ele>111.151161</ele>
        <time>2020-10-02T10:07:06.610Z</time>
      </trkpt>
      <trkpt lat="63.43738" lon="19.09283">
        <ele>111.027811</ele>
        <time>2020-10-02T10:07:08.607Z</time>
      </trkpt>
      <trkpt lat="63.4373" lon="19.09294">
        <ele>110.903527</ele>
        <time>2020-10-02T10:07:10.625Z</time>
      </trkpt>
      <trkpt lat="63.43721" lon="19.09306">
        <ele>110.7793</ele>
        <time>2020-10-02T10:07:12.605Z</time>
      </trkpt>
      <trkpt lat="63.43712" lon="19.09317">
        <ele>110.647521</ele>
        <time>2020-10-02T10:07:14.618Z</time>
      </trkpt>
      <trkpt lat="63.43703" lon="19.09328">
        <ele>110.519449</ele>
        <time>2020-10-02T10:07:16.604Z</time>
      </trkpt>
      <trkpt lat="63.43693" lon="19.0934">
        <ele>110.384112</ele>
        <time>2020-10-02T10:07:18.597Z</time>
      </trkpt>
      <trkpt lat="63.43683" lon="19.09354">
        <ele>110.237929</ele>
        <time>2020-10-02T10:07:20.589Z</time>
      </trkpt>
      <trkpt lat="63.43673" lon="19.09368">
        <ele>109.990707</ele>
        <time>2020-10-02T10:07:22.605Z</time>
      </trkpt>
      <trkpt lat="63.43662" lon="19.09382">
        <ele>109.584288</ele>
        <time>2020-10-02T10:07:24.597Z</time>
      </trkpt>
      <trkpt lat="63.43652" lon="19.09396">
        <ele>109.193663</ele>
        <time>2020-10-02T10:07:26.593Z</time>
      </trkpt>
      <trkpt lat="63.43642" lon="19.09411">
        <ele>108.802708</ele>
        <time>2020-10-02T10:07:28.594Z</time>
      </trkpt>
      <trkpt lat="63.43632" lon="19.09426">
        <ele>108.398883</ele>
        <time>2020-10-02T10:07:30.583Z</time>
      </trkpt>
      <trkpt lat="63.43621" lon="19.09443">
        <ele>107.974876</ele>
        <time>2020-10-02T10:07:32.602Z</time>
      </trkpt>
      <trkpt lat="63.43611" lon="19.0946">
        <ele>107.553676</ele>
        <time>2020-10-02T10:07:34.609Z</time>
      </trkpt>
      <trkpt lat="63.43601" lon="19.09476">
        <ele>107.133334</ele>
        <time>2020-10-02T10:07:36.600Z</time>
      </trkpt>
      <trkpt lat="63.43591" lon="19.09494">
        <ele>106.740584</ele>
        <time>2020-10-02T10:07:38.589Z</time>
      </trkpt>
      <trkpt lat="63.43583" lon="19.09509">
        <ele>106.382109</ele>
        <time>2020-10-02T10:07:40.597Z</time>
      </trkpt>
      <trkpt lat="63.43575" lon="19.09524">
        <ele>106.044703</ele>
        <time>2020-10-02T10:07:42.598Z</time>
      </trkpt>
      <trkpt lat="63.43567" lon="19.09537">
        <ele>105.722568</ele>
        <time>2020-10-02T10:07:44.584Z</time>
      </trkpt>
      <trkpt lat="63.43561" lon="19.09551">
        <ele>105.424455</ele>
        <time>2020-10-02T10:07:46.613Z</time>
      </trkpt>
      <trkpt lat="63.4355" lon="19.0957">
        <ele>104.988625</ele>
        <time>2020-10-02T10:07:49.626Z</time>
      </trkpt>
      <trkpt lat="63.43543" lon="19.09582">
        <ele>104.684073</ele>
        <time>2020-10-02T10:07:51.628Z</time>
      </trkpt>
      <trkpt lat="63.43532" lon="19.09599">
        <ele>104.254002</ele>
        <time>2020-10-02T10:07:54.586Z</time>
      </trkpt>
      <trkpt lat="63.43521" lon="19.09615">
        <ele>104.716841</ele>
        <time>2020-10-02T10:07:57.600Z</time>
      </trkpt>
      <trkpt lat="63.4351" lon="19.0963">
        <ele>105.200511</ele>
        <time>2020-10-02T10:08:00.598Z</time>
      </trkpt>
      <trkpt lat="63.435" lon="19.09642">
        <ele>105.634047</ele>
        <time>2020-10-02T10:08:03.595Z</time>
      </trkpt>
      <trkpt lat="63.4349" lon="19.09652">
        <ele>106.014364</ele>
        <time>2020-10-02T10:08:06.625Z</time>
      </trkpt>
      <trkpt lat="63.43482" lon="19.09663">
        <ele>106.383956</ele>
        <time>2020-10-02T10:08:09.595Z</time>
      </trkpt>
      <trkpt lat="63.43472" lon="19.09669">
        <ele>106.745565</ele>
        <time>2020-10-02T10:08:12.625Z</time>
      </trkpt>
      <trkpt lat="63.43463" lon="19.09676">
        <ele>107.126842</ele>
        <time>2020-10-02T10:08:15.651Z</time>
      </trkpt>
      <trkpt lat="63.43453" lon="19.09686">
        <ele>107.530819</ele>
        <time>2020-10-02T10:08:18.602Z</time>
      </trkpt>
      <trkpt lat="63.43442" lon="19.09701">
        <ele>108.003315</ele>
        <time>2020-10-02T10:08:21.591Z</time>
      </trkpt>
      <trkpt lat="63.43432" lon="19.09718">
        <ele>108.455974</ele>
        <time>2020-10-02T10:08:24.603Z</time>
      </trkpt>
      <trkpt lat="63.43422" lon="19.09731">
        <ele>108.893574</ele>
        <time>2020-10-02T10:08:27.627Z</time>
      </trkpt>
      <trkpt lat="63.43413" lon="19.0975">
        <ele>109.357104</ele>
        <time>2020-10-02T10:08:30.641Z</time>
      </trkpt>
      <trkpt lat="63.43405" lon="19.09771">
        <ele>109.811331</ele>
        <time>2020-10-02T10:08:33.600Z</time>
      </trkpt>
      <trkpt lat="63.43398" lon="19.09794">
        <ele>110.264273</ele>
        <time>2020-10-02T10:08:36.619Z</time>
      </trkpt>
      <trkpt lat="63.43392" lon="19.0982">
        <ele>110.753627</ele>
        <time>2020-10-02T10:08:39.593Z</time>
      </trkpt>
      <trkpt lat="63.43388" lon="19.09849">
        <ele>110.912369</ele>
        <time>2020-10-02T10:08:42.622Z</time>
      </trkpt>
      <trkpt lat="63.43386" lon="19.09873">
        <ele>110.916373</ele>
        <time>2020-10-02T10:08:45.600Z</time>
      </trkpt>
      <trkpt lat="63.43385" lon="19.09898">
        <ele>110.920354</ele>
        <time>2020-10-02T10:08:48.582Z</time>
      </trkpt>
      <trkpt lat="63.43383" lon="19.09922">
        <ele>110.924351</ele>
        <time>2020-10-02T10:08:51.595Z</time>
      </trkpt>
      <trkpt lat="63.4338" lon="19.0995">
        <ele>110.928968</ele>
        <time>2020-10-02T10:08:54.591Z</time>
      </trkpt>
      <trkpt lat="63.43378" lon="19.09971">
        <ele>110.932352</ele>
        <time>2020-10-02T10:08:56.656Z</time>
      </trkpt>
      <trkpt lat="63.43375" lon="19.09991">
        <ele>110.935796</ele>
        <time>2020-10-02T10:08:58.605Z</time>
      </trkpt>
      <trkpt lat="63.43372" lon="19.10011">
        <ele>110.939178</ele>
        <time>2020-10-02T10:09:00.605Z</time>
      </trkpt>
      <trkpt lat="63.43369" lon="19.10031">
        <ele>110.942599</ele>
        <time>2020-10-02T10:09:02.581Z</time>
      </trkpt>
      <trkpt lat="63.43365" lon="19.10052">
        <ele>110.946217</ele>
        <time>2020-10-02T10:09:04.592Z</time>
      </trkpt>
      <trkpt lat="63.43361" lon="19.10073">
        <ele>110.949932</ele>
        <time>2020-10-02T10:09:06.606Z</time>
      </trkpt>
      <trkpt lat="63.43356" lon="19.10093">
        <ele>110.953643</ele>
        <time>2020-10-02T10:09:08.618Z</time>
      </trkpt>
      <trkpt lat="63.43351" lon="19.10111">
        <ele>110.957131</ele>
        <time>2020-10-02T10:09:10.593Z</time>
      </trkpt>
      <trkpt lat="63.43345" lon="19.10127">
        <ele>110.960373</ele>
        <time>2020-10-02T10:09:12.589Z</time>
      </trkpt>
      <trkpt lat="63.4334" lon="19.10147">
        <ele>110.964168</ele>
        <time>2020-10-02T10:09:14.620Z</time>
      </trkpt>
      <trkpt lat="63.43332" lon="19.10169">
        <ele>110.968605</ele>
        <time>2020-10-02T10:09:16.591Z</time>
      </trkpt>
      <trkpt lat="63.43324" lon="19.10189">
        <ele>110.972946</ele>
        <time>2020-10-02T10:09:18.595Z</time>
      </trkpt>
      <trkpt lat="63.43316" lon="19.10208">
        <ele>110.626723</ele>
        <time>2020-10-02T10:09:20.590Z</time>
      </trkpt>
      <trkpt lat="63.4331" lon="19.10223">
        <ele>110.255427</ele>
        <time>2020-10-02T10:09:22.608Z</time>
      </trkpt>
      <trkpt lat="63.43303" lon="19.10236">
        <ele>109.901434</ele>
        <time>2020-10-02T10:09:24.615Z</time>
      </trkpt>
      <trkpt lat="63.43294" lon="19.10254">
        <ele>109.427839</ele>
        <time>2020-10-02T10:09:27.607Z</time>
      </trkpt>
      <trkpt lat="63.43285" lon="19.10271">
        <ele>108.978886</ele>
        <time>2020-10-02T10:09:30.587Z</time>
      </trkpt>
      <trkpt lat="63.43276" lon="19.10287">
        <ele>108.524597</ele>
        <time>2020-10-02T10:09:33.619Z</time>
      </trkpt>
      <trkpt lat="63.43268" lon="19.10303">
        <ele>108.097738</ele>
        <time>2020-10-02T10:09:36.592Z</time>
      </trkpt>
      <trkpt lat="63.43259" lon="19.10318">
        <ele>107.67873</ele>
        <time>2020-10-02T10:09:39.615Z</time>
      </trkpt>
      <trkpt lat="63.43251" lon="19.10332">
        <ele>107.260161</ele>
        <time>2020-10-02T10:09:42.606Z</time>
      </trkpt>
      <trkpt lat="63.43242" lon="19.10347">
        <ele>106.825933</ele>
        <time>2020-10-02T10:09:45.630Z</time>
      </trkpt>
      <trkpt lat="63.43232" lon="19.1036">
        <ele>106.396654</ele>
        <time>2020-10-02T10:09:48.607Z</time>
      </trkpt>
      <trkpt lat="63.43221" lon="19.10372">
        <ele>105.911043</ele>
        <time>2020-10-02T10:09:51.618Z</time>
      </trkpt>
      <trkpt lat="63.4321" lon="19.10384">
        <ele>105.423222</ele>
        <time>2020-10-02T10:09:54.606Z</time>
      </trkpt>
      <trkpt lat="63.43201" lon="19.1039">
        <ele>105.066603</ele>
        <time>2020-10-02T10:09:56.583Z</time>
      </trkpt>
      <trkpt lat="63.43192" lon="19.10395">
        <ele>104.696421</ele>
        <time>2020-10-02T10:09:58.638Z</time>
      </trkpt>
      <trkpt lat="63.43183" lon="19.104">
        <ele>104.323263</ele>
        <time>2020-10-02T10:10:00.588Z</time>
      </trkpt>
      <trkpt lat="63.43173" lon="19.10404">
        <ele>103.96257</ele>
        <time>2020-10-02T10:10:02.608Z</time>
      </trkpt>
      <trkpt lat="63.43163" lon="19.10409">
        <ele>104.39954</ele>
        <time>2020-10-02T10:10:04.594Z</time>
      </trkpt>
      <trkpt lat="63.43154" lon="19.10414">
        <ele>104.809521</ele>
        <time>2020-10-02T10:10:06.622Z</time>
      </trkpt>
      <trkpt lat="63.43142" lon="19.10423">
        <ele>105.380124</ele>
        <time>2020-10-02T10:10:09.595Z</time>
      </trkpt>
      <trkpt lat="63.43129" lon="19.10433">
        <ele>105.954883</ele>
        <time>2020-10-02T10:10:12.605Z</time>
      </trkpt>
      <trkpt lat="63.43121" lon="19.10438">
        <ele>106.347537</ele>
        <time>2020-10-02T10:10:14.591Z</time>
      </trkpt>
      <trkpt lat="63.43112" lon="19.10444">
        <ele>106.750266</ele>
        <time>2020-10-02T10:10:16.602Z</time>
      </trkpt>
      <trkpt lat="63.43103" lon="19.1045">
        <ele>107.160062</ele>
        <time>2020-10-02T10:10:18.598Z</time>
      </trkpt>
      <trkpt lat="63.43091" lon="19.10458">
        <ele>107.720234</ele>
        <time>2020-10-02T10:10:21.600Z</time>
      </trkpt>
      <trkpt lat="63.43078" lon="19.10464">
        <ele>108.288313</ele>
        <time>2020-10-02T10:10:24.600Z</time>
      </trkpt>
      <trkpt lat="63.43067" lon="19.1047">
        <ele>108.80197</ele>
        <time>2020-10-02T10:10:27.613Z</time>
      </trkpt>
      <trkpt lat="63.43055" lon="19.10477">
        <ele>109.347373</ele>
        <time>2020-10-02T10:10:30.589Z</time>
      </trkpt>
      <trkpt lat="63.43042" lon="19.10484">
        <ele>109.924448</ele>
        <time>2020-10-02T10:10:33.601Z</time>
      </trkpt>
      <trkpt lat="63.43029" lon="19.10489">
        <ele>110.489524</ele>
        <time>2020-10-02T10:10:36.624Z</time>
      </trkpt>
      <trkpt lat="63.4302" lon="19.10492">
        <ele>110.884623</ele>
        <time>2020-10-02T10:10:38.620Z</time>
      </trkpt>
      <trkpt lat="63.43007" lon="19.10496">
        <ele>111.465555</ele>
        <time>2020-10-02T10:10:41.598Z</time>
      </trkpt>
      <trkpt lat="63.42997" lon="19.105">
        <ele>111.803512</ele>
        <time>2020-10-02T10:10:43.641Z</time>
      </trkpt>
      <trkpt lat="63.42986" lon="19.10505">
        <ele>111.497946</ele>
        <time>2020-10-02T10:10:45.618Z</time>
      </trkpt>
      <trkpt lat="63.42976" lon="19.10509">
        <ele>111.21132</ele>
        <time>2020-10-02T10:10:47.604Z</time>
      </trkpt>
      <trkpt lat="63.42966" lon="19.10513">
        <ele>110.943322</ele>
        <time>2020-10-02T10:10:49.592Z</time>
      </trkpt>
      <trkpt lat="63.42956" lon="19.10516">
        <ele>110.6766</ele>
        <time>2020-10-02T10:10:51.590Z</time>
      </trkpt>
      <trkpt lat="63.42946" lon="19.10518">
        <ele>110.394797</ele>
        <time>2020-10-02T10:10:53.610Z</time>
      </trkpt>
      <trkpt lat="63.42936" lon="19.10521">
        <ele>110.119381</ele>
        <time>2020-10-02T10:10:55.598Z</time>
      </trkpt>
      <trkpt lat="63.42925" lon="19.10523">
        <ele>109.835508</ele>
        <time>2020-10-02T10:10:57.626Z</time>
      </trkpt>
      <trkpt lat="63.42915" lon="19.10523">
        <ele>109.55777</ele>
        <time>2020-10-02T10:10:59.625Z</time>
      </trkpt>
      <trkpt lat="63.42905" lon="19.10523">
        <ele>109.2854</ele>
        <time>2020-10-02T10:11:01.609Z</time>
      </trkpt>
      <trkpt lat="63.42892" lon="19.1052">
        <ele>108.951494</ele>
        <time>2020-10-02T10:11:04.618Z</time>
      </trkpt>
      <trkpt lat="63.42883" lon="19.10515">
        <ele>108.693245</ele>
        <time>2020-10-02T10:11:07.595Z</time>
      </trkpt>
      <trkpt lat="63.42874" lon="19.10509">
        <ele>108.440776</ele>
        <time>2020-10-02T10:11:10.621Z</time>
      </trkpt>
      <trkpt lat="63.42864" lon="19.10502">
        <ele>108.149414</ele>
        <time>2020-10-02T10:11:13.589Z</time>
      </trkpt>
      <trkpt lat="63.42853" lon="19.1049">
        <ele>107.827876</ele>
        <time>2020-10-02T10:11:16.614Z</time>
      </trkpt>
      <trkpt lat="63.42844" lon="19.10481">
        <ele>107.559065</ele>
        <time>2020-10-02T10:11:18.602Z</time>
      </trkpt>
      <trkpt lat="63.42834" lon="19.10471">
        <ele>107.251358</ele>
        <time>2020-10-02T10:11:20.621Z</time>
      </trkpt>
      <trkpt lat="63.42822" lon="19.1046">
        <ele>106.904168</ele>
        <time>2020-10-02T10:11:22.606Z</time>
      </trkpt>
      <trkpt lat="63.42809" lon="19.10451">
        <ele>106.495691</ele>
        <time>2020-10-02T10:11:24.612Z</time>
      </trkpt>
      <trkpt lat="63.42797" lon="19.10445">
        <ele>106.103137</ele>
        <time>2020-10-02T10:11:26.593Z</time>
      </trkpt>
      <trkpt lat="63.42785" lon="19.10442">
        <ele>105.742178</ele>
        <time>2020-10-02T10:11:28.592Z</time>
      </trkpt>
      <trkpt lat="63.42774" lon="19.10439">
        <ele>105.406403</ele>
        <time>2020-10-02T10:11:30.623Z</time>
      </trkpt>
      <trkpt lat="63.42764" lon="19.10438">
        <ele>105.108362</ele>
        <time>2020-10-02T10:11:32.585Z</time>
      </trkpt>
      <trkpt lat="63.42754" lon="19.10438">
        <ele>104.798467</ele>
        <time>2020-10-02T10:11:34.598Z</time>
      </trkpt>
      <trkpt lat="63.42743" lon="19.10438">
        <ele>104.479466</ele>
        <time>2020-10-02T10:11:36.645Z</time>
      </trkpt>
      <trkpt lat="63.42732" lon="19.10438">
        <ele>104.142172</ele>
        <time>2020-10-02T10:11:38.597Z</time>
      </trkpt>
      <trkpt lat="63.42721" lon="19.10437">
        <ele>103.810685</ele>
        <time>2020-10-02T10:11:40.649Z</time>
      </trkpt>
      <trkpt lat="63.4271" lon="19.10435">
        <ele>103.4757</ele>
        <time>2020-10-02T10:11:42.626Z</time>
      </trkpt>
      <trkpt lat="63.427" lon="19.10433">
        <ele>103.152402</ele>
        <time>2020-10-02T10:11:44.600Z</time>
      </trkpt>
      <trkpt lat="63.42689" lon="19.1043">
        <ele>102.833646</ele>
        <time>2020-10-02T10:11:46.628Z</time>
      </trkpt>
      <trkpt lat="63.4268" lon="19.10427">
        <ele>102.536843</ele>
        <time>2020-10-02T10:11:48.584Z</time>
      </trkpt>
      <trkpt lat="63.4267" lon="19.10424">
        <ele>102.246071</ele>
        <time>2020-10-02T10:11:50.599Z</time>
      </trkpt>
      <trkpt lat="63.42661" lon="19.10423">
        <ele>101.962473</ele>
        <time>2020-10-02T10:11:52.589Z</time>
      </trkpt>
      <trkpt lat="63.42647" lon="19.10419">
        <ele>101.555929</ele>
        <time>2020-10-02T10:11:55.600Z</time>
      </trkpt>
      <trkpt lat="63.42635" lon="19.10417">
        <ele>102.005906</ele>
        <time>2020-10-02T10:11:58.628Z</time>
      </trkpt>
      <trkpt lat="63.42622" lon="19.10416">
        <ele>102.497922</ele>
        <time>2020-10-02T10:12:01.599Z</time>
      </trkpt>
      <trkpt lat="63.42611" lon="19.10415">
        <ele>102.938605</ele>
        <time>2020-10-02T10:12:04.593Z</time>
      </trkpt>
      <trkpt lat="63.42601" lon="19.10414">
        <ele>103.359477</ele>
        <time>2020-10-02T10:12:07.591Z</time>
      </trkpt>
      <trkpt lat="63.42591" lon="19.10413">
        <ele>103.749336</ele>
        <time>2020-10-02T10:12:10.605Z</time>
      </trkpt>
      <trkpt lat="63.42581" lon="19.1041">
        <ele>104.151653</ele>
        <time>2020-10-02T10:12:13.593Z</time>
      </trkpt>
      <trkpt lat="63.42571" lon="19.10407">
        <ele>104.53382</ele>
        <time>2020-10-02T10:12:16.585Z</time>
      </trkpt>
      <trkpt lat="63.4256" lon="19.10401">
        <ele>104.996758</ele>
        <time>2020-10-02T10:12:20.585Z</time>
      </trkpt>
      <trkpt lat="63.42549" lon="19.10392">
        <ele>105.457015</ele>
        <time>2020-10-02T10:12:24.606Z</time>
      </trkpt>
      <trkpt lat="63.42538" lon="19.10384">
        <ele>105.909402</ele>
        <time>2020-10-02T10:12:28.615Z</time>
      </trkpt>
      <trkpt lat="63.42527" lon="19.10377">
        <ele>106.357768</ele>
        <time>2020-10-02T10:12:32.606Z</time>
      </trkpt>
      <trkpt lat="63.42518" lon="19.10375">
        <ele>106.722098</ele>
        <time>2020-10-02T10:12:35.593Z</time>
      </trkpt>
      <trkpt lat="63.42507" lon="19.1037">
        <ele>107.17703</ele>
        <time>2020-10-02T10:12:39.595Z</time>
      </trkpt>
      <trkpt lat="63.42495" lon="19.10371">
        <ele>107.625269</ele>
        <time>2020-10-02T10:12:43.611Z</time>
      </trkpt>
      <trkpt lat="63.42486" lon="19.1037">
        <ele>107.990593</ele>
        <time>2020-10-02T10:12:46.610Z</time>
      </trkpt>
      <trkpt lat="63.42477" lon="19.10369">
        <ele>108.3674</ele>
        <time>2020-10-02T10:12:49.585Z</time>
      </trkpt>
      <trkpt lat="63.42465" lon="19.10369">
        <ele>108.715444</ele>
        <time>2020-10-02T10:12:52.606Z</time>
      </trkpt>
      <trkpt lat="63.42454" lon="19.10371">
        <ele>108.871573</ele>
        <time>2020-10-02T10:12:55.613Z</time>
      </trkpt>
      <trkpt lat="63.42444" lon="19.10371">
        <ele>109.003159</ele>
        <time>2020-10-02T10:12:58.602Z</time>
      </trkpt>
      <trkpt lat="63.42433" lon="19.10371">
        <ele>109.150917</ele>
        <time>2020-10-02T10:13:01.591Z</time>
      </trkpt>
      <trkpt lat="63.4242" lon="19.10372">
        <ele>109.321451</ele>
        <time>2020-10-02T10:13:04.581Z</time>
      </trkpt>
      <trkpt lat="63.4241" lon="19.10371">
        <ele>109.455728</ele>
        <time>2020-10-02T10:13:06.611Z</time>
      </trkpt>
      <trkpt lat="63.424" lon="19.1037">
        <ele>109.590483</ele>
        <time>2020-10-02T10:13:08.605Z</time>
      </trkpt>
      <trkpt lat="63.4239" lon="19.10367">
        <ele>109.724326</ele>
        <time>2020-10-02T10:13:10.583Z</time>
      </trkpt>
      <trkpt lat="63.42381" lon="19.10363">
        <ele>109.85238</ele>
        <time>2020-10-02T10:13:12.589Z</time>
      </trkpt>
      <trkpt lat="63.42372" lon="19.10361">
        <ele>109.975561</ele>
        <time>2020-10-02T10:13:14.586Z</time>
      </trkpt>
      <trkpt lat="63.4236" lon="19.10356">
        <ele>110.14301</ele>
        <time>2020-10-02T10:13:17.611Z</time>
      </trkpt>
      <trkpt lat="63.42348" lon="19.10352">
        <ele>110.295302</ele>
        <time>2020-10-02T10:13:20.607Z</time>
      </trkpt>
      <trkpt lat="63.42338" lon="19.10349">
        <ele>110.430549</ele>
        <time>2020-10-02T10:13:23.591Z</time>
      </trkpt>
      <trkpt lat="63.42328" lon="19.10348">
        <ele>110.57722</ele>
        <time>2020-10-02T10:13:26.585Z</time>
      </trkpt>
      <trkpt lat="63.42316" lon="19.10346">
        <ele>110.730671</ele>
        <time>2020-10-02T10:13:29.582Z</time>
      </trkpt>
      <trkpt lat="63.42304" lon="19.10345">
        <ele>110.894521</ele>
        <time>2020-10-02T10:13:32.587Z</time>
      </trkpt>
      <trkpt lat="63.42291" lon="19.10344">
        <ele>111.066493</ele>
        <time>2020-10-02T10:13:35.601Z</time>
      </trkpt>
      <trkpt lat="63.42279" lon="19.10343">
        <ele>110.559507</ele>
        <time>2020-10-02T10:13:38.607Z</time>
      </trkpt>
      <trkpt lat="63.42266" lon="19.10343">
        <ele>109.993964</ele>
        <time>2020-10-02T10:13:41.601Z</time>
      </trkpt>
      <trkpt lat="63.42253" lon="19.10345">
        <ele>109.422132</ele>
        <time>2020-10-02T10:13:44.594Z</time>
      </trkpt>
      <trkpt lat="63.42244" lon="19.10349">
        <ele>109.011603</ele>
        <time>2020-10-02T10:13:46.624Z</time>
      </trkpt>
      <trkpt lat="63.42234" lon="19.10352">
        <ele>108.58436</ele>
        <time>2020-10-02T10:13:48.608Z</time>
      </trkpt>
      <trkpt lat="63.42224" lon="19.10354">
        <ele>108.131394</ele>
        <time>2020-10-02T10:13:50.591Z</time>
      </trkpt>
      <trkpt lat="63.42214" lon="19.10358">
        <ele>107.663631</ele>
        <time>2020-10-02T10:13:52.603Z</time>
      </trkpt>
      <trkpt lat="63.42204" lon="19.1036">
        <ele>107.215086</ele>
        <time>2020-10-02T10:13:54.602Z</time>
      </trkpt>
      <trkpt lat="63.42194" lon="19.10363">
        <ele>106.757459</ele>
        <time>2020-10-02T10:13:56.603Z</time>
      </trkpt>
      <trkpt lat="63.42183" lon="19.10365">
        <ele>106.283583</ele>
        <time>2020-10-02T10:13:58.626Z</time>
      </trkpt>
      <trkpt lat="63.42172" lon="19.10367">
        <ele>105.787993</ele>
        <time>2020-10-02T10:14:00.582Z</time>
      </trkpt>
      <trkpt lat="63.4216" lon="19.10368">
        <ele>105.252789</ele>
        <time>2020-10-02T10:14:02.598Z</time>
      </trkpt>
      <trkpt lat="63.42147" lon="19.10372">
        <ele>104.665283</ele>
        <time>2020-10-02T10:14:04.656Z</time>
      </trkpt>
      <trkpt lat="63.42134" lon="19.10379">
        <ele>104.050627</ele>
        <time>2020-10-02T10:14:06.596Z</time>
      </trkpt>
      <trkpt lat="63.42121" lon="19.1039">
        <ele>103.448321</ele>
        <time>2020-10-02T10:14:08.591Z</time>
      </trkpt>
      <trkpt lat="63.42108" lon="19.10402">
        <ele>102.748012</ele>
        <time>2020-10-02T10:14:10.608Z</time>
      </trkpt>
      <trkpt lat="63.42096" lon="19.10416">
        <ele>101.869256</ele>
        <time>2020-10-02T10:14:12.581Z</time>
      </trkpt>
      <trkpt lat="63.42083" lon="19.1043">
        <ele>100.970888</ele>
        <time>2020-10-02T10:14:14.597Z</time>
      </trkpt>
      <trkpt lat="63.42071" lon="19.10446">
        <ele>100.089506</ele>
        <time>2020-10-02T10:14:16.623Z</time>
      </trkpt>
      <trkpt lat="63.4206" lon="19.10462">
        <ele>99.232878</ele>
        <time>2020-10-02T10:14:18.590Z</time>
      </trkpt>
      <trkpt lat="63.4205" lon="19.10479">
        <ele>98.423951</ele>
        <time>2020-10-02T10:14:20.626Z</time>
      </trkpt>
      <trkpt lat="63.4204" lon="19.10496">
        <ele>97.659105</ele>
        <time>2020-10-02T10:14:22.587Z</time>
      </trkpt>
      <trkpt lat="63.42031" lon="19.10511">
        <ele>96.953526</ele>
        <time>2020-10-02T10:14:24.606Z</time>
      </trkpt>
      <trkpt lat="63.42023" lon="19.10526">
        <ele>96.271487</ele>
        <time>2020-10-02T10:14:26.624Z</time>
      </trkpt>
      <trkpt lat="63.42014" lon="19.10539">
        <ele>95.595867</ele>
        <time>2020-10-02T10:14:28.629Z</time>
      </trkpt>
      <trkpt lat="63.42005" lon="19.10551">
        <ele>94.92303</ele>
        <time>2020-10-02T10:14:30.582Z</time>
      </trkpt>
      <trkpt lat="63.41996" lon="19.10562">
        <ele>94.281995</ele>
        <time>2020-10-02T10:14:32.641Z</time>
      </trkpt>
      <trkpt lat="63.41987" lon="19.10571">
        <ele>93.641685</ele>
        <time>2020-10-02T10:14:34.588Z</time>
      </trkpt>
      <trkpt lat="63.41978" lon="19.10579">
        <ele>93.023745</ele>
        <time>2020-10-02T10:14:36.598Z</time>
      </trkpt>
      <trkpt lat="63.41968" lon="19.10587">
        <ele>92.402898</ele>
        <time>2020-10-02T10:14:38.637Z</time>
      </trkpt>
      <trkpt lat="63.41959" lon="19.10594">
        <ele>91.770161</ele>
        <time>2020-10-02T10:14:40.591Z</time>
      </trkpt>
      <trkpt lat="63.41949" lon="19.10601">
        <ele>91.607447</ele>
        <time>2020-10-02T10:14:42.610Z</time>
      </trkpt>
      <trkpt lat="63.41939" lon="19.10606">
        <ele>91.513132</ele>
        <time>2020-10-02T10:14:44.602Z</time>
      </trkpt>
      <trkpt lat="63.41928" lon="19.10609">
        <ele>91.418885</ele>
        <time>2020-10-02T10:14:46.599Z</time>
      </trkpt>
      <trkpt lat="63.41918" lon="19.10611">
        <ele>91.328848</ele>
        <time>2020-10-02T10:14:48.609Z</time>
      </trkpt>
      <trkpt lat="63.41907" lon="19.10612">
        <ele>91.240625</ele>
        <time>2020-10-02T10:14:50.590Z</time>
      </trkpt>
      <trkpt lat="63.41897" lon="19.10615">
        <ele>91.147545</ele>
        <time>2020-10-02T10:14:52.608Z</time>
      </trkpt>
      <trkpt lat="63.41887" lon="19.1062">
        <ele>91.061405</ele>
        <time>2020-10-02T10:14:54.597Z</time>
      </trkpt>
      <trkpt lat="63.41878" lon="19.10627">
        <ele>90.973585</ele>
        <time>2020-10-02T10:14:56.598Z</time>
      </trkpt>
      <trkpt lat="63.41868" lon="19.10634">
        <ele>90.886675</ele>
        <time>2020-10-02T10:14:58.626Z</time>
      </trkpt>
      <trkpt lat="63.41859" lon="19.10642">
        <ele>90.803381</ele>
        <time>2020-10-02T10:15:00.604Z</time>
      </trkpt>
      <trkpt lat="63.4185" lon="19.10653">
        <ele>90.711564</ele>
        <time>2020-10-02T10:15:02.600Z</time>
      </trkpt>
      <trkpt lat="63.41841" lon="19.10663">
        <ele>90.620877</ele>
        <time>2020-10-02T10:15:04.596Z</time>
      </trkpt>
      <trkpt lat="63.41832" lon="19.10674">
        <ele>90.531025</ele>
        <time>2020-10-02T10:15:06.590Z</time>
      </trkpt>
      <trkpt lat="63.41822" lon="19.10684">
        <ele>90.437239</ele>
        <time>2020-10-02T10:15:08.638Z</time>
      </trkpt>
      <trkpt lat="63.41811" lon="19.10693">
        <ele>90.339718</ele>
        <time>2020-10-02T10:15:10.609Z</time>
      </trkpt>
      <trkpt lat="63.418" lon="19.10702">
        <ele>90.235251</ele>
        <time>2020-10-02T10:15:12.605Z</time>
      </trkpt>
      <trkpt lat="63.41788" lon="19.1071">
        <ele>90.124485</ele>
        <time>2020-10-02T10:15:14.594Z</time>
      </trkpt>
      <trkpt lat="63.41775" lon="19.10718">
        <ele>90.524039</ele>
        <time>2020-10-02T10:15:16.600Z</time>
      </trkpt>
      <trkpt lat="63.41763" lon="19.10725">
        <ele>90.952754</ele>
        <time>2020-10-02T10:15:18.593Z</time>
      </trkpt>
      <trkpt lat="63.41751" lon="19.10731">
        <ele>91.362846</ele>
        <time>2020-10-02T10:15:20.584Z</time>
      </trkpt>
      <trkpt lat="63.41739" lon="19.10738">
        <ele>91.757851</ele>
        <time>2020-10-02T10:15:22.606Z</time>
      </trkpt>
      <trkpt lat="63.41729" lon="19.10743">
        <ele>92.122145</ele>
        <time>2020-10-02T10:15:24.606Z</time>
      </trkpt>
      <trkpt lat="63.41718" lon="19.10748">
        <ele>92.470203</ele>
        <time>2020-10-02T10:15:26.588Z</time>
      </trkpt>
      <trkpt lat="63.41708" lon="19.10753">
        <ele>92.812259</ele>
        <time>2020-10-02T10:15:28.612Z</time>
      </trkpt>
      <trkpt lat="63.41698" lon="19.10758">
        <ele>93.159041</ele>
        <time>2020-10-02T10:15:30.601Z</time>
      </trkpt>
      <trkpt lat="63.41688" lon="19.10764">
        <ele>93.509941</ele>
        <time>2020-10-02T10:15:32.621Z</time>
      </trkpt>
      <trkpt lat="63.41678" lon="19.1077">
        <ele>93.855595</ele>
        <time>2020-10-02T10:15:34.591Z</time>
      </trkpt>
      <trkpt lat="63.41668" lon="19.10776">
        <ele>94.180421</ele>
        <time>2020-10-02T10:15:36.605Z</time>
      </trkpt>
      <trkpt lat="63.41659" lon="19.10781">
        <ele>94.505816</ele>
        <time>2020-10-02T10:15:38.595Z</time>
      </trkpt>
      <trkpt lat="63.41647" lon="19.10788">
        <ele>94.925231</ele>
        <time>2020-10-02T10:15:41.627Z</time>
      </trkpt>
      <trkpt lat="63.41637" lon="19.10793">
        <ele>95.266806</ele>
        <time>2020-10-02T10:15:44.592Z</time>
      </trkpt>
      <trkpt lat="63.41625" lon="19.10798">
        <ele>95.652468</ele>
        <time>2020-10-02T10:15:48.620Z</time>
      </trkpt>
      <trkpt lat="63.41615" lon="19.10802">
        <ele>95.991542</ele>
        <time>2020-10-02T10:15:52.598Z</time>
      </trkpt>
      <trkpt lat="63.41605" lon="19.10808">
        <ele>96.283409</ele>
        <time>2020-10-02T10:15:56.599Z</time>
      </trkpt>
      <trkpt lat="63.41594" lon="19.10813">
        <ele>96.546307</ele>
        <time>2020-10-02T10:16:00.589Z</time>
      </trkpt>
      <trkpt lat="63.41583" lon="19.10817">
        <ele>96.807547</ele>
        <time>2020-10-02T10:16:04.609Z</time>
      </trkpt>
      <trkpt lat="63.41572" lon="19.10819">
        <ele>97.079558</ele>
        <time>2020-10-02T10:16:08.593Z</time>
      </trkpt>
      <trkpt lat="63.41561" lon="19.1082">
        <ele>97.34671</ele>
        <time>2020-10-02T10:16:12.630Z</time>
      </trkpt>
      <trkpt lat="63.41551" lon="19.10823">
        <ele>97.595555</ele>
        <time>2020-10-02T10:16:16.607Z</time>
      </trkpt>
      <trkpt lat="63.41541" lon="19.1082">
        <ele>97.837119</ele>
        <time>2020-10-02T10:16:20.605Z</time>
      </trkpt>
      <trkpt lat="63.41529" lon="19.10818">
        <ele>98.116608</ele>
        <time>2020-10-02T10:16:24.596Z</time>
      </trkpt>
      <trkpt lat="63.41518" lon="19.10819">
        <ele>98.371401</ele>
        <time>2020-10-02T10:16:28.598Z</time>
      </trkpt>
      <trkpt lat="63.41508" lon="19.10822">
        <ele>98.626346</ele>
        <time>2020-10-02T10:16:32.609Z</time>
      </trkpt>
      <trkpt lat="63.41499" lon="19.10823">
        <ele>98.845024</ele>
        <time>2020-10-02T10:16:35.579Z</time>
      </trkpt>
      <trkpt lat="63.41488" lon="19.10825">
        <ele>99.099124</ele>
        <time>2020-10-02T10:16:38.607Z</time>
      </trkpt>
      <trkpt lat="63.41479" lon="19.10828">
        <ele>99.326595</ele>
        <time>2020-10-02T10:16:41.630Z</time>
      </trkpt>
      <trkpt lat="63.41468" lon="19.10833">
        <ele>99.592298</ele>
        <time>2020-10-02T10:16:45.594Z</time>
      </trkpt>
      <trkpt lat="63.41458" lon="19.10838">
        <ele>99.848151</ele>
        <time>2020-10-02T10:16:50.582Z</time>
      </trkpt>
      <trkpt lat="63.41449" lon="19.10845">
        <ele>100.072488</ele>
        <time>2020-10-02T10:16:57.589Z</time>
      </trkpt>
      <trkpt lat="63.4142" lon="19.10852">
        <ele>99.877283</ele>
        <time>2020-10-02T10:37:16.901Z</time>
      </trkpt>
      <trkpt lat="63.41408" lon="19.10859">
        <ele>99.412349</ele>
        <time>2020-10-02T10:37:20.924Z</time>
      </trkpt>
      <trkpt lat="63.41397" lon="19.10864">
        <ele>98.983201</ele>
        <time>2020-10-02T10:37:23.941Z</time>
      </trkpt>
      <trkpt lat="63.41385" lon="19.10869">
        <ele>98.507408</ele>
        <time>2020-10-02T10:37:26.919Z</time>
      </trkpt>
      <trkpt lat="63.41371" lon="19.10872">
        <ele>98.006504</ele>
        <time>2020-10-02T10:37:29.929Z</time>
      </trkpt>
      <trkpt lat="63.41362" lon="19.10875">
        <ele>97.664051</ele>
        <time>2020-10-02T10:37:31.917Z</time>
      </trkpt>
      <trkpt lat="63.41349" lon="19.10877">
        <ele>97.169091</ele>
        <time>2020-10-02T10:37:34.892Z</time>
      </trkpt>
      <trkpt lat="63.41336" lon="19.10876">
        <ele>96.68633</ele>
        <time>2020-10-02T10:37:37.908Z</time>
      </trkpt>
      <trkpt lat="63.41325" lon="19.10874">
        <ele>96.23616</ele>
        <time>2020-10-02T10:37:40.944Z</time>
      </trkpt>
      <trkpt lat="63.41314" lon="19.10872">
        <ele>95.846113</ele>
        <time>2020-10-02T10:37:43.894Z</time>
      </trkpt>
      <trkpt lat="63.41305" lon="19.10875">
        <ele>95.495959</ele>
        <time>2020-10-02T10:37:46.898Z</time>
      </trkpt>
      <trkpt lat="63.41296" lon="19.10879">
        <ele>95.152918</ele>
        <time>2020-10-02T10:37:49.919Z</time>
      </trkpt>
      <trkpt lat="63.41287" lon="19.10886">
        <ele>94.808023</ele>
        <time>2020-10-02T10:37:52.965Z</time>
      </trkpt>
      <trkpt lat="63.41278" lon="19.10895">
        <ele>94.425102</ele>
        <time>2020-10-02T10:37:55.905Z</time>
      </trkpt>
      <trkpt lat="63.41269" lon="19.10905">
        <ele>94.028348</ele>
        <time>2020-10-02T10:37:58.910Z</time>
      </trkpt>
      <trkpt lat="63.41259" lon="19.10917">
        <ele>93.640541</ele>
        <time>2020-10-02T10:38:01.908Z</time>
      </trkpt>
      <trkpt lat="63.4125" lon="19.10929">
        <ele>93.661668</ele>
        <time>2020-10-02T10:38:04.896Z</time>
      </trkpt>
      <trkpt lat="63.41241" lon="19.10943">
        <ele>93.682323</ele>
        <time>2020-10-02T10:38:07.932Z</time>
      </trkpt>
      <trkpt lat="63.41233" lon="19.10958">
        <ele>93.702482</ele>
        <time>2020-10-02T10:38:10.911Z</time>
      </trkpt>
      <trkpt lat="63.41226" lon="19.10975">
        <ele>93.722877</ele>
        <time>2020-10-02T10:38:13.914Z</time>
      </trkpt>
      <trkpt lat="63.41219" lon="19.10993">
        <ele>93.74305</ele>
        <time>2020-10-02T10:38:16.925Z</time>
      </trkpt>
      <trkpt lat="63.41213" lon="19.11011">
        <ele>93.763311</ele>
        <time>2020-10-02T10:38:19.915Z</time>
      </trkpt>
      <trkpt lat="63.41206" lon="19.1103">
        <ele>93.784522</ele>
        <time>2020-10-02T10:38:22.891Z</time>
      </trkpt>
      <trkpt lat="63.412" lon="19.11051">
        <ele>93.806685</ele>
        <time>2020-10-02T10:38:25.931Z</time>
      </trkpt>
      <trkpt lat="63.41193" lon="19.11072">
        <ele>93.828876</ele>
        <time>2020-10-02T10:38:28.910Z</time>
      </trkpt>
      <trkpt lat="63.41186" lon="19.11092">
        <ele>93.850898</ele>
        <time>2020-10-02T10:38:31.921Z</time>
      </trkpt>
      <trkpt lat="63.4118" lon="19.11111">
        <ele>93.872533</ele>
        <time>2020-10-02T10:38:34.944Z</time>
      </trkpt>
      <trkpt lat="63.41172" lon="19.1113">
        <ele>93.894337</ele>
        <time>2020-10-02T10:38:37.891Z</time>
      </trkpt>
      <trkpt lat="63.41165" lon="19.11148">
        <ele>93.915701</ele>
        <time>2020-10-02T10:38:40.893Z</time>
      </trkpt>
      <trkpt lat="63.41157" lon="19.11164">
        <ele>93.936214</ele>
        <time>2020-10-02T10:38:43.905Z</time>
      </trkpt>
      <trkpt lat="63.41149" lon="19.11178">
        <ele>93.956507</ele>
        <time>2020-10-02T10:38:46.929Z</time>
      </trkpt>
      <trkpt lat="63.41141" lon="19.11193">
        <ele>93.976657</ele>
        <time>2020-10-02T10:38:49.907Z</time>
      </trkpt>
      <trkpt lat="63.41132" lon="19.11204">
        <ele>93.979906</ele>
        <time>2020-10-02T10:38:52.946Z</time>
      </trkpt>
      <trkpt lat="63.41122" lon="19.11215">
        <ele>93.942026</ele>
        <time>2020-10-02T10:38:56.900Z</time>
      </trkpt>
      <trkpt lat="63.41113" lon="19.11224">
        <ele>93.907025</ele>
        <time>2020-10-02T10:39:00.906Z</time>
      </trkpt>
      <trkpt lat="63.41102" lon="19.11232">
        <ele>93.869606</ele>
        <time>2020-10-02T10:39:05.894Z</time>
      </trkpt>
      <trkpt lat="63.41094" lon="19.11237">
        <ele>93.839349</ele>
        <time>2020-10-02T10:39:09.914Z</time>
      </trkpt>
      <trkpt lat="63.41084" lon="19.1124">
        <ele>93.806298</ele>
        <time>2020-10-02T10:39:13.895Z</time>
      </trkpt>
      <trkpt lat="63.41074" lon="19.11244">
        <ele>93.773797</ele>
        <time>2020-10-02T10:39:16.920Z</time>
      </trkpt>
      <trkpt lat="63.41062" lon="19.11248">
        <ele>93.732938</ele>
        <time>2020-10-02T10:39:19.892Z</time>
      </trkpt>
      <trkpt lat="63.41052" lon="19.1125">
        <ele>93.699297</ele>
        <time>2020-10-02T10:39:21.902Z</time>
      </trkpt>
      <trkpt lat="63.41042" lon="19.11252">
        <ele>93.662408</ele>
        <time>2020-10-02T10:39:23.940Z</time>
      </trkpt>
      <trkpt lat="63.41029" lon="19.11255">
        <ele>93.621071</ele>
        <time>2020-10-02T10:39:25.899Z</time>
      </trkpt>
      <trkpt lat="63.41017" lon="19.11259">
        <ele>93.578812</ele>
        <time>2020-10-02T10:39:27.903Z</time>
      </trkpt>
      <trkpt lat="63.41004" lon="19.11267">
        <ele>93.53349</ele>
        <time>2020-10-02T10:39:29.890Z</time>
      </trkpt>
      <trkpt lat="63.40991" lon="19.11278">
        <ele>93.487178</ele>
        <time>2020-10-02T10:39:31.898Z</time>
      </trkpt>
      <trkpt lat="63.40979" lon="19.11295">
        <ele>93.440462</ele>
        <time>2020-10-02T10:39:33.909Z</time>
      </trkpt>
      <trkpt lat="63.40969" lon="19.11313">
        <ele>93.39465</ele>
        <time>2020-10-02T10:39:35.922Z</time>
      </trkpt>
      <trkpt lat="63.40958" lon="19.11331">
        <ele>92.960908</ele>
        <time>2020-10-02T10:39:37.891Z</time>
      </trkpt>
      <trkpt lat="63.40947" lon="19.11347">
        <ele>92.403376</ele>
        <time>2020-10-02T10:39:39.901Z</time>
      </trkpt>
      <trkpt lat="63.40936" lon="19.11362">
        <ele>91.836789</ele>
        <time>2020-10-02T10:39:41.912Z</time>
      </trkpt>
      <trkpt lat="63.40925" lon="19.11377">
        <ele>91.264202</ele>
        <time>2020-10-02T10:39:43.902Z</time>
      </trkpt>
      <trkpt lat="63.40914" lon="19.11392">
        <ele>90.707684</ele>
        <time>2020-10-02T10:39:45.923Z</time>
      </trkpt>
      <trkpt lat="63.40903" lon="19.11407">
        <ele>90.174079</ele>
        <time>2020-10-02T10:39:47.902Z</time>
      </trkpt>
      <trkpt lat="63.40894" lon="19.11422">
        <ele>89.677039</ele>
        <time>2020-10-02T10:39:49.926Z</time>
      </trkpt>
      <trkpt lat="63.40885" lon="19.11437">
        <ele>89.209158</ele>
        <time>2020-10-02T10:39:51.935Z</time>
      </trkpt>
      <trkpt lat="63.40877" lon="19.1145">
        <ele>88.780269</ele>
        <time>2020-10-02T10:39:53.894Z</time>
      </trkpt>
      <trkpt lat="63.4087" lon="19.11464">
        <ele>88.360212</ele>
        <time>2020-10-02T10:39:55.895Z</time>
      </trkpt>
      <trkpt lat="63.40862" lon="19.11481">
        <ele>87.906477</ele>
        <time>2020-10-02T10:39:57.919Z</time>
      </trkpt>
      <trkpt lat="63.40854" lon="19.11498">
        <ele>87.42419</ele>
        <time>2020-10-02T10:39:59.901Z</time>
      </trkpt>
      <trkpt lat="63.40845" lon="19.11518">
        <ele>86.87528</ele>
        <time>2020-10-02T10:40:01.930Z</time>
      </trkpt>
      <trkpt lat="63.40836" lon="19.11539">
        <ele>86.300547</ele>
        <time>2020-10-02T10:40:03.938Z</time>
      </trkpt>
      <trkpt lat="63.40826" lon="19.11561">
        <ele>85.706342</ele>
        <time>2020-10-02T10:40:05.916Z</time>
      </trkpt>
      <trkpt lat="63.40817" lon="19.11584">
        <ele>85.234106</ele>
        <time>2020-10-02T10:40:07.902Z</time>
      </trkpt>
      <trkpt lat="63.40809" lon="19.11605">
        <ele>84.784048</ele>
        <time>2020-10-02T10:40:09.898Z</time>
      </trkpt>
      <trkpt lat="63.408" lon="19.11626">
        <ele>84.33286</ele>
        <time>2020-10-02T10:40:11.925Z</time>
      </trkpt>
      <trkpt lat="63.40791" lon="19.11648">
        <ele>83.883808</ele>
        <time>2020-10-02T10:40:13.906Z</time>
      </trkpt>
      <trkpt lat="63.40782" lon="19.11669">
        <ele>83.431486</ele>
        <time>2020-10-02T10:40:15.893Z</time>
      </trkpt>
      <trkpt lat="63.40773" lon="19.11692">
        <ele>82.964135</ele>
        <time>2020-10-02T10:40:17.930Z</time>
      </trkpt>
      <trkpt lat="63.40764" lon="19.11717">
        <ele>82.486854</ele>
        <time>2020-10-02T10:40:19.915Z</time>
      </trkpt>
      <trkpt lat="63.40757" lon="19.11742">
        <ele>82.016127</ele>
        <time>2020-10-02T10:40:21.908Z</time>
      </trkpt>
      <trkpt lat="63.40749" lon="19.11769">
        <ele>81.526536</ele>
        <time>2020-10-02T10:40:23.927Z</time>
      </trkpt>
      <trkpt lat="63.40741" lon="19.11796">
        <ele>81.01743</ele>
        <time>2020-10-02T10:40:25.917Z</time>
      </trkpt>
      <trkpt lat="63.40732" lon="19.11823">
        <ele>80.505269</ele>
        <time>2020-10-02T10:40:27.916Z</time>
      </trkpt>
      <trkpt lat="63.40723" lon="19.11848">
        <ele>80.00458</ele>
        <time>2020-10-02T10:40:29.898Z</time>
      </trkpt>
      <trkpt lat="63.40713" lon="19.1187">
        <ele>79.528995</ele>
        <time>2020-10-02T10:40:31.893Z</time>
      </trkpt>
      <trkpt lat="63.40704" lon="19.1189">
        <ele>79.166533</ele>
        <time>2020-10-02T10:40:33.898Z</time>
      </trkpt>
      <trkpt lat="63.40696" lon="19.11909">
        <ele>78.846961</ele>
        <time>2020-10-02T10:40:35.908Z</time>
      </trkpt>
      <trkpt lat="63.40688" lon="19.11927">
        <ele>78.544759</ele>
        <time>2020-10-02T10:40:37.931Z</time>
      </trkpt>
      <trkpt lat="63.4068" lon="19.11944">
        <ele>78.250668</ele>
        <time>2020-10-02T10:40:39.894Z</time>
      </trkpt>
      <trkpt lat="63.40673" lon="19.11962">
        <ele>77.95939</ele>
        <time>2020-10-02T10:40:41.916Z</time>
      </trkpt>
      <trkpt lat="63.40666" lon="19.11979">
        <ele>77.68617</ele>
        <time>2020-10-02T10:40:43.904Z</time>
      </trkpt>
      <trkpt lat="63.4066" lon="19.11995">
        <ele>77.425505</ele>
        <time>2020-10-02T10:40:45.959Z</time>
      </trkpt>
      <trkpt lat="63.40653" lon="19.1201">
        <ele>77.154553</ele>
        <time>2020-10-02T10:40:47.918Z</time>
      </trkpt>
      <trkpt lat="63.40646" lon="19.12027">
        <ele>76.875806</ele>
        <time>2020-10-02T10:40:49.893Z</time>
      </trkpt>
      <trkpt lat="63.40638" lon="19.12045">
        <ele>76.574625</ele>
        <time>2020-10-02T10:40:51.911Z</time>
      </trkpt>
      <trkpt lat="63.4063" lon="19.12067">
        <ele>76.231931</ele>
        <time>2020-10-02T10:40:53.903Z</time>
      </trkpt>
      <trkpt lat="63.40621" lon="19.1209">
        <ele>75.856815</ele>
        <time>2020-10-02T10:40:55.928Z</time>
      </trkpt>
      <trkpt lat="63.4061" lon="19.12116">
        <ele>75.436591</ele>
        <time>2020-10-02T10:40:57.896Z</time>
      </trkpt>
      <trkpt lat="63.40599" lon="19.12141">
        <ele>75.001052</ele>
        <time>2020-10-02T10:40:59.899Z</time>
      </trkpt>
      <trkpt lat="63.40587" lon="19.12164">
        <ele>74.578662</ele>
        <time>2020-10-02T10:41:01.927Z</time>
      </trkpt>
      <trkpt lat="63.40574" lon="19.12185">
        <ele>74.716019</ele>
        <time>2020-10-02T10:41:03.956Z</time>
      </trkpt>
      <trkpt lat="63.40561" lon="19.12203">
        <ele>74.852015</ele>
        <time>2020-10-02T10:41:05.900Z</time>
      </trkpt>
      <trkpt lat="63.40547" lon="19.12221">
        <ele>74.991368</ele>
        <time>2020-10-02T10:41:07.927Z</time>
      </trkpt>
      <trkpt lat="63.40534" lon="19.12237">
        <ele>75.127064</ele>
        <time>2020-10-02T10:41:09.918Z</time>
      </trkpt>
      <trkpt lat="63.40521" lon="19.12252">
        <ele>75.256213</ele>
        <time>2020-10-02T10:41:11.906Z</time>
      </trkpt>
      <trkpt lat="63.40509" lon="19.12267">
        <ele>75.375491</ele>
        <time>2020-10-02T10:41:13.931Z</time>
      </trkpt>
      <trkpt lat="63.40498" lon="19.1228">
        <ele>75.483786</ele>
        <time>2020-10-02T10:41:15.902Z</time>
      </trkpt>
      <trkpt lat="63.40489" lon="19.12293">
        <ele>75.584518</ele>
        <time>2020-10-02T10:41:17.894Z</time>
      </trkpt>
      <trkpt lat="63.4048" lon="19.12307">
        <ele>75.679869</ele>
        <time>2020-10-02T10:41:19.893Z</time>
      </trkpt>
      <trkpt lat="63.40472" lon="19.12319">
        <ele>75.767079</ele>
        <time>2020-10-02T10:41:21.918Z</time>
      </trkpt>
      <trkpt lat="63.4046" lon="19.12334">
        <ele>75.883311</ele>
        <time>2020-10-02T10:41:24.929Z</time>
      </trkpt>
      <trkpt lat="63.40448" lon="19.12343">
        <ele>75.997297</ele>
        <time>2020-10-02T10:41:27.903Z</time>
      </trkpt>
      <trkpt lat="63.40438" lon="19.12351">
        <ele>76.093723</ele>
        <time>2020-10-02T10:41:30.893Z</time>
      </trkpt>
      <trkpt lat="63.40428" lon="19.12353">
        <ele>76.341024</ele>
        <time>2020-10-02T10:41:33.907Z</time>
      </trkpt>
      <trkpt lat="63.40417" lon="19.12352">
        <ele>77.778494</ele>
        <time>2020-10-02T10:41:37.926Z</time>
      </trkpt>
      <trkpt lat="63.40407" lon="19.12346">
        <ele>79.088721</ele>
        <time>2020-10-02T10:41:41.923Z</time>
      </trkpt>
      <trkpt lat="63.40398" lon="19.1234">
        <ele>80.232437</ele>
        <time>2020-10-02T10:41:46.902Z</time>
      </trkpt>
      <trkpt lat="63.40389" lon="19.12335">
        <ele>81.471944</ele>
        <time>2020-10-02T10:41:52.920Z</time>
      </trkpt>
      <trkpt lat="63.40379" lon="19.12333">
        <ele>82.709827</ele>
        <time>2020-10-02T10:41:58.893Z</time>
      </trkpt>
      <trkpt lat="63.40369" lon="19.12331">
        <ele>83.964448</ele>
        <time>2020-10-02T10:42:04.907Z</time>
      </trkpt>
      <trkpt lat="63.40359" lon="19.12327">
        <ele>85.250381</ele>
        <time>2020-10-02T10:42:10.904Z</time>
      </trkpt>
      <trkpt lat="63.40349" lon="19.12326">
        <ele>86.524534</ele>
        <time>2020-10-02T10:42:17.919Z</time>
      </trkpt>
      <trkpt lat="63.4034" lon="19.12329">
        <ele>87.6831</ele>
        <time>2020-10-02T10:42:24.908Z</time>
      </trkpt>
      <trkpt lat="63.40331" lon="19.12337">
        <ele>88.934109</ele>
        <time>2020-10-02T10:42:31.903Z</time>
      </trkpt>
      <trkpt lat="63.40323" lon="19.12347">
        <ele>90.175394</ele>
        <time>2020-10-02T10:42:38.890Z</time>
      </trkpt>
      <trkpt lat="63.40315" lon="19.12358">
        <ele>91.33738</ele>
        <time>2020-10-02T10:42:45.933Z</time>
      </trkpt>
      <trkpt lat="63.40307" lon="19.12369">
        <ele>92.499368</ele>
        <time>2020-10-02T10:42:52.917Z</time>
      </trkpt>
      <trkpt lat="63.403" lon="19.1238">
        <ele>93.644941</ele>
        <time>2020-10-02T10:43:01.906Z</time>
      </trkpt>
      <trkpt lat="63.40292" lon="19.12392">
        <ele>94.795054</ele>
        <time>2020-10-02T10:43:08.926Z</time>
      </trkpt>
      <trkpt lat="63.40284" lon="19.12401">
        <ele>95.998333</ele>
        <time>2020-10-02T10:43:18.910Z</time>
      </trkpt>
      <trkpt lat="63.40277" lon="19.12418">
        <ele>97.29213</ele>
        <time>2020-10-02T10:43:26.904Z</time>
      </trkpt>
      <trkpt lat="63.40269" lon="19.12431">
        <ele>98.529583</ele>
        <time>2020-10-02T10:43:33.909Z</time>
      </trkpt>
      <trkpt lat="63.40262" lon="19.12444">
        <ele>99.186134</ele>
        <time>2020-10-02T10:43:39.908Z</time>
      </trkpt>
      <trkpt lat="63.40256" lon="19.12459">
        <ele>99.434637</ele>
        <time>2020-10-02T10:43:47.916Z</time>
      </trkpt>
      <trkpt lat="63.40249" lon="19.12477">
        <ele>99.712612</ele>
        <time>2020-10-02T10:43:55.928Z</time>
      </trkpt>
      <trkpt lat="63.40243" lon="19.12493">
        <ele>99.967474</ele>
        <time>2020-10-02T10:44:00.941Z</time>
      </trkpt>
      <trkpt lat="63.40236" lon="19.12508">
        <ele>100.234501</ele>
        <time>2020-10-02T10:44:06.947Z</time>
      </trkpt>
      <trkpt lat="63.40229" lon="19.12526">
        <ele>100.516296</ele>
        <time>2020-10-02T10:44:13.898Z</time>
      </trkpt>
      <trkpt lat="63.40224" lon="19.12541">
        <ele>100.760425</ele>
        <time>2020-10-02T10:44:18.904Z</time>
      </trkpt>
      <trkpt lat="63.40216" lon="19.12559">
        <ele>101.059181</ele>
        <time>2020-10-02T10:44:23.903Z</time>
      </trkpt>
      <trkpt lat="63.40208" lon="19.12573">
        <ele>101.343994</ele>
        <time>2020-10-02T10:44:28.888Z</time>
      </trkpt>
      <trkpt lat="63.402" lon="19.12588">
        <ele>101.620931</ele>
        <time>2020-10-02T10:44:33.920Z</time>
      </trkpt>
      <trkpt lat="63.40192" lon="19.12604">
        <ele>101.91521</ele>
        <time>2020-10-02T10:44:38.932Z</time>
      </trkpt>
      <trkpt lat="63.40184" lon="19.12615">
        <ele>102.165968</ele>
        <time>2020-10-02T10:44:42.921Z</time>
      </trkpt>
      <trkpt lat="63.40176" lon="19.12628">
        <ele>102.436671</ele>
        <time>2020-10-02T10:44:46.913Z</time>
      </trkpt>
      <trkpt lat="63.40169" lon="19.12643">
        <ele>102.718731</ele>
        <time>2020-10-02T10:44:50.908Z</time>
      </trkpt>
      <trkpt lat="63.4016" lon="19.12655">
        <ele>102.985921</ele>
        <time>2020-10-02T10:44:54.929Z</time>
      </trkpt>
      <trkpt lat="63.40153" lon="19.12667">
        <ele>103.240755</ele>
        <time>2020-10-02T10:44:58.941Z</time>
      </trkpt>
      <trkpt lat="63.40145" lon="19.12685">
        <ele>103.546626</ele>
        <time>2020-10-02T10:45:03.918Z</time>
      </trkpt>
      <trkpt lat="63.40139" lon="19.127">
        <ele>103.800678</ele>
        <time>2020-10-02T10:45:07.891Z</time>
      </trkpt>
      <trkpt lat="63.40132" lon="19.12713">
        <ele>103.782017</ele>
        <time>2020-10-02T10:45:11.906Z</time>
      </trkpt>
      <trkpt lat="63.40123" lon="19.12722">
        <ele>103.390576</ele>
        <time>2020-10-02T10:45:14.920Z</time>
      </trkpt>
      <trkpt lat="63.40111" lon="19.12729">
        <ele>102.879322</ele>
        <time>2020-10-02T10:45:17.904Z</time>
      </trkpt>
      <trkpt lat="63.40101" lon="19.12732">
        <ele>102.48804</ele>
        <time>2020-10-02T10:45:19.910Z</time>
      </trkpt>
      <trkpt lat="63.4009" lon="19.12737">
        <ele>102.048541</ele>
        <time>2020-10-02T10:45:21.937Z</time>
      </trkpt>
      <trkpt lat="63.40076" lon="19.12737">
        <ele>101.487417</ele>
        <time>2020-10-02T10:45:23.918Z</time>
      </trkpt>
      <trkpt lat="63.40059" lon="19.12738">
        <ele>100.785039</ele>
        <time>2020-10-02T10:45:25.921Z</time>
      </trkpt>
      <trkpt lat="63.4005" lon="19.12738">
        <ele>100.417644</ele>
        <time>2020-10-02T10:45:26.923Z</time>
      </trkpt>
      <trkpt lat="63.4004" lon="19.1274">
        <ele>100.037243</ele>
        <time>2020-10-02T10:45:27.928Z</time>
      </trkpt>
      <trkpt lat="63.40031" lon="19.12741">
        <ele>99.648911</ele>
        <time>2020-10-02T10:45:28.910Z</time>
      </trkpt>
      <trkpt lat="63.40021" lon="19.12742">
        <ele>99.245059</ele>
        <time>2020-10-02T10:45:29.905Z</time>
      </trkpt>
      <trkpt lat="63.40011" lon="19.12741">
        <ele>98.845181</ele>
        <time>2020-10-02T10:45:30.907Z</time>
      </trkpt>
      <trkpt lat="63.40001" lon="19.12739">
        <ele>98.456311</ele>
        <time>2020-10-02T10:45:31.935Z</time>
      </trkpt>
      <trkpt lat="63.39992" lon="19.12736">
        <ele>98.077518</ele>
        <time>2020-10-02T10:45:32.922Z</time>
      </trkpt>
      <trkpt lat="63.39983" lon="19.12732">
        <ele>97.707455</ele>
        <time>2020-10-02T10:45:33.884Z</time>
      </trkpt>
      <trkpt lat="63.39974" lon="19.12728">
        <ele>97.337877</ele>
        <time>2020-10-02T10:45:34.910Z</time>
      </trkpt>
      <trkpt lat="63.39958" lon="19.12719">
        <ele>96.607844</ele>
        <time>2020-10-02T10:45:36.912Z</time>
      </trkpt>
      <trkpt lat="63.39943" lon="19.12714">
        <ele>95.168597</ele>
        <time>2020-10-02T10:45:38.907Z</time>
      </trkpt>
      <trkpt lat="63.39931" lon="19.12711">
        <ele>94.002573</ele>
        <time>2020-10-02T10:45:40.933Z</time>
      </trkpt>
      <trkpt lat="63.39919" lon="19.12706">
        <ele>92.800546</ele>
        <time>2020-10-02T10:45:43.897Z</time>
      </trkpt>
      <trkpt lat="63.39906" lon="19.12704">
        <ele>91.48094</ele>
        <time>2020-10-02T10:45:46.924Z</time>
      </trkpt>
      <trkpt lat="63.39893" lon="19.12704">
        <ele>90.255246</ele>
        <time>2020-10-02T10:45:49.909Z</time>
      </trkpt>
      <trkpt lat="63.39884" lon="19.12705">
        <ele>89.313466</ele>
        <time>2020-10-02T10:45:52.913Z</time>
      </trkpt>
      <trkpt lat="63.39873" lon="19.12706">
        <ele>88.31024</ele>
        <time>2020-10-02T10:45:55.909Z</time>
      </trkpt>
      <trkpt lat="63.39862" lon="19.12709">
        <ele>87.138296</ele>
        <time>2020-10-02T10:45:58.929Z</time>
      </trkpt>
      <trkpt lat="63.39849" lon="19.12711">
        <ele>85.948963</ele>
        <time>2020-10-02T10:46:01.904Z</time>
      </trkpt>
      <trkpt lat="63.39837" lon="19.12716">
        <ele>84.698922</ele>
        <time>2020-10-02T10:46:04.928Z</time>
      </trkpt>
      <trkpt lat="63.39828" lon="19.12721">
        <ele>83.808595</ele>
        <time>2020-10-02T10:46:06.938Z</time>
      </trkpt>
      <trkpt lat="63.39816" lon="19.1273">
        <ele>82.51803</ele>
        <time>2020-10-02T10:46:09.909Z</time>
      </trkpt>
      <trkpt lat="63.39805" lon="19.12738">
        <ele>81.382362</ele>
        <time>2020-10-02T10:46:12.902Z</time>
      </trkpt>
      <trkpt lat="63.39794" lon="19.12746">
        <ele>80.290245</ele>
        <time>2020-10-02T10:46:16.898Z</time>
      </trkpt>
      <trkpt lat="63.39784" lon="19.12756">
        <ele>79.231989</ele>
        <time>2020-10-02T10:46:21.910Z</time>
      </trkpt>
      <trkpt lat="63.39775" lon="19.12764">
        <ele>78.723433</ele>
        <time>2020-10-02T10:46:24.904Z</time>
      </trkpt>
      <trkpt lat="63.39766" lon="19.12774">
        <ele>78.318006</ele>
        <time>2020-10-02T10:46:26.919Z</time>
      </trkpt>
      <trkpt lat="63.39753" lon="19.12787">
        <ele>77.767224</ele>
        <time>2020-10-02T10:46:28.902Z</time>
      </trkpt>
      <trkpt lat="63.39738" lon="19.12803">
        <ele>77.094183</ele>
        <time>2020-10-02T10:46:30.937Z</time>
      </trkpt>
      <trkpt lat="63.3973" lon="19.12812">
        <ele>76.729389</ele>
        <time>2020-10-02T10:46:31.923Z</time>
      </trkpt>
      <trkpt lat="63.39722" lon="19.12821">
        <ele>76.364222</ele>
        <time>2020-10-02T10:46:32.907Z</time>
      </trkpt>
      <trkpt lat="63.39713" lon="19.12829">
        <ele>75.99108</ele>
        <time>2020-10-02T10:46:33.906Z</time>
      </trkpt>
      <trkpt lat="63.39704" lon="19.12835">
        <ele>75.618723</ele>
        <time>2020-10-02T10:46:34.911Z</time>
      </trkpt>
      <trkpt lat="63.39695" lon="19.12839">
        <ele>75.254008</ele>
        <time>2020-10-02T10:46:35.933Z</time>
      </trkpt>
      <trkpt lat="63.39686" lon="19.12842">
        <ele>74.88302</ele>
        <time>2020-10-02T10:46:36.922Z</time>
      </trkpt>
      <trkpt lat="63.39669" lon="19.12843">
        <ele>74.193834</ele>
        <time>2020-10-02T10:46:38.928Z</time>
      </trkpt>
      <trkpt lat="63.39655" lon="19.1284">
        <ele>73.614405</ele>
        <time>2020-10-02T10:46:40.888Z</time>
      </trkpt>
      <trkpt lat="63.39642" lon="19.12838">
        <ele>73.120816</ele>
        <time>2020-10-02T10:46:42.920Z</time>
      </trkpt>
      <trkpt lat="63.39632" lon="19.12836">
        <ele>72.695034</ele>
        <time>2020-10-02T10:46:44.929Z</time>
      </trkpt>
      <trkpt lat="63.39623" lon="19.12836">
        <ele>72.330274</ele>
        <time>2020-10-02T10:46:46.892Z</time>
      </trkpt>
      <trkpt lat="63.39612" lon="19.12835">
        <ele>71.897469</ele>
        <time>2020-10-02T10:46:49.906Z</time>
      </trkpt>
      <trkpt lat="63.39602" lon="19.12836">
        <ele>72.616712</ele>
        <time>2020-10-02T10:46:54.902Z</time>
      </trkpt>
      <trkpt lat="63.39593" lon="19.12835">
        <ele>73.495014</ele>
        <time>2020-10-02T10:47:00.942Z</time>
      </trkpt>
      <trkpt lat="63.39582" lon="19.12837">
        <ele>74.486374</ele>
        <time>2020-10-02T10:47:03.787Z</time>
      </trkpt>
      <trkpt lat="63.39572" lon="19.12837">
        <ele>75.400797</ele>
        <time>2020-10-02T10:47:07.779Z</time>
      </trkpt>
      <trkpt lat="63.39561" lon="19.12838">
        <ele>76.455578</ele>
        <time>2020-10-02T10:47:11.788Z</time>
      </trkpt>
      <trkpt lat="63.3955" lon="19.12837">
        <ele>77.444955</ele>
        <time>2020-10-02T10:47:15.792Z</time>
      </trkpt>
      <trkpt lat="63.3954" lon="19.12837">
        <ele>78.433776</ele>
        <time>2020-10-02T10:47:19.792Z</time>
      </trkpt>
      <trkpt lat="63.39529" lon="19.12838">
        <ele>79.422905</ele>
        <time>2020-10-02T10:47:24.795Z</time>
      </trkpt>
      <trkpt lat="63.39519" lon="19.12838">
        <ele>80.374734</ele>
        <time>2020-10-02T10:47:30.790Z</time>
      </trkpt>
      <trkpt lat="63.3951" lon="19.12838">
        <ele>81.260933</ele>
        <time>2020-10-02T10:47:36.826Z</time>
      </trkpt>
      <trkpt lat="63.395" lon="19.1284">
        <ele>82.113522</ele>
        <time>2020-10-02T10:47:43.816Z</time>
      </trkpt>
      <trkpt lat="63.3949" lon="19.12843">
        <ele>83.12928</ele>
        <time>2020-10-02T10:47:49.792Z</time>
      </trkpt>
      <trkpt lat="63.39479" lon="19.12849">
        <ele>84.134407</ele>
        <time>2020-10-02T10:47:55.788Z</time>
      </trkpt>
      <trkpt lat="63.39469" lon="19.12851">
        <ele>85.089942</ele>
        <time>2020-10-02T10:48:00.793Z</time>
      </trkpt>
      <trkpt lat="63.39458" lon="19.12852">
        <ele>86.127828</ele>
        <time>2020-10-02T10:48:05.803Z</time>
      </trkpt>
      <trkpt lat="63.39449" lon="19.12849">
        <ele>86.982263</ele>
        <time>2020-10-02T10:48:09.805Z</time>
      </trkpt>
      <trkpt lat="63.39438" lon="19.1285">
        <ele>88.02015</ele>
        <time>2020-10-02T10:48:14.790Z</time>
      </trkpt>
      <trkpt lat="63.39429" lon="19.12855">
        <ele>88.569739</ele>
        <time>2020-10-02T10:48:18.790Z</time>
      </trkpt>
      <trkpt lat="63.39418" lon="19.1286">
        <ele>88.369789</ele>
        <time>2020-10-02T10:48:22.786Z</time>
      </trkpt>
      <trkpt lat="63.39408" lon="19.12864">
        <ele>88.194142</ele>
        <time>2020-10-02T10:48:25.776Z</time>
      </trkpt>
      <trkpt lat="63.39396" lon="19.1287">
        <ele>87.977898</ele>
        <time>2020-10-02T10:48:28.792Z</time>
      </trkpt>
      <trkpt lat="63.39388" lon="19.12873">
        <ele>87.815495</ele>
        <time>2020-10-02T10:48:30.794Z</time>
      </trkpt>
      <trkpt lat="63.39378" lon="19.12878">
        <ele>87.640765</ele>
        <time>2020-10-02T10:48:32.797Z</time>
      </trkpt>
      <trkpt lat="63.39368" lon="19.12883">
        <ele>87.451327</ele>
        <time>2020-10-02T10:48:34.791Z</time>
      </trkpt>
      <trkpt lat="63.39356" lon="19.1289">
        <ele>87.237355</ele>
        <time>2020-10-02T10:48:36.790Z</time>
      </trkpt>
      <trkpt lat="63.39344" lon="19.12899">
        <ele>87.003345</ele>
        <time>2020-10-02T10:48:38.808Z</time>
      </trkpt>
      <trkpt lat="63.39331" lon="19.12913">
        <ele>86.751936</ele>
        <time>2020-10-02T10:48:40.787Z</time>
      </trkpt>
      <trkpt lat="63.39318" lon="19.12932">
        <ele>86.463287</ele>
        <time>2020-10-02T10:48:42.775Z</time>
      </trkpt>
      <trkpt lat="63.39305" lon="19.1295">
        <ele>86.194294</ele>
        <time>2020-10-02T10:48:44.791Z</time>
      </trkpt>
      <trkpt lat="63.39294" lon="19.12965">
        <ele>85.958334</ele>
        <time>2020-10-02T10:48:46.809Z</time>
      </trkpt>
      <trkpt lat="63.39284" lon="19.12982">
        <ele>85.746239</ele>
        <time>2020-10-02T10:48:48.821Z</time>
      </trkpt>
      <trkpt lat="63.39277" lon="19.12995">
        <ele>85.581872</ele>
        <time>2020-10-02T10:48:50.796Z</time>
      </trkpt>
      <trkpt lat="63.3927" lon="19.13011">
        <ele>85.394811</ele>
        <time>2020-10-02T10:48:53.793Z</time>
      </trkpt>
      <trkpt lat="63.39262" lon="19.13027">
        <ele>85.214669</ele>
        <time>2020-10-02T10:48:57.783Z</time>
      </trkpt>
      <trkpt lat="63.39253" lon="19.13043">
        <ele>85.026354</ele>
        <time>2020-10-02T10:49:02.799Z</time>
      </trkpt>
      <trkpt lat="63.39245" lon="19.13056">
        <ele>84.848922</ele>
        <time>2020-10-02T10:49:07.802Z</time>
      </trkpt>
      <trkpt lat="63.39235" lon="19.13066">
        <ele>84.669369</ele>
        <time>2020-10-02T10:49:12.791Z</time>
      </trkpt>
      <trkpt lat="63.39225" lon="19.13075">
        <ele>84.480379</ele>
        <time>2020-10-02T10:49:17.794Z</time>
      </trkpt>
      <trkpt lat="63.39215" lon="19.1308">
        <ele>84.303693</ele>
        <time>2020-10-02T10:49:21.794Z</time>
      </trkpt>
      <trkpt lat="63.39205" lon="19.13085">
        <ele>84.144014</ele>
        <time>2020-10-02T10:49:24.811Z</time>
      </trkpt>
      <trkpt lat="63.39194" lon="19.13088">
        <ele>83.951735</ele>
        <time>2020-10-02T10:49:27.807Z</time>
      </trkpt>
      <trkpt lat="63.39181" lon="19.13092">
        <ele>83.73429</ele>
        <time>2020-10-02T10:49:30.801Z</time>
      </trkpt>
      <trkpt lat="63.39172" lon="19.13095">
        <ele>83.573841</ele>
        <time>2020-10-02T10:49:32.794Z</time>
      </trkpt>
      <trkpt lat="63.39162" lon="19.13098">
        <ele>83.408157</ele>
        <time>2020-10-02T10:49:34.797Z</time>
      </trkpt>
      <trkpt lat="63.39152" lon="19.13103">
        <ele>83.229978</ele>
        <time>2020-10-02T10:49:36.804Z</time>
      </trkpt>
      <trkpt lat="63.39141" lon="19.13108">
        <ele>83.042387</ele>
        <time>2020-10-02T10:49:38.822Z</time>
      </trkpt>
      <trkpt lat="63.39129" lon="19.13116">
        <ele>82.831755</ele>
        <time>2020-10-02T10:49:40.828Z</time>
      </trkpt>
      <trkpt lat="63.39116" lon="19.13124">
        <ele>82.595857</ele>
        <time>2020-10-02T10:49:42.793Z</time>
      </trkpt>
      <trkpt lat="63.39101" lon="19.13134">
        <ele>82.342093</ele>
        <time>2020-10-02T10:49:44.818Z</time>
      </trkpt>
      <trkpt lat="63.39086" lon="19.13143">
        <ele>82.066892</ele>
        <time>2020-10-02T10:49:46.800Z</time>
      </trkpt>
      <trkpt lat="63.39069" lon="19.13153">
        <ele>81.763481</ele>
        <time>2020-10-02T10:49:48.800Z</time>
      </trkpt>
      <trkpt lat="63.39052" lon="19.13165">
        <ele>81.455865</ele>
        <time>2020-10-02T10:49:50.790Z</time>
      </trkpt>
      <trkpt lat="63.39035" lon="19.13175">
        <ele>81.155156</ele>
        <time>2020-10-02T10:49:52.895Z</time>
      </trkpt>
      <trkpt lat="63.3902" lon="19.13185">
        <ele>80.877882</ele>
        <time>2020-10-02T10:49:54.781Z</time>
      </trkpt>
      <trkpt lat="63.39006" lon="19.13193">
        <ele>80.632491</ele>
        <time>2020-10-02T10:49:56.790Z</time>
      </trkpt>
      <trkpt lat="63.38994" lon="19.13199">
        <ele>80.420504</ele>
        <time>2020-10-02T10:49:58.812Z</time>
      </trkpt>
      <trkpt lat="63.38983" lon="19.13205">
        <ele>80.222975</ele>
        <time>2020-10-02T10:50:00.836Z</time>
      </trkpt>
      <trkpt lat="63.38973" lon="19.13211">
        <ele>80.054361</ele>
        <time>2020-10-02T10:50:02.781Z</time>
      </trkpt>
      <trkpt lat="63.3896" lon="19.13217">
        <ele>79.825704</ele>
        <time>2020-10-02T10:50:05.808Z</time>
      </trkpt>
      <trkpt lat="63.38949" lon="19.13219">
        <ele>79.624814</ele>
        <time>2020-10-02T10:50:08.815Z</time>
      </trkpt>
      <trkpt lat="63.38938" lon="19.13223">
        <ele>79.438964</ele>
        <time>2020-10-02T10:50:11.813Z</time>
      </trkpt>
      <trkpt lat="63.38926" lon="19.13223">
        <ele>79.252864</ele>
        <time>2020-10-02T10:50:14.800Z</time>
      </trkpt>
      <trkpt lat="63.38913" lon="19.13223">
        <ele>79.278015</ele>
        <time>2020-10-02T10:50:17.791Z</time>
      </trkpt>
      <trkpt lat="63.38904" lon="19.13222">
        <ele>79.295814</ele>
        <time>2020-10-02T10:50:19.832Z</time>
      </trkpt>
      <trkpt lat="63.38895" lon="19.13225">
        <ele>79.313383</ele>
        <time>2020-10-02T10:50:21.817Z</time>
      </trkpt>
      <trkpt lat="63.38886" lon="19.13229">
        <ele>79.332309</ele>
        <time>2020-10-02T10:50:23.811Z</time>
      </trkpt>
      <trkpt lat="63.38875" lon="19.13236">
        <ele>79.353623</ele>
        <time>2020-10-02T10:50:25.805Z</time>
      </trkpt>
      <trkpt lat="63.38864" lon="19.13243">
        <ele>79.37652</ele>
        <time>2020-10-02T10:50:27.785Z</time>
      </trkpt>
      <trkpt lat="63.38853" lon="19.1325">
        <ele>79.398139</ele>
        <time>2020-10-02T10:50:29.810Z</time>
      </trkpt>
      <trkpt lat="63.38843" lon="19.13255">
        <ele>79.417689</ele>
        <time>2020-10-02T10:50:31.787Z</time>
      </trkpt>
      <trkpt lat="63.38833" lon="19.1326">
        <ele>79.437045</ele>
        <time>2020-10-02T10:50:33.806Z</time>
      </trkpt>
      <trkpt lat="63.38821" lon="19.13266">
        <ele>79.461291</ele>
        <time>2020-10-02T10:50:35.801Z</time>
      </trkpt>
      <trkpt lat="63.38808" lon="19.13276">
        <ele>79.487645</ele>
        <time>2020-10-02T10:50:37.798Z</time>
      </trkpt>
      <trkpt lat="63.38797" lon="19.13294">
        <ele>79.514748</ele>
        <time>2020-10-02T10:50:39.819Z</time>
      </trkpt>
      <trkpt lat="63.38787" lon="19.13316">
        <ele>79.541153</ele>
        <time>2020-10-02T10:50:41.797Z</time>
      </trkpt>
      <trkpt lat="63.38778" lon="19.13343">
        <ele>79.570644</ele>
        <time>2020-10-02T10:50:43.815Z</time>
      </trkpt>
      <trkpt lat="63.38769" lon="19.13371">
        <ele>79.591629</ele>
        <time>2020-10-02T10:50:45.811Z</time>
      </trkpt>
      <trkpt lat="63.38761" lon="19.13396">
        <ele>78.948839</ele>
        <time>2020-10-02T10:50:47.815Z</time>
      </trkpt>
      <trkpt lat="63.38752" lon="19.13422">
        <ele>78.246978</ele>
        <time>2020-10-02T10:50:49.820Z</time>
      </trkpt>
      <trkpt lat="63.38743" lon="19.13447">
        <ele>77.557028</ele>
        <time>2020-10-02T10:50:51.793Z</time>
      </trkpt>
      <trkpt lat="63.38733" lon="19.13469">
        <ele>76.899481</ele>
        <time>2020-10-02T10:50:53.791Z</time>
      </trkpt>
      <trkpt lat="63.38722" lon="19.13485">
        <ele>76.295511</ele>
        <time>2020-10-02T10:50:55.829Z</time>
      </trkpt>
      <trkpt lat="63.38711" lon="19.13497">
        <ele>75.718192</ele>
        <time>2020-10-02T10:50:57.787Z</time>
      </trkpt>
      <trkpt lat="63.38701" lon="19.13506">
        <ele>75.188371</ele>
        <time>2020-10-02T10:50:59.798Z</time>
      </trkpt>
      <trkpt lat="63.3869" lon="19.13514">
        <ele>74.67897</ele>
        <time>2020-10-02T10:51:01.802Z</time>
      </trkpt>
      <trkpt lat="63.3868" lon="19.13518">
        <ele>74.192822</ele>
        <time>2020-10-02T10:51:03.796Z</time>
      </trkpt>
      <trkpt lat="63.3867" lon="19.13521">
        <ele>73.705701</ele>
        <time>2020-10-02T10:51:05.816Z</time>
      </trkpt>
      <trkpt lat="63.3866" lon="19.13521">
        <ele>73.211338</ele>
        <time>2020-10-02T10:51:07.795Z</time>
      </trkpt>
      <trkpt lat="63.38649" lon="19.13519">
        <ele>72.720563</ele>
        <time>2020-10-02T10:51:09.778Z</time>
      </trkpt>
      <trkpt lat="63.3864" lon="19.13515">
        <ele>72.294581</ele>
        <time>2020-10-02T10:51:11.807Z</time>
      </trkpt>
      <trkpt lat="63.38629" lon="19.13509">
        <ele>71.729416</ele>
        <time>2020-10-02T10:51:14.814Z</time>
      </trkpt>
      <trkpt lat="63.3862" lon="19.13503">
        <ele>71.28719</ele>
        <time>2020-10-02T10:51:17.784Z</time>
      </trkpt>
      <trkpt lat="63.38609" lon="19.13506">
        <ele>71.744121</ele>
        <time>2020-10-02T10:51:21.795Z</time>
      </trkpt>
      <trkpt lat="63.38598" lon="19.13508">
        <ele>72.698291</ele>
        <time>2020-10-02T10:51:26.811Z</time>
      </trkpt>
      <trkpt lat="63.38588" lon="19.13514">
        <ele>73.540018</ele>
        <time>2020-10-02T10:51:30.801Z</time>
      </trkpt>
      <trkpt lat="63.38577" lon="19.13518">
        <ele>74.462694</ele>
        <time>2020-10-02T10:51:34.791Z</time>
      </trkpt>
      <trkpt lat="63.38567" lon="19.13521">
        <ele>75.272359</ele>
        <time>2020-10-02T10:51:37.817Z</time>
      </trkpt>
      <trkpt lat="63.38558" lon="19.13526">
        <ele>76.087236</ele>
        <time>2020-10-02T10:51:40.790Z</time>
      </trkpt>
      <trkpt lat="63.38547" lon="19.13529">
        <ele>76.945755</ele>
        <time>2020-10-02T10:51:43.798Z</time>
      </trkpt>
      <trkpt lat="63.38537" lon="19.13534">
        <ele>77.848214</ele>
        <time>2020-10-02T10:51:46.824Z</time>
      </trkpt>
      <trkpt lat="63.38526" lon="19.13539">
        <ele>78.795329</ele>
        <time>2020-10-02T10:51:49.792Z</time>
      </trkpt>
      <trkpt lat="63.38515" lon="19.13547">
        <ele>79.711401</ele>
        <time>2020-10-02T10:51:52.782Z</time>
      </trkpt>
      <trkpt lat="63.38503" lon="19.13553">
        <ele>80.726546</ele>
        <time>2020-10-02T10:51:55.817Z</time>
      </trkpt>
      <trkpt lat="63.38491" lon="19.13561">
        <ele>81.782625</ele>
        <time>2020-10-02T10:51:58.792Z</time>
      </trkpt>
      <trkpt lat="63.38479" lon="19.13569">
        <ele>82.862773</ele>
        <time>2020-10-02T10:52:01.794Z</time>
      </trkpt>
      <trkpt lat="63.38467" lon="19.13575">
        <ele>83.866199</ele>
        <time>2020-10-02T10:52:04.808Z</time>
      </trkpt>
      <trkpt lat="63.38455" lon="19.13581">
        <ele>84.888942</ele>
        <time>2020-10-02T10:52:07.810Z</time>
      </trkpt>
      <trkpt lat="63.38445" lon="19.13586">
        <ele>85.78404</ele>
        <time>2020-10-02T10:52:10.791Z</time>
      </trkpt>
      <trkpt lat="63.38433" lon="19.13592">
        <ele>85.76162</ele>
        <time>2020-10-02T10:52:14.801Z</time>
      </trkpt>
      <trkpt lat="63.38422" lon="19.13597">
        <ele>85.269689</ele>
        <time>2020-10-02T10:52:17.826Z</time>
      </trkpt>
      <trkpt lat="63.38413" lon="19.13602">
        <ele>84.863604</ele>
        <time>2020-10-02T10:52:19.797Z</time>
      </trkpt>
      <trkpt lat="63.38402" lon="19.13606">
        <ele>84.402661</ele>
        <time>2020-10-02T10:52:21.802Z</time>
      </trkpt>
      <trkpt lat="63.38391" lon="19.13611">
        <ele>83.895394</ele>
        <time>2020-10-02T10:52:23.784Z</time>
      </trkpt>
      <trkpt lat="63.3838" lon="19.13616">
        <ele>83.403543</ele>
        <time>2020-10-02T10:52:25.808Z</time>
      </trkpt>
      <trkpt lat="63.3837" lon="19.13622">
        <ele>82.967456</ele>
        <time>2020-10-02T10:52:27.793Z</time>
      </trkpt>
      <trkpt lat="63.38357" lon="19.13629">
        <ele>82.406685</ele>
        <time>2020-10-02T10:52:30.790Z</time>
      </trkpt>
      <trkpt lat="63.38344" lon="19.13635">
        <ele>81.827161</ele>
        <time>2020-10-02T10:52:33.798Z</time>
      </trkpt>
      <trkpt lat="63.38335" lon="19.13639">
        <ele>81.408357</ele>
        <time>2020-10-02T10:52:35.799Z</time>
      </trkpt>
      <trkpt lat="63.38322" lon="19.13647">
        <ele>80.845105</ele>
        <time>2020-10-02T10:52:38.805Z</time>
      </trkpt>
      <trkpt lat="63.38312" lon="19.13654">
        <ele>80.384734</ele>
        <time>2020-10-02T10:52:41.811Z</time>
      </trkpt>
      <trkpt lat="63.38302" lon="19.1366">
        <ele>79.935534</ele>
        <time>2020-10-02T10:52:44.799Z</time>
      </trkpt>
      <trkpt lat="63.3829" lon="19.13666">
        <ele>79.375408</ele>
        <time>2020-10-02T10:52:47.822Z</time>
      </trkpt>
      <trkpt lat="63.38279" lon="19.13669">
        <ele>78.913846</ele>
        <time>2020-10-02T10:52:49.791Z</time>
      </trkpt>
      <trkpt lat="63.38267" lon="19.13672">
        <ele>78.381863</ele>
        <time>2020-10-02T10:52:51.776Z</time>
      </trkpt>
      <trkpt lat="63.38254" lon="19.1367">
        <ele>78.177035</ele>
        <time>2020-10-02T10:52:53.821Z</time>
      </trkpt>
      <trkpt lat="63.38242" lon="19.13666">
        <ele>78.039742</ele>
        <time>2020-10-02T10:52:55.809Z</time>
      </trkpt>
      <trkpt lat="63.38232" lon="19.13659">
        <ele>77.92424</ele>
        <time>2020-10-02T10:52:57.815Z</time>
      </trkpt>
      <trkpt lat="63.38223" lon="19.13653">
        <ele>77.821561</ele>
        <time>2020-10-02T10:52:59.801Z</time>
      </trkpt>
      <trkpt lat="63.38212" lon="19.13648">
        <ele>77.692007</ele>
        <time>2020-10-02T10:53:02.808Z</time>
      </trkpt>
      <trkpt lat="63.38201" lon="19.13637">
        <ele>77.561779</ele>
        <time>2020-10-02T10:53:05.823Z</time>
      </trkpt>
      <trkpt lat="63.3819" lon="19.13627">
        <ele>77.426608</ele>
        <time>2020-10-02T10:53:08.840Z</time>
      </trkpt>
      <trkpt lat="63.38178" lon="19.13615">
        <ele>77.282808</ele>
        <time>2020-10-02T10:53:11.842Z</time>
      </trkpt>
      <trkpt lat="63.3817" lon="19.13606">
        <ele>77.179721</ele>
        <time>2020-10-02T10:53:13.794Z</time>
      </trkpt>
      <trkpt lat="63.38161" lon="19.13598">
        <ele>77.071153</ele>
        <time>2020-10-02T10:53:15.791Z</time>
      </trkpt>
      <trkpt lat="63.38151" lon="19.13591">
        <ele>76.960209</ele>
        <time>2020-10-02T10:53:17.807Z</time>
      </trkpt>
      <trkpt lat="63.38142" lon="19.13585">
        <ele>76.855123</ele>
        <time>2020-10-02T10:53:19.787Z</time>
      </trkpt>
      <trkpt lat="63.3813" lon="19.13583">
        <ele>76.717254</ele>
        <time>2020-10-02T10:53:22.816Z</time>
      </trkpt>
      <trkpt lat="63.38117" lon="19.13586">
        <ele>76.571167</ele>
        <time>2020-10-02T10:53:25.794Z</time>
      </trkpt>
      <trkpt lat="63.38107" lon="19.13588">
        <ele>76.469764</ele>
        <time>2020-10-02T10:53:27.798Z</time>
      </trkpt>
      <trkpt lat="63.38095" lon="19.13594">
        <ele>76.328181</ele>
        <time>2020-10-02T10:53:30.811Z</time>
      </trkpt>
      <trkpt lat="63.38083" lon="19.13601">
        <ele>76.163217</ele>
        <time>2020-10-02T10:53:33.809Z</time>
      </trkpt>
      <trkpt lat="63.38072" lon="19.13609">
        <ele>75.995686</ele>
        <time>2020-10-02T10:53:36.787Z</time>
      </trkpt>
      <trkpt lat="63.38061" lon="19.13617">
        <ele>75.828509</ele>
        <time>2020-10-02T10:53:39.820Z</time>
      </trkpt>
      <trkpt lat="63.38052" lon="19.13625">
        <ele>75.683383</ele>
        <time>2020-10-02T10:53:42.800Z</time>
      </trkpt>
      <trkpt lat="63.38043" lon="19.13634">
        <ele>75.551025</ele>
        <time>2020-10-02T10:53:45.791Z</time>
      </trkpt>
      <trkpt lat="63.38033" lon="19.13646">
        <ele>75.383386</ele>
        <time>2020-10-02T10:53:49.804Z</time>
      </trkpt>
      <trkpt lat="63.38024" lon="19.13657">
        <ele>75.234572</ele>
        <time>2020-10-02T10:53:53.787Z</time>
      </trkpt>
      <trkpt lat="63.38015" lon="19.1367">
        <ele>75.080028</ele>
        <time>2020-10-02T10:53:57.792Z</time>
      </trkpt>
      <trkpt lat="63.38005" lon="19.13684">
        <ele>74.914271</ele>
        <time>2020-10-02T10:54:01.828Z</time>
      </trkpt>
      <trkpt lat="63.37996" lon="19.137">
        <ele>74.741568</ele>
        <time>2020-10-02T10:54:05.815Z</time>
      </trkpt>
      <trkpt lat="63.37988" lon="19.13715">
        <ele>74.594896</ele>
        <time>2020-10-02T10:54:08.796Z</time>
      </trkpt>
      <trkpt lat="63.37979" lon="19.13729">
        <ele>74.441449</ele>
        <time>2020-10-02T10:54:11.800Z</time>
      </trkpt>
      <trkpt lat="63.3797" lon="19.13743">
        <ele>74.279536</ele>
        <time>2020-10-02T10:54:14.827Z</time>
      </trkpt>
      <trkpt lat="63.37961" lon="19.13758">
        <ele>74.116676</ele>
        <time>2020-10-02T10:54:17.848Z</time>
      </trkpt>
      <trkpt lat="63.3795" lon="19.1377">
        <ele>73.944583</ele>
        <time>2020-10-02T10:54:20.793Z</time>
      </trkpt>
      <trkpt lat="63.37938" lon="19.13778">
        <ele>73.75843</ele>
        <time>2020-10-02T10:54:23.836Z</time>
      </trkpt>
      <trkpt lat="63.37925" lon="19.13783">
        <ele>73.874489</ele>
        <time>2020-10-02T10:54:26.801Z</time>
      </trkpt>
      <trkpt lat="63.37911" lon="19.13783">
        <ele>74.08411</ele>
        <time>2020-10-02T10:54:29.805Z</time>
      </trkpt>
      <trkpt lat="63.37898" lon="19.1378">
        <ele>74.294779</ele>
        <time>2020-10-02T10:54:32.794Z</time>
      </trkpt>
      <trkpt lat="63.37888" lon="19.13777">
        <ele>74.44332</ele>
        <time>2020-10-02T10:54:34.817Z</time>
      </trkpt>
      <trkpt lat="63.37879" lon="19.13772">
        <ele>74.594165</ele>
        <time>2020-10-02T10:54:36.781Z</time>
      </trkpt>
      <trkpt lat="63.3787" lon="19.13766">
        <ele>74.74363</ele>
        <time>2020-10-02T10:54:38.783Z</time>
      </trkpt>
      <trkpt lat="63.37861" lon="19.1376">
        <ele>74.894684</ele>
        <time>2020-10-02T10:54:40.802Z</time>
      </trkpt>
      <trkpt lat="63.37851" lon="19.13756">
        <ele>75.041044</ele>
        <time>2020-10-02T10:54:42.803Z</time>
      </trkpt>
      <trkpt lat="63.37842" lon="19.13755">
        <ele>75.180664</ele>
        <time>2020-10-02T10:54:44.807Z</time>
      </trkpt>
      <trkpt lat="63.3783" lon="19.13755">
        <ele>75.382479</ele>
        <time>2020-10-02T10:54:47.814Z</time>
      </trkpt>
      <trkpt lat="63.37818" lon="19.13758">
        <ele>75.569738</ele>
        <time>2020-10-02T10:54:50.817Z</time>
      </trkpt>
      <trkpt lat="63.37807" lon="19.13761">
        <ele>75.741626</ele>
        <time>2020-10-02T10:54:53.800Z</time>
      </trkpt>
      <trkpt lat="63.37796" lon="19.13763">
        <ele>75.906261</ele>
        <time>2020-10-02T10:54:56.833Z</time>
      </trkpt>
      <trkpt lat="63.37786" lon="19.13761">
        <ele>76.074017</ele>
        <time>2020-10-02T10:54:59.812Z</time>
      </trkpt>
      <trkpt lat="63.37773" lon="19.13759">
        <ele>76.266988</ele>
        <time>2020-10-02T10:55:02.792Z</time>
      </trkpt>
      <trkpt lat="63.37764" lon="19.13755">
        <ele>76.414887</ele>
        <time>2020-10-02T10:55:04.784Z</time>
      </trkpt>
      <trkpt lat="63.37755" lon="19.13751">
        <ele>76.588337</ele>
        <time>2020-10-02T10:55:06.796Z</time>
      </trkpt>
      <trkpt lat="63.37742" lon="19.13743">
        <ele>76.92243</ele>
        <time>2020-10-02T10:55:09.807Z</time>
      </trkpt>
      <trkpt lat="63.37732" lon="19.13737">
        <ele>77.191095</ele>
        <time>2020-10-02T10:55:12.805Z</time>
      </trkpt>
      <trkpt lat="63.37723" lon="19.1373">
        <ele>77.436982</ele>
        <time>2020-10-02T10:55:15.817Z</time>
      </trkpt>
      <trkpt lat="63.37713" lon="19.13722">
        <ele>77.735851</ele>
        <time>2020-10-02T10:55:18.792Z</time>
      </trkpt>
      <trkpt lat="63.37702" lon="19.13713">
        <ele>78.02571</ele>
        <time>2020-10-02T10:55:20.794Z</time>
      </trkpt>
      <trkpt lat="63.37689" lon="19.13704">
        <ele>78.375599</ele>
        <time>2020-10-02T10:55:22.802Z</time>
      </trkpt>
      <trkpt lat="63.37677" lon="19.13695">
        <ele>78.72801</ele>
        <time>2020-10-02T10:55:24.833Z</time>
      </trkpt>
      <trkpt lat="63.37664" lon="19.13687">
        <ele>79.081253</ele>
        <time>2020-10-02T10:55:26.780Z</time>
      </trkpt>
      <trkpt lat="63.37652" lon="19.1368">
        <ele>79.403027</ele>
        <time>2020-10-02T10:55:28.800Z</time>
      </trkpt>
      <trkpt lat="63.3764" lon="19.13675">
        <ele>79.705575</ele>
        <time>2020-10-02T10:55:30.830Z</time>
      </trkpt>
      <trkpt lat="63.37629" lon="19.13672">
        <ele>79.99451</ele>
        <time>2020-10-02T10:55:32.816Z</time>
      </trkpt>
      <trkpt lat="63.37618" lon="19.13671">
        <ele>80.282192</ele>
        <time>2020-10-02T10:55:34.842Z</time>
      </trkpt>
      <trkpt lat="63.37608" lon="19.1367">
        <ele>80.561557</ele>
        <time>2020-10-02T10:55:36.824Z</time>
      </trkpt>
      <trkpt lat="63.37597" lon="19.13671">
        <ele>80.843529</ele>
        <time>2020-10-02T10:55:38.820Z</time>
      </trkpt>
      <trkpt lat="63.37586" lon="19.13674">
        <ele>81.132883</ele>
        <time>2020-10-02T10:55:40.815Z</time>
      </trkpt>
      <trkpt lat="63.37574" lon="19.13677">
        <ele>81.488193</ele>
        <time>2020-10-02T10:55:42.785Z</time>
      </trkpt>
      <trkpt lat="63.37561" lon="19.1368">
        <ele>81.895137</ele>
        <time>2020-10-02T10:55:44.813Z</time>
      </trkpt>
      <trkpt lat="63.37546" lon="19.13684">
        <ele>82.349012</ele>
        <time>2020-10-02T10:55:46.803Z</time>
      </trkpt>
      <trkpt lat="63.3753" lon="19.13689">
        <ele>82.828811</ele>
        <time>2020-10-02T10:55:48.800Z</time>
      </trkpt>
      <trkpt lat="63.37518" lon="19.13696">
        <ele>83.221512</ele>
        <time>2020-10-02T10:55:50.809Z</time>
      </trkpt>
      <trkpt lat="63.37507" lon="19.13705">
        <ele>83.582784</ele>
        <time>2020-10-02T10:55:52.801Z</time>
      </trkpt>
      <trkpt lat="63.37498" lon="19.13713">
        <ele>83.885908</ele>
        <time>2020-10-02T10:55:54.800Z</time>
      </trkpt>
      <trkpt lat="63.37487" lon="19.13723">
        <ele>84.229615</ele>
        <time>2020-10-02T10:55:57.831Z</time>
      </trkpt>
      <trkpt lat="63.3748" lon="19.13736">
        <ele>84.523949</ele>
        <time>2020-10-02T10:56:01.807Z</time>
      </trkpt>
      <trkpt lat="63.3747" lon="19.13748">
        <ele>84.856549</ele>
        <time>2020-10-02T10:56:06.786Z</time>
      </trkpt>
      <trkpt lat="63.37461" lon="19.13761">
        <ele>85.181922</ele>
        <time>2020-10-02T10:56:11.845Z</time>
      </trkpt>
      <trkpt lat="63.37452" lon="19.13768">
        <ele>85.490772</ele>
        <time>2020-10-02T10:56:17.811Z</time>
      </trkpt>
      <trkpt lat="63.37443" lon="19.13776">
        <ele>85.786944</ele>
        <time>2020-10-02T10:56:22.792Z</time>
      </trkpt>
      <trkpt lat="63.37433" lon="19.13784">
        <ele>86.110282</ele>
        <time>2020-10-02T10:56:27.791Z</time>
      </trkpt>
      <trkpt lat="63.37424" lon="19.13794">
        <ele>86.404151</ele>
        <time>2020-10-02T10:56:32.786Z</time>
      </trkpt>
      <trkpt lat="63.37414" lon="19.13801">
        <ele>86.731221</ele>
        <time>2020-10-02T10:56:37.809Z</time>
      </trkpt>
      <trkpt lat="63.37405" lon="19.1381">
        <ele>86.562291</ele>
        <time>2020-10-02T10:56:41.816Z</time>
      </trkpt>
      <trkpt lat="63.37397" lon="19.13819">
        <ele>86.390391</ele>
        <time>2020-10-02T10:56:44.820Z</time>
      </trkpt>
      <trkpt lat="63.37385" lon="19.13836">
        <ele>86.140788</ele>
        <time>2020-10-02T10:56:47.816Z</time>
      </trkpt>
      <trkpt lat="63.37373" lon="19.13856">
        <ele>85.878419</ele>
        <time>2020-10-02T10:56:49.797Z</time>
      </trkpt>
      <trkpt lat="63.37361" lon="19.1388">
        <ele>85.587027</ele>
        <time>2020-10-02T10:56:51.803Z</time>
      </trkpt>
      <trkpt lat="63.37348" lon="19.13898">
        <ele>85.317863</ele>
        <time>2020-10-02T10:56:53.813Z</time>
      </trkpt>
      <trkpt lat="63.37334" lon="19.13906">
        <ele>85.053505</ele>
        <time>2020-10-02T10:56:55.794Z</time>
      </trkpt>
      <trkpt lat="63.37321" lon="19.13905">
        <ele>84.823513</ele>
        <time>2020-10-02T10:56:57.842Z</time>
      </trkpt>
      <trkpt lat="63.37311" lon="19.13896">
        <ele>84.640711</ele>
        <time>2020-10-02T10:56:59.789Z</time>
      </trkpt>
      <trkpt lat="63.373" lon="19.1388">
        <ele>84.411253</ele>
        <time>2020-10-02T10:57:02.792Z</time>
      </trkpt>
      <trkpt lat="63.3729" lon="19.13869">
        <ele>84.199486</ele>
        <time>2020-10-02T10:57:05.805Z</time>
      </trkpt>
      <trkpt lat="63.37279" lon="19.13861">
        <ele>83.994965</ele>
        <time>2020-10-02T10:57:08.856Z</time>
      </trkpt>
      <trkpt lat="63.37268" lon="19.13859">
        <ele>83.805529</ele>
        <time>2020-10-02T10:57:11.865Z</time>
      </trkpt>
      <trkpt lat="63.37257" lon="19.13862">
        <ele>83.612244</ele>
        <time>2020-10-02T10:57:14.791Z</time>
      </trkpt>
      <trkpt lat="63.37247" lon="19.13866">
        <ele>83.249585</ele>
        <time>2020-10-02T10:57:17.810Z</time>
      </trkpt>
      <trkpt lat="63.37234" lon="19.13871">
        <ele>82.612192</ele>
        <time>2020-10-02T10:57:20.836Z</time>
      </trkpt>
      <trkpt lat="63.37224" lon="19.13874">
        <ele>82.123511</ele>
        <time>2020-10-02T10:57:22.828Z</time>
      </trkpt>
      <trkpt lat="63.37212" lon="19.1388">
        <ele>81.535332</ele>
        <time>2020-10-02T10:57:24.797Z</time>
      </trkpt>
      <trkpt lat="63.372" lon="19.13885">
        <ele>80.945445</ele>
        <time>2020-10-02T10:57:26.806Z</time>
      </trkpt>
      <trkpt lat="63.37189" lon="19.13891">
        <ele>80.399811</ele>
        <time>2020-10-02T10:57:28.785Z</time>
      </trkpt>
      <trkpt lat="63.37179" lon="19.13898">
        <ele>79.904227</ele>
        <time>2020-10-02T10:57:30.829Z</time>
      </trkpt>
      <trkpt lat="63.3717" lon="19.13904">
        <ele>79.454951</ele>
        <time>2020-10-02T10:57:32.799Z</time>
      </trkpt>
      <trkpt lat="63.37158" lon="19.13915">
        <ele>78.832661</ele>
        <time>2020-10-02T10:57:35.803Z</time>
      </trkpt>
      <trkpt lat="63.37146" lon="19.13926">
        <ele>78.214402</ele>
        <time>2020-10-02T10:57:38.789Z</time>
      </trkpt>
      <trkpt lat="63.37137" lon="19.13933">
        <ele>77.786342</ele>
        <time>2020-10-02T10:57:40.829Z</time>
      </trkpt>
      <trkpt lat="63.37128" lon="19.1394">
        <ele>77.317523</ele>
        <time>2020-10-02T10:57:42.815Z</time>
      </trkpt>
      <trkpt lat="63.37119" lon="19.13944">
        <ele>76.875221</ele>
        <time>2020-10-02T10:57:44.781Z</time>
      </trkpt>
      <trkpt lat="63.3711" lon="19.13947">
        <ele>76.443713</ele>
        <time>2020-10-02T10:57:46.790Z</time>
      </trkpt>
      <trkpt lat="63.371" lon="19.13949">
        <ele>75.93995</ele>
        <time>2020-10-02T10:57:49.794Z</time>
      </trkpt>
      <trkpt lat="63.37091" lon="19.13949">
        <ele>75.498979</ele>
        <time>2020-10-02T10:57:52.811Z</time>
      </trkpt>
      <trkpt lat="63.37078" lon="19.13951">
        <ele>74.915765</ele>
        <time>2020-10-02T10:57:56.828Z</time>
      </trkpt>
      <trkpt lat="63.37067" lon="19.13949">
        <ele>74.868885</ele>
        <time>2020-10-02T10:57:59.809Z</time>
      </trkpt>
      <trkpt lat="63.37055" lon="19.13947">
        <ele>74.816717</ele>
        <time>2020-10-02T10:58:02.809Z</time>
      </trkpt>
      <trkpt lat="63.37046" lon="19.13943">
        <ele>74.774124</ele>
        <time>2020-10-02T10:58:05.798Z</time>
      </trkpt>
      <trkpt lat="63.37036" lon="19.13937">
        <ele>74.731947</ele>
        <time>2020-10-02T10:58:10.819Z</time>
      </trkpt>
      <trkpt lat="63.37025" lon="19.13932">
        <ele>74.683564</ele>
        <time>2020-10-02T10:58:15.828Z</time>
      </trkpt>
      <trkpt lat="63.37015" lon="19.13927">
        <ele>74.638438</ele>
        <time>2020-10-02T10:58:19.829Z</time>
      </trkpt>
      <trkpt lat="63.37006" lon="19.13923">
        <ele>74.598671</ele>
        <time>2020-10-02T10:58:22.809Z</time>
      </trkpt>
      <trkpt lat="63.36993" lon="19.13915">
        <ele>74.543898</ele>
        <time>2020-10-02T10:58:25.793Z</time>
      </trkpt>
      <trkpt lat="63.36982" lon="19.13908">
        <ele>74.49284</ele>
        <time>2020-10-02T10:58:27.812Z</time>
      </trkpt>
      <trkpt lat="63.36969" lon="19.13901">
        <ele>74.434336</ele>
        <time>2020-10-02T10:58:29.798Z</time>
      </trkpt>
      <trkpt lat="63.36954" lon="19.13892">
        <ele>74.369796</ele>
        <time>2020-10-02T10:58:31.824Z</time>
      </trkpt>
      <trkpt lat="63.36939" lon="19.13883">
        <ele>74.302104</ele>
        <time>2020-10-02T10:58:33.834Z</time>
      </trkpt>
      <trkpt lat="63.36922" lon="19.13876">
        <ele>74.229352</ele>
        <time>2020-10-02T10:58:35.805Z</time>
      </trkpt>
      <trkpt lat="63.36907" lon="19.13871">
        <ele>74.16251</ele>
        <time>2020-10-02T10:58:37.812Z</time>
      </trkpt>
      <trkpt lat="63.36893" lon="19.13867">
        <ele>74.152653</ele>
        <time>2020-10-02T10:58:39.835Z</time>
      </trkpt>
      <trkpt lat="63.36883" lon="19.13865">
        <ele>74.161985</ele>
        <time>2020-10-02T10:58:41.798Z</time>
      </trkpt>
      <trkpt lat="63.3687" lon="19.13861">
        <ele>74.174367</ele>
        <time>2020-10-02T10:58:44.787Z</time>
      </trkpt>
      <trkpt lat="63.36858" lon="19.13859">
        <ele>74.184678</ele>
        <time>2020-10-02T10:58:46.803Z</time>
      </trkpt>
      <trkpt lat="63.36846" lon="19.13857">
        <ele>74.195894</ele>
        <time>2020-10-02T10:58:48.797Z</time>
      </trkpt>
      <trkpt lat="63.36833" lon="19.13855">
        <ele>74.208016</ele>
        <time>2020-10-02T10:58:50.797Z</time>
      </trkpt>
      <trkpt lat="63.36819" lon="19.13855">
        <ele>74.220392</ele>
        <time>2020-10-02T10:58:52.808Z</time>
      </trkpt>
      <trkpt lat="63.36806" lon="19.13859">
        <ele>74.232896</ele>
        <time>2020-10-02T10:58:54.821Z</time>
      </trkpt>
      <trkpt lat="63.36793" lon="19.13863">
        <ele>74.244105</ele>
        <time>2020-10-02T10:58:56.795Z</time>
      </trkpt>
      <trkpt lat="63.36784" lon="19.13868">
        <ele>74.253173</ele>
        <time>2020-10-02T10:58:58.805Z</time>
      </trkpt>
      <trkpt lat="63.36773" lon="19.13878">
        <ele>74.26402</ele>
        <time>2020-10-02T10:59:01.790Z</time>
      </trkpt>
      <trkpt lat="63.36762" lon="19.13885">
        <ele>74.274499</ele>
        <time>2020-10-02T10:59:04.818Z</time>
      </trkpt>
      <trkpt lat="63.36751" lon="19.13893">
        <ele>74.284456</ele>
        <time>2020-10-02T10:59:07.812Z</time>
      </trkpt>
      <trkpt lat="63.36742" lon="19.139">
        <ele>74.29327</ele>
        <time>2020-10-02T10:59:10.793Z</time>
      </trkpt>
      <trkpt lat="63.36732" lon="19.1391">
        <ele>74.303092</ele>
        <time>2020-10-02T10:59:14.788Z</time>
      </trkpt>
      <trkpt lat="63.36722" lon="19.1392">
        <ele>74.531126</ele>
        <time>2020-10-02T10:59:18.807Z</time>
      </trkpt>
      <trkpt lat="63.36713" lon="19.1393">
        <ele>74.930423</ele>
        <time>2020-10-02T10:59:22.795Z</time>
      </trkpt>
      <trkpt lat="63.36703" lon="19.13938">
        <ele>75.371963</ele>
        <time>2020-10-02T10:59:27.783Z</time>
      </trkpt>
      <trkpt lat="63.36694" lon="19.13944">
        <ele>75.737923</ele>
        <time>2020-10-02T10:59:31.793Z</time>
      </trkpt>
      <trkpt lat="63.36686" lon="19.1395">
        <ele>76.102777</ele>
        <time>2020-10-02T10:59:34.792Z</time>
      </trkpt>
      <trkpt lat="63.36676" lon="19.13957">
        <ele>76.5079</ele>
        <time>2020-10-02T10:59:37.791Z</time>
      </trkpt>
      <trkpt lat="63.36664" lon="19.13963">
        <ele>76.991381</ele>
        <time>2020-10-02T10:59:40.808Z</time>
      </trkpt>
      <trkpt lat="63.36655" lon="19.13967">
        <ele>77.367257</ele>
        <time>2020-10-02T10:59:42.850Z</time>
      </trkpt>
      <trkpt lat="63.36644" lon="19.13973">
        <ele>77.795944</ele>
        <time>2020-10-02T10:59:44.793Z</time>
      </trkpt>
      <trkpt lat="63.36632" lon="19.13979">
        <ele>78.295017</ele>
        <time>2020-10-02T10:59:46.796Z</time>
      </trkpt>
      <trkpt lat="63.3662" lon="19.13985">
        <ele>78.787908</ele>
        <time>2020-10-02T10:59:48.818Z</time>
      </trkpt>
      <trkpt lat="63.36608" lon="19.13992">
        <ele>79.290261</ele>
        <time>2020-10-02T10:59:50.809Z</time>
      </trkpt>
      <trkpt lat="63.36597" lon="19.14">
        <ele>79.764961</ele>
        <time>2020-10-02T10:59:52.805Z</time>
      </trkpt>
      <trkpt lat="63.36586" lon="19.14006">
        <ele>80.216917</ele>
        <time>2020-10-02T10:59:54.797Z</time>
      </trkpt>
      <trkpt lat="63.36576" lon="19.14011">
        <ele>80.613075</ele>
        <time>2020-10-02T10:59:56.822Z</time>
      </trkpt>
      <trkpt lat="63.36565" lon="19.14018">
        <ele>81.084049</ele>
        <time>2020-10-02T10:59:59.831Z</time>
      </trkpt>
      <trkpt lat="63.36556" lon="19.14029">
        <ele>81.47668</ele>
        <time>2020-10-02T11:00:02.796Z</time>
      </trkpt>
      <trkpt lat="63.36548" lon="19.14041">
        <ele>81.241874</ele>
        <time>2020-10-02T11:00:05.827Z</time>
      </trkpt>
      <trkpt lat="63.3654" lon="19.14053">
        <ele>80.947375</ele>
        <time>2020-10-02T11:00:09.806Z</time>
      </trkpt>
      <trkpt lat="63.36531" lon="19.14062">
        <ele>80.668317</ele>
        <time>2020-10-02T11:00:13.795Z</time>
      </trkpt>
      <trkpt lat="63.36521" lon="19.14071">
        <ele>80.376856</ele>
        <time>2020-10-02T11:00:18.796Z</time>
      </trkpt>
      <trkpt lat="63.36513" lon="19.14082">
        <ele>80.104345</ele>
        <time>2020-10-02T11:00:22.817Z</time>
      </trkpt>
      <trkpt lat="63.36503" lon="19.14093">
        <ele>79.796743</ele>
        <time>2020-10-02T11:00:25.806Z</time>
      </trkpt>
      <trkpt lat="63.36494" lon="19.14104">
        <ele>79.497109</ele>
        <time>2020-10-02T11:00:27.813Z</time>
      </trkpt>
      <trkpt lat="63.36484" lon="19.1412">
        <ele>79.158805</ele>
        <time>2020-10-02T11:00:29.794Z</time>
      </trkpt>
      <trkpt lat="63.36475" lon="19.14137">
        <ele>78.816711</ele>
        <time>2020-10-02T11:00:31.791Z</time>
      </trkpt>
      <trkpt lat="63.36466" lon="19.14154">
        <ele>78.496588</ele>
        <time>2020-10-02T11:00:33.812Z</time>
      </trkpt>
      <trkpt lat="63.36459" lon="19.14168">
        <ele>78.228025</ele>
        <time>2020-10-02T11:00:35.794Z</time>
      </trkpt>
      <trkpt lat="63.36451" lon="19.14186">
        <ele>77.896413</ele>
        <time>2020-10-02T11:00:38.808Z</time>
      </trkpt>
      <trkpt lat="63.36443" lon="19.14204">
        <ele>77.581748</ele>
        <time>2020-10-02T11:00:42.826Z</time>
      </trkpt>
      <trkpt lat="63.36435" lon="19.14222">
        <ele>77.266025</ele>
        <time>2020-10-02T11:00:47.828Z</time>
      </trkpt>
      <trkpt lat="63.36427" lon="19.14238">
        <ele>76.952303</ele>
        <time>2020-10-02T11:00:52.793Z</time>
      </trkpt>
      <trkpt lat="63.3642" lon="19.14254">
        <ele>76.659549</ele>
        <time>2020-10-02T11:00:56.803Z</time>
      </trkpt>
      <trkpt lat="63.3641" lon="19.14266">
        <ele>76.465218</ele>
        <time>2020-10-02T11:01:00.818Z</time>
      </trkpt>
      <trkpt lat="63.36399" lon="19.14271">
        <ele>76.857146</ele>
        <time>2020-10-02T11:01:04.791Z</time>
      </trkpt>
      <trkpt lat="63.36388" lon="19.14274">
        <ele>77.244184</ele>
        <time>2020-10-02T11:01:08.815Z</time>
      </trkpt>
      <trkpt lat="63.36376" lon="19.14275">
        <ele>77.625297</ele>
        <time>2020-10-02T11:01:12.806Z</time>
      </trkpt>
      <trkpt lat="63.36367" lon="19.14276">
        <ele>77.95887</ele>
        <time>2020-10-02T11:01:15.844Z</time>
      </trkpt>
      <trkpt lat="63.36356" lon="19.14277">
        <ele>78.326272</ele>
        <time>2020-10-02T11:01:18.794Z</time>
      </trkpt>
      <trkpt lat="63.36345" lon="19.14284">
        <ele>78.720079</ele>
        <time>2020-10-02T11:01:21.797Z</time>
      </trkpt>
      <trkpt lat="63.36332" lon="19.14291">
        <ele>79.156841</ele>
        <time>2020-10-02T11:01:24.787Z</time>
      </trkpt>
      <trkpt lat="63.36319" lon="19.14301">
        <ele>79.613188</ele>
        <time>2020-10-02T11:01:27.798Z</time>
      </trkpt>
      <trkpt lat="63.3631" lon="19.14309">
        <ele>79.954279</ele>
        <time>2020-10-02T11:01:29.819Z</time>
      </trkpt>
      <trkpt lat="63.36301" lon="19.14319">
        <ele>80.306968</ele>
        <time>2020-10-02T11:01:31.838Z</time>
      </trkpt>
      <trkpt lat="63.36291" lon="19.14329">
        <ele>80.66876</ele>
        <time>2020-10-02T11:01:33.799Z</time>
      </trkpt>
      <trkpt lat="63.36282" lon="19.14339">
        <ele>81.018339</ele>
        <time>2020-10-02T11:01:35.790Z</time>
      </trkpt>
      <trkpt lat="63.36272" lon="19.14347">
        <ele>81.359432</ele>
        <time>2020-10-02T11:01:37.795Z</time>
      </trkpt>
      <trkpt lat="63.36263" lon="19.14357">
        <ele>81.715463</ele>
        <time>2020-10-02T11:01:39.828Z</time>
      </trkpt>
      <trkpt lat="63.36253" lon="19.14367">
        <ele>82.096139</ele>
        <time>2020-10-02T11:01:41.807Z</time>
      </trkpt>
      <trkpt lat="63.36242" lon="19.14376">
        <ele>82.482807</ele>
        <time>2020-10-02T11:01:43.810Z</time>
      </trkpt>
      <trkpt lat="63.36231" lon="19.14388">
        <ele>82.271526</ele>
        <time>2020-10-02T11:01:45.817Z</time>
      </trkpt>
      <trkpt lat="63.3622" lon="19.144">
        <ele>81.997527</ele>
        <time>2020-10-02T11:01:47.810Z</time>
      </trkpt>
      <trkpt lat="63.36209" lon="19.14415">
        <ele>81.730734</ele>
        <time>2020-10-02T11:01:49.813Z</time>
      </trkpt>
      <trkpt lat="63.36201" lon="19.1443">
        <ele>81.509259</ele>
        <time>2020-10-02T11:01:51.811Z</time>
      </trkpt>
      <trkpt lat="63.36195" lon="19.14444">
        <ele>81.305638</ele>
        <time>2020-10-02T11:01:53.804Z</time>
      </trkpt>
      <trkpt lat="63.36186" lon="19.14462">
        <ele>81.053154</ele>
        <time>2020-10-02T11:01:56.799Z</time>
      </trkpt>
      <trkpt lat="63.36178" lon="19.1448">
        <ele>80.803623</ele>
        <time>2020-10-02T11:01:59.814Z</time>
      </trkpt>
      <trkpt lat="63.3617" lon="19.14499">
        <ele>80.548575</ele>
        <time>2020-10-02T11:02:02.790Z</time>
      </trkpt>
      <trkpt lat="63.36161" lon="19.14516">
        <ele>80.305341</ele>
        <time>2020-10-02T11:02:05.808Z</time>
      </trkpt>
      <trkpt lat="63.36153" lon="19.14531">
        <ele>80.074499</ele>
        <time>2020-10-02T11:02:08.813Z</time>
      </trkpt>
      <trkpt lat="63.36145" lon="19.14545">
        <ele>79.853433</ele>
        <time>2020-10-02T11:02:11.793Z</time>
      </trkpt>
      <trkpt lat="63.36137" lon="19.14559">
        <ele>79.634125</ele>
        <time>2020-10-02T11:02:14.817Z</time>
      </trkpt>
      <trkpt lat="63.3613" lon="19.14574">
        <ele>79.410769</ele>
        <time>2020-10-02T11:02:17.816Z</time>
      </trkpt>
      <trkpt lat="63.36122" lon="19.14591">
        <ele>79.169095</ele>
        <time>2020-10-02T11:02:20.841Z</time>
      </trkpt>
      <trkpt lat="63.36112" lon="19.14608">
        <ele>78.905111</ele>
        <time>2020-10-02T11:02:23.813Z</time>
      </trkpt>
      <trkpt lat="63.36103" lon="19.14623">
        <ele>78.653277</ele>
        <time>2020-10-02T11:02:26.800Z</time>
      </trkpt>
      <trkpt lat="63.36094" lon="19.14638">
        <ele>78.974657</ele>
        <time>2020-10-02T11:02:29.842Z</time>
      </trkpt>
      <trkpt lat="63.36086" lon="19.14652">
        <ele>79.376647</ele>
        <time>2020-10-02T11:02:32.803Z</time>
      </trkpt>
      <trkpt lat="63.36078" lon="19.14663">
        <ele>79.745699</ele>
        <time>2020-10-02T11:02:35.810Z</time>
      </trkpt>
      <trkpt lat="63.3607" lon="19.14674">
        <ele>80.1058</ele>
        <time>2020-10-02T11:02:38.796Z</time>
      </trkpt>
      <trkpt lat="63.36061" lon="19.14683">
        <ele>80.499076</ele>
        <time>2020-10-02T11:02:41.828Z</time>
      </trkpt>
      <trkpt lat="63.36052" lon="19.14687">
        <ele>80.884765</ele>
        <time>2020-10-02T11:02:44.799Z</time>
      </trkpt>
      <trkpt lat="63.36041" lon="19.14689">
        <ele>81.289513</ele>
        <time>2020-10-02T11:02:47.809Z</time>
      </trkpt>
      <trkpt lat="63.36031" lon="19.14692">
        <ele>81.698178</ele>
        <time>2020-10-02T11:02:50.804Z</time>
      </trkpt>
      <trkpt lat="63.36022" lon="19.14695">
        <ele>82.079876</ele>
        <time>2020-10-02T11:02:53.804Z</time>
      </trkpt>
      <trkpt lat="63.36012" lon="19.14695">
        <ele>82.446529</ele>
        <time>2020-10-02T11:02:56.828Z</time>
      </trkpt>
      <trkpt lat="63.36003" lon="19.14696">
        <ele>82.825812</ele>
        <time>2020-10-02T11:02:59.843Z</time>
      </trkpt>
      <trkpt lat="63.35993" lon="19.147">
        <ele>83.208492</ele>
        <time>2020-10-02T11:03:02.794Z</time>
      </trkpt>
      <trkpt lat="63.35983" lon="19.14701">
        <ele>83.604165</ele>
        <time>2020-10-02T11:03:05.795Z</time>
      </trkpt>
      <trkpt lat="63.35973" lon="19.14706">
        <ele>84.026378</ele>
        <time>2020-10-02T11:03:08.809Z</time>
      </trkpt>
      <trkpt lat="63.35962" lon="19.14711">
        <ele>84.459209</ele>
        <time>2020-10-02T11:03:11.793Z</time>
      </trkpt>
      <trkpt lat="63.35949" lon="19.14715">
        <ele>84.955688</ele>
        <time>2020-10-02T11:03:14.823Z</time>
      </trkpt>
      <trkpt lat="63.35941" lon="19.1472">
        <ele>85.310114</ele>
        <time>2020-10-02T11:03:16.839Z</time>
      </trkpt>
      <trkpt lat="63.35928" lon="19.14725">
        <ele>85.643929</ele>
        <time>2020-10-02T11:03:19.808Z</time>
      </trkpt>
      <trkpt lat="63.35914" lon="19.14729">
        <ele>85.350867</ele>
        <time>2020-10-02T11:03:22.807Z</time>
      </trkpt>
      <trkpt lat="63.35905" lon="19.14733">
        <ele>85.143525</ele>
        <time>2020-10-02T11:03:24.796Z</time>
      </trkpt>
      <trkpt lat="63.35894" lon="19.14734">
        <ele>84.923809</ele>
        <time>2020-10-02T11:03:26.812Z</time>
      </trkpt>
      <trkpt lat="63.35882" lon="19.14734">
        <ele>84.655042</ele>
        <time>2020-10-02T11:03:28.790Z</time>
      </trkpt>
      <trkpt lat="63.35867" lon="19.14735">
        <ele>84.334573</ele>
        <time>2020-10-02T11:03:30.802Z</time>
      </trkpt>
      <trkpt lat="63.35851" lon="19.14738">
        <ele>83.981213</ele>
        <time>2020-10-02T11:03:32.820Z</time>
      </trkpt>
      <trkpt lat="63.35835" lon="19.14741">
        <ele>83.635366</ele>
        <time>2020-10-02T11:03:34.812Z</time>
      </trkpt>
      <trkpt lat="63.35818" lon="19.14746">
        <ele>83.282471</ele>
        <time>2020-10-02T11:03:36.827Z</time>
      </trkpt>
      <trkpt lat="63.35803" lon="19.14753">
        <ele>82.948177</ele>
        <time>2020-10-02T11:03:38.806Z</time>
      </trkpt>
      <trkpt lat="63.3579" lon="19.14762">
        <ele>82.651408</ele>
        <time>2020-10-02T11:03:40.796Z</time>
      </trkpt>
      <trkpt lat="63.35777" lon="19.14774">
        <ele>82.35796</ele>
        <time>2020-10-02T11:03:42.810Z</time>
      </trkpt>
      <trkpt lat="63.35766" lon="19.14787">
        <ele>82.084585</ele>
        <time>2020-10-02T11:03:44.817Z</time>
      </trkpt>
      <trkpt lat="63.35756" lon="19.14801">
        <ele>81.838369</ele>
        <time>2020-10-02T11:03:46.794Z</time>
      </trkpt>
      <trkpt lat="63.35746" lon="19.14815">
        <ele>81.778823</ele>
        <time>2020-10-02T11:03:48.800Z</time>
      </trkpt>
      <trkpt lat="63.35735" lon="19.1483">
        <ele>81.718633</ele>
        <time>2020-10-02T11:03:50.796Z</time>
      </trkpt>
      <trkpt lat="63.35725" lon="19.14846">
        <ele>81.659944</ele>
        <time>2020-10-02T11:03:52.821Z</time>
      </trkpt>
      <trkpt lat="63.35715" lon="19.1486">
        <ele>81.600796</ele>
        <time>2020-10-02T11:03:54.793Z</time>
      </trkpt>
      <trkpt lat="63.35705" lon="19.14873">
        <ele>81.542818</ele>
        <time>2020-10-02T11:03:56.831Z</time>
      </trkpt>
      <trkpt lat="63.35694" lon="19.14884">
        <ele>81.485119</ele>
        <time>2020-10-02T11:03:58.798Z</time>
      </trkpt>
      <trkpt lat="63.35684" lon="19.14895">
        <ele>81.430883</ele>
        <time>2020-10-02T11:04:00.800Z</time>
      </trkpt>
      <trkpt lat="63.35675" lon="19.14903">
        <ele>81.384002</ele>
        <time>2020-10-02T11:04:02.798Z</time>
      </trkpt>
      <trkpt lat="63.35666" lon="19.14911">
        <ele>81.338376</ele>
        <time>2020-10-02T11:04:04.805Z</time>
      </trkpt>
      <trkpt lat="63.35655" lon="19.14922">
        <ele>81.279522</ele>
        <time>2020-10-02T11:04:07.803Z</time>
      </trkpt>
      <trkpt lat="63.35646" lon="19.14932">
        <ele>81.22988</ele>
        <time>2020-10-02T11:04:10.808Z</time>
      </trkpt>
      <trkpt lat="63.35636" lon="19.14944">
        <ele>81.17467</ele>
        <time>2020-10-02T11:04:13.836Z</time>
      </trkpt>
      <trkpt lat="63.35625" lon="19.14956">
        <ele>81.114723</ele>
        <time>2020-10-02T11:04:16.830Z</time>
      </trkpt>
      <trkpt lat="63.35614" lon="19.14968">
        <ele>81.055258</ele>
        <time>2020-10-02T11:04:19.808Z</time>
      </trkpt>
      <trkpt lat="63.35603" lon="19.1498">
        <ele>80.997053</ele>
        <time>2020-10-02T11:04:22.815Z</time>
      </trkpt>
      <trkpt lat="63.35592" lon="19.14992">
        <ele>80.437953</ele>
        <time>2020-10-02T11:04:25.808Z</time>
      </trkpt>
      <trkpt lat="63.3558" lon="19.15002">
        <ele>79.410851</ele>
        <time>2020-10-02T11:04:28.799Z</time>
      </trkpt>
      <trkpt lat="63.35572" lon="19.15009">
        <ele>78.643136</ele>
        <time>2020-10-02T11:04:30.805Z</time>
      </trkpt>
      <trkpt lat="63.35562" lon="19.15018">
        <ele>77.777906</ele>
        <time>2020-10-02T11:04:32.822Z</time>
      </trkpt>
      <trkpt lat="63.35551" lon="19.15032">
        <ele>76.678738</ele>
        <time>2020-10-02T11:04:34.791Z</time>
      </trkpt>
      <trkpt lat="63.35538" lon="19.1505">
        <ele>75.385252</ele>
        <time>2020-10-02T11:04:36.809Z</time>
      </trkpt>
      <trkpt lat="63.35525" lon="19.15071">
        <ele>74.014472</ele>
        <time>2020-10-02T11:04:38.806Z</time>
      </trkpt>
      <trkpt lat="63.35512" lon="19.15095">
        <ele>72.635541</ele>
        <time>2020-10-02T11:04:40.814Z</time>
      </trkpt>
      <trkpt lat="63.355" lon="19.15116">
        <ele>71.340371</ele>
        <time>2020-10-02T11:04:42.798Z</time>
      </trkpt>
      <trkpt lat="63.35489" lon="19.15138">
        <ele>70.081713</ele>
        <time>2020-10-02T11:04:44.797Z</time>
      </trkpt>
      <trkpt lat="63.35477" lon="19.1516">
        <ele>68.809308</ele>
        <time>2020-10-02T11:04:46.788Z</time>
      </trkpt>
      <trkpt lat="63.35466" lon="19.15183">
        <ele>67.526685</ele>
        <time>2020-10-02T11:04:48.839Z</time>
      </trkpt>
      <trkpt lat="63.35454" lon="19.15208">
        <ele>66.139784</ele>
        <time>2020-10-02T11:04:50.844Z</time>
      </trkpt>
      <trkpt lat="63.35443" lon="19.15232">
        <ele>65.263103</ele>
        <time>2020-10-02T11:04:52.790Z</time>
      </trkpt>
      <trkpt lat="63.35432" lon="19.15256">
        <ele>64.511503</ele>
        <time>2020-10-02T11:04:54.812Z</time>
      </trkpt>
      <trkpt lat="63.35423" lon="19.15276">
        <ele>63.861214</ele>
        <time>2020-10-02T11:04:56.796Z</time>
      </trkpt>
      <trkpt lat="63.35412" lon="19.15294">
        <ele>63.234115</ele>
        <time>2020-10-02T11:04:58.801Z</time>
      </trkpt>
      <trkpt lat="63.35401" lon="19.15312">
        <ele>62.553147</ele>
        <time>2020-10-02T11:05:00.812Z</time>
      </trkpt>
      <trkpt lat="63.35391" lon="19.1533">
        <ele>61.89322</ele>
        <time>2020-10-02T11:05:02.791Z</time>
      </trkpt>
      <trkpt lat="63.35379" lon="19.15348">
        <ele>61.217592</ele>
        <time>2020-10-02T11:05:04.815Z</time>
      </trkpt>
      <trkpt lat="63.35369" lon="19.15367">
        <ele>60.54027</ele>
        <time>2020-10-02T11:05:06.800Z</time>
      </trkpt>
      <trkpt lat="63.35358" lon="19.15388">
        <ele>59.849023</ele>
        <time>2020-10-02T11:05:08.812Z</time>
      </trkpt>
      <trkpt lat="63.35348" lon="19.15406">
        <ele>59.224008</ele>
        <time>2020-10-02T11:05:10.816Z</time>
      </trkpt>
      <trkpt lat="63.35338" lon="19.15424">
        <ele>58.598084</ele>
        <time>2020-10-02T11:05:12.815Z</time>
      </trkpt>
      <trkpt lat="63.35327" lon="19.15443">
        <ele>57.909195</ele>
        <time>2020-10-02T11:05:14.793Z</time>
      </trkpt>
      <trkpt lat="63.35315" lon="19.15456">
        <ele>57.242652</ele>
        <time>2020-10-02T11:05:16.798Z</time>
      </trkpt>
      <trkpt lat="63.35302" lon="19.15452">
        <ele>57.222508</ele>
        <time>2020-10-02T11:05:18.793Z</time>
      </trkpt>
      <trkpt lat="63.35293" lon="19.15433">
        <ele>57.524167</ele>
        <time>2020-10-02T11:05:20.806Z</time>
      </trkpt>
      <trkpt lat="63.35287" lon="19.15414">
        <ele>57.792106</ele>
        <time>2020-10-02T11:05:22.804Z</time>
      </trkpt>
      <trkpt lat="63.35283" lon="19.15396">
        <ele>58.030545</ele>
        <time>2020-10-02T11:05:24.816Z</time>
      </trkpt>
      <trkpt lat="63.35275" lon="19.15373">
        <ele>58.355165</ele>
        <time>2020-10-02T11:05:27.828Z</time>
      </trkpt>
      <trkpt lat="63.35267" lon="19.15353">
        <ele>58.6531</ele>
        <time>2020-10-02T11:05:30.819Z</time>
      </trkpt>
      <trkpt lat="63.3526" lon="19.15336">
        <ele>58.91295</ele>
        <time>2020-10-02T11:05:33.801Z</time>
      </trkpt>
      <trkpt lat="63.35254" lon="19.1532">
        <ele>59.170289</ele>
        <time>2020-10-02T11:05:36.807Z</time>
      </trkpt>
      <trkpt lat="63.35246" lon="19.15304">
        <ele>59.425401</ele>
        <time>2020-10-02T11:05:39.803Z</time>
      </trkpt>
      <trkpt lat="63.35239" lon="19.15287">
        <ele>59.686131</ele>
        <time>2020-10-02T11:05:42.801Z</time>
      </trkpt>
      <trkpt lat="63.35232" lon="19.1527">
        <ele>59.966851</ele>
        <time>2020-10-02T11:05:45.810Z</time>
      </trkpt>
      <trkpt lat="63.35223" lon="19.15252">
        <ele>60.256751</ele>
        <time>2020-10-02T11:05:48.798Z</time>
      </trkpt>
      <trkpt lat="63.35215" lon="19.15233">
        <ele>60.56368</ele>
        <time>2020-10-02T11:05:51.823Z</time>
      </trkpt>
      <trkpt lat="63.35206" lon="19.15214">
        <ele>60.87922</ele>
        <time>2020-10-02T11:05:54.814Z</time>
      </trkpt>
      <trkpt lat="63.35197" lon="19.15194">
        <ele>61.200772</ele>
        <time>2020-10-02T11:05:57.788Z</time>
      </trkpt>
      <trkpt lat="63.35188" lon="19.15175">
        <ele>61.514728</ele>
        <time>2020-10-02T11:06:00.810Z</time>
      </trkpt>
      <trkpt lat="63.35179" lon="19.15156">
        <ele>61.842035</ele>
        <time>2020-10-02T11:06:03.796Z</time>
      </trkpt>
      <trkpt lat="63.35172" lon="19.1514">
        <ele>62.12899</ele>
        <time>2020-10-02T11:06:06.806Z</time>
      </trkpt>
      <trkpt lat="63.35163" lon="19.15123">
        <ele>62.435777</ele>
        <time>2020-10-02T11:06:09.802Z</time>
      </trkpt>
      <trkpt lat="63.35157" lon="19.15105">
        <ele>62.725054</ele>
        <time>2020-10-02T11:06:12.830Z</time>
      </trkpt>
      <trkpt lat="63.35148" lon="19.15087">
        <ele>63.039578</ele>
        <time>2020-10-02T11:06:15.799Z</time>
      </trkpt>
      <trkpt lat="63.35139" lon="19.15067">
        <ele>63.392967</ele>
        <time>2020-10-02T11:06:18.790Z</time>
      </trkpt>
      <trkpt lat="63.3513" lon="19.15047">
        <ele>63.758292</ele>
        <time>2020-10-02T11:06:21.825Z</time>
      </trkpt>
      <trkpt lat="63.35123" lon="19.15033">
        <ele>64.021036</ele>
        <time>2020-10-02T11:06:23.816Z</time>
      </trkpt>
      <trkpt lat="63.35114" lon="19.15017">
        <ele>64.316218</ele>
        <time>2020-10-02T11:06:25.821Z</time>
      </trkpt>
      <trkpt lat="63.35105" lon="19.14999">
        <ele>64.648343</ele>
        <time>2020-10-02T11:06:27.810Z</time>
      </trkpt>
      <trkpt lat="63.35096" lon="19.1498">
        <ele>64.999455</ele>
        <time>2020-10-02T11:06:29.800Z</time>
      </trkpt>
      <trkpt lat="63.35086" lon="19.14957">
        <ele>65.397149</ele>
        <time>2020-10-02T11:06:31.786Z</time>
      </trkpt>
      <trkpt lat="63.35075" lon="19.14933">
        <ele>65.812643</ele>
        <time>2020-10-02T11:06:33.816Z</time>
      </trkpt>
      <trkpt lat="63.35066" lon="19.14908">
        <ele>66.219661</ele>
        <time>2020-10-02T11:06:35.829Z</time>
      </trkpt>
      <trkpt lat="63.35057" lon="19.14884">
        <ele>66.320372</ele>
        <time>2020-10-02T11:06:37.859Z</time>
      </trkpt>
      <trkpt lat="63.3505" lon="19.14864">
        <ele>65.320839</ele>
        <time>2020-10-02T11:06:39.801Z</time>
      </trkpt>
      <trkpt lat="63.35038" lon="19.14858">
        <ele>64.291956</ele>
        <time>2020-10-02T11:06:42.800Z</time>
      </trkpt>
      <trkpt lat="63.35026" lon="19.14859">
        <ele>63.343987</ele>
        <time>2020-10-02T11:06:44.822Z</time>
      </trkpt>
      <trkpt lat="63.35016" lon="19.14853">
        <ele>62.447333</ele>
        <time>2020-10-02T11:06:46.819Z</time>
      </trkpt>
      <trkpt lat="63.35006" lon="19.14843">
        <ele>61.588983</ele>
        <time>2020-10-02T11:06:49.798Z</time>
      </trkpt>
      <trkpt lat="63.34992" lon="19.14856">
        <ele>60.332988</ele>
        <time>2020-10-02T11:06:52.794Z</time>
      </trkpt>
      <trkpt lat="63.34984" lon="19.14875">
        <ele>59.351407</ele>
        <time>2020-10-02T11:06:54.819Z</time>
      </trkpt>
      <trkpt lat="63.3498" lon="19.14894">
        <ele>58.57562</ele>
        <time>2020-10-02T11:06:56.814Z</time>
      </trkpt>
      <trkpt lat="63.34973" lon="19.14913">
        <ele>57.64775</ele>
        <time>2020-10-02T11:06:58.836Z</time>
      </trkpt>
      <trkpt lat="63.34967" lon="19.14932">
        <ele>56.784346</ele>
        <time>2020-10-02T11:07:00.820Z</time>
      </trkpt>
      <trkpt lat="63.34963" lon="19.1495">
        <ele>56.028004</ele>
        <time>2020-10-02T11:07:03.788Z</time>
      </trkpt>
      <trkpt lat="63.34959" lon="19.1497">
        <ele>55.200566</ele>
        <time>2020-10-02T11:07:07.808Z</time>
      </trkpt>
      <trkpt lat="63.34955" lon="19.14994">
        <ele>54.252847</ele>
        <time>2020-10-02T11:07:10.798Z</time>
      </trkpt>
      <trkpt lat="63.3495" lon="19.15017">
        <ele>53.307006</ele>
        <time>2020-10-02T11:07:13.819Z</time>
      </trkpt>
      <trkpt lat="63.34944" lon="19.1504">
        <ele>52.281245</ele>
        <time>2020-10-02T11:07:16.788Z</time>
      </trkpt>
      <trkpt lat="63.34936" lon="19.15058">
        <ele>51.530657</ele>
        <time>2020-10-02T11:07:19.816Z</time>
      </trkpt>
      <trkpt lat="63.34929" lon="19.15075">
        <ele>51.38304</ele>
        <time>2020-10-02T11:07:22.808Z</time>
      </trkpt>
      <trkpt lat="63.3492" lon="19.15091">
        <ele>51.219713</ele>
        <time>2020-10-02T11:07:25.795Z</time>
      </trkpt>
      <trkpt lat="63.34908" lon="19.15107">
        <ele>51.029196</ele>
        <time>2020-10-02T11:07:28.856Z</time>
      </trkpt>
      <trkpt lat="63.349" lon="19.15121">
        <ele>50.875058</ele>
        <time>2020-10-02T11:07:30.812Z</time>
      </trkpt>
      <trkpt lat="63.3489" lon="19.15135">
        <ele>50.709256</ele>
        <time>2020-10-02T11:07:32.819Z</time>
      </trkpt>
      <trkpt lat="63.3488" lon="19.15149">
        <ele>50.547242</ele>
        <time>2020-10-02T11:07:34.814Z</time>
      </trkpt>
      <trkpt lat="63.3487" lon="19.15163">
        <ele>50.375335</ele>
        <time>2020-10-02T11:07:36.818Z</time>
      </trkpt>
      <trkpt lat="63.34859" lon="19.15176">
        <ele>50.194329</ele>
        <time>2020-10-02T11:07:38.834Z</time>
      </trkpt>
      <trkpt lat="63.34847" lon="19.15189">
        <ele>50.008931</ele>
        <time>2020-10-02T11:07:40.818Z</time>
      </trkpt>
      <trkpt lat="63.34836" lon="19.15202">
        <ele>49.828303</ele>
        <time>2020-10-02T11:07:42.810Z</time>
      </trkpt>
      <trkpt lat="63.34825" lon="19.15213">
        <ele>49.654057</ele>
        <time>2020-10-02T11:07:44.803Z</time>
      </trkpt>
      <trkpt lat="63.34814" lon="19.15224">
        <ele>49.482943</ele>
        <time>2020-10-02T11:07:46.833Z</time>
      </trkpt>
      <trkpt lat="63.34803" lon="19.15234">
        <ele>49.311026</ele>
        <time>2020-10-02T11:07:48.799Z</time>
      </trkpt>
      <trkpt lat="63.34792" lon="19.15244">
        <ele>49.1497</ele>
        <time>2020-10-02T11:07:50.794Z</time>
      </trkpt>
      <trkpt lat="63.34782" lon="19.15253">
        <ele>48.994534</ele>
        <time>2020-10-02T11:07:52.795Z</time>
      </trkpt>
      <trkpt lat="63.34772" lon="19.15262">
        <ele>48.894907</ele>
        <time>2020-10-02T11:07:54.798Z</time>
      </trkpt>
      <trkpt lat="63.34762" lon="19.15271">
        <ele>48.797833</ele>
        <time>2020-10-02T11:07:56.852Z</time>
      </trkpt>
      <trkpt lat="63.34752" lon="19.15279">
        <ele>48.701368</ele>
        <time>2020-10-02T11:07:58.795Z</time>
      </trkpt>
      <trkpt lat="63.34742" lon="19.15288">
        <ele>48.60329</ele>
        <time>2020-10-02T11:08:00.820Z</time>
      </trkpt>
      <trkpt lat="63.34732" lon="19.15297">
        <ele>48.502101</ele>
        <time>2020-10-02T11:08:02.797Z</time>
      </trkpt>
      <trkpt lat="63.34721" lon="19.15305">
        <ele>48.399083</ele>
        <time>2020-10-02T11:08:04.831Z</time>
      </trkpt>
      <trkpt lat="63.34711" lon="19.15312">
        <ele>48.296554</ele>
        <time>2020-10-02T11:08:06.797Z</time>
      </trkpt>
      <trkpt lat="63.347" lon="19.1532">
        <ele>48.192662</ele>
        <time>2020-10-02T11:08:08.850Z</time>
      </trkpt>
      <trkpt lat="63.34689" lon="19.15328">
        <ele>48.089262</ele>
        <time>2020-10-02T11:08:10.815Z</time>
      </trkpt>
      <trkpt lat="63.34678" lon="19.15333">
        <ele>47.989517</ele>
        <time>2020-10-02T11:08:12.815Z</time>
      </trkpt>
      <trkpt lat="63.34667" lon="19.15336">
        <ele>47.885075</ele>
        <time>2020-10-02T11:08:14.810Z</time>
      </trkpt>
      <trkpt lat="63.34656" lon="19.15339">
        <ele>47.779192</ele>
        <time>2020-10-02T11:08:16.802Z</time>
      </trkpt>
      <trkpt lat="63.34644" lon="19.1534">
        <ele>47.672601</ele>
        <time>2020-10-02T11:08:18.798Z</time>
      </trkpt>
      <trkpt lat="63.34633" lon="19.15343">
        <ele>47.566606</ele>
        <time>2020-10-02T11:08:20.801Z</time>
      </trkpt>
      <trkpt lat="63.34621" lon="19.15348">
        <ele>47.456264</ele>
        <time>2020-10-02T11:08:22.795Z</time>
      </trkpt>
      <trkpt lat="63.34609" lon="19.15354">
        <ele>47.317951</ele>
        <time>2020-10-02T11:08:24.832Z</time>
      </trkpt>
      <trkpt lat="63.34596" lon="19.15364">
        <ele>46.96258</ele>
        <time>2020-10-02T11:08:26.800Z</time>
      </trkpt>
      <trkpt lat="63.34584" lon="19.15377">
        <ele>46.602861</ele>
        <time>2020-10-02T11:08:28.802Z</time>
      </trkpt>
      <trkpt lat="63.34571" lon="19.15384">
        <ele>46.251998</ele>
        <time>2020-10-02T11:08:30.805Z</time>
      </trkpt>
      <trkpt lat="63.34559" lon="19.15388">
        <ele>45.909953</ele>
        <time>2020-10-02T11:08:32.790Z</time>
      </trkpt>
      <trkpt lat="63.34545" lon="19.15393">
        <ele>45.548017</ele>
        <time>2020-10-02T11:08:34.795Z</time>
      </trkpt>
      <trkpt lat="63.34532" lon="19.15399">
        <ele>45.185012</ele>
        <time>2020-10-02T11:08:36.821Z</time>
      </trkpt>
      <trkpt lat="63.34518" lon="19.15404">
        <ele>44.812095</ele>
        <time>2020-10-02T11:08:38.815Z</time>
      </trkpt>
      <trkpt lat="63.34505" lon="19.15409">
        <ele>44.441398</ele>
        <time>2020-10-02T11:08:40.833Z</time>
      </trkpt>
      <trkpt lat="63.34491" lon="19.15415">
        <ele>44.073971</ele>
        <time>2020-10-02T11:08:42.807Z</time>
      </trkpt>
      <trkpt lat="63.34478" lon="19.15421">
        <ele>43.712909</ele>
        <time>2020-10-02T11:08:44.801Z</time>
      </trkpt>
      <trkpt lat="63.34465" lon="19.15427">
        <ele>43.356113</ele>
        <time>2020-10-02T11:08:46.828Z</time>
      </trkpt>
      <trkpt lat="63.34453" lon="19.15434">
        <ele>43.011316</ele>
        <time>2020-10-02T11:08:48.833Z</time>
      </trkpt>
      <trkpt lat="63.3444" lon="19.15441">
        <ele>42.660452</ele>
        <time>2020-10-02T11:08:50.810Z</time>
      </trkpt>
      <trkpt lat="63.34427" lon="19.15448">
        <ele>42.139891</ele>
        <time>2020-10-02T11:08:52.794Z</time>
      </trkpt>
      <trkpt lat="63.34414" lon="19.15457">
        <ele>41.540275</ele>
        <time>2020-10-02T11:08:54.807Z</time>
      </trkpt>
      <trkpt lat="63.34403" lon="19.1547">
        <ele>40.975242</ele>
        <time>2020-10-02T11:08:56.828Z</time>
      </trkpt>
      <trkpt lat="63.34394" lon="19.15492">
        <ele>40.402625</ele>
        <time>2020-10-02T11:08:58.810Z</time>
      </trkpt>
      <trkpt lat="63.3439" lon="19.15515">
        <ele>39.902332</ele>
        <time>2020-10-02T11:09:00.819Z</time>
      </trkpt>
      <trkpt lat="63.34386" lon="19.15535">
        <ele>39.451254</ele>
        <time>2020-10-02T11:09:02.797Z</time>
      </trkpt>
      <trkpt lat="63.34381" lon="19.15555">
        <ele>39.004717</ele>
        <time>2020-10-02T11:09:04.794Z</time>
      </trkpt>
      <trkpt lat="63.34374" lon="19.15574">
        <ele>38.531626</ele>
        <time>2020-10-02T11:09:06.814Z</time>
      </trkpt>
      <trkpt lat="63.34365" lon="19.15589">
        <ele>38.023909</ele>
        <time>2020-10-02T11:09:09.808Z</time>
      </trkpt>
      <trkpt lat="63.34353" lon="19.15591">
        <ele>37.461376</ele>
        <time>2020-10-02T11:09:12.819Z</time>
      </trkpt>
      <trkpt lat="63.34341" lon="19.15598">
        <ele>36.9219</ele>
        <time>2020-10-02T11:09:15.799Z</time>
      </trkpt>
      <trkpt lat="63.3433" lon="19.15612">
        <ele>36.359742</ele>
        <time>2020-10-02T11:09:18.838Z</time>
      </trkpt>
      <trkpt lat="63.34318" lon="19.15619">
        <ele>35.803043</ele>
        <time>2020-10-02T11:09:21.820Z</time>
      </trkpt>
      <trkpt lat="63.34309" lon="19.15623">
        <ele>35.393558</ele>
        <time>2020-10-02T11:09:23.799Z</time>
      </trkpt>
      <trkpt lat="63.34299" lon="19.15627">
        <ele>34.954969</ele>
        <time>2020-10-02T11:09:25.794Z</time>
      </trkpt>
      <trkpt lat="63.34289" lon="19.1563">
        <ele>34.521291</ele>
        <time>2020-10-02T11:09:27.799Z</time>
      </trkpt>
      <trkpt lat="63.3428" lon="19.15631">
        <ele>34.583334</ele>
        <time>2020-10-02T11:09:29.838Z</time>
      </trkpt>
      <trkpt lat="63.34271" lon="19.15638">
        <ele>34.64787</ele>
        <time>2020-10-02T11:09:31.809Z</time>
      </trkpt>
      <trkpt lat="63.34262" lon="19.1566">
        <ele>34.732146</ele>
        <time>2020-10-02T11:09:34.805Z</time>
      </trkpt>
      <trkpt lat="63.34256" lon="19.15682">
        <ele>34.810836</ele>
        <time>2020-10-02T11:09:37.837Z</time>
      </trkpt>
      <trkpt lat="63.34249" lon="19.15705">
        <ele>34.894859</ele>
        <time>2020-10-02T11:09:40.847Z</time>
      </trkpt>
      <trkpt lat="63.34243" lon="19.15721">
        <ele>34.955657</ele>
        <time>2020-10-02T11:09:42.801Z</time>
      </trkpt>
      <trkpt lat="63.34237" lon="19.15737">
        <ele>35.020813</ele>
        <time>2020-10-02T11:09:44.818Z</time>
      </trkpt>
      <trkpt lat="63.34231" lon="19.15755">
        <ele>35.087723</ele>
        <time>2020-10-02T11:09:46.816Z</time>
      </trkpt>
      <trkpt lat="63.34224" lon="19.15774">
        <ele>35.159337</ele>
        <time>2020-10-02T11:09:48.803Z</time>
      </trkpt>
      <trkpt lat="63.34217" lon="19.15793">
        <ele>35.232974</ele>
        <time>2020-10-02T11:09:50.787Z</time>
      </trkpt>
      <trkpt lat="63.3421" lon="19.15812">
        <ele>35.308227</ele>
        <time>2020-10-02T11:09:52.795Z</time>
      </trkpt>
      <trkpt lat="63.34203" lon="19.15833">
        <ele>35.383269</ele>
        <time>2020-10-02T11:09:54.815Z</time>
      </trkpt>
      <trkpt lat="63.34196" lon="19.15852">
        <ele>35.458339</ele>
        <time>2020-10-02T11:09:56.836Z</time>
      </trkpt>
      <trkpt lat="63.34189" lon="19.15871">
        <ele>35.533275</ele>
        <time>2020-10-02T11:09:58.808Z</time>
      </trkpt>
      <trkpt lat="63.3418" lon="19.15892">
        <ele>35.617992</ele>
        <time>2020-10-02T11:10:00.814Z</time>
      </trkpt>
      <trkpt lat="63.34171" lon="19.15913">
        <ele>35.706351</ele>
        <time>2020-10-02T11:10:02.804Z</time>
      </trkpt>
      <trkpt lat="63.34162" lon="19.15935">
        <ele>35.439085</ele>
        <time>2020-10-02T11:10:04.832Z</time>
      </trkpt>
      <trkpt lat="63.34153" lon="19.15958">
        <ele>35.116044</ele>
        <time>2020-10-02T11:10:06.812Z</time>
      </trkpt>
      <trkpt lat="63.34145" lon="19.15979">
        <ele>34.806654</ele>
        <time>2020-10-02T11:10:08.818Z</time>
      </trkpt>
      <trkpt lat="63.34137" lon="19.16001">
        <ele>34.506922</ele>
        <time>2020-10-02T11:10:10.831Z</time>
      </trkpt>
      <trkpt lat="63.34129" lon="19.16021">
        <ele>34.2216</ele>
        <time>2020-10-02T11:10:12.792Z</time>
      </trkpt>
      <trkpt lat="63.34122" lon="19.1604">
        <ele>33.948427</ele>
        <time>2020-10-02T11:10:14.816Z</time>
      </trkpt>
      <trkpt lat="63.34115" lon="19.1606">
        <ele>33.675766</ele>
        <time>2020-10-02T11:10:16.820Z</time>
      </trkpt>
      <trkpt lat="63.34108" lon="19.16079">
        <ele>33.407798</ele>
        <time>2020-10-02T11:10:18.836Z</time>
      </trkpt>
      <trkpt lat="63.34102" lon="19.16098">
        <ele>33.15347</ele>
        <time>2020-10-02T11:10:20.804Z</time>
      </trkpt>
      <trkpt lat="63.34096" lon="19.16116">
        <ele>32.912137</ele>
        <time>2020-10-02T11:10:22.808Z</time>
      </trkpt>
      <trkpt lat="63.34091" lon="19.16134">
        <ele>32.683355</ele>
        <time>2020-10-02T11:10:24.805Z</time>
      </trkpt>
      <trkpt lat="63.34084" lon="19.16159">
        <ele>32.362435</ele>
        <time>2020-10-02T11:10:27.791Z</time>
      </trkpt>
      <trkpt lat="63.34077" lon="19.16179">
        <ele>32.085901</ele>
        <time>2020-10-02T11:10:30.794Z</time>
      </trkpt>
      <trkpt lat="63.34065" lon="19.16183">
        <ele>31.786121</ele>
        <time>2020-10-02T11:10:33.800Z</time>
      </trkpt>
      <trkpt lat="63.34054" lon="19.16197">
        <ele>31.488254</ele>
        <time>2020-10-02T11:10:36.804Z</time>
      </trkpt>
      <trkpt lat="63.34052" lon="19.16218">
        <ele>31.228599</ele>
        <time>2020-10-02T11:10:39.803Z</time>
      </trkpt>
      <trkpt lat="63.34052" lon="19.16239">
        <ele>30.944417</ele>
        <time>2020-10-02T11:10:43.792Z</time>
      </trkpt>
      <trkpt lat="63.34049" lon="19.16261">
        <ele>30.637295</ele>
        <time>2020-10-02T11:10:47.807Z</time>
      </trkpt>
      <trkpt lat="63.33987" lon="19.16245">
        <ele>28.776003</ele>
        <time>2020-10-02T11:23:39.181Z</time>
      </trkpt>
      <trkpt lat="63.3407" lon="19.16275">
        <ele>26.269309</ele>
        <time>2020-10-02T11:34:57.210Z</time>
      </trkpt>
      <trkpt lat="63.34026" lon="19.16256">
        <ele>26.46748</ele>
        <time>2020-10-02T11:39:48.771Z</time>
      </trkpt>
      <trkpt lat="63.3404" lon="19.16252">
        <ele>26.647408</ele>
        <time>2020-10-02T11:43:27.779Z</time>
      </trkpt>
      <trkpt lat="63.34047" lon="19.16235">
        <ele>26.79318</ele>
        <time>2020-10-02T11:46:32.796Z</time>
      </trkpt>
      <trkpt lat="63.3405" lon="19.16214">
        <ele>26.926183</ele>
        <time>2020-10-02T11:46:36.796Z</time>
      </trkpt>
      <trkpt lat="63.34051" lon="19.16192">
        <ele>27.059839</ele>
        <time>2020-10-02T11:46:39.787Z</time>
      </trkpt>
      <trkpt lat="63.34046" lon="19.16171">
        <ele>27.207888</ele>
        <time>2020-10-02T11:46:42.764Z</time>
      </trkpt>
      <trkpt lat="63.34034" lon="19.16172">
        <ele>27.362634</ele>
        <time>2020-10-02T11:46:45.776Z</time>
      </trkpt>
      <trkpt lat="63.34022" lon="19.16178">
        <ele>27.538523</ele>
        <time>2020-10-02T11:46:48.768Z</time>
      </trkpt>
      <trkpt lat="63.34009" lon="19.16179">
        <ele>27.70963</ele>
        <time>2020-10-02T11:46:51.815Z</time>
      </trkpt>
      <trkpt lat="63.33996" lon="19.1618">
        <ele>27.88212</ele>
        <time>2020-10-02T11:46:54.802Z</time>
      </trkpt>
      <trkpt lat="63.33983" lon="19.16185">
        <ele>28.06522</ele>
        <time>2020-10-02T11:46:57.793Z</time>
      </trkpt>
      <trkpt lat="63.33975" lon="19.16199">
        <ele>28.201365</ele>
        <time>2020-10-02T11:46:59.768Z</time>
      </trkpt>
      <trkpt lat="63.33974" lon="19.16219">
        <ele>28.326294</ele>
        <time>2020-10-02T11:47:01.783Z</time>
      </trkpt>
      <trkpt lat="63.33975" lon="19.16247">
        <ele>28.542679</ele>
        <time>2020-10-02T11:47:04.761Z</time>
      </trkpt>
      <trkpt lat="63.33975" lon="19.1627">
        <ele>28.803916</ele>
        <time>2020-10-02T11:47:07.772Z</time>
      </trkpt>
      <trkpt lat="63.33974" lon="19.16292">
        <ele>29.046707</ele>
        <time>2020-10-02T11:47:10.805Z</time>
      </trkpt>
      <trkpt lat="63.33974" lon="19.16313">
        <ele>29.280867</ele>
        <time>2020-10-02T11:47:13.803Z</time>
      </trkpt>
      <trkpt lat="63.33973" lon="19.16339">
        <ele>29.568572</ele>
        <time>2020-10-02T11:47:17.785Z</time>
      </trkpt>
      <trkpt lat="63.33972" lon="19.16361">
        <ele>29.813473</ele>
        <time>2020-10-02T11:47:20.777Z</time>
      </trkpt>
      <trkpt lat="63.3397" lon="19.16382">
        <ele>30.048902</ele>
        <time>2020-10-02T11:47:23.775Z</time>
      </trkpt>
      <trkpt lat="63.33962" lon="19.16399">
        <ele>30.329517</ele>
        <time>2020-10-02T11:47:27.785Z</time>
      </trkpt>
      <trkpt lat="63.33953" lon="19.16406">
        <ele>30.561226</ele>
        <time>2020-10-02T11:47:30.760Z</time>
      </trkpt>
      <trkpt lat="63.33943" lon="19.16412">
        <ele>30.817248</ele>
        <time>2020-10-02T11:47:33.797Z</time>
      </trkpt>
      <trkpt lat="63.33933" lon="19.16421">
        <ele>31.089498</ele>
        <time>2020-10-02T11:47:36.778Z</time>
      </trkpt>
      <trkpt lat="63.33922" lon="19.16423">
        <ele>31.341789</ele>
        <time>2020-10-02T11:47:39.768Z</time>
      </trkpt>
      <trkpt lat="63.33917" lon="19.16398">
        <ele>31.656377</ele>
        <time>2020-10-02T11:47:42.765Z</time>
      </trkpt>
      <trkpt lat="63.33914" lon="19.16378">
        <ele>31.881669</ele>
        <time>2020-10-02T11:47:44.777Z</time>
      </trkpt>
      <trkpt lat="63.33912" lon="19.16357">
        <ele>32.122497</ele>
        <time>2020-10-02T11:47:46.813Z</time>
      </trkpt>
      <trkpt lat="63.33909" lon="19.16334">
        <ele>32.387229</ele>
        <time>2020-10-02T11:47:48.774Z</time>
      </trkpt>
      <trkpt lat="63.33906" lon="19.16311">
        <ele>32.646072</ele>
        <time>2020-10-02T11:47:50.781Z</time>
      </trkpt>
      <trkpt lat="63.33903" lon="19.16289">
        <ele>32.895034</ele>
        <time>2020-10-02T11:47:52.767Z</time>
      </trkpt>
      <trkpt lat="63.339" lon="19.16267">
        <ele>33.081493</ele>
        <time>2020-10-02T11:47:54.797Z</time>
      </trkpt>
      <trkpt lat="63.33897" lon="19.16246">
        <ele>33.253221</ele>
        <time>2020-10-02T11:47:56.796Z</time>
      </trkpt>
      <trkpt lat="63.33894" lon="19.16227">
        <ele>33.421224</ele>
        <time>2020-10-02T11:47:58.794Z</time>
      </trkpt>
      <trkpt lat="63.33891" lon="19.16207">
        <ele>33.583796</ele>
        <time>2020-10-02T11:48:00.785Z</time>
      </trkpt>
      <trkpt lat="63.33889" lon="19.16186">
        <ele>33.750157</ele>
        <time>2020-10-02T11:48:02.761Z</time>
      </trkpt>
      <trkpt lat="63.33887" lon="19.16165">
        <ele>33.925005</ele>
        <time>2020-10-02T11:48:04.781Z</time>
      </trkpt>
      <trkpt lat="63.33883" lon="19.16144">
        <ele>34.10822</ele>
        <time>2020-10-02T11:48:06.804Z</time>
      </trkpt>
      <trkpt lat="63.33878" lon="19.16123">
        <ele>34.296148</ele>
        <time>2020-10-02T11:48:08.825Z</time>
      </trkpt>
      <trkpt lat="63.33873" lon="19.16103">
        <ele>34.481203</ele>
        <time>2020-10-02T11:48:10.775Z</time>
      </trkpt>
      <trkpt lat="63.33866" lon="19.16084">
        <ele>34.677004</ele>
        <time>2020-10-02T11:48:12.805Z</time>
      </trkpt>
      <trkpt lat="63.33858" lon="19.16066">
        <ele>34.87583</ele>
        <time>2020-10-02T11:48:14.769Z</time>
      </trkpt>
      <trkpt lat="63.33849" lon="19.1605">
        <ele>35.084802</ele>
        <time>2020-10-02T11:48:16.767Z</time>
      </trkpt>
      <trkpt lat="63.3384" lon="19.16038">
        <ele>35.274116</ele>
        <time>2020-10-02T11:48:18.769Z</time>
      </trkpt>
      <trkpt lat="63.33831" lon="19.16031">
        <ele>35.434141</ele>
        <time>2020-10-02T11:48:20.768Z</time>
      </trkpt>
      <trkpt lat="63.33819" lon="19.16023">
        <ele>35.65342</ele>
        <time>2020-10-02T11:48:23.775Z</time>
      </trkpt>
      <trkpt lat="63.33809" lon="19.1602">
        <ele>35.831208</ele>
        <time>2020-10-02T11:48:26.778Z</time>
      </trkpt>
      <trkpt lat="63.338" lon="19.16017">
        <ele>36.006673</ele>
        <time>2020-10-02T11:48:30.792Z</time>
      </trkpt>
      <trkpt lat="63.3379" lon="19.16015">
        <ele>36.282092</ele>
        <time>2020-10-02T11:48:34.765Z</time>
      </trkpt>
      <trkpt lat="63.3378" lon="19.16016">
        <ele>36.638716</ele>
        <time>2020-10-02T11:48:38.759Z</time>
      </trkpt>
      <trkpt lat="63.33769" lon="19.16015">
        <ele>37.023102</ele>
        <time>2020-10-02T11:48:42.767Z</time>
      </trkpt>
      <trkpt lat="63.33757" lon="19.16015">
        <ele>37.431612</ele>
        <time>2020-10-02T11:48:46.774Z</time>
      </trkpt>
      <trkpt lat="63.33746" lon="19.16014">
        <ele>37.816646</ele>
        <time>2020-10-02T11:48:50.773Z</time>
      </trkpt>
      <trkpt lat="63.33736" lon="19.16014">
        <ele>38.169728</ele>
        <time>2020-10-02T11:48:54.816Z</time>
      </trkpt>
      <trkpt lat="63.33727" lon="19.16014">
        <ele>38.484744</ele>
        <time>2020-10-02T11:48:58.814Z</time>
      </trkpt>
      <trkpt lat="63.33716" lon="19.16014">
        <ele>38.837907</ele>
        <time>2020-10-02T11:49:02.785Z</time>
      </trkpt>
      <trkpt lat="63.33706" lon="19.16015">
        <ele>39.187648</ele>
        <time>2020-10-02T11:49:05.777Z</time>
      </trkpt>
      <trkpt lat="63.33696" lon="19.16013">
        <ele>39.531609</ele>
        <time>2020-10-02T11:49:08.796Z</time>
      </trkpt>
      <trkpt lat="63.33687" lon="19.16011">
        <ele>39.847849</ele>
        <time>2020-10-02T11:49:10.782Z</time>
      </trkpt>
      <trkpt lat="63.33678" lon="19.16009">
        <ele>40.181755</ele>
        <time>2020-10-02T11:49:12.797Z</time>
      </trkpt>
      <trkpt lat="63.33668" lon="19.16006">
        <ele>40.528734</ele>
        <time>2020-10-02T11:49:14.789Z</time>
      </trkpt>
      <trkpt lat="63.33658" lon="19.16002">
        <ele>40.862302</ele>
        <time>2020-10-02T11:49:16.774Z</time>
      </trkpt>
      <trkpt lat="63.33649" lon="19.15997">
        <ele>41.18828</ele>
        <time>2020-10-02T11:49:18.776Z</time>
      </trkpt>
      <trkpt lat="63.33637" lon="19.15989">
        <ele>41.620116</ele>
        <time>2020-10-02T11:49:21.778Z</time>
      </trkpt>
      <trkpt lat="63.33625" lon="19.15983">
        <ele>42.037739</ele>
        <time>2020-10-02T11:49:24.777Z</time>
      </trkpt>
      <trkpt lat="63.33614" lon="19.15975">
        <ele>42.250445</ele>
        <time>2020-10-02T11:49:27.766Z</time>
      </trkpt>
      <trkpt lat="63.33608" lon="19.15958">
        <ele>42.15863</ele>
        <time>2020-10-02T11:49:30.770Z</time>
      </trkpt>
      <trkpt lat="63.33605" lon="19.15937">
        <ele>42.067393</ele>
        <time>2020-10-02T11:49:36.788Z</time>
      </trkpt>
      <trkpt lat="63.33603" lon="19.15916">
        <ele>41.976148</ele>
        <time>2020-10-02T11:49:43.761Z</time>
      </trkpt>
      <trkpt lat="63.33606" lon="19.15895">
        <ele>41.887015</ele>
        <time>2020-10-02T11:49:50.762Z</time>
      </trkpt>
      <trkpt lat="63.33609" lon="19.15873">
        <ele>41.789544</ele>
        <time>2020-10-02T11:49:57.798Z</time>
      </trkpt>
      <trkpt lat="63.33612" lon="19.15854">
        <ele>41.706437</ele>
        <time>2020-10-02T11:50:03.776Z</time>
      </trkpt>
      <trkpt lat="63.33616" lon="19.15833">
        <ele>41.613194</ele>
        <time>2020-10-02T11:50:11.773Z</time>
      </trkpt>
      <trkpt lat="63.33619" lon="19.15812">
        <ele>41.520077</ele>
        <time>2020-10-02T11:50:17.767Z</time>
      </trkpt>
      <trkpt lat="63.3362" lon="19.15788">
        <ele>41.42267</ele>
        <time>2020-10-02T11:50:23.776Z</time>
      </trkpt>
      <trkpt lat="63.33619" lon="19.15767">
        <ele>41.332574</ele>
        <time>2020-10-02T11:50:28.828Z</time>
      </trkpt>
      <trkpt lat="63.33615" lon="19.15744">
        <ele>41.231169</ele>
        <time>2020-10-02T11:50:33.788Z</time>
      </trkpt>
      <trkpt lat="63.33613" lon="19.15724">
        <ele>41.144614</ele>
        <time>2020-10-02T11:50:38.781Z</time>
      </trkpt>
      <trkpt lat="63.33604" lon="19.15711">
        <ele>41.047025</ele>
        <time>2020-10-02T11:50:42.787Z</time>
      </trkpt>
      <trkpt lat="63.33593" lon="19.15708">
        <ele>40.942571</ele>
        <time>2020-10-02T11:50:45.791Z</time>
      </trkpt>
      <trkpt lat="63.33583" lon="19.15705">
        <ele>40.852964</ele>
        <time>2020-10-02T11:50:47.780Z</time>
      </trkpt>
      <trkpt lat="63.33572" lon="19.15703">
        <ele>40.753301</ele>
        <time>2020-10-02T11:50:49.778Z</time>
      </trkpt>
      <trkpt lat="63.33561" lon="19.15699">
        <ele>40.644203</ele>
        <time>2020-10-02T11:50:51.808Z</time>
      </trkpt>
      <trkpt lat="63.33547" lon="19.15696">
        <ele>40.522749</ele>
        <time>2020-10-02T11:50:53.769Z</time>
      </trkpt>
      <trkpt lat="63.33533" lon="19.15692">
        <ele>40.39515</ele>
        <time>2020-10-02T11:50:55.804Z</time>
      </trkpt>
      <trkpt lat="63.33518" lon="19.15688">
        <ele>40.259152</ele>
        <time>2020-10-02T11:50:57.802Z</time>
      </trkpt>
      <trkpt lat="63.33503" lon="19.15683">
        <ele>40.125518</ele>
        <time>2020-10-02T11:50:59.762Z</time>
      </trkpt>
      <trkpt lat="63.33488" lon="19.15679">
        <ele>39.994902</ele>
        <time>2020-10-02T11:51:01.801Z</time>
      </trkpt>
      <trkpt lat="63.33475" lon="19.15674">
        <ele>39.879864</ele>
        <time>2020-10-02T11:51:03.788Z</time>
      </trkpt>
      <trkpt lat="63.33463" lon="19.1567">
        <ele>39.772836</ele>
        <time>2020-10-02T11:51:05.768Z</time>
      </trkpt>
      <trkpt lat="63.33453" lon="19.15667">
        <ele>39.676453</ele>
        <time>2020-10-02T11:51:07.784Z</time>
      </trkpt>
      <trkpt lat="63.33443" lon="19.15665">
        <ele>39.593339</ele>
        <time>2020-10-02T11:51:09.785Z</time>
      </trkpt>
      <trkpt lat="63.33434" lon="19.15664">
        <ele>39.511702</ele>
        <time>2020-10-02T11:51:11.763Z</time>
      </trkpt>
      <trkpt lat="63.33421" lon="19.15662">
        <ele>39.396995</ele>
        <time>2020-10-02T11:51:14.798Z</time>
      </trkpt>
      <trkpt lat="63.33409" lon="19.15659">
        <ele>39.290546</ele>
        <time>2020-10-02T11:51:17.780Z</time>
      </trkpt>
      <trkpt lat="63.33398" lon="19.15655">
        <ele>39.190026</ele>
        <time>2020-10-02T11:51:20.795Z</time>
      </trkpt>
      <trkpt lat="63.33387" lon="19.15652">
        <ele>39.086054</ele>
        <time>2020-10-02T11:51:23.777Z</time>
      </trkpt>
      <trkpt lat="63.33375" lon="19.1565">
        <ele>39.016695</ele>
        <time>2020-10-02T11:51:26.785Z</time>
      </trkpt>
      <trkpt lat="63.33365" lon="19.15649">
        <ele>38.993974</ele>
        <time>2020-10-02T11:51:29.835Z</time>
      </trkpt>
      <trkpt lat="63.33373" lon="19.1566">
        <ele>38.972394</ele>
        <time>2020-10-02T11:51:38.787Z</time>
      </trkpt>
      <trkpt lat="63.33384" lon="19.15665">
        <ele>38.94487</ele>
        <time>2020-10-02T11:51:42.765Z</time>
      </trkpt>
      <trkpt lat="63.33395" lon="19.1567">
        <ele>38.92008</ele>
        <time>2020-10-02T11:51:45.778Z</time>
      </trkpt>
      <trkpt lat="63.33406" lon="19.15673">
        <ele>38.89374</ele>
        <time>2020-10-02T11:51:48.782Z</time>
      </trkpt>
      <trkpt lat="63.33419" lon="19.15674">
        <ele>38.863772</ele>
        <time>2020-10-02T11:51:51.816Z</time>
      </trkpt>
      <trkpt lat="63.33432" lon="19.15679">
        <ele>38.832577</ele>
        <time>2020-10-02T11:51:54.767Z</time>
      </trkpt>
      <trkpt lat="63.33441" lon="19.15683">
        <ele>38.809781</ele>
        <time>2020-10-02T11:51:56.787Z</time>
      </trkpt>
      <trkpt lat="63.33451" lon="19.15686">
        <ele>38.786469</ele>
        <time>2020-10-02T11:51:58.786Z</time>
      </trkpt>
      <trkpt lat="63.33462" lon="19.15689">
        <ele>38.761494</ele>
        <time>2020-10-02T11:52:00.768Z</time>
      </trkpt>
      <trkpt lat="63.33472" lon="19.15693">
        <ele>38.736573</ele>
        <time>2020-10-02T11:52:02.764Z</time>
      </trkpt>
      <trkpt lat="63.33483" lon="19.15696">
        <ele>38.712047</ele>
        <time>2020-10-02T11:52:04.775Z</time>
      </trkpt>
      <trkpt lat="63.33494" lon="19.15699">
        <ele>38.686671</ele>
        <time>2020-10-02T11:52:06.765Z</time>
      </trkpt>
      <trkpt lat="63.33504" lon="19.15702">
        <ele>38.661928</ele>
        <time>2020-10-02T11:52:08.773Z</time>
      </trkpt>
      <trkpt lat="63.33514" lon="19.15704">
        <ele>38.639361</ele>
        <time>2020-10-02T11:52:10.761Z</time>
      </trkpt>
      <trkpt lat="63.33526" lon="19.15707">
        <ele>38.611396</ele>
        <time>2020-10-02T11:52:13.782Z</time>
      </trkpt>
      <trkpt lat="63.33536" lon="19.15709">
        <ele>39.131983</ele>
        <time>2020-10-02T11:52:16.768Z</time>
      </trkpt>
      <trkpt lat="63.33545" lon="19.15713">
        <ele>39.658835</ele>
        <time>2020-10-02T11:52:19.764Z</time>
      </trkpt>
      <trkpt lat="63.33555" lon="19.15713">
        <ele>40.229096</ele>
        <time>2020-10-02T11:52:23.763Z</time>
      </trkpt>
      <trkpt lat="63.33565" lon="19.15714">
        <ele>40.777892</ele>
        <time>2020-10-02T11:52:27.756Z</time>
      </trkpt>
      <trkpt lat="63.33576" lon="19.15717">
        <ele>41.369169</ele>
        <time>2020-10-02T11:52:31.762Z</time>
      </trkpt>
      <trkpt lat="63.33587" lon="19.1572">
        <ele>41.989501</ele>
        <time>2020-10-02T11:52:35.764Z</time>
      </trkpt>
      <trkpt lat="63.33597" lon="19.15723">
        <ele>42.558804</ele>
        <time>2020-10-02T11:52:39.760Z</time>
      </trkpt>
      <trkpt lat="63.33607" lon="19.15728">
        <ele>43.096252</ele>
        <time>2020-10-02T11:52:43.777Z</time>
      </trkpt>
      <trkpt lat="63.33612" lon="19.15745">
        <ele>43.608264</ele>
        <time>2020-10-02T11:52:47.761Z</time>
      </trkpt>
      <trkpt lat="63.33605" lon="19.15758">
        <ele>44.124088</ele>
        <time>2020-10-02T11:52:51.780Z</time>
      </trkpt>
      <trkpt lat="63.33594" lon="19.15756">
        <ele>44.706615</ele>
        <time>2020-10-02T11:52:55.782Z</time>
      </trkpt>
      <trkpt lat="63.33585" lon="19.15756">
        <ele>45.216072</ele>
        <time>2020-10-02T11:52:59.783Z</time>
      </trkpt>
      <trkpt lat="63.33576" lon="19.15754">
        <ele>45.72146</ele>
        <time>2020-10-02T11:53:03.782Z</time>
      </trkpt>
      <trkpt lat="63.33566" lon="19.15748">
        <ele>46.308823</ele>
        <time>2020-10-02T11:53:08.768Z</time>
      </trkpt>
      <trkpt lat="63.33561" lon="19.15727">
        <ele>46.896643</ele>
        <time>2020-10-02T11:53:13.773Z</time>
      </trkpt>
      <trkpt lat="63.3356" lon="19.15707">
        <ele>47.398804</ele>
        <time>2020-10-02T11:53:18.802Z</time>
      </trkpt>
      <trkpt lat="63.3356" lon="19.15683">
        <ele>47.995131</ele>
        <time>2020-10-02T11:53:23.761Z</time>
      </trkpt>
      <trkpt lat="63.33559" lon="19.1566">
        <ele>48.569592</ele>
        <time>2020-10-02T11:53:27.777Z</time>
      </trkpt>
      <trkpt lat="63.33552" lon="19.15645">
        <ele>48.87423</ele>
        <time>2020-10-02T11:53:31.763Z</time>
      </trkpt>
      <trkpt lat="63.33544" lon="19.1563">
        <ele>49.214062</ele>
        <time>2020-10-02T11:53:37.767Z</time>
      </trkpt>
      <trkpt lat="63.33537" lon="19.15615">
        <ele>49.506863</ele>
        <time>2020-10-02T11:53:42.764Z</time>
      </trkpt>
      <trkpt lat="63.33531" lon="19.15596">
        <ele>49.842017</ele>
        <time>2020-10-02T11:53:48.796Z</time>
      </trkpt>
      <trkpt lat="63.33527" lon="19.15575">
        <ele>50.168069</ele>
        <time>2020-10-02T11:53:54.822Z</time>
      </trkpt>
      <trkpt lat="63.33523" lon="19.15557">
        <ele>50.461673</ele>
        <time>2020-10-02T11:53:59.760Z</time>
      </trkpt>
      <trkpt lat="63.33518" lon="19.15537">
        <ele>50.792128</ele>
        <time>2020-10-02T11:54:04.759Z</time>
      </trkpt>
      <trkpt lat="63.33516" lon="19.15515">
        <ele>51.110763</ele>
        <time>2020-10-02T11:54:09.764Z</time>
      </trkpt>
      <trkpt lat="63.33515" lon="19.15494">
        <ele>51.416944</ele>
        <time>2020-10-02T11:54:14.762Z</time>
      </trkpt>
      <trkpt lat="63.33514" lon="19.15472">
        <ele>51.744828</ele>
        <time>2020-10-02T11:54:19.777Z</time>
      </trkpt>
      <trkpt lat="63.33512" lon="19.15451">
        <ele>52.040898</ele>
        <time>2020-10-02T11:54:23.764Z</time>
      </trkpt>
      <trkpt lat="63.33512" lon="19.15427">
        <ele>52.386885</ele>
        <time>2020-10-02T11:54:27.798Z</time>
      </trkpt>
      <trkpt lat="63.33513" lon="19.15402">
        <ele>52.746335</ele>
        <time>2020-10-02T11:54:31.760Z</time>
      </trkpt>
      <trkpt lat="63.33514" lon="19.15377">
        <ele>53.106658</ele>
        <time>2020-10-02T11:54:35.768Z</time>
      </trkpt>
      <trkpt lat="63.33515" lon="19.15355">
        <ele>53.427452</ele>
        <time>2020-10-02T11:54:38.764Z</time>
      </trkpt>
      <trkpt lat="63.33516" lon="19.15331">
        <ele>53.776598</ele>
        <time>2020-10-02T11:54:41.777Z</time>
      </trkpt>
      <trkpt lat="63.33515" lon="19.15307">
        <ele>54.110932</ele>
        <time>2020-10-02T11:54:44.779Z</time>
      </trkpt>
      <trkpt lat="63.33515" lon="19.15283">
        <ele>54.199071</ele>
        <time>2020-10-02T11:54:47.776Z</time>
      </trkpt>
      <trkpt lat="63.33515" lon="19.15256">
        <ele>53.887367</ele>
        <time>2020-10-02T11:54:50.804Z</time>
      </trkpt>
      <trkpt lat="63.33515" lon="19.15228">
        <ele>53.569902</ele>
        <time>2020-10-02T11:54:53.781Z</time>
      </trkpt>
      <trkpt lat="63.33515" lon="19.15208">
        <ele>53.337561</ele>
        <time>2020-10-02T11:54:55.794Z</time>
      </trkpt>
      <trkpt lat="63.33516" lon="19.15185">
        <ele>53.074066</ele>
        <time>2020-10-02T11:54:57.768Z</time>
      </trkpt>
      <trkpt lat="63.33518" lon="19.15158">
        <ele>52.757829</ele>
        <time>2020-10-02T11:54:59.770Z</time>
      </trkpt>
      <trkpt lat="63.3352" lon="19.15129">
        <ele>52.428311</ele>
        <time>2020-10-02T11:55:01.777Z</time>
      </trkpt>
      <trkpt lat="63.33521" lon="19.15099">
        <ele>52.080247</ele>
        <time>2020-10-02T11:55:03.793Z</time>
      </trkpt>
      <trkpt lat="63.33522" lon="19.15068">
        <ele>51.723355</ele>
        <time>2020-10-02T11:55:05.792Z</time>
      </trkpt>
      <trkpt lat="63.33523" lon="19.15036">
        <ele>51.348967</ele>
        <time>2020-10-02T11:55:07.776Z</time>
      </trkpt>
      <trkpt lat="63.33524" lon="19.15003">
        <ele>50.974442</ele>
        <time>2020-10-02T11:55:09.771Z</time>
      </trkpt>
      <trkpt lat="63.33525" lon="19.1497">
        <ele>50.591718</ele>
        <time>2020-10-02T11:55:11.800Z</time>
      </trkpt>
      <trkpt lat="63.33525" lon="19.14938">
        <ele>50.218975</ele>
        <time>2020-10-02T11:55:13.777Z</time>
      </trkpt>
      <trkpt lat="63.33525" lon="19.14906">
        <ele>49.852027</ele>
        <time>2020-10-02T11:55:15.778Z</time>
      </trkpt>
      <trkpt lat="63.33524" lon="19.14874">
        <ele>49.486979</ele>
        <time>2020-10-02T11:55:17.771Z</time>
      </trkpt>
      <trkpt lat="63.3352" lon="19.14843">
        <ele>49.134062</ele>
        <time>2020-10-02T11:55:19.765Z</time>
      </trkpt>
      <trkpt lat="63.33517" lon="19.14812">
        <ele>48.786582</ele>
        <time>2020-10-02T11:55:21.764Z</time>
      </trkpt>
      <trkpt lat="63.33514" lon="19.14783">
        <ele>48.453715</ele>
        <time>2020-10-02T11:55:23.774Z</time>
      </trkpt>
      <trkpt lat="63.33512" lon="19.14757">
        <ele>48.148098</ele>
        <time>2020-10-02T11:55:25.796Z</time>
      </trkpt>
      <trkpt lat="63.33509" lon="19.14732">
        <ele>47.861488</ele>
        <time>2020-10-02T11:55:27.784Z</time>
      </trkpt>
      <trkpt lat="63.33505" lon="19.14707">
        <ele>47.571716</ele>
        <time>2020-10-02T11:55:29.762Z</time>
      </trkpt>
      <trkpt lat="63.33502" lon="19.14682">
        <ele>47.288217</ele>
        <time>2020-10-02T11:55:31.776Z</time>
      </trkpt>
      <trkpt lat="63.335" lon="19.14657">
        <ele>47.000522</ele>
        <time>2020-10-02T11:55:33.791Z</time>
      </trkpt>
      <trkpt lat="63.33496" lon="19.14632">
        <ele>46.708934</ele>
        <time>2020-10-02T11:55:35.767Z</time>
      </trkpt>
      <trkpt lat="63.33492" lon="19.14607">
        <ele>46.406629</ele>
        <time>2020-10-02T11:55:37.779Z</time>
      </trkpt>
      <trkpt lat="63.33486" lon="19.14582">
        <ele>46.094552</ele>
        <time>2020-10-02T11:55:39.760Z</time>
      </trkpt>
      <trkpt lat="63.33479" lon="19.14559">
        <ele>45.785292</ele>
        <time>2020-10-02T11:55:41.780Z</time>
      </trkpt>
      <trkpt lat="63.33474" lon="19.14536">
        <ele>45.506167</ele>
        <time>2020-10-02T11:55:43.795Z</time>
      </trkpt>
      <trkpt lat="63.33469" lon="19.14515">
        <ele>45.237259</ele>
        <time>2020-10-02T11:55:45.770Z</time>
      </trkpt>
      <trkpt lat="63.33465" lon="19.14493">
        <ele>44.936057</ele>
        <time>2020-10-02T11:55:47.776Z</time>
      </trkpt>
      <trkpt lat="63.33459" lon="19.14472">
        <ele>44.626134</ele>
        <time>2020-10-02T11:55:49.792Z</time>
      </trkpt>
      <trkpt lat="63.33453" lon="19.1445">
        <ele>44.307644</ele>
        <time>2020-10-02T11:55:51.774Z</time>
      </trkpt>
      <trkpt lat="63.33447" lon="19.14429">
        <ele>44.000275</ele>
        <time>2020-10-02T11:55:53.792Z</time>
      </trkpt>
      <trkpt lat="63.33441" lon="19.14409">
        <ele>43.702049</ele>
        <time>2020-10-02T11:55:55.804Z</time>
      </trkpt>
      <trkpt lat="63.33435" lon="19.14388">
        <ele>43.396013</ele>
        <time>2020-10-02T11:55:57.765Z</time>
      </trkpt>
      <trkpt lat="63.3343" lon="19.14366">
        <ele>43.083596</ele>
        <time>2020-10-02T11:55:59.774Z</time>
      </trkpt>
      <trkpt lat="63.33423" lon="19.14345">
        <ele>42.762586</ele>
        <time>2020-10-02T11:56:01.804Z</time>
      </trkpt>
      <trkpt lat="63.33418" lon="19.14321">
        <ele>42.427908</ele>
        <time>2020-10-02T11:56:03.777Z</time>
      </trkpt>
      <trkpt lat="63.33413" lon="19.14296">
        <ele>42.099254</ele>
        <time>2020-10-02T11:56:05.777Z</time>
      </trkpt>
      <trkpt lat="63.3341" lon="19.14271">
        <ele>41.77094</ele>
        <time>2020-10-02T11:56:07.765Z</time>
      </trkpt>
      <trkpt lat="63.33408" lon="19.14245">
        <ele>41.444048</ele>
        <time>2020-10-02T11:56:09.764Z</time>
      </trkpt>
      <trkpt lat="63.33405" lon="19.14219">
        <ele>41.112117</ele>
        <time>2020-10-02T11:56:11.813Z</time>
      </trkpt>
      <trkpt lat="63.33402" lon="19.14193">
        <ele>40.771543</ele>
        <time>2020-10-02T11:56:13.764Z</time>
      </trkpt>
      <trkpt lat="63.33399" lon="19.14167">
        <ele>40.436116</ele>
        <time>2020-10-02T11:56:15.757Z</time>
      </trkpt>
      <trkpt lat="63.33396" lon="19.14141">
        <ele>40.082548</ele>
        <time>2020-10-02T11:56:17.804Z</time>
      </trkpt>
      <trkpt lat="63.33393" lon="19.14116">
        <ele>39.709693</ele>
        <time>2020-10-02T11:56:19.767Z</time>
      </trkpt>
      <trkpt lat="63.3339" lon="19.1409">
        <ele>39.330875</ele>
        <time>2020-10-02T11:56:21.802Z</time>
      </trkpt>
      <trkpt lat="63.33388" lon="19.14065">
        <ele>38.952417</ele>
        <time>2020-10-02T11:56:23.776Z</time>
      </trkpt>
      <trkpt lat="63.33385" lon="19.14039">
        <ele>38.570821</ele>
        <time>2020-10-02T11:56:25.787Z</time>
      </trkpt>
      <trkpt lat="63.33381" lon="19.14015">
        <ele>38.205869</ele>
        <time>2020-10-02T11:56:27.764Z</time>
      </trkpt>
      <trkpt lat="63.33379" lon="19.1399">
        <ele>37.846905</ele>
        <time>2020-10-02T11:56:29.780Z</time>
      </trkpt>
      <trkpt lat="63.33377" lon="19.13965">
        <ele>37.484833</ele>
        <time>2020-10-02T11:56:31.766Z</time>
      </trkpt>
      <trkpt lat="63.33375" lon="19.13941">
        <ele>37.119593</ele>
        <time>2020-10-02T11:56:33.768Z</time>
      </trkpt>
      <trkpt lat="63.33371" lon="19.13916">
        <ele>36.755136</ele>
        <time>2020-10-02T11:56:35.763Z</time>
      </trkpt>
      <trkpt lat="63.33368" lon="19.13889">
        <ele>36.347399</ele>
        <time>2020-10-02T11:56:37.786Z</time>
      </trkpt>
      <trkpt lat="63.33364" lon="19.13862">
        <ele>35.937828</ele>
        <time>2020-10-02T11:56:39.784Z</time>
      </trkpt>
      <trkpt lat="63.33359" lon="19.13832">
        <ele>35.484882</ele>
        <time>2020-10-02T11:56:41.770Z</time>
      </trkpt>
      <trkpt lat="63.33354" lon="19.13804">
        <ele>35.029273</ele>
        <time>2020-10-02T11:56:43.781Z</time>
      </trkpt>
      <trkpt lat="63.33347" lon="19.1378">
        <ele>34.630372</ele>
        <time>2020-10-02T11:56:45.764Z</time>
      </trkpt>
      <trkpt lat="63.33342" lon="19.13761">
        <ele>34.461344</ele>
        <time>2020-10-02T11:56:47.782Z</time>
      </trkpt>
      <trkpt lat="63.33337" lon="19.13742">
        <ele>34.426407</ele>
        <time>2020-10-02T11:56:49.767Z</time>
      </trkpt>
      <trkpt lat="63.33331" lon="19.13724">
        <ele>34.389535</ele>
        <time>2020-10-02T11:56:51.779Z</time>
      </trkpt>
      <trkpt lat="63.33324" lon="19.13706">
        <ele>34.352053</ele>
        <time>2020-10-02T11:56:53.775Z</time>
      </trkpt>
      <trkpt lat="63.33319" lon="19.13689">
        <ele>34.318298</ele>
        <time>2020-10-02T11:56:55.795Z</time>
      </trkpt>
      <trkpt lat="63.33316" lon="19.1367">
        <ele>34.284133</ele>
        <time>2020-10-02T11:56:59.756Z</time>
      </trkpt>
      <trkpt lat="63.33323" lon="19.13655">
        <ele>34.249446</ele>
        <time>2020-10-02T11:57:07.763Z</time>
      </trkpt>
      <trkpt lat="63.33331" lon="19.13645">
        <ele>34.214686</ele>
        <time>2020-10-02T11:57:11.799Z</time>
      </trkpt>
      <trkpt lat="63.3334" lon="19.13634">
        <ele>34.179529</ele>
        <time>2020-10-02T11:57:15.780Z</time>
      </trkpt>
      <trkpt lat="63.33348" lon="19.13621">
        <ele>34.141193</ele>
        <time>2020-10-02T11:57:20.776Z</time>
      </trkpt>
      <trkpt lat="63.33357" lon="19.13612">
        <ele>34.107068</ele>
        <time>2020-10-02T11:57:24.800Z</time>
      </trkpt>
      <trkpt lat="63.33366" lon="19.136">
        <ele>34.066911</ele>
        <time>2020-10-02T11:57:29.765Z</time>
      </trkpt>
      <trkpt lat="63.33376" lon="19.13588">
        <ele>34.028264</ele>
        <time>2020-10-02T11:57:34.777Z</time>
      </trkpt>
      <trkpt lat="63.33384" lon="19.13578">
        <ele>33.99334</ele>
        <time>2020-10-02T11:57:38.804Z</time>
      </trkpt>
      <trkpt lat="63.33392" lon="19.13567">
        <ele>33.95873</ele>
        <time>2020-10-02T11:57:42.786Z</time>
      </trkpt>
      <trkpt lat="63.33402" lon="19.13554">
        <ele>33.918329</ele>
        <time>2020-10-02T11:57:47.764Z</time>
      </trkpt>
      <trkpt lat="63.3341" lon="19.13545">
        <ele>33.884349</ele>
        <time>2020-10-02T11:57:51.777Z</time>
      </trkpt>
      <trkpt lat="63.3342" lon="19.13536">
        <ele>33.845223</ele>
        <time>2020-10-02T11:57:55.778Z</time>
      </trkpt>
      <trkpt lat="63.33431" lon="19.13529">
        <ele>33.818338</ele>
        <time>2020-10-02T11:57:59.787Z</time>
      </trkpt>
      <trkpt lat="63.33441" lon="19.1352">
        <ele>33.802187</ele>
        <time>2020-10-02T11:58:02.779Z</time>
      </trkpt>
      <trkpt lat="63.33452" lon="19.1351">
        <ele>33.783908</ele>
        <time>2020-10-02T11:58:05.799Z</time>
      </trkpt>
      <trkpt lat="63.3346" lon="19.13503">
        <ele>33.770198</ele>
        <time>2020-10-02T11:58:07.772Z</time>
      </trkpt>
      <trkpt lat="63.33469" lon="19.13497">
        <ele>33.755696</ele>
        <time>2020-10-02T11:58:09.777Z</time>
      </trkpt>
      <trkpt lat="63.3348" lon="19.1349">
        <ele>33.739385</ele>
        <time>2020-10-02T11:58:11.778Z</time>
      </trkpt>
      <trkpt lat="63.33491" lon="19.13481">
        <ele>33.720932</ele>
        <time>2020-10-02T11:58:13.805Z</time>
      </trkpt>
      <trkpt lat="63.33504" lon="19.13472">
        <ele>33.700872</ele>
        <time>2020-10-02T11:58:15.788Z</time>
      </trkpt>
      <trkpt lat="63.33517" lon="19.13464">
        <ele>33.680771</ele>
        <time>2020-10-02T11:58:17.796Z</time>
      </trkpt>
      <trkpt lat="63.33529" lon="19.13455">
        <ele>33.661762</ele>
        <time>2020-10-02T11:58:19.776Z</time>
      </trkpt>
      <trkpt lat="63.3354" lon="19.13447">
        <ele>33.643762</ele>
        <time>2020-10-02T11:58:21.784Z</time>
      </trkpt>
      <trkpt lat="63.33551" lon="19.1344">
        <ele>33.626966</ele>
        <time>2020-10-02T11:58:23.798Z</time>
      </trkpt>
      <trkpt lat="63.3356" lon="19.13433">
        <ele>33.611396</ele>
        <time>2020-10-02T11:58:25.768Z</time>
      </trkpt>
      <trkpt lat="63.33569" lon="19.13426">
        <ele>33.597403</ele>
        <time>2020-10-02T11:58:27.814Z</time>
      </trkpt>
      <trkpt lat="63.3358" lon="19.13418">
        <ele>33.579525</ele>
        <time>2020-10-02T11:58:30.781Z</time>
      </trkpt>
      <trkpt lat="63.33591" lon="19.13409">
        <ele>33.562265</ele>
        <time>2020-10-02T11:58:33.820Z</time>
      </trkpt>
      <trkpt lat="63.33602" lon="19.134">
        <ele>33.617468</ele>
        <time>2020-10-02T11:58:36.764Z</time>
      </trkpt>
      <trkpt lat="63.33612" lon="19.13393">
        <ele>33.710619</ele>
        <time>2020-10-02T11:58:39.791Z</time>
      </trkpt>
      <trkpt lat="63.33622" lon="19.13383">
        <ele>33.814886</ele>
        <time>2020-10-02T11:58:42.798Z</time>
      </trkpt>
      <trkpt lat="63.33633" lon="19.13373">
        <ele>33.914379</ele>
        <time>2020-10-02T11:58:45.787Z</time>
      </trkpt>
      <trkpt lat="63.33643" lon="19.13364">
        <ele>34.012133</ele>
        <time>2020-10-02T11:58:48.789Z</time>
      </trkpt>
      <trkpt lat="63.33653" lon="19.13353">
        <ele>34.113257</ele>
        <time>2020-10-02T11:58:51.765Z</time>
      </trkpt>
      <trkpt lat="63.33664" lon="19.1334">
        <ele>34.220954</ele>
        <time>2020-10-02T11:58:54.780Z</time>
      </trkpt>
      <trkpt lat="63.33676" lon="19.13328">
        <ele>34.337194</ele>
        <time>2020-10-02T11:58:57.778Z</time>
      </trkpt>
      <trkpt lat="63.33684" lon="19.13319">
        <ele>34.420795</ele>
        <time>2020-10-02T11:58:59.781Z</time>
      </trkpt>
      <trkpt lat="63.33694" lon="19.13308">
        <ele>34.518196</ele>
        <time>2020-10-02T11:59:01.801Z</time>
      </trkpt>
      <trkpt lat="63.33705" lon="19.13295">
        <ele>34.627622</ele>
        <time>2020-10-02T11:59:03.792Z</time>
      </trkpt>
      <trkpt lat="63.33716" lon="19.1328">
        <ele>34.74174</ele>
        <time>2020-10-02T11:59:05.797Z</time>
      </trkpt>
      <trkpt lat="63.33727" lon="19.13262">
        <ele>34.861844</ele>
        <time>2020-10-02T11:59:07.795Z</time>
      </trkpt>
      <trkpt lat="63.33739" lon="19.13244">
        <ele>34.995452</ele>
        <time>2020-10-02T11:59:09.781Z</time>
      </trkpt>
      <trkpt lat="63.33752" lon="19.13224">
        <ele>35.133326</ele>
        <time>2020-10-02T11:59:11.826Z</time>
      </trkpt>
      <trkpt lat="63.33764" lon="19.13201">
        <ele>34.91912</ele>
        <time>2020-10-02T11:59:13.820Z</time>
      </trkpt>
      <trkpt lat="63.33774" lon="19.13177">
        <ele>34.647212</ele>
        <time>2020-10-02T11:59:15.774Z</time>
      </trkpt>
      <trkpt lat="63.33783" lon="19.13153">
        <ele>34.392789</ele>
        <time>2020-10-02T11:59:17.764Z</time>
      </trkpt>
      <trkpt lat="63.33793" lon="19.13131">
        <ele>34.144845</ele>
        <time>2020-10-02T11:59:19.771Z</time>
      </trkpt>
      <trkpt lat="63.33801" lon="19.13111">
        <ele>33.920942</ele>
        <time>2020-10-02T11:59:21.769Z</time>
      </trkpt>
      <trkpt lat="63.3381" lon="19.13095">
        <ele>33.722553</ele>
        <time>2020-10-02T11:59:23.777Z</time>
      </trkpt>
      <trkpt lat="63.33817" lon="19.13083">
        <ele>33.551969</ele>
        <time>2020-10-02T11:59:25.783Z</time>
      </trkpt>
      <trkpt lat="63.33827" lon="19.13068">
        <ele>33.335373</ele>
        <time>2020-10-02T11:59:28.794Z</time>
      </trkpt>
      <trkpt lat="63.33837" lon="19.13056">
        <ele>33.14268</ele>
        <time>2020-10-02T11:59:31.771Z</time>
      </trkpt>
      <trkpt lat="63.33845" lon="19.13045">
        <ele>32.969212</ele>
        <time>2020-10-02T11:59:34.765Z</time>
      </trkpt>
      <trkpt lat="63.33853" lon="19.13034">
        <ele>32.793434</ele>
        <time>2020-10-02T11:59:37.780Z</time>
      </trkpt>
      <trkpt lat="63.33863" lon="19.13022">
        <ele>32.591274</ele>
        <time>2020-10-02T11:59:41.781Z</time>
      </trkpt>
      <trkpt lat="63.33872" lon="19.13011">
        <ele>32.404043</ele>
        <time>2020-10-02T11:59:45.807Z</time>
      </trkpt>
      <trkpt lat="63.33883" lon="19.13002">
        <ele>32.196989</ele>
        <time>2020-10-02T11:59:49.817Z</time>
      </trkpt>
      <trkpt lat="63.33894" lon="19.12995">
        <ele>31.994469</ele>
        <time>2020-10-02T11:59:53.778Z</time>
      </trkpt>
      <trkpt lat="63.33905" lon="19.12989">
        <ele>32.278254</ele>
        <time>2020-10-02T11:59:57.768Z</time>
      </trkpt>
      <trkpt lat="63.33913" lon="19.12984">
        <ele>32.791045</ele>
        <time>2020-10-02T12:00:00.794Z</time>
      </trkpt>
      <trkpt lat="63.33925" lon="19.1298">
        <ele>33.450986</ele>
        <time>2020-10-02T12:00:04.761Z</time>
      </trkpt>
      <trkpt lat="63.33934" lon="19.12976">
        <ele>33.952373</ele>
        <time>2020-10-02T12:00:07.772Z</time>
      </trkpt>
      <trkpt lat="63.33943" lon="19.12973">
        <ele>34.461391</ele>
        <time>2020-10-02T12:00:10.788Z</time>
      </trkpt>
      <trkpt lat="63.33952" lon="19.1297">
        <ele>34.98262</ele>
        <time>2020-10-02T12:00:13.776Z</time>
      </trkpt>
      <trkpt lat="63.33962" lon="19.12966">
        <ele>35.530744</ele>
        <time>2020-10-02T12:00:16.801Z</time>
      </trkpt>
      <trkpt lat="63.33972" lon="19.12964">
        <ele>36.081439</ele>
        <time>2020-10-02T12:00:19.766Z</time>
      </trkpt>
      <trkpt lat="63.33983" lon="19.12962">
        <ele>36.721942</ele>
        <time>2020-10-02T12:00:23.810Z</time>
      </trkpt>
      <trkpt lat="63.33994" lon="19.12958">
        <ele>37.350108</ele>
        <time>2020-10-02T12:00:27.767Z</time>
      </trkpt>
      <trkpt lat="63.34005" lon="19.12954">
        <ele>37.94867</ele>
        <time>2020-10-02T12:00:31.786Z</time>
      </trkpt>
      <trkpt lat="63.34015" lon="19.12949">
        <ele>38.545376</ele>
        <time>2020-10-02T12:00:35.792Z</time>
      </trkpt>
      <trkpt lat="63.34025" lon="19.12939">
        <ele>39.157433</ele>
        <time>2020-10-02T12:00:39.780Z</time>
      </trkpt>
      <trkpt lat="63.3403" lon="19.12921">
        <ele>39.681173</ele>
        <time>2020-10-02T12:00:43.802Z</time>
      </trkpt>
      <trkpt lat="63.34028" lon="19.12899">
        <ele>40.233114</ele>
        <time>2020-10-02T12:00:50.762Z</time>
      </trkpt>
      <trkpt lat="63.34028" lon="19.12878">
        <ele>40.764122</ele>
        <time>2020-10-02T12:00:57.785Z</time>
      </trkpt>
      <trkpt lat="63.34024" lon="19.12857">
        <ele>41.33439</ele>
        <time>2020-10-02T12:01:03.777Z</time>
      </trkpt>
      <trkpt lat="63.34015" lon="19.12846">
        <ele>41.908846</ele>
        <time>2020-10-02T12:01:09.774Z</time>
      </trkpt>
      <trkpt lat="63.34006" lon="19.12839">
        <ele>42.380912</ele>
        <time>2020-10-02T12:01:14.811Z</time>
      </trkpt>
      <trkpt lat="63.33997" lon="19.12832">
        <ele>42.843485</ele>
        <time>2020-10-02T12:01:19.814Z</time>
      </trkpt>
      <trkpt lat="63.33988" lon="19.12822">
        <ele>43.344047</ele>
        <time>2020-10-02T12:01:24.775Z</time>
      </trkpt>
      <trkpt lat="63.3398" lon="19.12813">
        <ele>43.797988</ele>
        <time>2020-10-02T12:01:29.796Z</time>
      </trkpt>
      <trkpt lat="63.33972" lon="19.12801">
        <ele>44.314898</ele>
        <time>2020-10-02T12:01:35.776Z</time>
      </trkpt>
      <trkpt lat="63.33965" lon="19.12784">
        <ele>44.820525</ele>
        <time>2020-10-02T12:01:40.781Z</time>
      </trkpt>
      <trkpt lat="63.33957" lon="19.12766">
        <ele>45.391942</ele>
        <time>2020-10-02T12:01:45.772Z</time>
      </trkpt>
      <trkpt lat="63.33951" lon="19.12751">
        <ele>45.856944</ele>
        <time>2020-10-02T12:01:48.805Z</time>
      </trkpt>
      <trkpt lat="63.33943" lon="19.12733">
        <ele>46.41594</ele>
        <time>2020-10-02T12:01:51.794Z</time>
      </trkpt>
      <trkpt lat="63.33935" lon="19.12712">
        <ele>47.03711</ele>
        <time>2020-10-02T12:01:54.780Z</time>
      </trkpt>
      <trkpt lat="63.33926" lon="19.12695">
        <ele>47.606044</ele>
        <time>2020-10-02T12:01:57.789Z</time>
      </trkpt>
      <trkpt lat="63.33917" lon="19.12681">
        <ele>48.170163</ele>
        <time>2020-10-02T12:02:00.782Z</time>
      </trkpt>
      <trkpt lat="63.33908" lon="19.1267">
        <ele>48.698185</ele>
        <time>2020-10-02T12:02:03.781Z</time>
      </trkpt>
      <trkpt lat="63.33898" lon="19.12661">
        <ele>49.240877</ele>
        <time>2020-10-02T12:02:06.768Z</time>
      </trkpt>
      <trkpt lat="63.33887" lon="19.12652">
        <ele>49.823906</ele>
        <time>2020-10-02T12:02:09.794Z</time>
      </trkpt>
      <trkpt lat="63.33877" lon="19.12645">
        <ele>50.374158</ele>
        <time>2020-10-02T12:02:12.766Z</time>
      </trkpt>
      <trkpt lat="63.33867" lon="19.12641">
        <ele>50.85743</ele>
        <time>2020-10-02T12:02:15.785Z</time>
      </trkpt>
      <trkpt lat="63.33858" lon="19.12632">
        <ele>50.694667</ele>
        <time>2020-10-02T12:02:19.800Z</time>
      </trkpt>
      <trkpt lat="63.33847" lon="19.12624">
        <ele>50.186449</ele>
        <time>2020-10-02T12:02:24.777Z</time>
      </trkpt>
      <trkpt lat="63.33837" lon="19.12617">
        <ele>49.669511</ele>
        <time>2020-10-02T12:02:28.785Z</time>
      </trkpt>
      <trkpt lat="63.33828" lon="19.12606">
        <ele>49.240263</ele>
        <time>2020-10-02T12:02:31.764Z</time>
      </trkpt>
      <trkpt lat="63.33819" lon="19.1259">
        <ele>48.694626</ele>
        <time>2020-10-02T12:02:34.767Z</time>
      </trkpt>
      <trkpt lat="63.3381" lon="19.12571">
        <ele>48.134199</ele>
        <time>2020-10-02T12:02:37.791Z</time>
      </trkpt>
      <trkpt lat="63.33806" lon="19.12551">
        <ele>47.672311</ele>
        <time>2020-10-02T12:02:40.764Z</time>
      </trkpt>
      <trkpt lat="63.33803" lon="19.1253">
        <ele>47.230122</ele>
        <time>2020-10-02T12:02:43.787Z</time>
      </trkpt>
      <trkpt lat="63.338" lon="19.12508">
        <ele>46.735928</ele>
        <time>2020-10-02T12:02:48.775Z</time>
      </trkpt>
      <trkpt lat="63.33796" lon="19.12488">
        <ele>46.291918</ele>
        <time>2020-10-02T12:02:52.769Z</time>
      </trkpt>
      <trkpt lat="63.33793" lon="19.12465">
        <ele>45.813529</ele>
        <time>2020-10-02T12:02:56.759Z</time>
      </trkpt>
      <trkpt lat="63.33792" lon="19.12445">
        <ele>45.395096</ele>
        <time>2020-10-02T12:02:59.805Z</time>
      </trkpt>
      <trkpt lat="63.33791" lon="19.12419">
        <ele>44.846301</ele>
        <time>2020-10-02T12:03:03.800Z</time>
      </trkpt>
      <trkpt lat="63.33789" lon="19.1239">
        <ele>44.255321</ele>
        <time>2020-10-02T12:03:06.787Z</time>
      </trkpt>
      <trkpt lat="63.33786" lon="19.12365">
        <ele>43.723545</ele>
        <time>2020-10-02T12:03:08.785Z</time>
      </trkpt>
      <trkpt lat="63.33783" lon="19.12336">
        <ele>43.10158</ele>
        <time>2020-10-02T12:03:10.791Z</time>
      </trkpt>
      <trkpt lat="63.3378" lon="19.12308">
        <ele>42.843883</ele>
        <time>2020-10-02T12:03:12.780Z</time>
      </trkpt>
      <trkpt lat="63.33777" lon="19.12284">
        <ele>43.03155</ele>
        <time>2020-10-02T12:03:14.825Z</time>
      </trkpt>
      <trkpt lat="63.33774" lon="19.12262">
        <ele>43.203402</ele>
        <time>2020-10-02T12:03:16.799Z</time>
      </trkpt>
      <trkpt lat="63.33771" lon="19.12239">
        <ele>43.381924</ele>
        <time>2020-10-02T12:03:19.795Z</time>
      </trkpt>
      <trkpt lat="63.33771" lon="19.12268">
        <ele>43.596931</ele>
        <time>2020-10-02T12:07:40.799Z</time>
      </trkpt>
      <trkpt lat="63.33774" lon="19.12294">
        <ele>43.79988</ele>
        <time>2020-10-02T12:07:45.780Z</time>
      </trkpt>
      <trkpt lat="63.33778" lon="19.12316">
        <ele>43.970453</ele>
        <time>2020-10-02T12:07:52.769Z</time>
      </trkpt>
      <trkpt lat="63.33781" lon="19.12336">
        <ele>44.127532</ele>
        <time>2020-10-02T12:07:58.763Z</time>
      </trkpt>
      <trkpt lat="63.33784" lon="19.12357">
        <ele>44.297002</ele>
        <time>2020-10-02T12:08:03.787Z</time>
      </trkpt>
      <trkpt lat="63.33786" lon="19.12378">
        <ele>44.454667</ele>
        <time>2020-10-02T12:08:08.769Z</time>
      </trkpt>
      <trkpt lat="63.33787" lon="19.12401">
        <ele>44.624202</ele>
        <time>2020-10-02T12:08:15.803Z</time>
      </trkpt>
      <trkpt lat="63.33787" lon="19.12422">
        <ele>44.786159</ele>
        <time>2020-10-02T12:08:22.775Z</time>
      </trkpt>
      <trkpt lat="63.33787" lon="19.12443">
        <ele>44.942154</ele>
        <time>2020-10-02T12:08:27.766Z</time>
      </trkpt>
      <trkpt lat="63.33789" lon="19.12467">
        <ele>45.118572</ele>
        <time>2020-10-02T12:08:32.788Z</time>
      </trkpt>
      <trkpt lat="63.33791" lon="19.1249">
        <ele>45.301361</ele>
        <time>2020-10-02T12:08:37.777Z</time>
      </trkpt>
      <trkpt lat="63.33794" lon="19.12512">
        <ele>45.464544</ele>
        <time>2020-10-02T12:08:40.788Z</time>
      </trkpt>
      <trkpt lat="63.33796" lon="19.12531">
        <ele>45.61529</ele>
        <time>2020-10-02T12:08:42.765Z</time>
      </trkpt>
      <trkpt lat="63.33798" lon="19.12553">
        <ele>45.729668</ele>
        <time>2020-10-02T12:08:44.782Z</time>
      </trkpt>
      <trkpt lat="63.33803" lon="19.12572">
        <ele>45.628581</ele>
        <time>2020-10-02T12:08:46.787Z</time>
      </trkpt>
      <trkpt lat="63.33809" lon="19.12587">
        <ele>45.535913</ele>
        <time>2020-10-02T12:08:48.772Z</time>
      </trkpt>
      <trkpt lat="63.33817" lon="19.12605">
        <ele>45.420212</ele>
        <time>2020-10-02T12:08:51.766Z</time>
      </trkpt>
      <trkpt lat="63.33824" lon="19.12616">
        <ele>45.326303</ele>
        <time>2020-10-02T12:08:54.769Z</time>
      </trkpt>
      <trkpt lat="63.33834" lon="19.12625">
        <ele>45.219556</ele>
        <time>2020-10-02T12:08:58.792Z</time>
      </trkpt>
      <trkpt lat="63.33843" lon="19.12629">
        <ele>45.123555</ele>
        <time>2020-10-02T12:09:01.773Z</time>
      </trkpt>
      <trkpt lat="63.33856" lon="19.12637">
        <ele>44.980602</ele>
        <time>2020-10-02T12:09:04.778Z</time>
      </trkpt>
      <trkpt lat="63.33866" lon="19.12643">
        <ele>44.87105</ele>
        <time>2020-10-02T12:09:06.774Z</time>
      </trkpt>
      <trkpt lat="63.33877" lon="19.1265">
        <ele>44.756883</ele>
        <time>2020-10-02T12:09:08.785Z</time>
      </trkpt>
      <trkpt lat="63.33887" lon="19.12658">
        <ele>44.64218</ele>
        <time>2020-10-02T12:09:10.779Z</time>
      </trkpt>
      <trkpt lat="63.33897" lon="19.12668">
        <ele>44.527215</ele>
        <time>2020-10-02T12:09:12.780Z</time>
      </trkpt>
      <trkpt lat="63.33907" lon="19.1268">
        <ele>44.41622</ele>
        <time>2020-10-02T12:09:14.816Z</time>
      </trkpt>
      <trkpt lat="63.33916" lon="19.12692">
        <ele>44.30719</ele>
        <time>2020-10-02T12:09:16.765Z</time>
      </trkpt>
      <trkpt lat="63.33924" lon="19.12705">
        <ele>44.205273</ele>
        <time>2020-10-02T12:09:18.767Z</time>
      </trkpt>
      <trkpt lat="63.33931" lon="19.12719">
        <ele>44.106982</ele>
        <time>2020-10-02T12:09:20.785Z</time>
      </trkpt>
      <trkpt lat="63.33938" lon="19.12733">
        <ele>44.008505</ele>
        <time>2020-10-02T12:09:22.771Z</time>
      </trkpt>
      <trkpt lat="63.33947" lon="19.12754">
        <ele>43.861186</ele>
        <time>2020-10-02T12:09:25.760Z</time>
      </trkpt>
      <trkpt lat="63.33954" lon="19.12771">
        <ele>43.601401</ele>
        <time>2020-10-02T12:09:28.778Z</time>
      </trkpt>
      <trkpt lat="63.33961" lon="19.12788">
        <ele>43.333263</ele>
        <time>2020-10-02T12:09:31.782Z</time>
      </trkpt>
      <trkpt lat="63.33971" lon="19.12807">
        <ele>43.006591</ele>
        <time>2020-10-02T12:09:34.766Z</time>
      </trkpt>
      <trkpt lat="63.3398" lon="19.1282">
        <ele>42.743546</ele>
        <time>2020-10-02T12:09:36.773Z</time>
      </trkpt>
      <trkpt lat="63.3399" lon="19.12832">
        <ele>42.452064</ele>
        <time>2020-10-02T12:09:38.778Z</time>
      </trkpt>
      <trkpt lat="63.34001" lon="19.12842">
        <ele>42.156282</ele>
        <time>2020-10-02T12:09:40.762Z</time>
      </trkpt>
      <trkpt lat="63.34013" lon="19.12851">
        <ele>41.842235</ele>
        <time>2020-10-02T12:09:42.773Z</time>
      </trkpt>
      <trkpt lat="63.34023" lon="19.1286">
        <ele>41.583172</ele>
        <time>2020-10-02T12:09:44.788Z</time>
      </trkpt>
      <trkpt lat="63.34029" lon="19.12879">
        <ele>41.319575</ele>
        <time>2020-10-02T12:09:47.776Z</time>
      </trkpt>
      <trkpt lat="63.34027" lon="19.12903">
        <ele>41.049132</ele>
        <time>2020-10-02T12:09:50.769Z</time>
      </trkpt>
      <trkpt lat="63.34027" lon="19.12926">
        <ele>40.793626</ele>
        <time>2020-10-02T12:09:53.781Z</time>
      </trkpt>
      <trkpt lat="63.34037" lon="19.1294">
        <ele>40.495698</ele>
        <time>2020-10-02T12:09:57.768Z</time>
      </trkpt>
      <trkpt lat="63.34048" lon="19.12939">
        <ele>40.21146</ele>
        <time>2020-10-02T12:10:01.775Z</time>
      </trkpt>
      <trkpt lat="63.3406" lon="19.1294">
        <ele>39.917174</ele>
        <time>2020-10-02T12:10:05.780Z</time>
      </trkpt>
      <trkpt lat="63.3407" lon="19.12937">
        <ele>39.664788</ele>
        <time>2020-10-02T12:10:09.783Z</time>
      </trkpt>
      <trkpt lat="63.34079" lon="19.12933">
        <ele>39.431895</ele>
        <time>2020-10-02T12:10:14.761Z</time>
      </trkpt>
      <trkpt lat="63.34089" lon="19.12932">
        <ele>39.604063</ele>
        <time>2020-10-02T12:10:19.768Z</time>
      </trkpt>
      <trkpt lat="63.341" lon="19.12934">
        <ele>39.890337</ele>
        <time>2020-10-02T12:10:24.790Z</time>
      </trkpt>
      <trkpt lat="63.34109" lon="19.12932">
        <ele>40.131763</ele>
        <time>2020-10-02T12:10:28.795Z</time>
      </trkpt>
      <trkpt lat="63.34121" lon="19.12929">
        <ele>40.416907</ele>
        <time>2020-10-02T12:10:32.760Z</time>
      </trkpt>
      <trkpt lat="63.34131" lon="19.12925">
        <ele>40.685396</ele>
        <time>2020-10-02T12:10:36.758Z</time>
      </trkpt>
      <trkpt lat="63.34142" lon="19.12921">
        <ele>40.969572</ele>
        <time>2020-10-02T12:10:40.765Z</time>
      </trkpt>
      <trkpt lat="63.34153" lon="19.12918">
        <ele>41.252204</ele>
        <time>2020-10-02T12:10:44.788Z</time>
      </trkpt>
      <trkpt lat="63.34163" lon="19.12915">
        <ele>41.50472</ele>
        <time>2020-10-02T12:10:47.770Z</time>
      </trkpt>
      <trkpt lat="63.34173" lon="19.12912">
        <ele>41.768559</ele>
        <time>2020-10-02T12:10:50.781Z</time>
      </trkpt>
      <trkpt lat="63.34186" lon="19.12908">
        <ele>42.083245</ele>
        <time>2020-10-02T12:10:53.772Z</time>
      </trkpt>
      <trkpt lat="63.34197" lon="19.12903">
        <ele>42.368976</ele>
        <time>2020-10-02T12:10:56.778Z</time>
      </trkpt>
      <trkpt lat="63.34209" lon="19.12899">
        <ele>42.668672</ele>
        <time>2020-10-02T12:10:59.794Z</time>
      </trkpt>
      <trkpt lat="63.3422" lon="19.12893">
        <ele>42.963173</ele>
        <time>2020-10-02T12:11:02.772Z</time>
      </trkpt>
      <trkpt lat="63.34231" lon="19.12887">
        <ele>43.259928</ele>
        <time>2020-10-02T12:11:05.776Z</time>
      </trkpt>
      <trkpt lat="63.34242" lon="19.12881">
        <ele>43.533388</ele>
        <time>2020-10-02T12:11:08.778Z</time>
      </trkpt>
      <trkpt lat="63.34252" lon="19.12876">
        <ele>43.795033</ele>
        <time>2020-10-02T12:11:11.797Z</time>
      </trkpt>
      <trkpt lat="63.3426" lon="19.1287">
        <ele>43.925049</ele>
        <time>2020-10-02T12:11:14.783Z</time>
      </trkpt>
      <trkpt lat="63.34271" lon="19.12862">
        <ele>43.822996</ele>
        <time>2020-10-02T12:11:17.763Z</time>
      </trkpt>
      <trkpt lat="63.34281" lon="19.12854">
        <ele>43.714929</ele>
        <time>2020-10-02T12:11:20.784Z</time>
      </trkpt>
      <trkpt lat="63.34291" lon="19.12845">
        <ele>43.615213</ele>
        <time>2020-10-02T12:11:23.767Z</time>
      </trkpt>
      <trkpt lat="63.34299" lon="19.12835">
        <ele>43.525937</ele>
        <time>2020-10-02T12:11:26.768Z</time>
      </trkpt>
      <trkpt lat="63.34308" lon="19.12825">
        <ele>43.433567</ele>
        <time>2020-10-02T12:11:29.768Z</time>
      </trkpt>
      <trkpt lat="63.34317" lon="19.12812">
        <ele>43.331963</ele>
        <time>2020-10-02T12:11:32.776Z</time>
      </trkpt>
      <trkpt lat="63.34326" lon="19.12799">
        <ele>43.224286</ele>
        <time>2020-10-02T12:11:35.800Z</time>
      </trkpt>
      <trkpt lat="63.34337" lon="19.12783">
        <ele>43.10384</ele>
        <time>2020-10-02T12:11:38.796Z</time>
      </trkpt>
      <trkpt lat="63.34345" lon="19.12771">
        <ele>43.012041</ele>
        <time>2020-10-02T12:11:40.783Z</time>
      </trkpt>
      <trkpt lat="63.34352" lon="19.12758">
        <ele>42.91973</ele>
        <time>2020-10-02T12:11:42.764Z</time>
      </trkpt>
      <trkpt lat="63.3436" lon="19.12744">
        <ele>42.830828</ele>
        <time>2020-10-02T12:11:44.766Z</time>
      </trkpt>
      <trkpt lat="63.3437" lon="19.12725">
        <ele>42.706756</ele>
        <time>2020-10-02T12:11:47.770Z</time>
      </trkpt>
      <trkpt lat="63.34379" lon="19.12706">
        <ele>42.588376</ele>
        <time>2020-10-02T12:11:50.786Z</time>
      </trkpt>
      <trkpt lat="63.34387" lon="19.12687">
        <ele>42.472222</ele>
        <time>2020-10-02T12:11:53.778Z</time>
      </trkpt>
      <trkpt lat="63.34395" lon="19.1267">
        <ele>42.369654</ele>
        <time>2020-10-02T12:11:56.769Z</time>
      </trkpt>
      <trkpt lat="63.34401" lon="19.12655">
        <ele>42.278433</ele>
        <time>2020-10-02T12:11:59.782Z</time>
      </trkpt>
      <trkpt lat="63.34408" lon="19.1264">
        <ele>42.275758</ele>
        <time>2020-10-02T12:12:02.765Z</time>
      </trkpt>
      <trkpt lat="63.34416" lon="19.12624">
        <ele>42.349618</ele>
        <time>2020-10-02T12:12:06.798Z</time>
      </trkpt>
      <trkpt lat="63.34423" lon="19.12607">
        <ele>42.421664</ele>
        <time>2020-10-02T12:12:10.780Z</time>
      </trkpt>
      <trkpt lat="63.3443" lon="19.12589">
        <ele>42.500289</ele>
        <time>2020-10-02T12:12:14.783Z</time>
      </trkpt>
      <trkpt lat="63.34438" lon="19.1257">
        <ele>42.57916</ele>
        <time>2020-10-02T12:12:18.780Z</time>
      </trkpt>
      <trkpt lat="63.34445" lon="19.12551">
        <ele>42.658715</ele>
        <time>2020-10-02T12:12:22.764Z</time>
      </trkpt>
      <trkpt lat="63.34452" lon="19.12538">
        <ele>42.723833</ele>
        <time>2020-10-02T12:12:25.774Z</time>
      </trkpt>
      <trkpt lat="63.3446" lon="19.12527">
        <ele>42.789632</ele>
        <time>2020-10-02T12:12:28.767Z</time>
      </trkpt>
      <trkpt lat="63.34471" lon="19.12492">
        <ele>42.921868</ele>
        <time>2020-10-02T12:13:05.797Z</time>
      </trkpt>
      <trkpt lat="63.3447" lon="19.12466">
        <ele>43.004086</ele>
        <time>2020-10-02T12:13:08.801Z</time>
      </trkpt>
      <trkpt lat="63.34467" lon="19.12442">
        <ele>43.082927</ele>
        <time>2020-10-02T12:13:11.774Z</time>
      </trkpt>
      <trkpt lat="63.34463" lon="19.12419">
        <ele>43.160261</ele>
        <time>2020-10-02T12:13:14.772Z</time>
      </trkpt>
      <trkpt lat="63.34459" lon="19.12395">
        <ele>43.243998</ele>
        <time>2020-10-02T12:13:17.803Z</time>
      </trkpt>
      <trkpt lat="63.34454" lon="19.12369">
        <ele>43.332934</ele>
        <time>2020-10-02T12:13:20.765Z</time>
      </trkpt>
      <trkpt lat="63.34449" lon="19.12341">
        <ele>43.426115</ele>
        <time>2020-10-02T12:13:23.788Z</time>
      </trkpt>
      <trkpt lat="63.34446" lon="19.12321">
        <ele>43.49164</ele>
        <time>2020-10-02T12:13:25.776Z</time>
      </trkpt>
      <trkpt lat="63.34443" lon="19.12301">
        <ele>43.61253</ele>
        <time>2020-10-02T12:13:27.787Z</time>
      </trkpt>
      <trkpt lat="63.3444" lon="19.1228">
        <ele>43.746635</ele>
        <time>2020-10-02T12:13:29.796Z</time>
      </trkpt>
      <trkpt lat="63.34436" lon="19.1226">
        <ele>43.878933</ele>
        <time>2020-10-02T12:13:31.780Z</time>
      </trkpt>
      <trkpt lat="63.34433" lon="19.12239">
        <ele>44.013277</ele>
        <time>2020-10-02T12:13:33.788Z</time>
      </trkpt>
      <trkpt lat="63.3443" lon="19.12219">
        <ele>44.147044</ele>
        <time>2020-10-02T12:13:35.802Z</time>
      </trkpt>
      <trkpt lat="63.34426" lon="19.12198">
        <ele>44.278386</ele>
        <time>2020-10-02T12:13:37.822Z</time>
      </trkpt>
      <trkpt lat="63.34423" lon="19.12178">
        <ele>44.411255</ele>
        <time>2020-10-02T12:13:39.776Z</time>
      </trkpt>
      <trkpt lat="63.3442" lon="19.12158">
        <ele>44.544896</ele>
        <time>2020-10-02T12:13:41.795Z</time>
      </trkpt>
      <trkpt lat="63.34416" lon="19.12137">
        <ele>44.678225</ele>
        <time>2020-10-02T12:13:43.784Z</time>
      </trkpt>
      <trkpt lat="63.34413" lon="19.12117">
        <ele>44.809108</ele>
        <time>2020-10-02T12:13:45.785Z</time>
      </trkpt>
      <trkpt lat="63.3441" lon="19.12097">
        <ele>44.937585</ele>
        <time>2020-10-02T12:13:47.813Z</time>
      </trkpt>
      <trkpt lat="63.34406" lon="19.12077">
        <ele>45.068113</ele>
        <time>2020-10-02T12:13:49.820Z</time>
      </trkpt>
      <trkpt lat="63.34403" lon="19.12057">
        <ele>45.202219</ele>
        <time>2020-10-02T12:13:51.786Z</time>
      </trkpt>
      <trkpt lat="63.34399" lon="19.12036">
        <ele>45.336801</ele>
        <time>2020-10-02T12:13:53.793Z</time>
      </trkpt>
      <trkpt lat="63.34396" lon="19.12015">
        <ele>45.471725</ele>
        <time>2020-10-02T12:13:55.822Z</time>
      </trkpt>
      <trkpt lat="63.34393" lon="19.11994">
        <ele>45.604915</ele>
        <time>2020-10-02T12:13:57.807Z</time>
      </trkpt>
      <trkpt lat="63.3439" lon="19.11975">
        <ele>45.731443</ele>
        <time>2020-10-02T12:13:59.798Z</time>
      </trkpt>
      <trkpt lat="63.34387" lon="19.11955">
        <ele>45.860403</ele>
        <time>2020-10-02T12:14:01.839Z</time>
      </trkpt>
      <trkpt lat="63.34384" lon="19.11935">
        <ele>45.955159</ele>
        <time>2020-10-02T12:14:03.775Z</time>
      </trkpt>
      <trkpt lat="63.3438" lon="19.11915">
        <ele>45.96692</ele>
        <time>2020-10-02T12:14:05.783Z</time>
      </trkpt>
      <trkpt lat="63.34376" lon="19.11895">
        <ele>45.978965</ele>
        <time>2020-10-02T12:14:07.795Z</time>
      </trkpt>
      <trkpt lat="63.34372" lon="19.11875">
        <ele>45.990564</ele>
        <time>2020-10-02T12:14:09.797Z</time>
      </trkpt>
      <trkpt lat="63.34368" lon="19.11855">
        <ele>46.00256</ele>
        <time>2020-10-02T12:14:11.767Z</time>
      </trkpt>
      <trkpt lat="63.34364" lon="19.11833">
        <ele>46.015615</ele>
        <time>2020-10-02T12:14:13.801Z</time>
      </trkpt>
      <trkpt lat="63.3436" lon="19.1181">
        <ele>46.028811</ele>
        <time>2020-10-02T12:14:15.777Z</time>
      </trkpt>
      <trkpt lat="63.34356" lon="19.11788">
        <ele>46.0424</ele>
        <time>2020-10-02T12:14:17.817Z</time>
      </trkpt>
      <trkpt lat="63.34351" lon="19.11764">
        <ele>46.056285</ele>
        <time>2020-10-02T12:14:19.816Z</time>
      </trkpt>
      <trkpt lat="63.34347" lon="19.11741">
        <ele>46.07017</ele>
        <time>2020-10-02T12:14:21.788Z</time>
      </trkpt>
      <trkpt lat="63.34341" lon="19.11718">
        <ele>46.084234</ele>
        <time>2020-10-02T12:14:23.780Z</time>
      </trkpt>
      <trkpt lat="63.34336" lon="19.11695">
        <ele>46.098678</ele>
        <time>2020-10-02T12:14:25.787Z</time>
      </trkpt>
      <trkpt lat="63.3433" lon="19.11671">
        <ele>46.113738</ele>
        <time>2020-10-02T12:14:27.789Z</time>
      </trkpt>
      <trkpt lat="63.34323" lon="19.11647">
        <ele>46.128655</ele>
        <time>2020-10-02T12:14:29.779Z</time>
      </trkpt>
      <trkpt lat="63.34317" lon="19.11623">
        <ele>46.143682</ele>
        <time>2020-10-02T12:14:31.783Z</time>
      </trkpt>
      <trkpt lat="63.34311" lon="19.116">
        <ele>46.158074</ele>
        <time>2020-10-02T12:14:33.787Z</time>
      </trkpt>
      <trkpt lat="63.34305" lon="19.11578">
        <ele>46.17473</ele>
        <time>2020-10-02T12:14:35.818Z</time>
      </trkpt>
      <trkpt lat="63.34299" lon="19.11556">
        <ele>46.205902</ele>
        <time>2020-10-02T12:14:37.792Z</time>
      </trkpt>
      <trkpt lat="63.34293" lon="19.11535">
        <ele>46.235501</ele>
        <time>2020-10-02T12:14:39.765Z</time>
      </trkpt>
      <trkpt lat="63.34286" lon="19.11516">
        <ele>46.264503</ele>
        <time>2020-10-02T12:14:41.793Z</time>
      </trkpt>
      <trkpt lat="63.34277" lon="19.115">
        <ele>46.295008</ele>
        <time>2020-10-02T12:14:43.788Z</time>
      </trkpt>
      <trkpt lat="63.34269" lon="19.11482">
        <ele>46.325649</ele>
        <time>2020-10-02T12:14:45.771Z</time>
      </trkpt>
      <trkpt lat="63.34261" lon="19.11462">
        <ele>46.356583</ele>
        <time>2020-10-02T12:14:47.789Z</time>
      </trkpt>
      <trkpt lat="63.34254" lon="19.11443">
        <ele>46.386721</ele>
        <time>2020-10-02T12:14:49.806Z</time>
      </trkpt>
      <trkpt lat="63.34246" lon="19.11425">
        <ele>46.416064</ele>
        <time>2020-10-02T12:14:51.839Z</time>
      </trkpt>
      <trkpt lat="63.34239" lon="19.11408">
        <ele>46.443636</ele>
        <time>2020-10-02T12:14:53.774Z</time>
      </trkpt>
      <trkpt lat="63.34233" lon="19.11392">
        <ele>46.468289</ele>
        <time>2020-10-02T12:14:55.774Z</time>
      </trkpt>
      <trkpt lat="63.34226" lon="19.11377">
        <ele>46.493926</ele>
        <time>2020-10-02T12:15:00.788Z</time>
      </trkpt>
      <trkpt lat="63.34215" lon="19.11385">
        <ele>46.523287</ele>
        <time>2020-10-02T12:15:05.783Z</time>
      </trkpt>
      <trkpt lat="63.34206" lon="19.11399">
        <ele>46.553736</ele>
        <time>2020-10-02T12:15:08.786Z</time>
      </trkpt>
      <trkpt lat="63.34195" lon="19.11392">
        <ele>46.581966</ele>
        <time>2020-10-02T12:15:11.778Z</time>
      </trkpt>
      <trkpt lat="63.34188" lon="19.11372">
        <ele>46.613017</ele>
        <time>2020-10-02T12:15:14.781Z</time>
      </trkpt>
      <trkpt lat="63.3418" lon="19.1135">
        <ele>46.646329</ele>
        <time>2020-10-02T12:15:17.784Z</time>
      </trkpt>
      <trkpt lat="63.34173" lon="19.11328">
        <ele>46.349492</ele>
        <time>2020-10-02T12:15:20.804Z</time>
      </trkpt>
      <trkpt lat="63.34166" lon="19.11307">
        <ele>46.066242</ele>
        <time>2020-10-02T12:15:23.783Z</time>
      </trkpt>
      <trkpt lat="63.34158" lon="19.11287">
        <ele>45.774349</ele>
        <time>2020-10-02T12:15:26.805Z</time>
      </trkpt>
      <trkpt lat="63.3415" lon="19.11268">
        <ele>45.484616</ele>
        <time>2020-10-02T12:15:29.789Z</time>
      </trkpt>
      <trkpt lat="63.34141" lon="19.11252">
        <ele>45.216985</ele>
        <time>2020-10-02T12:15:32.772Z</time>
      </trkpt>
      <trkpt lat="63.34132" lon="19.11239">
        <ele>44.94791</ele>
        <time>2020-10-02T12:15:35.798Z</time>
      </trkpt>
      <trkpt lat="63.34121" lon="19.11226">
        <ele>44.635944</ele>
        <time>2020-10-02T12:15:38.797Z</time>
      </trkpt>
      <trkpt lat="63.34108" lon="19.1122">
        <ele>44.332976</ele>
        <time>2020-10-02T12:15:41.785Z</time>
      </trkpt>
      <trkpt lat="63.34099" lon="19.11224">
        <ele>44.089168</ele>
        <time>2020-10-02T12:15:43.781Z</time>
      </trkpt>
      <trkpt lat="63.34089" lon="19.11234">
        <ele>43.834089</ele>
        <time>2020-10-02T12:15:45.781Z</time>
      </trkpt>
      <trkpt lat="63.3408" lon="19.11255">
        <ele>43.513782</ele>
        <time>2020-10-02T12:15:48.797Z</time>
      </trkpt>
      <trkpt lat="63.34074" lon="19.11271">
        <ele>43.284791</ele>
        <time>2020-10-02T12:15:50.798Z</time>
      </trkpt>
      <trkpt lat="63.34067" lon="19.11288">
        <ele>43.041118</ele>
        <time>2020-10-02T12:15:52.801Z</time>
      </trkpt>
      <trkpt lat="63.34061" lon="19.11306">
        <ele>42.787644</ele>
        <time>2020-10-02T12:15:54.817Z</time>
      </trkpt>
      <trkpt lat="63.34054" lon="19.11325">
        <ele>42.520204</ele>
        <time>2020-10-02T12:15:56.813Z</time>
      </trkpt>
      <trkpt lat="63.34048" lon="19.11345">
        <ele>42.245299</ele>
        <time>2020-10-02T12:15:58.773Z</time>
      </trkpt>
      <trkpt lat="63.34042" lon="19.11366">
        <ele>41.795885</ele>
        <time>2020-10-02T12:16:00.794Z</time>
      </trkpt>
      <trkpt lat="63.34038" lon="19.11387">
        <ele>41.375517</ele>
        <time>2020-10-02T12:16:02.807Z</time>
      </trkpt>
      <trkpt lat="63.34034" lon="19.11408">
        <ele>40.958528</ele>
        <time>2020-10-02T12:16:04.796Z</time>
      </trkpt>
      <trkpt lat="63.3403" lon="19.1143">
        <ele>40.534926</ele>
        <time>2020-10-02T12:16:06.817Z</time>
      </trkpt>
      <trkpt lat="63.34025" lon="19.11452">
        <ele>40.098081</ele>
        <time>2020-10-02T12:16:08.787Z</time>
      </trkpt>
      <trkpt lat="63.34021" lon="19.11474">
        <ele>39.656147</ele>
        <time>2020-10-02T12:16:10.788Z</time>
      </trkpt>
      <trkpt lat="63.34016" lon="19.11496">
        <ele>39.212648</ele>
        <time>2020-10-02T12:16:12.768Z</time>
      </trkpt>
      <trkpt lat="63.34012" lon="19.11517">
        <ele>38.79077</ele>
        <time>2020-10-02T12:16:14.795Z</time>
      </trkpt>
      <trkpt lat="63.34008" lon="19.11536">
        <ele>38.421916</ele>
        <time>2020-10-02T12:16:16.769Z</time>
      </trkpt>
      <trkpt lat="63.34004" lon="19.11556">
        <ele>38.023294</ele>
        <time>2020-10-02T12:16:18.796Z</time>
      </trkpt>
      <trkpt lat="63.34" lon="19.11576">
        <ele>37.604728</ele>
        <time>2020-10-02T12:16:20.765Z</time>
      </trkpt>
      <trkpt lat="63.33995" lon="19.11597">
        <ele>37.194166</ele>
        <time>2020-10-02T12:16:22.774Z</time>
      </trkpt>
      <trkpt lat="63.33989" lon="19.11615">
        <ele>36.778613</ele>
        <time>2020-10-02T12:16:24.778Z</time>
      </trkpt>
      <trkpt lat="63.33983" lon="19.11632">
        <ele>36.358595</ele>
        <time>2020-10-02T12:16:26.803Z</time>
      </trkpt>
      <trkpt lat="63.33975" lon="19.11647">
        <ele>35.956976</ele>
        <time>2020-10-02T12:16:28.770Z</time>
      </trkpt>
      <trkpt lat="63.33967" lon="19.1166">
        <ele>35.560703</ele>
        <time>2020-10-02T12:16:30.784Z</time>
      </trkpt>
      <trkpt lat="63.33959" lon="19.11673">
        <ele>35.160973</ele>
        <time>2020-10-02T12:16:32.794Z</time>
      </trkpt>
      <trkpt lat="63.3395" lon="19.11684">
        <ele>35.057214</ele>
        <time>2020-10-02T12:16:34.775Z</time>
      </trkpt>
      <trkpt lat="63.33942" lon="19.11694">
        <ele>35.202632</ele>
        <time>2020-10-02T12:16:36.828Z</time>
      </trkpt>
      <trkpt lat="63.33929" lon="19.11705">
        <ele>35.406172</ele>
        <time>2020-10-02T12:16:39.767Z</time>
      </trkpt>
      <trkpt lat="63.33919" lon="19.1171">
        <ele>35.557839</ele>
        <time>2020-10-02T12:16:41.780Z</time>
      </trkpt>
      <trkpt lat="63.33909" lon="19.11716">
        <ele>35.712412</ele>
        <time>2020-10-02T12:16:43.775Z</time>
      </trkpt>
      <trkpt lat="63.339" lon="19.11719">
        <ele>35.856654</ele>
        <time>2020-10-02T12:16:45.774Z</time>
      </trkpt>
      <trkpt lat="63.3389" lon="19.11722">
        <ele>36.008997</ele>
        <time>2020-10-02T12:16:47.820Z</time>
      </trkpt>
      <trkpt lat="63.3388" lon="19.11725">
        <ele>36.160173</ele>
        <time>2020-10-02T12:16:49.775Z</time>
      </trkpt>
      <trkpt lat="63.3387" lon="19.11727">
        <ele>36.302257</ele>
        <time>2020-10-02T12:16:51.784Z</time>
      </trkpt>
      <trkpt lat="63.33858" lon="19.11731">
        <ele>36.495667</ele>
        <time>2020-10-02T12:16:54.776Z</time>
      </trkpt>
      <trkpt lat="63.33844" lon="19.11735">
        <ele>36.695854</ele>
        <time>2020-10-02T12:16:57.777Z</time>
      </trkpt>
      <trkpt lat="63.33835" lon="19.11739">
        <ele>36.843272</ele>
        <time>2020-10-02T12:16:59.798Z</time>
      </trkpt>
      <trkpt lat="63.33824" lon="19.11744">
        <ele>37.003824</ele>
        <time>2020-10-02T12:17:01.785Z</time>
      </trkpt>
      <trkpt lat="63.33814" lon="19.11747">
        <ele>37.159636</ele>
        <time>2020-10-02T12:17:03.773Z</time>
      </trkpt>
      <trkpt lat="63.33802" lon="19.1175">
        <ele>37.333729</ele>
        <time>2020-10-02T12:17:05.764Z</time>
      </trkpt>
      <trkpt lat="63.3379" lon="19.11753">
        <ele>37.51766</ele>
        <time>2020-10-02T12:17:07.815Z</time>
      </trkpt>
      <trkpt lat="63.33777" lon="19.11756">
        <ele>37.683149</ele>
        <time>2020-10-02T12:17:09.772Z</time>
      </trkpt>
      <trkpt lat="63.33764" lon="19.11759">
        <ele>37.738731</ele>
        <time>2020-10-02T12:17:11.816Z</time>
      </trkpt>
      <trkpt lat="63.33752" lon="19.11763">
        <ele>37.791284</ele>
        <time>2020-10-02T12:17:13.782Z</time>
      </trkpt>
      <trkpt lat="63.33739" lon="19.11765">
        <ele>37.845047</ele>
        <time>2020-10-02T12:17:15.797Z</time>
      </trkpt>
      <trkpt lat="63.33729" lon="19.1177">
        <ele>37.891172</ele>
        <time>2020-10-02T12:17:17.805Z</time>
      </trkpt>
      <trkpt lat="63.33717" lon="19.11774">
        <ele>37.939767</ele>
        <time>2020-10-02T12:17:19.802Z</time>
      </trkpt>
      <trkpt lat="63.33706" lon="19.1178">
        <ele>37.990092</ele>
        <time>2020-10-02T12:17:21.805Z</time>
      </trkpt>
      <trkpt lat="63.33696" lon="19.11785">
        <ele>38.033978</ele>
        <time>2020-10-02T12:17:23.823Z</time>
      </trkpt>
      <trkpt lat="63.33686" lon="19.11789">
        <ele>38.075702</ele>
        <time>2020-10-02T12:17:25.830Z</time>
      </trkpt>
      <trkpt lat="63.33676" lon="19.11794">
        <ele>38.120994</ele>
        <time>2020-10-02T12:17:27.796Z</time>
      </trkpt>
      <trkpt lat="63.33664" lon="19.11803">
        <ele>38.173411</ele>
        <time>2020-10-02T12:17:29.792Z</time>
      </trkpt>
      <trkpt lat="63.33653" lon="19.11813">
        <ele>38.223031</ele>
        <time>2020-10-02T12:17:31.792Z</time>
      </trkpt>
      <trkpt lat="63.33642" lon="19.11825">
        <ele>38.278091</ele>
        <time>2020-10-02T12:17:33.813Z</time>
      </trkpt>
      <trkpt lat="63.33629" lon="19.1184">
        <ele>38.340501</ele>
        <time>2020-10-02T12:17:35.820Z</time>
      </trkpt>
      <trkpt lat="63.33615" lon="19.1186">
        <ele>38.408068</ele>
        <time>2020-10-02T12:17:37.824Z</time>
      </trkpt>
      <trkpt lat="63.33602" lon="19.11882">
        <ele>38.432143</ele>
        <time>2020-10-02T12:17:39.781Z</time>
      </trkpt>
      <trkpt lat="63.33588" lon="19.11905">
        <ele>38.425445</ele>
        <time>2020-10-02T12:17:41.821Z</time>
      </trkpt>
      <trkpt lat="63.33576" lon="19.11932">
        <ele>38.418609</ele>
        <time>2020-10-02T12:17:43.779Z</time>
      </trkpt>
      <trkpt lat="63.33563" lon="19.11959">
        <ele>38.41171</ele>
        <time>2020-10-02T12:17:45.803Z</time>
      </trkpt>
      <trkpt lat="63.33551" lon="19.11985">
        <ele>38.405044</ele>
        <time>2020-10-02T12:17:47.783Z</time>
      </trkpt>
      <trkpt lat="63.33539" lon="19.12007">
        <ele>38.398969</ele>
        <time>2020-10-02T12:17:49.811Z</time>
      </trkpt>
      <trkpt lat="63.33528" lon="19.12025">
        <ele>38.393511</ele>
        <time>2020-10-02T12:17:51.835Z</time>
      </trkpt>
      <trkpt lat="63.33517" lon="19.12042">
        <ele>38.388378</ele>
        <time>2020-10-02T12:17:53.772Z</time>
      </trkpt>
      <trkpt lat="63.33508" lon="19.12054">
        <ele>38.384077</ele>
        <time>2020-10-02T12:17:55.809Z</time>
      </trkpt>
      <trkpt lat="63.33499" lon="19.12064">
        <ele>38.380333</ele>
        <time>2020-10-02T12:17:57.786Z</time>
      </trkpt>
      <trkpt lat="63.3349" lon="19.12075">
        <ele>38.376308</ele>
        <time>2020-10-02T12:17:59.782Z</time>
      </trkpt>
      <trkpt lat="63.33481" lon="19.12087">
        <ele>38.372009</ele>
        <time>2020-10-02T12:18:01.783Z</time>
      </trkpt>
      <trkpt lat="63.3347" lon="19.12102">
        <ele>38.366899</ele>
        <time>2020-10-02T12:18:03.805Z</time>
      </trkpt>
      <trkpt lat="63.3346" lon="19.12116">
        <ele>38.629986</ele>
        <time>2020-10-02T12:18:05.805Z</time>
      </trkpt>
      <trkpt lat="63.33452" lon="19.12128">
        <ele>38.989595</ele>
        <time>2020-10-02T12:18:07.785Z</time>
      </trkpt>
      <trkpt lat="63.33443" lon="19.12137">
        <ele>39.320892</ele>
        <time>2020-10-02T12:18:09.781Z</time>
      </trkpt>
      <trkpt lat="63.33435" lon="19.12148">
        <ele>39.653777</ele>
        <time>2020-10-02T12:18:11.804Z</time>
      </trkpt>
      <trkpt lat="63.33427" lon="19.12158">
        <ele>39.98199</ele>
        <time>2020-10-02T12:18:13.817Z</time>
      </trkpt>
      <trkpt lat="63.3342" lon="19.12169">
        <ele>40.304791</ele>
        <time>2020-10-02T12:18:15.775Z</time>
      </trkpt>
      <trkpt lat="63.33412" lon="19.12183">
        <ele>40.662211</ele>
        <time>2020-10-02T12:18:17.803Z</time>
      </trkpt>
      <trkpt lat="63.33403" lon="19.12199">
        <ele>41.051505</ele>
        <time>2020-10-02T12:18:19.774Z</time>
      </trkpt>
      <trkpt lat="63.33395" lon="19.12217">
        <ele>41.478011</ele>
        <time>2020-10-02T12:18:21.855Z</time>
      </trkpt>
      <trkpt lat="63.33385" lon="19.12236">
        <ele>41.928302</ele>
        <time>2020-10-02T12:18:23.796Z</time>
      </trkpt>
      <trkpt lat="63.33375" lon="19.12255">
        <ele>42.384987</ele>
        <time>2020-10-02T12:18:25.775Z</time>
      </trkpt>
      <trkpt lat="63.33366" lon="19.12273">
        <ele>42.820959</ele>
        <time>2020-10-02T12:18:27.779Z</time>
      </trkpt>
      <trkpt lat="63.33357" lon="19.12289">
        <ele>43.231574</ele>
        <time>2020-10-02T12:18:29.790Z</time>
      </trkpt>
      <trkpt lat="63.33349" lon="19.12306">
        <ele>43.642852</ele>
        <time>2020-10-02T12:18:31.787Z</time>
      </trkpt>
      <trkpt lat="63.3334" lon="19.12323">
        <ele>44.056178</ele>
        <time>2020-10-02T12:18:33.808Z</time>
      </trkpt>
      <trkpt lat="63.33331" lon="19.12338">
        <ele>44.457449</ele>
        <time>2020-10-02T12:18:35.783Z</time>
      </trkpt>
      <trkpt lat="63.33322" lon="19.12352">
        <ele>44.616912</ele>
        <time>2020-10-02T12:18:37.780Z</time>
      </trkpt>
      <trkpt lat="63.33314" lon="19.12366">
        <ele>43.947487</ele>
        <time>2020-10-02T12:18:39.790Z</time>
      </trkpt>
      <trkpt lat="63.33306" lon="19.1238">
        <ele>43.282539</ele>
        <time>2020-10-02T12:18:41.791Z</time>
      </trkpt>
      <trkpt lat="63.33299" lon="19.12393">
        <ele>42.681311</ele>
        <time>2020-10-02T12:18:43.805Z</time>
      </trkpt>
      <trkpt lat="63.33289" lon="19.12411">
        <ele>41.793451</ele>
        <time>2020-10-02T12:18:46.785Z</time>
      </trkpt>
      <trkpt lat="63.33282" lon="19.12424">
        <ele>41.195447</ele>
        <time>2020-10-02T12:18:48.780Z</time>
      </trkpt>
      <trkpt lat="63.33272" lon="19.12443">
        <ele>40.344248</ele>
        <time>2020-10-02T12:18:51.790Z</time>
      </trkpt>
      <trkpt lat="63.33265" lon="19.12457">
        <ele>39.745603</ele>
        <time>2020-10-02T12:18:53.790Z</time>
      </trkpt>
      <trkpt lat="63.33257" lon="19.1247">
        <ele>39.084976</ele>
        <time>2020-10-02T12:18:55.787Z</time>
      </trkpt>
      <trkpt lat="63.33249" lon="19.12485">
        <ele>38.41054</ele>
        <time>2020-10-02T12:18:57.777Z</time>
      </trkpt>
      <trkpt lat="63.33242" lon="19.12501">
        <ele>37.737306</ele>
        <time>2020-10-02T12:18:59.812Z</time>
      </trkpt>
      <trkpt lat="63.33235" lon="19.12515">
        <ele>37.124946</ele>
        <time>2020-10-02T12:19:01.778Z</time>
      </trkpt>
      <trkpt lat="63.33225" lon="19.12533">
        <ele>36.236973</ele>
        <time>2020-10-02T12:19:04.768Z</time>
      </trkpt>
      <trkpt lat="63.33216" lon="19.12547">
        <ele>35.520534</ele>
        <time>2020-10-02T12:19:06.779Z</time>
      </trkpt>
      <trkpt lat="63.33207" lon="19.12557">
        <ele>34.84619</ele>
        <time>2020-10-02T12:19:08.780Z</time>
      </trkpt>
      <trkpt lat="63.33198" lon="19.12569">
        <ele>34.198043</ele>
        <time>2020-10-02T12:19:10.799Z</time>
      </trkpt>
      <trkpt lat="63.3319" lon="19.12581">
        <ele>33.559333</ele>
        <time>2020-10-02T12:19:12.786Z</time>
      </trkpt>
      <trkpt lat="63.33183" lon="19.12593">
        <ele>32.948023</ele>
        <time>2020-10-02T12:19:14.801Z</time>
      </trkpt>
      <trkpt lat="63.33175" lon="19.12605">
        <ele>32.493644</ele>
        <time>2020-10-02T12:19:16.780Z</time>
      </trkpt>
      <trkpt lat="63.33168" lon="19.12617">
        <ele>32.043969</ele>
        <time>2020-10-02T12:19:18.808Z</time>
      </trkpt>
      <trkpt lat="63.33161" lon="19.12629">
        <ele>31.592964</ele>
        <time>2020-10-02T12:19:20.802Z</time>
      </trkpt>
      <trkpt lat="63.33153" lon="19.12642">
        <ele>31.119611</ele>
        <time>2020-10-02T12:19:22.786Z</time>
      </trkpt>
      <trkpt lat="63.33142" lon="19.1266">
        <ele>30.474041</ele>
        <time>2020-10-02T12:19:25.800Z</time>
      </trkpt>
      <trkpt lat="63.33134" lon="19.12671">
        <ele>30.010822</ele>
        <time>2020-10-02T12:19:27.781Z</time>
      </trkpt>
      <trkpt lat="63.33127" lon="19.12683">
        <ele>29.546361</ele>
        <time>2020-10-02T12:19:29.815Z</time>
      </trkpt>
      <trkpt lat="63.33119" lon="19.12696">
        <ele>29.06644</ele>
        <time>2020-10-02T12:19:31.821Z</time>
      </trkpt>
      <trkpt lat="63.33111" lon="19.12708">
        <ele>28.592609</ele>
        <time>2020-10-02T12:19:33.786Z</time>
      </trkpt>
      <trkpt lat="63.33103" lon="19.1272">
        <ele>28.127758</ele>
        <time>2020-10-02T12:19:35.801Z</time>
      </trkpt>
      <trkpt lat="63.33095" lon="19.12733">
        <ele>27.637289</ele>
        <time>2020-10-02T12:19:37.788Z</time>
      </trkpt>
      <trkpt lat="63.33087" lon="19.12744">
        <ele>27.192455</ele>
        <time>2020-10-02T12:19:39.784Z</time>
      </trkpt>
      <trkpt lat="63.33076" lon="19.12761">
        <ele>26.533648</ele>
        <time>2020-10-02T12:19:42.808Z</time>
      </trkpt>
      <trkpt lat="63.33069" lon="19.12774">
        <ele>26.066677</ele>
        <time>2020-10-02T12:19:44.804Z</time>
      </trkpt>
      <trkpt lat="63.33061" lon="19.12786">
        <ele>25.59859</ele>
        <time>2020-10-02T12:19:46.800Z</time>
      </trkpt>
      <trkpt lat="63.33053" lon="19.12799">
        <ele>25.114745</ele>
        <time>2020-10-02T12:19:48.773Z</time>
      </trkpt>
      <trkpt lat="63.33045" lon="19.12812">
        <ele>24.630898</ele>
        <time>2020-10-02T12:19:50.783Z</time>
      </trkpt>
      <trkpt lat="63.33037" lon="19.12825">
        <ele>24.156242</ele>
        <time>2020-10-02T12:19:52.800Z</time>
      </trkpt>
      <trkpt lat="63.33029" lon="19.12838">
        <ele>24.389848</ele>
        <time>2020-10-02T12:19:54.806Z</time>
      </trkpt>
      <trkpt lat="63.3302" lon="19.12853">
        <ele>24.771045</ele>
        <time>2020-10-02T12:19:56.787Z</time>
      </trkpt>
      <trkpt lat="63.33012" lon="19.12867">
        <ele>25.140855</ele>
        <time>2020-10-02T12:19:58.788Z</time>
      </trkpt>
      <trkpt lat="63.33004" lon="19.12881">
        <ele>25.508671</ele>
        <time>2020-10-02T12:20:00.795Z</time>
      </trkpt>
      <trkpt lat="63.32996" lon="19.12893">
        <ele>25.84028</ele>
        <time>2020-10-02T12:20:02.781Z</time>
      </trkpt>
      <trkpt lat="63.32986" lon="19.12909">
        <ele>26.277663</ele>
        <time>2020-10-02T12:20:05.781Z</time>
      </trkpt>
      <trkpt lat="63.3298" lon="19.12924">
        <ele>26.610895</ele>
        <time>2020-10-02T12:20:08.838Z</time>
      </trkpt>
      <trkpt lat="63.32971" lon="19.1294">
        <ele>27.019115</ele>
        <time>2020-10-02T12:20:12.799Z</time>
      </trkpt>
      <trkpt lat="63.3296" lon="19.12952">
        <ele>27.442488</ele>
        <time>2020-10-02T12:20:16.822Z</time>
      </trkpt>
      <trkpt lat="63.32951" lon="19.12964">
        <ele>27.812721</ele>
        <time>2020-10-02T12:20:19.820Z</time>
      </trkpt>
      <trkpt lat="63.32943" lon="19.1298">
        <ele>28.203541</ele>
        <time>2020-10-02T12:20:22.792Z</time>
      </trkpt>
      <trkpt lat="63.32934" lon="19.12993">
        <ele>28.600048</ele>
        <time>2020-10-02T12:20:25.819Z</time>
      </trkpt>
      <trkpt lat="63.32922" lon="19.13003">
        <ele>29.030109</ele>
        <time>2020-10-02T12:20:28.803Z</time>
      </trkpt>
      <trkpt lat="63.32911" lon="19.13001">
        <ele>29.418704</ele>
        <time>2020-10-02T12:20:31.773Z</time>
      </trkpt>
      <trkpt lat="63.32901" lon="19.12992">
        <ele>29.818942</ele>
        <time>2020-10-02T12:20:34.784Z</time>
      </trkpt>
      <trkpt lat="63.32891" lon="19.12979">
        <ele>30.231125</ele>
        <time>2020-10-02T12:20:37.784Z</time>
      </trkpt>
      <trkpt lat="63.3288" lon="19.1297">
        <ele>30.728665</ele>
        <time>2020-10-02T12:20:40.768Z</time>
      </trkpt>
      <trkpt lat="63.3287" lon="19.12962">
        <ele>31.371375</ele>
        <time>2020-10-02T12:20:43.786Z</time>
      </trkpt>
      <trkpt lat="63.3286" lon="19.12953">
        <ele>31.993484</ele>
        <time>2020-10-02T12:20:46.804Z</time>
      </trkpt>
      <trkpt lat="63.32851" lon="19.1294">
        <ele>32.584876</ele>
        <time>2020-10-02T12:20:49.776Z</time>
      </trkpt>
      <trkpt lat="63.32841" lon="19.1293">
        <ele>33.20368</ele>
        <time>2020-10-02T12:20:57.775Z</time>
      </trkpt>
      <trkpt lat="63.32835" lon="19.12917">
        <ele>33.730119</ele>
        <time>2020-10-02T12:21:01.824Z</time>
      </trkpt>
      <trkpt lat="63.32824" lon="19.12903">
        <ele>34.422238</ele>
        <time>2020-10-02T12:21:05.791Z</time>
      </trkpt>
      <trkpt lat="63.32816" lon="19.12896">
        <ele>34.962187</ele>
        <time>2020-10-02T12:21:07.776Z</time>
      </trkpt>
      <trkpt lat="63.32807" lon="19.12887">
        <ele>35.493758</ele>
        <time>2020-10-02T12:21:09.788Z</time>
      </trkpt>
      <trkpt lat="63.32796" lon="19.12875">
        <ele>36.234702</ele>
        <time>2020-10-02T12:21:12.774Z</time>
      </trkpt>
      <trkpt lat="63.32783" lon="19.12863">
        <ele>37.003737</ele>
        <time>2020-10-02T12:21:15.797Z</time>
      </trkpt>
      <trkpt lat="63.32771" lon="19.12853">
        <ele>37.764699</ele>
        <time>2020-10-02T12:21:18.792Z</time>
      </trkpt>
      <trkpt lat="63.32762" lon="19.12847">
        <ele>38.282124</ele>
        <time>2020-10-02T12:21:20.799Z</time>
      </trkpt>
      <trkpt lat="63.32753" lon="19.12842">
        <ele>38.801291</ele>
        <time>2020-10-02T12:21:22.777Z</time>
      </trkpt>
      <trkpt lat="63.32744" lon="19.1284">
        <ele>39.328834</ele>
        <time>2020-10-02T12:21:24.800Z</time>
      </trkpt>
      <trkpt lat="63.32735" lon="19.12838">
        <ele>39.84891</ele>
        <time>2020-10-02T12:21:26.811Z</time>
      </trkpt>
      <trkpt lat="63.32722" lon="19.12838">
        <ele>40.619438</ele>
        <time>2020-10-02T12:21:29.781Z</time>
      </trkpt>
      <trkpt lat="63.32713" lon="19.12837">
        <ele>40.638613</ele>
        <time>2020-10-02T12:21:31.787Z</time>
      </trkpt>
      <trkpt lat="63.32703" lon="19.12837">
        <ele>40.31129</ele>
        <time>2020-10-02T12:21:33.789Z</time>
      </trkpt>
      <trkpt lat="63.32693" lon="19.12835">
        <ele>39.962504</ele>
        <time>2020-10-02T12:21:35.781Z</time>
      </trkpt>
      <trkpt lat="63.32682" lon="19.12832">
        <ele>39.618665</ele>
        <time>2020-10-02T12:21:37.798Z</time>
      </trkpt>
      <trkpt lat="63.32672" lon="19.12826">
        <ele>39.261648</ele>
        <time>2020-10-02T12:21:39.791Z</time>
      </trkpt>
      <trkpt lat="63.32662" lon="19.1282">
        <ele>38.905287</ele>
        <time>2020-10-02T12:21:41.803Z</time>
      </trkpt>
      <trkpt lat="63.32652" lon="19.12815">
        <ele>38.56521</ele>
        <time>2020-10-02T12:21:43.796Z</time>
      </trkpt>
      <trkpt lat="63.32642" lon="19.12806">
        <ele>38.224066</ele>
        <time>2020-10-02T12:21:45.798Z</time>
      </trkpt>
      <trkpt lat="63.32632" lon="19.12796">
        <ele>37.860368</ele>
        <time>2020-10-02T12:21:47.788Z</time>
      </trkpt>
      <trkpt lat="63.32623" lon="19.12788">
        <ele>37.509651</ele>
        <time>2020-10-02T12:21:49.787Z</time>
      </trkpt>
      <trkpt lat="63.32613" lon="19.12779">
        <ele>37.174644</ele>
        <time>2020-10-02T12:21:51.791Z</time>
      </trkpt>
      <trkpt lat="63.32605" lon="19.1277">
        <ele>36.861578</ele>
        <time>2020-10-02T12:21:53.785Z</time>
      </trkpt>
      <trkpt lat="63.32594" lon="19.12756">
        <ele>36.42894</ele>
        <time>2020-10-02T12:21:56.788Z</time>
      </trkpt>
      <trkpt lat="63.32582" lon="19.12742">
        <ele>35.985397</ele>
        <time>2020-10-02T12:21:59.784Z</time>
      </trkpt>
      <trkpt lat="63.3257" lon="19.12728">
        <ele>35.541646</ele>
        <time>2020-10-02T12:22:02.792Z</time>
      </trkpt>
      <trkpt lat="63.32559" lon="19.12716">
        <ele>35.142865</ele>
        <time>2020-10-02T12:22:05.772Z</time>
      </trkpt>
      <trkpt lat="63.32549" lon="19.12708">
        <ele>34.789157</ele>
        <time>2020-10-02T12:22:08.822Z</time>
      </trkpt>
      <trkpt lat="63.32537" lon="19.127">
        <ele>34.599996</ele>
        <time>2020-10-02T12:22:11.794Z</time>
      </trkpt>
      <trkpt lat="63.32526" lon="19.12695">
        <ele>34.415378</ele>
        <time>2020-10-02T12:22:14.781Z</time>
      </trkpt>
      <trkpt lat="63.32513" lon="19.1269">
        <ele>34.210268</ele>
        <time>2020-10-02T12:22:17.796Z</time>
      </trkpt>
      <trkpt lat="63.32503" lon="19.12689">
        <ele>34.063743</ele>
        <time>2020-10-02T12:22:19.771Z</time>
      </trkpt>
      <trkpt lat="63.32493" lon="19.12687">
        <ele>33.906348</ele>
        <time>2020-10-02T12:22:21.788Z</time>
      </trkpt>
      <trkpt lat="63.32483" lon="19.12686">
        <ele>33.741069</ele>
        <time>2020-10-02T12:22:23.783Z</time>
      </trkpt>
      <trkpt lat="63.32472" lon="19.12685">
        <ele>33.576075</ele>
        <time>2020-10-02T12:22:25.796Z</time>
      </trkpt>
      <trkpt lat="63.32463" lon="19.12685">
        <ele>33.423702</ele>
        <time>2020-10-02T12:22:27.797Z</time>
      </trkpt>
      <trkpt lat="63.32453" lon="19.12684">
        <ele>33.277122</ele>
        <time>2020-10-02T12:22:29.784Z</time>
      </trkpt>
      <trkpt lat="63.32444" lon="19.12682">
        <ele>33.130353</ele>
        <time>2020-10-02T12:22:31.786Z</time>
      </trkpt>
      <trkpt lat="63.32435" lon="19.1268">
        <ele>32.989837</ele>
        <time>2020-10-02T12:22:33.805Z</time>
      </trkpt>
      <trkpt lat="63.32423" lon="19.12676">
        <ele>32.795052</ele>
        <time>2020-10-02T12:22:36.787Z</time>
      </trkpt>
      <trkpt lat="63.32412" lon="19.12673">
        <ele>32.625462</ele>
        <time>2020-10-02T12:22:39.781Z</time>
      </trkpt>
      <trkpt lat="63.32403" lon="19.12667">
        <ele>32.47716</ele>
        <time>2020-10-02T12:22:42.813Z</time>
      </trkpt>
      <trkpt lat="63.32394" lon="19.12663">
        <ele>32.331317</ele>
        <time>2020-10-02T12:22:45.788Z</time>
      </trkpt>
      <trkpt lat="63.32385" lon="19.12657">
        <ele>32.181199</ele>
        <time>2020-10-02T12:22:48.778Z</time>
      </trkpt>
      <trkpt lat="63.32375" lon="19.12648">
        <ele>32.021299</ele>
        <time>2020-10-02T12:22:51.776Z</time>
      </trkpt>
      <trkpt lat="63.32366" lon="19.12638">
        <ele>32.092698</ele>
        <time>2020-10-02T12:22:54.780Z</time>
      </trkpt>
      <trkpt lat="63.32355" lon="19.12629">
        <ele>32.224737</ele>
        <time>2020-10-02T12:22:57.801Z</time>
      </trkpt>
      <trkpt lat="63.32343" lon="19.12616">
        <ele>32.379313</ele>
        <time>2020-10-02T12:23:00.788Z</time>
      </trkpt>
      <trkpt lat="63.32334" lon="19.12606">
        <ele>32.490284</ele>
        <time>2020-10-02T12:23:02.798Z</time>
      </trkpt>
      <trkpt lat="63.32326" lon="19.12597">
        <ele>32.597178</ele>
        <time>2020-10-02T12:23:04.821Z</time>
      </trkpt>
      <trkpt lat="63.32318" lon="19.12587">
        <ele>32.701334</ele>
        <time>2020-10-02T12:23:06.802Z</time>
      </trkpt>
      <trkpt lat="63.32309" lon="19.12578">
        <ele>32.807873</ele>
        <time>2020-10-02T12:23:08.830Z</time>
      </trkpt>
      <trkpt lat="63.32301" lon="19.1257">
        <ele>32.912719</ele>
        <time>2020-10-02T12:23:10.782Z</time>
      </trkpt>
      <trkpt lat="63.3229" lon="19.12557">
        <ele>33.054881</ele>
        <time>2020-10-02T12:23:13.773Z</time>
      </trkpt>
      <trkpt lat="63.32279" lon="19.12544">
        <ele>33.193458</ele>
        <time>2020-10-02T12:23:16.808Z</time>
      </trkpt>
      <trkpt lat="63.32269" lon="19.12529">
        <ele>33.333066</ele>
        <time>2020-10-02T12:23:19.817Z</time>
      </trkpt>
      <trkpt lat="63.32259" lon="19.12512">
        <ele>33.478982</ele>
        <time>2020-10-02T12:23:22.810Z</time>
      </trkpt>
      <trkpt lat="63.32249" lon="19.12493">
        <ele>33.629018</ele>
        <time>2020-10-02T12:23:25.774Z</time>
      </trkpt>
      <trkpt lat="63.32242" lon="19.12477">
        <ele>33.742494</ele>
        <time>2020-10-02T12:23:27.802Z</time>
      </trkpt>
      <trkpt lat="63.32235" lon="19.12461">
        <ele>33.858301</ele>
        <time>2020-10-02T12:23:29.783Z</time>
      </trkpt>
      <trkpt lat="63.32228" lon="19.12444">
        <ele>33.976679</ele>
        <time>2020-10-02T12:23:31.803Z</time>
      </trkpt>
      <trkpt lat="63.32222" lon="19.12424">
        <ele>34.07703</ele>
        <time>2020-10-02T12:23:33.763Z</time>
      </trkpt>
      <trkpt lat="63.32217" lon="19.12403">
        <ele>34.153354</ele>
        <time>2020-10-02T12:23:35.829Z</time>
      </trkpt>
      <trkpt lat="63.32214" lon="19.1238">
        <ele>34.230353</ele>
        <time>2020-10-02T12:23:37.788Z</time>
      </trkpt>
      <trkpt lat="63.32211" lon="19.12355">
        <ele>34.31095</ele>
        <time>2020-10-02T12:23:39.778Z</time>
      </trkpt>
      <trkpt lat="63.32209" lon="19.1233">
        <ele>34.391069</ele>
        <time>2020-10-02T12:23:41.800Z</time>
      </trkpt>
      <trkpt lat="63.32206" lon="19.12307">
        <ele>34.464851</ele>
        <time>2020-10-02T12:23:43.799Z</time>
      </trkpt>
      <trkpt lat="63.32204" lon="19.12285">
        <ele>34.536316</ele>
        <time>2020-10-02T12:23:45.767Z</time>
      </trkpt>
      <trkpt lat="63.32201" lon="19.12265">
        <ele>34.603712</ele>
        <time>2020-10-02T12:23:47.811Z</time>
      </trkpt>
      <trkpt lat="63.32198" lon="19.12237">
        <ele>34.696017</ele>
        <time>2020-10-02T12:23:50.798Z</time>
      </trkpt>
      <trkpt lat="63.32196" lon="19.12211">
        <ele>34.780139</ele>
        <time>2020-10-02T12:23:53.786Z</time>
      </trkpt>
      <trkpt lat="63.32194" lon="19.12184">
        <ele>34.864107</ele>
        <time>2020-10-02T12:23:56.792Z</time>
      </trkpt>
      <trkpt lat="63.32193" lon="19.12157">
        <ele>34.949947</ele>
        <time>2020-10-02T12:23:59.783Z</time>
      </trkpt>
      <trkpt lat="63.32192" lon="19.12131">
        <ele>35.033662</ele>
        <time>2020-10-02T12:24:02.790Z</time>
      </trkpt>
      <trkpt lat="63.32191" lon="19.12106">
        <ele>35.114151</ele>
        <time>2020-10-02T12:24:05.794Z</time>
      </trkpt>
      <trkpt lat="63.32188" lon="19.12082">
        <ele>35.19309</ele>
        <time>2020-10-02T12:24:08.776Z</time>
      </trkpt>
      <trkpt lat="63.32186" lon="19.12056">
        <ele>35.275069</ele>
        <time>2020-10-02T12:24:11.782Z</time>
      </trkpt>
      <trkpt lat="63.32184" lon="19.12029">
        <ele>35.373964</ele>
        <time>2020-10-02T12:24:14.768Z</time>
      </trkpt>
      <trkpt lat="63.32181" lon="19.12003">
        <ele>35.478832</ele>
        <time>2020-10-02T12:24:17.783Z</time>
      </trkpt>
      <trkpt lat="63.32179" lon="19.11977">
        <ele>35.58421</ele>
        <time>2020-10-02T12:24:20.776Z</time>
      </trkpt>
      <trkpt lat="63.32176" lon="19.1195">
        <ele>35.690143</ele>
        <time>2020-10-02T12:24:23.779Z</time>
      </trkpt>
      <trkpt lat="63.32175" lon="19.11923">
        <ele>35.799649</ele>
        <time>2020-10-02T12:24:26.839Z</time>
      </trkpt>
      <trkpt lat="63.32175" lon="19.11895">
        <ele>35.908024</ele>
        <time>2020-10-02T12:24:29.780Z</time>
      </trkpt>
      <trkpt lat="63.32174" lon="19.11868">
        <ele>36.01573</ele>
        <time>2020-10-02T12:24:32.805Z</time>
      </trkpt>
      <trkpt lat="63.32172" lon="19.11839">
        <ele>36.129382</ele>
        <time>2020-10-02T12:24:35.815Z</time>
      </trkpt>
      <trkpt lat="63.3217" lon="19.1181">
        <ele>36.2455</ele>
        <time>2020-10-02T12:24:38.779Z</time>
      </trkpt>
      <trkpt lat="63.32168" lon="19.1179">
        <ele>36.324494</ele>
        <time>2020-10-02T12:24:40.786Z</time>
      </trkpt>
      <trkpt lat="63.32167" lon="19.1177">
        <ele>36.403727</ele>
        <time>2020-10-02T12:24:42.810Z</time>
      </trkpt>
      <trkpt lat="63.32167" lon="19.1174">
        <ele>36.519378</ele>
        <time>2020-10-02T12:24:45.783Z</time>
      </trkpt>
      <trkpt lat="63.32166" lon="19.11711">
        <ele>36.636</ele>
        <time>2020-10-02T12:24:48.811Z</time>
      </trkpt>
      <trkpt lat="63.32165" lon="19.1169">
        <ele>36.716487</ele>
        <time>2020-10-02T12:24:50.802Z</time>
      </trkpt>
      <trkpt lat="63.32163" lon="19.11669">
        <ele>36.800368</ele>
        <time>2020-10-02T12:24:52.769Z</time>
      </trkpt>
      <trkpt lat="63.32161" lon="19.11647">
        <ele>36.888806</ele>
        <time>2020-10-02T12:24:54.799Z</time>
      </trkpt>
      <trkpt lat="63.32159" lon="19.11622">
        <ele>36.948814</ele>
        <time>2020-10-02T12:24:56.799Z</time>
      </trkpt>
      <trkpt lat="63.32158" lon="19.11596">
        <ele>37.010459</ele>
        <time>2020-10-02T12:24:58.783Z</time>
      </trkpt>
      <trkpt lat="63.32156" lon="19.1157">
        <ele>37.073382</ele>
        <time>2020-10-02T12:25:00.782Z</time>
      </trkpt>
      <trkpt lat="63.32156" lon="19.11544">
        <ele>37.136011</ele>
        <time>2020-10-02T12:25:02.800Z</time>
      </trkpt>
      <trkpt lat="63.32155" lon="19.11517">
        <ele>37.199668</ele>
        <time>2020-10-02T12:25:04.786Z</time>
      </trkpt>
      <trkpt lat="63.32154" lon="19.1149">
        <ele>37.263088</ele>
        <time>2020-10-02T12:25:06.807Z</time>
      </trkpt>
      <trkpt lat="63.32153" lon="19.11466">
        <ele>37.322162</ele>
        <time>2020-10-02T12:25:08.781Z</time>
      </trkpt>
      <trkpt lat="63.32152" lon="19.11445">
        <ele>37.372694</ele>
        <time>2020-10-02T12:25:10.859Z</time>
      </trkpt>
      <trkpt lat="63.3215" lon="19.11423">
        <ele>37.425222</ele>
        <time>2020-10-02T12:25:12.817Z</time>
      </trkpt>
      <trkpt lat="63.32149" lon="19.11402">
        <ele>37.475106</ele>
        <time>2020-10-02T12:25:14.779Z</time>
      </trkpt>
      <trkpt lat="63.32149" lon="19.11381">
        <ele>37.525238</ele>
        <time>2020-10-02T12:25:16.788Z</time>
      </trkpt>
      <trkpt lat="63.3215" lon="19.11359">
        <ele>37.578434</ele>
        <time>2020-10-02T12:25:18.788Z</time>
      </trkpt>
      <trkpt lat="63.3215" lon="19.11336">
        <ele>37.63239</ele>
        <time>2020-10-02T12:25:20.796Z</time>
      </trkpt>
      <trkpt lat="63.3215" lon="19.11312">
        <ele>37.689887</ele>
        <time>2020-10-02T12:25:22.812Z</time>
      </trkpt>
      <trkpt lat="63.32149" lon="19.11287">
        <ele>37.747502</ele>
        <time>2020-10-02T12:25:24.797Z</time>
      </trkpt>
      <trkpt lat="63.32148" lon="19.11265">
        <ele>37.800694</ele>
        <time>2020-10-02T12:25:26.774Z</time>
      </trkpt>
      <trkpt lat="63.32147" lon="19.11244">
        <ele>37.829776</ele>
        <time>2020-10-02T12:25:28.801Z</time>
      </trkpt>
      <trkpt lat="63.32148" lon="19.11215">
        <ele>37.772308</ele>
        <time>2020-10-02T12:25:31.817Z</time>
      </trkpt>
      <trkpt lat="63.32149" lon="19.11195">
        <ele>37.7333</ele>
        <time>2020-10-02T12:25:33.777Z</time>
      </trkpt>
      <trkpt lat="63.32149" lon="19.11174">
        <ele>37.692114</ele>
        <time>2020-10-02T12:25:35.785Z</time>
      </trkpt>
      <trkpt lat="63.32149" lon="19.11152">
        <ele>37.650028</ele>
        <time>2020-10-02T12:25:37.802Z</time>
      </trkpt>
      <trkpt lat="63.32149" lon="19.11131">
        <ele>37.607942</ele>
        <time>2020-10-02T12:25:39.778Z</time>
      </trkpt>
      <trkpt lat="63.32149" lon="19.11109">
        <ele>37.56605</ele>
        <time>2020-10-02T12:25:41.787Z</time>
      </trkpt>
      <trkpt lat="63.32149" lon="19.11089">
        <ele>37.526301</ele>
        <time>2020-10-02T12:25:43.816Z</time>
      </trkpt>
      <trkpt lat="63.32149" lon="19.1106">
        <ele>37.469572</ele>
        <time>2020-10-02T12:25:46.778Z</time>
      </trkpt>
      <trkpt lat="63.32148" lon="19.1103">
        <ele>37.412684</ele>
        <time>2020-10-02T12:25:49.852Z</time>
      </trkpt>
      <trkpt lat="63.32147" lon="19.11002">
        <ele>37.356996</ele>
        <time>2020-10-02T12:25:52.778Z</time>
      </trkpt>
      <trkpt lat="63.32146" lon="19.10973">
        <ele>37.301234</ele>
        <time>2020-10-02T12:25:55.800Z</time>
      </trkpt>
      <trkpt lat="63.32145" lon="19.10947">
        <ele>37.248982</ele>
        <time>2020-10-02T12:25:58.804Z</time>
      </trkpt>
      <trkpt lat="63.32145" lon="19.10922">
        <ele>37.199992</ele>
        <time>2020-10-02T12:26:01.797Z</time>
      </trkpt>
      <trkpt lat="63.32144" lon="19.10898">
        <ele>37.154357</ele>
        <time>2020-10-02T12:26:04.797Z</time>
      </trkpt>
      <trkpt lat="63.32144" lon="19.10875">
        <ele>37.109866</ele>
        <time>2020-10-02T12:26:07.788Z</time>
      </trkpt>
      <trkpt lat="63.32145" lon="19.10854">
        <ele>37.066955</ele>
        <time>2020-10-02T12:26:10.768Z</time>
      </trkpt>
      <trkpt lat="63.32147" lon="19.10833">
        <ele>37.94347</ele>
        <time>2020-10-02T12:26:14.780Z</time>
      </trkpt>
      <trkpt lat="63.32149" lon="19.10814">
        <ele>39.038829</ele>
        <time>2020-10-02T12:26:20.777Z</time>
      </trkpt>
      <trkpt lat="63.32152" lon="19.10794">
        <ele>40.175126</ele>
        <time>2020-10-02T12:26:27.804Z</time>
      </trkpt>
      <trkpt lat="63.3216" lon="19.1078">
        <ele>41.322998</ele>
        <time>2020-10-02T12:26:36.788Z</time>
      </trkpt>
      <trkpt lat="63.32167" lon="19.10767">
        <ele>42.431054</ele>
        <time>2020-10-02T12:26:44.778Z</time>
      </trkpt>
      <trkpt lat="63.32175" lon="19.10752">
        <ele>43.677194</ele>
        <time>2020-10-02T12:26:50.809Z</time>
      </trkpt>
      <trkpt lat="63.32182" lon="19.10739">
        <ele>44.84288</ele>
        <time>2020-10-02T12:26:56.796Z</time>
      </trkpt>
      <trkpt lat="63.32182" lon="19.10719">
        <ele>45.919922</ele>
        <time>2020-10-02T12:27:01.803Z</time>
      </trkpt>
      <trkpt lat="63.32177" lon="19.107">
        <ele>47.087093</ele>
        <time>2020-10-02T12:27:07.764Z</time>
      </trkpt>
      <trkpt lat="63.32172" lon="19.10681">
        <ele>48.32881</ele>
        <time>2020-10-02T12:27:13.779Z</time>
      </trkpt>
      <trkpt lat="63.32167" lon="19.10663">
        <ele>49.415943</ele>
        <time>2020-10-02T12:27:18.802Z</time>
      </trkpt>
      <trkpt lat="63.32162" lon="19.10642">
        <ele>50.683632</ele>
        <time>2020-10-02T12:27:24.773Z</time>
      </trkpt>
      <trkpt lat="63.32158" lon="19.10624">
        <ele>51.814025</ele>
        <time>2020-10-02T12:27:29.783Z</time>
      </trkpt>
      <trkpt lat="63.32153" lon="19.10603">
        <ele>53.102568</ele>
        <time>2020-10-02T12:27:35.768Z</time>
      </trkpt>
      <trkpt lat="63.32149" lon="19.10582">
        <ele>54.291185</ele>
        <time>2020-10-02T12:27:41.795Z</time>
      </trkpt>
      <trkpt lat="63.32145" lon="19.10561">
        <ele>55.515179</ele>
        <time>2020-10-02T12:27:47.796Z</time>
      </trkpt>
      <trkpt lat="63.3214" lon="19.10543">
        <ele>56.643258</ele>
        <time>2020-10-02T12:27:52.809Z</time>
      </trkpt>
      <trkpt lat="63.32135" lon="19.10527">
        <ele>57.717334</ele>
        <time>2020-10-02T12:27:57.796Z</time>
      </trkpt>
      <trkpt lat="63.32131" lon="19.10507">
        <ele>58.685277</ele>
        <time>2020-10-02T12:28:02.786Z</time>
      </trkpt>
      <trkpt lat="63.32126" lon="19.10491">
        <ele>58.935483</ele>
        <time>2020-10-02T12:28:06.789Z</time>
      </trkpt>
      <trkpt lat="63.3212" lon="19.10473">
        <ele>59.217827</ele>
        <time>2020-10-02T12:28:11.802Z</time>
      </trkpt>
      <trkpt lat="63.32116" lon="19.10452">
        <ele>59.504518</ele>
        <time>2020-10-02T12:28:16.789Z</time>
      </trkpt>
      <trkpt lat="63.32109" lon="19.10433">
        <ele>59.805728</ele>
        <time>2020-10-02T12:28:21.782Z</time>
      </trkpt>
      <trkpt lat="63.321" lon="19.10418">
        <ele>60.118905</ele>
        <time>2020-10-02T12:28:26.781Z</time>
      </trkpt>
      <trkpt lat="63.32094" lon="19.10404">
        <ele>60.370518</ele>
        <time>2020-10-02T12:28:30.813Z</time>
      </trkpt>
      <trkpt lat="63.32087" lon="19.10387">
        <ele>60.654309</ele>
        <time>2020-10-02T12:28:34.783Z</time>
      </trkpt>
      <trkpt lat="63.32081" lon="19.1037">
        <ele>60.933828</ele>
        <time>2020-10-02T12:28:38.788Z</time>
      </trkpt>
      <trkpt lat="63.32073" lon="19.10354">
        <ele>61.227662</ele>
        <time>2020-10-02T12:28:42.800Z</time>
      </trkpt>
      <trkpt lat="63.32065" lon="19.10335">
        <ele>61.559543</ele>
        <time>2020-10-02T12:28:46.773Z</time>
      </trkpt>
      <trkpt lat="63.32059" lon="19.10315">
        <ele>61.856031</ele>
        <time>2020-10-02T12:28:50.785Z</time>
      </trkpt>
      <trkpt lat="63.32054" lon="19.10297">
        <ele>62.117993</ele>
        <time>2020-10-02T12:28:54.803Z</time>
      </trkpt>
      <trkpt lat="63.32049" lon="19.10275">
        <ele>62.44098</ele>
        <time>2020-10-02T12:28:58.800Z</time>
      </trkpt>
      <trkpt lat="63.32045" lon="19.10256">
        <ele>62.692143</ele>
        <time>2020-10-02T12:29:01.795Z</time>
      </trkpt>
      <trkpt lat="63.32043" lon="19.10236">
        <ele>62.953982</ele>
        <time>2020-10-02T12:29:04.818Z</time>
      </trkpt>
      <trkpt lat="63.32042" lon="19.10215">
        <ele>63.217845</ele>
        <time>2020-10-02T12:29:07.784Z</time>
      </trkpt>
      <trkpt lat="63.3204" lon="19.10195">
        <ele>63.479282</ele>
        <time>2020-10-02T12:29:10.797Z</time>
      </trkpt>
      <trkpt lat="63.32039" lon="19.1017">
        <ele>63.643998</ele>
        <time>2020-10-02T12:29:14.791Z</time>
      </trkpt>
      <trkpt lat="63.32039" lon="19.1015">
        <ele>63.611129</ele>
        <time>2020-10-02T12:29:17.788Z</time>
      </trkpt>
      <trkpt lat="63.32039" lon="19.10129">
        <ele>63.577746</ele>
        <time>2020-10-02T12:29:20.817Z</time>
      </trkpt>
      <trkpt lat="63.32039" lon="19.10107">
        <ele>63.542128</ele>
        <time>2020-10-02T12:29:23.802Z</time>
      </trkpt>
      <trkpt lat="63.32038" lon="19.10086">
        <ele>63.508044</ele>
        <time>2020-10-02T12:29:26.797Z</time>
      </trkpt>
      <trkpt lat="63.32035" lon="19.10067">
        <ele>63.475336</ele>
        <time>2020-10-02T12:29:29.782Z</time>
      </trkpt>
      <trkpt lat="63.3203" lon="19.10045">
        <ele>63.434704</ele>
        <time>2020-10-02T12:29:33.779Z</time>
      </trkpt>
      <trkpt lat="63.32024" lon="19.10024">
        <ele>63.39675</ele>
        <time>2020-10-02T12:29:37.788Z</time>
      </trkpt>
      <trkpt lat="63.32017" lon="19.10002">
        <ele>63.353402</ele>
        <time>2020-10-02T12:29:41.778Z</time>
      </trkpt>
      <trkpt lat="63.3201" lon="19.09985">
        <ele>63.315895</ele>
        <time>2020-10-02T12:29:44.792Z</time>
      </trkpt>
      <trkpt lat="63.32003" lon="19.09969">
        <ele>63.27998</ele>
        <time>2020-10-02T12:29:47.796Z</time>
      </trkpt>
      <trkpt lat="63.31995" lon="19.09957">
        <ele>63.245423</ele>
        <time>2020-10-02T12:29:50.788Z</time>
      </trkpt>
      <trkpt lat="63.31988" lon="19.09945">
        <ele>63.212102</ele>
        <time>2020-10-02T12:29:53.798Z</time>
      </trkpt>
      <trkpt lat="63.31981" lon="19.09933">
        <ele>63.179849</ele>
        <time>2020-10-02T12:29:56.804Z</time>
      </trkpt>
      <trkpt lat="63.31972" lon="19.09919">
        <ele>63.140568</ele>
        <time>2020-10-02T12:30:00.805Z</time>
      </trkpt>
      <trkpt lat="63.31963" lon="19.09903">
        <ele>63.100859</ele>
        <time>2020-10-02T12:30:04.792Z</time>
      </trkpt>
      <trkpt lat="63.31955" lon="19.09885">
        <ele>63.060159</ele>
        <time>2020-10-02T12:30:08.794Z</time>
      </trkpt>
      <trkpt lat="63.31948" lon="19.09872">
        <ele>63.026333</ele>
        <time>2020-10-02T12:30:11.800Z</time>
      </trkpt>
      <trkpt lat="63.31941" lon="19.09855">
        <ele>62.794053</ele>
        <time>2020-10-02T12:30:14.818Z</time>
      </trkpt>
      <trkpt lat="63.31934" lon="19.09835">
        <ele>62.464191</ele>
        <time>2020-10-02T12:30:17.780Z</time>
      </trkpt>
      <trkpt lat="63.31928" lon="19.09813">
        <ele>62.113696</ele>
        <time>2020-10-02T12:30:20.851Z</time>
      </trkpt>
      <trkpt lat="63.31921" lon="19.09788">
        <ele>61.705005</ele>
        <time>2020-10-02T12:30:23.781Z</time>
      </trkpt>
      <trkpt lat="63.31915" lon="19.0977">
        <ele>61.413227</ele>
        <time>2020-10-02T12:30:25.790Z</time>
      </trkpt>
      <trkpt lat="63.31911" lon="19.09751">
        <ele>61.126255</ele>
        <time>2020-10-02T12:30:27.798Z</time>
      </trkpt>
      <trkpt lat="63.31907" lon="19.09733">
        <ele>60.849523</ele>
        <time>2020-10-02T12:30:29.795Z</time>
      </trkpt>
      <trkpt lat="63.319" lon="19.09708">
        <ele>60.455617</ele>
        <time>2020-10-02T12:30:32.776Z</time>
      </trkpt>
      <trkpt lat="63.31893" lon="19.09685">
        <ele>60.071966</ele>
        <time>2020-10-02T12:30:35.828Z</time>
      </trkpt>
      <trkpt lat="63.31887" lon="19.09665">
        <ele>59.739916</ele>
        <time>2020-10-02T12:30:38.796Z</time>
      </trkpt>
      <trkpt lat="63.31879" lon="19.09648">
        <ele>59.422376</ele>
        <time>2020-10-02T12:30:41.803Z</time>
      </trkpt>
      <trkpt lat="63.3187" lon="19.09631">
        <ele>59.045614</ele>
        <time>2020-10-02T12:30:44.804Z</time>
      </trkpt>
      <trkpt lat="63.31858" lon="19.09618">
        <ele>58.657573</ele>
        <time>2020-10-02T12:30:47.791Z</time>
      </trkpt>
      <trkpt lat="63.31849" lon="19.0961">
        <ele>58.361685</ele>
        <time>2020-10-02T12:30:49.818Z</time>
      </trkpt>
      <trkpt lat="63.3184" lon="19.09605">
        <ele>58.079735</ele>
        <time>2020-10-02T12:30:51.798Z</time>
      </trkpt>
      <trkpt lat="63.31831" lon="19.096">
        <ele>57.789352</ele>
        <time>2020-10-02T12:30:53.780Z</time>
      </trkpt>
      <trkpt lat="63.31821" lon="19.09594">
        <ele>57.465965</ele>
        <time>2020-10-02T12:30:55.789Z</time>
      </trkpt>
      <trkpt lat="63.31811" lon="19.09589">
        <ele>57.094091</ele>
        <time>2020-10-02T12:30:57.781Z</time>
      </trkpt>
      <trkpt lat="63.31801" lon="19.09584">
        <ele>56.727788</ele>
        <time>2020-10-02T12:30:59.769Z</time>
      </trkpt>
      <trkpt lat="63.31791" lon="19.09579">
        <ele>56.378687</ele>
        <time>2020-10-02T12:31:01.816Z</time>
      </trkpt>
      <trkpt lat="63.31782" lon="19.09573">
        <ele>56.010627</ele>
        <time>2020-10-02T12:31:03.788Z</time>
      </trkpt>
      <trkpt lat="63.31772" lon="19.09568">
        <ele>55.645367</ele>
        <time>2020-10-02T12:31:05.798Z</time>
      </trkpt>
      <trkpt lat="63.31762" lon="19.09561">
        <ele>55.274187</ele>
        <time>2020-10-02T12:31:07.779Z</time>
      </trkpt>
      <trkpt lat="63.31752" lon="19.09556">
        <ele>54.900809</ele>
        <time>2020-10-02T12:31:09.776Z</time>
      </trkpt>
      <trkpt lat="63.31742" lon="19.09551">
        <ele>54.557605</ele>
        <time>2020-10-02T12:31:11.796Z</time>
      </trkpt>
      <trkpt lat="63.31733" lon="19.09546">
        <ele>54.212004</ele>
        <time>2020-10-02T12:31:13.793Z</time>
      </trkpt>
      <trkpt lat="63.31724" lon="19.09541">
        <ele>53.863758</ele>
        <time>2020-10-02T12:31:15.825Z</time>
      </trkpt>
      <trkpt lat="63.31714" lon="19.09534">
        <ele>53.516527</ele>
        <time>2020-10-02T12:31:17.799Z</time>
      </trkpt>
      <trkpt lat="63.31705" lon="19.09528">
        <ele>53.171714</ele>
        <time>2020-10-02T12:31:19.825Z</time>
      </trkpt>
      <trkpt lat="63.31696" lon="19.09522">
        <ele>52.82223</ele>
        <time>2020-10-02T12:31:21.782Z</time>
      </trkpt>
      <trkpt lat="63.31687" lon="19.09516">
        <ele>52.479664</ele>
        <time>2020-10-02T12:31:23.776Z</time>
      </trkpt>
      <trkpt lat="63.31677" lon="19.09512">
        <ele>52.130561</ele>
        <time>2020-10-02T12:31:25.789Z</time>
      </trkpt>
      <trkpt lat="63.31668" lon="19.09506">
        <ele>51.78191</ele>
        <time>2020-10-02T12:31:27.796Z</time>
      </trkpt>
      <trkpt lat="63.31658" lon="19.09501">
        <ele>51.442191</ele>
        <time>2020-10-02T12:31:29.781Z</time>
      </trkpt>
      <trkpt lat="63.31645" lon="19.09494">
        <ele>51.431296</ele>
        <time>2020-10-02T12:31:32.796Z</time>
      </trkpt>
      <trkpt lat="63.31633" lon="19.09488">
        <ele>52.328149</ele>
        <time>2020-10-02T12:31:35.802Z</time>
      </trkpt>
      <trkpt lat="63.31621" lon="19.0948">
        <ele>53.162298</ele>
        <time>2020-10-02T12:31:38.787Z</time>
      </trkpt>
      <trkpt lat="63.3161" lon="19.09475">
        <ele>53.945436</ele>
        <time>2020-10-02T12:31:41.811Z</time>
      </trkpt>
      <trkpt lat="63.316" lon="19.0947">
        <ele>54.701911</ele>
        <time>2020-10-02T12:31:44.809Z</time>
      </trkpt>
      <trkpt lat="63.3159" lon="19.09465">
        <ele>55.43933</ele>
        <time>2020-10-02T12:31:47.819Z</time>
      </trkpt>
      <trkpt lat="63.3158" lon="19.0946">
        <ele>56.108198</ele>
        <time>2020-10-02T12:31:50.818Z</time>
      </trkpt>
      <trkpt lat="63.31571" lon="19.09453">
        <ele>56.809044</ele>
        <time>2020-10-02T12:31:53.777Z</time>
      </trkpt>
      <trkpt lat="63.3156" lon="19.09448">
        <ele>57.581859</ele>
        <time>2020-10-02T12:31:56.805Z</time>
      </trkpt>
      <trkpt lat="63.3155" lon="19.09441">
        <ele>58.309413</ele>
        <time>2020-10-02T12:31:59.818Z</time>
      </trkpt>
      <trkpt lat="63.3154" lon="19.09435">
        <ele>59.039402</ele>
        <time>2020-10-02T12:32:02.793Z</time>
      </trkpt>
      <trkpt lat="63.31529" lon="19.09429">
        <ele>59.807587</ele>
        <time>2020-10-02T12:32:05.799Z</time>
      </trkpt>
      <trkpt lat="63.31519" lon="19.09423">
        <ele>60.557001</ele>
        <time>2020-10-02T12:32:08.794Z</time>
      </trkpt>
      <trkpt lat="63.31508" lon="19.09417">
        <ele>61.324776</ele>
        <time>2020-10-02T12:32:11.815Z</time>
      </trkpt>
      <trkpt lat="63.31498" lon="19.09411">
        <ele>62.020015</ele>
        <time>2020-10-02T12:32:14.782Z</time>
      </trkpt>
      <trkpt lat="63.31489" lon="19.09407">
        <ele>62.711822</ele>
        <time>2020-10-02T12:32:17.781Z</time>
      </trkpt>
      <trkpt lat="63.31477" lon="19.09402">
        <ele>63.510536</ele>
        <time>2020-10-02T12:32:21.777Z</time>
      </trkpt>
      <trkpt lat="63.31468" lon="19.09396">
        <ele>64.180191</ele>
        <time>2020-10-02T12:32:25.798Z</time>
      </trkpt>
      <trkpt lat="63.31459" lon="19.0939">
        <ele>64.846444</ele>
        <time>2020-10-02T12:32:29.796Z</time>
      </trkpt>
      <trkpt lat="63.3145" lon="19.09385">
        <ele>65.478399</ele>
        <time>2020-10-02T12:32:33.783Z</time>
      </trkpt>
      <trkpt lat="63.3144" lon="19.09379">
        <ele>66.232243</ele>
        <time>2020-10-02T12:32:38.800Z</time>
      </trkpt>
      <trkpt lat="63.3143" lon="19.09374">
        <ele>66.938088</ele>
        <time>2020-10-02T12:32:43.789Z</time>
      </trkpt>
      <trkpt lat="63.3142" lon="19.0937">
        <ele>67.620839</ele>
        <time>2020-10-02T12:32:48.776Z</time>
      </trkpt>
      <trkpt lat="63.3141" lon="19.09362">
        <ele>68.344411</ele>
        <time>2020-10-02T12:32:54.815Z</time>
      </trkpt>
      <trkpt lat="63.31401" lon="19.09357">
        <ele>69.014373</ele>
        <time>2020-10-02T12:32:59.784Z</time>
      </trkpt>
      <trkpt lat="63.31391" lon="19.09351">
        <ele>69.740455</ele>
        <time>2020-10-02T12:33:05.805Z</time>
      </trkpt>
      <trkpt lat="63.3138" lon="19.09344">
        <ele>70.47657</ele>
        <time>2020-10-02T12:33:11.776Z</time>
      </trkpt>
      <trkpt lat="63.31371" lon="19.09338">
        <ele>71.18114</ele>
        <time>2020-10-02T12:33:17.789Z</time>
      </trkpt>
      <trkpt lat="63.31361" lon="19.09333">
        <ele>71.835474</ele>
        <time>2020-10-02T12:33:22.783Z</time>
      </trkpt>
      <trkpt lat="63.31351" lon="19.09327">
        <ele>72.563427</ele>
        <time>2020-10-02T12:33:28.786Z</time>
      </trkpt>
      <trkpt lat="63.31342" lon="19.0932">
        <ele>73.23541</ele>
        <time>2020-10-02T12:33:33.781Z</time>
      </trkpt>
      <trkpt lat="63.31333" lon="19.09314">
        <ele>73.905457</ele>
        <time>2020-10-02T12:33:38.795Z</time>
      </trkpt>
      <trkpt lat="63.31323" lon="19.0931">
        <ele>74.574559</ele>
        <time>2020-10-02T12:33:43.816Z</time>
      </trkpt>
      <trkpt lat="63.31314" lon="19.09305">
        <ele>75.222849</ele>
        <time>2020-10-02T12:33:47.784Z</time>
      </trkpt>
      <trkpt lat="63.31305" lon="19.093">
        <ele>75.877184</ele>
        <time>2020-10-02T12:33:51.785Z</time>
      </trkpt>
      <trkpt lat="63.31296" lon="19.09294">
        <ele>75.839664</ele>
        <time>2020-10-02T12:33:55.772Z</time>
      </trkpt>
      <trkpt lat="63.31287" lon="19.09287">
        <ele>75.386801</ele>
        <time>2020-10-02T12:33:58.818Z</time>
      </trkpt>
      <trkpt lat="63.31278" lon="19.0928">
        <ele>74.898296</ele>
        <time>2020-10-02T12:34:01.779Z</time>
      </trkpt>
      <trkpt lat="63.31268" lon="19.09273">
        <ele>74.404767</ele>
        <time>2020-10-02T12:34:04.839Z</time>
      </trkpt>
      <trkpt lat="63.31257" lon="19.09265">
        <ele>73.82064</ele>
        <time>2020-10-02T12:34:08.794Z</time>
      </trkpt>
      <trkpt lat="63.31249" lon="19.09258">
        <ele>73.37104</ele>
        <time>2020-10-02T12:34:11.777Z</time>
      </trkpt>
      <trkpt lat="63.31239" lon="19.0925">
        <ele>72.891444</ele>
        <time>2020-10-02T12:34:14.777Z</time>
      </trkpt>
      <trkpt lat="63.31229" lon="19.09241">
        <ele>72.332411</ele>
        <time>2020-10-02T12:34:17.801Z</time>
      </trkpt>
      <trkpt lat="63.31217" lon="19.0923">
        <ele>71.71219</ele>
        <time>2020-10-02T12:34:20.809Z</time>
      </trkpt>
      <trkpt lat="63.31209" lon="19.09223">
        <ele>71.2611</ele>
        <time>2020-10-02T12:34:22.781Z</time>
      </trkpt>
      <trkpt lat="63.312" lon="19.09215">
        <ele>70.769125</ele>
        <time>2020-10-02T12:34:24.799Z</time>
      </trkpt>
      <trkpt lat="63.31189" lon="19.09207">
        <ele>70.240751</ele>
        <time>2020-10-02T12:34:26.796Z</time>
      </trkpt>
      <trkpt lat="63.31179" lon="19.09199">
        <ele>69.679245</ele>
        <time>2020-10-02T12:34:28.814Z</time>
      </trkpt>
      <trkpt lat="63.31167" lon="19.09189">
        <ele>69.071432</ele>
        <time>2020-10-02T12:34:30.811Z</time>
      </trkpt>
      <trkpt lat="63.31155" lon="19.09179">
        <ele>68.424154</ele>
        <time>2020-10-02T12:34:32.818Z</time>
      </trkpt>
      <trkpt lat="63.31143" lon="19.09168">
        <ele>67.780828</ele>
        <time>2020-10-02T12:34:34.790Z</time>
      </trkpt>
      <trkpt lat="63.31131" lon="19.09157">
        <ele>67.179562</ele>
        <time>2020-10-02T12:34:36.811Z</time>
      </trkpt>
      <trkpt lat="63.31119" lon="19.09144">
        <ele>66.793218</ele>
        <time>2020-10-02T12:34:38.820Z</time>
      </trkpt>
      <trkpt lat="63.31107" lon="19.09129">
        <ele>66.399839</ele>
        <time>2020-10-02T12:34:40.808Z</time>
      </trkpt>
      <trkpt lat="63.31095" lon="19.09113">
        <ele>66.000497</ele>
        <time>2020-10-02T12:34:42.817Z</time>
      </trkpt>
      <trkpt lat="63.31083" lon="19.09096">
        <ele>65.606949</ele>
        <time>2020-10-02T12:34:44.792Z</time>
      </trkpt>
      <trkpt lat="63.31072" lon="19.09078">
        <ele>65.218406</ele>
        <time>2020-10-02T12:34:46.776Z</time>
      </trkpt>
      <trkpt lat="63.31062" lon="19.09059">
        <ele>64.828795</ele>
        <time>2020-10-02T12:34:48.783Z</time>
      </trkpt>
      <trkpt lat="63.31052" lon="19.0904">
        <ele>64.453526</ele>
        <time>2020-10-02T12:34:50.781Z</time>
      </trkpt>
      <trkpt lat="63.31042" lon="19.09023">
        <ele>64.08857</ele>
        <time>2020-10-02T12:34:52.803Z</time>
      </trkpt>
      <trkpt lat="63.31032" lon="19.09004">
        <ele>63.716325</ele>
        <time>2020-10-02T12:34:54.825Z</time>
      </trkpt>
      <trkpt lat="63.31022" lon="19.08985">
        <ele>63.351567</ele>
        <time>2020-10-02T12:34:56.775Z</time>
      </trkpt>
      <trkpt lat="63.31013" lon="19.08968">
        <ele>63.0099</ele>
        <time>2020-10-02T12:34:58.779Z</time>
      </trkpt>
      <trkpt lat="63.31004" lon="19.0895">
        <ele>62.665121</ele>
        <time>2020-10-02T12:35:00.794Z</time>
      </trkpt>
      <trkpt lat="63.30994" lon="19.08934">
        <ele>62.299559</ele>
        <time>2020-10-02T12:35:02.788Z</time>
      </trkpt>
      <trkpt lat="63.30983" lon="19.08915">
        <ele>61.943069</ele>
        <time>2020-10-02T12:35:04.804Z</time>
      </trkpt>
      <trkpt lat="63.30971" lon="19.08895">
        <ele>61.605876</ele>
        <time>2020-10-02T12:35:06.792Z</time>
      </trkpt>
      <trkpt lat="63.30958" lon="19.08873">
        <ele>61.23023</ele>
        <time>2020-10-02T12:35:08.822Z</time>
      </trkpt>
      <trkpt lat="63.30944" lon="19.0885">
        <ele>60.841206</ele>
        <time>2020-10-02T12:35:10.799Z</time>
      </trkpt>
      <trkpt lat="63.3093" lon="19.0883">
        <ele>60.466502</ele>
        <time>2020-10-02T12:35:12.791Z</time>
      </trkpt>
      <trkpt lat="63.30918" lon="19.08811">
        <ele>60.126757</ele>
        <time>2020-10-02T12:35:14.790Z</time>
      </trkpt>
      <trkpt lat="63.30907" lon="19.08794">
        <ele>59.819853</ele>
        <time>2020-10-02T12:35:16.803Z</time>
      </trkpt>
      <trkpt lat="63.30897" lon="19.08778">
        <ele>59.5355</ele>
        <time>2020-10-02T12:35:18.807Z</time>
      </trkpt>
      <trkpt lat="63.30886" lon="19.08762">
        <ele>59.246362</ele>
        <time>2020-10-02T12:35:20.795Z</time>
      </trkpt>
      <trkpt lat="63.30877" lon="19.08747">
        <ele>58.974871</ele>
        <time>2020-10-02T12:35:22.782Z</time>
      </trkpt>
      <trkpt lat="63.30868" lon="19.08734">
        <ele>58.72857</ele>
        <time>2020-10-02T12:35:24.794Z</time>
      </trkpt>
      <trkpt lat="63.30858" lon="19.08722">
        <ele>58.477635</ele>
        <time>2020-10-02T12:35:26.823Z</time>
      </trkpt>
      <trkpt lat="63.30848" lon="19.08712">
        <ele>58.224451</ele>
        <time>2020-10-02T12:35:28.790Z</time>
      </trkpt>
      <trkpt lat="63.30838" lon="19.08702">
        <ele>57.934525</ele>
        <time>2020-10-02T12:35:30.798Z</time>
      </trkpt>
      <trkpt lat="63.30827" lon="19.08695">
        <ele>57.279239</ele>
        <time>2020-10-02T12:35:32.824Z</time>
      </trkpt>
      <trkpt lat="63.30817" lon="19.0869">
        <ele>56.638564</ele>
        <time>2020-10-02T12:35:34.853Z</time>
      </trkpt>
      <trkpt lat="63.30807" lon="19.08687">
        <ele>55.992499</ele>
        <time>2020-10-02T12:35:36.784Z</time>
      </trkpt>
      <trkpt lat="63.30796" lon="19.08685">
        <ele>55.33487</ele>
        <time>2020-10-02T12:35:38.877Z</time>
      </trkpt>
      <trkpt lat="63.30784" lon="19.08684">
        <ele>54.647865</ele>
        <time>2020-10-02T12:35:40.795Z</time>
      </trkpt>
      <trkpt lat="63.30773" lon="19.08684">
        <ele>53.967066</ele>
        <time>2020-10-02T12:35:42.800Z</time>
      </trkpt>
      <trkpt lat="63.30762" lon="19.08683">
        <ele>53.304276</ele>
        <time>2020-10-02T12:35:44.789Z</time>
      </trkpt>
      <trkpt lat="63.30752" lon="19.08683">
        <ele>52.653909</ele>
        <time>2020-10-02T12:35:46.777Z</time>
      </trkpt>
      <trkpt lat="63.30741" lon="19.08684">
        <ele>52.021771</ele>
        <time>2020-10-02T12:35:48.854Z</time>
      </trkpt>
      <trkpt lat="63.3073" lon="19.08684">
        <ele>51.365413</ele>
        <time>2020-10-02T12:35:50.781Z</time>
      </trkpt>
      <trkpt lat="63.30719" lon="19.08683">
        <ele>50.690558</ele>
        <time>2020-10-02T12:35:52.779Z</time>
      </trkpt>
      <trkpt lat="63.30708" lon="19.08682">
        <ele>50.003162</ele>
        <time>2020-10-02T12:35:54.812Z</time>
      </trkpt>
      <trkpt lat="63.30697" lon="19.08682">
        <ele>49.340682</ele>
        <time>2020-10-02T12:35:56.819Z</time>
      </trkpt>
      <trkpt lat="63.30687" lon="19.08683">
        <ele>48.726816</ele>
        <time>2020-10-02T12:35:58.796Z</time>
      </trkpt>
      <trkpt lat="63.30677" lon="19.08683">
        <ele>48.094749</ele>
        <time>2020-10-02T12:36:00.786Z</time>
      </trkpt>
      <trkpt lat="63.30666" lon="19.08683">
        <ele>47.456622</ele>
        <time>2020-10-02T12:36:02.794Z</time>
      </trkpt>
      <trkpt lat="63.30656" lon="19.08682">
        <ele>47.160391</ele>
        <time>2020-10-02T12:36:04.782Z</time>
      </trkpt>
      <trkpt lat="63.30647" lon="19.08681">
        <ele>47.377835</ele>
        <time>2020-10-02T12:36:06.801Z</time>
      </trkpt>
      <trkpt lat="63.30633" lon="19.08681">
        <ele>47.7015</ele>
        <time>2020-10-02T12:36:09.800Z</time>
      </trkpt>
      <trkpt lat="63.30624" lon="19.08681">
        <ele>47.923578</ele>
        <time>2020-10-02T12:36:11.785Z</time>
      </trkpt>
      <trkpt lat="63.30614" lon="19.0868">
        <ele>48.153038</ele>
        <time>2020-10-02T12:36:13.803Z</time>
      </trkpt>
      <trkpt lat="63.30603" lon="19.0868">
        <ele>48.410585</ele>
        <time>2020-10-02T12:36:15.818Z</time>
      </trkpt>
      <trkpt lat="63.30593" lon="19.08679">
        <ele>48.649314</ele>
        <time>2020-10-02T12:36:17.786Z</time>
      </trkpt>
      <trkpt lat="63.30583" lon="19.08678">
        <ele>48.890404</ele>
        <time>2020-10-02T12:36:19.884Z</time>
      </trkpt>
      <trkpt lat="63.30573" lon="19.08678">
        <ele>49.124294</ele>
        <time>2020-10-02T12:36:21.785Z</time>
      </trkpt>
      <trkpt lat="63.30563" lon="19.08679">
        <ele>49.351295</ele>
        <time>2020-10-02T12:36:23.806Z</time>
      </trkpt>
      <trkpt lat="63.30554" lon="19.08679">
        <ele>49.578096</ele>
        <time>2020-10-02T12:36:25.802Z</time>
      </trkpt>
      <trkpt lat="63.30544" lon="19.08679">
        <ele>49.802536</ele>
        <time>2020-10-02T12:36:27.794Z</time>
      </trkpt>
      <trkpt lat="63.30534" lon="19.08678">
        <ele>50.036619</ele>
        <time>2020-10-02T12:36:29.793Z</time>
      </trkpt>
      <trkpt lat="63.30525" lon="19.08678">
        <ele>50.253969</ele>
        <time>2020-10-02T12:36:31.786Z</time>
      </trkpt>
      <trkpt lat="63.30515" lon="19.08677">
        <ele>50.495281</ele>
        <time>2020-10-02T12:36:33.796Z</time>
      </trkpt>
      <trkpt lat="63.30504" lon="19.08676">
        <ele>50.760139</ele>
        <time>2020-10-02T12:36:35.779Z</time>
      </trkpt>
      <trkpt lat="63.30492" lon="19.08674">
        <ele>51.041925</ele>
        <time>2020-10-02T12:36:37.780Z</time>
      </trkpt>
      <trkpt lat="63.3048" lon="19.08674">
        <ele>51.299846</ele>
        <time>2020-10-02T12:36:39.788Z</time>
      </trkpt>
      <trkpt lat="63.30467" lon="19.08674">
        <ele>50.806532</ele>
        <time>2020-10-02T12:36:41.812Z</time>
      </trkpt>
      <trkpt lat="63.30456" lon="19.08673">
        <ele>50.353565</ele>
        <time>2020-10-02T12:36:43.781Z</time>
      </trkpt>
      <trkpt lat="63.30445" lon="19.08673">
        <ele>49.92072</ele>
        <time>2020-10-02T12:36:45.839Z</time>
      </trkpt>
      <trkpt lat="63.30436" lon="19.08672">
        <ele>49.52395</ele>
        <time>2020-10-02T12:36:47.796Z</time>
      </trkpt>
      <trkpt lat="63.30426" lon="19.08671">
        <ele>49.11956</ele>
        <time>2020-10-02T12:36:49.784Z</time>
      </trkpt>
      <trkpt lat="63.30416" lon="19.08671">
        <ele>48.715007</ele>
        <time>2020-10-02T12:36:51.802Z</time>
      </trkpt>
      <trkpt lat="63.30406" lon="19.08669">
        <ele>48.338428</ele>
        <time>2020-10-02T12:36:53.809Z</time>
      </trkpt>
      <trkpt lat="63.30397" lon="19.08669">
        <ele>47.978329</ele>
        <time>2020-10-02T12:36:55.816Z</time>
      </trkpt>
      <trkpt lat="63.30385" lon="19.08667">
        <ele>47.467676</ele>
        <time>2020-10-02T12:36:58.792Z</time>
      </trkpt>
      <trkpt lat="63.30373" lon="19.08666">
        <ele>46.994527</ele>
        <time>2020-10-02T12:37:01.820Z</time>
      </trkpt>
      <trkpt lat="63.30361" lon="19.08665">
        <ele>46.496323</ele>
        <time>2020-10-02T12:37:04.822Z</time>
      </trkpt>
      <trkpt lat="63.30349" lon="19.08663">
        <ele>46.022446</ele>
        <time>2020-10-02T12:37:07.776Z</time>
      </trkpt>
      <trkpt lat="63.30337" lon="19.08664">
        <ele>45.525061</ele>
        <time>2020-10-02T12:37:10.781Z</time>
      </trkpt>
      <trkpt lat="63.30325" lon="19.08664">
        <ele>45.027704</ele>
        <time>2020-10-02T12:37:13.796Z</time>
      </trkpt>
      <trkpt lat="63.30312" lon="19.08663">
        <ele>44.522233</ele>
        <time>2020-10-02T12:37:16.798Z</time>
      </trkpt>
      <trkpt lat="63.30303" lon="19.08663">
        <ele>44.154267</ele>
        <time>2020-10-02T12:37:18.787Z</time>
      </trkpt>
      <trkpt lat="63.30293" lon="19.08663">
        <ele>44.027642</ele>
        <time>2020-10-02T12:37:20.793Z</time>
      </trkpt>
      <trkpt lat="63.30283" lon="19.08662">
        <ele>44.000704</ele>
        <time>2020-10-02T12:37:22.836Z</time>
      </trkpt>
      <trkpt lat="63.30272" lon="19.08663">
        <ele>43.971371</ele>
        <time>2020-10-02T12:37:24.801Z</time>
      </trkpt>
      <trkpt lat="63.30261" lon="19.08661">
        <ele>43.942263</ele>
        <time>2020-10-02T12:37:26.801Z</time>
      </trkpt>
      <trkpt lat="63.30249" lon="19.08659">
        <ele>43.910406</ele>
        <time>2020-10-02T12:37:28.865Z</time>
      </trkpt>
      <trkpt lat="63.30237" lon="19.08655">
        <ele>43.877827</ele>
        <time>2020-10-02T12:37:30.816Z</time>
      </trkpt>
      <trkpt lat="63.30226" lon="19.08649">
        <ele>43.845906</ele>
        <time>2020-10-02T12:37:32.820Z</time>
      </trkpt>
      <trkpt lat="63.30214" lon="19.08639">
        <ele>43.812619</ele>
        <time>2020-10-02T12:37:34.793Z</time>
      </trkpt>
      <trkpt lat="63.30202" lon="19.08627">
        <ele>43.77852</ele>
        <time>2020-10-02T12:37:36.813Z</time>
      </trkpt>
      <trkpt lat="63.30191" lon="19.08615">
        <ele>43.744503</ele>
        <time>2020-10-02T12:37:38.784Z</time>
      </trkpt>
      <trkpt lat="63.3018" lon="19.08602">
        <ele>43.710807</ele>
        <time>2020-10-02T12:37:40.791Z</time>
      </trkpt>
      <trkpt lat="63.30168" lon="19.08589">
        <ele>43.675616</ele>
        <time>2020-10-02T12:37:42.793Z</time>
      </trkpt>
      <trkpt lat="63.30156" lon="19.08573">
        <ele>43.638164</ele>
        <time>2020-10-02T12:37:44.775Z</time>
      </trkpt>
      <trkpt lat="63.30143" lon="19.08557">
        <ele>43.600411</ele>
        <time>2020-10-02T12:37:46.852Z</time>
      </trkpt>
      <trkpt lat="63.30131" lon="19.08542">
        <ele>43.617579</ele>
        <time>2020-10-02T12:37:48.778Z</time>
      </trkpt>
      <trkpt lat="63.3012" lon="19.08527">
        <ele>44.095939</ele>
        <time>2020-10-02T12:37:50.787Z</time>
      </trkpt>
      <trkpt lat="63.30109" lon="19.08513">
        <ele>44.55836</ele>
        <time>2020-10-02T12:37:52.802Z</time>
      </trkpt>
      <trkpt lat="63.30099" lon="19.08499">
        <ele>44.977948</ele>
        <time>2020-10-02T12:37:54.795Z</time>
      </trkpt>
      <trkpt lat="63.3009" lon="19.08486">
        <ele>45.360896</ele>
        <time>2020-10-02T12:37:56.796Z</time>
      </trkpt>
      <trkpt lat="63.30083" lon="19.08473">
        <ele>45.712402</ele>
        <time>2020-10-02T12:37:58.792Z</time>
      </trkpt>
      <trkpt lat="63.30076" lon="19.08457">
        <ele>46.076168</ele>
        <time>2020-10-02T12:38:00.832Z</time>
      </trkpt>
      <trkpt lat="63.30069" lon="19.0844">
        <ele>46.4457</ele>
        <time>2020-10-02T12:38:02.789Z</time>
      </trkpt>
      <trkpt lat="63.30062" lon="19.08421">
        <ele>46.852595</ele>
        <time>2020-10-02T12:38:04.814Z</time>
      </trkpt>
      <trkpt lat="63.30055" lon="19.08399">
        <ele>47.285687</ele>
        <time>2020-10-02T12:38:06.782Z</time>
      </trkpt>
      <trkpt lat="63.30048" lon="19.08377">
        <ele>47.720897</ele>
        <time>2020-10-02T12:38:08.790Z</time>
      </trkpt>
      <trkpt lat="63.30041" lon="19.08355">
        <ele>48.166734</ele>
        <time>2020-10-02T12:38:10.824Z</time>
      </trkpt>
      <trkpt lat="63.30034" lon="19.08333">
        <ele>48.60593</ele>
        <time>2020-10-02T12:38:12.828Z</time>
      </trkpt>
      <trkpt lat="63.30028" lon="19.08311">
        <ele>49.034255</ele>
        <time>2020-10-02T12:38:14.811Z</time>
      </trkpt>
      <trkpt lat="63.30021" lon="19.0829">
        <ele>49.463364</ele>
        <time>2020-10-02T12:38:16.802Z</time>
      </trkpt>
      <trkpt lat="63.30014" lon="19.08268">
        <ele>49.892937</ele>
        <time>2020-10-02T12:38:18.799Z</time>
      </trkpt>
      <trkpt lat="63.30007" lon="19.08247">
        <ele>50.23321</ele>
        <time>2020-10-02T12:38:20.808Z</time>
      </trkpt>
      <trkpt lat="63.3" lon="19.08226">
        <ele>50.482195</ele>
        <time>2020-10-02T12:38:22.770Z</time>
      </trkpt>
      <trkpt lat="63.29993" lon="19.08205">
        <ele>50.732546</ele>
        <time>2020-10-02T12:38:24.785Z</time>
      </trkpt>
      <trkpt lat="63.29986" lon="19.08183">
        <ele>50.986924</ele>
        <time>2020-10-02T12:38:26.804Z</time>
      </trkpt>
      <trkpt lat="63.2998" lon="19.08162">
        <ele>51.236055</ele>
        <time>2020-10-02T12:38:28.788Z</time>
      </trkpt>
      <trkpt lat="63.29974" lon="19.08142">
        <ele>51.46694</ele>
        <time>2020-10-02T12:38:30.803Z</time>
      </trkpt>
      <trkpt lat="63.29968" lon="19.08122">
        <ele>51.683278</ele>
        <time>2020-10-02T12:38:32.791Z</time>
      </trkpt>
      <trkpt lat="63.29964" lon="19.08103">
        <ele>51.889996</ele>
        <time>2020-10-02T12:38:34.835Z</time>
      </trkpt>
      <trkpt lat="63.29959" lon="19.08076">
        <ele>52.167951</ele>
        <time>2020-10-02T12:38:37.781Z</time>
      </trkpt>
      <trkpt lat="63.29955" lon="19.08051">
        <ele>52.418226</ele>
        <time>2020-10-02T12:38:40.804Z</time>
      </trkpt>
      <trkpt lat="63.29952" lon="19.08028">
        <ele>52.646067</ele>
        <time>2020-10-02T12:38:43.797Z</time>
      </trkpt>
      <trkpt lat="63.2995" lon="19.08006">
        <ele>52.863237</ele>
        <time>2020-10-02T12:38:46.792Z</time>
      </trkpt>
      <trkpt lat="63.29948" lon="19.07983">
        <ele>53.094127</ele>
        <time>2020-10-02T12:38:49.775Z</time>
      </trkpt>
      <trkpt lat="63.29945" lon="19.07958">
        <ele>53.330841</ele>
        <time>2020-10-02T12:38:52.812Z</time>
      </trkpt>
      <trkpt lat="63.29943" lon="19.07933">
        <ele>53.577826</ele>
        <time>2020-10-02T12:38:55.792Z</time>
      </trkpt>
      <trkpt lat="63.2994" lon="19.07906">
        <ele>53.845295</ele>
        <time>2020-10-02T12:38:58.777Z</time>
      </trkpt>
      <trkpt lat="63.29939" lon="19.07885">
        <ele>53.882789</ele>
        <time>2020-10-02T12:39:00.796Z</time>
      </trkpt>
      <trkpt lat="63.29937" lon="19.07863">
        <ele>53.787316</ele>
        <time>2020-10-02T12:39:02.785Z</time>
      </trkpt>
      <trkpt lat="63.29935" lon="19.0784">
        <ele>53.685819</ele>
        <time>2020-10-02T12:39:04.791Z</time>
      </trkpt>
      <trkpt lat="63.29932" lon="19.07815">
        <ele>53.575912</ele>
        <time>2020-10-02T12:39:06.819Z</time>
      </trkpt>
      <trkpt lat="63.2993" lon="19.07786">
        <ele>53.452294</ele>
        <time>2020-10-02T12:39:08.835Z</time>
      </trkpt>
      <trkpt lat="63.29926" lon="19.07755">
        <ele>53.315412</ele>
        <time>2020-10-02T12:39:10.831Z</time>
      </trkpt>
      <trkpt lat="63.29922" lon="19.07722">
        <ele>53.168779</ele>
        <time>2020-10-02T12:39:12.788Z</time>
      </trkpt>
      <trkpt lat="63.29914" lon="19.07688">
        <ele>53.00975</ele>
        <time>2020-10-02T12:39:14.790Z</time>
      </trkpt>
      <trkpt lat="63.29905" lon="19.07657">
        <ele>52.850996</ele>
        <time>2020-10-02T12:39:16.833Z</time>
      </trkpt>
      <trkpt lat="63.299" lon="19.0764">
        <ele>52.765326</ele>
        <time>2020-10-02T12:39:17.782Z</time>
      </trkpt>
      <trkpt lat="63.29895" lon="19.07624">
        <ele>52.68003</ele>
        <time>2020-10-02T12:39:18.790Z</time>
      </trkpt>
      <trkpt lat="63.29889" lon="19.0761">
        <ele>52.595253</ele>
        <time>2020-10-02T12:39:19.792Z</time>
      </trkpt>
      <trkpt lat="63.29875" lon="19.07584">
        <ele>52.429012</ele>
        <time>2020-10-02T12:39:21.790Z</time>
      </trkpt>
      <trkpt lat="63.29862" lon="19.07564">
        <ele>52.276443</ele>
        <time>2020-10-02T12:39:23.819Z</time>
      </trkpt>
      <trkpt lat="63.29848" lon="19.07549">
        <ele>52.472951</ele>
        <time>2020-10-02T12:39:25.795Z</time>
      </trkpt>
      <trkpt lat="63.29833" lon="19.0754">
        <ele>52.836346</ele>
        <time>2020-10-02T12:39:27.796Z</time>
      </trkpt>
      <trkpt lat="63.29819" lon="19.07537">
        <ele>53.183629</ele>
        <time>2020-10-02T12:39:29.817Z</time>
      </trkpt>
      <trkpt lat="63.29804" lon="19.07539">
        <ele>53.530075</ele>
        <time>2020-10-02T12:39:31.822Z</time>
      </trkpt>
      <trkpt lat="63.29791" lon="19.07541">
        <ele>53.843338</ele>
        <time>2020-10-02T12:39:33.804Z</time>
      </trkpt>
      <trkpt lat="63.29777" lon="19.07543">
        <ele>54.157172</ele>
        <time>2020-10-02T12:39:35.816Z</time>
      </trkpt>
      <trkpt lat="63.29765" lon="19.07546">
        <ele>54.441179</ele>
        <time>2020-10-02T12:39:37.805Z</time>
      </trkpt>
      <trkpt lat="63.29754" lon="19.07548">
        <ele>54.703186</ele>
        <time>2020-10-02T12:39:39.791Z</time>
      </trkpt>
      <trkpt lat="63.29743" lon="19.07551">
        <ele>54.962941</ele>
        <time>2020-10-02T12:39:41.801Z</time>
      </trkpt>
      <trkpt lat="63.29733" lon="19.07553">
        <ele>55.211087</ele>
        <time>2020-10-02T12:39:43.799Z</time>
      </trkpt>
      <trkpt lat="63.29723" lon="19.07555">
        <ele>55.433742</ele>
        <time>2020-10-02T12:39:45.815Z</time>
      </trkpt>
      <trkpt lat="63.29711" lon="19.07558">
        <ele>55.733261</ele>
        <time>2020-10-02T12:39:48.879Z</time>
      </trkpt>
      <trkpt lat="63.297" lon="19.07559">
        <ele>55.985636</ele>
        <time>2020-10-02T12:39:51.788Z</time>
      </trkpt>
      <trkpt lat="63.29689" lon="19.0756">
        <ele>56.232598</ele>
        <time>2020-10-02T12:39:55.808Z</time>
      </trkpt>
      <trkpt lat="63.29677" lon="19.07556">
        <ele>56.555373</ele>
        <time>2020-10-02T12:39:59.799Z</time>
      </trkpt>
      <trkpt lat="63.29667" lon="19.07551">
        <ele>56.946047</ele>
        <time>2020-10-02T12:40:02.795Z</time>
      </trkpt>
      <trkpt lat="63.29657" lon="19.07546">
        <ele>57.336079</ele>
        <time>2020-10-02T12:40:05.805Z</time>
      </trkpt>
      <trkpt lat="63.29646" lon="19.07537">
        <ele>57.747704</ele>
        <time>2020-10-02T12:40:08.781Z</time>
      </trkpt>
      <trkpt lat="63.29636" lon="19.07528">
        <ele>58.160235</ele>
        <time>2020-10-02T12:40:11.796Z</time>
      </trkpt>
      <trkpt lat="63.29626" lon="19.07517">
        <ele>58.580943</ele>
        <time>2020-10-02T12:40:14.799Z</time>
      </trkpt>
      <trkpt lat="63.29615" lon="19.07505">
        <ele>59.03653</ele>
        <time>2020-10-02T12:40:17.780Z</time>
      </trkpt>
      <trkpt lat="63.29604" lon="19.07493">
        <ele>59.502184</ele>
        <time>2020-10-02T12:40:20.788Z</time>
      </trkpt>
      <trkpt lat="63.29592" lon="19.07481">
        <ele>59.983467</ele>
        <time>2020-10-02T12:40:23.796Z</time>
      </trkpt>
      <trkpt lat="63.29584" lon="19.07473">
        <ele>60.329945</ele>
        <time>2020-10-02T12:40:25.806Z</time>
      </trkpt>
      <trkpt lat="63.29571" lon="19.07463">
        <ele>60.824931</ele>
        <time>2020-10-02T12:40:28.789Z</time>
      </trkpt>
      <trkpt lat="63.2956" lon="19.07453">
        <ele>61.282587</ele>
        <time>2020-10-02T12:40:31.784Z</time>
      </trkpt>
      <trkpt lat="63.29548" lon="19.07447">
        <ele>61.735319</ele>
        <time>2020-10-02T12:40:34.804Z</time>
      </trkpt>
      <trkpt lat="63.29536" lon="19.07442">
        <ele>62.195739</ele>
        <time>2020-10-02T12:40:37.801Z</time>
      </trkpt>
      <trkpt lat="63.29524" lon="19.07438">
        <ele>62.629739</ele>
        <time>2020-10-02T12:40:40.786Z</time>
      </trkpt>
      <trkpt lat="63.29512" lon="19.07437">
        <ele>63.096202</ele>
        <time>2020-10-02T12:40:43.788Z</time>
      </trkpt>
      <trkpt lat="63.295" lon="19.07437">
        <ele>63.8515</ele>
        <time>2020-10-02T12:40:46.811Z</time>
      </trkpt>
      <trkpt lat="63.29486" lon="19.07436">
        <ele>64.764356</ele>
        <time>2020-10-02T12:40:49.798Z</time>
      </trkpt>
      <trkpt lat="63.29473" lon="19.07436">
        <ele>65.649365</ele>
        <time>2020-10-02T12:40:52.810Z</time>
      </trkpt>
      <trkpt lat="63.29464" lon="19.07436">
        <ele>66.268989</ele>
        <time>2020-10-02T12:40:54.786Z</time>
      </trkpt>
      <trkpt lat="63.29455" lon="19.07438">
        <ele>66.889767</ele>
        <time>2020-10-02T12:40:56.811Z</time>
      </trkpt>
      <trkpt lat="63.29446" lon="19.07438">
        <ele>67.502951</ele>
        <time>2020-10-02T12:40:58.803Z</time>
      </trkpt>
      <trkpt lat="63.29437" lon="19.07441">
        <ele>68.119332</ele>
        <time>2020-10-02T12:41:00.795Z</time>
      </trkpt>
      <trkpt lat="63.29425" lon="19.07442">
        <ele>68.938113</ele>
        <time>2020-10-02T12:41:03.799Z</time>
      </trkpt>
      <trkpt lat="63.29414" lon="19.07445">
        <ele>69.671559</ele>
        <time>2020-10-02T12:41:06.796Z</time>
      </trkpt>
      <trkpt lat="63.29403" lon="19.07447">
        <ele>70.476756</ele>
        <time>2020-10-02T12:41:09.796Z</time>
      </trkpt>
      <trkpt lat="63.2939" lon="19.07449">
        <ele>71.349353</ele>
        <time>2020-10-02T12:41:12.787Z</time>
      </trkpt>
      <trkpt lat="63.29377" lon="19.0745">
        <ele>72.229274</ele>
        <time>2020-10-02T12:41:15.784Z</time>
      </trkpt>
      <trkpt lat="63.29364" lon="19.07452">
        <ele>73.108371</ele>
        <time>2020-10-02T12:41:18.796Z</time>
      </trkpt>
      <trkpt lat="63.29352" lon="19.07453">
        <ele>73.912154</ele>
        <time>2020-10-02T12:41:21.825Z</time>
      </trkpt>
      <trkpt lat="63.2934" lon="19.07453">
        <ele>74.749957</ele>
        <time>2020-10-02T12:41:24.825Z</time>
      </trkpt>
      <trkpt lat="63.29328" lon="19.07456">
        <ele>75.390999</ele>
        <time>2020-10-02T12:41:27.799Z</time>
      </trkpt>
      <trkpt lat="63.29315" lon="19.07457">
        <ele>75.260094</ele>
        <time>2020-10-02T12:41:30.838Z</time>
      </trkpt>
      <trkpt lat="63.29302" lon="19.07458">
        <ele>75.125071</ele>
        <time>2020-10-02T12:41:33.787Z</time>
      </trkpt>
      <trkpt lat="63.2929" lon="19.07461">
        <ele>74.996713</ele>
        <time>2020-10-02T12:41:36.816Z</time>
      </trkpt>
      <trkpt lat="63.29278" lon="19.07463">
        <ele>74.874829</ele>
        <time>2020-10-02T12:41:39.832Z</time>
      </trkpt>
      <trkpt lat="63.29268" lon="19.07463">
        <ele>74.776904</ele>
        <time>2020-10-02T12:41:41.788Z</time>
      </trkpt>
      <trkpt lat="63.29259" lon="19.07464">
        <ele>74.678994</ele>
        <time>2020-10-02T12:41:43.820Z</time>
      </trkpt>
      <trkpt lat="63.2925" lon="19.07464">
        <ele>74.583183</ele>
        <time>2020-10-02T12:41:45.806Z</time>
      </trkpt>
      <trkpt lat="63.29239" lon="19.07466">
        <ele>74.471535</ele>
        <time>2020-10-02T12:41:47.810Z</time>
      </trkpt>
      <trkpt lat="63.29228" lon="19.07466">
        <ele>74.358207</ele>
        <time>2020-10-02T12:41:49.788Z</time>
      </trkpt>
      <trkpt lat="63.29218" lon="19.07468">
        <ele>74.255752</ele>
        <time>2020-10-02T12:41:51.794Z</time>
      </trkpt>
      <trkpt lat="63.29208" lon="19.0747">
        <ele>74.156418</ele>
        <time>2020-10-02T12:41:53.811Z</time>
      </trkpt>
      <trkpt lat="63.29195" lon="19.07471">
        <ele>74.019304</ele>
        <time>2020-10-02T12:41:56.811Z</time>
      </trkpt>
      <trkpt lat="63.29186" lon="19.07473">
        <ele>73.92533</ele>
        <time>2020-10-02T12:41:58.799Z</time>
      </trkpt>
      <trkpt lat="63.29177" lon="19.07475">
        <ele>73.832149</ele>
        <time>2020-10-02T12:42:00.798Z</time>
      </trkpt>
      <trkpt lat="63.29164" lon="19.07476">
        <ele>73.700073</ele>
        <time>2020-10-02T12:42:03.808Z</time>
      </trkpt>
      <trkpt lat="63.29155" lon="19.07476">
        <ele>73.603232</ele>
        <time>2020-10-02T12:42:05.791Z</time>
      </trkpt>
      <trkpt lat="63.29145" lon="19.07477">
        <ele>72.91341</ele>
        <time>2020-10-02T12:42:07.841Z</time>
      </trkpt>
      <trkpt lat="63.29135" lon="19.07477">
        <ele>71.8</ele>
        <time>2020-10-02T12:42:09.776Z</time>
      </trkpt>
      <trkpt lat="63.29125" lon="19.07478">
        <ele>70.649935</ele>
        <time>2020-10-02T12:42:11.874Z</time>
      </trkpt>
      <trkpt lat="63.29115" lon="19.07479">
        <ele>69.5012</ele>
        <time>2020-10-02T12:42:13.805Z</time>
      </trkpt>
      <trkpt lat="63.29105" lon="19.07481">
        <ele>68.304642</ele>
        <time>2020-10-02T12:42:15.791Z</time>
      </trkpt>
      <trkpt lat="63.29095" lon="19.07482">
        <ele>67.14343</ele>
        <time>2020-10-02T12:42:17.779Z</time>
      </trkpt>
      <trkpt lat="63.29084" lon="19.07484">
        <ele>65.899942</ele>
        <time>2020-10-02T12:42:19.785Z</time>
      </trkpt>
      <trkpt lat="63.29073" lon="19.07487">
        <ele>64.6025</ele>
        <time>2020-10-02T12:42:21.801Z</time>
      </trkpt>
      <trkpt lat="63.2906" lon="19.0749">
        <ele>63.092916</ele>
        <time>2020-10-02T12:42:23.813Z</time>
      </trkpt>
      <trkpt lat="63.29048" lon="19.07491">
        <ele>61.725131</ele>
        <time>2020-10-02T12:42:25.804Z</time>
      </trkpt>
      <trkpt lat="63.29037" lon="19.07492">
        <ele>60.531022</ele>
        <time>2020-10-02T12:42:27.809Z</time>
      </trkpt>
      <trkpt lat="63.29027" lon="19.07491">
        <ele>59.314184</ele>
        <time>2020-10-02T12:42:29.781Z</time>
      </trkpt>
      <trkpt lat="63.29016" lon="19.07492">
        <ele>58.085945</ele>
        <time>2020-10-02T12:42:31.816Z</time>
      </trkpt>
      <trkpt lat="63.29005" lon="19.07492">
        <ele>56.834752</ele>
        <time>2020-10-02T12:42:33.809Z</time>
      </trkpt>
      <trkpt lat="63.28995" lon="19.07493">
        <ele>55.605528</ele>
        <time>2020-10-02T12:42:35.786Z</time>
      </trkpt>
      <trkpt lat="63.28983" lon="19.07493">
        <ele>54.331307</ele>
        <time>2020-10-02T12:42:37.806Z</time>
      </trkpt>
      <trkpt lat="63.28973" lon="19.07492">
        <ele>53.090143</ele>
        <time>2020-10-02T12:42:39.781Z</time>
      </trkpt>
      <trkpt lat="63.28962" lon="19.07488">
        <ele>52.720251</ele>
        <time>2020-10-02T12:42:41.784Z</time>
      </trkpt>
      <trkpt lat="63.28952" lon="19.07484">
        <ele>52.488237</ele>
        <time>2020-10-02T12:42:43.798Z</time>
      </trkpt>
      <trkpt lat="63.28942" lon="19.07476">
        <ele>52.264688</ele>
        <time>2020-10-02T12:42:45.796Z</time>
      </trkpt>
      <trkpt lat="63.28933" lon="19.07468">
        <ele>52.04841</ele>
        <time>2020-10-02T12:42:47.809Z</time>
      </trkpt>
      <trkpt lat="63.28925" lon="19.0746">
        <ele>51.841946</ele>
        <time>2020-10-02T12:42:49.793Z</time>
      </trkpt>
      <trkpt lat="63.28917" lon="19.07451">
        <ele>51.640181</ele>
        <time>2020-10-02T12:42:51.796Z</time>
      </trkpt>
      <trkpt lat="63.28909" lon="19.07441">
        <ele>51.440533</ele>
        <time>2020-10-02T12:42:53.810Z</time>
      </trkpt>
      <trkpt lat="63.28897" lon="19.07426">
        <ele>51.146373</ele>
        <time>2020-10-02T12:42:56.778Z</time>
      </trkpt>
      <trkpt lat="63.2889" lon="19.07413">
        <ele>50.945454</ele>
        <time>2020-10-02T12:42:58.778Z</time>
      </trkpt>
      <trkpt lat="63.28883" lon="19.07401">
        <ele>50.740353</ele>
        <time>2020-10-02T12:43:00.809Z</time>
      </trkpt>
      <trkpt lat="63.28875" lon="19.07389">
        <ele>50.534129</ele>
        <time>2020-10-02T12:43:02.803Z</time>
      </trkpt>
      <trkpt lat="63.28868" lon="19.07375">
        <ele>50.326549</ele>
        <time>2020-10-02T12:43:04.786Z</time>
      </trkpt>
      <trkpt lat="63.28861" lon="19.07361">
        <ele>50.11357</ele>
        <time>2020-10-02T12:43:06.786Z</time>
      </trkpt>
      <trkpt lat="63.28854" lon="19.07345">
        <ele>49.897318</ele>
        <time>2020-10-02T12:43:08.790Z</time>
      </trkpt>
      <trkpt lat="63.28847" lon="19.0733">
        <ele>49.677275</ele>
        <time>2020-10-02T12:43:10.795Z</time>
      </trkpt>
      <trkpt lat="63.28838" lon="19.07307">
        <ele>49.385082</ele>
        <time>2020-10-02T12:43:13.804Z</time>
      </trkpt>
      <trkpt lat="63.28832" lon="19.07291">
        <ele>49.177643</ele>
        <time>2020-10-02T12:43:15.773Z</time>
      </trkpt>
      <trkpt lat="63.28827" lon="19.07274">
        <ele>48.970447</ele>
        <time>2020-10-02T12:43:17.796Z</time>
      </trkpt>
      <trkpt lat="63.28818" lon="19.07251">
        <ele>49.219517</ele>
        <time>2020-10-02T12:43:20.824Z</time>
      </trkpt>
      <trkpt lat="63.28812" lon="19.07234">
        <ele>49.42992</ele>
        <time>2020-10-02T12:43:22.845Z</time>
      </trkpt>
      <trkpt lat="63.28806" lon="19.07218">
        <ele>49.637792</ele>
        <time>2020-10-02T12:43:24.785Z</time>
      </trkpt>
      <trkpt lat="63.288" lon="19.07202">
        <ele>49.84418</ele>
        <time>2020-10-02T12:43:26.798Z</time>
      </trkpt>
      <trkpt lat="63.28794" lon="19.07186">
        <ele>50.049092</ele>
        <time>2020-10-02T12:43:28.804Z</time>
      </trkpt>
      <trkpt lat="63.28787" lon="19.07171">
        <ele>50.253286</ele>
        <time>2020-10-02T12:43:30.838Z</time>
      </trkpt>
      <trkpt lat="63.28781" lon="19.07156">
        <ele>50.450981</ele>
        <time>2020-10-02T12:43:32.785Z</time>
      </trkpt>
      <trkpt lat="63.28773" lon="19.07133">
        <ele>50.734491</ele>
        <time>2020-10-02T12:43:35.796Z</time>
      </trkpt>
      <trkpt lat="63.28765" lon="19.07113">
        <ele>50.995621</ele>
        <time>2020-10-02T12:43:38.801Z</time>
      </trkpt>
      <trkpt lat="63.28758" lon="19.07093">
        <ele>51.24431</ele>
        <time>2020-10-02T12:43:41.785Z</time>
      </trkpt>
      <trkpt lat="63.28751" lon="19.07074">
        <ele>51.481318</ele>
        <time>2020-10-02T12:43:44.791Z</time>
      </trkpt>
      <trkpt lat="63.28744" lon="19.07055">
        <ele>51.728419</ele>
        <time>2020-10-02T12:43:47.792Z</time>
      </trkpt>
      <trkpt lat="63.28736" lon="19.07035">
        <ele>51.987422</ele>
        <time>2020-10-02T12:43:50.792Z</time>
      </trkpt>
      <trkpt lat="63.28728" lon="19.07015">
        <ele>52.239547</ele>
        <time>2020-10-02T12:43:53.796Z</time>
      </trkpt>
      <trkpt lat="63.28721" lon="19.06995">
        <ele>52.493272</ele>
        <time>2020-10-02T12:43:56.785Z</time>
      </trkpt>
      <trkpt lat="63.28713" lon="19.06975">
        <ele>52.757176</ele>
        <time>2020-10-02T12:43:59.778Z</time>
      </trkpt>
      <trkpt lat="63.28705" lon="19.06954">
        <ele>53.109471</ele>
        <time>2020-10-02T12:44:02.792Z</time>
      </trkpt>
      <trkpt lat="63.28698" lon="19.06935">
        <ele>53.50268</ele>
        <time>2020-10-02T12:44:05.784Z</time>
      </trkpt>
      <trkpt lat="63.2869" lon="19.06915">
        <ele>53.886294</ele>
        <time>2020-10-02T12:44:08.790Z</time>
      </trkpt>
      <trkpt lat="63.28683" lon="19.06895">
        <ele>54.281248</ele>
        <time>2020-10-02T12:44:11.825Z</time>
      </trkpt>
      <trkpt lat="63.28676" lon="19.06873">
        <ele>54.695595</ele>
        <time>2020-10-02T12:44:14.817Z</time>
      </trkpt>
      <trkpt lat="63.28667" lon="19.06852">
        <ele>55.119352</ele>
        <time>2020-10-02T12:44:17.779Z</time>
      </trkpt>
      <trkpt lat="63.2866" lon="19.06833">
        <ele>55.509167</ele>
        <time>2020-10-02T12:44:20.825Z</time>
      </trkpt>
      <trkpt lat="63.28652" lon="19.06815">
        <ele>55.883133</ele>
        <time>2020-10-02T12:44:23.847Z</time>
      </trkpt>
      <trkpt lat="63.28645" lon="19.06796">
        <ele>56.25827</ele>
        <time>2020-10-02T12:44:26.785Z</time>
      </trkpt>
      <trkpt lat="63.28638" lon="19.06775">
        <ele>56.645079</ele>
        <time>2020-10-02T12:44:29.818Z</time>
      </trkpt>
      <trkpt lat="63.28631" lon="19.06755">
        <ele>57.042415</ele>
        <time>2020-10-02T12:44:32.789Z</time>
      </trkpt>
      <trkpt lat="63.28624" lon="19.06734">
        <ele>57.435591</ele>
        <time>2020-10-02T12:44:35.784Z</time>
      </trkpt>
      <trkpt lat="63.28616" lon="19.06713">
        <ele>57.846143</ele>
        <time>2020-10-02T12:44:38.808Z</time>
      </trkpt>
      <trkpt lat="63.28609" lon="19.06694">
        <ele>58.233066</ele>
        <time>2020-10-02T12:44:41.796Z</time>
      </trkpt>
      <trkpt lat="63.28602" lon="19.06675">
        <ele>58.617231</ele>
        <time>2020-10-02T12:44:44.796Z</time>
      </trkpt>
      <trkpt lat="63.28594" lon="19.06656">
        <ele>58.986885</ele>
        <time>2020-10-02T12:44:47.829Z</time>
      </trkpt>
      <trkpt lat="63.28586" lon="19.06636">
        <ele>59.281597</ele>
        <time>2020-10-02T12:44:50.795Z</time>
      </trkpt>
      <trkpt lat="63.28579" lon="19.06617">
        <ele>59.560395</ele>
        <time>2020-10-02T12:44:53.802Z</time>
      </trkpt>
      <trkpt lat="63.28572" lon="19.06598">
        <ele>59.827174</ele>
        <time>2020-10-02T12:44:56.781Z</time>
      </trkpt>
      <trkpt lat="63.28565" lon="19.0658">
        <ele>60.106999</ele>
        <time>2020-10-02T12:44:59.800Z</time>
      </trkpt>
      <trkpt lat="63.28558" lon="19.06559">
        <ele>60.386993</ele>
        <time>2020-10-02T12:45:02.802Z</time>
      </trkpt>
      <trkpt lat="63.28551" lon="19.06537">
        <ele>60.685717</ele>
        <time>2020-10-02T12:45:05.804Z</time>
      </trkpt>
      <trkpt lat="63.28544" lon="19.06516">
        <ele>60.979372</ele>
        <time>2020-10-02T12:45:08.803Z</time>
      </trkpt>
      <trkpt lat="63.28537" lon="19.06494">
        <ele>61.290287</ele>
        <time>2020-10-02T12:45:11.804Z</time>
      </trkpt>
      <trkpt lat="63.28529" lon="19.06471">
        <ele>61.608648</ele>
        <time>2020-10-02T12:45:14.816Z</time>
      </trkpt>
      <trkpt lat="63.28522" lon="19.06448">
        <ele>61.916489</ele>
        <time>2020-10-02T12:45:17.819Z</time>
      </trkpt>
      <trkpt lat="63.28516" lon="19.06426">
        <ele>62.205361</ele>
        <time>2020-10-02T12:45:20.806Z</time>
      </trkpt>
      <trkpt lat="63.28512" lon="19.06404">
        <ele>62.475197</ele>
        <time>2020-10-02T12:45:23.797Z</time>
      </trkpt>
      <trkpt lat="63.28508" lon="19.06382">
        <ele>62.728043</ele>
        <time>2020-10-02T12:45:26.815Z</time>
      </trkpt>
      <trkpt lat="63.28505" lon="19.06361">
        <ele>62.983002</ele>
        <time>2020-10-02T12:45:29.784Z</time>
      </trkpt>
      <trkpt lat="63.28502" lon="19.06339">
        <ele>63.236633</ele>
        <time>2020-10-02T12:45:32.806Z</time>
      </trkpt>
      <trkpt lat="63.28499" lon="19.06317">
        <ele>63.362749</ele>
        <time>2020-10-02T12:45:35.784Z</time>
      </trkpt>
      <trkpt lat="63.28496" lon="19.06295">
        <ele>63.24356</ele>
        <time>2020-10-02T12:45:38.802Z</time>
      </trkpt>
      <trkpt lat="63.28494" lon="19.06272">
        <ele>63.127593</ele>
        <time>2020-10-02T12:45:41.795Z</time>
      </trkpt>
      <trkpt lat="63.28492" lon="19.06248">
        <ele>63.002309</ele>
        <time>2020-10-02T12:45:44.814Z</time>
      </trkpt>
      <trkpt lat="63.28489" lon="19.06223">
        <ele>62.871681</ele>
        <time>2020-10-02T12:45:47.798Z</time>
      </trkpt>
      <trkpt lat="63.28486" lon="19.06197">
        <ele>62.736269</ele>
        <time>2020-10-02T12:45:50.785Z</time>
      </trkpt>
      <trkpt lat="63.28484" lon="19.06171">
        <ele>62.598168</ele>
        <time>2020-10-02T12:45:53.797Z</time>
      </trkpt>
      <trkpt lat="63.28481" lon="19.06144">
        <ele>62.457107</ele>
        <time>2020-10-02T12:45:56.787Z</time>
      </trkpt>
      <trkpt lat="63.28479" lon="19.06123">
        <ele>62.349362</ele>
        <time>2020-10-02T12:45:58.779Z</time>
      </trkpt>
      <trkpt lat="63.28477" lon="19.06102">
        <ele>62.235661</ele>
        <time>2020-10-02T12:46:00.849Z</time>
      </trkpt>
      <trkpt lat="63.28474" lon="19.0608">
        <ele>62.120208</ele>
        <time>2020-10-02T12:46:02.797Z</time>
      </trkpt>
      <trkpt lat="63.28472" lon="19.06057">
        <ele>62.000237</ele>
        <time>2020-10-02T12:46:04.806Z</time>
      </trkpt>
      <trkpt lat="63.2847" lon="19.06033">
        <ele>61.875821</ele>
        <time>2020-10-02T12:46:06.804Z</time>
      </trkpt>
      <trkpt lat="63.28468" lon="19.06009">
        <ele>61.750417</ele>
        <time>2020-10-02T12:46:08.796Z</time>
      </trkpt>
      <trkpt lat="63.28465" lon="19.05985">
        <ele>61.623183</ele>
        <time>2020-10-02T12:46:10.799Z</time>
      </trkpt>
      <trkpt lat="63.28462" lon="19.05962">
        <ele>61.502521</ele>
        <time>2020-10-02T12:46:12.798Z</time>
      </trkpt>
      <trkpt lat="63.28461" lon="19.05938">
        <ele>61.378785</ele>
        <time>2020-10-02T12:46:14.811Z</time>
      </trkpt>
      <trkpt lat="63.2846" lon="19.05913">
        <ele>61.761556</ele>
        <time>2020-10-02T12:46:16.796Z</time>
      </trkpt>
      <trkpt lat="63.2846" lon="19.05889">
        <ele>62.222678</ele>
        <time>2020-10-02T12:46:18.786Z</time>
      </trkpt>
      <trkpt lat="63.28461" lon="19.05865">
        <ele>62.665689</ele>
        <time>2020-10-02T12:46:20.788Z</time>
      </trkpt>
      <trkpt lat="63.28462" lon="19.05842">
        <ele>63.097473</ele>
        <time>2020-10-02T12:46:22.817Z</time>
      </trkpt>
      <trkpt lat="63.28462" lon="19.0582">
        <ele>63.519244</ele>
        <time>2020-10-02T12:46:24.796Z</time>
      </trkpt>
      <trkpt lat="63.28464" lon="19.05791">
        <ele>64.054296</ele>
        <time>2020-10-02T12:46:27.779Z</time>
      </trkpt>
      <trkpt lat="63.28466" lon="19.05767">
        <ele>64.519132</ele>
        <time>2020-10-02T12:46:30.782Z</time>
      </trkpt>
      <trkpt lat="63.28468" lon="19.05745">
        <ele>64.939343</ele>
        <time>2020-10-02T12:46:33.791Z</time>
      </trkpt>
      <trkpt lat="63.28469" lon="19.05724">
        <ele>65.333715</ele>
        <time>2020-10-02T12:46:36.784Z</time>
      </trkpt>
      <trkpt lat="63.28471" lon="19.05703">
        <ele>65.732902</ele>
        <time>2020-10-02T12:46:39.795Z</time>
      </trkpt>
      <trkpt lat="63.28474" lon="19.05684">
        <ele>66.118889</ele>
        <time>2020-10-02T12:46:42.812Z</time>
      </trkpt>
      <trkpt lat="63.28475" lon="19.05662">
        <ele>66.520257</ele>
        <time>2020-10-02T12:46:45.792Z</time>
      </trkpt>
      <trkpt lat="63.28476" lon="19.05642">
        <ele>66.914629</ele>
        <time>2020-10-02T12:46:48.827Z</time>
      </trkpt>
      <trkpt lat="63.28478" lon="19.0562">
        <ele>67.325285</ele>
        <time>2020-10-02T12:46:51.784Z</time>
      </trkpt>
      <trkpt lat="63.2848" lon="19.05598">
        <ele>67.744958</ele>
        <time>2020-10-02T12:46:54.843Z</time>
      </trkpt>
      <trkpt lat="63.28482" lon="19.05575">
        <ele>68.185501</ele>
        <time>2020-10-02T12:46:57.808Z</time>
      </trkpt>
      <trkpt lat="63.28484" lon="19.05549">
        <ele>68.676674</ele>
        <time>2020-10-02T12:47:00.787Z</time>
      </trkpt>
      <trkpt lat="63.28485" lon="19.05522">
        <ele>69.086724</ele>
        <time>2020-10-02T12:47:03.792Z</time>
      </trkpt>
      <trkpt lat="63.28485" lon="19.05493">
        <ele>69.46694</ele>
        <time>2020-10-02T12:47:06.796Z</time>
      </trkpt>
      <trkpt lat="63.28487" lon="19.05463">
        <ele>69.860765</ele>
        <time>2020-10-02T12:47:09.778Z</time>
      </trkpt>
      <trkpt lat="63.28488" lon="19.05434">
        <ele>70.246492</ele>
        <time>2020-10-02T12:47:12.792Z</time>
      </trkpt>
      <trkpt lat="63.28489" lon="19.05407">
        <ele>70.605843</ele>
        <time>2020-10-02T12:47:15.797Z</time>
      </trkpt>
      <trkpt lat="63.2849" lon="19.05379">
        <ele>70.972565</ele>
        <time>2020-10-02T12:47:18.798Z</time>
      </trkpt>
      <trkpt lat="63.28491" lon="19.05358">
        <ele>71.25105</ele>
        <time>2020-10-02T12:47:20.792Z</time>
      </trkpt>
      <trkpt lat="63.28492" lon="19.05335">
        <ele>71.552009</ele>
        <time>2020-10-02T12:47:22.804Z</time>
      </trkpt>
      <trkpt lat="63.28494" lon="19.0531">
        <ele>71.880064</ele>
        <time>2020-10-02T12:47:24.785Z</time>
      </trkpt>
      <trkpt lat="63.28495" lon="19.05284">
        <ele>72.23158</ele>
        <time>2020-10-02T12:47:26.801Z</time>
      </trkpt>
      <trkpt lat="63.28496" lon="19.05255">
        <ele>72.605057</ele>
        <time>2020-10-02T12:47:28.794Z</time>
      </trkpt>
      <trkpt lat="63.28496" lon="19.05226">
        <ele>72.98536</ele>
        <time>2020-10-02T12:47:30.808Z</time>
      </trkpt>
      <trkpt lat="63.28496" lon="19.05198">
        <ele>73.356488</ele>
        <time>2020-10-02T12:47:32.825Z</time>
      </trkpt>
      <trkpt lat="63.28496" lon="19.05169">
        <ele>73.730238</ele>
        <time>2020-10-02T12:47:34.786Z</time>
      </trkpt>
      <trkpt lat="63.28495" lon="19.05139">
        <ele>74.067378</ele>
        <time>2020-10-02T12:47:36.820Z</time>
      </trkpt>
      <trkpt lat="63.28495" lon="19.05111">
        <ele>73.218396</ele>
        <time>2020-10-02T12:47:38.814Z</time>
      </trkpt>
      <trkpt lat="63.28495" lon="19.05085">
        <ele>72.435866</ele>
        <time>2020-10-02T12:47:40.797Z</time>
      </trkpt>
      <trkpt lat="63.28495" lon="19.0506">
        <ele>71.655747</ele>
        <time>2020-10-02T12:47:42.781Z</time>
      </trkpt>
      <trkpt lat="63.28495" lon="19.05032">
        <ele>70.831012</ele>
        <time>2020-10-02T12:47:44.782Z</time>
      </trkpt>
      <trkpt lat="63.28496" lon="19.05005">
        <ele>69.995682</ele>
        <time>2020-10-02T12:47:46.793Z</time>
      </trkpt>
      <trkpt lat="63.28498" lon="19.04975">
        <ele>69.096344</ele>
        <time>2020-10-02T12:47:48.796Z</time>
      </trkpt>
      <trkpt lat="63.285" lon="19.04945">
        <ele>68.178809</ele>
        <time>2020-10-02T12:47:50.781Z</time>
      </trkpt>
      <trkpt lat="63.28504" lon="19.04913">
        <ele>67.159721</ele>
        <time>2020-10-02T12:47:52.821Z</time>
      </trkpt>
      <trkpt lat="63.28509" lon="19.04877">
        <ele>66.04614</ele>
        <time>2020-10-02T12:47:54.811Z</time>
      </trkpt>
      <trkpt lat="63.28513" lon="19.04839">
        <ele>64.865323</ele>
        <time>2020-10-02T12:47:56.809Z</time>
      </trkpt>
      <trkpt lat="63.28516" lon="19.04802">
        <ele>63.705375</ele>
        <time>2020-10-02T12:47:58.795Z</time>
      </trkpt>
      <trkpt lat="63.2852" lon="19.04763">
        <ele>62.498324</ele>
        <time>2020-10-02T12:48:00.784Z</time>
      </trkpt>
      <trkpt lat="63.28523" lon="19.04725">
        <ele>61.348911</ele>
        <time>2020-10-02T12:48:02.795Z</time>
      </trkpt>
      <trkpt lat="63.28524" lon="19.04685">
        <ele>60.18437</ele>
        <time>2020-10-02T12:48:04.794Z</time>
      </trkpt>
      <trkpt lat="63.28525" lon="19.04665">
        <ele>59.567431</ele>
        <time>2020-10-02T12:48:05.794Z</time>
      </trkpt>
      <trkpt lat="63.28524" lon="19.04643">
        <ele>58.935676</ele>
        <time>2020-10-02T12:48:06.782Z</time>
      </trkpt>
      <trkpt lat="63.28524" lon="19.04622">
        <ele>58.299076</ele>
        <time>2020-10-02T12:48:07.821Z</time>
      </trkpt>
      <trkpt lat="63.28522" lon="19.04601">
        <ele>57.6589</ele>
        <time>2020-10-02T12:48:08.803Z</time>
      </trkpt>
      <trkpt lat="63.28521" lon="19.0458">
        <ele>57.025133</ele>
        <time>2020-10-02T12:48:09.805Z</time>
      </trkpt>
      <trkpt lat="63.28518" lon="19.04559">
        <ele>56.394264</ele>
        <time>2020-10-02T12:48:10.816Z</time>
      </trkpt>
      <trkpt lat="63.28515" lon="19.04539">
        <ele>55.778929</ele>
        <time>2020-10-02T12:48:11.816Z</time>
      </trkpt>
      <trkpt lat="63.28512" lon="19.0452">
        <ele>55.176928</ele>
        <time>2020-10-02T12:48:12.799Z</time>
      </trkpt>
      <trkpt lat="63.28509" lon="19.04501">
        <ele>54.575433</ele>
        <time>2020-10-02T12:48:13.817Z</time>
      </trkpt>
      <trkpt lat="63.28503" lon="19.04464">
        <ele>53.419968</ele>
        <time>2020-10-02T12:48:15.813Z</time>
      </trkpt>
      <trkpt lat="63.28498" lon="19.0443">
        <ele>52.332569</ele>
        <time>2020-10-02T12:48:17.787Z</time>
      </trkpt>
      <trkpt lat="63.28492" lon="19.04396">
        <ele>51.253529</ele>
        <time>2020-10-02T12:48:19.795Z</time>
      </trkpt>
      <trkpt lat="63.28486" lon="19.04361">
        <ele>50.169433</ele>
        <time>2020-10-02T12:48:21.808Z</time>
      </trkpt>
      <trkpt lat="63.28481" lon="19.04328">
        <ele>49.159256</ele>
        <time>2020-10-02T12:48:23.798Z</time>
      </trkpt>
      <trkpt lat="63.28475" lon="19.04295">
        <ele>48.158414</ele>
        <time>2020-10-02T12:48:25.803Z</time>
      </trkpt>
      <trkpt lat="63.28469" lon="19.04264">
        <ele>47.187409</ele>
        <time>2020-10-02T12:48:27.808Z</time>
      </trkpt>
      <trkpt lat="63.28463" lon="19.04233">
        <ele>46.216944</ele>
        <time>2020-10-02T12:48:29.794Z</time>
      </trkpt>
      <trkpt lat="63.28457" lon="19.04202">
        <ele>45.248792</ele>
        <time>2020-10-02T12:48:31.797Z</time>
      </trkpt>
      <trkpt lat="63.2845" lon="19.04172">
        <ele>44.292202</ele>
        <time>2020-10-02T12:48:33.791Z</time>
      </trkpt>
      <trkpt lat="63.28442" lon="19.04143">
        <ele>43.344682</ele>
        <time>2020-10-02T12:48:35.795Z</time>
      </trkpt>
      <trkpt lat="63.28435" lon="19.04116">
        <ele>42.428111</ele>
        <time>2020-10-02T12:48:37.829Z</time>
      </trkpt>
      <trkpt lat="63.28426" lon="19.04089">
        <ele>41.472168</ele>
        <time>2020-10-02T12:48:39.786Z</time>
      </trkpt>
      <trkpt lat="63.28417" lon="19.04063">
        <ele>40.542229</ele>
        <time>2020-10-02T12:48:41.788Z</time>
      </trkpt>
      <trkpt lat="63.28407" lon="19.04038">
        <ele>39.612524</ele>
        <time>2020-10-02T12:48:43.790Z</time>
      </trkpt>
      <trkpt lat="63.28399" lon="19.04015">
        <ele>38.744259</ele>
        <time>2020-10-02T12:48:45.800Z</time>
      </trkpt>
      <trkpt lat="63.2839" lon="19.0399">
        <ele>38.536571</ele>
        <time>2020-10-02T12:48:47.784Z</time>
      </trkpt>
      <trkpt lat="63.28381" lon="19.03964">
        <ele>38.325773</ele>
        <time>2020-10-02T12:48:49.821Z</time>
      </trkpt>
      <trkpt lat="63.28371" lon="19.0394">
        <ele>38.113615</ele>
        <time>2020-10-02T12:48:51.800Z</time>
      </trkpt>
      <trkpt lat="63.28363" lon="19.03915">
        <ele>37.902955</ele>
        <time>2020-10-02T12:48:53.791Z</time>
      </trkpt>
      <trkpt lat="63.28354" lon="19.0389">
        <ele>37.69846</ele>
        <time>2020-10-02T12:48:55.787Z</time>
      </trkpt>
      <trkpt lat="63.28346" lon="19.03865">
        <ele>37.495353</ele>
        <time>2020-10-02T12:48:57.794Z</time>
      </trkpt>
      <trkpt lat="63.2834" lon="19.03838">
        <ele>37.299454</ele>
        <time>2020-10-02T12:48:59.790Z</time>
      </trkpt>
      <trkpt lat="63.28333" lon="19.03814">
        <ele>37.109817</ele>
        <time>2020-10-02T12:49:01.796Z</time>
      </trkpt>
      <trkpt lat="63.28326" lon="19.03792">
        <ele>36.931445</ele>
        <time>2020-10-02T12:49:03.797Z</time>
      </trkpt>
      <trkpt lat="63.28318" lon="19.03773">
        <ele>36.762799</ele>
        <time>2020-10-02T12:49:05.781Z</time>
      </trkpt>
      <trkpt lat="63.2831" lon="19.03755">
        <ele>36.590738</ele>
        <time>2020-10-02T12:49:07.838Z</time>
      </trkpt>
      <trkpt lat="63.28299" lon="19.03737">
        <ele>36.40042</ele>
        <time>2020-10-02T12:49:09.801Z</time>
      </trkpt>
      <trkpt lat="63.28288" lon="19.03721">
        <ele>36.202967</ele>
        <time>2020-10-02T12:49:11.806Z</time>
      </trkpt>
      <trkpt lat="63.28275" lon="19.03706">
        <ele>35.80076</ele>
        <time>2020-10-02T12:49:13.782Z</time>
      </trkpt>
      <trkpt lat="63.28261" lon="19.0369">
        <ele>35.237622</ele>
        <time>2020-10-02T12:49:15.824Z</time>
      </trkpt>
      <trkpt lat="63.28246" lon="19.03674">
        <ele>34.665211</ele>
        <time>2020-10-02T12:49:17.795Z</time>
      </trkpt>
      <trkpt lat="63.28232" lon="19.03658">
        <ele>34.081048</ele>
        <time>2020-10-02T12:49:19.785Z</time>
      </trkpt>
      <trkpt lat="63.28217" lon="19.03641">
        <ele>33.477299</ele>
        <time>2020-10-02T12:49:21.792Z</time>
      </trkpt>
      <trkpt lat="63.28201" lon="19.03624">
        <ele>32.849668</ele>
        <time>2020-10-02T12:49:23.796Z</time>
      </trkpt>
      <trkpt lat="63.28185" lon="19.03607">
        <ele>32.218494</ele>
        <time>2020-10-02T12:49:25.806Z</time>
      </trkpt>
      <trkpt lat="63.28169" lon="19.03588">
        <ele>31.577568</ele>
        <time>2020-10-02T12:49:27.811Z</time>
      </trkpt>
      <trkpt lat="63.28161" lon="19.03579">
        <ele>31.252513</ele>
        <time>2020-10-02T12:49:28.827Z</time>
      </trkpt>
      <trkpt lat="63.28153" lon="19.03569">
        <ele>30.92592</ele>
        <time>2020-10-02T12:49:29.801Z</time>
      </trkpt>
      <trkpt lat="63.28138" lon="19.03549">
        <ele>30.291308</ele>
        <time>2020-10-02T12:49:31.811Z</time>
      </trkpt>
      <trkpt lat="63.28123" lon="19.03527">
        <ele>29.667254</ele>
        <time>2020-10-02T12:49:33.844Z</time>
      </trkpt>
      <trkpt lat="63.28109" lon="19.03504">
        <ele>29.167839</ele>
        <time>2020-10-02T12:49:35.808Z</time>
      </trkpt>
      <trkpt lat="63.28096" lon="19.0348">
        <ele>28.682437</ele>
        <time>2020-10-02T12:49:37.782Z</time>
      </trkpt>
      <trkpt lat="63.28084" lon="19.03456">
        <ele>28.222174</ele>
        <time>2020-10-02T12:49:39.797Z</time>
      </trkpt>
      <trkpt lat="63.28074" lon="19.03434">
        <ele>27.819913</ele>
        <time>2020-10-02T12:49:41.785Z</time>
      </trkpt>
      <trkpt lat="63.28064" lon="19.03415">
        <ele>27.443169</ele>
        <time>2020-10-02T12:49:43.803Z</time>
      </trkpt>
      <trkpt lat="63.28053" lon="19.03399">
        <ele>27.079598</ele>
        <time>2020-10-02T12:49:45.781Z</time>
      </trkpt>
      <trkpt lat="63.28043" lon="19.03385">
        <ele>26.737783</ele>
        <time>2020-10-02T12:49:47.827Z</time>
      </trkpt>
      <trkpt lat="63.28032" lon="19.03373">
        <ele>26.395194</ele>
        <time>2020-10-02T12:49:49.802Z</time>
      </trkpt>
      <trkpt lat="63.28021" lon="19.03364">
        <ele>26.036746</ele>
        <time>2020-10-02T12:49:51.782Z</time>
      </trkpt>
      <trkpt lat="63.28009" lon="19.0336">
        <ele>25.690515</ele>
        <time>2020-10-02T12:49:53.811Z</time>
      </trkpt>
      <trkpt lat="63.27997" lon="19.03358">
        <ele>25.372929</ele>
        <time>2020-10-02T12:49:55.824Z</time>
      </trkpt>
      <trkpt lat="63.27987" lon="19.03358">
        <ele>25.081975</ele>
        <time>2020-10-02T12:49:57.809Z</time>
      </trkpt>
      <trkpt lat="63.27977" lon="19.03361">
        <ele>24.792304</ele>
        <time>2020-10-02T12:49:59.799Z</time>
      </trkpt>
      <trkpt lat="63.27967" lon="19.03365">
        <ele>24.631492</ele>
        <time>2020-10-02T12:50:01.793Z</time>
      </trkpt>
      <trkpt lat="63.27957" lon="19.03369">
        <ele>25.038279</ele>
        <time>2020-10-02T12:50:03.805Z</time>
      </trkpt>
      <trkpt lat="63.27948" lon="19.03373">
        <ele>25.424487</ele>
        <time>2020-10-02T12:50:05.789Z</time>
      </trkpt>
      <trkpt lat="63.27939" lon="19.03377">
        <ele>25.810696</ele>
        <time>2020-10-02T12:50:07.812Z</time>
      </trkpt>
      <trkpt lat="63.2793" lon="19.0338">
        <ele>26.183385</ele>
        <time>2020-10-02T12:50:09.804Z</time>
      </trkpt>
      <trkpt lat="63.27921" lon="19.03384">
        <ele>26.560801</ele>
        <time>2020-10-02T12:50:11.801Z</time>
      </trkpt>
      <trkpt lat="63.27912" lon="19.03389">
        <ele>26.949706</ele>
        <time>2020-10-02T12:50:13.827Z</time>
      </trkpt>
      <trkpt lat="63.27899" lon="19.03393">
        <ele>27.491464</ele>
        <time>2020-10-02T12:50:16.789Z</time>
      </trkpt>
      <trkpt lat="63.27886" lon="19.03398">
        <ele>28.012866</ele>
        <time>2020-10-02T12:50:19.820Z</time>
      </trkpt>
      <trkpt lat="63.27874" lon="19.03402">
        <ele>28.531418</ele>
        <time>2020-10-02T12:50:22.797Z</time>
      </trkpt>
      <trkpt lat="63.27862" lon="19.03406">
        <ele>29.043559</ele>
        <time>2020-10-02T12:50:25.808Z</time>
      </trkpt>
      <trkpt lat="63.2785" lon="19.03411">
        <ele>29.528064</ele>
        <time>2020-10-02T12:50:28.815Z</time>
      </trkpt>
      <trkpt lat="63.27839" lon="19.03414">
        <ele>30.00555</ele>
        <time>2020-10-02T12:50:31.797Z</time>
      </trkpt>
      <trkpt lat="63.27828" lon="19.03415">
        <ele>30.45971</ele>
        <time>2020-10-02T12:50:34.785Z</time>
      </trkpt>
      <trkpt lat="63.27817" lon="19.03417">
        <ele>30.905776</ele>
        <time>2020-10-02T12:50:37.823Z</time>
      </trkpt>
      <trkpt lat="63.27805" lon="19.03422">
        <ele>31.38414</ele>
        <time>2020-10-02T12:50:40.783Z</time>
      </trkpt>
      <trkpt lat="63.27796" lon="19.03426">
        <ele>31.799719</ele>
        <time>2020-10-02T12:50:43.801Z</time>
      </trkpt>
      <trkpt lat="63.27786" lon="19.03432">
        <ele>32.992379</ele>
        <time>2020-10-02T12:50:46.806Z</time>
      </trkpt>
      <trkpt lat="63.27775" lon="19.03435">
        <ele>34.71903</ele>
        <time>2020-10-02T12:50:49.807Z</time>
      </trkpt>
      <trkpt lat="63.27764" lon="19.03439">
        <ele>36.599674</ele>
        <time>2020-10-02T12:50:52.837Z</time>
      </trkpt>
      <trkpt lat="63.27752" lon="19.03443">
        <ele>38.563801</ele>
        <time>2020-10-02T12:50:55.813Z</time>
      </trkpt>
      <trkpt lat="63.2774" lon="19.03447">
        <ele>40.492037</ele>
        <time>2020-10-02T12:50:58.805Z</time>
      </trkpt>
      <trkpt lat="63.27728" lon="19.0345">
        <ele>42.620966</ele>
        <time>2020-10-02T12:51:01.787Z</time>
      </trkpt>
      <trkpt lat="63.27715" lon="19.03454">
        <ele>44.748637</ele>
        <time>2020-10-02T12:51:04.787Z</time>
      </trkpt>
      <trkpt lat="63.27703" lon="19.03459">
        <ele>46.760928</ele>
        <time>2020-10-02T12:51:07.826Z</time>
      </trkpt>
      <trkpt lat="63.27692" lon="19.03464">
        <ele>48.634243</ele>
        <time>2020-10-02T12:51:10.783Z</time>
      </trkpt>
      <trkpt lat="63.27681" lon="19.03469">
        <ele>50.375639</ele>
        <time>2020-10-02T12:51:13.790Z</time>
      </trkpt>
      <trkpt lat="63.27671" lon="19.03473">
        <ele>52.077974</ele>
        <time>2020-10-02T12:51:16.811Z</time>
      </trkpt>
      <trkpt lat="63.27661" lon="19.03477">
        <ele>53.764126</ele>
        <time>2020-10-02T12:51:19.807Z</time>
      </trkpt>
      <trkpt lat="63.27651" lon="19.0348">
        <ele>55.478975</ele>
        <time>2020-10-02T12:51:22.807Z</time>
      </trkpt>
      <trkpt lat="63.27639" lon="19.03485">
        <ele>57.380687</ele>
        <time>2020-10-02T12:51:25.860Z</time>
      </trkpt>
      <trkpt lat="63.27628" lon="19.03489">
        <ele>59.1628</ele>
        <time>2020-10-02T12:51:28.777Z</time>
      </trkpt>
      <trkpt lat="63.27617" lon="19.03492">
        <ele>61.070556</ele>
        <time>2020-10-02T12:51:31.777Z</time>
      </trkpt>
      <trkpt lat="63.27605" lon="19.03495">
        <ele>60.263569</ele>
        <time>2020-10-02T12:51:34.821Z</time>
      </trkpt>
      <trkpt lat="63.27596" lon="19.03496">
        <ele>58.948729</ele>
        <time>2020-10-02T12:51:37.809Z</time>
      </trkpt>
      <trkpt lat="63.27585" lon="19.03499">
        <ele>57.472013</ele>
        <time>2020-10-02T12:51:40.796Z</time>
      </trkpt>
      <trkpt lat="63.27576" lon="19.03503">
        <ele>56.112578</ele>
        <time>2020-10-02T12:51:43.799Z</time>
      </trkpt>
      <trkpt lat="63.27564" lon="19.03504">
        <ele>54.466498</ele>
        <time>2020-10-02T12:51:46.785Z</time>
      </trkpt>
      <trkpt lat="63.27553" lon="19.03504">
        <ele>52.891081</ele>
        <time>2020-10-02T12:51:49.808Z</time>
      </trkpt>
      <trkpt lat="63.27543" lon="19.03504">
        <ele>51.538031</ele>
        <time>2020-10-02T12:51:52.835Z</time>
      </trkpt>
      <trkpt lat="63.27534" lon="19.03501">
        <ele>50.227888</ele>
        <time>2020-10-02T12:51:55.800Z</time>
      </trkpt>
      <trkpt lat="63.27525" lon="19.03497">
        <ele>48.955163</ele>
        <time>2020-10-02T12:51:58.809Z</time>
      </trkpt>
      <trkpt lat="63.27514" lon="19.03491">
        <ele>47.379061</ele>
        <time>2020-10-02T12:52:02.785Z</time>
      </trkpt>
      <trkpt lat="63.27503" lon="19.03489">
        <ele>45.910351</ele>
        <time>2020-10-02T12:52:06.825Z</time>
      </trkpt>
      <trkpt lat="63.27493" lon="19.03489">
        <ele>44.473254</ele>
        <time>2020-10-02T12:52:10.829Z</time>
      </trkpt>
      <trkpt lat="63.27483" lon="19.03489">
        <ele>43.051208</ele>
        <time>2020-10-02T12:52:14.803Z</time>
      </trkpt>
      <trkpt lat="63.27471" lon="19.03488">
        <ele>41.488726</ele>
        <time>2020-10-02T12:52:19.785Z</time>
      </trkpt>
      <trkpt lat="63.27462" lon="19.03486">
        <ele>40.162136</ele>
        <time>2020-10-02T12:52:23.820Z</time>
      </trkpt>
      <trkpt lat="63.27452" lon="19.03482">
        <ele>38.798081</ele>
        <time>2020-10-02T12:52:27.777Z</time>
      </trkpt>
      <trkpt lat="63.27443" lon="19.03481">
        <ele>37.45593</ele>
        <time>2020-10-02T12:52:31.781Z</time>
      </trkpt>
      <trkpt lat="63.27433" lon="19.03479">
        <ele>36.545163</ele>
        <time>2020-10-02T12:52:35.802Z</time>
      </trkpt>
      <trkpt lat="63.27423" lon="19.03475">
        <ele>37.004647</ele>
        <time>2020-10-02T12:52:39.795Z</time>
      </trkpt>
      <trkpt lat="63.27414" lon="19.03475">
        <ele>37.400521</ele>
        <time>2020-10-02T12:52:42.822Z</time>
      </trkpt>
      <trkpt lat="63.27405" lon="19.03476">
        <ele>37.792534</ele>
        <time>2020-10-02T12:52:45.782Z</time>
      </trkpt>
      <trkpt lat="63.27395" lon="19.03477">
        <ele>38.219506</ele>
        <time>2020-10-02T12:52:48.790Z</time>
      </trkpt>
      <trkpt lat="63.27386" lon="19.03478">
        <ele>38.6286</ele>
        <time>2020-10-02T12:52:51.781Z</time>
      </trkpt>
      <trkpt lat="63.27376" lon="19.03476">
        <ele>39.069894</ele>
        <time>2020-10-02T12:52:54.785Z</time>
      </trkpt>
      <trkpt lat="63.27365" lon="19.03474">
        <ele>39.514143</ele>
        <time>2020-10-02T12:52:57.786Z</time>
      </trkpt>
      <trkpt lat="63.27355" lon="19.03474">
        <ele>39.957909</ele>
        <time>2020-10-02T12:53:00.809Z</time>
      </trkpt>
      <trkpt lat="63.27345" lon="19.03474">
        <ele>40.41049</ele>
        <time>2020-10-02T12:53:03.817Z</time>
      </trkpt>
      <trkpt lat="63.27334" lon="19.03474">
        <ele>40.880649</ele>
        <time>2020-10-02T12:53:06.809Z</time>
      </trkpt>
      <trkpt lat="63.27323" lon="19.03475">
        <ele>41.350482</ele>
        <time>2020-10-02T12:53:09.794Z</time>
      </trkpt>
      <trkpt lat="63.27314" lon="19.03474">
        <ele>41.750941</ele>
        <time>2020-10-02T12:53:12.805Z</time>
      </trkpt>
      <trkpt lat="63.27305" lon="19.03474">
        <ele>42.159871</ele>
        <time>2020-10-02T12:53:15.854Z</time>
      </trkpt>
      <trkpt lat="63.27294" lon="19.03474">
        <ele>42.621016</ele>
        <time>2020-10-02T12:53:18.791Z</time>
      </trkpt>
      <trkpt lat="63.27283" lon="19.03473">
        <ele>43.095454</ele>
        <time>2020-10-02T12:53:21.790Z</time>
      </trkpt>
      <trkpt lat="63.27272" lon="19.03474">
        <ele>43.583076</ele>
        <time>2020-10-02T12:53:24.784Z</time>
      </trkpt>
      <trkpt lat="63.2726" lon="19.03475">
        <ele>44.079393</ele>
        <time>2020-10-02T12:53:27.788Z</time>
      </trkpt>
      <trkpt lat="63.27248" lon="19.0348">
        <ele>44.574883</ele>
        <time>2020-10-02T12:53:30.788Z</time>
      </trkpt>
      <trkpt lat="63.27238" lon="19.03482">
        <ele>44.974104</ele>
        <time>2020-10-02T12:53:33.797Z</time>
      </trkpt>
      <trkpt lat="63.27227" lon="19.03482">
        <ele>45.356889</ele>
        <time>2020-10-02T12:53:36.790Z</time>
      </trkpt>
      <trkpt lat="63.27217" lon="19.03482">
        <ele>45.743426</ele>
        <time>2020-10-02T12:53:39.840Z</time>
      </trkpt>
      <trkpt lat="63.27208" lon="19.03481">
        <ele>46.088943</ele>
        <time>2020-10-02T12:53:42.803Z</time>
      </trkpt>
      <trkpt lat="63.27196" lon="19.03478">
        <ele>46.530735</ele>
        <time>2020-10-02T12:53:46.797Z</time>
      </trkpt>
      <trkpt lat="63.27185" lon="19.03475">
        <ele>46.954717</ele>
        <time>2020-10-02T12:53:50.780Z</time>
      </trkpt>
      <trkpt lat="63.27174" lon="19.0347">
        <ele>47.372726</ele>
        <time>2020-10-02T12:53:54.810Z</time>
      </trkpt>
      <trkpt lat="63.27163" lon="19.03462">
        <ele>47.796832</ele>
        <time>2020-10-02T12:53:58.830Z</time>
      </trkpt>
      <trkpt lat="63.27154" lon="19.03456">
        <ele>48.157104</ele>
        <time>2020-10-02T12:54:01.799Z</time>
      </trkpt>
      <trkpt lat="63.27144" lon="19.03446">
        <ele>48.585996</ele>
        <time>2020-10-02T12:54:05.804Z</time>
      </trkpt>
      <trkpt lat="63.27136" lon="19.03436">
        <ele>48.923048</ele>
        <time>2020-10-02T12:54:08.796Z</time>
      </trkpt>
      <trkpt lat="63.27127" lon="19.03426">
        <ele>49.279041</ele>
        <time>2020-10-02T12:54:11.818Z</time>
      </trkpt>
      <trkpt lat="63.27116" lon="19.03416">
        <ele>49.725017</ele>
        <time>2020-10-02T12:54:14.796Z</time>
      </trkpt>
      <trkpt lat="63.27108" lon="19.03408">
        <ele>50.063132</ele>
        <time>2020-10-02T12:54:16.829Z</time>
      </trkpt>
      <trkpt lat="63.271" lon="19.03399">
        <ele>50.413792</ele>
        <time>2020-10-02T12:54:18.796Z</time>
      </trkpt>
      <trkpt lat="63.27091" lon="19.03391">
        <ele>50.758877</ele>
        <time>2020-10-02T12:54:20.794Z</time>
      </trkpt>
      <trkpt lat="63.27083" lon="19.03383">
        <ele>50.916544</ele>
        <time>2020-10-02T12:54:22.789Z</time>
      </trkpt>
      <trkpt lat="63.27074" lon="19.03374">
        <ele>50.385443</ele>
        <time>2020-10-02T12:54:24.784Z</time>
      </trkpt>
      <trkpt lat="63.27063" lon="19.0336">
        <ele>49.640067</ele>
        <time>2020-10-02T12:54:27.785Z</time>
      </trkpt>
      <trkpt lat="63.27052" lon="19.03343">
        <ele>48.876503</ele>
        <time>2020-10-02T12:54:30.801Z</time>
      </trkpt>
      <trkpt lat="63.27044" lon="19.03332">
        <ele>48.34671</ele>
        <time>2020-10-02T12:54:32.802Z</time>
      </trkpt>
      <trkpt lat="63.27036" lon="19.03322">
        <ele>47.834496</ele>
        <time>2020-10-02T12:54:34.781Z</time>
      </trkpt>
      <trkpt lat="63.27025" lon="19.03306">
        <ele>47.090345</ele>
        <time>2020-10-02T12:54:37.805Z</time>
      </trkpt>
      <trkpt lat="63.27015" lon="19.03291">
        <ele>46.368286</ele>
        <time>2020-10-02T12:54:40.821Z</time>
      </trkpt>
      <trkpt lat="63.27006" lon="19.03281">
        <ele>45.831054</ele>
        <time>2020-10-02T12:54:42.816Z</time>
      </trkpt>
      <trkpt lat="63.26998" lon="19.0327">
        <ele>45.272952</ele>
        <time>2020-10-02T12:54:44.805Z</time>
      </trkpt>
      <trkpt lat="63.26989" lon="19.03257">
        <ele>44.688833</ele>
        <time>2020-10-02T12:54:46.837Z</time>
      </trkpt>
      <trkpt lat="63.26981" lon="19.03245">
        <ele>44.11936</ele>
        <time>2020-10-02T12:54:48.810Z</time>
      </trkpt>
      <trkpt lat="63.26972" lon="19.03232">
        <ele>43.512533</ele>
        <time>2020-10-02T12:54:50.781Z</time>
      </trkpt>
      <trkpt lat="63.26962" lon="19.03218">
        <ele>42.87123</ele>
        <time>2020-10-02T12:54:52.835Z</time>
      </trkpt>
      <trkpt lat="63.26953" lon="19.03204">
        <ele>42.220998</ele>
        <time>2020-10-02T12:54:54.810Z</time>
      </trkpt>
      <trkpt lat="63.26942" lon="19.0319">
        <ele>41.526313</ele>
        <time>2020-10-02T12:54:56.817Z</time>
      </trkpt>
      <trkpt lat="63.26933" lon="19.03174">
        <ele>40.841996</ele>
        <time>2020-10-02T12:54:58.820Z</time>
      </trkpt>
      <trkpt lat="63.26922" lon="19.0316">
        <ele>40.663084</ele>
        <time>2020-10-02T12:55:00.836Z</time>
      </trkpt>
      <trkpt lat="63.26912" lon="19.03146">
        <ele>40.505586</ele>
        <time>2020-10-02T12:55:02.814Z</time>
      </trkpt>
      <trkpt lat="63.26902" lon="19.03131">
        <ele>40.34538</ele>
        <time>2020-10-02T12:55:04.794Z</time>
      </trkpt>
      <trkpt lat="63.26892" lon="19.03116">
        <ele>40.182636</ele>
        <time>2020-10-02T12:55:06.777Z</time>
      </trkpt>
      <trkpt lat="63.26881" lon="19.03101">
        <ele>40.012871</ele>
        <time>2020-10-02T12:55:08.781Z</time>
      </trkpt>
      <trkpt lat="63.2687" lon="19.03086">
        <ele>39.845663</ele>
        <time>2020-10-02T12:55:10.792Z</time>
      </trkpt>
      <trkpt lat="63.26859" lon="19.03071">
        <ele>39.675277</ele>
        <time>2020-10-02T12:55:12.800Z</time>
      </trkpt>
      <trkpt lat="63.26848" lon="19.03056">
        <ele>39.502996</ele>
        <time>2020-10-02T12:55:14.821Z</time>
      </trkpt>
      <trkpt lat="63.26837" lon="19.03041">
        <ele>39.338965</ele>
        <time>2020-10-02T12:55:16.788Z</time>
      </trkpt>
      <trkpt lat="63.26826" lon="19.03026">
        <ele>39.169699</ele>
        <time>2020-10-02T12:55:18.818Z</time>
      </trkpt>
      <trkpt lat="63.26815" lon="19.03012">
        <ele>39.00259</ele>
        <time>2020-10-02T12:55:20.837Z</time>
      </trkpt>
      <trkpt lat="63.26805" lon="19.02997">
        <ele>38.847312</ele>
        <time>2020-10-02T12:55:22.832Z</time>
      </trkpt>
      <trkpt lat="63.26796" lon="19.02983">
        <ele>38.700097</ele>
        <time>2020-10-02T12:55:24.813Z</time>
      </trkpt>
      <trkpt lat="63.26788" lon="19.02969">
        <ele>38.560321</ele>
        <time>2020-10-02T12:55:26.817Z</time>
      </trkpt>
      <trkpt lat="63.2678" lon="19.02957">
        <ele>38.490558</ele>
        <time>2020-10-02T12:55:28.808Z</time>
      </trkpt>
      <trkpt lat="63.26772" lon="19.02946">
        <ele>38.818831</ele>
        <time>2020-10-02T12:55:30.800Z</time>
      </trkpt>
      <trkpt lat="63.26762" lon="19.02932">
        <ele>39.257</ele>
        <time>2020-10-02T12:55:33.781Z</time>
      </trkpt>
      <trkpt lat="63.26752" lon="19.02918">
        <ele>39.684599</ele>
        <time>2020-10-02T12:55:36.800Z</time>
      </trkpt>
      <trkpt lat="63.26742" lon="19.02904">
        <ele>40.093276</ele>
        <time>2020-10-02T12:55:39.781Z</time>
      </trkpt>
      <trkpt lat="63.26734" lon="19.02894">
        <ele>40.449698</ele>
        <time>2020-10-02T12:55:42.781Z</time>
      </trkpt>
      <trkpt lat="63.26723" lon="19.02881">
        <ele>40.882346</ele>
        <time>2020-10-02T12:55:46.798Z</time>
      </trkpt>
      <trkpt lat="63.26715" lon="19.02869">
        <ele>41.231241</ele>
        <time>2020-10-02T12:55:49.781Z</time>
      </trkpt>
      <trkpt lat="63.26707" lon="19.02858">
        <ele>41.571738</ele>
        <time>2020-10-02T12:55:52.783Z</time>
      </trkpt>
      <trkpt lat="63.267" lon="19.02846">
        <ele>41.907744</ele>
        <time>2020-10-02T12:55:55.780Z</time>
      </trkpt>
      <trkpt lat="63.26691" lon="19.02835">
        <ele>42.267038</ele>
        <time>2020-10-02T12:55:58.787Z</time>
      </trkpt>
      <trkpt lat="63.26682" lon="19.02824">
        <ele>42.641882</ele>
        <time>2020-10-02T12:56:01.804Z</time>
      </trkpt>
      <trkpt lat="63.26672" lon="19.02813">
        <ele>43.039579</ele>
        <time>2020-10-02T12:56:04.793Z</time>
      </trkpt>
      <trkpt lat="63.26664" lon="19.02799">
        <ele>43.428869</ele>
        <time>2020-10-02T12:56:07.787Z</time>
      </trkpt>
      <trkpt lat="63.26655" lon="19.02785">
        <ele>43.806491</ele>
        <time>2020-10-02T12:56:10.796Z</time>
      </trkpt>
      <trkpt lat="63.26647" lon="19.02773">
        <ele>44.160922</ele>
        <time>2020-10-02T12:56:13.797Z</time>
      </trkpt>
      <trkpt lat="63.26639" lon="19.02762">
        <ele>44.504965</ele>
        <time>2020-10-02T12:56:16.815Z</time>
      </trkpt>
      <trkpt lat="63.26631" lon="19.02751">
        <ele>44.853557</ele>
        <time>2020-10-02T12:56:19.795Z</time>
      </trkpt>
      <trkpt lat="63.26623" lon="19.02739">
        <ele>45.097496</ele>
        <time>2020-10-02T12:56:22.797Z</time>
      </trkpt>
      <trkpt lat="63.26613" lon="19.02724">
        <ele>45.328529</ele>
        <time>2020-10-02T12:56:26.801Z</time>
      </trkpt>
      <trkpt lat="63.26605" lon="19.02711">
        <ele>45.531155</ele>
        <time>2020-10-02T12:56:30.778Z</time>
      </trkpt>
      <trkpt lat="63.26597" lon="19.02699">
        <ele>45.727862</ele>
        <time>2020-10-02T12:56:34.787Z</time>
      </trkpt>
      <trkpt lat="63.26588" lon="19.02686">
        <ele>45.940845</ele>
        <time>2020-10-02T12:56:38.817Z</time>
      </trkpt>
      <trkpt lat="63.26579" lon="19.02674">
        <ele>46.161281</ele>
        <time>2020-10-02T12:56:42.780Z</time>
      </trkpt>
      <trkpt lat="63.2657" lon="19.02658">
        <ele>46.387571</ele>
        <time>2020-10-02T12:56:46.774Z</time>
      </trkpt>
      <trkpt lat="63.26562" lon="19.02647">
        <ele>46.573669</ele>
        <time>2020-10-02T12:56:49.833Z</time>
      </trkpt>
      <trkpt lat="63.26553" lon="19.02636">
        <ele>46.780619</ele>
        <time>2020-10-02T12:56:52.822Z</time>
      </trkpt>
      <trkpt lat="63.26542" lon="19.02623">
        <ele>47.022133</ele>
        <time>2020-10-02T12:56:55.817Z</time>
      </trkpt>
      <trkpt lat="63.26534" lon="19.02613">
        <ele>47.204954</ele>
        <time>2020-10-02T12:56:57.817Z</time>
      </trkpt>
      <trkpt lat="63.26526" lon="19.02603">
        <ele>47.391359</ele>
        <time>2020-10-02T12:56:59.803Z</time>
      </trkpt>
      <trkpt lat="63.26517" lon="19.02589">
        <ele>47.609831</ele>
        <time>2020-10-02T12:57:01.790Z</time>
      </trkpt>
      <trkpt lat="63.26505" lon="19.02573">
        <ele>47.888368</ele>
        <time>2020-10-02T12:57:03.789Z</time>
      </trkpt>
      <trkpt lat="63.26492" lon="19.02557">
        <ele>48.186242</ele>
        <time>2020-10-02T12:57:05.794Z</time>
      </trkpt>
      <trkpt lat="63.26478" lon="19.02543">
        <ele>48.493178</ele>
        <time>2020-10-02T12:57:07.797Z</time>
      </trkpt>
      <trkpt lat="63.26461" lon="19.02528">
        <ele>47.255577</ele>
        <time>2020-10-02T12:57:09.800Z</time>
      </trkpt>
      <trkpt lat="63.26451" lon="19.02522">
        <ele>46.404284</ele>
        <time>2020-10-02T12:57:10.791Z</time>
      </trkpt>
      <trkpt lat="63.26442" lon="19.02518">
        <ele>45.590955</ele>
        <time>2020-10-02T12:57:11.796Z</time>
      </trkpt>
      <trkpt lat="63.26433" lon="19.02515">
        <ele>44.785345</ele>
        <time>2020-10-02T12:57:12.795Z</time>
      </trkpt>
      <trkpt lat="63.26424" lon="19.02513">
        <ele>43.994232</ele>
        <time>2020-10-02T12:57:13.823Z</time>
      </trkpt>
      <trkpt lat="63.26414" lon="19.02511">
        <ele>43.168675</ele>
        <time>2020-10-02T12:57:14.796Z</time>
      </trkpt>
      <trkpt lat="63.26405" lon="19.02509">
        <ele>42.335814</ele>
        <time>2020-10-02T12:57:15.790Z</time>
      </trkpt>
      <trkpt lat="63.26395" lon="19.02509">
        <ele>41.496407</ele>
        <time>2020-10-02T12:57:16.805Z</time>
      </trkpt>
      <trkpt lat="63.26385" lon="19.02509">
        <ele>40.656999</ele>
        <time>2020-10-02T12:57:17.833Z</time>
      </trkpt>
      <trkpt lat="63.26376" lon="19.02509">
        <ele>39.817737</ele>
        <time>2020-10-02T12:57:18.796Z</time>
      </trkpt>
      <trkpt lat="63.26366" lon="19.02509">
        <ele>38.952592</ele>
        <time>2020-10-02T12:57:19.784Z</time>
      </trkpt>
      <trkpt lat="63.26356" lon="19.02509">
        <ele>38.087456</ele>
        <time>2020-10-02T12:57:20.782Z</time>
      </trkpt>
      <trkpt lat="63.26346" lon="19.02509">
        <ele>37.230972</ele>
        <time>2020-10-02T12:57:21.796Z</time>
      </trkpt>
      <trkpt lat="63.26336" lon="19.02508">
        <ele>36.356968</ele>
        <time>2020-10-02T12:57:22.823Z</time>
      </trkpt>
      <trkpt lat="63.26326" lon="19.02508">
        <ele>35.491824</ele>
        <time>2020-10-02T12:57:23.806Z</time>
      </trkpt>
      <trkpt lat="63.26316" lon="19.02508">
        <ele>34.63526</ele>
        <time>2020-10-02T12:57:24.791Z</time>
      </trkpt>
      <trkpt lat="63.26306" lon="19.02507">
        <ele>33.786704</ele>
        <time>2020-10-02T12:57:25.784Z</time>
      </trkpt>
      <trkpt lat="63.26296" lon="19.02506">
        <ele>32.971983</ele>
        <time>2020-10-02T12:57:26.783Z</time>
      </trkpt>
      <trkpt lat="63.26286" lon="19.02504">
        <ele>32.556715</ele>
        <time>2020-10-02T12:57:27.798Z</time>
      </trkpt>
      <trkpt lat="63.26277" lon="19.02501">
        <ele>32.143809</ele>
        <time>2020-10-02T12:57:28.829Z</time>
      </trkpt>
      <trkpt lat="63.26268" lon="19.02497">
        <ele>31.734915</ele>
        <time>2020-10-02T12:57:29.780Z</time>
      </trkpt>
      <trkpt lat="63.26258" lon="19.02492">
        <ele>31.31978</ele>
        <time>2020-10-02T12:57:30.791Z</time>
      </trkpt>
      <trkpt lat="63.26249" lon="19.02487">
        <ele>30.914454</ele>
        <time>2020-10-02T12:57:31.798Z</time>
      </trkpt>
      <trkpt lat="63.2624" lon="19.02481">
        <ele>30.51016</ele>
        <time>2020-10-02T12:57:32.820Z</time>
      </trkpt>
      <trkpt lat="63.26231" lon="19.02475">
        <ele>30.096501</ele>
        <time>2020-10-02T12:57:33.812Z</time>
      </trkpt>
      <trkpt lat="63.26222" lon="19.02469">
        <ele>29.682842</ele>
        <time>2020-10-02T12:57:34.803Z</time>
      </trkpt>
      <trkpt lat="63.26213" lon="19.02463">
        <ele>29.273866</ele>
        <time>2020-10-02T12:57:35.814Z</time>
      </trkpt>
      <trkpt lat="63.26204" lon="19.02457">
        <ele>28.86489</ele>
        <time>2020-10-02T12:57:36.796Z</time>
      </trkpt>
      <trkpt lat="63.26195" lon="19.02451">
        <ele>28.460595</ele>
        <time>2020-10-02T12:57:37.806Z</time>
      </trkpt>
      <trkpt lat="63.26186" lon="19.02445">
        <ele>28.057379</ele>
        <time>2020-10-02T12:57:38.791Z</time>
      </trkpt>
      <trkpt lat="63.26177" lon="19.02439">
        <ele>27.661898</ele>
        <time>2020-10-02T12:57:39.788Z</time>
      </trkpt>
      <trkpt lat="63.26168" lon="19.02433">
        <ele>27.272941</ele>
        <time>2020-10-02T12:57:40.803Z</time>
      </trkpt>
      <trkpt lat="63.26152" lon="19.02422">
        <ele>26.523765</ele>
        <time>2020-10-02T12:57:42.790Z</time>
      </trkpt>
      <trkpt lat="63.26135" lon="19.02411">
        <ele>25.796886</ele>
        <time>2020-10-02T12:57:44.808Z</time>
      </trkpt>
      <trkpt lat="63.2612" lon="19.024">
        <ele>25.35953</ele>
        <time>2020-10-02T12:57:46.796Z</time>
      </trkpt>
      <trkpt lat="63.26105" lon="19.0239">
        <ele>25.842709</ele>
        <time>2020-10-02T12:57:48.786Z</time>
      </trkpt>
      <trkpt lat="63.26091" lon="19.02378">
        <ele>26.299375</ele>
        <time>2020-10-02T12:57:50.793Z</time>
      </trkpt>
      <trkpt lat="63.26078" lon="19.02366">
        <ele>26.738603</ele>
        <time>2020-10-02T12:57:52.804Z</time>
      </trkpt>
      <trkpt lat="63.26066" lon="19.02353">
        <ele>27.157063</ele>
        <time>2020-10-02T12:57:54.779Z</time>
      </trkpt>
      <trkpt lat="63.26054" lon="19.0234">
        <ele>27.557461</ele>
        <time>2020-10-02T12:57:56.795Z</time>
      </trkpt>
      <trkpt lat="63.26044" lon="19.02326">
        <ele>27.932249</ele>
        <time>2020-10-02T12:57:58.785Z</time>
      </trkpt>
      <trkpt lat="63.26034" lon="19.02311">
        <ele>28.30318</ele>
        <time>2020-10-02T12:58:00.810Z</time>
      </trkpt>
      <trkpt lat="63.26024" lon="19.02299">
        <ele>28.64897</ele>
        <time>2020-10-02T12:58:02.785Z</time>
      </trkpt>
      <trkpt lat="63.26014" lon="19.0229">
        <ele>28.966805</ele>
        <time>2020-10-02T12:58:04.793Z</time>
      </trkpt>
      <trkpt lat="63.26002" lon="19.02281">
        <ele>29.35213</ele>
        <time>2020-10-02T12:58:07.799Z</time>
      </trkpt>
      <trkpt lat="63.25991" lon="19.02275">
        <ele>29.720436</ele>
        <time>2020-10-02T12:58:10.793Z</time>
      </trkpt>
      <trkpt lat="63.25979" lon="19.02271">
        <ele>30.071571</ele>
        <time>2020-10-02T12:58:13.784Z</time>
      </trkpt>
      <trkpt lat="63.25969" lon="19.02269">
        <ele>30.395358</ele>
        <time>2020-10-02T12:58:16.813Z</time>
      </trkpt>
      <trkpt lat="63.25959" lon="19.02266">
        <ele>30.705768</ele>
        <time>2020-10-02T12:58:19.824Z</time>
      </trkpt>
      <trkpt lat="63.25949" lon="19.02263">
        <ele>31.519952</ele>
        <time>2020-10-02T12:58:22.860Z</time>
      </trkpt>
      <trkpt lat="63.25939" lon="19.02261">
        <ele>32.499542</ele>
        <time>2020-10-02T12:58:25.797Z</time>
      </trkpt>
      <trkpt lat="63.2593" lon="19.02258">
        <ele>33.452658</ele>
        <time>2020-10-02T12:58:29.806Z</time>
      </trkpt>
      <trkpt lat="63.25919" lon="19.02256">
        <ele>34.477016</ele>
        <time>2020-10-02T12:58:33.794Z</time>
      </trkpt>
      <trkpt lat="63.25909" lon="19.02253">
        <ele>35.502115</ele>
        <time>2020-10-02T12:58:37.795Z</time>
      </trkpt>
      <trkpt lat="63.25899" lon="19.02248">
        <ele>36.53415</ele>
        <time>2020-10-02T12:58:41.803Z</time>
      </trkpt>
      <trkpt lat="63.25888" lon="19.02246">
        <ele>37.620399</ele>
        <time>2020-10-02T12:58:45.801Z</time>
      </trkpt>
      <trkpt lat="63.25877" lon="19.02242">
        <ele>38.673345</ele>
        <time>2020-10-02T12:58:49.793Z</time>
      </trkpt>
      <trkpt lat="63.25866" lon="19.0224">
        <ele>39.797989</ele>
        <time>2020-10-02T12:58:53.799Z</time>
      </trkpt>
      <trkpt lat="63.25855" lon="19.02236">
        <ele>40.879965</ele>
        <time>2020-10-02T12:58:57.800Z</time>
      </trkpt>
      <trkpt lat="63.25844" lon="19.02233">
        <ele>41.92998</ele>
        <time>2020-10-02T12:59:00.795Z</time>
      </trkpt>
      <trkpt lat="63.25834" lon="19.02231">
        <ele>42.927306</ele>
        <time>2020-10-02T12:59:03.824Z</time>
      </trkpt>
      <trkpt lat="63.25823" lon="19.02228">
        <ele>44.023764</ele>
        <time>2020-10-02T12:59:07.809Z</time>
      </trkpt>
      <trkpt lat="63.25814" lon="19.02226">
        <ele>44.906302</ele>
        <time>2020-10-02T12:59:10.794Z</time>
      </trkpt>
      <trkpt lat="63.25803" lon="19.02223">
        <ele>46.003652</ele>
        <time>2020-10-02T12:59:14.789Z</time>
      </trkpt>
      <trkpt lat="63.25791" lon="19.02221">
        <ele>47.187094</ele>
        <time>2020-10-02T12:59:18.781Z</time>
      </trkpt>
      <trkpt lat="63.25779" lon="19.02219">
        <ele>48.321907</ele>
        <time>2020-10-02T12:59:21.780Z</time>
      </trkpt>
      <trkpt lat="63.2577" lon="19.02216">
        <ele>48.441165</ele>
        <time>2020-10-02T12:59:24.797Z</time>
      </trkpt>
      <trkpt lat="63.25761" lon="19.02214">
        <ele>48.412063</ele>
        <time>2020-10-02T12:59:27.802Z</time>
      </trkpt>
      <trkpt lat="63.25752" lon="19.02211">
        <ele>48.382895</ele>
        <time>2020-10-02T12:59:30.776Z</time>
      </trkpt>
      <trkpt lat="63.25743" lon="19.02209">
        <ele>48.353425</ele>
        <time>2020-10-02T12:59:33.803Z</time>
      </trkpt>
      <trkpt lat="63.25734" lon="19.02207">
        <ele>48.323044</ele>
        <time>2020-10-02T12:59:36.785Z</time>
      </trkpt>
      <trkpt lat="63.25723" lon="19.02205">
        <ele>48.289434</ele>
        <time>2020-10-02T12:59:39.803Z</time>
      </trkpt>
      <trkpt lat="63.25712" lon="19.02202">
        <ele>48.253235</ele>
        <time>2020-10-02T12:59:42.809Z</time>
      </trkpt>
      <trkpt lat="63.25701" lon="19.02199">
        <ele>48.2175</ele>
        <time>2020-10-02T12:59:45.803Z</time>
      </trkpt>
      <trkpt lat="63.25692" lon="19.02195">
        <ele>48.186378</ele>
        <time>2020-10-02T12:59:48.789Z</time>
      </trkpt>
      <trkpt lat="63.25683" lon="19.02192">
        <ele>48.157112</ele>
        <time>2020-10-02T12:59:51.815Z</time>
      </trkpt>
      <trkpt lat="63.25672" lon="19.02186">
        <ele>48.123425</ele>
        <time>2020-10-02T12:59:55.789Z</time>
      </trkpt>
      <trkpt lat="63.25661" lon="19.0218">
        <ele>48.086547</ele>
        <time>2020-10-02T12:59:59.779Z</time>
      </trkpt>
      <trkpt lat="63.25652" lon="19.02174">
        <ele>48.056553</ele>
        <time>2020-10-02T13:00:02.842Z</time>
      </trkpt>
      <trkpt lat="63.25643" lon="19.02169">
        <ele>48.026372</ele>
        <time>2020-10-02T13:00:05.816Z</time>
      </trkpt>
      <trkpt lat="63.25632" lon="19.02162">
        <ele>47.988724</ele>
        <time>2020-10-02T13:00:09.797Z</time>
      </trkpt>
      <trkpt lat="63.25623" lon="19.02157">
        <ele>47.958508</ele>
        <time>2020-10-02T13:00:12.784Z</time>
      </trkpt>
      <trkpt lat="63.25612" lon="19.02149">
        <ele>47.920763</ele>
        <time>2020-10-02T13:00:16.791Z</time>
      </trkpt>
      <trkpt lat="63.25603" lon="19.02144">
        <ele>47.890686</ele>
        <time>2020-10-02T13:00:19.800Z</time>
      </trkpt>
      <trkpt lat="63.25594" lon="19.0214">
        <ele>48.209107</ele>
        <time>2020-10-02T13:00:22.797Z</time>
      </trkpt>
      <trkpt lat="63.25585" lon="19.02134">
        <ele>48.55395</ele>
        <time>2020-10-02T13:00:25.796Z</time>
      </trkpt>
      <trkpt lat="63.25575" lon="19.02127">
        <ele>48.96801</ele>
        <time>2020-10-02T13:00:29.790Z</time>
      </trkpt>
      <trkpt lat="63.25565" lon="19.0212">
        <ele>49.380501</ele>
        <time>2020-10-02T13:00:33.830Z</time>
      </trkpt>
      <trkpt lat="63.25553" lon="19.02112">
        <ele>49.858223</ele>
        <time>2020-10-02T13:00:37.794Z</time>
      </trkpt>
      <trkpt lat="63.25545" lon="19.02104">
        <ele>50.206432</ele>
        <time>2020-10-02T13:00:40.794Z</time>
      </trkpt>
      <trkpt lat="63.25535" lon="19.0209">
        <ele>50.6538</ele>
        <time>2020-10-02T13:00:44.848Z</time>
      </trkpt>
      <trkpt lat="63.25527" lon="19.02071">
        <ele>51.097128</ele>
        <time>2020-10-02T13:00:48.798Z</time>
      </trkpt>
      <trkpt lat="63.25523" lon="19.02051">
        <ele>51.489236</ele>
        <time>2020-10-02T13:00:52.812Z</time>
      </trkpt>
      <trkpt lat="63.25518" lon="19.02028">
        <ele>51.929122</ele>
        <time>2020-10-02T13:00:56.808Z</time>
      </trkpt>
      <trkpt lat="63.25516" lon="19.02008">
        <ele>52.286383</ele>
        <time>2020-10-02T13:00:59.790Z</time>
      </trkpt>
      <trkpt lat="63.25515" lon="19.01987">
        <ele>52.651596</ele>
        <time>2020-10-02T13:01:02.817Z</time>
      </trkpt>
      <trkpt lat="63.25514" lon="19.01966">
        <ele>53.021224</ele>
        <time>2020-10-02T13:01:05.788Z</time>
      </trkpt>
      <trkpt lat="63.25513" lon="19.01944">
        <ele>53.401258</ele>
        <time>2020-10-02T13:01:08.819Z</time>
      </trkpt>
      <trkpt lat="63.25513" lon="19.01922">
        <ele>53.79124</ele>
        <time>2020-10-02T13:01:11.843Z</time>
      </trkpt>
      <trkpt lat="63.25512" lon="19.01899">
        <ele>54.191643</ele>
        <time>2020-10-02T13:01:14.820Z</time>
      </trkpt>
      <trkpt lat="63.25512" lon="19.01875">
        <ele>54.611348</ele>
        <time>2020-10-02T13:01:17.788Z</time>
      </trkpt>
      <trkpt lat="63.25511" lon="19.0185">
        <ele>54.972381</ele>
        <time>2020-10-02T13:01:20.807Z</time>
      </trkpt>
      <trkpt lat="63.25511" lon="19.01826">
        <ele>55.234956</ele>
        <time>2020-10-02T13:01:23.871Z</time>
      </trkpt>
      <trkpt lat="63.2551" lon="19.01803">
        <ele>55.502442</ele>
        <time>2020-10-02T13:01:26.792Z</time>
      </trkpt>
      <trkpt lat="63.25508" lon="19.01778">
        <ele>55.786955</ele>
        <time>2020-10-02T13:01:29.785Z</time>
      </trkpt>
      <trkpt lat="63.25506" lon="19.01754">
        <ele>56.066338</ele>
        <time>2020-10-02T13:01:32.817Z</time>
      </trkpt>
      <trkpt lat="63.25504" lon="19.01729">
        <ele>56.348564</ele>
        <time>2020-10-02T13:01:35.804Z</time>
      </trkpt>
      <trkpt lat="63.25503" lon="19.01705">
        <ele>56.619418</ele>
        <time>2020-10-02T13:01:38.821Z</time>
      </trkpt>
      <trkpt lat="63.25503" lon="19.01682">
        <ele>56.883232</ele>
        <time>2020-10-02T13:01:41.816Z</time>
      </trkpt>
      <trkpt lat="63.25502" lon="19.01659">
        <ele>57.139138</ele>
        <time>2020-10-02T13:01:44.797Z</time>
      </trkpt>
      <trkpt lat="63.25503" lon="19.01638">
        <ele>57.382503</ele>
        <time>2020-10-02T13:01:47.816Z</time>
      </trkpt>
      <trkpt lat="63.25503" lon="19.01618">
        <ele>57.60984</ele>
        <time>2020-10-02T13:01:50.805Z</time>
      </trkpt>
      <trkpt lat="63.25504" lon="19.01593">
        <ele>57.890102</ele>
        <time>2020-10-02T13:01:54.811Z</time>
      </trkpt>
      <trkpt lat="63.25504" lon="19.01572">
        <ele>58.125825</ele>
        <time>2020-10-02T13:01:58.800Z</time>
      </trkpt>
      <trkpt lat="63.25505" lon="19.0155">
        <ele>58.37258</ele>
        <time>2020-10-02T13:02:02.815Z</time>
      </trkpt>
      <trkpt lat="63.25504" lon="19.01527">
        <ele>58.642698</ele>
        <time>2020-10-02T13:02:06.798Z</time>
      </trkpt>
      <trkpt lat="63.25504" lon="19.01504">
        <ele>58.901737</ele>
        <time>2020-10-02T13:02:10.784Z</time>
      </trkpt>
      <trkpt lat="63.25504" lon="19.01479">
        <ele>59.177703</ele>
        <time>2020-10-02T13:02:14.808Z</time>
      </trkpt>
      <trkpt lat="63.25503" lon="19.01454">
        <ele>59.529923</ele>
        <time>2020-10-02T13:02:18.803Z</time>
      </trkpt>
      <trkpt lat="63.25504" lon="19.01433">
        <ele>59.942506</ele>
        <time>2020-10-02T13:02:22.839Z</time>
      </trkpt>
      <trkpt lat="63.25505" lon="19.01412">
        <ele>60.340967</ele>
        <time>2020-10-02T13:02:26.780Z</time>
      </trkpt>
      <trkpt lat="63.25506" lon="19.01391">
        <ele>60.723144</ele>
        <time>2020-10-02T13:02:30.796Z</time>
      </trkpt>
      <trkpt lat="63.25506" lon="19.01371">
        <ele>61.110319</ele>
        <time>2020-10-02T13:02:34.808Z</time>
      </trkpt>
      <trkpt lat="63.25507" lon="19.01351">
        <ele>61.493802</ele>
        <time>2020-10-02T13:02:38.793Z</time>
      </trkpt>
      <trkpt lat="63.25508" lon="19.01326">
        <ele>61.951813</ele>
        <time>2020-10-02T13:02:43.801Z</time>
      </trkpt>
      <trkpt lat="63.25508" lon="19.01302">
        <ele>62.413635</ele>
        <time>2020-10-02T13:02:48.840Z</time>
      </trkpt>
      <trkpt lat="63.25508" lon="19.01277">
        <ele>62.879452</ele>
        <time>2020-10-02T13:02:53.789Z</time>
      </trkpt>
      <trkpt lat="63.25508" lon="19.01253">
        <ele>63.343102</ele>
        <time>2020-10-02T13:02:58.782Z</time>
      </trkpt>
      <trkpt lat="63.25507" lon="19.01232">
        <ele>63.727781</ele>
        <time>2020-10-02T13:03:02.800Z</time>
      </trkpt>
      <trkpt lat="63.25508" lon="19.0121">
        <ele>64.14077</ele>
        <time>2020-10-02T13:03:06.844Z</time>
      </trkpt>
      <trkpt lat="63.2551" lon="19.01189">
        <ele>64.547749</ele>
        <time>2020-10-02T13:03:10.816Z</time>
      </trkpt>
      <trkpt lat="63.25511" lon="19.01164">
        <ele>65.015145</ele>
        <time>2020-10-02T13:03:15.782Z</time>
      </trkpt>
      <trkpt lat="63.25511" lon="19.01144">
        <ele>65.400188</ele>
        <time>2020-10-02T13:03:19.788Z</time>
      </trkpt>
      <trkpt lat="63.25512" lon="19.0112">
        <ele>65.860355</ele>
        <time>2020-10-02T13:03:24.777Z</time>
      </trkpt>
      <trkpt lat="63.25512" lon="19.01095">
        <ele>66.317675</ele>
        <time>2020-10-02T13:03:29.800Z</time>
      </trkpt>
      <trkpt lat="63.25512" lon="19.01075">
        <ele>66.70971</ele>
        <time>2020-10-02T13:03:33.808Z</time>
      </trkpt>
      <trkpt lat="63.25513" lon="19.01054">
        <ele>66.836525</ele>
        <time>2020-10-02T13:03:37.809Z</time>
      </trkpt>
      <trkpt lat="63.25513" lon="19.01029">
        <ele>66.71615</ele>
        <time>2020-10-02T13:03:42.793Z</time>
      </trkpt>
      <trkpt lat="63.25514" lon="19.01006">
        <ele>66.599991</ele>
        <time>2020-10-02T13:03:46.790Z</time>
      </trkpt>
      <trkpt lat="63.25515" lon="19.00985">
        <ele>66.496569</ele>
        <time>2020-10-02T13:03:49.799Z</time>
      </trkpt>
      <trkpt lat="63.25515" lon="19.00964">
        <ele>66.391865</ele>
        <time>2020-10-02T13:03:52.794Z</time>
      </trkpt>
      <trkpt lat="63.25516" lon="19.00942">
        <ele>66.282879</ele>
        <time>2020-10-02T13:03:55.808Z</time>
      </trkpt>
      <trkpt lat="63.25518" lon="19.00916">
        <ele>66.156592</ele>
        <time>2020-10-02T13:03:58.783Z</time>
      </trkpt>
      <trkpt lat="63.25519" lon="19.00888">
        <ele>66.019985</ele>
        <time>2020-10-02T13:04:01.813Z</time>
      </trkpt>
      <trkpt lat="63.25518" lon="19.00863">
        <ele>65.893644</ele>
        <time>2020-10-02T13:04:04.805Z</time>
      </trkpt>
      <trkpt lat="63.25517" lon="19.00837">
        <ele>65.76695</ele>
        <time>2020-10-02T13:04:07.797Z</time>
      </trkpt>
      <trkpt lat="63.25516" lon="19.00809">
        <ele>65.631671</ele>
        <time>2020-10-02T13:04:10.784Z</time>
      </trkpt>
      <trkpt lat="63.25515" lon="19.00782">
        <ele>65.494887</ele>
        <time>2020-10-02T13:04:13.812Z</time>
      </trkpt>
      <trkpt lat="63.25513" lon="19.00762">
        <ele>65.395879</ele>
        <time>2020-10-02T13:04:15.816Z</time>
      </trkpt>
      <trkpt lat="63.25509" lon="19.00743">
        <ele>65.290179</ele>
        <time>2020-10-02T13:04:17.804Z</time>
      </trkpt>
      <trkpt lat="63.25503" lon="19.00722">
        <ele>65.173802</ele>
        <time>2020-10-02T13:04:19.799Z</time>
      </trkpt>
      <trkpt lat="63.25493" lon="19.00701">
        <ele>65.021495</ele>
        <time>2020-10-02T13:04:21.794Z</time>
      </trkpt>
      <trkpt lat="63.25483" lon="19.00681">
        <ele>64.459216</ele>
        <time>2020-10-02T13:04:23.811Z</time>
      </trkpt>
      <trkpt lat="63.25472" lon="19.00658">
        <ele>63.045305</ele>
        <time>2020-10-02T13:04:25.828Z</time>
      </trkpt>
      <trkpt lat="63.2546" lon="19.00631">
        <ele>61.463583</ele>
        <time>2020-10-02T13:04:27.794Z</time>
      </trkpt>
      <trkpt lat="63.25447" lon="19.00607">
        <ele>59.943984</ele>
        <time>2020-10-02T13:04:29.796Z</time>
      </trkpt>
      <trkpt lat="63.25434" lon="19.00582">
        <ele>58.316737</ele>
        <time>2020-10-02T13:04:31.825Z</time>
      </trkpt>
      <trkpt lat="63.25426" lon="19.00569">
        <ele>57.422193</ele>
        <time>2020-10-02T13:04:32.814Z</time>
      </trkpt>
      <trkpt lat="63.25419" lon="19.00557">
        <ele>56.545224</ele>
        <time>2020-10-02T13:04:33.815Z</time>
      </trkpt>
      <trkpt lat="63.25411" lon="19.00544">
        <ele>55.660588</ele>
        <time>2020-10-02T13:04:34.796Z</time>
      </trkpt>
      <trkpt lat="63.25404" lon="19.0053">
        <ele>54.735913</ele>
        <time>2020-10-02T13:04:35.795Z</time>
      </trkpt>
      <trkpt lat="63.25396" lon="19.00516">
        <ele>53.804186</ele>
        <time>2020-10-02T13:04:36.788Z</time>
      </trkpt>
      <trkpt lat="63.25387" lon="19.00503">
        <ele>52.837584</ele>
        <time>2020-10-02T13:04:37.796Z</time>
      </trkpt>
      <trkpt lat="63.25379" lon="19.0049">
        <ele>51.87955</ele>
        <time>2020-10-02T13:04:38.798Z</time>
      </trkpt>
      <trkpt lat="63.2537" lon="19.00479">
        <ele>50.954022</ele>
        <time>2020-10-02T13:04:39.819Z</time>
      </trkpt>
      <trkpt lat="63.25362" lon="19.00469">
        <ele>50.055589</ele>
        <time>2020-10-02T13:04:40.819Z</time>
      </trkpt>
      <trkpt lat="63.25353" lon="19.00459">
        <ele>49.15288</ele>
        <time>2020-10-02T13:04:41.796Z</time>
      </trkpt>
      <trkpt lat="63.25344" lon="19.00451">
        <ele>48.245017</ele>
        <time>2020-10-02T13:04:42.803Z</time>
      </trkpt>
      <trkpt lat="63.25335" lon="19.00444">
        <ele>47.649874</ele>
        <time>2020-10-02T13:04:43.808Z</time>
      </trkpt>
      <trkpt lat="63.25325" lon="19.00438">
        <ele>47.073218</ele>
        <time>2020-10-02T13:04:44.881Z</time>
      </trkpt>
      <trkpt lat="63.25316" lon="19.00433">
        <ele>46.493651</ele>
        <time>2020-10-02T13:04:45.813Z</time>
      </trkpt>
      <trkpt lat="63.25307" lon="19.00427">
        <ele>45.920533</ele>
        <time>2020-10-02T13:04:46.821Z</time>
      </trkpt>
      <trkpt lat="63.25297" lon="19.00422">
        <ele>45.335198</ele>
        <time>2020-10-02T13:04:47.820Z</time>
      </trkpt>
      <trkpt lat="63.25287" lon="19.00416">
        <ele>44.738975</ele>
        <time>2020-10-02T13:04:48.809Z</time>
      </trkpt>
      <trkpt lat="63.25278" lon="19.00411">
        <ele>44.150457</ele>
        <time>2020-10-02T13:04:49.798Z</time>
      </trkpt>
      <trkpt lat="63.25268" lon="19.00406">
        <ele>43.557351</ele>
        <time>2020-10-02T13:04:50.828Z</time>
      </trkpt>
      <trkpt lat="63.25258" lon="19.00402">
        <ele>42.967605</ele>
        <time>2020-10-02T13:04:51.793Z</time>
      </trkpt>
      <trkpt lat="63.25249" lon="19.00398">
        <ele>42.372525</ele>
        <time>2020-10-02T13:04:52.802Z</time>
      </trkpt>
      <trkpt lat="63.25239" lon="19.00394">
        <ele>41.789149</ele>
        <time>2020-10-02T13:04:53.788Z</time>
      </trkpt>
      <trkpt lat="63.2523" lon="19.00391">
        <ele>41.218111</ele>
        <time>2020-10-02T13:04:54.796Z</time>
      </trkpt>
      <trkpt lat="63.2522" lon="19.00389">
        <ele>40.653963</ele>
        <time>2020-10-02T13:04:55.836Z</time>
      </trkpt>
      <trkpt lat="63.25203" lon="19.00387">
        <ele>39.627649</ele>
        <time>2020-10-02T13:04:57.828Z</time>
      </trkpt>
      <trkpt lat="63.25188" lon="19.0039">
        <ele>38.74862</ele>
        <time>2020-10-02T13:04:59.809Z</time>
      </trkpt>
      <trkpt lat="63.25176" lon="19.00393">
        <ele>38.022991</ele>
        <time>2020-10-02T13:05:01.805Z</time>
      </trkpt>
      <trkpt lat="63.25165" lon="19.00395">
        <ele>37.604119</ele>
        <time>2020-10-02T13:05:03.786Z</time>
      </trkpt>
      <trkpt lat="63.25156" lon="19.00396">
        <ele>38.298978</ele>
        <time>2020-10-02T13:05:05.806Z</time>
      </trkpt>
      <trkpt lat="63.25146" lon="19.00396">
        <ele>38.957382</ele>
        <time>2020-10-02T13:05:07.803Z</time>
      </trkpt>
      <trkpt lat="63.25133" lon="19.00395">
        <ele>39.881288</ele>
        <time>2020-10-02T13:05:10.806Z</time>
      </trkpt>
      <trkpt lat="63.25122" lon="19.00393">
        <ele>40.692205</ele>
        <time>2020-10-02T13:05:13.797Z</time>
      </trkpt>
      <trkpt lat="63.25113" lon="19.00389">
        <ele>41.377689</ele>
        <time>2020-10-02T13:05:16.785Z</time>
      </trkpt>
      <trkpt lat="63.25102" lon="19.00383">
        <ele>42.162872</ele>
        <time>2020-10-02T13:05:20.812Z</time>
      </trkpt>
      <trkpt lat="63.25091" lon="19.00377">
        <ele>42.994247</ele>
        <time>2020-10-02T13:05:24.785Z</time>
      </trkpt>
      <trkpt lat="63.25081" lon="19.00371">
        <ele>43.736867</ele>
        <time>2020-10-02T13:05:28.823Z</time>
      </trkpt>
      <trkpt lat="63.25071" lon="19.00367">
        <ele>44.435212</ele>
        <time>2020-10-02T13:05:32.784Z</time>
      </trkpt>
      <trkpt lat="63.25063" lon="19.00359">
        <ele>45.112741</ele>
        <time>2020-10-02T13:05:36.783Z</time>
      </trkpt>
      <trkpt lat="63.25054" lon="19.00349">
        <ele>45.824374</ele>
        <time>2020-10-02T13:05:40.788Z</time>
      </trkpt>
      <trkpt lat="63.25044" lon="19.00336">
        <ele>46.604573</ele>
        <time>2020-10-02T13:05:44.799Z</time>
      </trkpt>
      <trkpt lat="63.25036" lon="19.0032">
        <ele>47.409311</ele>
        <time>2020-10-02T13:05:48.800Z</time>
      </trkpt>
      <trkpt lat="63.25029" lon="19.00301">
        <ele>48.176233</ele>
        <time>2020-10-02T13:05:52.797Z</time>
      </trkpt>
      <trkpt lat="63.25025" lon="19.00279">
        <ele>48.952394</ele>
        <time>2020-10-02T13:05:56.788Z</time>
      </trkpt>
      <trkpt lat="63.25023" lon="19.00255">
        <ele>49.726998</ele>
        <time>2020-10-02T13:06:00.788Z</time>
      </trkpt>
      <trkpt lat="63.25018" lon="19.00231">
        <ele>50.462161</ele>
        <time>2020-10-02T13:06:04.814Z</time>
      </trkpt>
      <trkpt lat="63.25014" lon="19.00208">
        <ele>50.828588</ele>
        <time>2020-10-02T13:06:07.790Z</time>
      </trkpt>
      <trkpt lat="63.25012" lon="19.00181">
        <ele>51.243724</ele>
        <time>2020-10-02T13:06:10.815Z</time>
      </trkpt>
      <trkpt lat="63.2501" lon="19.00152">
        <ele>51.688733</ele>
        <time>2020-10-02T13:06:13.791Z</time>
      </trkpt>
      <trkpt lat="63.25008" lon="19.00126">
        <ele>52.103023</ele>
        <time>2020-10-02T13:06:16.789Z</time>
      </trkpt>
      <trkpt lat="63.25006" lon="19.00103">
        <ele>52.454902</ele>
        <time>2020-10-02T13:06:19.792Z</time>
      </trkpt>
      <trkpt lat="63.25005" lon="19.00082">
        <ele>52.782309</ele>
        <time>2020-10-02T13:06:22.796Z</time>
      </trkpt>
      <trkpt lat="63.25003" lon="19.00062">
        <ele>53.091471</ele>
        <time>2020-10-02T13:06:25.783Z</time>
      </trkpt>
      <trkpt lat="63.25001" lon="19.00036">
        <ele>53.485643</ele>
        <time>2020-10-02T13:06:29.804Z</time>
      </trkpt>
      <trkpt lat="63.25" lon="19.00013">
        <ele>53.845748</ele>
        <time>2020-10-02T13:06:33.793Z</time>
      </trkpt>
      <trkpt lat="63.24998" lon="18.99989">
        <ele>54.216981</ele>
        <time>2020-10-02T13:06:37.783Z</time>
      </trkpt>
      <trkpt lat="63.24995" lon="18.99967">
        <ele>54.57082</ele>
        <time>2020-10-02T13:06:41.807Z</time>
      </trkpt>
      <trkpt lat="63.24993" lon="18.99944">
        <ele>54.933636</ele>
        <time>2020-10-02T13:06:45.822Z</time>
      </trkpt>
      <trkpt lat="63.24991" lon="18.9992">
        <ele>55.300678</ele>
        <time>2020-10-02T13:06:49.783Z</time>
      </trkpt>
      <trkpt lat="63.24989" lon="18.99897">
        <ele>55.659068</ele>
        <time>2020-10-02T13:06:53.797Z</time>
      </trkpt>
      <trkpt lat="63.24986" lon="18.99873">
        <ele>56.033253</ele>
        <time>2020-10-02T13:06:57.809Z</time>
      </trkpt>
      <trkpt lat="63.24984" lon="18.99849">
        <ele>56.407207</ele>
        <time>2020-10-02T13:07:01.794Z</time>
      </trkpt>
      <trkpt lat="63.24982" lon="18.99825">
        <ele>56.708033</ele>
        <time>2020-10-02T13:07:05.812Z</time>
      </trkpt>
      <trkpt lat="63.2498" lon="18.99802">
        <ele>56.992275</ele>
        <time>2020-10-02T13:07:09.798Z</time>
      </trkpt>
      <trkpt lat="63.24979" lon="18.99778">
        <ele>57.275339</ele>
        <time>2020-10-02T13:07:13.785Z</time>
      </trkpt>
      <trkpt lat="63.24977" lon="18.99757">
        <ele>57.538169</ele>
        <time>2020-10-02T13:07:17.799Z</time>
      </trkpt>
      <trkpt lat="63.24975" lon="18.99736">
        <ele>57.789944</ele>
        <time>2020-10-02T13:07:21.796Z</time>
      </trkpt>
      <trkpt lat="63.24974" lon="18.99714">
        <ele>58.051374</ele>
        <time>2020-10-02T13:07:25.781Z</time>
      </trkpt>
      <trkpt lat="63.24971" lon="18.99693">
        <ele>58.315284</ele>
        <time>2020-10-02T13:07:29.808Z</time>
      </trkpt>
      <trkpt lat="63.2497" lon="18.9967">
        <ele>58.592455</ele>
        <time>2020-10-02T13:07:33.788Z</time>
      </trkpt>
      <trkpt lat="63.24968" lon="18.99646">
        <ele>58.88302</ele>
        <time>2020-10-02T13:07:37.818Z</time>
      </trkpt>
      <trkpt lat="63.24967" lon="18.9962">
        <ele>59.193697</ele>
        <time>2020-10-02T13:07:41.799Z</time>
      </trkpt>
      <trkpt lat="63.24966" lon="18.99598">
        <ele>59.454198</ele>
        <time>2020-10-02T13:07:44.822Z</time>
      </trkpt>
      <trkpt lat="63.24965" lon="18.99574">
        <ele>59.743482</ele>
        <time>2020-10-02T13:07:47.787Z</time>
      </trkpt>
      <trkpt lat="63.24963" lon="18.99549">
        <ele>60.047582</ele>
        <time>2020-10-02T13:07:50.799Z</time>
      </trkpt>
      <trkpt lat="63.24962" lon="18.99521">
        <ele>60.387303</ele>
        <time>2020-10-02T13:07:53.803Z</time>
      </trkpt>
      <trkpt lat="63.24961" lon="18.99499">
        <ele>60.641367</ele>
        <time>2020-10-02T13:07:55.821Z</time>
      </trkpt>
      <trkpt lat="63.2496" lon="18.99476">
        <ele>60.916691</ele>
        <time>2020-10-02T13:07:57.811Z</time>
      </trkpt>
      <trkpt lat="63.24958" lon="18.99453">
        <ele>61.198578</ele>
        <time>2020-10-02T13:07:59.805Z</time>
      </trkpt>
      <trkpt lat="63.24957" lon="18.99431">
        <ele>61.039247</ele>
        <time>2020-10-02T13:08:01.808Z</time>
      </trkpt>
      <trkpt lat="63.24955" lon="18.99408">
        <ele>60.832709</ele>
        <time>2020-10-02T13:08:03.805Z</time>
      </trkpt>
      <trkpt lat="63.24954" lon="18.99385">
        <ele>60.626346</ele>
        <time>2020-10-02T13:08:05.810Z</time>
      </trkpt>
      <trkpt lat="63.24952" lon="18.99361">
        <ele>60.415118</ele>
        <time>2020-10-02T13:08:07.816Z</time>
      </trkpt>
      <trkpt lat="63.24951" lon="18.99338">
        <ele>60.203014</ele>
        <time>2020-10-02T13:08:09.790Z</time>
      </trkpt>
      <trkpt lat="63.24949" lon="18.99314">
        <ele>59.991997</ele>
        <time>2020-10-02T13:08:11.833Z</time>
      </trkpt>
      <trkpt lat="63.24947" lon="18.99291">
        <ele>59.784273</ele>
        <time>2020-10-02T13:08:13.812Z</time>
      </trkpt>
      <trkpt lat="63.24946" lon="18.99266">
        <ele>59.556392</ele>
        <time>2020-10-02T13:08:15.784Z</time>
      </trkpt>
      <trkpt lat="63.24945" lon="18.99237">
        <ele>59.299712</ele>
        <time>2020-10-02T13:08:17.807Z</time>
      </trkpt>
      <trkpt lat="63.24943" lon="18.99208">
        <ele>59.044309</ele>
        <time>2020-10-02T13:08:19.799Z</time>
      </trkpt>
      <trkpt lat="63.24939" lon="18.99179">
        <ele>58.766589</ele>
        <time>2020-10-02T13:08:21.833Z</time>
      </trkpt>
      <trkpt lat="63.24933" lon="18.99151">
        <ele>58.498723</ele>
        <time>2020-10-02T13:08:23.804Z</time>
      </trkpt>
      <trkpt lat="63.24926" lon="18.99126">
        <ele>58.237712</ele>
        <time>2020-10-02T13:08:25.838Z</time>
      </trkpt>
      <trkpt lat="63.24918" lon="18.99104">
        <ele>57.985165</ele>
        <time>2020-10-02T13:08:27.830Z</time>
      </trkpt>
      <trkpt lat="63.24909" lon="18.99084">
        <ele>57.732785</ele>
        <time>2020-10-02T13:08:29.797Z</time>
      </trkpt>
      <trkpt lat="63.249" lon="18.99065">
        <ele>57.043594</ele>
        <time>2020-10-02T13:08:31.788Z</time>
      </trkpt>
      <trkpt lat="63.24891" lon="18.99048">
        <ele>56.255269</ele>
        <time>2020-10-02T13:08:33.811Z</time>
      </trkpt>
      <trkpt lat="63.24882" lon="18.99031">
        <ele>55.478942</ele>
        <time>2020-10-02T13:08:35.807Z</time>
      </trkpt>
      <trkpt lat="63.24872" lon="18.99014">
        <ele>54.663833</ele>
        <time>2020-10-02T13:08:37.788Z</time>
      </trkpt>
      <trkpt lat="63.24862" lon="18.98997">
        <ele>53.795492</ele>
        <time>2020-10-02T13:08:39.810Z</time>
      </trkpt>
      <trkpt lat="63.24852" lon="18.98979">
        <ele>52.94746</ele>
        <time>2020-10-02T13:08:41.785Z</time>
      </trkpt>
      <trkpt lat="63.24841" lon="18.98959">
        <ele>52.033967</ele>
        <time>2020-10-02T13:08:43.825Z</time>
      </trkpt>
      <trkpt lat="63.2483" lon="18.9894">
        <ele>51.078961</ele>
        <time>2020-10-02T13:08:45.788Z</time>
      </trkpt>
      <trkpt lat="63.24817" lon="18.98923">
        <ele>50.108892</ele>
        <time>2020-10-02T13:08:47.793Z</time>
      </trkpt>
      <trkpt lat="63.24805" lon="18.98907">
        <ele>49.160425</ele>
        <time>2020-10-02T13:08:49.802Z</time>
      </trkpt>
      <trkpt lat="63.24793" lon="18.98893">
        <ele>48.253004</ele>
        <time>2020-10-02T13:08:51.798Z</time>
      </trkpt>
      <trkpt lat="63.24781" lon="18.9888">
        <ele>47.389074</ele>
        <time>2020-10-02T13:08:53.792Z</time>
      </trkpt>
      <trkpt lat="63.2477" lon="18.98867">
        <ele>46.589623</ele>
        <time>2020-10-02T13:08:55.827Z</time>
      </trkpt>
      <trkpt lat="63.2476" lon="18.98854">
        <ele>45.824394</ele>
        <time>2020-10-02T13:08:57.813Z</time>
      </trkpt>
      <trkpt lat="63.24753" lon="18.9884">
        <ele>45.822642</ele>
        <time>2020-10-02T13:08:59.804Z</time>
      </trkpt>
      <trkpt lat="63.24745" lon="18.98826">
        <ele>45.86894</ele>
        <time>2020-10-02T13:09:01.796Z</time>
      </trkpt>
      <trkpt lat="63.24738" lon="18.98811">
        <ele>45.915489</ele>
        <time>2020-10-02T13:09:03.786Z</time>
      </trkpt>
      <trkpt lat="63.24732" lon="18.98793">
        <ele>45.96414</ele>
        <time>2020-10-02T13:09:05.834Z</time>
      </trkpt>
      <trkpt lat="63.24726" lon="18.98772">
        <ele>46.015917</ele>
        <time>2020-10-02T13:09:07.785Z</time>
      </trkpt>
      <trkpt lat="63.2472" lon="18.9875">
        <ele>46.069713</ele>
        <time>2020-10-02T13:09:09.802Z</time>
      </trkpt>
      <trkpt lat="63.24716" lon="18.9873">
        <ele>46.118358</ele>
        <time>2020-10-02T13:09:11.788Z</time>
      </trkpt>
      <trkpt lat="63.24712" lon="18.98711">
        <ele>46.160996</ele>
        <time>2020-10-02T13:09:13.841Z</time>
      </trkpt>
      <trkpt lat="63.24709" lon="18.98688">
        <ele>46.212167</ele>
        <time>2020-10-02T13:09:16.804Z</time>
      </trkpt>
      <trkpt lat="63.24707" lon="18.98664">
        <ele>46.265069</ele>
        <time>2020-10-02T13:09:20.837Z</time>
      </trkpt>
      <trkpt lat="63.24704" lon="18.9864">
        <ele>46.318361</ele>
        <time>2020-10-02T13:09:24.815Z</time>
      </trkpt>
      <trkpt lat="63.24701" lon="18.98615">
        <ele>46.373539</ele>
        <time>2020-10-02T13:09:28.785Z</time>
      </trkpt>
      <trkpt lat="63.24699" lon="18.98593">
        <ele>46.421912</ele>
        <time>2020-10-02T13:09:31.832Z</time>
      </trkpt>
      <trkpt lat="63.24697" lon="18.98568">
        <ele>46.476597</ele>
        <time>2020-10-02T13:09:34.812Z</time>
      </trkpt>
      <trkpt lat="63.24692" lon="18.9854">
        <ele>46.53932</ele>
        <time>2020-10-02T13:09:37.799Z</time>
      </trkpt>
      <trkpt lat="63.24689" lon="18.9852">
        <ele>46.585854</ele>
        <time>2020-10-02T13:09:39.814Z</time>
      </trkpt>
      <trkpt lat="63.24684" lon="18.98497">
        <ele>46.627338</ele>
        <time>2020-10-02T13:09:41.828Z</time>
      </trkpt>
      <trkpt lat="63.24679" lon="18.98475">
        <ele>46.600903</ele>
        <time>2020-10-02T13:09:43.799Z</time>
      </trkpt>
      <trkpt lat="63.24674" lon="18.9845">
        <ele>46.572665</ele>
        <time>2020-10-02T13:09:45.837Z</time>
      </trkpt>
      <trkpt lat="63.2467" lon="18.98424">
        <ele>46.544109</ele>
        <time>2020-10-02T13:09:47.861Z</time>
      </trkpt>
      <trkpt lat="63.24664" lon="18.98397">
        <ele>46.513114</ele>
        <time>2020-10-02T13:09:49.797Z</time>
      </trkpt>
      <trkpt lat="63.24658" lon="18.98369">
        <ele>46.480682</ele>
        <time>2020-10-02T13:09:51.833Z</time>
      </trkpt>
      <trkpt lat="63.24653" lon="18.98342">
        <ele>46.449306</ele>
        <time>2020-10-02T13:09:53.819Z</time>
      </trkpt>
      <trkpt lat="63.24648" lon="18.98317">
        <ele>46.421354</ele>
        <time>2020-10-02T13:09:55.803Z</time>
      </trkpt>
      <trkpt lat="63.24643" lon="18.98296">
        <ele>46.396612</ele>
        <time>2020-10-02T13:09:57.809Z</time>
      </trkpt>
      <trkpt lat="63.24637" lon="18.98277">
        <ele>46.372742</ele>
        <time>2020-10-02T13:09:59.800Z</time>
      </trkpt>
      <trkpt lat="63.24632" lon="18.98258">
        <ele>46.349238</ele>
        <time>2020-10-02T13:10:01.835Z</time>
      </trkpt>
      <trkpt lat="63.24626" lon="18.98238">
        <ele>46.324946</ele>
        <time>2020-10-02T13:10:03.824Z</time>
      </trkpt>
      <trkpt lat="63.2462" lon="18.98218">
        <ele>46.29979</ele>
        <time>2020-10-02T13:10:05.875Z</time>
      </trkpt>
      <trkpt lat="63.24615" lon="18.98196">
        <ele>46.274141</ele>
        <time>2020-10-02T13:10:07.823Z</time>
      </trkpt>
      <trkpt lat="63.24609" lon="18.98173">
        <ele>46.246605</ele>
        <time>2020-10-02T13:10:09.819Z</time>
      </trkpt>
      <trkpt lat="63.24604" lon="18.9815">
        <ele>46.21949</ele>
        <time>2020-10-02T13:10:11.843Z</time>
      </trkpt>
      <trkpt lat="63.24597" lon="18.98125">
        <ele>45.987433</ele>
        <time>2020-10-02T13:10:13.853Z</time>
      </trkpt>
      <trkpt lat="63.2459" lon="18.98098">
        <ele>45.68874</ele>
        <time>2020-10-02T13:10:15.822Z</time>
      </trkpt>
      <trkpt lat="63.24582" lon="18.98071">
        <ele>45.383633</ele>
        <time>2020-10-02T13:10:17.806Z</time>
      </trkpt>
      <trkpt lat="63.24574" lon="18.98042">
        <ele>45.058033</ele>
        <time>2020-10-02T13:10:19.793Z</time>
      </trkpt>
      <trkpt lat="63.24565" lon="18.98013">
        <ele>44.721951</ele>
        <time>2020-10-02T13:10:21.803Z</time>
      </trkpt>
      <trkpt lat="63.24557" lon="18.97985">
        <ele>44.406675</ele>
        <time>2020-10-02T13:10:23.792Z</time>
      </trkpt>
      <trkpt lat="63.24549" lon="18.97957">
        <ele>44.094381</ele>
        <time>2020-10-02T13:10:25.792Z</time>
      </trkpt>
      <trkpt lat="63.24541" lon="18.97929">
        <ele>43.784858</ele>
        <time>2020-10-02T13:10:27.852Z</time>
      </trkpt>
      <trkpt lat="63.24533" lon="18.97901">
        <ele>43.473678</ele>
        <time>2020-10-02T13:10:29.841Z</time>
      </trkpt>
      <trkpt lat="63.24525" lon="18.97873">
        <ele>43.158324</ele>
        <time>2020-10-02T13:10:31.807Z</time>
      </trkpt>
      <trkpt lat="63.24516" lon="18.97844">
        <ele>42.828472</ele>
        <time>2020-10-02T13:10:33.803Z</time>
      </trkpt>
      <trkpt lat="63.24507" lon="18.97816">
        <ele>42.498179</ele>
        <time>2020-10-02T13:10:35.781Z</time>
      </trkpt>
      <trkpt lat="63.24498" lon="18.97789">
        <ele>42.202846</ele>
        <time>2020-10-02T13:10:37.817Z</time>
      </trkpt>
      <trkpt lat="63.24491" lon="18.97763">
        <ele>41.9356</ele>
        <time>2020-10-02T13:10:39.794Z</time>
      </trkpt>
      <trkpt lat="63.24484" lon="18.97738">
        <ele>41.683795</ele>
        <time>2020-10-02T13:10:41.785Z</time>
      </trkpt>
      <trkpt lat="63.24478" lon="18.97713">
        <ele>41.439809</ele>
        <time>2020-10-02T13:10:43.788Z</time>
      </trkpt>
      <trkpt lat="63.24472" lon="18.97687">
        <ele>41.189467</ele>
        <time>2020-10-02T13:10:45.789Z</time>
      </trkpt>
      <trkpt lat="63.24466" lon="18.97662">
        <ele>40.944098</ele>
        <time>2020-10-02T13:10:47.836Z</time>
      </trkpt>
      <trkpt lat="63.2446" lon="18.97636">
        <ele>40.691454</ele>
        <time>2020-10-02T13:10:49.821Z</time>
      </trkpt>
      <trkpt lat="63.24454" lon="18.9761">
        <ele>40.437664</ele>
        <time>2020-10-02T13:10:51.800Z</time>
      </trkpt>
      <trkpt lat="63.24448" lon="18.97583">
        <ele>40.177022</ele>
        <time>2020-10-02T13:10:53.805Z</time>
      </trkpt>
      <trkpt lat="63.24442" lon="18.97556">
        <ele>39.91976</ele>
        <time>2020-10-02T13:10:55.848Z</time>
      </trkpt>
      <trkpt lat="63.24436" lon="18.97531">
        <ele>39.674888</ele>
        <time>2020-10-02T13:10:57.789Z</time>
      </trkpt>
      <trkpt lat="63.2443" lon="18.97506">
        <ele>39.439036</ele>
        <time>2020-10-02T13:10:59.790Z</time>
      </trkpt>
      <trkpt lat="63.24425" lon="18.97481">
        <ele>39.202416</ele>
        <time>2020-10-02T13:11:01.808Z</time>
      </trkpt>
      <trkpt lat="63.2442" lon="18.97456">
        <ele>38.970557</ele>
        <time>2020-10-02T13:11:03.803Z</time>
      </trkpt>
      <trkpt lat="63.24415" lon="18.97431">
        <ele>38.841159</ele>
        <time>2020-10-02T13:11:05.793Z</time>
      </trkpt>
      <trkpt lat="63.2441" lon="18.97405">
        <ele>38.712167</ele>
        <time>2020-10-02T13:11:07.792Z</time>
      </trkpt>
      <trkpt lat="63.24406" lon="18.97379">
        <ele>38.580735</ele>
        <time>2020-10-02T13:11:09.842Z</time>
      </trkpt>
      <trkpt lat="63.24402" lon="18.97353">
        <ele>38.447327</ele>
        <time>2020-10-02T13:11:11.826Z</time>
      </trkpt>
      <trkpt lat="63.24399" lon="18.97326">
        <ele>38.31652</ele>
        <time>2020-10-02T13:11:13.787Z</time>
      </trkpt>
      <trkpt lat="63.24396" lon="18.97298">
        <ele>38.181529</ele>
        <time>2020-10-02T13:11:15.798Z</time>
      </trkpt>
      <trkpt lat="63.24394" lon="18.97269">
        <ele>38.041344</ele>
        <time>2020-10-02T13:11:17.820Z</time>
      </trkpt>
      <trkpt lat="63.24392" lon="18.97238">
        <ele>37.893152</ele>
        <time>2020-10-02T13:11:19.803Z</time>
      </trkpt>
      <trkpt lat="63.2439" lon="18.97207">
        <ele>37.747425</ele>
        <time>2020-10-02T13:11:21.820Z</time>
      </trkpt>
      <trkpt lat="63.2439" lon="18.97176">
        <ele>37.600765</ele>
        <time>2020-10-02T13:11:23.784Z</time>
      </trkpt>
      <trkpt lat="63.2439" lon="18.97145">
        <ele>37.451741</ele>
        <time>2020-10-02T13:11:25.795Z</time>
      </trkpt>
      <trkpt lat="63.24389" lon="18.97114">
        <ele>37.30552</ele>
        <time>2020-10-02T13:11:27.794Z</time>
      </trkpt>
      <trkpt lat="63.24389" lon="18.97082">
        <ele>37.156969</ele>
        <time>2020-10-02T13:11:29.804Z</time>
      </trkpt>
      <trkpt lat="63.24388" lon="18.97048">
        <ele>36.95926</ele>
        <time>2020-10-02T13:11:31.805Z</time>
      </trkpt>
      <trkpt lat="63.24387" lon="18.9701">
        <ele>36.721848</ele>
        <time>2020-10-02T13:11:33.813Z</time>
      </trkpt>
      <trkpt lat="63.24385" lon="18.96971">
        <ele>36.475099</ele>
        <time>2020-10-02T13:11:35.802Z</time>
      </trkpt>
      <trkpt lat="63.24384" lon="18.96951">
        <ele>36.348888</ele>
        <time>2020-10-02T13:11:36.823Z</time>
      </trkpt>
      <trkpt lat="63.24381" lon="18.96911">
        <ele>36.096548</ele>
        <time>2020-10-02T13:11:38.798Z</time>
      </trkpt>
      <trkpt lat="63.24378" lon="18.96873">
        <ele>35.851089</ele>
        <time>2020-10-02T13:11:40.806Z</time>
      </trkpt>
      <trkpt lat="63.24374" lon="18.96838">
        <ele>35.626806</ele>
        <time>2020-10-02T13:11:42.792Z</time>
      </trkpt>
      <trkpt lat="63.24371" lon="18.96807">
        <ele>35.426263</ele>
        <time>2020-10-02T13:11:44.808Z</time>
      </trkpt>
      <trkpt lat="63.24366" lon="18.9678">
        <ele>35.248204</ele>
        <time>2020-10-02T13:11:46.800Z</time>
      </trkpt>
      <trkpt lat="63.24362" lon="18.96757">
        <ele>35.092063</ele>
        <time>2020-10-02T13:11:48.860Z</time>
      </trkpt>
      <trkpt lat="63.24356" lon="18.96736">
        <ele>34.937509</ele>
        <time>2020-10-02T13:11:50.790Z</time>
      </trkpt>
      <trkpt lat="63.24351" lon="18.96716">
        <ele>34.790868</ele>
        <time>2020-10-02T13:11:52.808Z</time>
      </trkpt>
      <trkpt lat="63.24345" lon="18.96696">
        <ele>34.64567</ele>
        <time>2020-10-02T13:11:54.821Z</time>
      </trkpt>
      <trkpt lat="63.2434" lon="18.96676">
        <ele>34.442752</ele>
        <time>2020-10-02T13:11:56.808Z</time>
      </trkpt>
      <trkpt lat="63.24336" lon="18.96655">
        <ele>34.201269</ele>
        <time>2020-10-02T13:11:58.797Z</time>
      </trkpt>
      <trkpt lat="63.24333" lon="18.96635">
        <ele>33.972899</ele>
        <time>2020-10-02T13:12:00.791Z</time>
      </trkpt>
      <trkpt lat="63.2433" lon="18.96612">
        <ele>33.723935</ele>
        <time>2020-10-02T13:12:02.812Z</time>
      </trkpt>
      <trkpt lat="63.24328" lon="18.96587">
        <ele>33.46389</ele>
        <time>2020-10-02T13:12:04.799Z</time>
      </trkpt>
      <trkpt lat="63.24326" lon="18.96561">
        <ele>33.182968</ele>
        <time>2020-10-02T13:12:06.802Z</time>
      </trkpt>
      <trkpt lat="63.24325" lon="18.96532">
        <ele>32.881894</ele>
        <time>2020-10-02T13:12:08.837Z</time>
      </trkpt>
      <trkpt lat="63.24324" lon="18.96503">
        <ele>32.571879</ele>
        <time>2020-10-02T13:12:10.803Z</time>
      </trkpt>
      <trkpt lat="63.24322" lon="18.96475">
        <ele>32.271041</ele>
        <time>2020-10-02T13:12:12.808Z</time>
      </trkpt>
      <trkpt lat="63.24319" lon="18.96449">
        <ele>31.990761</ele>
        <time>2020-10-02T13:12:14.793Z</time>
      </trkpt>
      <trkpt lat="63.24315" lon="18.96424">
        <ele>31.716391</ele>
        <time>2020-10-02T13:12:16.781Z</time>
      </trkpt>
      <trkpt lat="63.24311" lon="18.96399">
        <ele>31.437147</ele>
        <time>2020-10-02T13:12:18.790Z</time>
      </trkpt>
      <trkpt lat="63.24306" lon="18.96376">
        <ele>31.167029</ele>
        <time>2020-10-02T13:12:20.785Z</time>
      </trkpt>
      <trkpt lat="63.24301" lon="18.96354">
        <ele>30.911029</ele>
        <time>2020-10-02T13:12:22.819Z</time>
      </trkpt>
      <trkpt lat="63.24297" lon="18.96333">
        <ele>30.664923</ele>
        <time>2020-10-02T13:12:24.786Z</time>
      </trkpt>
      <trkpt lat="63.24292" lon="18.96311">
        <ele>30.408097</ele>
        <time>2020-10-02T13:12:26.837Z</time>
      </trkpt>
      <trkpt lat="63.24285" lon="18.96287">
        <ele>30.63134</ele>
        <time>2020-10-02T13:12:28.938Z</time>
      </trkpt>
      <trkpt lat="63.24278" lon="18.96264">
        <ele>30.89205</ele>
        <time>2020-10-02T13:12:30.799Z</time>
      </trkpt>
      <trkpt lat="63.2427" lon="18.96241">
        <ele>31.148192</ele>
        <time>2020-10-02T13:12:32.831Z</time>
      </trkpt>
      <trkpt lat="63.24263" lon="18.96219">
        <ele>31.402769</ele>
        <time>2020-10-02T13:12:34.769Z</time>
      </trkpt>
      <trkpt lat="63.24256" lon="18.96197">
        <ele>31.648607</ele>
        <time>2020-10-02T13:12:36.804Z</time>
      </trkpt>
      <trkpt lat="63.24247" lon="18.96177">
        <ele>31.891446</ele>
        <time>2020-10-02T13:12:38.782Z</time>
      </trkpt>
      <trkpt lat="63.24239" lon="18.96159">
        <ele>32.127645</ele>
        <time>2020-10-02T13:12:40.791Z</time>
      </trkpt>
      <trkpt lat="63.24233" lon="18.96141">
        <ele>32.330044</ele>
        <time>2020-10-02T13:12:42.786Z</time>
      </trkpt>
      <trkpt lat="63.24228" lon="18.96125">
        <ele>32.514727</ele>
        <time>2020-10-02T13:12:44.794Z</time>
      </trkpt>
      <trkpt lat="63.24223" lon="18.96108">
        <ele>32.700322</ele>
        <time>2020-10-02T13:12:46.801Z</time>
      </trkpt>
      <trkpt lat="63.24216" lon="18.96084">
        <ele>32.963959</ele>
        <time>2020-10-02T13:12:49.807Z</time>
      </trkpt>
      <trkpt lat="63.24209" lon="18.96054">
        <ele>33.268058</ele>
        <time>2020-10-02T13:12:53.781Z</time>
      </trkpt>
      <trkpt lat="63.24206" lon="18.96033">
        <ele>33.468287</ele>
        <time>2020-10-02T13:12:56.793Z</time>
      </trkpt>
      <trkpt lat="63.24204" lon="18.96011">
        <ele>33.666828</ele>
        <time>2020-10-02T13:12:59.804Z</time>
      </trkpt>
      <trkpt lat="63.242" lon="18.9599">
        <ele>33.879307</ele>
        <time>2020-10-02T13:13:02.804Z</time>
      </trkpt>
      <trkpt lat="63.24197" lon="18.9597">
        <ele>34.195437</ele>
        <time>2020-10-02T13:13:05.790Z</time>
      </trkpt>
      <trkpt lat="63.24195" lon="18.95944">
        <ele>35.148917</ele>
        <time>2020-10-02T13:13:09.784Z</time>
      </trkpt>
      <trkpt lat="63.24194" lon="18.95924">
        <ele>35.902514</ele>
        <time>2020-10-02T13:13:13.828Z</time>
      </trkpt>
      <trkpt lat="63.24194" lon="18.95904">
        <ele>36.643852</ele>
        <time>2020-10-02T13:13:17.802Z</time>
      </trkpt>
      <trkpt lat="63.24193" lon="18.95884">
        <ele>37.384694</ele>
        <time>2020-10-02T13:13:21.797Z</time>
      </trkpt>
      <trkpt lat="63.24193" lon="18.95859">
        <ele>38.305643</ele>
        <time>2020-10-02T13:13:26.801Z</time>
      </trkpt>
      <trkpt lat="63.24191" lon="18.95837">
        <ele>39.111247</ele>
        <time>2020-10-02T13:13:30.809Z</time>
      </trkpt>
      <trkpt lat="63.24192" lon="18.95814">
        <ele>39.93993</ele>
        <time>2020-10-02T13:13:34.799Z</time>
      </trkpt>
      <trkpt lat="63.24191" lon="18.95791">
        <ele>40.819529</ele>
        <time>2020-10-02T13:13:38.828Z</time>
      </trkpt>
      <trkpt lat="63.24191" lon="18.95771">
        <ele>41.555569</ele>
        <time>2020-10-02T13:13:41.776Z</time>
      </trkpt>
      <trkpt lat="63.24191" lon="18.95745">
        <ele>42.508733</ele>
        <time>2020-10-02T13:13:45.786Z</time>
      </trkpt>
      <trkpt lat="63.24192" lon="18.9572">
        <ele>43.42027</ele>
        <time>2020-10-02T13:13:49.828Z</time>
      </trkpt>
      <trkpt lat="63.24193" lon="18.95699">
        <ele>44.190613</ele>
        <time>2020-10-02T13:13:53.787Z</time>
      </trkpt>
      <trkpt lat="63.24195" lon="18.9568">
        <ele>44.925189</ele>
        <time>2020-10-02T13:13:57.800Z</time>
      </trkpt>
      <trkpt lat="63.24195" lon="18.95655">
        <ele>45.823298</ele>
        <time>2020-10-02T13:14:02.808Z</time>
      </trkpt>
      <trkpt lat="63.24195" lon="18.95633">
        <ele>46.633306</ele>
        <time>2020-10-02T13:14:07.798Z</time>
      </trkpt>
      <trkpt lat="63.24195" lon="18.95612">
        <ele>47.435748</ele>
        <time>2020-10-02T13:14:12.795Z</time>
      </trkpt>
      <trkpt lat="63.24195" lon="18.95589">
        <ele>48.267627</ele>
        <time>2020-10-02T13:14:17.818Z</time>
      </trkpt>
      <trkpt lat="63.24196" lon="18.95566">
        <ele>49.004517</ele>
        <time>2020-10-02T13:14:22.800Z</time>
      </trkpt>
      <trkpt lat="63.24196" lon="18.95545">
        <ele>49.516651</ele>
        <time>2020-10-02T13:14:26.793Z</time>
      </trkpt>
      <trkpt lat="63.24196" lon="18.95522">
        <ele>50.095881</ele>
        <time>2020-10-02T13:14:31.793Z</time>
      </trkpt>
      <trkpt lat="63.24197" lon="18.95502">
        <ele>50.609989</ele>
        <time>2020-10-02T13:14:36.805Z</time>
      </trkpt>
      <trkpt lat="63.24198" lon="18.9548">
        <ele>51.168706</ele>
        <time>2020-10-02T13:14:41.790Z</time>
      </trkpt>
      <trkpt lat="63.24199" lon="18.9546">
        <ele>51.669781</ele>
        <time>2020-10-02T13:14:45.801Z</time>
      </trkpt>
      <trkpt lat="63.24199" lon="18.95436">
        <ele>52.268877</ele>
        <time>2020-10-02T13:14:50.795Z</time>
      </trkpt>
      <trkpt lat="63.242" lon="18.95416">
        <ele>52.795349</ele>
        <time>2020-10-02T13:14:54.816Z</time>
      </trkpt>
      <trkpt lat="63.242" lon="18.95394">
        <ele>53.329679</ele>
        <time>2020-10-02T13:14:58.800Z</time>
      </trkpt>
      <trkpt lat="63.24201" lon="18.95374">
        <ele>53.849336</ele>
        <time>2020-10-02T13:15:02.853Z</time>
      </trkpt>
      <trkpt lat="63.24201" lon="18.95353">
        <ele>54.377582</ele>
        <time>2020-10-02T13:15:06.834Z</time>
      </trkpt>
      <trkpt lat="63.242" lon="18.95331">
        <ele>54.934872</ele>
        <time>2020-10-02T13:15:10.785Z</time>
      </trkpt>
      <trkpt lat="63.24199" lon="18.95307">
        <ele>55.541162</ele>
        <time>2020-10-02T13:15:14.784Z</time>
      </trkpt>
      <trkpt lat="63.242" lon="18.95285">
        <ele>56.098452</ele>
        <time>2020-10-02T13:15:18.817Z</time>
      </trkpt>
      <trkpt lat="63.24202" lon="18.95262">
        <ele>56.663137</ele>
        <time>2020-10-02T13:15:22.803Z</time>
      </trkpt>
      <trkpt lat="63.24202" lon="18.95241">
        <ele>57.194015</ele>
        <time>2020-10-02T13:15:26.787Z</time>
      </trkpt>
      <trkpt lat="63.24203" lon="18.9522">
        <ele>57.737716</ele>
        <time>2020-10-02T13:15:30.797Z</time>
      </trkpt>
      <trkpt lat="63.24203" lon="18.95198">
        <ele>58.284969</ele>
        <time>2020-10-02T13:15:34.859Z</time>
      </trkpt>
      <trkpt lat="63.24204" lon="18.95178">
        <ele>58.785873</ele>
        <time>2020-10-02T13:15:38.797Z</time>
      </trkpt>
      <trkpt lat="63.24204" lon="18.95157">
        <ele>58.944099</ele>
        <time>2020-10-02T13:15:42.808Z</time>
      </trkpt>
      <trkpt lat="63.24204" lon="18.95136">
        <ele>59.103056</ele>
        <time>2020-10-02T13:15:46.834Z</time>
      </trkpt>
      <trkpt lat="63.24204" lon="18.95116">
        <ele>59.262926</ele>
        <time>2020-10-02T13:15:50.804Z</time>
      </trkpt>
      <trkpt lat="63.24205" lon="18.95095">
        <ele>59.420505</ele>
        <time>2020-10-02T13:15:54.832Z</time>
      </trkpt>
      <trkpt lat="63.24207" lon="18.95072">
        <ele>59.604159</ele>
        <time>2020-10-02T13:15:59.784Z</time>
      </trkpt>
      <trkpt lat="63.2421" lon="18.95052">
        <ele>59.763412</ele>
        <time>2020-10-02T13:16:03.794Z</time>
      </trkpt>
      <trkpt lat="63.24215" lon="18.95034">
        <ele>59.919095</ele>
        <time>2020-10-02T13:16:07.794Z</time>
      </trkpt>
      <trkpt lat="63.24221" lon="18.9502">
        <ele>60.075573</ele>
        <time>2020-10-02T13:16:11.798Z</time>
      </trkpt>
      <trkpt lat="63.24228" lon="18.95002">
        <ele>60.256526</ele>
        <time>2020-10-02T13:16:16.827Z</time>
      </trkpt>
      <trkpt lat="63.24236" lon="18.94991">
        <ele>60.41209</ele>
        <time>2020-10-02T13:16:20.813Z</time>
      </trkpt>
      <trkpt lat="63.24244" lon="18.9498">
        <ele>60.578537</ele>
        <time>2020-10-02T13:16:24.798Z</time>
      </trkpt>
      <trkpt lat="63.24254" lon="18.94969">
        <ele>60.773293</ele>
        <time>2020-10-02T13:16:28.793Z</time>
      </trkpt>
      <trkpt lat="63.24265" lon="18.94959">
        <ele>60.962644</ele>
        <time>2020-10-02T13:16:32.802Z</time>
      </trkpt>
      <trkpt lat="63.24275" lon="18.94951">
        <ele>61.157068</ele>
        <time>2020-10-02T13:16:36.805Z</time>
      </trkpt>
      <trkpt lat="63.24284" lon="18.94946">
        <ele>61.315877</ele>
        <time>2020-10-02T13:16:39.793Z</time>
      </trkpt>
      <trkpt lat="63.24294" lon="18.94942">
        <ele>61.47676</ele>
        <time>2020-10-02T13:16:42.790Z</time>
      </trkpt>
      <trkpt lat="63.24305" lon="18.94941">
        <ele>61.664686</ele>
        <time>2020-10-02T13:16:46.786Z</time>
      </trkpt>
      <trkpt lat="63.24315" lon="18.94943">
        <ele>61.846199</ele>
        <time>2020-10-02T13:16:50.792Z</time>
      </trkpt>
      <trkpt lat="63.24325" lon="18.94948">
        <ele>61.58721</ele>
        <time>2020-10-02T13:16:53.792Z</time>
      </trkpt>
      <trkpt lat="63.24336" lon="18.94956">
        <ele>61.3044</ele>
        <time>2020-10-02T13:16:56.791Z</time>
      </trkpt>
      <trkpt lat="63.24346" lon="18.94962">
        <ele>61.027599</ele>
        <time>2020-10-02T13:16:59.788Z</time>
      </trkpt>
      <trkpt lat="63.24355" lon="18.94967">
        <ele>60.795894</ele>
        <time>2020-10-02T13:17:01.820Z</time>
      </trkpt>
      <trkpt lat="63.24366" lon="18.94976">
        <ele>60.494723</ele>
        <time>2020-10-02T13:17:04.798Z</time>
      </trkpt>
      <trkpt lat="63.24378" lon="18.94985">
        <ele>60.193675</ele>
        <time>2020-10-02T13:17:07.796Z</time>
      </trkpt>
      <trkpt lat="63.2439" lon="18.94994">
        <ele>59.866875</ele>
        <time>2020-10-02T13:17:10.815Z</time>
      </trkpt>
      <trkpt lat="63.24401" lon="18.95001">
        <ele>59.560628</ele>
        <time>2020-10-02T13:17:13.799Z</time>
      </trkpt>
      <trkpt lat="63.24411" lon="18.95008">
        <ele>59.302482</ele>
        <time>2020-10-02T13:17:16.793Z</time>
      </trkpt>
      <trkpt lat="63.24422" lon="18.95016">
        <ele>58.998896</ele>
        <time>2020-10-02T13:17:20.806Z</time>
      </trkpt>
      <trkpt lat="63.24434" lon="18.95022">
        <ele>58.686496</ele>
        <time>2020-10-02T13:17:24.801Z</time>
      </trkpt>
      <trkpt lat="63.24444" lon="18.95027">
        <ele>58.422612</ele>
        <time>2020-10-02T13:17:27.816Z</time>
      </trkpt>
      <trkpt lat="63.24454" lon="18.95033">
        <ele>58.170348</ele>
        <time>2020-10-02T13:17:30.805Z</time>
      </trkpt>
      <trkpt lat="63.24465" lon="18.9504">
        <ele>57.875133</ele>
        <time>2020-10-02T13:17:33.822Z</time>
      </trkpt>
      <trkpt lat="63.24477" lon="18.95048">
        <ele>57.56777</ele>
        <time>2020-10-02T13:17:36.824Z</time>
      </trkpt>
      <trkpt lat="63.2449" lon="18.95056">
        <ele>57.207259</ele>
        <time>2020-10-02T13:17:39.855Z</time>
      </trkpt>
      <trkpt lat="63.24501" lon="18.95063">
        <ele>56.903258</ele>
        <time>2020-10-02T13:17:41.796Z</time>
      </trkpt>
      <trkpt lat="63.24513" lon="18.95071">
        <ele>56.571306</ele>
        <time>2020-10-02T13:17:43.829Z</time>
      </trkpt>
      <trkpt lat="63.24524" lon="18.95079">
        <ele>56.237952</ele>
        <time>2020-10-02T13:17:45.821Z</time>
      </trkpt>
      <trkpt lat="63.24536" lon="18.95088">
        <ele>55.896096</ele>
        <time>2020-10-02T13:17:47.818Z</time>
      </trkpt>
      <trkpt lat="63.24548" lon="18.95096">
        <ele>55.556866</ele>
        <time>2020-10-02T13:17:49.796Z</time>
      </trkpt>
      <trkpt lat="63.2456" lon="18.95104">
        <ele>55.232323</ele>
        <time>2020-10-02T13:17:51.804Z</time>
      </trkpt>
      <trkpt lat="63.24572" lon="18.95112">
        <ele>54.901708</ele>
        <time>2020-10-02T13:17:53.798Z</time>
      </trkpt>
      <trkpt lat="63.24583" lon="18.95118">
        <ele>54.587544</ele>
        <time>2020-10-02T13:17:55.837Z</time>
      </trkpt>
      <trkpt lat="63.24593" lon="18.95125">
        <ele>54.296459</ele>
        <time>2020-10-02T13:17:57.793Z</time>
      </trkpt>
      <trkpt lat="63.24603" lon="18.95132">
        <ele>54.017472</ele>
        <time>2020-10-02T13:17:59.794Z</time>
      </trkpt>
      <trkpt lat="63.24612" lon="18.95139">
        <ele>53.756151</ele>
        <time>2020-10-02T13:18:01.831Z</time>
      </trkpt>
      <trkpt lat="63.24621" lon="18.95146">
        <ele>53.509762</ele>
        <time>2020-10-02T13:18:03.811Z</time>
      </trkpt>
      <trkpt lat="63.2463" lon="18.95152">
        <ele>53.256123</ele>
        <time>2020-10-02T13:18:05.796Z</time>
      </trkpt>
      <trkpt lat="63.24642" lon="18.95161">
        <ele>52.90108</ele>
        <time>2020-10-02T13:18:08.797Z</time>
      </trkpt>
      <trkpt lat="63.24654" lon="18.95171">
        <ele>52.558441</ele>
        <time>2020-10-02T13:18:11.801Z</time>
      </trkpt>
      <trkpt lat="63.24666" lon="18.9518">
        <ele>52.426032</ele>
        <time>2020-10-02T13:18:14.788Z</time>
      </trkpt>
      <trkpt lat="63.24678" lon="18.95192">
        <ele>52.45284</ele>
        <time>2020-10-02T13:18:17.817Z</time>
      </trkpt>
      <trkpt lat="63.2469" lon="18.95205">
        <ele>52.479108</ele>
        <time>2020-10-02T13:18:20.822Z</time>
      </trkpt>
      <trkpt lat="63.24701" lon="18.95219">
        <ele>52.505652</ele>
        <time>2020-10-02T13:18:23.795Z</time>
      </trkpt>
      <trkpt lat="63.24712" lon="18.95236">
        <ele>52.532755</ele>
        <time>2020-10-02T13:18:26.880Z</time>
      </trkpt>
      <trkpt lat="63.24722" lon="18.9525">
        <ele>52.557446</ele>
        <time>2020-10-02T13:18:29.796Z</time>
      </trkpt>
      <trkpt lat="63.24732" lon="18.95262">
        <ele>52.579815</ele>
        <time>2020-10-02T13:18:32.805Z</time>
      </trkpt>
      <trkpt lat="63.24741" lon="18.95273">
        <ele>52.600311</ele>
        <time>2020-10-02T13:18:35.801Z</time>
      </trkpt>
      <trkpt lat="63.2475" lon="18.95283">
        <ele>52.621394</ele>
        <time>2020-10-02T13:18:38.800Z</time>
      </trkpt>
      <trkpt lat="63.2476" lon="18.95295">
        <ele>52.644441</ele>
        <time>2020-10-02T13:18:41.852Z</time>
      </trkpt>
      <trkpt lat="63.24771" lon="18.95307">
        <ele>52.670405</ele>
        <time>2020-10-02T13:18:44.805Z</time>
      </trkpt>
      <trkpt lat="63.24783" lon="18.95319">
        <ele>52.695845</ele>
        <time>2020-10-02T13:18:47.793Z</time>
      </trkpt>
      <trkpt lat="63.24795" lon="18.95328">
        <ele>52.721538</ele>
        <time>2020-10-02T13:18:50.810Z</time>
      </trkpt>
      <trkpt lat="63.24807" lon="18.95335">
        <ele>52.746754</ele>
        <time>2020-10-02T13:18:53.792Z</time>
      </trkpt>
      <trkpt lat="63.24816" lon="18.95339">
        <ele>52.765391</ele>
        <time>2020-10-02T13:18:55.818Z</time>
      </trkpt>
      <trkpt lat="63.24825" lon="18.95342">
        <ele>52.912288</ele>
        <time>2020-10-02T13:18:57.805Z</time>
      </trkpt>
      <trkpt lat="63.24836" lon="18.95344">
        <ele>53.289861</ele>
        <time>2020-10-02T13:18:59.808Z</time>
      </trkpt>
      <trkpt lat="63.24847" lon="18.95346">
        <ele>53.684993</ele>
        <time>2020-10-02T13:19:01.821Z</time>
      </trkpt>
      <trkpt lat="63.24858" lon="18.95348">
        <ele>54.073916</ele>
        <time>2020-10-02T13:19:03.786Z</time>
      </trkpt>
      <trkpt lat="63.24868" lon="18.95352">
        <ele>54.426998</ele>
        <time>2020-10-02T13:19:05.789Z</time>
      </trkpt>
      <trkpt lat="63.24878" lon="18.95356">
        <ele>54.782305</ele>
        <time>2020-10-02T13:19:07.798Z</time>
      </trkpt>
      <trkpt lat="63.24888" lon="18.95358">
        <ele>55.146887</ele>
        <time>2020-10-02T13:19:09.818Z</time>
      </trkpt>
      <trkpt lat="63.24898" lon="18.95361">
        <ele>55.5125</ele>
        <time>2020-10-02T13:19:11.818Z</time>
      </trkpt>
      <trkpt lat="63.24908" lon="18.95365">
        <ele>55.849783</ele>
        <time>2020-10-02T13:19:13.805Z</time>
      </trkpt>
      <trkpt lat="63.24917" lon="18.95367">
        <ele>56.195689</ele>
        <time>2020-10-02T13:19:15.817Z</time>
      </trkpt>
      <trkpt lat="63.24926" lon="18.95369">
        <ele>56.513701</ele>
        <time>2020-10-02T13:19:17.794Z</time>
      </trkpt>
      <trkpt lat="63.24936" lon="18.95371">
        <ele>56.855507</ele>
        <time>2020-10-02T13:19:20.806Z</time>
      </trkpt>
      <trkpt lat="63.24945" lon="18.95373">
        <ele>57.195638</ele>
        <time>2020-10-02T13:19:23.869Z</time>
      </trkpt>
      <trkpt lat="63.24956" lon="18.95376">
        <ele>57.570615</ele>
        <time>2020-10-02T13:19:26.794Z</time>
      </trkpt>
      <trkpt lat="63.24965" lon="18.95379">
        <ele>57.889648</ele>
        <time>2020-10-02T13:19:29.825Z</time>
      </trkpt>
      <trkpt lat="63.24976" lon="18.95382">
        <ele>58.283823</ele>
        <time>2020-10-02T13:19:33.805Z</time>
      </trkpt>
      <trkpt lat="63.24987" lon="18.95384">
        <ele>58.675296</ele>
        <time>2020-10-02T13:19:37.841Z</time>
      </trkpt>
      <trkpt lat="63.24997" lon="18.95385">
        <ele>59.034056</ele>
        <time>2020-10-02T13:19:41.807Z</time>
      </trkpt>
      <trkpt lat="63.25007" lon="18.95381">
        <ele>59.798333</ele>
        <time>2020-10-02T13:19:46.794Z</time>
      </trkpt>
      <trkpt lat="63.25018" lon="18.95376">
        <ele>60.756521</ele>
        <time>2020-10-02T13:19:51.815Z</time>
      </trkpt>
      <trkpt lat="63.25028" lon="18.95369">
        <ele>61.736714</ele>
        <time>2020-10-02T13:19:56.815Z</time>
      </trkpt>
      <trkpt lat="63.25037" lon="18.95357">
        <ele>62.651512</ele>
        <time>2020-10-02T13:20:01.793Z</time>
      </trkpt>
      <trkpt lat="63.25045" lon="18.95345">
        <ele>63.501657</ele>
        <time>2020-10-02T13:20:06.822Z</time>
      </trkpt>
      <trkpt lat="63.25052" lon="18.95329">
        <ele>64.43024</ele>
        <time>2020-10-02T13:20:11.806Z</time>
      </trkpt>
      <trkpt lat="63.2506" lon="18.95313">
        <ele>65.374154</ele>
        <time>2020-10-02T13:20:16.814Z</time>
      </trkpt>
      <trkpt lat="63.25067" lon="18.95296">
        <ele>66.309532</ele>
        <time>2020-10-02T13:20:21.816Z</time>
      </trkpt>
      <trkpt lat="63.25074" lon="18.95276">
        <ele>67.319394</ele>
        <time>2020-10-02T13:20:26.801Z</time>
      </trkpt>
      <trkpt lat="63.2508" lon="18.95257">
        <ele>68.246522</ele>
        <time>2020-10-02T13:20:30.800Z</time>
      </trkpt>
      <trkpt lat="63.25086" lon="18.95238">
        <ele>69.173675</ele>
        <time>2020-10-02T13:20:34.839Z</time>
      </trkpt>
      <trkpt lat="63.25092" lon="18.9522">
        <ele>70.08049</ele>
        <time>2020-10-02T13:20:38.798Z</time>
      </trkpt>
      <trkpt lat="63.25098" lon="18.95201">
        <ele>71.042033</ele>
        <time>2020-10-02T13:20:42.796Z</time>
      </trkpt>
      <trkpt lat="63.25104" lon="18.95182">
        <ele>71.953453</ele>
        <time>2020-10-02T13:20:46.805Z</time>
      </trkpt>
      <trkpt lat="63.2511" lon="18.95161">
        <ele>72.967885</ele>
        <time>2020-10-02T13:20:50.806Z</time>
      </trkpt>
      <trkpt lat="63.25117" lon="18.95144">
        <ele>73.879067</ele>
        <time>2020-10-02T13:20:54.820Z</time>
      </trkpt>
      <trkpt lat="63.25122" lon="18.95127">
        <ele>74.708585</ele>
        <time>2020-10-02T13:20:58.789Z</time>
      </trkpt>
      <trkpt lat="63.25128" lon="18.95109">
        <ele>75.116145</ele>
        <time>2020-10-02T13:21:02.809Z</time>
      </trkpt>
      <trkpt lat="63.25135" lon="18.95092">
        <ele>74.844248</ele>
        <time>2020-10-02T13:21:06.795Z</time>
      </trkpt>
      <trkpt lat="63.25141" lon="18.95072">
        <ele>74.556314</ele>
        <time>2020-10-02T13:21:11.815Z</time>
      </trkpt>
      <trkpt lat="63.25147" lon="18.95058">
        <ele>74.310614</ele>
        <time>2020-10-02T13:21:15.793Z</time>
      </trkpt>
      <trkpt lat="63.25155" lon="18.9504">
        <ele>74.013618</ele>
        <time>2020-10-02T13:21:20.798Z</time>
      </trkpt>
      <trkpt lat="63.25163" lon="18.95022">
        <ele>73.722173</ele>
        <time>2020-10-02T13:21:25.814Z</time>
      </trkpt>
      <trkpt lat="63.2517" lon="18.95004">
        <ele>73.431595</ele>
        <time>2020-10-02T13:21:30.800Z</time>
      </trkpt>
      <trkpt lat="63.25177" lon="18.94987">
        <ele>73.150404</ele>
        <time>2020-10-02T13:21:35.799Z</time>
      </trkpt>
      <trkpt lat="63.25186" lon="18.94973">
        <ele>72.874257</ele>
        <time>2020-10-02T13:21:40.817Z</time>
      </trkpt>
      <trkpt lat="63.25194" lon="18.94959">
        <ele>72.591063</ele>
        <time>2020-10-02T13:21:45.796Z</time>
      </trkpt>
      <trkpt lat="63.25202" lon="18.94944">
        <ele>72.319389</ele>
        <time>2020-10-02T13:21:50.804Z</time>
      </trkpt>
      <trkpt lat="63.2521" lon="18.94928">
        <ele>72.040175</ele>
        <time>2020-10-02T13:21:55.813Z</time>
      </trkpt>
      <trkpt lat="63.25217" lon="18.94913">
        <ele>71.768171</ele>
        <time>2020-10-02T13:22:00.792Z</time>
      </trkpt>
      <trkpt lat="63.25225" lon="18.94898">
        <ele>71.503315</ele>
        <time>2020-10-02T13:22:05.796Z</time>
      </trkpt>
      <trkpt lat="63.25233" lon="18.94886">
        <ele>71.244312</ele>
        <time>2020-10-02T13:22:10.804Z</time>
      </trkpt>
      <trkpt lat="63.25239" lon="18.9487">
        <ele>70.987488</ele>
        <time>2020-10-02T13:22:15.811Z</time>
      </trkpt>
      <trkpt lat="63.25246" lon="18.94855">
        <ele>70.723939</ele>
        <time>2020-10-02T13:22:20.816Z</time>
      </trkpt>
      <trkpt lat="63.25255" lon="18.9484">
        <ele>70.426563</ele>
        <time>2020-10-02T13:22:25.813Z</time>
      </trkpt>
      <trkpt lat="63.25262" lon="18.94826">
        <ele>70.194446</ele>
        <time>2020-10-02T13:22:29.791Z</time>
      </trkpt>
      <trkpt lat="63.2527" lon="18.94809">
        <ele>69.922439</ele>
        <time>2020-10-02T13:22:33.791Z</time>
      </trkpt>
      <trkpt lat="63.25279" lon="18.94791">
        <ele>69.630154</ele>
        <time>2020-10-02T13:22:37.789Z</time>
      </trkpt>
      <trkpt lat="63.25286" lon="18.94777">
        <ele>69.385023</ele>
        <time>2020-10-02T13:22:40.796Z</time>
      </trkpt>
      <trkpt lat="63.25293" lon="18.94762">
        <ele>69.149247</ele>
        <time>2020-10-02T13:22:43.805Z</time>
      </trkpt>
      <trkpt lat="63.25301" lon="18.94745">
        <ele>68.882357</ele>
        <time>2020-10-02T13:22:46.820Z</time>
      </trkpt>
      <trkpt lat="63.2531" lon="18.94727">
        <ele>68.581262</ele>
        <time>2020-10-02T13:22:49.793Z</time>
      </trkpt>
      <trkpt lat="63.25317" lon="18.94713">
        <ele>68.342823</ele>
        <time>2020-10-02T13:22:51.837Z</time>
      </trkpt>
      <trkpt lat="63.25324" lon="18.94698">
        <ele>68.109054</ele>
        <time>2020-10-02T13:22:53.820Z</time>
      </trkpt>
      <trkpt lat="63.25332" lon="18.94682">
        <ele>67.84467</ele>
        <time>2020-10-02T13:22:55.851Z</time>
      </trkpt>
      <trkpt lat="63.25341" lon="18.94665">
        <ele>67.540942</ele>
        <time>2020-10-02T13:22:57.828Z</time>
      </trkpt>
      <trkpt lat="63.25352" lon="18.94647">
        <ele>67.194058</ele>
        <time>2020-10-02T13:22:59.814Z</time>
      </trkpt>
      <trkpt lat="63.25365" lon="18.94628">
        <ele>66.821085</ele>
        <time>2020-10-02T13:23:01.803Z</time>
      </trkpt>
      <trkpt lat="63.25377" lon="18.94609">
        <ele>66.441952</ele>
        <time>2020-10-02T13:23:03.788Z</time>
      </trkpt>
      <trkpt lat="63.2539" lon="18.9459">
        <ele>66.057833</ele>
        <time>2020-10-02T13:23:05.804Z</time>
      </trkpt>
      <trkpt lat="63.25404" lon="18.94572">
        <ele>65.381918</ele>
        <time>2020-10-02T13:23:07.800Z</time>
      </trkpt>
      <trkpt lat="63.25417" lon="18.94554">
        <ele>64.629116</ele>
        <time>2020-10-02T13:23:09.811Z</time>
      </trkpt>
      <trkpt lat="63.25431" lon="18.94535">
        <ele>63.857924</ele>
        <time>2020-10-02T13:23:11.798Z</time>
      </trkpt>
      <trkpt lat="63.25445" lon="18.94517">
        <ele>63.097294</ele>
        <time>2020-10-02T13:23:13.853Z</time>
      </trkpt>
      <trkpt lat="63.25459" lon="18.945">
        <ele>62.351055</ele>
        <time>2020-10-02T13:23:15.808Z</time>
      </trkpt>
      <trkpt lat="63.25473" lon="18.94482">
        <ele>61.582321</ele>
        <time>2020-10-02T13:23:17.797Z</time>
      </trkpt>
      <trkpt lat="63.25488" lon="18.94464">
        <ele>60.793954</ele>
        <time>2020-10-02T13:23:19.796Z</time>
      </trkpt>
      <trkpt lat="63.25502" lon="18.94446">
        <ele>60.030095</ele>
        <time>2020-10-02T13:23:21.812Z</time>
      </trkpt>
      <trkpt lat="63.25515" lon="18.94429">
        <ele>59.285125</ele>
        <time>2020-10-02T13:23:23.807Z</time>
      </trkpt>
      <trkpt lat="63.2553" lon="18.94413">
        <ele>58.519713</ele>
        <time>2020-10-02T13:23:25.813Z</time>
      </trkpt>
      <trkpt lat="63.25543" lon="18.94396">
        <ele>57.7943</ele>
        <time>2020-10-02T13:23:27.798Z</time>
      </trkpt>
      <trkpt lat="63.25555" lon="18.94379">
        <ele>57.33339</ele>
        <time>2020-10-02T13:23:29.815Z</time>
      </trkpt>
      <trkpt lat="63.25567" lon="18.94361">
        <ele>57.050309</ele>
        <time>2020-10-02T13:23:31.810Z</time>
      </trkpt>
      <trkpt lat="63.25579" lon="18.94344">
        <ele>56.760555</ele>
        <time>2020-10-02T13:23:33.803Z</time>
      </trkpt>
      <trkpt lat="63.25591" lon="18.94327">
        <ele>56.477752</ele>
        <time>2020-10-02T13:23:35.801Z</time>
      </trkpt>
      <trkpt lat="63.25603" lon="18.9431">
        <ele>56.193473</ele>
        <time>2020-10-02T13:23:37.809Z</time>
      </trkpt>
      <trkpt lat="63.25615" lon="18.94293">
        <ele>55.910189</ele>
        <time>2020-10-02T13:23:39.824Z</time>
      </trkpt>
      <trkpt lat="63.25627" lon="18.94277">
        <ele>55.641286</ele>
        <time>2020-10-02T13:23:41.823Z</time>
      </trkpt>
      <trkpt lat="63.25638" lon="18.94261">
        <ele>55.37621</ele>
        <time>2020-10-02T13:23:43.793Z</time>
      </trkpt>
      <trkpt lat="63.2565" lon="18.94245">
        <ele>55.10244</ele>
        <time>2020-10-02T13:23:45.815Z</time>
      </trkpt>
      <trkpt lat="63.25661" lon="18.94229">
        <ele>54.847639</ele>
        <time>2020-10-02T13:23:47.799Z</time>
      </trkpt>
      <trkpt lat="63.25672" lon="18.94215">
        <ele>54.593481</ele>
        <time>2020-10-02T13:23:49.846Z</time>
      </trkpt>
      <trkpt lat="63.25682" lon="18.942">
        <ele>54.341116</ele>
        <time>2020-10-02T13:23:51.813Z</time>
      </trkpt>
      <trkpt lat="63.25692" lon="18.94185">
        <ele>54.10186</ele>
        <time>2020-10-02T13:23:53.791Z</time>
      </trkpt>
      <trkpt lat="63.25702" lon="18.94171">
        <ele>53.906413</ele>
        <time>2020-10-02T13:23:55.801Z</time>
      </trkpt>
      <trkpt lat="63.25711" lon="18.94157">
        <ele>53.896144</ele>
        <time>2020-10-02T13:23:57.823Z</time>
      </trkpt>
      <trkpt lat="63.25721" lon="18.94143">
        <ele>53.885786</ele>
        <time>2020-10-02T13:23:59.813Z</time>
      </trkpt>
      <trkpt lat="63.25731" lon="18.94129">
        <ele>53.875696</ele>
        <time>2020-10-02T13:24:01.814Z</time>
      </trkpt>
      <trkpt lat="63.2574" lon="18.94115">
        <ele>53.865398</ele>
        <time>2020-10-02T13:24:03.796Z</time>
      </trkpt>
      <trkpt lat="63.25749" lon="18.94101">
        <ele>53.855464</ele>
        <time>2020-10-02T13:24:05.795Z</time>
      </trkpt>
      <trkpt lat="63.25758" lon="18.94087">
        <ele>53.846036</ele>
        <time>2020-10-02T13:24:07.807Z</time>
      </trkpt>
      <trkpt lat="63.25767" lon="18.94074">
        <ele>53.836687</ele>
        <time>2020-10-02T13:24:09.785Z</time>
      </trkpt>
      <trkpt lat="63.25776" lon="18.94061">
        <ele>53.827109</ele>
        <time>2020-10-02T13:24:11.836Z</time>
      </trkpt>
      <trkpt lat="63.25784" lon="18.94048">
        <ele>53.817717</ele>
        <time>2020-10-02T13:24:13.787Z</time>
      </trkpt>
      <trkpt lat="63.25793" lon="18.94035">
        <ele>53.808834</ele>
        <time>2020-10-02T13:24:15.823Z</time>
      </trkpt>
      <trkpt lat="63.25801" lon="18.94023">
        <ele>53.799929</ele>
        <time>2020-10-02T13:24:17.820Z</time>
      </trkpt>
      <trkpt lat="63.25809" lon="18.9401">
        <ele>53.791362</ele>
        <time>2020-10-02T13:24:19.797Z</time>
      </trkpt>
      <trkpt lat="63.25816" lon="18.93997">
        <ele>53.783126</ele>
        <time>2020-10-02T13:24:21.837Z</time>
      </trkpt>
      <trkpt lat="63.25823" lon="18.93985">
        <ele>53.775084</ele>
        <time>2020-10-02T13:24:23.836Z</time>
      </trkpt>
      <trkpt lat="63.2583" lon="18.93972">
        <ele>53.766742</ele>
        <time>2020-10-02T13:24:25.816Z</time>
      </trkpt>
      <trkpt lat="63.25837" lon="18.93959">
        <ele>53.758734</ele>
        <time>2020-10-02T13:24:27.786Z</time>
      </trkpt>
      <trkpt lat="63.25844" lon="18.93945">
        <ele>53.75062</ele>
        <time>2020-10-02T13:24:29.834Z</time>
      </trkpt>
      <trkpt lat="63.25849" lon="18.93929">
        <ele>53.761543</ele>
        <time>2020-10-02T13:24:31.853Z</time>
      </trkpt>
      <trkpt lat="63.25854" lon="18.93911">
        <ele>53.784594</ele>
        <time>2020-10-02T13:24:33.805Z</time>
      </trkpt>
      <trkpt lat="63.25859" lon="18.93893">
        <ele>53.808348</ele>
        <time>2020-10-02T13:24:35.796Z</time>
      </trkpt>
      <trkpt lat="63.25863" lon="18.93874">
        <ele>53.831772</ele>
        <time>2020-10-02T13:24:37.793Z</time>
      </trkpt>
      <trkpt lat="63.25868" lon="18.93854">
        <ele>53.856197</ele>
        <time>2020-10-02T13:24:39.802Z</time>
      </trkpt>
      <trkpt lat="63.25872" lon="18.93835">
        <ele>53.879788</ele>
        <time>2020-10-02T13:24:41.844Z</time>
      </trkpt>
      <trkpt lat="63.25875" lon="18.93816">
        <ele>53.902468</ele>
        <time>2020-10-02T13:24:43.802Z</time>
      </trkpt>
      <trkpt lat="63.25879" lon="18.93797">
        <ele>53.925649</ele>
        <time>2020-10-02T13:24:45.816Z</time>
      </trkpt>
      <trkpt lat="63.25883" lon="18.93778">
        <ele>53.948936</ele>
        <time>2020-10-02T13:24:47.818Z</time>
      </trkpt>
      <trkpt lat="63.25887" lon="18.93758">
        <ele>53.972653</ele>
        <time>2020-10-02T13:24:49.818Z</time>
      </trkpt>
      <trkpt lat="63.25891" lon="18.93738">
        <ele>53.99715</ele>
        <time>2020-10-02T13:24:51.820Z</time>
      </trkpt>
      <trkpt lat="63.25895" lon="18.93718">
        <ele>54.021476</ele>
        <time>2020-10-02T13:24:53.795Z</time>
      </trkpt>
      <trkpt lat="63.25899" lon="18.937">
        <ele>54.04405</ele>
        <time>2020-10-02T13:24:55.801Z</time>
      </trkpt>
      <trkpt lat="63.25904" lon="18.93673">
        <ele>54.076543</ele>
        <time>2020-10-02T13:24:58.814Z</time>
      </trkpt>
      <trkpt lat="63.25909" lon="18.93649">
        <ele>54.106406</ele>
        <time>2020-10-02T13:25:01.797Z</time>
      </trkpt>
      <trkpt lat="63.25914" lon="18.93625">
        <ele>54.136074</ele>
        <time>2020-10-02T13:25:04.833Z</time>
      </trkpt>
      <trkpt lat="63.25919" lon="18.93599">
        <ele>54.16675</ele>
        <time>2020-10-02T13:25:07.819Z</time>
      </trkpt>
      <trkpt lat="63.25924" lon="18.93572">
        <ele>54.150956</ele>
        <time>2020-10-02T13:25:10.787Z</time>
      </trkpt>
      <trkpt lat="63.25927" lon="18.93553">
        <ele>54.029432</ele>
        <time>2020-10-02T13:25:12.797Z</time>
      </trkpt>
      <trkpt lat="63.25932" lon="18.93532">
        <ele>53.893257</ele>
        <time>2020-10-02T13:25:14.805Z</time>
      </trkpt>
      <trkpt lat="63.25937" lon="18.93511">
        <ele>53.752883</ele>
        <time>2020-10-02T13:25:16.822Z</time>
      </trkpt>
      <trkpt lat="63.25941" lon="18.9349">
        <ele>53.621228</ele>
        <time>2020-10-02T13:25:18.806Z</time>
      </trkpt>
      <trkpt lat="63.25945" lon="18.93469">
        <ele>53.480976</ele>
        <time>2020-10-02T13:25:20.804Z</time>
      </trkpt>
      <trkpt lat="63.2595" lon="18.93446">
        <ele>53.334741</ele>
        <time>2020-10-02T13:25:22.800Z</time>
      </trkpt>
      <trkpt lat="63.25954" lon="18.93424">
        <ele>53.191637</ele>
        <time>2020-10-02T13:25:24.806Z</time>
      </trkpt>
      <trkpt lat="63.25958" lon="18.934">
        <ele>53.044137</ele>
        <time>2020-10-02T13:25:26.814Z</time>
      </trkpt>
      <trkpt lat="63.25963" lon="18.93376">
        <ele>52.885597</ele>
        <time>2020-10-02T13:25:28.800Z</time>
      </trkpt>
      <trkpt lat="63.25968" lon="18.93351">
        <ele>52.720511</ele>
        <time>2020-10-02T13:25:30.808Z</time>
      </trkpt>
      <trkpt lat="63.25974" lon="18.93325">
        <ele>52.557149</ele>
        <time>2020-10-02T13:25:32.842Z</time>
      </trkpt>
      <trkpt lat="63.25978" lon="18.93299">
        <ele>52.3906</ele>
        <time>2020-10-02T13:25:34.828Z</time>
      </trkpt>
      <trkpt lat="63.25983" lon="18.93272">
        <ele>52.22063</ele>
        <time>2020-10-02T13:25:36.821Z</time>
      </trkpt>
      <trkpt lat="63.25989" lon="18.93247">
        <ele>52.052632</ele>
        <time>2020-10-02T13:25:38.817Z</time>
      </trkpt>
      <trkpt lat="63.25995" lon="18.93221">
        <ele>51.877067</ele>
        <time>2020-10-02T13:25:40.820Z</time>
      </trkpt>
      <trkpt lat="63.26001" lon="18.93194">
        <ele>51.569816</ele>
        <time>2020-10-02T13:25:42.804Z</time>
      </trkpt>
      <trkpt lat="63.26007" lon="18.93165">
        <ele>51.191539</ele>
        <time>2020-10-02T13:25:44.798Z</time>
      </trkpt>
      <trkpt lat="63.26014" lon="18.93137">
        <ele>50.801752</ele>
        <time>2020-10-02T13:25:46.801Z</time>
      </trkpt>
      <trkpt lat="63.26023" lon="18.93109">
        <ele>50.405073</ele>
        <time>2020-10-02T13:25:48.819Z</time>
      </trkpt>
      <trkpt lat="63.26031" lon="18.93081">
        <ele>50.009855</ele>
        <time>2020-10-02T13:25:50.813Z</time>
      </trkpt>
      <trkpt lat="63.2604" lon="18.93056">
        <ele>49.623595</ele>
        <time>2020-10-02T13:25:52.801Z</time>
      </trkpt>
      <trkpt lat="63.2605" lon="18.93034">
        <ele>49.256176</ele>
        <time>2020-10-02T13:25:54.806Z</time>
      </trkpt>
      <trkpt lat="63.2606" lon="18.93014">
        <ele>48.909874</ele>
        <time>2020-10-02T13:25:56.809Z</time>
      </trkpt>
      <trkpt lat="63.2607" lon="18.92997">
        <ele>48.584034</ele>
        <time>2020-10-02T13:25:58.796Z</time>
      </trkpt>
      <trkpt lat="63.26079" lon="18.92981">
        <ele>48.274404</ele>
        <time>2020-10-02T13:26:00.789Z</time>
      </trkpt>
      <trkpt lat="63.26088" lon="18.92966">
        <ele>47.989394</ele>
        <time>2020-10-02T13:26:02.797Z</time>
      </trkpt>
      <trkpt lat="63.26096" lon="18.92952">
        <ele>47.707919</ele>
        <time>2020-10-02T13:26:04.788Z</time>
      </trkpt>
      <trkpt lat="63.26105" lon="18.92938">
        <ele>47.428659</ele>
        <time>2020-10-02T13:26:06.796Z</time>
      </trkpt>
      <trkpt lat="63.26113" lon="18.92924">
        <ele>47.153652</ele>
        <time>2020-10-02T13:26:08.792Z</time>
      </trkpt>
      <trkpt lat="63.26121" lon="18.92911">
        <ele>47.037698</ele>
        <time>2020-10-02T13:26:10.787Z</time>
      </trkpt>
      <trkpt lat="63.26129" lon="18.92897">
        <ele>46.961307</ele>
        <time>2020-10-02T13:26:12.812Z</time>
      </trkpt>
      <trkpt lat="63.26136" lon="18.92885">
        <ele>46.888756</ele>
        <time>2020-10-02T13:26:14.793Z</time>
      </trkpt>
      <trkpt lat="63.26144" lon="18.92873">
        <ele>46.818903</ele>
        <time>2020-10-02T13:26:16.825Z</time>
      </trkpt>
      <trkpt lat="63.26151" lon="18.92861">
        <ele>46.745728</ele>
        <time>2020-10-02T13:26:18.813Z</time>
      </trkpt>
      <trkpt lat="63.26159" lon="18.92849">
        <ele>46.674425</ele>
        <time>2020-10-02T13:26:20.820Z</time>
      </trkpt>
      <trkpt lat="63.26167" lon="18.92837">
        <ele>46.600013</ele>
        <time>2020-10-02T13:26:22.820Z</time>
      </trkpt>
      <trkpt lat="63.26175" lon="18.92828">
        <ele>46.525531</ele>
        <time>2020-10-02T13:26:24.814Z</time>
      </trkpt>
      <trkpt lat="63.26184" lon="18.9282">
        <ele>46.454601</ele>
        <time>2020-10-02T13:26:26.809Z</time>
      </trkpt>
      <trkpt lat="63.26193" lon="18.92814">
        <ele>46.382426</ele>
        <time>2020-10-02T13:26:28.793Z</time>
      </trkpt>
      <trkpt lat="63.26203" lon="18.92812">
        <ele>46.304397</ele>
        <time>2020-10-02T13:26:30.809Z</time>
      </trkpt>
      <trkpt lat="63.26214" lon="18.92811">
        <ele>46.219724</ele>
        <time>2020-10-02T13:26:32.804Z</time>
      </trkpt>
      <trkpt lat="63.26226" lon="18.92812">
        <ele>46.12184</ele>
        <time>2020-10-02T13:26:34.818Z</time>
      </trkpt>
      <trkpt lat="63.26239" lon="18.92814">
        <ele>46.023886</ele>
        <time>2020-10-02T13:26:36.801Z</time>
      </trkpt>
      <trkpt lat="63.26252" lon="18.92815">
        <ele>45.921374</ele>
        <time>2020-10-02T13:26:38.826Z</time>
      </trkpt>
      <trkpt lat="63.26265" lon="18.92816">
        <ele>45.818109</ele>
        <time>2020-10-02T13:26:40.798Z</time>
      </trkpt>
      <trkpt lat="63.26279" lon="18.92814">
        <ele>45.71163</ele>
        <time>2020-10-02T13:26:42.814Z</time>
      </trkpt>
      <trkpt lat="63.26293" lon="18.92809">
        <ele>45.679192</ele>
        <time>2020-10-02T13:26:44.816Z</time>
      </trkpt>
      <trkpt lat="63.26305" lon="18.92804">
        <ele>45.65355</ele>
        <time>2020-10-02T13:26:46.795Z</time>
      </trkpt>
      <trkpt lat="63.26317" lon="18.92797">
        <ele>45.629331</ele>
        <time>2020-10-02T13:26:48.811Z</time>
      </trkpt>
      <trkpt lat="63.26329" lon="18.92791">
        <ele>45.606236</ele>
        <time>2020-10-02T13:26:50.801Z</time>
      </trkpt>
      <trkpt lat="63.2634" lon="18.92784">
        <ele>45.583975</ele>
        <time>2020-10-02T13:26:52.802Z</time>
      </trkpt>
      <trkpt lat="63.2635" lon="18.92778">
        <ele>45.56268</ele>
        <time>2020-10-02T13:26:54.797Z</time>
      </trkpt>
      <trkpt lat="63.2636" lon="18.92771">
        <ele>45.541789</ele>
        <time>2020-10-02T13:26:56.814Z</time>
      </trkpt>
      <trkpt lat="63.2637" lon="18.92765">
        <ele>45.521349</ele>
        <time>2020-10-02T13:26:58.818Z</time>
      </trkpt>
      <trkpt lat="63.2638" lon="18.92759">
        <ele>45.501026</ele>
        <time>2020-10-02T13:27:00.806Z</time>
      </trkpt>
      <trkpt lat="63.26391" lon="18.92753">
        <ele>45.478502</ele>
        <time>2020-10-02T13:27:02.817Z</time>
      </trkpt>
      <trkpt lat="63.26402" lon="18.92746">
        <ele>45.457306</ele>
        <time>2020-10-02T13:27:04.802Z</time>
      </trkpt>
      <trkpt lat="63.26411" lon="18.9274">
        <ele>45.43762</ele>
        <time>2020-10-02T13:27:06.840Z</time>
      </trkpt>
      <trkpt lat="63.26422" lon="18.92734">
        <ele>45.416895</ele>
        <time>2020-10-02T13:27:08.820Z</time>
      </trkpt>
      <trkpt lat="63.26432" lon="18.92727">
        <ele>45.395012</ele>
        <time>2020-10-02T13:27:10.840Z</time>
      </trkpt>
      <trkpt lat="63.26443" lon="18.9272">
        <ele>45.372324</ele>
        <time>2020-10-02T13:27:12.801Z</time>
      </trkpt>
      <trkpt lat="63.26455" lon="18.92713">
        <ele>45.360982</ele>
        <time>2020-10-02T13:27:14.827Z</time>
      </trkpt>
      <trkpt lat="63.26466" lon="18.92704">
        <ele>45.51234</ele>
        <time>2020-10-02T13:27:16.798Z</time>
      </trkpt>
      <trkpt lat="63.26478" lon="18.92696">
        <ele>45.670286</ele>
        <time>2020-10-02T13:27:18.806Z</time>
      </trkpt>
      <trkpt lat="63.26489" lon="18.92688">
        <ele>45.826179</ele>
        <time>2020-10-02T13:27:20.795Z</time>
      </trkpt>
      <trkpt lat="63.26501" lon="18.92681">
        <ele>45.988219</ele>
        <time>2020-10-02T13:27:22.803Z</time>
      </trkpt>
      <trkpt lat="63.26514" lon="18.92674">
        <ele>46.158183</ele>
        <time>2020-10-02T13:27:24.800Z</time>
      </trkpt>
      <trkpt lat="63.26527" lon="18.92668">
        <ele>46.324234</ele>
        <time>2020-10-02T13:27:26.794Z</time>
      </trkpt>
      <trkpt lat="63.2654" lon="18.92662">
        <ele>46.494424</ele>
        <time>2020-10-02T13:27:28.837Z</time>
      </trkpt>
      <trkpt lat="63.26553" lon="18.92657">
        <ele>46.660943</ele>
        <time>2020-10-02T13:27:30.819Z</time>
      </trkpt>
      <trkpt lat="63.26565" lon="18.92652">
        <ele>46.82107</ele>
        <time>2020-10-02T13:27:32.803Z</time>
      </trkpt>
      <trkpt lat="63.26576" lon="18.92646">
        <ele>46.965267</ele>
        <time>2020-10-02T13:27:34.803Z</time>
      </trkpt>
      <trkpt lat="63.26587" lon="18.92642">
        <ele>47.111255</ele>
        <time>2020-10-02T13:27:36.815Z</time>
      </trkpt>
      <trkpt lat="63.26601" lon="18.92637">
        <ele>47.287459</ele>
        <time>2020-10-02T13:27:38.828Z</time>
      </trkpt>
      <trkpt lat="63.26616" lon="18.92631">
        <ele>47.487317</ele>
        <time>2020-10-02T13:27:40.806Z</time>
      </trkpt>
      <trkpt lat="63.2663" lon="18.92623">
        <ele>47.691208</ele>
        <time>2020-10-02T13:27:42.804Z</time>
      </trkpt>
      <trkpt lat="63.26642" lon="18.92615">
        <ele>48.148555</ele>
        <time>2020-10-02T13:27:44.796Z</time>
      </trkpt>
      <trkpt lat="63.26652" lon="18.92609">
        <ele>48.540197</ele>
        <time>2020-10-02T13:27:46.824Z</time>
      </trkpt>
      <trkpt lat="63.26661" lon="18.92601">
        <ele>48.910275</ele>
        <time>2020-10-02T13:27:48.790Z</time>
      </trkpt>
      <trkpt lat="63.26673" lon="18.92592">
        <ele>49.359236</ele>
        <time>2020-10-02T13:27:51.794Z</time>
      </trkpt>
      <trkpt lat="63.26681" lon="18.92584">
        <ele>49.699039</ele>
        <time>2020-10-02T13:27:54.785Z</time>
      </trkpt>
      <trkpt lat="63.26691" lon="18.92573">
        <ele>50.101649</ele>
        <time>2020-10-02T13:27:58.788Z</time>
      </trkpt>
      <trkpt lat="63.26699" lon="18.92564">
        <ele>50.455842</ele>
        <time>2020-10-02T13:28:01.832Z</time>
      </trkpt>
      <trkpt lat="63.26708" lon="18.92556">
        <ele>50.81874</ele>
        <time>2020-10-02T13:28:04.811Z</time>
      </trkpt>
      <trkpt lat="63.26718" lon="18.92545">
        <ele>51.229171</ele>
        <time>2020-10-02T13:28:07.844Z</time>
      </trkpt>
      <trkpt lat="63.2673" lon="18.92535">
        <ele>51.691187</ele>
        <time>2020-10-02T13:28:10.790Z</time>
      </trkpt>
      <trkpt lat="63.26741" lon="18.92523">
        <ele>52.146954</ele>
        <time>2020-10-02T13:28:13.806Z</time>
      </trkpt>
      <trkpt lat="63.26753" lon="18.92512">
        <ele>52.640236</ele>
        <time>2020-10-02T13:28:16.794Z</time>
      </trkpt>
      <trkpt lat="63.26765" lon="18.92502">
        <ele>53.089413</ele>
        <time>2020-10-02T13:28:19.798Z</time>
      </trkpt>
      <trkpt lat="63.26774" lon="18.92493">
        <ele>53.475319</ele>
        <time>2020-10-02T13:28:22.815Z</time>
      </trkpt>
      <trkpt lat="63.26783" lon="18.92484">
        <ele>53.839723</ele>
        <time>2020-10-02T13:28:25.859Z</time>
      </trkpt>
      <trkpt lat="63.26796" lon="18.92477">
        <ele>54.324237</ele>
        <time>2020-10-02T13:28:28.785Z</time>
      </trkpt>
      <trkpt lat="63.26807" lon="18.9247">
        <ele>54.09374</ele>
        <time>2020-10-02T13:28:30.820Z</time>
      </trkpt>
      <trkpt lat="63.26816" lon="18.92462">
        <ele>53.901751</ele>
        <time>2020-10-02T13:28:32.794Z</time>
      </trkpt>
      <trkpt lat="63.26826" lon="18.92455">
        <ele>53.678826</ele>
        <time>2020-10-02T13:28:34.796Z</time>
      </trkpt>
      <trkpt lat="63.26836" lon="18.92448">
        <ele>53.477611</ele>
        <time>2020-10-02T13:28:36.819Z</time>
      </trkpt>
      <trkpt lat="63.26848" lon="18.92437">
        <ele>53.202746</ele>
        <time>2020-10-02T13:28:39.813Z</time>
      </trkpt>
      <trkpt lat="63.26857" lon="18.92431">
        <ele>53.015549</ele>
        <time>2020-10-02T13:28:41.821Z</time>
      </trkpt>
      <trkpt lat="63.26866" lon="18.92427">
        <ele>52.824298</ele>
        <time>2020-10-02T13:28:43.799Z</time>
      </trkpt>
      <trkpt lat="63.26876" lon="18.92422">
        <ele>52.625924</ele>
        <time>2020-10-02T13:28:45.796Z</time>
      </trkpt>
      <trkpt lat="63.26889" lon="18.92417">
        <ele>52.354774</ele>
        <time>2020-10-02T13:28:48.804Z</time>
      </trkpt>
      <trkpt lat="63.26898" lon="18.92413">
        <ele>52.167712</ele>
        <time>2020-10-02T13:28:50.796Z</time>
      </trkpt>
      <trkpt lat="63.26911" lon="18.92409">
        <ele>51.905987</ele>
        <time>2020-10-02T13:28:53.806Z</time>
      </trkpt>
      <trkpt lat="63.2692" lon="18.92405">
        <ele>51.715909</ele>
        <time>2020-10-02T13:28:55.804Z</time>
      </trkpt>
      <trkpt lat="63.2693" lon="18.92401">
        <ele>51.510742</ele>
        <time>2020-10-02T13:28:57.797Z</time>
      </trkpt>
      <trkpt lat="63.26941" lon="18.92399">
        <ele>51.291079</ele>
        <time>2020-10-02T13:28:59.786Z</time>
      </trkpt>
      <trkpt lat="63.2695" lon="18.92397">
        <ele>51.104245</ele>
        <time>2020-10-02T13:29:01.805Z</time>
      </trkpt>
      <trkpt lat="63.26961" lon="18.92395">
        <ele>50.884755</ele>
        <time>2020-10-02T13:29:03.839Z</time>
      </trkpt>
      <trkpt lat="63.26973" lon="18.92396">
        <ele>50.595466</ele>
        <time>2020-10-02T13:29:05.804Z</time>
      </trkpt>
      <trkpt lat="63.26983" lon="18.92398">
        <ele>50.110888</ele>
        <time>2020-10-02T13:29:07.786Z</time>
      </trkpt>
      <trkpt lat="63.26993" lon="18.924">
        <ele>49.644752</ele>
        <time>2020-10-02T13:29:09.801Z</time>
      </trkpt>
      <trkpt lat="63.27005" lon="18.92404">
        <ele>49.058599</ele>
        <time>2020-10-02T13:29:11.805Z</time>
      </trkpt>
      <trkpt lat="63.27016" lon="18.92409">
        <ele>48.489015</ele>
        <time>2020-10-02T13:29:13.824Z</time>
      </trkpt>
      <trkpt lat="63.27027" lon="18.92416">
        <ele>47.956396</ele>
        <time>2020-10-02T13:29:15.800Z</time>
      </trkpt>
      <trkpt lat="63.27037" lon="18.92422">
        <ele>47.459778</ele>
        <time>2020-10-02T13:29:17.808Z</time>
      </trkpt>
      <trkpt lat="63.27048" lon="18.92427">
        <ele>46.942541</ele>
        <time>2020-10-02T13:29:19.835Z</time>
      </trkpt>
      <trkpt lat="63.27058" lon="18.92434">
        <ele>46.434677</ele>
        <time>2020-10-02T13:29:21.787Z</time>
      </trkpt>
      <trkpt lat="63.27069" lon="18.92439">
        <ele>45.911963</ele>
        <time>2020-10-02T13:29:23.796Z</time>
      </trkpt>
      <trkpt lat="63.27079" lon="18.92444">
        <ele>45.408849</ele>
        <time>2020-10-02T13:29:25.820Z</time>
      </trkpt>
      <trkpt lat="63.27089" lon="18.92449">
        <ele>44.933772</ele>
        <time>2020-10-02T13:29:27.782Z</time>
      </trkpt>
      <trkpt lat="63.27098" lon="18.92456">
        <ele>44.481728</ele>
        <time>2020-10-02T13:29:29.795Z</time>
      </trkpt>
      <trkpt lat="63.27109" lon="18.92463">
        <ele>43.904789</ele>
        <time>2020-10-02T13:29:32.804Z</time>
      </trkpt>
      <trkpt lat="63.27118" lon="18.92469">
        <ele>43.441239</ele>
        <time>2020-10-02T13:29:35.791Z</time>
      </trkpt>
      <trkpt lat="63.27128" lon="18.92475">
        <ele>42.977688</ele>
        <time>2020-10-02T13:29:38.818Z</time>
      </trkpt>
      <trkpt lat="63.27136" lon="18.92482">
        <ele>42.537523</ele>
        <time>2020-10-02T13:29:41.806Z</time>
      </trkpt>
      <trkpt lat="63.27145" lon="18.92489">
        <ele>42.101872</ele>
        <time>2020-10-02T13:29:44.793Z</time>
      </trkpt>
      <trkpt lat="63.27156" lon="18.92497">
        <ele>41.899117</ele>
        <time>2020-10-02T13:29:48.797Z</time>
      </trkpt>
      <trkpt lat="63.27166" lon="18.92507">
        <ele>41.736725</ele>
        <time>2020-10-02T13:29:52.809Z</time>
      </trkpt>
      <trkpt lat="63.27178" lon="18.92517">
        <ele>41.528748</ele>
        <time>2020-10-02T13:29:56.828Z</time>
      </trkpt>
      <trkpt lat="63.2719" lon="18.92524">
        <ele>41.323892</ele>
        <time>2020-10-02T13:29:59.839Z</time>
      </trkpt>
      <trkpt lat="63.27203" lon="18.92531">
        <ele>41.114729</ele>
        <time>2020-10-02T13:30:02.820Z</time>
      </trkpt>
      <trkpt lat="63.27216" lon="18.92539">
        <ele>40.898056</ele>
        <time>2020-10-02T13:30:05.841Z</time>
      </trkpt>
      <trkpt lat="63.27225" lon="18.92544">
        <ele>40.741447</ele>
        <time>2020-10-02T13:30:07.813Z</time>
      </trkpt>
      <trkpt lat="63.27234" lon="18.9255">
        <ele>40.589315</ele>
        <time>2020-10-02T13:30:09.783Z</time>
      </trkpt>
      <trkpt lat="63.27243" lon="18.92556">
        <ele>40.43483</ele>
        <time>2020-10-02T13:30:11.799Z</time>
      </trkpt>
      <trkpt lat="63.27253" lon="18.92562">
        <ele>40.272219</ele>
        <time>2020-10-02T13:30:13.814Z</time>
      </trkpt>
      <trkpt lat="63.27264" lon="18.92569">
        <ele>40.093867</ele>
        <time>2020-10-02T13:30:15.786Z</time>
      </trkpt>
      <trkpt lat="63.27275" lon="18.92576">
        <ele>39.909753</ele>
        <time>2020-10-02T13:30:17.803Z</time>
      </trkpt>
      <trkpt lat="63.27286" lon="18.92584">
        <ele>39.719142</ele>
        <time>2020-10-02T13:30:19.837Z</time>
      </trkpt>
      <trkpt lat="63.27297" lon="18.92591">
        <ele>39.53267</ele>
        <time>2020-10-02T13:30:21.816Z</time>
      </trkpt>
      <trkpt lat="63.27309" lon="18.92599">
        <ele>39.338074</ele>
        <time>2020-10-02T13:30:23.809Z</time>
      </trkpt>
      <trkpt lat="63.2732" lon="18.92607">
        <ele>39.199626</ele>
        <time>2020-10-02T13:30:25.801Z</time>
      </trkpt>
      <trkpt lat="63.27331" lon="18.92615">
        <ele>39.226723</ele>
        <time>2020-10-02T13:30:27.795Z</time>
      </trkpt>
      <trkpt lat="63.27343" lon="18.92623">
        <ele>39.253824</ele>
        <time>2020-10-02T13:30:29.812Z</time>
      </trkpt>
      <trkpt lat="63.27354" lon="18.92631">
        <ele>39.280496</ele>
        <time>2020-10-02T13:30:31.800Z</time>
      </trkpt>
      <trkpt lat="63.27365" lon="18.9264">
        <ele>39.30628</ele>
        <time>2020-10-02T13:30:33.803Z</time>
      </trkpt>
      <trkpt lat="63.27375" lon="18.92649">
        <ele>39.330319</ele>
        <time>2020-10-02T13:30:35.801Z</time>
      </trkpt>
      <trkpt lat="63.27385" lon="18.92657">
        <ele>39.353479</ele>
        <time>2020-10-02T13:30:37.812Z</time>
      </trkpt>
      <trkpt lat="63.27394" lon="18.92664">
        <ele>39.375302</ele>
        <time>2020-10-02T13:30:39.807Z</time>
      </trkpt>
      <trkpt lat="63.27404" lon="18.92668">
        <ele>39.397724</ele>
        <time>2020-10-02T13:30:41.818Z</time>
      </trkpt>
      <trkpt lat="63.27413" lon="18.92668">
        <ele>39.418767</ele>
        <time>2020-10-02T13:30:43.798Z</time>
      </trkpt>
      <trkpt lat="63.27422" lon="18.92667">
        <ele>39.438935</ele>
        <time>2020-10-02T13:30:45.803Z</time>
      </trkpt>
      <trkpt lat="63.27432" lon="18.92664">
        <ele>39.460845</ele>
        <time>2020-10-02T13:30:47.802Z</time>
      </trkpt>
      <trkpt lat="63.27442" lon="18.9266">
        <ele>39.483685</ele>
        <time>2020-10-02T13:30:49.810Z</time>
      </trkpt>
      <trkpt lat="63.27451" lon="18.92655">
        <ele>39.505103</ele>
        <time>2020-10-02T13:30:51.813Z</time>
      </trkpt>
      <trkpt lat="63.27461" lon="18.92649">
        <ele>39.526996</ele>
        <time>2020-10-02T13:30:53.817Z</time>
      </trkpt>
      <trkpt lat="63.27469" lon="18.92641">
        <ele>39.547788</ele>
        <time>2020-10-02T13:30:55.819Z</time>
      </trkpt>
      <trkpt lat="63.27477" lon="18.92632">
        <ele>39.568149</ele>
        <time>2020-10-02T13:30:57.803Z</time>
      </trkpt>
      <trkpt lat="63.27486" lon="18.92623">
        <ele>39.58842</ele>
        <time>2020-10-02T13:30:59.808Z</time>
      </trkpt>
      <trkpt lat="63.27497" lon="18.92609">
        <ele>39.397271</ele>
        <time>2020-10-02T13:31:02.801Z</time>
      </trkpt>
      <trkpt lat="63.27505" lon="18.926">
        <ele>39.187001</ele>
        <time>2020-10-02T13:31:04.791Z</time>
      </trkpt>
      <trkpt lat="63.27514" lon="18.9259">
        <ele>38.975457</ele>
        <time>2020-10-02T13:31:06.805Z</time>
      </trkpt>
      <trkpt lat="63.27523" lon="18.92581">
        <ele>38.771848</ele>
        <time>2020-10-02T13:31:08.806Z</time>
      </trkpt>
      <trkpt lat="63.27534" lon="18.92567">
        <ele>38.488063</ele>
        <time>2020-10-02T13:31:11.796Z</time>
      </trkpt>
      <trkpt lat="63.27546" lon="18.92553">
        <ele>38.198621</ele>
        <time>2020-10-02T13:31:14.821Z</time>
      </trkpt>
      <trkpt lat="63.27557" lon="18.92537">
        <ele>37.922025</ele>
        <time>2020-10-02T13:31:17.817Z</time>
      </trkpt>
      <trkpt lat="63.27565" lon="18.92527">
        <ele>37.710714</ele>
        <time>2020-10-02T13:31:19.845Z</time>
      </trkpt>
      <trkpt lat="63.27574" lon="18.92516">
        <ele>37.500753</ele>
        <time>2020-10-02T13:31:21.800Z</time>
      </trkpt>
      <trkpt lat="63.27583" lon="18.92505">
        <ele>37.267258</ele>
        <time>2020-10-02T13:31:23.796Z</time>
      </trkpt>
      <trkpt lat="63.27594" lon="18.92494">
        <ele>37.015726</ele>
        <time>2020-10-02T13:31:25.816Z</time>
      </trkpt>
      <trkpt lat="63.27605" lon="18.92482">
        <ele>36.75718</ele>
        <time>2020-10-02T13:31:27.802Z</time>
      </trkpt>
      <trkpt lat="63.27615" lon="18.9247">
        <ele>36.504659</ele>
        <time>2020-10-02T13:31:29.806Z</time>
      </trkpt>
      <trkpt lat="63.27625" lon="18.92459">
        <ele>36.261576</ele>
        <time>2020-10-02T13:31:31.788Z</time>
      </trkpt>
      <trkpt lat="63.27635" lon="18.92448">
        <ele>36.02853</ele>
        <time>2020-10-02T13:31:33.802Z</time>
      </trkpt>
      <trkpt lat="63.27644" lon="18.92436">
        <ele>35.806485</ele>
        <time>2020-10-02T13:31:35.814Z</time>
      </trkpt>
      <trkpt lat="63.27652" lon="18.92424">
        <ele>35.841735</ele>
        <time>2020-10-02T13:31:37.796Z</time>
      </trkpt>
      <trkpt lat="63.2766" lon="18.92412">
        <ele>36.041564</ele>
        <time>2020-10-02T13:31:39.792Z</time>
      </trkpt>
      <trkpt lat="63.27668" lon="18.924">
        <ele>36.236666</ele>
        <time>2020-10-02T13:31:41.836Z</time>
      </trkpt>
      <trkpt lat="63.27676" lon="18.92387">
        <ele>36.439945</ele>
        <time>2020-10-02T13:31:43.797Z</time>
      </trkpt>
      <trkpt lat="63.27683" lon="18.92373">
        <ele>36.642443</ele>
        <time>2020-10-02T13:31:45.814Z</time>
      </trkpt>
      <trkpt lat="63.27691" lon="18.92359">
        <ele>36.843767</ele>
        <time>2020-10-02T13:31:47.824Z</time>
      </trkpt>
      <trkpt lat="63.27698" lon="18.92344">
        <ele>37.041379</ele>
        <time>2020-10-02T13:31:49.803Z</time>
      </trkpt>
      <trkpt lat="63.27706" lon="18.92329">
        <ele>37.250503</ele>
        <time>2020-10-02T13:31:51.817Z</time>
      </trkpt>
      <trkpt lat="63.27713" lon="18.92313">
        <ele>37.451958</ele>
        <time>2020-10-02T13:31:53.805Z</time>
      </trkpt>
      <trkpt lat="63.27719" lon="18.92297">
        <ele>37.651758</ele>
        <time>2020-10-02T13:31:55.815Z</time>
      </trkpt>
      <trkpt lat="63.27726" lon="18.92281">
        <ele>37.850899</ele>
        <time>2020-10-02T13:31:57.798Z</time>
      </trkpt>
      <trkpt lat="63.27731" lon="18.92264">
        <ele>38.042323</ele>
        <time>2020-10-02T13:31:59.811Z</time>
      </trkpt>
      <trkpt lat="63.27737" lon="18.92249">
        <ele>38.226148</ele>
        <time>2020-10-02T13:32:01.795Z</time>
      </trkpt>
      <trkpt lat="63.27744" lon="18.92227">
        <ele>38.474992</ele>
        <time>2020-10-02T13:32:04.820Z</time>
      </trkpt>
      <trkpt lat="63.27751" lon="18.92207">
        <ele>38.705453</ele>
        <time>2020-10-02T13:32:07.792Z</time>
      </trkpt>
      <trkpt lat="63.27756" lon="18.92189">
        <ele>38.899199</ele>
        <time>2020-10-02T13:32:10.804Z</time>
      </trkpt>
      <trkpt lat="63.27763" lon="18.92168">
        <ele>39.138215</ele>
        <time>2020-10-02T13:32:14.833Z</time>
      </trkpt>
      <trkpt lat="63.27769" lon="18.92152">
        <ele>39.338873</ele>
        <time>2020-10-02T13:32:18.797Z</time>
      </trkpt>
      <trkpt lat="63.27775" lon="18.92134">
        <ele>39.86143</ele>
        <time>2020-10-02T13:32:22.808Z</time>
      </trkpt>
      <trkpt lat="63.27781" lon="18.92118">
        <ele>40.493296</ele>
        <time>2020-10-02T13:32:26.816Z</time>
      </trkpt>
      <trkpt lat="63.27787" lon="18.92099">
        <ele>41.238818</ele>
        <time>2020-10-02T13:32:31.788Z</time>
      </trkpt>
      <trkpt lat="63.27794" lon="18.92081">
        <ele>41.99513</ele>
        <time>2020-10-02T13:32:36.813Z</time>
      </trkpt>
      <trkpt lat="63.278" lon="18.92064">
        <ele>42.676638</ele>
        <time>2020-10-02T13:32:41.794Z</time>
      </trkpt>
      <trkpt lat="63.27807" lon="18.92046">
        <ele>43.38079</ele>
        <time>2020-10-02T13:32:46.794Z</time>
      </trkpt>
      <trkpt lat="63.27812" lon="18.92029">
        <ele>44.03814</ele>
        <time>2020-10-02T13:32:51.805Z</time>
      </trkpt>
      <trkpt lat="63.27818" lon="18.92012">
        <ele>44.721452</ele>
        <time>2020-10-02T13:32:56.794Z</time>
      </trkpt>
      <trkpt lat="63.27823" lon="18.91992">
        <ele>45.434006</ele>
        <time>2020-10-02T13:33:01.796Z</time>
      </trkpt>
      <trkpt lat="63.27829" lon="18.91974">
        <ele>46.106375</ele>
        <time>2020-10-02T13:33:06.800Z</time>
      </trkpt>
      <trkpt lat="63.27835" lon="18.91954">
        <ele>46.848566</ele>
        <time>2020-10-02T13:33:12.792Z</time>
      </trkpt>
      <trkpt lat="63.27841" lon="18.91936">
        <ele>47.560797</ele>
        <time>2020-10-02T13:33:17.815Z</time>
      </trkpt>
      <trkpt lat="63.27848" lon="18.91919">
        <ele>48.266414</ele>
        <time>2020-10-02T13:33:22.788Z</time>
      </trkpt>
      <trkpt lat="63.27853" lon="18.91903">
        <ele>48.903799</ele>
        <time>2020-10-02T13:33:27.795Z</time>
      </trkpt>
      <trkpt lat="63.27858" lon="18.91885">
        <ele>49.529918</ele>
        <time>2020-10-02T13:33:32.798Z</time>
      </trkpt>
      <trkpt lat="63.27863" lon="18.91868">
        <ele>50.198041</ele>
        <time>2020-10-02T13:33:37.811Z</time>
      </trkpt>
      <trkpt lat="63.27869" lon="18.9185">
        <ele>50.88625</ele>
        <time>2020-10-02T13:33:42.839Z</time>
      </trkpt>
      <trkpt lat="63.27875" lon="18.9183">
        <ele>51.636199</ele>
        <time>2020-10-02T13:33:48.803Z</time>
      </trkpt>
      <trkpt lat="63.27881" lon="18.91813">
        <ele>52.194289</ele>
        <time>2020-10-02T13:33:53.814Z</time>
      </trkpt>
      <trkpt lat="63.27887" lon="18.91796">
        <ele>52.699809</ele>
        <time>2020-10-02T13:33:58.819Z</time>
      </trkpt>
      <trkpt lat="63.27893" lon="18.91778">
        <ele>53.218141</ele>
        <time>2020-10-02T13:34:03.836Z</time>
      </trkpt>
      <trkpt lat="63.27899" lon="18.91761">
        <ele>53.699115</ele>
        <time>2020-10-02T13:34:08.791Z</time>
      </trkpt>
      <trkpt lat="63.27905" lon="18.91745">
        <ele>54.168804</ele>
        <time>2020-10-02T13:34:13.794Z</time>
      </trkpt>
      <trkpt lat="63.27911" lon="18.91727">
        <ele>54.71761</ele>
        <time>2020-10-02T13:34:19.819Z</time>
      </trkpt>
      <trkpt lat="63.27918" lon="18.9171">
        <ele>55.219873</ele>
        <time>2020-10-02T13:34:24.805Z</time>
      </trkpt>
      <trkpt lat="63.27924" lon="18.91691">
        <ele>55.751195</ele>
        <time>2020-10-02T13:34:30.815Z</time>
      </trkpt>
      <trkpt lat="63.2793" lon="18.91673">
        <ele>56.272072</ele>
        <time>2020-10-02T13:34:36.832Z</time>
      </trkpt>
      <trkpt lat="63.27936" lon="18.91658">
        <ele>56.748106</ele>
        <time>2020-10-02T13:34:42.817Z</time>
      </trkpt>
      <trkpt lat="63.27945" lon="18.91644">
        <ele>57.287065</ele>
        <time>2020-10-02T13:34:47.810Z</time>
      </trkpt>
      <trkpt lat="63.27954" lon="18.91633">
        <ele>57.825435</ele>
        <time>2020-10-02T13:34:52.814Z</time>
      </trkpt>
      <trkpt lat="63.27962" lon="18.91625">
        <ele>58.302724</ele>
        <time>2020-10-02T13:34:56.817Z</time>
      </trkpt>
      <trkpt lat="63.27974" lon="18.91616">
        <ele>58.919966</ele>
        <time>2020-10-02T13:35:00.834Z</time>
      </trkpt>
      <trkpt lat="63.27983" lon="18.9161">
        <ele>59.41228</ele>
        <time>2020-10-02T13:35:03.823Z</time>
      </trkpt>
      <trkpt lat="63.27993" lon="18.91605">
        <ele>59.931691</ele>
        <time>2020-10-02T13:35:06.802Z</time>
      </trkpt>
      <trkpt lat="63.28004" lon="18.91601">
        <ele>60.528527</ele>
        <time>2020-10-02T13:35:09.809Z</time>
      </trkpt>
      <trkpt lat="63.28017" lon="18.91596">
        <ele>61.021481</ele>
        <time>2020-10-02T13:35:12.831Z</time>
      </trkpt>
      <trkpt lat="63.28029" lon="18.91591">
        <ele>60.419111</ele>
        <time>2020-10-02T13:35:15.820Z</time>
      </trkpt>
      <trkpt lat="63.2804" lon="18.91584">
        <ele>59.825287</ele>
        <time>2020-10-02T13:35:18.849Z</time>
      </trkpt>
      <trkpt lat="63.28053" lon="18.91575">
        <ele>59.1675</ele>
        <time>2020-10-02T13:35:21.817Z</time>
      </trkpt>
      <trkpt lat="63.28066" lon="18.91564">
        <ele>58.481592</ele>
        <time>2020-10-02T13:35:24.800Z</time>
      </trkpt>
      <trkpt lat="63.28076" lon="18.91556">
        <ele>57.947171</ele>
        <time>2020-10-02T13:35:26.797Z</time>
      </trkpt>
      <trkpt lat="63.28087" lon="18.91544">
        <ele>57.315908</ele>
        <time>2020-10-02T13:35:28.894Z</time>
      </trkpt>
      <trkpt lat="63.281" lon="18.9153">
        <ele>56.618244</ele>
        <time>2020-10-02T13:35:30.847Z</time>
      </trkpt>
      <trkpt lat="63.28113" lon="18.91512">
        <ele>55.85945</ele>
        <time>2020-10-02T13:35:32.826Z</time>
      </trkpt>
      <trkpt lat="63.28126" lon="18.91493">
        <ele>55.079124</ele>
        <time>2020-10-02T13:35:34.808Z</time>
      </trkpt>
      <trkpt lat="63.28138" lon="18.91468">
        <ele>54.253937</ele>
        <time>2020-10-02T13:35:36.819Z</time>
      </trkpt>
      <trkpt lat="63.28148" lon="18.91443">
        <ele>53.492855</ele>
        <time>2020-10-02T13:35:38.805Z</time>
      </trkpt>
      <trkpt lat="63.28157" lon="18.91417">
        <ele>52.770925</ele>
        <time>2020-10-02T13:35:40.838Z</time>
      </trkpt>
      <trkpt lat="63.28164" lon="18.91391">
        <ele>52.118612</ele>
        <time>2020-10-02T13:35:42.803Z</time>
      </trkpt>
      <trkpt lat="63.2817" lon="18.91367">
        <ele>51.77173</ele>
        <time>2020-10-02T13:35:44.829Z</time>
      </trkpt>
      <trkpt lat="63.28174" lon="18.91343">
        <ele>51.45361</ele>
        <time>2020-10-02T13:35:46.792Z</time>
      </trkpt>
      <trkpt lat="63.28178" lon="18.9132">
        <ele>51.141067</ele>
        <time>2020-10-02T13:35:48.797Z</time>
      </trkpt>
      <trkpt lat="63.28181" lon="18.91296">
        <ele>50.818538</ele>
        <time>2020-10-02T13:35:50.801Z</time>
      </trkpt>
      <trkpt lat="63.28185" lon="18.91271">
        <ele>50.495202</ele>
        <time>2020-10-02T13:35:52.852Z</time>
      </trkpt>
      <trkpt lat="63.28188" lon="18.91248">
        <ele>50.17904</ele>
        <time>2020-10-02T13:35:54.808Z</time>
      </trkpt>
      <trkpt lat="63.28192" lon="18.91224">
        <ele>49.860478</ele>
        <time>2020-10-02T13:35:56.796Z</time>
      </trkpt>
      <trkpt lat="63.28195" lon="18.912">
        <ele>49.540406</ele>
        <time>2020-10-02T13:35:58.810Z</time>
      </trkpt>
      <trkpt lat="63.28199" lon="18.91174">
        <ele>49.205699</ele>
        <time>2020-10-02T13:36:00.808Z</time>
      </trkpt>
      <trkpt lat="63.28203" lon="18.91149">
        <ele>48.864961</ele>
        <time>2020-10-02T13:36:02.839Z</time>
      </trkpt>
      <trkpt lat="63.28208" lon="18.91123">
        <ele>48.51992</ele>
        <time>2020-10-02T13:36:04.813Z</time>
      </trkpt>
      <trkpt lat="63.28212" lon="18.91098">
        <ele>48.180371</ele>
        <time>2020-10-02T13:36:06.824Z</time>
      </trkpt>
      <trkpt lat="63.28216" lon="18.91073">
        <ele>47.847939</ele>
        <time>2020-10-02T13:36:08.858Z</time>
      </trkpt>
      <trkpt lat="63.2822" lon="18.91049">
        <ele>47.519524</ele>
        <time>2020-10-02T13:36:10.793Z</time>
      </trkpt>
      <trkpt lat="63.28223" lon="18.91025">
        <ele>47.202481</ele>
        <time>2020-10-02T13:36:12.830Z</time>
      </trkpt>
      <trkpt lat="63.28227" lon="18.91004">
        <ele>47.517461</ele>
        <time>2020-10-02T13:36:14.786Z</time>
      </trkpt>
      <trkpt lat="63.2823" lon="18.90985">
        <ele>48.104382</ele>
        <time>2020-10-02T13:36:16.839Z</time>
      </trkpt>
      <trkpt lat="63.28233" lon="18.90961">
        <ele>48.823501</ele>
        <time>2020-10-02T13:36:19.860Z</time>
      </trkpt>
      <trkpt lat="63.28236" lon="18.90942">
        <ele>49.411625</ele>
        <time>2020-10-02T13:36:22.816Z</time>
      </trkpt>
      <trkpt lat="63.28239" lon="18.9092">
        <ele>50.085447</ele>
        <time>2020-10-02T13:36:26.803Z</time>
      </trkpt>
      <trkpt lat="63.28242" lon="18.90899">
        <ele>50.756502</ele>
        <time>2020-10-02T13:36:30.812Z</time>
      </trkpt>
      <trkpt lat="63.28246" lon="18.90879">
        <ele>51.369807</ele>
        <time>2020-10-02T13:36:34.812Z</time>
      </trkpt>
      <trkpt lat="63.28249" lon="18.90855">
        <ele>52.100325</ele>
        <time>2020-10-02T13:36:39.814Z</time>
      </trkpt>
      <trkpt lat="63.28252" lon="18.90836">
        <ele>52.702708</ele>
        <time>2020-10-02T13:36:43.797Z</time>
      </trkpt>
      <trkpt lat="63.28257" lon="18.90814">
        <ele>53.413473</ele>
        <time>2020-10-02T13:36:48.783Z</time>
      </trkpt>
      <trkpt lat="63.28262" lon="18.90792">
        <ele>54.121252</ele>
        <time>2020-10-02T13:36:53.804Z</time>
      </trkpt>
      <trkpt lat="63.28268" lon="18.90771">
        <ele>54.840852</ele>
        <time>2020-10-02T13:36:58.798Z</time>
      </trkpt>
      <trkpt lat="63.28273" lon="18.9075">
        <ele>55.557428</ele>
        <time>2020-10-02T13:37:03.803Z</time>
      </trkpt>
      <trkpt lat="63.2828" lon="18.90731">
        <ele>56.257047</ele>
        <time>2020-10-02T13:37:08.793Z</time>
      </trkpt>
      <trkpt lat="63.28286" lon="18.90712">
        <ele>56.948303</ele>
        <time>2020-10-02T13:37:13.818Z</time>
      </trkpt>
      <trkpt lat="63.28293" lon="18.90696">
        <ele>57.590886</ele>
        <time>2020-10-02T13:37:18.802Z</time>
      </trkpt>
      <trkpt lat="63.283" lon="18.90679">
        <ele>58.244466</ele>
        <time>2020-10-02T13:37:23.814Z</time>
      </trkpt>
      <trkpt lat="63.28307" lon="18.90665">
        <ele>58.808821</ele>
        <time>2020-10-02T13:37:27.798Z</time>
      </trkpt>
      <trkpt lat="63.28314" lon="18.90652">
        <ele>59.104803</ele>
        <time>2020-10-02T13:37:31.815Z</time>
      </trkpt>
      <trkpt lat="63.28321" lon="18.90639">
        <ele>59.400177</ele>
        <time>2020-10-02T13:37:35.792Z</time>
      </trkpt>
      <trkpt lat="63.28329" lon="18.90627">
        <ele>59.688574</ele>
        <time>2020-10-02T13:37:39.828Z</time>
      </trkpt>
      <trkpt lat="63.28336" lon="18.90614">
        <ele>59.979978</ele>
        <time>2020-10-02T13:37:43.805Z</time>
      </trkpt>
      <trkpt lat="63.28344" lon="18.90601">
        <ele>60.284386</ele>
        <time>2020-10-02T13:37:47.814Z</time>
      </trkpt>
      <trkpt lat="63.28351" lon="18.90586">
        <ele>60.605295</ele>
        <time>2020-10-02T13:37:51.817Z</time>
      </trkpt>
      <trkpt lat="63.28359" lon="18.9057">
        <ele>60.938469</ele>
        <time>2020-10-02T13:37:55.803Z</time>
      </trkpt>
      <trkpt lat="63.28368" lon="18.90555">
        <ele>61.284381</ele>
        <time>2020-10-02T13:37:59.829Z</time>
      </trkpt>
      <trkpt lat="63.28376" lon="18.90539">
        <ele>61.629331</ele>
        <time>2020-10-02T13:38:03.837Z</time>
      </trkpt>
      <trkpt lat="63.28383" lon="18.90526">
        <ele>61.917304</ele>
        <time>2020-10-02T13:38:06.839Z</time>
      </trkpt>
      <trkpt lat="63.2839" lon="18.90511">
        <ele>62.229306</ele>
        <time>2020-10-02T13:38:09.834Z</time>
      </trkpt>
      <trkpt lat="63.28399" lon="18.90497">
        <ele>62.581769</ele>
        <time>2020-10-02T13:38:12.821Z</time>
      </trkpt>
      <trkpt lat="63.28407" lon="18.90481">
        <ele>62.918225</ele>
        <time>2020-10-02T13:38:15.809Z</time>
      </trkpt>
      <trkpt lat="63.28415" lon="18.90466">
        <ele>63.244997</ele>
        <time>2020-10-02T13:38:18.797Z</time>
      </trkpt>
      <trkpt lat="63.28424" lon="18.9045">
        <ele>63.599361</ele>
        <time>2020-10-02T13:38:21.821Z</time>
      </trkpt>
      <trkpt lat="63.28433" lon="18.90433">
        <ele>63.969712</ele>
        <time>2020-10-02T13:38:24.816Z</time>
      </trkpt>
      <trkpt lat="63.28441" lon="18.90415">
        <ele>64.329059</ele>
        <time>2020-10-02T13:38:27.797Z</time>
      </trkpt>
      <trkpt lat="63.2845" lon="18.90396">
        <ele>64.155019</ele>
        <time>2020-10-02T13:38:30.801Z</time>
      </trkpt>
      <trkpt lat="63.28459" lon="18.90377">
        <ele>63.790806</ele>
        <time>2020-10-02T13:38:33.800Z</time>
      </trkpt>
      <trkpt lat="63.28469" lon="18.90358">
        <ele>63.410298</ele>
        <time>2020-10-02T13:38:36.800Z</time>
      </trkpt>
      <trkpt lat="63.28479" lon="18.90338">
        <ele>63.015181</ele>
        <time>2020-10-02T13:38:39.813Z</time>
      </trkpt>
      <trkpt lat="63.28487" lon="18.90325">
        <ele>62.72354</ele>
        <time>2020-10-02T13:38:41.860Z</time>
      </trkpt>
      <trkpt lat="63.28496" lon="18.90311">
        <ele>62.39006</ele>
        <time>2020-10-02T13:38:43.817Z</time>
      </trkpt>
      <trkpt lat="63.28506" lon="18.90295">
        <ele>62.025303</ele>
        <time>2020-10-02T13:38:45.806Z</time>
      </trkpt>
      <trkpt lat="63.28516" lon="18.90279">
        <ele>61.659777</ele>
        <time>2020-10-02T13:38:47.827Z</time>
      </trkpt>
      <trkpt lat="63.28526" lon="18.90263">
        <ele>61.285447</ele>
        <time>2020-10-02T13:38:49.813Z</time>
      </trkpt>
      <trkpt lat="63.28536" lon="18.90246">
        <ele>60.918299</ele>
        <time>2020-10-02T13:38:51.838Z</time>
      </trkpt>
      <trkpt lat="63.28545" lon="18.90228">
        <ele>60.545725</ele>
        <time>2020-10-02T13:38:53.843Z</time>
      </trkpt>
      <trkpt lat="63.28555" lon="18.9021">
        <ele>60.175415</ele>
        <time>2020-10-02T13:38:55.817Z</time>
      </trkpt>
      <trkpt lat="63.28564" lon="18.90192">
        <ele>59.819329</ele>
        <time>2020-10-02T13:38:57.831Z</time>
      </trkpt>
      <trkpt lat="63.28574" lon="18.90175">
        <ele>59.45331</ele>
        <time>2020-10-02T13:38:59.832Z</time>
      </trkpt>
      <trkpt lat="63.28583" lon="18.90157">
        <ele>59.0781</ele>
        <time>2020-10-02T13:39:01.801Z</time>
      </trkpt>
      <trkpt lat="63.28593" lon="18.9014">
        <ele>58.634824</ele>
        <time>2020-10-02T13:39:03.839Z</time>
      </trkpt>
      <trkpt lat="63.28603" lon="18.90123">
        <ele>58.19347</ele>
        <time>2020-10-02T13:39:05.806Z</time>
      </trkpt>
      <trkpt lat="63.28613" lon="18.90105">
        <ele>57.742582</ele>
        <time>2020-10-02T13:39:07.797Z</time>
      </trkpt>
      <trkpt lat="63.28624" lon="18.90087">
        <ele>57.282064</ele>
        <time>2020-10-02T13:39:09.817Z</time>
      </trkpt>
      <trkpt lat="63.28634" lon="18.90069">
        <ele>56.821907</ele>
        <time>2020-10-02T13:39:11.801Z</time>
      </trkpt>
      <trkpt lat="63.28645" lon="18.90052">
        <ele>56.351992</ele>
        <time>2020-10-02T13:39:13.801Z</time>
      </trkpt>
      <trkpt lat="63.28656" lon="18.90037">
        <ele>55.887277</ele>
        <time>2020-10-02T13:39:15.799Z</time>
      </trkpt>
      <trkpt lat="63.28668" lon="18.90024">
        <ele>55.431437</ele>
        <time>2020-10-02T13:39:17.843Z</time>
      </trkpt>
      <trkpt lat="63.2868" lon="18.90012">
        <ele>54.980497</ele>
        <time>2020-10-02T13:39:19.835Z</time>
      </trkpt>
      <trkpt lat="63.28692" lon="18.9">
        <ele>54.51585</ele>
        <time>2020-10-02T13:39:21.808Z</time>
      </trkpt>
      <trkpt lat="63.28704" lon="18.8999">
        <ele>54.065927</ele>
        <time>2020-10-02T13:39:23.794Z</time>
      </trkpt>
      <trkpt lat="63.28716" lon="18.8998">
        <ele>53.600652</ele>
        <time>2020-10-02T13:39:25.844Z</time>
      </trkpt>
      <trkpt lat="63.28728" lon="18.89969">
        <ele>53.151993</ele>
        <time>2020-10-02T13:39:27.823Z</time>
      </trkpt>
      <trkpt lat="63.2874" lon="18.89958">
        <ele>52.743484</ele>
        <time>2020-10-02T13:39:29.808Z</time>
      </trkpt>
      <trkpt lat="63.28753" lon="18.89949">
        <ele>52.532114</ele>
        <time>2020-10-02T13:39:31.810Z</time>
      </trkpt>
      <trkpt lat="63.28765" lon="18.89939">
        <ele>52.322274</ele>
        <time>2020-10-02T13:39:33.805Z</time>
      </trkpt>
      <trkpt lat="63.28777" lon="18.89929">
        <ele>52.115033</ele>
        <time>2020-10-02T13:39:35.822Z</time>
      </trkpt>
      <trkpt lat="63.2879" lon="18.89918">
        <ele>51.896663</ele>
        <time>2020-10-02T13:39:37.803Z</time>
      </trkpt>
      <trkpt lat="63.28802" lon="18.89906">
        <ele>51.6723</ele>
        <time>2020-10-02T13:39:39.792Z</time>
      </trkpt>
      <trkpt lat="63.28816" lon="18.89894">
        <ele>51.43703</ele>
        <time>2020-10-02T13:39:41.807Z</time>
      </trkpt>
      <trkpt lat="63.28829" lon="18.89881">
        <ele>51.200608</ele>
        <time>2020-10-02T13:39:43.816Z</time>
      </trkpt>
      <trkpt lat="63.28842" lon="18.89866">
        <ele>50.960401</ele>
        <time>2020-10-02T13:39:45.818Z</time>
      </trkpt>
      <trkpt lat="63.28855" lon="18.8985">
        <ele>50.72216</ele>
        <time>2020-10-02T13:39:47.788Z</time>
      </trkpt>
      <trkpt lat="63.28868" lon="18.89835">
        <ele>50.48738</ele>
        <time>2020-10-02T13:39:49.828Z</time>
      </trkpt>
      <trkpt lat="63.28881" lon="18.8982">
        <ele>50.254094</ele>
        <time>2020-10-02T13:39:51.822Z</time>
      </trkpt>
      <trkpt lat="63.28893" lon="18.89803">
        <ele>50.019814</ele>
        <time>2020-10-02T13:39:53.801Z</time>
      </trkpt>
      <trkpt lat="63.28905" lon="18.89786">
        <ele>49.722678</ele>
        <time>2020-10-02T13:39:55.814Z</time>
      </trkpt>
      <trkpt lat="63.28917" lon="18.89767">
        <ele>49.305299</ele>
        <time>2020-10-02T13:39:57.795Z</time>
      </trkpt>
      <trkpt lat="63.2893" lon="18.89749">
        <ele>48.87991</ele>
        <time>2020-10-02T13:39:59.818Z</time>
      </trkpt>
      <trkpt lat="63.28942" lon="18.89732">
        <ele>48.462313</ele>
        <time>2020-10-02T13:40:01.806Z</time>
      </trkpt>
      <trkpt lat="63.28955" lon="18.89715">
        <ele>48.050246</ele>
        <time>2020-10-02T13:40:03.812Z</time>
      </trkpt>
      <trkpt lat="63.28967" lon="18.897">
        <ele>47.643427</ele>
        <time>2020-10-02T13:40:05.804Z</time>
      </trkpt>
      <trkpt lat="63.28979" lon="18.89683">
        <ele>47.232453</ele>
        <time>2020-10-02T13:40:07.796Z</time>
      </trkpt>
      <trkpt lat="63.28991" lon="18.89666">
        <ele>46.825955</ele>
        <time>2020-10-02T13:40:09.828Z</time>
      </trkpt>
      <trkpt lat="63.29004" lon="18.89648">
        <ele>46.40952</ele>
        <time>2020-10-02T13:40:11.853Z</time>
      </trkpt>
      <trkpt lat="63.29016" lon="18.89629">
        <ele>45.975868</ele>
        <time>2020-10-02T13:40:13.795Z</time>
      </trkpt>
      <trkpt lat="63.2903" lon="18.8961">
        <ele>45.522767</ele>
        <time>2020-10-02T13:40:15.808Z</time>
      </trkpt>
      <trkpt lat="63.29043" lon="18.8959">
        <ele>45.075402</ele>
        <time>2020-10-02T13:40:17.810Z</time>
      </trkpt>
      <trkpt lat="63.29056" lon="18.89571">
        <ele>44.619012</ele>
        <time>2020-10-02T13:40:19.816Z</time>
      </trkpt>
      <trkpt lat="63.2907" lon="18.89551">
        <ele>44.155819</ele>
        <time>2020-10-02T13:40:21.831Z</time>
      </trkpt>
      <trkpt lat="63.29083" lon="18.89531">
        <ele>43.690218</ele>
        <time>2020-10-02T13:40:23.795Z</time>
      </trkpt>
      <trkpt lat="63.29097" lon="18.89512">
        <ele>43.225328</ele>
        <time>2020-10-02T13:40:25.828Z</time>
      </trkpt>
      <trkpt lat="63.2911" lon="18.89492">
        <ele>42.75419</ele>
        <time>2020-10-02T13:40:27.813Z</time>
      </trkpt>
      <trkpt lat="63.29124" lon="18.89471">
        <ele>42.282825</ele>
        <time>2020-10-02T13:40:29.793Z</time>
      </trkpt>
      <trkpt lat="63.29138" lon="18.89452">
        <ele>41.811688</ele>
        <time>2020-10-02T13:40:31.805Z</time>
      </trkpt>
      <trkpt lat="63.29151" lon="18.89431">
        <ele>41.336991</ele>
        <time>2020-10-02T13:40:33.833Z</time>
      </trkpt>
      <trkpt lat="63.29165" lon="18.89412">
        <ele>40.874917</ele>
        <time>2020-10-02T13:40:35.833Z</time>
      </trkpt>
      <trkpt lat="63.29178" lon="18.89393">
        <ele>40.418685</ele>
        <time>2020-10-02T13:40:37.812Z</time>
      </trkpt>
      <trkpt lat="63.29191" lon="18.89373">
        <ele>39.964858</ele>
        <time>2020-10-02T13:40:39.865Z</time>
      </trkpt>
      <trkpt lat="63.29204" lon="18.89354">
        <ele>39.576867</ele>
        <time>2020-10-02T13:40:41.797Z</time>
      </trkpt>
      <trkpt lat="63.29217" lon="18.89336">
        <ele>39.527975</ele>
        <time>2020-10-02T13:40:43.805Z</time>
      </trkpt>
      <trkpt lat="63.29229" lon="18.89318">
        <ele>39.479631</ele>
        <time>2020-10-02T13:40:45.842Z</time>
      </trkpt>
      <trkpt lat="63.29241" lon="18.89302">
        <ele>39.434334</ele>
        <time>2020-10-02T13:40:47.842Z</time>
      </trkpt>
      <trkpt lat="63.29252" lon="18.89286">
        <ele>39.391846</ele>
        <time>2020-10-02T13:40:49.801Z</time>
      </trkpt>
      <trkpt lat="63.29262" lon="18.89271">
        <ele>39.352674</ele>
        <time>2020-10-02T13:40:51.797Z</time>
      </trkpt>
      <trkpt lat="63.29272" lon="18.89258">
        <ele>39.316319</ele>
        <time>2020-10-02T13:40:53.804Z</time>
      </trkpt>
      <trkpt lat="63.29281" lon="18.89244">
        <ele>39.280159</ele>
        <time>2020-10-02T13:40:55.807Z</time>
      </trkpt>
      <trkpt lat="63.2929" lon="18.8923">
        <ele>39.244057</ele>
        <time>2020-10-02T13:40:57.812Z</time>
      </trkpt>
      <trkpt lat="63.29299" lon="18.89217">
        <ele>39.20793</ele>
        <time>2020-10-02T13:40:59.815Z</time>
      </trkpt>
      <trkpt lat="63.29309" lon="18.89204">
        <ele>39.171805</ele>
        <time>2020-10-02T13:41:01.813Z</time>
      </trkpt>
      <trkpt lat="63.29318" lon="18.8919">
        <ele>39.135487</ele>
        <time>2020-10-02T13:41:03.826Z</time>
      </trkpt>
      <trkpt lat="63.29328" lon="18.89177">
        <ele>39.099484</ele>
        <time>2020-10-02T13:41:05.811Z</time>
      </trkpt>
      <trkpt lat="63.29337" lon="18.89163">
        <ele>39.063998</ele>
        <time>2020-10-02T13:41:07.836Z</time>
      </trkpt>
      <trkpt lat="63.29346" lon="18.89149">
        <ele>39.028572</ele>
        <time>2020-10-02T13:41:09.832Z</time>
      </trkpt>
      <trkpt lat="63.29355" lon="18.89136">
        <ele>38.955111</ele>
        <time>2020-10-02T13:41:11.805Z</time>
      </trkpt>
      <trkpt lat="63.29365" lon="18.89122">
        <ele>38.767092</ele>
        <time>2020-10-02T13:41:13.804Z</time>
      </trkpt>
      <trkpt lat="63.29375" lon="18.89108">
        <ele>38.57353</ele>
        <time>2020-10-02T13:41:15.796Z</time>
      </trkpt>
      <trkpt lat="63.29385" lon="18.89093">
        <ele>38.371251</ele>
        <time>2020-10-02T13:41:17.818Z</time>
      </trkpt>
      <trkpt lat="63.29396" lon="18.89078">
        <ele>38.161683</ele>
        <time>2020-10-02T13:41:19.797Z</time>
      </trkpt>
      <trkpt lat="63.29407" lon="18.89062">
        <ele>37.942821</ele>
        <time>2020-10-02T13:41:21.831Z</time>
      </trkpt>
      <trkpt lat="63.29419" lon="18.89046">
        <ele>37.719894</ele>
        <time>2020-10-02T13:41:23.807Z</time>
      </trkpt>
      <trkpt lat="63.29431" lon="18.89031">
        <ele>37.499501</ele>
        <time>2020-10-02T13:41:25.859Z</time>
      </trkpt>
      <trkpt lat="63.29442" lon="18.89016">
        <ele>37.282578</ele>
        <time>2020-10-02T13:41:27.813Z</time>
      </trkpt>
      <trkpt lat="63.29453" lon="18.89">
        <ele>37.065497</ele>
        <time>2020-10-02T13:41:29.813Z</time>
      </trkpt>
      <trkpt lat="63.29464" lon="18.88985">
        <ele>36.853926</ele>
        <time>2020-10-02T13:41:31.830Z</time>
      </trkpt>
      <trkpt lat="63.29475" lon="18.8897">
        <ele>36.646534</ele>
        <time>2020-10-02T13:41:33.880Z</time>
      </trkpt>
      <trkpt lat="63.29485" lon="18.88955">
        <ele>36.439732</ele>
        <time>2020-10-02T13:41:35.815Z</time>
      </trkpt>
      <trkpt lat="63.29496" lon="18.8894">
        <ele>36.234308</ele>
        <time>2020-10-02T13:41:37.814Z</time>
      </trkpt>
      <trkpt lat="63.29507" lon="18.88925">
        <ele>36.065443</ele>
        <time>2020-10-02T13:41:39.817Z</time>
      </trkpt>
      <trkpt lat="63.29518" lon="18.88911">
        <ele>36.173193</ele>
        <time>2020-10-02T13:41:41.844Z</time>
      </trkpt>
      <trkpt lat="63.29529" lon="18.88897">
        <ele>36.276724</ele>
        <time>2020-10-02T13:41:43.839Z</time>
      </trkpt>
      <trkpt lat="63.29539" lon="18.88883">
        <ele>36.379001</ele>
        <time>2020-10-02T13:41:45.817Z</time>
      </trkpt>
      <trkpt lat="63.2955" lon="18.88869">
        <ele>36.481243</ele>
        <time>2020-10-02T13:41:47.810Z</time>
      </trkpt>
      <trkpt lat="63.2956" lon="18.88856">
        <ele>36.584585</ele>
        <time>2020-10-02T13:41:49.836Z</time>
      </trkpt>
      <trkpt lat="63.29571" lon="18.88841">
        <ele>36.689461</ele>
        <time>2020-10-02T13:41:51.857Z</time>
      </trkpt>
      <trkpt lat="63.29581" lon="18.88827">
        <ele>36.788189</ele>
        <time>2020-10-02T13:41:53.815Z</time>
      </trkpt>
      <trkpt lat="63.2959" lon="18.88813">
        <ele>36.879049</ele>
        <time>2020-10-02T13:41:55.805Z</time>
      </trkpt>
      <trkpt lat="63.29597" lon="18.88802">
        <ele>36.954608</ele>
        <time>2020-10-02T13:41:57.798Z</time>
      </trkpt>
      <trkpt lat="63.29607" lon="18.88785">
        <ele>37.057479</ele>
        <time>2020-10-02T13:42:00.798Z</time>
      </trkpt>
      <trkpt lat="63.29616" lon="18.88771">
        <ele>37.14511</ele>
        <time>2020-10-02T13:42:03.853Z</time>
      </trkpt>
      <trkpt lat="63.29625" lon="18.88756">
        <ele>37.242165</ele>
        <time>2020-10-02T13:42:07.840Z</time>
      </trkpt>
      <trkpt lat="63.29634" lon="18.88745">
        <ele>37.330962</ele>
        <time>2020-10-02T13:42:10.821Z</time>
      </trkpt>
      <trkpt lat="63.29644" lon="18.88734">
        <ele>37.421702</ele>
        <time>2020-10-02T13:42:13.790Z</time>
      </trkpt>
      <trkpt lat="63.29652" lon="18.88721">
        <ele>37.504406</ele>
        <time>2020-10-02T13:42:16.779Z</time>
      </trkpt>
      <trkpt lat="63.29656" lon="18.88701">
        <ele>37.572886</ele>
        <time>2020-10-02T13:42:19.815Z</time>
      </trkpt>
      <trkpt lat="63.29656" lon="18.88676">
        <ele>37.619707</ele>
        <time>2020-10-02T13:42:22.858Z</time>
      </trkpt>
      <trkpt lat="63.29653" lon="18.88651">
        <ele>37.669106</ele>
        <time>2020-10-02T13:42:25.793Z</time>
      </trkpt>
      <trkpt lat="63.2965" lon="18.88626">
        <ele>37.719156</ele>
        <time>2020-10-02T13:42:28.828Z</time>
      </trkpt>
      <trkpt lat="63.29651" lon="18.88599">
        <ele>37.769753</ele>
        <time>2020-10-02T13:42:31.825Z</time>
      </trkpt>
      <trkpt lat="63.29651" lon="18.88576">
        <ele>37.814498</ele>
        <time>2020-10-02T13:42:35.820Z</time>
      </trkpt>
      <trkpt lat="63.29639" lon="18.88583">
        <ele>37.869918</ele>
        <time>2020-10-02T13:44:43.808Z</time>
      </trkpt>
      <trkpt lat="63.29631" lon="18.88602">
        <ele>37.917129</ele>
        <time>2020-10-02T13:44:48.821Z</time>
      </trkpt>
      <trkpt lat="63.29634" lon="18.88622">
        <ele>37.956836</ele>
        <time>2020-10-02T13:44:52.822Z</time>
      </trkpt>
      <trkpt lat="63.29639" lon="18.88645">
        <ele>38.004938</ele>
        <time>2020-10-02T13:44:56.845Z</time>
      </trkpt>
      <trkpt lat="63.29642" lon="18.88665">
        <ele>38.045552</ele>
        <time>2020-10-02T13:44:59.785Z</time>
      </trkpt>
      <trkpt lat="63.29645" lon="18.88687">
        <ele>38.087812</ele>
        <time>2020-10-02T13:45:02.816Z</time>
      </trkpt>
      <trkpt lat="63.29646" lon="18.88708">
        <ele>38.128577</ele>
        <time>2020-10-02T13:45:05.810Z</time>
      </trkpt>
      <trkpt lat="63.29639" lon="18.88727">
        <ele>38.173804</ele>
        <time>2020-10-02T13:45:08.799Z</time>
      </trkpt>
      <trkpt lat="63.29631" lon="18.88738">
        <ele>38.212855</ele>
        <time>2020-10-02T13:45:10.796Z</time>
      </trkpt>
      <trkpt lat="63.29621" lon="18.88754">
        <ele>38.265283</ele>
        <time>2020-10-02T13:45:13.798Z</time>
      </trkpt>
      <trkpt lat="63.29611" lon="18.88769">
        <ele>38.313557</ele>
        <time>2020-10-02T13:45:16.785Z</time>
      </trkpt>
      <trkpt lat="63.29601" lon="18.88784">
        <ele>38.319597</ele>
        <time>2020-10-02T13:45:19.800Z</time>
      </trkpt>
      <trkpt lat="63.29593" lon="18.88797">
        <ele>38.324423</ele>
        <time>2020-10-02T13:45:21.833Z</time>
      </trkpt>
      <trkpt lat="63.29585" lon="18.8881">
        <ele>38.329331</ele>
        <time>2020-10-02T13:45:23.799Z</time>
      </trkpt>
      <trkpt lat="63.29571" lon="18.8881">
        <ele>38.336142</ele>
        <time>2020-10-02T13:45:26.797Z</time>
      </trkpt>
      <trkpt lat="63.29563" lon="18.88797">
        <ele>38.341065</ele>
        <time>2020-10-02T13:45:28.791Z</time>
      </trkpt>
      <trkpt lat="63.29556" lon="18.88775">
        <ele>38.347274</ele>
        <time>2020-10-02T13:45:31.798Z</time>
      </trkpt>
      <trkpt lat="63.29549" lon="18.8876">
        <ele>38.352028</ele>
        <time>2020-10-02T13:45:34.788Z</time>
      </trkpt>
      <trkpt lat="63.29544" lon="18.88743">
        <ele>38.356585</ele>
        <time>2020-10-02T13:45:38.798Z</time>
      </trkpt>
      <trkpt lat="63.29538" lon="18.88727">
        <ele>38.361149</ele>
        <time>2020-10-02T13:45:43.806Z</time>
      </trkpt>
      <trkpt lat="63.29532" lon="18.88711">
        <ele>38.365904</ele>
        <time>2020-10-02T13:45:47.807Z</time>
      </trkpt>
      <trkpt lat="63.29527" lon="18.88694">
        <ele>38.370663</ele>
        <time>2020-10-02T13:45:51.783Z</time>
      </trkpt>
      <trkpt lat="63.29521" lon="18.88675">
        <ele>38.375787</ele>
        <time>2020-10-02T13:45:55.800Z</time>
      </trkpt>
      <trkpt lat="63.29516" lon="18.88653">
        <ele>38.381365</ele>
        <time>2020-10-02T13:45:59.787Z</time>
      </trkpt>
      <trkpt lat="63.29512" lon="18.88631">
        <ele>38.386681</ele>
        <time>2020-10-02T13:46:03.793Z</time>
      </trkpt>
      <trkpt lat="63.29507" lon="18.8861">
        <ele>38.391878</ele>
        <time>2020-10-02T13:46:07.792Z</time>
      </trkpt>
      <trkpt lat="63.29502" lon="18.88591">
        <ele>38.39702</ele>
        <time>2020-10-02T13:46:11.799Z</time>
      </trkpt>
      <trkpt lat="63.29498" lon="18.8857">
        <ele>38.401931</ele>
        <time>2020-10-02T13:46:15.796Z</time>
      </trkpt>
      <trkpt lat="63.29495" lon="18.88551">
        <ele>38.388662</ele>
        <time>2020-10-02T13:46:19.798Z</time>
      </trkpt>
      <trkpt lat="63.2949" lon="18.88533">
        <ele>38.369059</ele>
        <time>2020-10-02T13:46:23.796Z</time>
      </trkpt>
      <trkpt lat="63.29486" lon="18.88513">
        <ele>38.348111</ele>
        <time>2020-10-02T13:46:27.785Z</time>
      </trkpt>
      <trkpt lat="63.29481" lon="18.8849">
        <ele>38.324506</ele>
        <time>2020-10-02T13:46:32.818Z</time>
      </trkpt>
      <trkpt lat="63.29477" lon="18.88467">
        <ele>38.300286</ele>
        <time>2020-10-02T13:46:36.799Z</time>
      </trkpt>
      <trkpt lat="63.29472" lon="18.88446">
        <ele>38.27822</ele>
        <time>2020-10-02T13:46:39.833Z</time>
      </trkpt>
      <trkpt lat="63.29468" lon="18.88422">
        <ele>38.254183</ele>
        <time>2020-10-02T13:46:42.795Z</time>
      </trkpt>
      <trkpt lat="63.29462" lon="18.88398">
        <ele>38.228324</ele>
        <time>2020-10-02T13:46:45.801Z</time>
      </trkpt>
      <trkpt lat="63.29456" lon="18.88371">
        <ele>38.199797</ele>
        <time>2020-10-02T13:46:48.788Z</time>
      </trkpt>
      <trkpt lat="63.29452" lon="18.88352">
        <ele>38.180151</ele>
        <time>2020-10-02T13:46:50.802Z</time>
      </trkpt>
      <trkpt lat="63.29448" lon="18.88332">
        <ele>38.159474</ele>
        <time>2020-10-02T13:46:52.799Z</time>
      </trkpt>
      <trkpt lat="63.29444" lon="18.88311">
        <ele>38.137589</ele>
        <time>2020-10-02T13:46:54.795Z</time>
      </trkpt>
      <trkpt lat="63.2944" lon="18.88288">
        <ele>38.1151</ele>
        <time>2020-10-02T13:46:56.818Z</time>
      </trkpt>
      <trkpt lat="63.29437" lon="18.88265">
        <ele>38.092296</ele>
        <time>2020-10-02T13:46:58.822Z</time>
      </trkpt>
      <trkpt lat="63.29434" lon="18.88241">
        <ele>38.068553</ele>
        <time>2020-10-02T13:47:00.799Z</time>
      </trkpt>
      <trkpt lat="63.2943" lon="18.88216">
        <ele>38.043702</ele>
        <time>2020-10-02T13:47:02.787Z</time>
      </trkpt>
      <trkpt lat="63.29428" lon="18.88192">
        <ele>38.082986</ele>
        <time>2020-10-02T13:47:04.788Z</time>
      </trkpt>
      <trkpt lat="63.29426" lon="18.88167">
        <ele>38.330866</ele>
        <time>2020-10-02T13:47:06.815Z</time>
      </trkpt>
      <trkpt lat="63.29425" lon="18.88145">
        <ele>38.559217</ele>
        <time>2020-10-02T13:47:08.788Z</time>
      </trkpt>
      <trkpt lat="63.29424" lon="18.88123">
        <ele>38.778528</ele>
        <time>2020-10-02T13:47:10.795Z</time>
      </trkpt>
      <trkpt lat="63.29424" lon="18.88102">
        <ele>38.990519</ele>
        <time>2020-10-02T13:47:12.802Z</time>
      </trkpt>
      <trkpt lat="63.29424" lon="18.88074">
        <ele>39.281441</ele>
        <time>2020-10-02T13:47:15.842Z</time>
      </trkpt>
      <trkpt lat="63.29424" lon="18.8805">
        <ele>39.521996</ele>
        <time>2020-10-02T13:47:18.792Z</time>
      </trkpt>
      <trkpt lat="63.29425" lon="18.88028">
        <ele>39.746873</ele>
        <time>2020-10-02T13:47:21.813Z</time>
      </trkpt>
      <trkpt lat="63.29427" lon="18.88007">
        <ele>39.958354</ele>
        <time>2020-10-02T13:47:24.812Z</time>
      </trkpt>
      <trkpt lat="63.29428" lon="18.87983">
        <ele>40.210931</ele>
        <time>2020-10-02T13:47:28.814Z</time>
      </trkpt>
      <trkpt lat="63.2943" lon="18.8796">
        <ele>40.44991</ele>
        <time>2020-10-02T13:47:32.808Z</time>
      </trkpt>
      <trkpt lat="63.29432" lon="18.87936">
        <ele>40.688744</ele>
        <time>2020-10-02T13:47:36.816Z</time>
      </trkpt>
      <trkpt lat="63.29434" lon="18.87914">
        <ele>40.924732</ele>
        <time>2020-10-02T13:47:40.793Z</time>
      </trkpt>
      <trkpt lat="63.29437" lon="18.87893">
        <ele>41.13941</ele>
        <time>2020-10-02T13:47:44.789Z</time>
      </trkpt>
      <trkpt lat="63.29439" lon="18.87869">
        <ele>41.38918</ele>
        <time>2020-10-02T13:47:49.849Z</time>
      </trkpt>
      <trkpt lat="63.29441" lon="18.87845">
        <ele>41.637932</ele>
        <time>2020-10-02T13:47:54.794Z</time>
      </trkpt>
      <trkpt lat="63.29444" lon="18.87825">
        <ele>41.851517</ele>
        <time>2020-10-02T13:47:58.826Z</time>
      </trkpt>
      <trkpt lat="63.29447" lon="18.87802">
        <ele>42.075463</ele>
        <time>2020-10-02T13:48:02.838Z</time>
      </trkpt>
      <trkpt lat="63.29451" lon="18.87778">
        <ele>41.980582</ele>
        <time>2020-10-02T13:48:06.798Z</time>
      </trkpt>
      <trkpt lat="63.29455" lon="18.87757">
        <ele>41.899183</ele>
        <time>2020-10-02T13:48:09.790Z</time>
      </trkpt>
      <trkpt lat="63.2946" lon="18.87735">
        <ele>41.8084</ele>
        <time>2020-10-02T13:48:12.813Z</time>
      </trkpt>
      <trkpt lat="63.29465" lon="18.87709">
        <ele>41.704499</ele>
        <time>2020-10-02T13:48:15.817Z</time>
      </trkpt>
      <trkpt lat="63.29469" lon="18.87689">
        <ele>41.626118</ele>
        <time>2020-10-02T13:48:17.797Z</time>
      </trkpt>
      <trkpt lat="63.29473" lon="18.87668">
        <ele>41.540253</ele>
        <time>2020-10-02T13:48:19.793Z</time>
      </trkpt>
      <trkpt lat="63.29479" lon="18.87646">
        <ele>41.446999</ele>
        <time>2020-10-02T13:48:21.847Z</time>
      </trkpt>
      <trkpt lat="63.29485" lon="18.87624">
        <ele>41.349973</ele>
        <time>2020-10-02T13:48:23.815Z</time>
      </trkpt>
      <trkpt lat="63.29491" lon="18.876">
        <ele>41.248951</ele>
        <time>2020-10-02T13:48:25.802Z</time>
      </trkpt>
      <trkpt lat="63.29498" lon="18.87577">
        <ele>41.149487</ele>
        <time>2020-10-02T13:48:27.804Z</time>
      </trkpt>
      <trkpt lat="63.29505" lon="18.87555">
        <ele>41.049899</ele>
        <time>2020-10-02T13:48:29.832Z</time>
      </trkpt>
      <trkpt lat="63.29512" lon="18.87534">
        <ele>40.955024</ele>
        <time>2020-10-02T13:48:31.792Z</time>
      </trkpt>
      <trkpt lat="63.29519" lon="18.87515">
        <ele>40.865086</ele>
        <time>2020-10-02T13:48:33.822Z</time>
      </trkpt>
      <trkpt lat="63.29525" lon="18.87498">
        <ele>40.782331</ele>
        <time>2020-10-02T13:48:35.813Z</time>
      </trkpt>
      <trkpt lat="63.29531" lon="18.87481">
        <ele>40.703303</ele>
        <time>2020-10-02T13:48:37.832Z</time>
      </trkpt>
      <trkpt lat="63.29538" lon="18.87464">
        <ele>40.621759</ele>
        <time>2020-10-02T13:48:39.834Z</time>
      </trkpt>
      <trkpt lat="63.29544" lon="18.87446">
        <ele>40.294778</ele>
        <time>2020-10-02T13:48:41.793Z</time>
      </trkpt>
      <trkpt lat="63.29551" lon="18.87428">
        <ele>39.921556</ele>
        <time>2020-10-02T13:48:43.805Z</time>
      </trkpt>
      <trkpt lat="63.29558" lon="18.87411">
        <ele>39.534066</ele>
        <time>2020-10-02T13:48:45.802Z</time>
      </trkpt>
      <trkpt lat="63.29566" lon="18.87392">
        <ele>39.12873</ele>
        <time>2020-10-02T13:48:47.791Z</time>
      </trkpt>
      <trkpt lat="63.29574" lon="18.87374">
        <ele>38.718233</ele>
        <time>2020-10-02T13:48:49.800Z</time>
      </trkpt>
      <trkpt lat="63.29583" lon="18.87354">
        <ele>38.271262</ele>
        <time>2020-10-02T13:48:51.799Z</time>
      </trkpt>
      <trkpt lat="63.29593" lon="18.87333">
        <ele>37.802528</ele>
        <time>2020-10-02T13:48:53.809Z</time>
      </trkpt>
      <trkpt lat="63.29603" lon="18.87311">
        <ele>37.300969</ele>
        <time>2020-10-02T13:48:55.791Z</time>
      </trkpt>
      <trkpt lat="63.29613" lon="18.87288">
        <ele>36.78741</ele>
        <time>2020-10-02T13:48:57.788Z</time>
      </trkpt>
      <trkpt lat="63.29624" lon="18.87265">
        <ele>36.252803</ele>
        <time>2020-10-02T13:48:59.816Z</time>
      </trkpt>
      <trkpt lat="63.29634" lon="18.87238">
        <ele>35.68652</ele>
        <time>2020-10-02T13:49:01.840Z</time>
      </trkpt>
      <trkpt lat="63.29645" lon="18.8721">
        <ele>35.099881</ele>
        <time>2020-10-02T13:49:03.797Z</time>
      </trkpt>
      <trkpt lat="63.29655" lon="18.87181">
        <ele>34.503602</ele>
        <time>2020-10-02T13:49:05.813Z</time>
      </trkpt>
      <trkpt lat="63.29664" lon="18.8715">
        <ele>33.884579</ele>
        <time>2020-10-02T13:49:07.799Z</time>
      </trkpt>
      <trkpt lat="63.29673" lon="18.8712">
        <ele>33.242467</ele>
        <time>2020-10-02T13:49:09.804Z</time>
      </trkpt>
      <trkpt lat="63.29681" lon="18.87089">
        <ele>32.60104</ele>
        <time>2020-10-02T13:49:11.780Z</time>
      </trkpt>
      <trkpt lat="63.29689" lon="18.87058">
        <ele>31.951415</ele>
        <time>2020-10-02T13:49:13.791Z</time>
      </trkpt>
      <trkpt lat="63.29697" lon="18.87026">
        <ele>31.296488</ele>
        <time>2020-10-02T13:49:15.805Z</time>
      </trkpt>
      <trkpt lat="63.29706" lon="18.86995">
        <ele>30.641235</ele>
        <time>2020-10-02T13:49:17.793Z</time>
      </trkpt>
      <trkpt lat="63.29717" lon="18.86966">
        <ele>29.966594</ele>
        <time>2020-10-02T13:49:19.813Z</time>
      </trkpt>
      <trkpt lat="63.29727" lon="18.8694">
        <ele>29.361457</ele>
        <time>2020-10-02T13:49:21.807Z</time>
      </trkpt>
      <trkpt lat="63.29736" lon="18.86918">
        <ele>28.821697</ele>
        <time>2020-10-02T13:49:23.790Z</time>
      </trkpt>
      <trkpt lat="63.29745" lon="18.86898">
        <ele>28.321679</ele>
        <time>2020-10-02T13:49:25.818Z</time>
      </trkpt>
      <trkpt lat="63.29754" lon="18.86878">
        <ele>27.813866</ele>
        <time>2020-10-02T13:49:27.857Z</time>
      </trkpt>
      <trkpt lat="63.29761" lon="18.86862">
        <ele>27.423332</ele>
        <time>2020-10-02T13:49:29.817Z</time>
      </trkpt>
      <trkpt lat="63.29768" lon="18.86842">
        <ele>26.906945</ele>
        <time>2020-10-02T13:49:32.793Z</time>
      </trkpt>
      <trkpt lat="63.29769" lon="18.86818">
        <ele>26.308827</ele>
        <time>2020-10-02T13:49:35.816Z</time>
      </trkpt>
      <trkpt lat="63.29764" lon="18.86799">
        <ele>25.777755</ele>
        <time>2020-10-02T13:49:37.813Z</time>
      </trkpt>
      <trkpt lat="63.29756" lon="18.8678">
        <ele>25.129222</ele>
        <time>2020-10-02T13:49:39.825Z</time>
      </trkpt>
      <trkpt lat="63.29747" lon="18.86761">
        <ele>24.421713</ele>
        <time>2020-10-02T13:49:41.790Z</time>
      </trkpt>
      <trkpt lat="63.29736" lon="18.86738">
        <ele>23.627105</ele>
        <time>2020-10-02T13:49:43.810Z</time>
      </trkpt>
      <trkpt lat="63.29726" lon="18.86712">
        <ele>22.760555</ele>
        <time>2020-10-02T13:49:45.803Z</time>
      </trkpt>
      <trkpt lat="63.29716" lon="18.86685">
        <ele>21.91519</ele>
        <time>2020-10-02T13:49:47.808Z</time>
      </trkpt>
      <trkpt lat="63.29706" lon="18.86659">
        <ele>21.051976</ele>
        <time>2020-10-02T13:49:49.787Z</time>
      </trkpt>
      <trkpt lat="63.29695" lon="18.86634">
        <ele>20.216251</ele>
        <time>2020-10-02T13:49:51.828Z</time>
      </trkpt>
      <trkpt lat="63.29685" lon="18.86609">
        <ele>19.400989</ele>
        <time>2020-10-02T13:49:53.799Z</time>
      </trkpt>
      <trkpt lat="63.29676" lon="18.86586">
        <ele>18.626027</ele>
        <time>2020-10-02T13:49:55.791Z</time>
      </trkpt>
      <trkpt lat="63.29666" lon="18.86563">
        <ele>17.852901</ele>
        <time>2020-10-02T13:49:57.793Z</time>
      </trkpt>
      <trkpt lat="63.29657" lon="18.8654">
        <ele>17.155579</ele>
        <time>2020-10-02T13:49:59.807Z</time>
      </trkpt>
      <trkpt lat="63.29648" lon="18.86518">
        <ele>16.786753</ele>
        <time>2020-10-02T13:50:01.801Z</time>
      </trkpt>
      <trkpt lat="63.29639" lon="18.86498">
        <ele>16.4454</ele>
        <time>2020-10-02T13:50:03.789Z</time>
      </trkpt>
      <trkpt lat="63.29632" lon="18.86478">
        <ele>16.124109</ele>
        <time>2020-10-02T13:50:05.808Z</time>
      </trkpt>
      <trkpt lat="63.29624" lon="18.86459">
        <ele>15.809262</ele>
        <time>2020-10-02T13:50:07.822Z</time>
      </trkpt>
      <trkpt lat="63.29617" lon="18.8644">
        <ele>15.498957</ele>
        <time>2020-10-02T13:50:09.799Z</time>
      </trkpt>
      <trkpt lat="63.29609" lon="18.8642">
        <ele>15.186596</ele>
        <time>2020-10-02T13:50:11.811Z</time>
      </trkpt>
      <trkpt lat="63.29602" lon="18.86401">
        <ele>14.872342</ele>
        <time>2020-10-02T13:50:13.797Z</time>
      </trkpt>
      <trkpt lat="63.29595" lon="18.86381">
        <ele>14.561973</ele>
        <time>2020-10-02T13:50:15.792Z</time>
      </trkpt>
      <trkpt lat="63.29587" lon="18.86362">
        <ele>14.245293</ele>
        <time>2020-10-02T13:50:17.813Z</time>
      </trkpt>
      <trkpt lat="63.29579" lon="18.86344">
        <ele>13.938638</ele>
        <time>2020-10-02T13:50:19.801Z</time>
      </trkpt>
      <trkpt lat="63.29572" lon="18.86326">
        <ele>13.642032</ele>
        <time>2020-10-02T13:50:21.822Z</time>
      </trkpt>
      <trkpt lat="63.29565" lon="18.86308">
        <ele>13.355066</ele>
        <time>2020-10-02T13:50:23.796Z</time>
      </trkpt>
      <trkpt lat="63.29559" lon="18.86289">
        <ele>13.061606</ele>
        <time>2020-10-02T13:50:25.792Z</time>
      </trkpt>
      <trkpt lat="63.29552" lon="18.8627">
        <ele>12.768146</ele>
        <time>2020-10-02T13:50:27.825Z</time>
      </trkpt>
      <trkpt lat="63.29545" lon="18.86252">
        <ele>12.476775</ele>
        <time>2020-10-02T13:50:29.797Z</time>
      </trkpt>
      <trkpt lat="63.29539" lon="18.86234">
        <ele>12.496625</ele>
        <time>2020-10-02T13:50:31.795Z</time>
      </trkpt>
      <trkpt lat="63.29532" lon="18.86216">
        <ele>13.052067</ele>
        <time>2020-10-02T13:50:33.816Z</time>
      </trkpt>
      <trkpt lat="63.29526" lon="18.862">
        <ele>13.572046</ele>
        <time>2020-10-02T13:50:35.796Z</time>
      </trkpt>
      <trkpt lat="63.29519" lon="18.86184">
        <ele>14.091428</ele>
        <time>2020-10-02T13:50:37.821Z</time>
      </trkpt>
      <trkpt lat="63.29513" lon="18.86168">
        <ele>14.623109</ele>
        <time>2020-10-02T13:50:39.809Z</time>
      </trkpt>
      <trkpt lat="63.29506" lon="18.86151">
        <ele>15.162029</ele>
        <time>2020-10-02T13:50:41.808Z</time>
      </trkpt>
      <trkpt lat="63.29497" lon="18.86129">
        <ele>15.872239</ele>
        <time>2020-10-02T13:50:44.792Z</time>
      </trkpt>
      <trkpt lat="63.29489" lon="18.8611">
        <ele>16.528773</ele>
        <time>2020-10-02T13:50:47.795Z</time>
      </trkpt>
      <trkpt lat="63.29481" lon="18.86093">
        <ele>17.115783</ele>
        <time>2020-10-02T13:50:50.804Z</time>
      </trkpt>
      <trkpt lat="63.29473" lon="18.8608">
        <ele>17.639867</ele>
        <time>2020-10-02T13:50:53.800Z</time>
      </trkpt>
      <trkpt lat="63.29465" lon="18.86069">
        <ele>18.175936</ele>
        <time>2020-10-02T13:50:56.802Z</time>
      </trkpt>
      <trkpt lat="63.29455" lon="18.86062">
        <ele>18.745714</ele>
        <time>2020-10-02T13:50:59.814Z</time>
      </trkpt>
      <trkpt lat="63.29445" lon="18.86056">
        <ele>19.277889</ele>
        <time>2020-10-02T13:51:02.793Z</time>
      </trkpt>
      <trkpt lat="63.29435" lon="18.86053">
        <ele>19.835129</ele>
        <time>2020-10-02T13:51:05.815Z</time>
      </trkpt>
      <trkpt lat="63.29424" lon="18.86049">
        <ele>20.399317</ele>
        <time>2020-10-02T13:51:08.836Z</time>
      </trkpt>
      <trkpt lat="63.29414" lon="18.86045">
        <ele>20.966457</ele>
        <time>2020-10-02T13:51:11.808Z</time>
      </trkpt>
      <trkpt lat="63.29403" lon="18.86042">
        <ele>21.559596</ele>
        <time>2020-10-02T13:51:14.785Z</time>
      </trkpt>
      <trkpt lat="63.29392" lon="18.86039">
        <ele>22.024405</ele>
        <time>2020-10-02T13:51:17.802Z</time>
      </trkpt>
      <trkpt lat="63.29381" lon="18.86034">
        <ele>22.146148</ele>
        <time>2020-10-02T13:51:20.813Z</time>
      </trkpt>
      <trkpt lat="63.2937" lon="18.86031">
        <ele>22.27298</ele>
        <time>2020-10-02T13:51:23.796Z</time>
      </trkpt>
      <trkpt lat="63.29358" lon="18.86027">
        <ele>22.396586</ele>
        <time>2020-10-02T13:51:26.796Z</time>
      </trkpt>
      <trkpt lat="63.29347" lon="18.86023">
        <ele>22.518789</ele>
        <time>2020-10-02T13:51:29.851Z</time>
      </trkpt>
      <trkpt lat="63.29336" lon="18.86019">
        <ele>22.641692</ele>
        <time>2020-10-02T13:51:32.790Z</time>
      </trkpt>
      <trkpt lat="63.29325" lon="18.86015">
        <ele>22.760444</ele>
        <time>2020-10-02T13:51:35.796Z</time>
      </trkpt>
      <trkpt lat="63.29314" lon="18.86012">
        <ele>22.885566</ele>
        <time>2020-10-02T13:51:38.795Z</time>
      </trkpt>
      <trkpt lat="63.29302" lon="18.86007">
        <ele>23.01345</ele>
        <time>2020-10-02T13:51:41.793Z</time>
      </trkpt>
      <trkpt lat="63.29291" lon="18.86003">
        <ele>23.138572</ele>
        <time>2020-10-02T13:51:44.815Z</time>
      </trkpt>
      <trkpt lat="63.2928" lon="18.85999">
        <ele>23.262009</ele>
        <time>2020-10-02T13:51:47.800Z</time>
      </trkpt>
      <trkpt lat="63.29269" lon="18.85993">
        <ele>23.387011</ele>
        <time>2020-10-02T13:51:50.800Z</time>
      </trkpt>
      <trkpt lat="63.29258" lon="18.85986">
        <ele>23.511268</ele>
        <time>2020-10-02T13:51:53.803Z</time>
      </trkpt>
      <trkpt lat="63.29247" lon="18.85976">
        <ele>23.633713</ele>
        <time>2020-10-02T13:51:56.793Z</time>
      </trkpt>
      <trkpt lat="63.29237" lon="18.85965">
        <ele>23.759627</ele>
        <time>2020-10-02T13:51:59.800Z</time>
      </trkpt>
      <trkpt lat="63.29227" lon="18.8595">
        <ele>23.889796</ele>
        <time>2020-10-02T13:52:02.789Z</time>
      </trkpt>
      <trkpt lat="63.29217" lon="18.85934">
        <ele>23.885915</ele>
        <time>2020-10-02T13:52:05.785Z</time>
      </trkpt>
      <trkpt lat="63.29209" lon="18.85914">
        <ele>23.780794</ele>
        <time>2020-10-02T13:52:08.808Z</time>
      </trkpt>
      <trkpt lat="63.29201" lon="18.85894">
        <ele>23.676903</ele>
        <time>2020-10-02T13:52:11.824Z</time>
      </trkpt>
      <trkpt lat="63.29193" lon="18.85871">
        <ele>23.567518</ele>
        <time>2020-10-02T13:52:14.803Z</time>
      </trkpt>
      <trkpt lat="63.29188" lon="18.85855">
        <ele>23.490546</ele>
        <time>2020-10-02T13:52:16.788Z</time>
      </trkpt>
      <trkpt lat="63.29183" lon="18.85837">
        <ele>23.411578</ele>
        <time>2020-10-02T13:52:18.789Z</time>
      </trkpt>
      <trkpt lat="63.29179" lon="18.85818">
        <ele>23.327136</ele>
        <time>2020-10-02T13:52:20.795Z</time>
      </trkpt>
      <trkpt lat="63.29175" lon="18.85798">
        <ele>23.244162</ele>
        <time>2020-10-02T13:52:22.820Z</time>
      </trkpt>
      <trkpt lat="63.29172" lon="18.85778">
        <ele>23.159937</ele>
        <time>2020-10-02T13:52:24.809Z</time>
      </trkpt>
      <trkpt lat="63.29169" lon="18.85756">
        <ele>23.074038</ele>
        <time>2020-10-02T13:52:26.799Z</time>
      </trkpt>
      <trkpt lat="63.29167" lon="18.85734">
        <ele>22.985866</ele>
        <time>2020-10-02T13:52:28.797Z</time>
      </trkpt>
      <trkpt lat="63.29166" lon="18.85711">
        <ele>22.89865</ele>
        <time>2020-10-02T13:52:30.793Z</time>
      </trkpt>
      <trkpt lat="63.29165" lon="18.85689">
        <ele>22.809258</ele>
        <time>2020-10-02T13:52:32.816Z</time>
      </trkpt>
      <trkpt lat="63.29163" lon="18.85666">
        <ele>22.720632</ele>
        <time>2020-10-02T13:52:34.820Z</time>
      </trkpt>
      <trkpt lat="63.29162" lon="18.85644">
        <ele>22.633922</ele>
        <time>2020-10-02T13:52:36.795Z</time>
      </trkpt>
      <trkpt lat="63.2916" lon="18.85621">
        <ele>22.545297</ele>
        <time>2020-10-02T13:52:38.840Z</time>
      </trkpt>
      <trkpt lat="63.29159" lon="18.85598">
        <ele>22.457458</ele>
        <time>2020-10-02T13:52:40.806Z</time>
      </trkpt>
      <trkpt lat="63.29158" lon="18.85576">
        <ele>22.374117</ele>
        <time>2020-10-02T13:52:42.806Z</time>
      </trkpt>
      <trkpt lat="63.29157" lon="18.85553">
        <ele>22.300102</ele>
        <time>2020-10-02T13:52:44.801Z</time>
      </trkpt>
      <trkpt lat="63.29156" lon="18.85529">
        <ele>22.224409</ele>
        <time>2020-10-02T13:52:46.798Z</time>
      </trkpt>
      <trkpt lat="63.29154" lon="18.85506">
        <ele>22.148527</ele>
        <time>2020-10-02T13:52:48.803Z</time>
      </trkpt>
      <trkpt lat="63.29153" lon="18.85482">
        <ele>22.071056</ele>
        <time>2020-10-02T13:52:50.824Z</time>
      </trkpt>
      <trkpt lat="63.29151" lon="18.85458">
        <ele>21.991873</ele>
        <time>2020-10-02T13:52:52.784Z</time>
      </trkpt>
      <trkpt lat="63.29149" lon="18.85433">
        <ele>21.909842</ele>
        <time>2020-10-02T13:52:54.849Z</time>
      </trkpt>
      <trkpt lat="63.29147" lon="18.85407">
        <ele>21.825912</ele>
        <time>2020-10-02T13:52:56.800Z</time>
      </trkpt>
      <trkpt lat="63.29147" lon="18.85378">
        <ele>21.735153</ele>
        <time>2020-10-02T13:52:58.791Z</time>
      </trkpt>
      <trkpt lat="63.29146" lon="18.85349">
        <ele>21.642042</ele>
        <time>2020-10-02T13:53:00.803Z</time>
      </trkpt>
      <trkpt lat="63.29147" lon="18.85319">
        <ele>21.543153</ele>
        <time>2020-10-02T13:53:02.811Z</time>
      </trkpt>
      <trkpt lat="63.29148" lon="18.85287">
        <ele>21.441665</ele>
        <time>2020-10-02T13:53:04.814Z</time>
      </trkpt>
      <trkpt lat="63.2915" lon="18.85256">
        <ele>21.33975</ele>
        <time>2020-10-02T13:53:06.788Z</time>
      </trkpt>
      <trkpt lat="63.29153" lon="18.85226">
        <ele>21.240765</ele>
        <time>2020-10-02T13:53:08.797Z</time>
      </trkpt>
      <trkpt lat="63.29157" lon="18.85197">
        <ele>21.143587</ele>
        <time>2020-10-02T13:53:10.835Z</time>
      </trkpt>
      <trkpt lat="63.2916" lon="18.85169">
        <ele>21.091714</ele>
        <time>2020-10-02T13:53:12.798Z</time>
      </trkpt>
      <trkpt lat="63.29164" lon="18.85143">
        <ele>21.060925</ele>
        <time>2020-10-02T13:53:14.813Z</time>
      </trkpt>
      <trkpt lat="63.29167" lon="18.85118">
        <ele>21.031649</ele>
        <time>2020-10-02T13:53:16.827Z</time>
      </trkpt>
      <trkpt lat="63.29171" lon="18.85094">
        <ele>21.002938</ele>
        <time>2020-10-02T13:53:18.801Z</time>
      </trkpt>
      <trkpt lat="63.29174" lon="18.8507">
        <ele>20.973707</ele>
        <time>2020-10-02T13:53:20.795Z</time>
      </trkpt>
      <trkpt lat="63.29177" lon="18.85045">
        <ele>20.945191</ele>
        <time>2020-10-02T13:53:22.801Z</time>
      </trkpt>
      <trkpt lat="63.29179" lon="18.85021">
        <ele>20.917363</ele>
        <time>2020-10-02T13:53:24.801Z</time>
      </trkpt>
      <trkpt lat="63.29181" lon="18.84997">
        <ele>20.889753</ele>
        <time>2020-10-02T13:53:26.796Z</time>
      </trkpt>
      <trkpt lat="63.29181" lon="18.84973">
        <ele>20.862481</ele>
        <time>2020-10-02T13:53:28.817Z</time>
      </trkpt>
      <trkpt lat="63.29179" lon="18.84948">
        <ele>20.83434</ele>
        <time>2020-10-02T13:53:30.823Z</time>
      </trkpt>
      <trkpt lat="63.29177" lon="18.84924">
        <ele>20.806719</ele>
        <time>2020-10-02T13:53:32.796Z</time>
      </trkpt>
      <trkpt lat="63.29175" lon="18.84901">
        <ele>20.779099</ele>
        <time>2020-10-02T13:53:34.829Z</time>
      </trkpt>
      <trkpt lat="63.29171" lon="18.84879">
        <ele>20.752712</ele>
        <time>2020-10-02T13:53:36.802Z</time>
      </trkpt>
      <trkpt lat="63.29167" lon="18.84857">
        <ele>20.726083</ele>
        <time>2020-10-02T13:53:38.812Z</time>
      </trkpt>
      <trkpt lat="63.2916" lon="18.84836">
        <ele>20.697557</ele>
        <time>2020-10-02T13:53:40.789Z</time>
      </trkpt>
      <trkpt lat="63.29155" lon="18.84817">
        <ele>20.672094</ele>
        <time>2020-10-02T13:53:42.785Z</time>
      </trkpt>
      <trkpt lat="63.2915" lon="18.84798">
        <ele>20.867268</ele>
        <time>2020-10-02T13:53:44.796Z</time>
      </trkpt>
      <trkpt lat="63.29145" lon="18.8478">
        <ele>21.25294</ele>
        <time>2020-10-02T13:53:46.854Z</time>
      </trkpt>
      <trkpt lat="63.29138" lon="18.84763">
        <ele>21.659492</ele>
        <time>2020-10-02T13:53:48.849Z</time>
      </trkpt>
      <trkpt lat="63.29131" lon="18.84745">
        <ele>22.078845</ele>
        <time>2020-10-02T13:53:50.798Z</time>
      </trkpt>
      <trkpt lat="63.29123" lon="18.84729">
        <ele>22.502331</ele>
        <time>2020-10-02T13:53:52.803Z</time>
      </trkpt>
      <trkpt lat="63.29116" lon="18.84713">
        <ele>22.907941</ele>
        <time>2020-10-02T13:53:54.794Z</time>
      </trkpt>
      <trkpt lat="63.29108" lon="18.84699">
        <ele>23.307631</ele>
        <time>2020-10-02T13:53:56.835Z</time>
      </trkpt>
      <trkpt lat="63.291" lon="18.84687">
        <ele>23.681724</ele>
        <time>2020-10-02T13:53:58.829Z</time>
      </trkpt>
      <trkpt lat="63.29092" lon="18.84677">
        <ele>24.041419</ele>
        <time>2020-10-02T13:54:00.821Z</time>
      </trkpt>
      <trkpt lat="63.2908" lon="18.84666">
        <ele>24.558029</ele>
        <time>2020-10-02T13:54:03.818Z</time>
      </trkpt>
      <trkpt lat="63.29069" lon="18.84658">
        <ele>25.004181</ele>
        <time>2020-10-02T13:54:06.813Z</time>
      </trkpt>
      <trkpt lat="63.29058" lon="18.84655">
        <ele>25.444991</ele>
        <time>2020-10-02T13:54:09.786Z</time>
      </trkpt>
      <trkpt lat="63.29048" lon="18.84652">
        <ele>25.842665</ele>
        <time>2020-10-02T13:54:12.823Z</time>
      </trkpt>
      <trkpt lat="63.29037" lon="18.84654">
        <ele>26.299023</ele>
        <time>2020-10-02T13:54:16.828Z</time>
      </trkpt>
      <trkpt lat="63.29026" lon="18.84657">
        <ele>26.72444</ele>
        <time>2020-10-02T13:54:20.797Z</time>
      </trkpt>
      <trkpt lat="63.29016" lon="18.84658">
        <ele>27.125421</ele>
        <time>2020-10-02T13:54:24.806Z</time>
      </trkpt>
      <trkpt lat="63.29006" lon="18.84661">
        <ele>27.527396</ele>
        <time>2020-10-02T13:54:28.792Z</time>
      </trkpt>
      <trkpt lat="63.28995" lon="18.84662">
        <ele>28.001884</ele>
        <time>2020-10-02T13:54:33.837Z</time>
      </trkpt>
      <trkpt lat="63.28985" lon="18.84663">
        <ele>28.457791</ele>
        <time>2020-10-02T13:54:37.792Z</time>
      </trkpt>
      <trkpt lat="63.28975" lon="18.84666">
        <ele>28.958771</ele>
        <time>2020-10-02T13:54:42.798Z</time>
      </trkpt>
      <trkpt lat="63.28964" lon="18.84667">
        <ele>29.471994</ele>
        <time>2020-10-02T13:54:47.809Z</time>
      </trkpt>
      <trkpt lat="63.28953" lon="18.84668">
        <ele>29.999002</ele>
        <time>2020-10-02T13:54:52.813Z</time>
      </trkpt>
      <trkpt lat="63.28944" lon="18.84668">
        <ele>30.434639</ele>
        <time>2020-10-02T13:54:56.825Z</time>
      </trkpt>
      <trkpt lat="63.28934" lon="18.84668">
        <ele>30.937277</ele>
        <time>2020-10-02T13:55:01.808Z</time>
      </trkpt>
      <trkpt lat="63.28923" lon="18.84669">
        <ele>31.430412</ele>
        <time>2020-10-02T13:55:06.839Z</time>
      </trkpt>
      <trkpt lat="63.28913" lon="18.84669">
        <ele>31.923472</ele>
        <time>2020-10-02T13:55:11.809Z</time>
      </trkpt>
      <trkpt lat="63.28903" lon="18.84669">
        <ele>32.397388</ele>
        <time>2020-10-02T13:55:16.806Z</time>
      </trkpt>
      <trkpt lat="63.28892" lon="18.84672">
        <ele>32.927641</ele>
        <time>2020-10-02T13:55:21.801Z</time>
      </trkpt>
      <trkpt lat="63.28881" lon="18.84672">
        <ele>33.459001</ele>
        <time>2020-10-02T13:55:26.791Z</time>
      </trkpt>
      <trkpt lat="63.28871" lon="18.84671">
        <ele>33.952853</ele>
        <time>2020-10-02T13:55:30.801Z</time>
      </trkpt>
      <trkpt lat="63.28861" lon="18.8467">
        <ele>34.412908</ele>
        <time>2020-10-02T13:55:34.806Z</time>
      </trkpt>
      <trkpt lat="63.28851" lon="18.84667">
        <ele>34.927712</ele>
        <time>2020-10-02T13:55:38.800Z</time>
      </trkpt>
      <trkpt lat="63.28839" lon="18.84664">
        <ele>35.473006</ele>
        <time>2020-10-02T13:55:42.795Z</time>
      </trkpt>
      <trkpt lat="63.28829" lon="18.84654">
        <ele>36.016221</ele>
        <time>2020-10-02T13:55:46.813Z</time>
      </trkpt>
      <trkpt lat="63.2882" lon="18.8464">
        <ele>36.279289</ele>
        <time>2020-10-02T13:55:50.819Z</time>
      </trkpt>
      <trkpt lat="63.28811" lon="18.84621">
        <ele>35.924113</ele>
        <time>2020-10-02T13:55:54.834Z</time>
      </trkpt>
      <trkpt lat="63.28805" lon="18.84599">
        <ele>35.552818</ele>
        <time>2020-10-02T13:55:58.794Z</time>
      </trkpt>
      <trkpt lat="63.288" lon="18.84578">
        <ele>35.219099</ele>
        <time>2020-10-02T13:56:01.818Z</time>
      </trkpt>
      <trkpt lat="63.28795" lon="18.84552">
        <ele>34.827113</ele>
        <time>2020-10-02T13:56:04.796Z</time>
      </trkpt>
      <trkpt lat="63.28791" lon="18.84532">
        <ele>34.53405</ele>
        <time>2020-10-02T13:56:06.807Z</time>
      </trkpt>
      <trkpt lat="63.28788" lon="18.84511">
        <ele>34.215787</ele>
        <time>2020-10-02T13:56:08.809Z</time>
      </trkpt>
      <trkpt lat="63.28785" lon="18.84486">
        <ele>33.862776</ele>
        <time>2020-10-02T13:56:10.800Z</time>
      </trkpt>
      <trkpt lat="63.28781" lon="18.8446">
        <ele>33.483522</ele>
        <time>2020-10-02T13:56:12.796Z</time>
      </trkpt>
      <trkpt lat="63.28778" lon="18.84434">
        <ele>33.104842</ele>
        <time>2020-10-02T13:56:14.841Z</time>
      </trkpt>
      <trkpt lat="63.28775" lon="18.84407">
        <ele>32.725616</ele>
        <time>2020-10-02T13:56:16.813Z</time>
      </trkpt>
      <trkpt lat="63.28772" lon="18.84382">
        <ele>32.355782</ele>
        <time>2020-10-02T13:56:18.789Z</time>
      </trkpt>
      <trkpt lat="63.2877" lon="18.84357">
        <ele>32.000913</ele>
        <time>2020-10-02T13:56:20.825Z</time>
      </trkpt>
      <trkpt lat="63.28768" lon="18.84333">
        <ele>31.658998</ele>
        <time>2020-10-02T13:56:22.799Z</time>
      </trkpt>
      <trkpt lat="63.28765" lon="18.8431">
        <ele>31.335334</ele>
        <time>2020-10-02T13:56:24.843Z</time>
      </trkpt>
      <trkpt lat="63.28763" lon="18.84288">
        <ele>31.024562</ele>
        <time>2020-10-02T13:56:26.800Z</time>
      </trkpt>
      <trkpt lat="63.28761" lon="18.84268">
        <ele>30.732916</ele>
        <time>2020-10-02T13:56:28.840Z</time>
      </trkpt>
      <trkpt lat="63.28759" lon="18.8424">
        <ele>30.344082</ele>
        <time>2020-10-02T13:56:31.798Z</time>
      </trkpt>
      <trkpt lat="63.28757" lon="18.84213">
        <ele>29.966636</ele>
        <time>2020-10-02T13:56:34.825Z</time>
      </trkpt>
      <trkpt lat="63.28755" lon="18.84184">
        <ele>29.560885</ele>
        <time>2020-10-02T13:56:37.811Z</time>
      </trkpt>
      <trkpt lat="63.28755" lon="18.84163">
        <ele>29.270817</ele>
        <time>2020-10-02T13:56:39.846Z</time>
      </trkpt>
      <trkpt lat="63.28755" lon="18.84141">
        <ele>28.969728</ele>
        <time>2020-10-02T13:56:41.808Z</time>
      </trkpt>
      <trkpt lat="63.28757" lon="18.84118">
        <ele>28.650424</ele>
        <time>2020-10-02T13:56:43.823Z</time>
      </trkpt>
      <trkpt lat="63.28759" lon="18.84094">
        <ele>28.314638</ele>
        <time>2020-10-02T13:56:45.815Z</time>
      </trkpt>
      <trkpt lat="63.28763" lon="18.84069">
        <ele>27.950403</ele>
        <time>2020-10-02T13:56:47.809Z</time>
      </trkpt>
      <trkpt lat="63.28767" lon="18.84043">
        <ele>27.571351</ele>
        <time>2020-10-02T13:56:49.804Z</time>
      </trkpt>
      <trkpt lat="63.28771" lon="18.84016">
        <ele>27.175639</ele>
        <time>2020-10-02T13:56:51.826Z</time>
      </trkpt>
      <trkpt lat="63.28775" lon="18.83987">
        <ele>26.760755</ele>
        <time>2020-10-02T13:56:53.856Z</time>
      </trkpt>
      <trkpt lat="63.28779" lon="18.83958">
        <ele>26.33748</ele>
        <time>2020-10-02T13:56:55.818Z</time>
      </trkpt>
      <trkpt lat="63.28783" lon="18.83927">
        <ele>25.896576</ele>
        <time>2020-10-02T13:56:57.840Z</time>
      </trkpt>
      <trkpt lat="63.28788" lon="18.83896">
        <ele>25.447597</ele>
        <time>2020-10-02T13:56:59.807Z</time>
      </trkpt>
      <trkpt lat="63.28793" lon="18.83864">
        <ele>25.171084</ele>
        <time>2020-10-02T13:57:01.799Z</time>
      </trkpt>
      <trkpt lat="63.28798" lon="18.8383">
        <ele>24.972252</ele>
        <time>2020-10-02T13:57:03.797Z</time>
      </trkpt>
      <trkpt lat="63.28803" lon="18.83796">
        <ele>24.768158</ele>
        <time>2020-10-02T13:57:05.804Z</time>
      </trkpt>
      <trkpt lat="63.28808" lon="18.83761">
        <ele>24.562323</ele>
        <time>2020-10-02T13:57:07.814Z</time>
      </trkpt>
      <trkpt lat="63.28814" lon="18.83726">
        <ele>24.358362</ele>
        <time>2020-10-02T13:57:09.808Z</time>
      </trkpt>
      <trkpt lat="63.28819" lon="18.83692">
        <ele>24.153738</ele>
        <time>2020-10-02T13:57:11.801Z</time>
      </trkpt>
      <trkpt lat="63.28824" lon="18.83658">
        <ele>23.954531</ele>
        <time>2020-10-02T13:57:13.799Z</time>
      </trkpt>
      <trkpt lat="63.28828" lon="18.83625">
        <ele>23.761078</ele>
        <time>2020-10-02T13:57:15.812Z</time>
      </trkpt>
      <trkpt lat="63.28833" lon="18.83593">
        <ele>23.573665</ele>
        <time>2020-10-02T13:57:17.800Z</time>
      </trkpt>
      <trkpt lat="63.28837" lon="18.83562">
        <ele>23.391641</ele>
        <time>2020-10-02T13:57:19.805Z</time>
      </trkpt>
      <trkpt lat="63.28842" lon="18.83532">
        <ele>23.214187</ele>
        <time>2020-10-02T13:57:21.799Z</time>
      </trkpt>
      <trkpt lat="63.28845" lon="18.83503">
        <ele>23.066712</ele>
        <time>2020-10-02T13:57:23.844Z</time>
      </trkpt>
      <trkpt lat="63.28849" lon="18.83475">
        <ele>23.069595</ele>
        <time>2020-10-02T13:57:25.796Z</time>
      </trkpt>
      <trkpt lat="63.28852" lon="18.83448">
        <ele>23.072385</ele>
        <time>2020-10-02T13:57:27.844Z</time>
      </trkpt>
      <trkpt lat="63.28856" lon="18.83421">
        <ele>23.075195</ele>
        <time>2020-10-02T13:57:29.810Z</time>
      </trkpt>
      <trkpt lat="63.2886" lon="18.83393">
        <ele>23.07802</ele>
        <time>2020-10-02T13:57:31.831Z</time>
      </trkpt>
      <trkpt lat="63.28863" lon="18.83367">
        <ele>23.08075</ele>
        <time>2020-10-02T13:57:33.825Z</time>
      </trkpt>
      <trkpt lat="63.28866" lon="18.8334">
        <ele>23.083511</ele>
        <time>2020-10-02T13:57:35.794Z</time>
      </trkpt>
      <trkpt lat="63.28869" lon="18.83313">
        <ele>23.086327</ele>
        <time>2020-10-02T13:57:37.820Z</time>
      </trkpt>
      <trkpt lat="63.28873" lon="18.83285">
        <ele>23.089187</ele>
        <time>2020-10-02T13:57:39.816Z</time>
      </trkpt>
      <trkpt lat="63.28877" lon="18.83257">
        <ele>23.092117</ele>
        <time>2020-10-02T13:57:41.793Z</time>
      </trkpt>
      <trkpt lat="63.28881" lon="18.83228">
        <ele>23.095116</ele>
        <time>2020-10-02T13:57:43.838Z</time>
      </trkpt>
      <trkpt lat="63.28886" lon="18.83199">
        <ele>23.098176</ele>
        <time>2020-10-02T13:57:45.799Z</time>
      </trkpt>
      <trkpt lat="63.28891" lon="18.83169">
        <ele>23.101379</ele>
        <time>2020-10-02T13:57:47.822Z</time>
      </trkpt>
      <trkpt lat="63.28896" lon="18.8314">
        <ele>23.104474</ele>
        <time>2020-10-02T13:57:49.806Z</time>
      </trkpt>
      <trkpt lat="63.289" lon="18.83111">
        <ele>23.09495</ele>
        <time>2020-10-02T13:57:51.817Z</time>
      </trkpt>
      <trkpt lat="63.28904" lon="18.83083">
        <ele>23.071311</ele>
        <time>2020-10-02T13:57:53.838Z</time>
      </trkpt>
      <trkpt lat="63.28908" lon="18.83057">
        <ele>23.048959</ele>
        <time>2020-10-02T13:57:55.816Z</time>
      </trkpt>
      <trkpt lat="63.28912" lon="18.83032">
        <ele>23.027242</ele>
        <time>2020-10-02T13:57:57.813Z</time>
      </trkpt>
      <trkpt lat="63.28915" lon="18.83007">
        <ele>23.006332</ele>
        <time>2020-10-02T13:57:59.826Z</time>
      </trkpt>
      <trkpt lat="63.28919" lon="18.82982">
        <ele>22.985144</ele>
        <time>2020-10-02T13:58:01.835Z</time>
      </trkpt>
      <trkpt lat="63.28922" lon="18.82958">
        <ele>22.964575</ele>
        <time>2020-10-02T13:58:03.814Z</time>
      </trkpt>
      <trkpt lat="63.28925" lon="18.82934">
        <ele>22.944162</ele>
        <time>2020-10-02T13:58:05.794Z</time>
      </trkpt>
      <trkpt lat="63.28928" lon="18.8291">
        <ele>22.923798</ele>
        <time>2020-10-02T13:58:07.814Z</time>
      </trkpt>
      <trkpt lat="63.28931" lon="18.82885">
        <ele>22.90318</ele>
        <time>2020-10-02T13:58:09.806Z</time>
      </trkpt>
      <trkpt lat="63.28933" lon="18.8286">
        <ele>22.8825</ele>
        <time>2020-10-02T13:58:11.825Z</time>
      </trkpt>
      <trkpt lat="63.28934" lon="18.82834">
        <ele>22.861452</ele>
        <time>2020-10-02T13:58:13.821Z</time>
      </trkpt>
      <trkpt lat="63.28933" lon="18.82809">
        <ele>22.841077</ele>
        <time>2020-10-02T13:58:15.829Z</time>
      </trkpt>
      <trkpt lat="63.28931" lon="18.82785">
        <ele>22.821149</ele>
        <time>2020-10-02T13:58:17.814Z</time>
      </trkpt>
      <trkpt lat="63.28929" lon="18.82761">
        <ele>22.801201</ele>
        <time>2020-10-02T13:58:19.793Z</time>
      </trkpt>
      <trkpt lat="63.28927" lon="18.82736">
        <ele>22.786595</ele>
        <time>2020-10-02T13:58:21.873Z</time>
      </trkpt>
      <trkpt lat="63.28926" lon="18.82709">
        <ele>22.984877</ele>
        <time>2020-10-02T13:58:23.796Z</time>
      </trkpt>
      <trkpt lat="63.28926" lon="18.8268">
        <ele>23.188454</ele>
        <time>2020-10-02T13:58:25.802Z</time>
      </trkpt>
      <trkpt lat="63.28928" lon="18.82652">
        <ele>23.389864</ele>
        <time>2020-10-02T13:58:27.808Z</time>
      </trkpt>
      <trkpt lat="63.28932" lon="18.82627">
        <ele>23.573532</ele>
        <time>2020-10-02T13:58:29.806Z</time>
      </trkpt>
      <trkpt lat="63.28935" lon="18.82604">
        <ele>23.746792</ele>
        <time>2020-10-02T13:58:31.800Z</time>
      </trkpt>
      <trkpt lat="63.28938" lon="18.82583">
        <ele>23.907713</ele>
        <time>2020-10-02T13:58:33.850Z</time>
      </trkpt>
      <trkpt lat="63.28941" lon="18.82563">
        <ele>24.05695</ele>
        <time>2020-10-02T13:58:35.808Z</time>
      </trkpt>
      <trkpt lat="63.28944" lon="18.82544">
        <ele>24.199813</ele>
        <time>2020-10-02T13:58:37.838Z</time>
      </trkpt>
      <trkpt lat="63.28947" lon="18.82517">
        <ele>24.398709</ele>
        <time>2020-10-02T13:58:40.843Z</time>
      </trkpt>
      <trkpt lat="63.28951" lon="18.8249">
        <ele>24.598089</ele>
        <time>2020-10-02T13:58:43.835Z</time>
      </trkpt>
      <trkpt lat="63.28954" lon="18.82465">
        <ele>24.786055</ele>
        <time>2020-10-02T13:58:46.814Z</time>
      </trkpt>
      <trkpt lat="63.28956" lon="18.82441">
        <ele>24.961486</ele>
        <time>2020-10-02T13:58:49.796Z</time>
      </trkpt>
      <trkpt lat="63.28959" lon="18.82416">
        <ele>25.145152</ele>
        <time>2020-10-02T13:58:52.833Z</time>
      </trkpt>
      <trkpt lat="63.28963" lon="18.82392">
        <ele>25.322183</ele>
        <time>2020-10-02T13:58:55.804Z</time>
      </trkpt>
      <trkpt lat="63.28966" lon="18.82369">
        <ele>25.498532</ele>
        <time>2020-10-02T13:58:58.807Z</time>
      </trkpt>
      <trkpt lat="63.28969" lon="18.82346">
        <ele>25.678885</ele>
        <time>2020-10-02T13:59:01.797Z</time>
      </trkpt>
      <trkpt lat="63.28972" lon="18.82322">
        <ele>25.898448</ele>
        <time>2020-10-02T13:59:04.825Z</time>
      </trkpt>
      <trkpt lat="63.28976" lon="18.82299">
        <ele>26.114626</ele>
        <time>2020-10-02T13:59:07.866Z</time>
      </trkpt>
      <trkpt lat="63.28979" lon="18.82276">
        <ele>26.327933</ele>
        <time>2020-10-02T13:59:10.842Z</time>
      </trkpt>
      <trkpt lat="63.28982" lon="18.82252">
        <ele>26.551996</ele>
        <time>2020-10-02T13:59:13.831Z</time>
      </trkpt>
      <trkpt lat="63.28985" lon="18.82229">
        <ele>26.767016</ele>
        <time>2020-10-02T13:59:16.834Z</time>
      </trkpt>
      <trkpt lat="63.28988" lon="18.82205">
        <ele>26.988527</ele>
        <time>2020-10-02T13:59:19.817Z</time>
      </trkpt>
      <trkpt lat="63.28992" lon="18.8218">
        <ele>27.224226</ele>
        <time>2020-10-02T13:59:22.808Z</time>
      </trkpt>
      <trkpt lat="63.28996" lon="18.82157">
        <ele>27.438101</ele>
        <time>2020-10-02T13:59:25.809Z</time>
      </trkpt>
      <trkpt lat="63.28998" lon="18.82134">
        <ele>27.646822</ele>
        <time>2020-10-02T13:59:28.817Z</time>
      </trkpt>
      <trkpt lat="63.29001" lon="18.82111">
        <ele>27.866655</ele>
        <time>2020-10-02T13:59:31.828Z</time>
      </trkpt>
      <trkpt lat="63.29004" lon="18.82087">
        <ele>28.085887</ele>
        <time>2020-10-02T13:59:34.802Z</time>
      </trkpt>
      <trkpt lat="63.29008" lon="18.82063">
        <ele>28.307117</ele>
        <time>2020-10-02T13:59:37.816Z</time>
      </trkpt>
      <trkpt lat="63.2901" lon="18.82038">
        <ele>28.531866</ele>
        <time>2020-10-02T13:59:40.802Z</time>
      </trkpt>
      <trkpt lat="63.29013" lon="18.82015">
        <ele>28.752801</ele>
        <time>2020-10-02T13:59:43.852Z</time>
      </trkpt>
      <trkpt lat="63.29016" lon="18.81991">
        <ele>28.965392</ele>
        <time>2020-10-02T13:59:46.816Z</time>
      </trkpt>
      <trkpt lat="63.29017" lon="18.81966">
        <ele>29.189181</ele>
        <time>2020-10-02T13:59:49.829Z</time>
      </trkpt>
      <trkpt lat="63.29017" lon="18.81939">
        <ele>29.027046</ele>
        <time>2020-10-02T13:59:52.803Z</time>
      </trkpt>
      <trkpt lat="63.29016" lon="18.81911">
        <ele>28.847254</ele>
        <time>2020-10-02T13:59:55.838Z</time>
      </trkpt>
      <trkpt lat="63.29014" lon="18.81884">
        <ele>28.671056</ele>
        <time>2020-10-02T13:59:58.842Z</time>
      </trkpt>
      <trkpt lat="63.29011" lon="18.81865">
        <ele>28.53863</ele>
        <time>2020-10-02T14:00:00.805Z</time>
      </trkpt>
      <trkpt lat="63.29008" lon="18.81845">
        <ele>28.401548</ele>
        <time>2020-10-02T14:00:02.821Z</time>
      </trkpt>
      <trkpt lat="63.29004" lon="18.81827">
        <ele>28.268012</ele>
        <time>2020-10-02T14:00:04.837Z</time>
      </trkpt>
      <trkpt lat="63.28998" lon="18.81808">
        <ele>28.12546</ele>
        <time>2020-10-02T14:00:06.801Z</time>
      </trkpt>
      <trkpt lat="63.28991" lon="18.81792">
        <ele>27.978895</ele>
        <time>2020-10-02T14:00:08.814Z</time>
      </trkpt>
      <trkpt lat="63.28983" lon="18.81776">
        <ele>27.823375</ele>
        <time>2020-10-02T14:00:10.861Z</time>
      </trkpt>
      <trkpt lat="63.28972" lon="18.81763">
        <ele>27.653679</ele>
        <time>2020-10-02T14:00:12.832Z</time>
      </trkpt>
      <trkpt lat="63.2896" lon="18.81752">
        <ele>27.468477</ele>
        <time>2020-10-02T14:00:14.801Z</time>
      </trkpt>
      <trkpt lat="63.28948" lon="18.81746">
        <ele>27.280101</ele>
        <time>2020-10-02T14:00:16.823Z</time>
      </trkpt>
      <trkpt lat="63.28934" lon="18.81742">
        <ele>27.089951</ele>
        <time>2020-10-02T14:00:18.815Z</time>
      </trkpt>
      <trkpt lat="63.28921" lon="18.81741">
        <ele>26.893346</ele>
        <time>2020-10-02T14:00:20.818Z</time>
      </trkpt>
      <trkpt lat="63.28907" lon="18.81739">
        <ele>26.695474</ele>
        <time>2020-10-02T14:00:22.801Z</time>
      </trkpt>
      <trkpt lat="63.28893" lon="18.81739">
        <ele>26.474276</ele>
        <time>2020-10-02T14:00:24.852Z</time>
      </trkpt>
      <trkpt lat="63.2888" lon="18.81737">
        <ele>26.253153</ele>
        <time>2020-10-02T14:00:26.813Z</time>
      </trkpt>
      <trkpt lat="63.28867" lon="18.81737">
        <ele>26.02054</ele>
        <time>2020-10-02T14:00:28.809Z</time>
      </trkpt>
      <trkpt lat="63.28852" lon="18.81738">
        <ele>25.770729</ele>
        <time>2020-10-02T14:00:30.809Z</time>
      </trkpt>
      <trkpt lat="63.28838" lon="18.81738">
        <ele>25.526133</ele>
        <time>2020-10-02T14:00:32.828Z</time>
      </trkpt>
      <trkpt lat="63.28823" lon="18.81738">
        <ele>25.27294</ele>
        <time>2020-10-02T14:00:34.845Z</time>
      </trkpt>
      <trkpt lat="63.28808" lon="18.81737">
        <ele>25.023223</ele>
        <time>2020-10-02T14:00:36.804Z</time>
      </trkpt>
      <trkpt lat="63.28794" lon="18.81737">
        <ele>24.770044</ele>
        <time>2020-10-02T14:00:38.841Z</time>
      </trkpt>
      <trkpt lat="63.28779" lon="18.81736">
        <ele>24.525256</ele>
        <time>2020-10-02T14:00:40.810Z</time>
      </trkpt>
      <trkpt lat="63.28766" lon="18.81734">
        <ele>24.292319</ele>
        <time>2020-10-02T14:00:42.801Z</time>
      </trkpt>
      <trkpt lat="63.28754" lon="18.81733">
        <ele>24.085083</ele>
        <time>2020-10-02T14:00:44.815Z</time>
      </trkpt>
      <trkpt lat="63.28742" lon="18.8173">
        <ele>23.894409</ele>
        <time>2020-10-02T14:00:46.798Z</time>
      </trkpt>
      <trkpt lat="63.28731" lon="18.81728">
        <ele>23.701884</ele>
        <time>2020-10-02T14:00:48.802Z</time>
      </trkpt>
      <trkpt lat="63.28721" lon="18.81724">
        <ele>23.566904</ele>
        <time>2020-10-02T14:00:50.861Z</time>
      </trkpt>
      <trkpt lat="63.28711" lon="18.81721">
        <ele>23.746979</ele>
        <time>2020-10-02T14:00:52.805Z</time>
      </trkpt>
      <trkpt lat="63.28701" lon="18.81719">
        <ele>23.930549</ele>
        <time>2020-10-02T14:00:54.843Z</time>
      </trkpt>
      <trkpt lat="63.28692" lon="18.81716">
        <ele>24.111196</ele>
        <time>2020-10-02T14:00:56.833Z</time>
      </trkpt>
      <trkpt lat="63.28679" lon="18.81711">
        <ele>24.356296</ele>
        <time>2020-10-02T14:00:59.805Z</time>
      </trkpt>
      <trkpt lat="63.28666" lon="18.81708">
        <ele>24.596</ele>
        <time>2020-10-02T14:01:02.805Z</time>
      </trkpt>
      <trkpt lat="63.28653" lon="18.81706">
        <ele>24.844073</ele>
        <time>2020-10-02T14:01:05.858Z</time>
      </trkpt>
      <trkpt lat="63.28641" lon="18.81703">
        <ele>25.068528</ele>
        <time>2020-10-02T14:01:08.821Z</time>
      </trkpt>
      <trkpt lat="63.2863" lon="18.817">
        <ele>25.276615</ele>
        <time>2020-10-02T14:01:11.852Z</time>
      </trkpt>
      <trkpt lat="63.28618" lon="18.81697">
        <ele>25.492735</ele>
        <time>2020-10-02T14:01:14.811Z</time>
      </trkpt>
      <trkpt lat="63.28607" lon="18.81693">
        <ele>25.701608</ele>
        <time>2020-10-02T14:01:17.815Z</time>
      </trkpt>
      <trkpt lat="63.28596" lon="18.8169">
        <ele>25.909232</ele>
        <time>2020-10-02T14:01:20.834Z</time>
      </trkpt>
      <trkpt lat="63.28584" lon="18.81688">
        <ele>26.130072</ele>
        <time>2020-10-02T14:01:23.829Z</time>
      </trkpt>
      <trkpt lat="63.28572" lon="18.81684">
        <ele>26.362379</ele>
        <time>2020-10-02T14:01:26.808Z</time>
      </trkpt>
      <trkpt lat="63.28559" lon="18.81681">
        <ele>26.596836</ele>
        <time>2020-10-02T14:01:29.821Z</time>
      </trkpt>
      <trkpt lat="63.28547" lon="18.81678">
        <ele>26.821291</ele>
        <time>2020-10-02T14:01:32.790Z</time>
      </trkpt>
      <trkpt lat="63.28535" lon="18.81676">
        <ele>27.058977</ele>
        <time>2020-10-02T14:01:35.800Z</time>
      </trkpt>
      <trkpt lat="63.28524" lon="18.81674">
        <ele>27.292758</ele>
        <time>2020-10-02T14:01:38.843Z</time>
      </trkpt>
      <trkpt lat="63.28514" lon="18.81672">
        <ele>27.513483</ele>
        <time>2020-10-02T14:01:41.837Z</time>
      </trkpt>
      <trkpt lat="63.28502" lon="18.8167">
        <ele>27.755975</ele>
        <time>2020-10-02T14:01:44.816Z</time>
      </trkpt>
      <trkpt lat="63.28491" lon="18.81667">
        <ele>27.987752</ele>
        <time>2020-10-02T14:01:47.807Z</time>
      </trkpt>
      <trkpt lat="63.28482" lon="18.81665">
        <ele>28.192496</ele>
        <time>2020-10-02T14:01:50.833Z</time>
      </trkpt>
      <trkpt lat="63.28472" lon="18.81661">
        <ele>28.401183</ele>
        <time>2020-10-02T14:01:53.805Z</time>
      </trkpt>
      <trkpt lat="63.2846" lon="18.81656">
        <ele>28.644758</ele>
        <time>2020-10-02T14:01:57.806Z</time>
      </trkpt>
      <trkpt lat="63.28449" lon="18.81654">
        <ele>28.895423</ele>
        <time>2020-10-02T14:02:01.823Z</time>
      </trkpt>
      <trkpt lat="63.28437" lon="18.81651">
        <ele>29.129669</ele>
        <time>2020-10-02T14:02:05.795Z</time>
      </trkpt>
      <trkpt lat="63.28428" lon="18.81649">
        <ele>29.319939</ele>
        <time>2020-10-02T14:02:08.818Z</time>
      </trkpt>
      <trkpt lat="63.28418" lon="18.81646">
        <ele>29.541276</ele>
        <time>2020-10-02T14:02:12.820Z</time>
      </trkpt>
      <trkpt lat="63.28409" lon="18.81643">
        <ele>29.731917</ele>
        <time>2020-10-02T14:02:15.813Z</time>
      </trkpt>
      <trkpt lat="63.28399" lon="18.81641">
        <ele>29.943475</ele>
        <time>2020-10-02T14:02:18.814Z</time>
      </trkpt>
      <trkpt lat="63.28388" lon="18.81638">
        <ele>30.171466</ele>
        <time>2020-10-02T14:02:21.805Z</time>
      </trkpt>
      <trkpt lat="63.28376" lon="18.81635">
        <ele>30.422499</ele>
        <time>2020-10-02T14:02:24.801Z</time>
      </trkpt>
      <trkpt lat="63.28362" lon="18.81632">
        <ele>30.593399</ele>
        <time>2020-10-02T14:02:27.827Z</time>
      </trkpt>
      <trkpt lat="63.28352" lon="18.81629">
        <ele>30.279725</ele>
        <time>2020-10-02T14:02:29.827Z</time>
      </trkpt>
      <trkpt lat="63.2834" lon="18.81626">
        <ele>29.93615</ele>
        <time>2020-10-02T14:02:31.814Z</time>
      </trkpt>
      <trkpt lat="63.28327" lon="18.81622">
        <ele>29.569496</ele>
        <time>2020-10-02T14:02:33.802Z</time>
      </trkpt>
      <trkpt lat="63.28314" lon="18.81619">
        <ele>29.171155</ele>
        <time>2020-10-02T14:02:35.833Z</time>
      </trkpt>
      <trkpt lat="63.28299" lon="18.81616">
        <ele>28.756406</ele>
        <time>2020-10-02T14:02:37.824Z</time>
      </trkpt>
      <trkpt lat="63.28285" lon="18.81612">
        <ele>28.332386</ele>
        <time>2020-10-02T14:02:39.810Z</time>
      </trkpt>
      <trkpt lat="63.28269" lon="18.81608">
        <ele>27.88498</ele>
        <time>2020-10-02T14:02:41.808Z</time>
      </trkpt>
      <trkpt lat="63.28254" lon="18.81605">
        <ele>27.429739</ele>
        <time>2020-10-02T14:02:43.829Z</time>
      </trkpt>
      <trkpt lat="63.28238" lon="18.81601">
        <ele>26.972813</ele>
        <time>2020-10-02T14:02:45.834Z</time>
      </trkpt>
      <trkpt lat="63.28223" lon="18.81598">
        <ele>26.535391</ele>
        <time>2020-10-02T14:02:47.808Z</time>
      </trkpt>
      <trkpt lat="63.28208" lon="18.81598">
        <ele>26.107966</ele>
        <time>2020-10-02T14:02:49.836Z</time>
      </trkpt>
      <trkpt lat="63.28194" lon="18.81597">
        <ele>25.706598</ele>
        <time>2020-10-02T14:02:51.823Z</time>
      </trkpt>
      <trkpt lat="63.28181" lon="18.81597">
        <ele>25.770273</ele>
        <time>2020-10-02T14:02:53.808Z</time>
      </trkpt>
      <trkpt lat="63.2817" lon="18.81596">
        <ele>26.524875</ele>
        <time>2020-10-02T14:02:55.829Z</time>
      </trkpt>
      <trkpt lat="63.28159" lon="18.81598">
        <ele>27.261253</ele>
        <time>2020-10-02T14:02:57.803Z</time>
      </trkpt>
      <trkpt lat="63.28149" lon="18.81598">
        <ele>27.884576</ele>
        <time>2020-10-02T14:02:59.815Z</time>
      </trkpt>
      <trkpt lat="63.28135" lon="18.81598">
        <ele>28.776501</ele>
        <time>2020-10-02T14:03:02.808Z</time>
      </trkpt>
      <trkpt lat="63.28126" lon="18.81598">
        <ele>29.386396</ele>
        <time>2020-10-02T14:03:04.803Z</time>
      </trkpt>
      <trkpt lat="63.28116" lon="18.81598">
        <ele>30.02252</ele>
        <time>2020-10-02T14:03:06.824Z</time>
      </trkpt>
      <trkpt lat="63.28104" lon="18.81598">
        <ele>30.829203</ele>
        <time>2020-10-02T14:03:09.808Z</time>
      </trkpt>
      <trkpt lat="63.28093" lon="18.81597">
        <ele>31.544211</ele>
        <time>2020-10-02T14:03:12.816Z</time>
      </trkpt>
      <trkpt lat="63.28082" lon="18.81597">
        <ele>32.252596</ele>
        <time>2020-10-02T14:03:15.794Z</time>
      </trkpt>
      <trkpt lat="63.28072" lon="18.81596">
        <ele>32.934756</ele>
        <time>2020-10-02T14:03:18.819Z</time>
      </trkpt>
      <trkpt lat="63.28062" lon="18.81596">
        <ele>33.597084</ele>
        <time>2020-10-02T14:03:21.825Z</time>
      </trkpt>
      <trkpt lat="63.28052" lon="18.81596">
        <ele>34.233188</ele>
        <time>2020-10-02T14:03:24.846Z</time>
      </trkpt>
      <trkpt lat="63.28041" lon="18.81597">
        <ele>34.980818</ele>
        <time>2020-10-02T14:03:28.809Z</time>
      </trkpt>
      <trkpt lat="63.28031" lon="18.81597">
        <ele>35.643204</ele>
        <time>2020-10-02T14:03:32.823Z</time>
      </trkpt>
      <trkpt lat="63.2802" lon="18.81597">
        <ele>36.351491</ele>
        <time>2020-10-02T14:03:37.803Z</time>
      </trkpt>
      <trkpt lat="63.28011" lon="18.816">
        <ele>36.968169</ele>
        <time>2020-10-02T14:03:43.824Z</time>
      </trkpt>
      <trkpt lat="63.28" lon="18.81601">
        <ele>37.642277</ele>
        <time>2020-10-02T14:03:49.858Z</time>
      </trkpt>
      <trkpt lat="63.27991" lon="18.81601">
        <ele>38.238746</ele>
        <time>2020-10-02T14:03:54.861Z</time>
      </trkpt>
      <trkpt lat="63.27981" lon="18.81601">
        <ele>38.880042</ele>
        <time>2020-10-02T14:04:00.838Z</time>
      </trkpt>
      <trkpt lat="63.27971" lon="18.816">
        <ele>39.535238</ele>
        <time>2020-10-02T14:04:06.844Z</time>
      </trkpt>
      <trkpt lat="63.2796" lon="18.816">
        <ele>40.215037</ele>
        <time>2020-10-02T14:04:12.794Z</time>
      </trkpt>
      <trkpt lat="63.2795" lon="18.816">
        <ele>40.869185</ele>
        <time>2020-10-02T14:04:17.804Z</time>
      </trkpt>
      <trkpt lat="63.2794" lon="18.81599">
        <ele>41.491671</ele>
        <time>2020-10-02T14:04:22.812Z</time>
      </trkpt>
      <trkpt lat="63.2793" lon="18.81596">
        <ele>42.172132</ele>
        <time>2020-10-02T14:04:28.812Z</time>
      </trkpt>
      <trkpt lat="63.2792" lon="18.81593">
        <ele>42.818137</ele>
        <time>2020-10-02T14:04:33.793Z</time>
      </trkpt>
      <trkpt lat="63.27911" lon="18.81588">
        <ele>43.41304</ele>
        <time>2020-10-02T14:04:37.835Z</time>
      </trkpt>
      <trkpt lat="63.27902" lon="18.81582">
        <ele>43.988534</ele>
        <time>2020-10-02T14:04:41.795Z</time>
      </trkpt>
      <trkpt lat="63.27893" lon="18.81572">
        <ele>44.649742</ele>
        <time>2020-10-02T14:04:46.825Z</time>
      </trkpt>
      <trkpt lat="63.27885" lon="18.81561">
        <ele>45.249006</ele>
        <time>2020-10-02T14:04:51.799Z</time>
      </trkpt>
      <trkpt lat="63.27878" lon="18.81548">
        <ele>45.836339</ele>
        <time>2020-10-02T14:04:55.809Z</time>
      </trkpt>
      <trkpt lat="63.27871" lon="18.81532">
        <ele>46.473533</ele>
        <time>2020-10-02T14:04:59.821Z</time>
      </trkpt>
      <trkpt lat="63.27864" lon="18.81514">
        <ele>47.174656</ele>
        <time>2020-10-02T14:05:03.828Z</time>
      </trkpt>
      <trkpt lat="63.27857" lon="18.81499">
        <ele>47.786044</ele>
        <time>2020-10-02T14:05:06.834Z</time>
      </trkpt>
      <trkpt lat="63.2785" lon="18.81484">
        <ele>48.397433</ele>
        <time>2020-10-02T14:05:09.819Z</time>
      </trkpt>
      <trkpt lat="63.27844" lon="18.81468">
        <ele>48.628017</ele>
        <time>2020-10-02T14:05:12.817Z</time>
      </trkpt>
      <trkpt lat="63.27837" lon="18.81454">
        <ele>48.181876</ele>
        <time>2020-10-02T14:05:15.822Z</time>
      </trkpt>
      <trkpt lat="63.2783" lon="18.81438">
        <ele>47.695945</ele>
        <time>2020-10-02T14:05:18.797Z</time>
      </trkpt>
      <trkpt lat="63.27823" lon="18.81423">
        <ele>47.191079</ele>
        <time>2020-10-02T14:05:21.807Z</time>
      </trkpt>
      <trkpt lat="63.27815" lon="18.81407">
        <ele>46.678135</ele>
        <time>2020-10-02T14:05:24.837Z</time>
      </trkpt>
      <trkpt lat="63.27808" lon="18.81388">
        <ele>46.137604</ele>
        <time>2020-10-02T14:05:27.835Z</time>
      </trkpt>
      <trkpt lat="63.27801" lon="18.81366">
        <ele>45.533241</ele>
        <time>2020-10-02T14:05:30.798Z</time>
      </trkpt>
      <trkpt lat="63.27795" lon="18.8135">
        <ele>45.081559</ele>
        <time>2020-10-02T14:05:32.813Z</time>
      </trkpt>
      <trkpt lat="63.27788" lon="18.81332">
        <ele>44.569368</ele>
        <time>2020-10-02T14:05:34.809Z</time>
      </trkpt>
      <trkpt lat="63.27781" lon="18.81314">
        <ele>44.035862</ele>
        <time>2020-10-02T14:05:36.806Z</time>
      </trkpt>
      <trkpt lat="63.27774" lon="18.81295">
        <ele>43.479215</ele>
        <time>2020-10-02T14:05:38.824Z</time>
      </trkpt>
      <trkpt lat="63.27766" lon="18.81274">
        <ele>42.876615</ele>
        <time>2020-10-02T14:05:40.810Z</time>
      </trkpt>
      <trkpt lat="63.27758" lon="18.81251">
        <ele>42.222653</ele>
        <time>2020-10-02T14:05:42.800Z</time>
      </trkpt>
      <trkpt lat="63.27749" lon="18.81226">
        <ele>41.515783</ele>
        <time>2020-10-02T14:05:44.820Z</time>
      </trkpt>
      <trkpt lat="63.2774" lon="18.81201">
        <ele>40.78899</ele>
        <time>2020-10-02T14:05:46.809Z</time>
      </trkpt>
      <trkpt lat="63.27729" lon="18.81175">
        <ele>40.015082</ele>
        <time>2020-10-02T14:05:48.815Z</time>
      </trkpt>
      <trkpt lat="63.27719" lon="18.81146">
        <ele>39.524935</ele>
        <time>2020-10-02T14:05:50.824Z</time>
      </trkpt>
      <trkpt lat="63.27708" lon="18.81115">
        <ele>39.0458</ele>
        <time>2020-10-02T14:05:52.833Z</time>
      </trkpt>
      <trkpt lat="63.27703" lon="18.811">
        <ele>38.797165</ele>
        <time>2020-10-02T14:05:53.822Z</time>
      </trkpt>
      <trkpt lat="63.27691" lon="18.81072">
        <ele>38.330027</ele>
        <time>2020-10-02T14:05:55.835Z</time>
      </trkpt>
      <trkpt lat="63.27681" lon="18.81047">
        <ele>37.904412</ele>
        <time>2020-10-02T14:05:57.842Z</time>
      </trkpt>
      <trkpt lat="63.2767" lon="18.81025">
        <ele>37.493831</ele>
        <time>2020-10-02T14:05:59.804Z</time>
      </trkpt>
      <trkpt lat="63.2766" lon="18.81007">
        <ele>37.123861</ele>
        <time>2020-10-02T14:06:01.814Z</time>
      </trkpt>
      <trkpt lat="63.27649" lon="18.80993">
        <ele>36.786853</ele>
        <time>2020-10-02T14:06:03.815Z</time>
      </trkpt>
      <trkpt lat="63.27639" lon="18.80982">
        <ele>36.484207</ele>
        <time>2020-10-02T14:06:05.893Z</time>
      </trkpt>
      <trkpt lat="63.27631" lon="18.80974">
        <ele>36.223227</ele>
        <time>2020-10-02T14:06:07.824Z</time>
      </trkpt>
      <trkpt lat="63.27619" lon="18.80965">
        <ele>35.887462</ele>
        <time>2020-10-02T14:06:10.829Z</time>
      </trkpt>
      <trkpt lat="63.2761" lon="18.80959">
        <ele>35.610343</ele>
        <time>2020-10-02T14:06:13.809Z</time>
      </trkpt>
      <trkpt lat="63.27601" lon="18.80953">
        <ele>35.360929</ele>
        <time>2020-10-02T14:06:16.829Z</time>
      </trkpt>
      <trkpt lat="63.27592" lon="18.80948">
        <ele>35.107531</ele>
        <time>2020-10-02T14:06:19.824Z</time>
      </trkpt>
      <trkpt lat="63.27581" lon="18.80942">
        <ele>35.268226</ele>
        <time>2020-10-02T14:06:23.843Z</time>
      </trkpt>
      <trkpt lat="63.27571" lon="18.80937">
        <ele>35.732985</ele>
        <time>2020-10-02T14:06:26.806Z</time>
      </trkpt>
      <trkpt lat="63.27559" lon="18.80932">
        <ele>36.321121</ele>
        <time>2020-10-02T14:06:30.838Z</time>
      </trkpt>
      <trkpt lat="63.2755" lon="18.80929">
        <ele>36.798562</ele>
        <time>2020-10-02T14:06:33.812Z</time>
      </trkpt>
      <trkpt lat="63.27541" lon="18.80927">
        <ele>37.249714</ele>
        <time>2020-10-02T14:06:36.834Z</time>
      </trkpt>
      <trkpt lat="63.27531" lon="18.80925">
        <ele>37.728908</ele>
        <time>2020-10-02T14:06:39.810Z</time>
      </trkpt>
      <trkpt lat="63.27521" lon="18.80922">
        <ele>38.20635</ele>
        <time>2020-10-02T14:06:42.808Z</time>
      </trkpt>
      <trkpt lat="63.27509" lon="18.80922">
        <ele>38.786921</ele>
        <time>2020-10-02T14:06:46.850Z</time>
      </trkpt>
      <trkpt lat="63.27499" lon="18.80923">
        <ele>39.260517</ele>
        <time>2020-10-02T14:06:49.829Z</time>
      </trkpt>
      <trkpt lat="63.27489" lon="18.80922">
        <ele>39.792529</ele>
        <time>2020-10-02T14:06:52.836Z</time>
      </trkpt>
      <trkpt lat="63.27477" lon="18.80923">
        <ele>40.369096</ele>
        <time>2020-10-02T14:06:55.808Z</time>
      </trkpt>
      <trkpt lat="63.27465" lon="18.80923">
        <ele>40.920336</ele>
        <time>2020-10-02T14:06:58.827Z</time>
      </trkpt>
      <trkpt lat="63.27455" lon="18.80924">
        <ele>41.442343</ele>
        <time>2020-10-02T14:07:01.804Z</time>
      </trkpt>
      <trkpt lat="63.27444" lon="18.80923">
        <ele>41.974179</ele>
        <time>2020-10-02T14:07:04.790Z</time>
      </trkpt>
      <trkpt lat="63.27434" lon="18.80923">
        <ele>42.471832</ele>
        <time>2020-10-02T14:07:07.812Z</time>
      </trkpt>
      <trkpt lat="63.27423" lon="18.80921">
        <ele>43.005186</ele>
        <time>2020-10-02T14:07:10.805Z</time>
      </trkpt>
      <trkpt lat="63.27411" lon="18.8092">
        <ele>43.55705</ele>
        <time>2020-10-02T14:07:13.821Z</time>
      </trkpt>
      <trkpt lat="63.27401" lon="18.80918">
        <ele>43.690229</ele>
        <time>2020-10-02T14:07:16.843Z</time>
      </trkpt>
      <trkpt lat="63.27391" lon="18.80914">
        <ele>43.637179</ele>
        <time>2020-10-02T14:07:19.834Z</time>
      </trkpt>
      <trkpt lat="63.27381" lon="18.80908">
        <ele>43.583161</ele>
        <time>2020-10-02T14:07:22.804Z</time>
      </trkpt>
      <trkpt lat="63.27369" lon="18.809">
        <ele>43.520743</ele>
        <time>2020-10-02T14:07:25.822Z</time>
      </trkpt>
      <trkpt lat="63.27358" lon="18.80889">
        <ele>43.458284</ele>
        <time>2020-10-02T14:07:28.803Z</time>
      </trkpt>
      <trkpt lat="63.27349" lon="18.80878">
        <ele>43.40351</ele>
        <time>2020-10-02T14:07:31.803Z</time>
      </trkpt>
      <trkpt lat="63.2734" lon="18.80864">
        <ele>43.343998</ele>
        <time>2020-10-02T14:07:34.823Z</time>
      </trkpt>
      <trkpt lat="63.27331" lon="18.80849">
        <ele>43.28542</ele>
        <time>2020-10-02T14:07:37.805Z</time>
      </trkpt>
      <trkpt lat="63.27322" lon="18.80833">
        <ele>43.226062</ele>
        <time>2020-10-02T14:07:40.845Z</time>
      </trkpt>
      <trkpt lat="63.27314" lon="18.80815">
        <ele>43.168203</ele>
        <time>2020-10-02T14:07:43.834Z</time>
      </trkpt>
      <trkpt lat="63.27306" lon="18.80796">
        <ele>43.106084</ele>
        <time>2020-10-02T14:07:46.801Z</time>
      </trkpt>
      <trkpt lat="63.273" lon="18.80779">
        <ele>43.055815</ele>
        <time>2020-10-02T14:07:48.814Z</time>
      </trkpt>
      <trkpt lat="63.27294" lon="18.80762">
        <ele>43.004904</ele>
        <time>2020-10-02T14:07:50.803Z</time>
      </trkpt>
      <trkpt lat="63.27289" lon="18.80745">
        <ele>42.954241</ele>
        <time>2020-10-02T14:07:52.838Z</time>
      </trkpt>
      <trkpt lat="63.27282" lon="18.80727">
        <ele>42.901485</ele>
        <time>2020-10-02T14:07:54.815Z</time>
      </trkpt>
      <trkpt lat="63.27276" lon="18.8071">
        <ele>42.849376</ele>
        <time>2020-10-02T14:07:56.804Z</time>
      </trkpt>
      <trkpt lat="63.2727" lon="18.80695">
        <ele>42.802481</ele>
        <time>2020-10-02T14:07:58.812Z</time>
      </trkpt>
      <trkpt lat="63.27262" lon="18.80688">
        <ele>42.330207</ele>
        <time>2020-10-02T14:08:00.807Z</time>
      </trkpt>
      <trkpt lat="63.27251" lon="18.80693">
        <ele>41.517669</ele>
        <time>2020-10-02T14:08:02.801Z</time>
      </trkpt>
      <trkpt lat="63.27239" lon="18.80703">
        <ele>40.580205</ele>
        <time>2020-10-02T14:08:04.809Z</time>
      </trkpt>
      <trkpt lat="63.27229" lon="18.80713">
        <ele>39.7225</ele>
        <time>2020-10-02T14:08:06.821Z</time>
      </trkpt>
      <trkpt lat="63.27217" lon="18.80725">
        <ele>38.779018</ele>
        <time>2020-10-02T14:08:08.802Z</time>
      </trkpt>
      <trkpt lat="63.27204" lon="18.80739">
        <ele>37.700649</ele>
        <time>2020-10-02T14:08:10.807Z</time>
      </trkpt>
      <trkpt lat="63.27191" lon="18.80755">
        <ele>36.542736</ele>
        <time>2020-10-02T14:08:12.808Z</time>
      </trkpt>
      <trkpt lat="63.27177" lon="18.8077">
        <ele>35.398384</ele>
        <time>2020-10-02T14:08:14.827Z</time>
      </trkpt>
      <trkpt lat="63.27163" lon="18.80785">
        <ele>34.244391</ele>
        <time>2020-10-02T14:08:16.797Z</time>
      </trkpt>
      <trkpt lat="63.27149" lon="18.808">
        <ele>33.084219</ele>
        <time>2020-10-02T14:08:18.806Z</time>
      </trkpt>
      <trkpt lat="63.27134" lon="18.80815">
        <ele>31.896999</ele>
        <time>2020-10-02T14:08:20.840Z</time>
      </trkpt>
      <trkpt lat="63.27119" lon="18.80831">
        <ele>30.64875</ele>
        <time>2020-10-02T14:08:22.835Z</time>
      </trkpt>
      <trkpt lat="63.27105" lon="18.80847">
        <ele>29.461263</ele>
        <time>2020-10-02T14:08:24.823Z</time>
      </trkpt>
      <trkpt lat="63.27092" lon="18.80863">
        <ele>28.42115</ele>
        <time>2020-10-02T14:08:26.807Z</time>
      </trkpt>
      <trkpt lat="63.27077" lon="18.80877">
        <ele>27.352597</ele>
        <time>2020-10-02T14:08:28.858Z</time>
      </trkpt>
      <trkpt lat="63.27062" lon="18.80891">
        <ele>26.240447</ele>
        <time>2020-10-02T14:08:30.814Z</time>
      </trkpt>
      <trkpt lat="63.27046" lon="18.80905">
        <ele>25.094024</ele>
        <time>2020-10-02T14:08:32.816Z</time>
      </trkpt>
      <trkpt lat="63.2703" lon="18.80917">
        <ele>23.923493</ele>
        <time>2020-10-02T14:08:34.832Z</time>
      </trkpt>
      <trkpt lat="63.27014" lon="18.80925">
        <ele>22.806405</ele>
        <time>2020-10-02T14:08:36.826Z</time>
      </trkpt>
      <trkpt lat="63.26999" lon="18.80932">
        <ele>21.769222</ele>
        <time>2020-10-02T14:08:38.827Z</time>
      </trkpt>
      <trkpt lat="63.26985" lon="18.80937">
        <ele>20.785746</ele>
        <time>2020-10-02T14:08:40.816Z</time>
      </trkpt>
      <trkpt lat="63.26971" lon="18.80941">
        <ele>19.832328</ele>
        <time>2020-10-02T14:08:42.811Z</time>
      </trkpt>
      <trkpt lat="63.26958" lon="18.80945">
        <ele>18.954152</ele>
        <time>2020-10-02T14:08:44.808Z</time>
      </trkpt>
      <trkpt lat="63.26946" lon="18.80949">
        <ele>18.116734</ele>
        <time>2020-10-02T14:08:46.802Z</time>
      </trkpt>
      <trkpt lat="63.26935" lon="18.80954">
        <ele>17.37273</ele>
        <time>2020-10-02T14:08:48.831Z</time>
      </trkpt>
      <trkpt lat="63.26925" lon="18.80957">
        <ele>17.178495</ele>
        <time>2020-10-02T14:08:50.816Z</time>
      </trkpt>
      <trkpt lat="63.26915" lon="18.8096">
        <ele>17.184191</ele>
        <time>2020-10-02T14:08:52.834Z</time>
      </trkpt>
      <trkpt lat="63.26904" lon="18.80961">
        <ele>17.190076</ele>
        <time>2020-10-02T14:08:54.808Z</time>
      </trkpt>
      <trkpt lat="63.26893" lon="18.8096">
        <ele>17.196128</ele>
        <time>2020-10-02T14:08:56.821Z</time>
      </trkpt>
      <trkpt lat="63.26883" lon="18.80956">
        <ele>17.202111</ele>
        <time>2020-10-02T14:08:58.858Z</time>
      </trkpt>
      <trkpt lat="63.26874" lon="18.80945">
        <ele>17.207838</ele>
        <time>2020-10-02T14:09:00.796Z</time>
      </trkpt>
      <trkpt lat="63.26868" lon="18.80927">
        <ele>17.213583</ele>
        <time>2020-10-02T14:09:02.816Z</time>
      </trkpt>
      <trkpt lat="63.26864" lon="18.80905">
        <ele>17.219469</ele>
        <time>2020-10-02T14:09:04.805Z</time>
      </trkpt>
      <trkpt lat="63.26861" lon="18.80881">
        <ele>17.225687</ele>
        <time>2020-10-02T14:09:06.789Z</time>
      </trkpt>
      <trkpt lat="63.26858" lon="18.80857">
        <ele>17.23181</ele>
        <time>2020-10-02T14:09:08.804Z</time>
      </trkpt>
      <trkpt lat="63.26856" lon="18.80836">
        <ele>17.237254</ele>
        <time>2020-10-02T14:09:10.821Z</time>
      </trkpt>
      <trkpt lat="63.26853" lon="18.80809">
        <ele>17.244283</ele>
        <time>2020-10-02T14:09:13.827Z</time>
      </trkpt>
      <trkpt lat="63.26851" lon="18.80783">
        <ele>17.250955</ele>
        <time>2020-10-02T14:09:16.792Z</time>
      </trkpt>
      <trkpt lat="63.26848" lon="18.80759">
        <ele>17.257124</ele>
        <time>2020-10-02T14:09:19.799Z</time>
      </trkpt>
      <trkpt lat="63.26845" lon="18.80739">
        <ele>17.262576</ele>
        <time>2020-10-02T14:09:22.840Z</time>
      </trkpt>
      <trkpt lat="63.26841" lon="18.80718">
        <ele>17.268481</ele>
        <time>2020-10-02T14:09:25.825Z</time>
      </trkpt>
      <trkpt lat="63.26835" lon="18.80696">
        <ele>17.274728</ele>
        <time>2020-10-02T14:09:28.819Z</time>
      </trkpt>
      <trkpt lat="63.26828" lon="18.80671">
        <ele>17.459288</ele>
        <time>2020-10-02T14:09:31.828Z</time>
      </trkpt>
      <trkpt lat="63.26822" lon="18.80655">
        <ele>17.587937</ele>
        <time>2020-10-02T14:09:33.835Z</time>
      </trkpt>
      <trkpt lat="63.26816" lon="18.80642">
        <ele>17.715666</ele>
        <time>2020-10-02T14:09:35.806Z</time>
      </trkpt>
      <trkpt lat="63.26808" lon="18.8063">
        <ele>17.846038</ele>
        <time>2020-10-02T14:09:37.807Z</time>
      </trkpt>
      <trkpt lat="63.268" lon="18.8062">
        <ele>17.980936</ele>
        <time>2020-10-02T14:09:39.835Z</time>
      </trkpt>
      <trkpt lat="63.2679" lon="18.80612">
        <ele>18.12704</ele>
        <time>2020-10-02T14:09:41.814Z</time>
      </trkpt>
      <trkpt lat="63.26781" lon="18.80605">
        <ele>18.270122</ele>
        <time>2020-10-02T14:09:43.810Z</time>
      </trkpt>
      <trkpt lat="63.26771" lon="18.80601">
        <ele>18.406218</ele>
        <time>2020-10-02T14:09:45.800Z</time>
      </trkpt>
      <trkpt lat="63.26761" lon="18.80599">
        <ele>18.547467</ele>
        <time>2020-10-02T14:09:47.819Z</time>
      </trkpt>
      <trkpt lat="63.26752" lon="18.806">
        <ele>18.681174</ele>
        <time>2020-10-02T14:09:49.823Z</time>
      </trkpt>
      <trkpt lat="63.26742" lon="18.80602">
        <ele>18.819825</ele>
        <time>2020-10-02T14:09:51.814Z</time>
      </trkpt>
      <trkpt lat="63.26733" lon="18.80605">
        <ele>18.955151</ele>
        <time>2020-10-02T14:09:53.800Z</time>
      </trkpt>
      <trkpt lat="63.26723" lon="18.8061">
        <ele>19.095802</ele>
        <time>2020-10-02T14:09:55.833Z</time>
      </trkpt>
      <trkpt lat="63.26713" lon="18.80615">
        <ele>19.23769</ele>
        <time>2020-10-02T14:09:57.815Z</time>
      </trkpt>
      <trkpt lat="63.26704" lon="18.80621">
        <ele>19.372665</ele>
        <time>2020-10-02T14:09:59.829Z</time>
      </trkpt>
      <trkpt lat="63.26694" lon="18.80627">
        <ele>19.522185</ele>
        <time>2020-10-02T14:10:01.827Z</time>
      </trkpt>
      <trkpt lat="63.26684" lon="18.80633">
        <ele>19.673761</ele>
        <time>2020-10-02T14:10:03.797Z</time>
      </trkpt>
      <trkpt lat="63.26674" lon="18.8064">
        <ele>19.825842</ele>
        <time>2020-10-02T14:10:05.820Z</time>
      </trkpt>
      <trkpt lat="63.26664" lon="18.80647">
        <ele>19.955977</ele>
        <time>2020-10-02T14:10:07.838Z</time>
      </trkpt>
      <trkpt lat="63.26655" lon="18.80657">
        <ele>20.08076</ele>
        <time>2020-10-02T14:10:09.830Z</time>
      </trkpt>
      <trkpt lat="63.26647" lon="18.80669">
        <ele>20.205916</ele>
        <time>2020-10-02T14:10:11.817Z</time>
      </trkpt>
      <trkpt lat="63.2664" lon="18.80682">
        <ele>20.320351</ele>
        <time>2020-10-02T14:10:13.849Z</time>
      </trkpt>
      <trkpt lat="63.26631" lon="18.80702">
        <ele>20.480154</ele>
        <time>2020-10-02T14:10:16.822Z</time>
      </trkpt>
      <trkpt lat="63.26623" lon="18.80723">
        <ele>20.640934</ele>
        <time>2020-10-02T14:10:19.832Z</time>
      </trkpt>
      <trkpt lat="63.26616" lon="18.80739">
        <ele>20.764068</ele>
        <time>2020-10-02T14:10:21.820Z</time>
      </trkpt>
      <trkpt lat="63.26609" lon="18.80753">
        <ele>20.882772</ele>
        <time>2020-10-02T14:10:23.812Z</time>
      </trkpt>
      <trkpt lat="63.26602" lon="18.80768">
        <ele>21.00569</ele>
        <time>2020-10-02T14:10:25.832Z</time>
      </trkpt>
      <trkpt lat="63.26594" lon="18.80778">
        <ele>21.126798</ele>
        <time>2020-10-02T14:10:27.816Z</time>
      </trkpt>
      <trkpt lat="63.26584" lon="18.80786">
        <ele>21.257305</ele>
        <time>2020-10-02T14:10:29.793Z</time>
      </trkpt>
      <trkpt lat="63.26574" lon="18.8079">
        <ele>21.390939</ele>
        <time>2020-10-02T14:10:31.806Z</time>
      </trkpt>
      <trkpt lat="63.26564" lon="18.8079">
        <ele>21.514993</ele>
        <time>2020-10-02T14:10:33.805Z</time>
      </trkpt>
      <trkpt lat="63.26554" lon="18.80783">
        <ele>21.647638</ele>
        <time>2020-10-02T14:10:35.813Z</time>
      </trkpt>
      <trkpt lat="63.26544" lon="18.80771">
        <ele>21.79044</ele>
        <time>2020-10-02T14:10:37.806Z</time>
      </trkpt>
      <trkpt lat="63.26535" lon="18.80758">
        <ele>21.922022</ele>
        <time>2020-10-02T14:10:39.822Z</time>
      </trkpt>
      <trkpt lat="63.26527" lon="18.80745">
        <ele>22.0535</ele>
        <time>2020-10-02T14:10:41.801Z</time>
      </trkpt>
      <trkpt lat="63.26518" lon="18.80732">
        <ele>22.138407</ele>
        <time>2020-10-02T14:10:43.838Z</time>
      </trkpt>
      <trkpt lat="63.2651" lon="18.8072">
        <ele>22.19032</ele>
        <time>2020-10-02T14:10:45.840Z</time>
      </trkpt>
      <trkpt lat="63.265" lon="18.8071">
        <ele>22.243214</ele>
        <time>2020-10-02T14:10:47.823Z</time>
      </trkpt>
      <trkpt lat="63.26492" lon="18.80699">
        <ele>22.294048</ele>
        <time>2020-10-02T14:10:49.839Z</time>
      </trkpt>
      <trkpt lat="63.26483" lon="18.80691">
        <ele>22.344046</ele>
        <time>2020-10-02T14:10:51.828Z</time>
      </trkpt>
      <trkpt lat="63.26473" lon="18.80685">
        <ele>22.394123</ele>
        <time>2020-10-02T14:10:53.808Z</time>
      </trkpt>
      <trkpt lat="63.26464" lon="18.8068">
        <ele>22.439844</ele>
        <time>2020-10-02T14:10:55.840Z</time>
      </trkpt>
      <trkpt lat="63.26453" lon="18.80676">
        <ele>22.500154</ele>
        <time>2020-10-02T14:10:58.804Z</time>
      </trkpt>
      <trkpt lat="63.26443" lon="18.80674">
        <ele>22.550818</ele>
        <time>2020-10-02T14:11:01.813Z</time>
      </trkpt>
      <trkpt lat="63.26434" lon="18.80671">
        <ele>22.598313</ele>
        <time>2020-10-02T14:11:04.799Z</time>
      </trkpt>
      <trkpt lat="63.26422" lon="18.80671">
        <ele>22.657496</ele>
        <time>2020-10-02T14:11:08.821Z</time>
      </trkpt>
      <trkpt lat="63.26413" lon="18.80672">
        <ele>22.703099</ele>
        <time>2020-10-02T14:11:11.811Z</time>
      </trkpt>
      <trkpt lat="63.26402" lon="18.80673">
        <ele>22.757675</ele>
        <time>2020-10-02T14:11:14.804Z</time>
      </trkpt>
      <trkpt lat="63.26391" lon="18.80673">
        <ele>22.814321</ele>
        <time>2020-10-02T14:11:17.814Z</time>
      </trkpt>
      <trkpt lat="63.26379" lon="18.80674">
        <ele>22.87558</ele>
        <time>2020-10-02T14:11:20.823Z</time>
      </trkpt>
      <trkpt lat="63.26366" lon="18.80674">
        <ele>22.943441</ele>
        <time>2020-10-02T14:11:23.809Z</time>
      </trkpt>
      <trkpt lat="63.26357" lon="18.80672">
        <ele>22.990985</ele>
        <time>2020-10-02T14:11:25.863Z</time>
      </trkpt>
      <trkpt lat="63.26343" lon="18.8067">
        <ele>23.492751</ele>
        <time>2020-10-02T14:11:28.817Z</time>
      </trkpt>
      <trkpt lat="63.2633" lon="18.80667">
        <ele>24.412335</ele>
        <time>2020-10-02T14:11:31.811Z</time>
      </trkpt>
      <trkpt lat="63.26321" lon="18.80666">
        <ele>25.035172</ele>
        <time>2020-10-02T14:11:33.805Z</time>
      </trkpt>
      <trkpt lat="63.26309" lon="18.80664">
        <ele>25.808557</ele>
        <time>2020-10-02T14:11:36.816Z</time>
      </trkpt>
      <trkpt lat="63.263" lon="18.80663">
        <ele>26.478776</ele>
        <time>2020-10-02T14:11:39.819Z</time>
      </trkpt>
      <trkpt lat="63.26289" lon="18.80661">
        <ele>27.224897</ele>
        <time>2020-10-02T14:11:43.863Z</time>
      </trkpt>
      <trkpt lat="63.26278" lon="18.80656">
        <ele>27.94566</ele>
        <time>2020-10-02T14:11:48.841Z</time>
      </trkpt>
      <trkpt lat="63.26269" lon="18.80652">
        <ele>28.618408</ele>
        <time>2020-10-02T14:11:53.844Z</time>
      </trkpt>
      <trkpt lat="63.26258" lon="18.80652">
        <ele>29.328862</ele>
        <time>2020-10-02T14:11:57.797Z</time>
      </trkpt>
      <trkpt lat="63.26249" lon="18.8065">
        <ele>29.939267</ele>
        <time>2020-10-02T14:12:01.844Z</time>
      </trkpt>
      <trkpt lat="63.26238" lon="18.8065">
        <ele>30.704264</ele>
        <time>2020-10-02T14:12:06.819Z</time>
      </trkpt>
      <trkpt lat="63.26229" lon="18.80652">
        <ele>31.343399</ele>
        <time>2020-10-02T14:12:10.808Z</time>
      </trkpt>
      <trkpt lat="63.2622" lon="18.80657">
        <ele>31.971526</ele>
        <time>2020-10-02T14:12:14.795Z</time>
      </trkpt>
      <trkpt lat="63.26209" lon="18.80663">
        <ele>32.736569</ele>
        <time>2020-10-02T14:12:19.812Z</time>
      </trkpt>
      <trkpt lat="63.262" lon="18.80671">
        <ele>33.397367</ele>
        <time>2020-10-02T14:12:23.804Z</time>
      </trkpt>
      <trkpt lat="63.26189" lon="18.80677">
        <ele>34.145234</ele>
        <time>2020-10-02T14:12:27.814Z</time>
      </trkpt>
      <trkpt lat="63.26181" lon="18.80684">
        <ele>34.780584</ele>
        <time>2020-10-02T14:12:30.832Z</time>
      </trkpt>
      <trkpt lat="63.2617" lon="18.80694">
        <ele>35.326383</ele>
        <time>2020-10-02T14:12:34.795Z</time>
      </trkpt>
      <trkpt lat="63.2616" lon="18.80701">
        <ele>35.36802</ele>
        <time>2020-10-02T14:12:38.806Z</time>
      </trkpt>
      <trkpt lat="63.2615" lon="18.80708">
        <ele>35.408367</ele>
        <time>2020-10-02T14:12:42.821Z</time>
      </trkpt>
      <trkpt lat="63.2614" lon="18.80718">
        <ele>35.451735</ele>
        <time>2020-10-02T14:12:46.808Z</time>
      </trkpt>
      <trkpt lat="63.26129" lon="18.80725">
        <ele>35.496637</ele>
        <time>2020-10-02T14:12:50.799Z</time>
      </trkpt>
      <trkpt lat="63.26121" lon="18.80732">
        <ele>35.532235</ele>
        <time>2020-10-02T14:12:53.801Z</time>
      </trkpt>
      <trkpt lat="63.26112" lon="18.80739">
        <ele>35.56894</ele>
        <time>2020-10-02T14:12:56.813Z</time>
      </trkpt>
      <trkpt lat="63.26103" lon="18.80746">
        <ele>35.607367</ele>
        <time>2020-10-02T14:12:59.817Z</time>
      </trkpt>
      <trkpt lat="63.26092" lon="18.80755">
        <ele>35.652809</ele>
        <time>2020-10-02T14:13:03.825Z</time>
      </trkpt>
      <trkpt lat="63.26083" lon="18.80763">
        <ele>35.689039</ele>
        <time>2020-10-02T14:13:06.795Z</time>
      </trkpt>
      <trkpt lat="63.26072" lon="18.80771">
        <ele>35.7354</ele>
        <time>2020-10-02T14:13:10.807Z</time>
      </trkpt>
      <trkpt lat="63.26062" lon="18.80778">
        <ele>35.777095</ele>
        <time>2020-10-02T14:13:14.847Z</time>
      </trkpt>
      <trkpt lat="63.26052" lon="18.80786">
        <ele>35.819397</ele>
        <time>2020-10-02T14:13:18.823Z</time>
      </trkpt>
      <trkpt lat="63.26041" lon="18.80796">
        <ele>35.863863</ele>
        <time>2020-10-02T14:13:22.798Z</time>
      </trkpt>
      <trkpt lat="63.26033" lon="18.80801">
        <ele>35.899648</ele>
        <time>2020-10-02T14:13:25.821Z</time>
      </trkpt>
      <trkpt lat="63.26023" lon="18.8081">
        <ele>35.93961</ele>
        <time>2020-10-02T14:13:28.810Z</time>
      </trkpt>
      <trkpt lat="63.26013" lon="18.80819">
        <ele>35.984928</ele>
        <time>2020-10-02T14:13:31.817Z</time>
      </trkpt>
      <trkpt lat="63.26" lon="18.8083">
        <ele>35.851144</ele>
        <time>2020-10-02T14:13:34.825Z</time>
      </trkpt>
      <trkpt lat="63.25992" lon="18.80836">
        <ele>35.481457</ele>
        <time>2020-10-02T14:13:36.841Z</time>
      </trkpt>
      <trkpt lat="63.25982" lon="18.80843">
        <ele>35.079228</ele>
        <time>2020-10-02T14:13:38.819Z</time>
      </trkpt>
      <trkpt lat="63.25973" lon="18.80849">
        <ele>34.690315</ele>
        <time>2020-10-02T14:13:40.816Z</time>
      </trkpt>
      <trkpt lat="63.25962" lon="18.80854">
        <ele>34.253283</ele>
        <time>2020-10-02T14:13:42.822Z</time>
      </trkpt>
      <trkpt lat="63.2595" lon="18.80858">
        <ele>33.784742</ele>
        <time>2020-10-02T14:13:44.814Z</time>
      </trkpt>
      <trkpt lat="63.25938" lon="18.80864">
        <ele>33.28526</ele>
        <time>2020-10-02T14:13:46.804Z</time>
      </trkpt>
      <trkpt lat="63.25925" lon="18.80869">
        <ele>32.753101</ele>
        <time>2020-10-02T14:13:48.811Z</time>
      </trkpt>
      <trkpt lat="63.25911" lon="18.80871">
        <ele>32.186184</ele>
        <time>2020-10-02T14:13:50.804Z</time>
      </trkpt>
      <trkpt lat="63.25896" lon="18.80872">
        <ele>31.591792</ele>
        <time>2020-10-02T14:13:52.828Z</time>
      </trkpt>
      <trkpt lat="63.25881" lon="18.80876">
        <ele>30.981596</ele>
        <time>2020-10-02T14:13:54.803Z</time>
      </trkpt>
      <trkpt lat="63.25867" lon="18.80882">
        <ele>30.410894</ele>
        <time>2020-10-02T14:13:56.845Z</time>
      </trkpt>
      <trkpt lat="63.25853" lon="18.80888">
        <ele>29.868008</ele>
        <time>2020-10-02T14:13:58.833Z</time>
      </trkpt>
      <trkpt lat="63.25842" lon="18.80895">
        <ele>29.388345</ele>
        <time>2020-10-02T14:14:00.820Z</time>
      </trkpt>
      <trkpt lat="63.25833" lon="18.80902">
        <ele>29.012174</ele>
        <time>2020-10-02T14:14:02.840Z</time>
      </trkpt>
      <trkpt lat="63.25823" lon="18.8091">
        <ele>29.413171</ele>
        <time>2020-10-02T14:14:05.801Z</time>
      </trkpt>
      <trkpt lat="63.25814" lon="18.80918">
        <ele>30.274289</ele>
        <time>2020-10-02T14:14:11.811Z</time>
      </trkpt>
      <trkpt lat="63.25806" lon="18.80925">
        <ele>31.093336</ele>
        <time>2020-10-02T14:14:16.803Z</time>
      </trkpt>
      <trkpt lat="63.25795" lon="18.80932">
        <ele>32.046691</ele>
        <time>2020-10-02T14:14:22.812Z</time>
      </trkpt>
      <trkpt lat="63.25786" lon="18.8094">
        <ele>32.923331</ele>
        <time>2020-10-02T14:14:28.808Z</time>
      </trkpt>
      <trkpt lat="63.25778" lon="18.80948">
        <ele>33.771141</ele>
        <time>2020-10-02T14:14:34.833Z</time>
      </trkpt>
      <trkpt lat="63.25769" lon="18.80957">
        <ele>34.610577</ele>
        <time>2020-10-02T14:14:40.803Z</time>
      </trkpt>
      <trkpt lat="63.2576" lon="18.80958">
        <ele>35.42032</ele>
        <time>2020-10-02T14:14:47.821Z</time>
      </trkpt>
      <trkpt lat="63.2575" lon="18.80963">
        <ele>36.347223</ele>
        <time>2020-10-02T14:14:54.828Z</time>
      </trkpt>
      <trkpt lat="63.25742" lon="18.80972">
        <ele>37.17908</ele>
        <time>2020-10-02T14:15:01.809Z</time>
      </trkpt>
      <trkpt lat="63.25733" lon="18.80982">
        <ele>38.044089</ele>
        <time>2020-10-02T14:15:08.800Z</time>
      </trkpt>
      <trkpt lat="63.25725" lon="18.80993">
        <ele>38.898262</ele>
        <time>2020-10-02T14:15:15.802Z</time>
      </trkpt>
      <trkpt lat="63.25718" lon="18.81008">
        <ele>39.768662</ele>
        <time>2020-10-02T14:15:22.813Z</time>
      </trkpt>
      <trkpt lat="63.2571" lon="18.81022">
        <ele>40.678907</ele>
        <time>2020-10-02T14:15:30.817Z</time>
      </trkpt>
      <trkpt lat="63.25702" lon="18.81031">
        <ele>41.518346</ele>
        <time>2020-10-02T14:15:37.809Z</time>
      </trkpt>
      <trkpt lat="63.25694" lon="18.81043">
        <ele>42.400114</ele>
        <time>2020-10-02T14:15:44.811Z</time>
      </trkpt>
      <trkpt lat="63.25685" lon="18.81053">
        <ele>43.250643</ele>
        <time>2020-10-02T14:15:50.855Z</time>
      </trkpt>
      <trkpt lat="63.25678" lon="18.81066">
        <ele>44.059793</ele>
        <time>2020-10-02T14:15:56.833Z</time>
      </trkpt>
      <trkpt lat="63.2567" lon="18.81075">
        <ele>44.93831</ele>
        <time>2020-10-02T14:16:02.849Z</time>
      </trkpt>
      <trkpt lat="63.25662" lon="18.81087">
        <ele>45.015369</ele>
        <time>2020-10-02T14:16:08.827Z</time>
      </trkpt>
      <trkpt lat="63.25657" lon="18.81105">
        <ele>45.015369</ele>
        <time>2020-10-02T14:16:13.823Z</time>
      </trkpt>
      <trkpt lat="63.25656" lon="18.81126">
        <ele>45.015369</ele>
        <time>2020-10-02T14:16:18.803Z</time>
      </trkpt>
      <trkpt lat="63.25659" lon="18.81146">
        <ele>45.015369</ele>
        <time>2020-10-02T14:16:23.839Z</time>
      </trkpt>
      <trkpt lat="63.25665" lon="18.81161">
        <ele>45.015369</ele>
        <time>2020-10-02T14:16:27.839Z</time>
      </trkpt>
      <trkpt lat="63.25673" lon="18.8117">
        <ele>45.015369</ele>
        <time>2020-10-02T14:16:31.853Z</time>
      </trkpt>
      <trkpt lat="63.25684" lon="18.81177">
        <ele>45.015369</ele>
        <time>2020-10-02T14:16:36.829Z</time>
      </trkpt>
      <trkpt lat="63.25693" lon="18.81178">
        <ele>45.015369</ele>
        <time>2020-10-02T14:16:40.835Z</time>
      </trkpt>
      <trkpt lat="63.25703" lon="18.81175">
        <ele>45.015369</ele>
        <time>2020-10-02T14:16:45.814Z</time>
      </trkpt>
      <trkpt lat="63.25713" lon="18.81169">
        <ele>45.015369</ele>
        <time>2020-10-02T14:16:50.801Z</time>
      </trkpt>
      <trkpt lat="63.25722" lon="18.81163">
        <ele>45.015369</ele>
        <time>2020-10-02T14:16:55.813Z</time>
      </trkpt>
      <trkpt lat="63.25731" lon="18.81158">
        <ele>45.015369</ele>
        <time>2020-10-02T14:17:00.797Z</time>
      </trkpt>
      <trkpt lat="63.2574" lon="18.81149">
        <ele>45.015369</ele>
        <time>2020-10-02T14:17:06.809Z</time>
      </trkpt>
      <trkpt lat="63.25742" lon="18.81143">
        <ele>45.015369</ele>
        <time>2020-10-02T14:18:32.027Z</time>
      </trkpt>
    </trkseg>
  </trk>
</gpx>